<?xml version="1.0" encoding="UTF-8"?>
<gpx version="1.1" creator="https://www.youtrack.es" xsi:schemaLocation="http://www.topografix.com/GPX/1/1 http://www.topografix.com/GPX/1/1/gpx.xsd http://www.garmin.com/xmlschemas/GpxExtensions/v3 http://www.garmin.com/xmlschemas/GpxExtensionsv3.xsd http://www.garmin.com/xmlschemas/TrackPointExtension/v1 http://www.garmin.com/xmlschemas/TrackPointExtensionv1.xsd" xmlns:gpxtpx="http://www.garmin.com/xmlschemas/TrackPointExtension/v1" xmlns:gpxx="http://www.garmin.com/xmlschemas/GpxExtensions/v3" xmlns:xsi="http://www.w3.org/2001/XMLSchema-instance">
  <metadata>
    <link href="https://www.youtrack.es">
      <text>YouTrack.es</text>
    </link>
    <time>2026-05-09T03:28:39Z</time>
  </metadata>
  <trk>
    <src>https://www.youtrack.es</src>
    <link href="https://www.youtrack.es/ruta/1949-de-trabanca-a-vilvestre">
      <text>YouTrack.es</text>
    </link>
    <trkseg>
      <trkpt lat="41.233061" lon="-6.384697">
        <ele>789.507</ele>
        <time>2018-07-24T06:55:34Z</time>
      </trkpt>
      <trkpt lat="41.233061" lon="-6.384697">
        <ele>797.101</ele>
        <time>2018-07-24T06:55:36Z</time>
      </trkpt>
      <trkpt lat="41.233133" lon="-6.3848">
        <ele>797.363</ele>
        <time>2018-07-24T06:55:50Z</time>
      </trkpt>
      <trkpt lat="41.233142" lon="-6.384861">
        <ele>797.526</ele>
        <time>2018-07-24T06:55:52Z</time>
      </trkpt>
      <trkpt lat="41.233148" lon="-6.384944">
        <ele>797.636</ele>
        <time>2018-07-24T06:55:55Z</time>
      </trkpt>
      <trkpt lat="41.233152" lon="-6.38498">
        <ele>797.762</ele>
        <time>2018-07-24T06:55:56Z</time>
      </trkpt>
      <trkpt lat="41.233158" lon="-6.385016">
        <ele>797.809</ele>
        <time>2018-07-24T06:55:57Z</time>
      </trkpt>
      <trkpt lat="41.233163" lon="-6.385051">
        <ele>798.09</ele>
        <time>2018-07-24T06:55:58Z</time>
      </trkpt>
      <trkpt lat="41.233169" lon="-6.385084">
        <ele>798.502</ele>
        <time>2018-07-24T06:55:59Z</time>
      </trkpt>
      <trkpt lat="41.233174" lon="-6.38512">
        <ele>798.73</ele>
        <time>2018-07-24T06:56:00Z</time>
      </trkpt>
      <trkpt lat="41.233179" lon="-6.385159">
        <ele>798.723</ele>
        <time>2018-07-24T06:56:01Z</time>
      </trkpt>
      <trkpt lat="41.233186" lon="-6.3852">
        <ele>798.709</ele>
        <time>2018-07-24T06:56:02Z</time>
      </trkpt>
      <trkpt lat="41.233193" lon="-6.385235">
        <ele>798.693</ele>
        <time>2018-07-24T06:56:03Z</time>
      </trkpt>
      <trkpt lat="41.233199" lon="-6.385273">
        <ele>798.693</ele>
        <time>2018-07-24T06:56:04Z</time>
      </trkpt>
      <trkpt lat="41.233199" lon="-6.385273">
        <ele>798.294</ele>
        <time>2018-07-24T06:58:07Z</time>
      </trkpt>
      <trkpt lat="41.233241" lon="-6.38541">
        <ele>798.275</ele>
        <time>2018-07-24T06:58:08Z</time>
      </trkpt>
      <trkpt lat="41.23325" lon="-6.385476">
        <ele>798.267</ele>
        <time>2018-07-24T06:58:10Z</time>
      </trkpt>
      <trkpt lat="41.233257" lon="-6.385516">
        <ele>798.26</ele>
        <time>2018-07-24T06:58:11Z</time>
      </trkpt>
      <trkpt lat="41.233263" lon="-6.385559">
        <ele>798.255</ele>
        <time>2018-07-24T06:58:12Z</time>
      </trkpt>
      <trkpt lat="41.233268" lon="-6.385601">
        <ele>798.249</ele>
        <time>2018-07-24T06:58:13Z</time>
      </trkpt>
      <trkpt lat="41.23327" lon="-6.385638">
        <ele>798.243</ele>
        <time>2018-07-24T06:58:14Z</time>
      </trkpt>
      <trkpt lat="41.233273" lon="-6.385681">
        <ele>798.237</ele>
        <time>2018-07-24T06:58:15Z</time>
      </trkpt>
      <trkpt lat="41.233277" lon="-6.385719">
        <ele>798.23</ele>
        <time>2018-07-24T06:58:16Z</time>
      </trkpt>
      <trkpt lat="41.233283" lon="-6.385762">
        <ele>798.224</ele>
        <time>2018-07-24T06:58:17Z</time>
      </trkpt>
      <trkpt lat="41.233288" lon="-6.385806">
        <ele>798.219</ele>
        <time>2018-07-24T06:58:18Z</time>
      </trkpt>
      <trkpt lat="41.233293" lon="-6.385849">
        <ele>798.213</ele>
        <time>2018-07-24T06:58:19Z</time>
      </trkpt>
      <trkpt lat="41.233297" lon="-6.385885">
        <ele>798.207</ele>
        <time>2018-07-24T06:58:20Z</time>
      </trkpt>
      <trkpt lat="41.233298" lon="-6.385961">
        <ele>798.205</ele>
        <time>2018-07-24T06:58:22Z</time>
      </trkpt>
      <trkpt lat="41.233302" lon="-6.386009">
        <ele>798.204</ele>
        <time>2018-07-24T06:58:23Z</time>
      </trkpt>
      <trkpt lat="41.233303" lon="-6.386052">
        <ele>798.206</ele>
        <time>2018-07-24T06:58:24Z</time>
      </trkpt>
      <trkpt lat="41.233303" lon="-6.386135">
        <ele>798.209</ele>
        <time>2018-07-24T06:58:26Z</time>
      </trkpt>
      <trkpt lat="41.233303" lon="-6.386189">
        <ele>798.214</ele>
        <time>2018-07-24T06:58:27Z</time>
      </trkpt>
      <trkpt lat="41.233303" lon="-6.386235">
        <ele>798.222</ele>
        <time>2018-07-24T06:58:28Z</time>
      </trkpt>
      <trkpt lat="41.233304" lon="-6.386281">
        <ele>798.231</ele>
        <time>2018-07-24T06:58:29Z</time>
      </trkpt>
      <trkpt lat="41.233303" lon="-6.386327">
        <ele>798.241</ele>
        <time>2018-07-24T06:58:30Z</time>
      </trkpt>
      <trkpt lat="41.233302" lon="-6.386372">
        <ele>798.251</ele>
        <time>2018-07-24T06:58:31Z</time>
      </trkpt>
      <trkpt lat="41.2333" lon="-6.386419">
        <ele>798.26</ele>
        <time>2018-07-24T06:58:32Z</time>
      </trkpt>
      <trkpt lat="41.2333" lon="-6.386461">
        <ele>798.272</ele>
        <time>2018-07-24T06:58:33Z</time>
      </trkpt>
      <trkpt lat="41.233299" lon="-6.386498">
        <ele>798.285</ele>
        <time>2018-07-24T06:58:34Z</time>
      </trkpt>
      <trkpt lat="41.233297" lon="-6.386535">
        <ele>798.299</ele>
        <time>2018-07-24T06:58:35Z</time>
      </trkpt>
      <trkpt lat="41.233297" lon="-6.386581">
        <ele>798.313</ele>
        <time>2018-07-24T06:58:36Z</time>
      </trkpt>
      <trkpt lat="41.233296" lon="-6.386625">
        <ele>798.328</ele>
        <time>2018-07-24T06:58:37Z</time>
      </trkpt>
      <trkpt lat="41.233294" lon="-6.386669">
        <ele>798.341</ele>
        <time>2018-07-24T06:58:38Z</time>
      </trkpt>
      <trkpt lat="41.233294" lon="-6.386712">
        <ele>798.354</ele>
        <time>2018-07-24T06:58:39Z</time>
      </trkpt>
      <trkpt lat="41.233294" lon="-6.386756">
        <ele>798.366</ele>
        <time>2018-07-24T06:58:40Z</time>
      </trkpt>
      <trkpt lat="41.233293" lon="-6.386798">
        <ele>798.378</ele>
        <time>2018-07-24T06:58:41Z</time>
      </trkpt>
      <trkpt lat="41.233292" lon="-6.38684">
        <ele>798.388</ele>
        <time>2018-07-24T06:58:42Z</time>
      </trkpt>
      <trkpt lat="41.233291" lon="-6.386883">
        <ele>798.395</ele>
        <time>2018-07-24T06:58:43Z</time>
      </trkpt>
      <trkpt lat="41.233293" lon="-6.386929">
        <ele>798.399</ele>
        <time>2018-07-24T06:58:44Z</time>
      </trkpt>
      <trkpt lat="41.233294" lon="-6.386971">
        <ele>798.401</ele>
        <time>2018-07-24T06:58:45Z</time>
      </trkpt>
      <trkpt lat="41.233295" lon="-6.387013">
        <ele>798.399</ele>
        <time>2018-07-24T06:58:46Z</time>
      </trkpt>
      <trkpt lat="41.233305" lon="-6.387083">
        <ele>798.397</ele>
        <time>2018-07-24T06:58:48Z</time>
      </trkpt>
      <trkpt lat="41.233311" lon="-6.387116">
        <ele>798.394</ele>
        <time>2018-07-24T06:58:49Z</time>
      </trkpt>
      <trkpt lat="41.233317" lon="-6.387147">
        <ele>798.391</ele>
        <time>2018-07-24T06:58:50Z</time>
      </trkpt>
      <trkpt lat="41.233321" lon="-6.387179">
        <ele>798.383</ele>
        <time>2018-07-24T06:58:51Z</time>
      </trkpt>
      <trkpt lat="41.233311" lon="-6.38724">
        <ele>798.38</ele>
        <time>2018-07-24T06:58:53Z</time>
      </trkpt>
      <trkpt lat="41.23328" lon="-6.387315">
        <ele>798.381</ele>
        <time>2018-07-24T06:58:56Z</time>
      </trkpt>
      <trkpt lat="41.233256" lon="-6.387362">
        <ele>798.385</ele>
        <time>2018-07-24T06:58:58Z</time>
      </trkpt>
      <trkpt lat="41.233238" lon="-6.387405">
        <ele>798.41</ele>
        <time>2018-07-24T06:59:00Z</time>
      </trkpt>
      <trkpt lat="41.233216" lon="-6.387471">
        <ele>798.468</ele>
        <time>2018-07-24T06:59:03Z</time>
      </trkpt>
      <trkpt lat="41.233182" lon="-6.387518">
        <ele>798.555</ele>
        <time>2018-07-24T06:59:06Z</time>
      </trkpt>
      <trkpt lat="41.233129" lon="-6.387574">
        <ele>798.588</ele>
        <time>2018-07-24T06:59:09Z</time>
      </trkpt>
      <trkpt lat="41.233105" lon="-6.3876">
        <ele>798.714</ele>
        <time>2018-07-24T06:59:10Z</time>
      </trkpt>
      <trkpt lat="41.233052" lon="-6.387654">
        <ele>798.761</ele>
        <time>2018-07-24T06:59:13Z</time>
      </trkpt>
      <trkpt lat="41.233034" lon="-6.387676">
        <ele>798.906</ele>
        <time>2018-07-24T06:59:14Z</time>
      </trkpt>
      <trkpt lat="41.233006" lon="-6.387722">
        <ele>799.205</ele>
        <time>2018-07-24T06:59:17Z</time>
      </trkpt>
      <trkpt lat="41.232984" lon="-6.387737">
        <ele>799.486</ele>
        <time>2018-07-24T06:59:23Z</time>
      </trkpt>
      <trkpt lat="41.233055" lon="-6.387815">
        <ele>800.694</ele>
        <time>2018-07-24T06:59:28Z</time>
      </trkpt>
      <trkpt lat="41.233184" lon="-6.38794">
        <ele>801.094</ele>
        <time>2018-07-24T06:59:32Z</time>
      </trkpt>
      <trkpt lat="41.233235" lon="-6.387966">
        <ele>801.703</ele>
        <time>2018-07-24T06:59:33Z</time>
      </trkpt>
      <trkpt lat="41.233329" lon="-6.38798">
        <ele>801.92</ele>
        <time>2018-07-24T06:59:35Z</time>
      </trkpt>
      <trkpt lat="41.23338" lon="-6.387986">
        <ele>801.938</ele>
        <time>2018-07-24T06:59:36Z</time>
      </trkpt>
      <trkpt lat="41.233417" lon="-6.387987">
        <ele>801.971</ele>
        <time>2018-07-24T06:59:37Z</time>
      </trkpt>
      <trkpt lat="41.233465" lon="-6.387974">
        <ele>802.075</ele>
        <time>2018-07-24T06:59:39Z</time>
      </trkpt>
      <trkpt lat="41.233503" lon="-6.388006">
        <ele>802.166</ele>
        <time>2018-07-24T06:59:47Z</time>
      </trkpt>
      <trkpt lat="41.233497" lon="-6.388092">
        <ele>802.194</ele>
        <time>2018-07-24T06:59:56Z</time>
      </trkpt>
      <trkpt lat="41.233479" lon="-6.388162">
        <ele>802.208</ele>
        <time>2018-07-24T06:59:58Z</time>
      </trkpt>
      <trkpt lat="41.233469" lon="-6.388199">
        <ele>802.223</ele>
        <time>2018-07-24T06:59:59Z</time>
      </trkpt>
      <trkpt lat="41.23346" lon="-6.388227">
        <ele>802.253</ele>
        <time>2018-07-24T07:00:00Z</time>
      </trkpt>
      <trkpt lat="41.233431" lon="-6.388294">
        <ele>802.268</ele>
        <time>2018-07-24T07:00:02Z</time>
      </trkpt>
      <trkpt lat="41.233418" lon="-6.38832">
        <ele>802.283</ele>
        <time>2018-07-24T07:00:03Z</time>
      </trkpt>
      <trkpt lat="41.233403" lon="-6.388351">
        <ele>802.298</ele>
        <time>2018-07-24T07:00:04Z</time>
      </trkpt>
      <trkpt lat="41.233387" lon="-6.38838">
        <ele>802.312</ele>
        <time>2018-07-24T07:00:05Z</time>
      </trkpt>
      <trkpt lat="41.233372" lon="-6.38841">
        <ele>802.327</ele>
        <time>2018-07-24T07:00:06Z</time>
      </trkpt>
      <trkpt lat="41.233357" lon="-6.388436">
        <ele>802.357</ele>
        <time>2018-07-24T07:00:07Z</time>
      </trkpt>
      <trkpt lat="41.23333" lon="-6.388489">
        <ele>802.372</ele>
        <time>2018-07-24T07:00:09Z</time>
      </trkpt>
      <trkpt lat="41.233318" lon="-6.388514">
        <ele>802.402</ele>
        <time>2018-07-24T07:00:10Z</time>
      </trkpt>
      <trkpt lat="41.233291" lon="-6.388559">
        <ele>802.445</ele>
        <time>2018-07-24T07:00:12Z</time>
      </trkpt>
      <trkpt lat="41.233249" lon="-6.388622">
        <ele>802.502</ele>
        <time>2018-07-24T07:00:15Z</time>
      </trkpt>
      <trkpt lat="41.233188" lon="-6.388719">
        <ele>802.532</ele>
        <time>2018-07-24T07:00:19Z</time>
      </trkpt>
      <trkpt lat="41.233154" lon="-6.388765">
        <ele>802.546</ele>
        <time>2018-07-24T07:00:21Z</time>
      </trkpt>
      <trkpt lat="41.233138" lon="-6.388789">
        <ele>802.576</ele>
        <time>2018-07-24T07:00:22Z</time>
      </trkpt>
      <trkpt lat="41.233101" lon="-6.388831">
        <ele>802.609</ele>
        <time>2018-07-24T07:00:24Z</time>
      </trkpt>
      <trkpt lat="41.233067" lon="-6.38887">
        <ele>802.643</ele>
        <time>2018-07-24T07:00:26Z</time>
      </trkpt>
      <trkpt lat="41.233034" lon="-6.388918">
        <ele>802.661</ele>
        <time>2018-07-24T07:00:28Z</time>
      </trkpt>
      <trkpt lat="41.233019" lon="-6.38894">
        <ele>802.699</ele>
        <time>2018-07-24T07:00:29Z</time>
      </trkpt>
      <trkpt lat="41.232993" lon="-6.388991">
        <ele>802.741</ele>
        <time>2018-07-24T07:00:31Z</time>
      </trkpt>
      <trkpt lat="41.232966" lon="-6.389039">
        <ele>802.761</ele>
        <time>2018-07-24T07:00:33Z</time>
      </trkpt>
      <trkpt lat="41.232953" lon="-6.389067">
        <ele>802.782</ele>
        <time>2018-07-24T07:00:34Z</time>
      </trkpt>
      <trkpt lat="41.232939" lon="-6.389094">
        <ele>802.844</ele>
        <time>2018-07-24T07:00:35Z</time>
      </trkpt>
      <trkpt lat="41.232904" lon="-6.389171">
        <ele>802.866</ele>
        <time>2018-07-24T07:00:38Z</time>
      </trkpt>
      <trkpt lat="41.232893" lon="-6.389198">
        <ele>802.886</ele>
        <time>2018-07-24T07:00:39Z</time>
      </trkpt>
      <trkpt lat="41.23288" lon="-6.389229">
        <ele>802.925</ele>
        <time>2018-07-24T07:00:40Z</time>
      </trkpt>
      <trkpt lat="41.232865" lon="-6.389289">
        <ele>802.96</ele>
        <time>2018-07-24T07:00:42Z</time>
      </trkpt>
      <trkpt lat="41.232841" lon="-6.389345">
        <ele>802.976</ele>
        <time>2018-07-24T07:00:44Z</time>
      </trkpt>
      <trkpt lat="41.232829" lon="-6.389376">
        <ele>802.992</ele>
        <time>2018-07-24T07:00:45Z</time>
      </trkpt>
      <trkpt lat="41.232816" lon="-6.389405">
        <ele>803.008</ele>
        <time>2018-07-24T07:00:46Z</time>
      </trkpt>
      <trkpt lat="41.232802" lon="-6.389436">
        <ele>803.023</ele>
        <time>2018-07-24T07:00:47Z</time>
      </trkpt>
      <trkpt lat="41.23279" lon="-6.389467">
        <ele>803.055</ele>
        <time>2018-07-24T07:00:48Z</time>
      </trkpt>
      <trkpt lat="41.232767" lon="-6.389525">
        <ele>803.071</ele>
        <time>2018-07-24T07:00:50Z</time>
      </trkpt>
      <trkpt lat="41.232755" lon="-6.389556">
        <ele>803.088</ele>
        <time>2018-07-24T07:00:51Z</time>
      </trkpt>
      <trkpt lat="41.232744" lon="-6.389586">
        <ele>803.105</ele>
        <time>2018-07-24T07:00:52Z</time>
      </trkpt>
      <trkpt lat="41.232734" lon="-6.389619">
        <ele>803.121</ele>
        <time>2018-07-24T07:00:53Z</time>
      </trkpt>
      <trkpt lat="41.232724" lon="-6.389655">
        <ele>803.172</ele>
        <time>2018-07-24T07:00:54Z</time>
      </trkpt>
      <trkpt lat="41.232684" lon="-6.389761">
        <ele>803.188</ele>
        <time>2018-07-24T07:00:57Z</time>
      </trkpt>
      <trkpt lat="41.232672" lon="-6.389795">
        <ele>803.205</ele>
        <time>2018-07-24T07:00:58Z</time>
      </trkpt>
      <trkpt lat="41.232661" lon="-6.389829">
        <ele>803.222</ele>
        <time>2018-07-24T07:00:59Z</time>
      </trkpt>
      <trkpt lat="41.232649" lon="-6.389861">
        <ele>803.24</ele>
        <time>2018-07-24T07:01:00Z</time>
      </trkpt>
      <trkpt lat="41.232637" lon="-6.389891">
        <ele>803.258</ele>
        <time>2018-07-24T07:01:01Z</time>
      </trkpt>
      <trkpt lat="41.232628" lon="-6.38992">
        <ele>803.292</ele>
        <time>2018-07-24T07:01:02Z</time>
      </trkpt>
      <trkpt lat="41.232615" lon="-6.389955">
        <ele>804.475</ele>
        <time>2018-07-24T07:01:04Z</time>
      </trkpt>
      <trkpt lat="41.232652" lon="-6.39008">
        <ele>804.638</ele>
        <time>2018-07-24T07:02:08Z</time>
      </trkpt>
      <trkpt lat="41.2327" lon="-6.390087">
        <ele>804.794</ele>
        <time>2018-07-24T07:02:10Z</time>
      </trkpt>
      <trkpt lat="41.23274" lon="-6.390118">
        <ele>804.87</ele>
        <time>2018-07-24T07:02:12Z</time>
      </trkpt>
      <trkpt lat="41.23276" lon="-6.390137">
        <ele>804.945</ele>
        <time>2018-07-24T07:02:13Z</time>
      </trkpt>
      <trkpt lat="41.232781" lon="-6.390156">
        <ele>805.161</ele>
        <time>2018-07-24T07:02:14Z</time>
      </trkpt>
      <trkpt lat="41.232815" lon="-6.390207">
        <ele>805.363</ele>
        <time>2018-07-24T07:02:17Z</time>
      </trkpt>
      <trkpt lat="41.232852" lon="-6.390286">
        <ele>805.552</ele>
        <time>2018-07-24T07:02:20Z</time>
      </trkpt>
      <trkpt lat="41.232894" lon="-6.390341">
        <ele>805.95</ele>
        <time>2018-07-24T07:02:23Z</time>
      </trkpt>
      <trkpt lat="41.232909" lon="-6.39038">
        <ele>806.296</ele>
        <time>2018-07-24T07:02:30Z</time>
      </trkpt>
      <trkpt lat="41.232868" lon="-6.390329">
        <ele>806.43</ele>
        <time>2018-07-24T07:02:37Z</time>
      </trkpt>
      <trkpt lat="41.232841" lon="-6.390278">
        <ele>806.514</ele>
        <time>2018-07-24T07:02:40Z</time>
      </trkpt>
      <trkpt lat="41.232823" lon="-6.39024">
        <ele>806.634</ele>
        <time>2018-07-24T07:02:42Z</time>
      </trkpt>
      <trkpt lat="41.232777" lon="-6.390172">
        <ele>806.706</ele>
        <time>2018-07-24T07:02:45Z</time>
      </trkpt>
      <trkpt lat="41.232732" lon="-6.390132">
        <ele>806.741</ele>
        <time>2018-07-24T07:02:47Z</time>
      </trkpt>
      <trkpt lat="41.232708" lon="-6.390112">
        <ele>806.806</ele>
        <time>2018-07-24T07:02:48Z</time>
      </trkpt>
      <trkpt lat="41.232652" lon="-6.390086">
        <ele>806.894</ele>
        <time>2018-07-24T07:02:50Z</time>
      </trkpt>
      <trkpt lat="41.232589" lon="-6.390099">
        <ele>806.974</ele>
        <time>2018-07-24T07:02:53Z</time>
      </trkpt>
      <trkpt lat="41.232532" lon="-6.390132">
        <ele>807.025</ele>
        <time>2018-07-24T07:02:56Z</time>
      </trkpt>
      <trkpt lat="41.232493" lon="-6.390166">
        <ele>807.073</ele>
        <time>2018-07-24T07:02:58Z</time>
      </trkpt>
      <trkpt lat="41.232451" lon="-6.390221">
        <ele>807.118</ele>
        <time>2018-07-24T07:03:00Z</time>
      </trkpt>
      <trkpt lat="41.23241" lon="-6.390292">
        <ele>807.14</ele>
        <time>2018-07-24T07:03:02Z</time>
      </trkpt>
      <trkpt lat="41.232389" lon="-6.39033">
        <ele>807.161</ele>
        <time>2018-07-24T07:03:03Z</time>
      </trkpt>
      <trkpt lat="41.232365" lon="-6.390368">
        <ele>807.181</ele>
        <time>2018-07-24T07:03:04Z</time>
      </trkpt>
      <trkpt lat="41.232339" lon="-6.390411">
        <ele>807.221</ele>
        <time>2018-07-24T07:03:05Z</time>
      </trkpt>
      <trkpt lat="41.232288" lon="-6.390484">
        <ele>807.408</ele>
        <time>2018-07-24T07:03:07Z</time>
      </trkpt>
      <trkpt lat="41.232262" lon="-6.390523">
        <ele>807.555</ele>
        <time>2018-07-24T07:03:08Z</time>
      </trkpt>
      <trkpt lat="41.232229" lon="-6.39057">
        <ele>807.666</ele>
        <time>2018-07-24T07:03:09Z</time>
      </trkpt>
      <trkpt lat="41.232197" lon="-6.390618">
        <ele>807.753</ele>
        <time>2018-07-24T07:03:10Z</time>
      </trkpt>
      <trkpt lat="41.232164" lon="-6.390661">
        <ele>807.807</ele>
        <time>2018-07-24T07:03:11Z</time>
      </trkpt>
      <trkpt lat="41.232126" lon="-6.390702">
        <ele>807.847</ele>
        <time>2018-07-24T07:03:12Z</time>
      </trkpt>
      <trkpt lat="41.232096" lon="-6.390748">
        <ele>807.867</ele>
        <time>2018-07-24T07:03:13Z</time>
      </trkpt>
      <trkpt lat="41.23206" lon="-6.390792">
        <ele>807.891</ele>
        <time>2018-07-24T07:03:14Z</time>
      </trkpt>
      <trkpt lat="41.231997" lon="-6.390882">
        <ele>807.895</ele>
        <time>2018-07-24T07:03:16Z</time>
      </trkpt>
      <trkpt lat="41.231968" lon="-6.390923">
        <ele>807.898</ele>
        <time>2018-07-24T07:03:17Z</time>
      </trkpt>
      <trkpt lat="41.231939" lon="-6.390965">
        <ele>807.901</ele>
        <time>2018-07-24T07:03:18Z</time>
      </trkpt>
      <trkpt lat="41.231909" lon="-6.391007">
        <ele>807.907</ele>
        <time>2018-07-24T07:03:19Z</time>
      </trkpt>
      <trkpt lat="41.23188" lon="-6.391048">
        <ele>807.914</ele>
        <time>2018-07-24T07:03:20Z</time>
      </trkpt>
      <trkpt lat="41.231853" lon="-6.391093">
        <ele>807.92</ele>
        <time>2018-07-24T07:03:21Z</time>
      </trkpt>
      <trkpt lat="41.23183" lon="-6.391137">
        <ele>807.919</ele>
        <time>2018-07-24T07:03:22Z</time>
      </trkpt>
      <trkpt lat="41.23177" lon="-6.391228">
        <ele>807.918</ele>
        <time>2018-07-24T07:03:24Z</time>
      </trkpt>
      <trkpt lat="41.23174" lon="-6.391276">
        <ele>807.911</ele>
        <time>2018-07-24T07:03:25Z</time>
      </trkpt>
      <trkpt lat="41.231714" lon="-6.391325">
        <ele>807.901</ele>
        <time>2018-07-24T07:03:26Z</time>
      </trkpt>
      <trkpt lat="41.23169" lon="-6.391373">
        <ele>807.89</ele>
        <time>2018-07-24T07:03:27Z</time>
      </trkpt>
      <trkpt lat="41.231665" lon="-6.391424">
        <ele>807.876</ele>
        <time>2018-07-24T07:03:28Z</time>
      </trkpt>
      <trkpt lat="41.231642" lon="-6.391477">
        <ele>807.862</ele>
        <time>2018-07-24T07:03:29Z</time>
      </trkpt>
      <trkpt lat="41.231621" lon="-6.391536">
        <ele>807.841</ele>
        <time>2018-07-24T07:03:30Z</time>
      </trkpt>
      <trkpt lat="41.231603" lon="-6.391593">
        <ele>807.815</ele>
        <time>2018-07-24T07:03:31Z</time>
      </trkpt>
      <trkpt lat="41.23158" lon="-6.391651">
        <ele>807.782</ele>
        <time>2018-07-24T07:03:32Z</time>
      </trkpt>
      <trkpt lat="41.231563" lon="-6.391717">
        <ele>807.742</ele>
        <time>2018-07-24T07:03:33Z</time>
      </trkpt>
      <trkpt lat="41.231541" lon="-6.391785">
        <ele>807.696</ele>
        <time>2018-07-24T07:03:34Z</time>
      </trkpt>
      <trkpt lat="41.231519" lon="-6.391857">
        <ele>807.644</ele>
        <time>2018-07-24T07:03:35Z</time>
      </trkpt>
      <trkpt lat="41.231491" lon="-6.391925">
        <ele>807.583</ele>
        <time>2018-07-24T07:03:36Z</time>
      </trkpt>
      <trkpt lat="41.231457" lon="-6.391994">
        <ele>807.515</ele>
        <time>2018-07-24T07:03:37Z</time>
      </trkpt>
      <trkpt lat="41.231417" lon="-6.392064">
        <ele>807.441</ele>
        <time>2018-07-24T07:03:38Z</time>
      </trkpt>
      <trkpt lat="41.231373" lon="-6.39213">
        <ele>807.358</ele>
        <time>2018-07-24T07:03:39Z</time>
      </trkpt>
      <trkpt lat="41.231319" lon="-6.392187">
        <ele>807.271</ele>
        <time>2018-07-24T07:03:40Z</time>
      </trkpt>
      <trkpt lat="41.231262" lon="-6.39224">
        <ele>807.177</ele>
        <time>2018-07-24T07:03:41Z</time>
      </trkpt>
      <trkpt lat="41.231204" lon="-6.392293">
        <ele>807.078</ele>
        <time>2018-07-24T07:03:42Z</time>
      </trkpt>
      <trkpt lat="41.231146" lon="-6.392348">
        <ele>806.866</ele>
        <time>2018-07-24T07:03:43Z</time>
      </trkpt>
      <trkpt lat="41.231042" lon="-6.392459">
        <ele>806.748</ele>
        <time>2018-07-24T07:03:45Z</time>
      </trkpt>
      <trkpt lat="41.231" lon="-6.392522">
        <ele>806.622</ele>
        <time>2018-07-24T07:03:46Z</time>
      </trkpt>
      <trkpt lat="41.230959" lon="-6.392588">
        <ele>806.486</ele>
        <time>2018-07-24T07:03:47Z</time>
      </trkpt>
      <trkpt lat="41.230918" lon="-6.39266">
        <ele>806.306</ele>
        <time>2018-07-24T07:03:48Z</time>
      </trkpt>
      <trkpt lat="41.230879" lon="-6.392746">
        <ele>806.175</ele>
        <time>2018-07-24T07:03:49Z</time>
      </trkpt>
      <trkpt lat="41.230846" lon="-6.392838">
        <ele>806.042</ele>
        <time>2018-07-24T07:03:50Z</time>
      </trkpt>
      <trkpt lat="41.230818" lon="-6.39293">
        <ele>805.913</ele>
        <time>2018-07-24T07:03:51Z</time>
      </trkpt>
      <trkpt lat="41.230789" lon="-6.393021">
        <ele>805.76</ele>
        <time>2018-07-24T07:03:52Z</time>
      </trkpt>
      <trkpt lat="41.230765" lon="-6.393112">
        <ele>805.63</ele>
        <time>2018-07-24T07:03:53Z</time>
      </trkpt>
      <trkpt lat="41.230742" lon="-6.393202">
        <ele>805.476</ele>
        <time>2018-07-24T07:03:54Z</time>
      </trkpt>
      <trkpt lat="41.23072" lon="-6.393287">
        <ele>805.289</ele>
        <time>2018-07-24T07:03:55Z</time>
      </trkpt>
      <trkpt lat="41.230698" lon="-6.393368">
        <ele>805.19</ele>
        <time>2018-07-24T07:03:56Z</time>
      </trkpt>
      <trkpt lat="41.230679" lon="-6.393447">
        <ele>805.295</ele>
        <time>2018-07-24T07:03:57Z</time>
      </trkpt>
      <trkpt lat="41.230657" lon="-6.393524">
        <ele>805.35</ele>
        <time>2018-07-24T07:03:58Z</time>
      </trkpt>
      <trkpt lat="41.230635" lon="-6.393598">
        <ele>805.367</ele>
        <time>2018-07-24T07:03:59Z</time>
      </trkpt>
      <trkpt lat="41.230612" lon="-6.393668">
        <ele>805.358</ele>
        <time>2018-07-24T07:04:00Z</time>
      </trkpt>
      <trkpt lat="41.230588" lon="-6.393733">
        <ele>805.463</ele>
        <time>2018-07-24T07:04:01Z</time>
      </trkpt>
      <trkpt lat="41.230564" lon="-6.393795">
        <ele>805.529</ele>
        <time>2018-07-24T07:04:02Z</time>
      </trkpt>
      <trkpt lat="41.230547" lon="-6.393853">
        <ele>805.534</ele>
        <time>2018-07-24T07:04:03Z</time>
      </trkpt>
      <trkpt lat="41.230533" lon="-6.393911">
        <ele>805.498</ele>
        <time>2018-07-24T07:04:04Z</time>
      </trkpt>
      <trkpt lat="41.230521" lon="-6.393965">
        <ele>805.476</ele>
        <time>2018-07-24T07:04:05Z</time>
      </trkpt>
      <trkpt lat="41.230497" lon="-6.394043">
        <ele>805.462</ele>
        <time>2018-07-24T07:04:07Z</time>
      </trkpt>
      <trkpt lat="41.230487" lon="-6.394074">
        <ele>805.448</ele>
        <time>2018-07-24T07:04:08Z</time>
      </trkpt>
      <trkpt lat="41.230479" lon="-6.394103">
        <ele>805.434</ele>
        <time>2018-07-24T07:04:09Z</time>
      </trkpt>
      <trkpt lat="41.230471" lon="-6.39413">
        <ele>805.404</ele>
        <time>2018-07-24T07:04:10Z</time>
      </trkpt>
      <trkpt lat="41.230448" lon="-6.394188">
        <ele>805.36</ele>
        <time>2018-07-24T07:04:12Z</time>
      </trkpt>
      <trkpt lat="41.230434" lon="-6.394251">
        <ele>805.333</ele>
        <time>2018-07-24T07:04:14Z</time>
      </trkpt>
      <trkpt lat="41.230427" lon="-6.394288">
        <ele>805.287</ele>
        <time>2018-07-24T07:04:15Z</time>
      </trkpt>
      <trkpt lat="41.230401" lon="-6.394358">
        <ele>805.203</ele>
        <time>2018-07-24T07:04:17Z</time>
      </trkpt>
      <trkpt lat="41.230371" lon="-6.394482">
        <ele>805.172</ele>
        <time>2018-07-24T07:04:20Z</time>
      </trkpt>
      <trkpt lat="41.230359" lon="-6.394524">
        <ele>805.142</ele>
        <time>2018-07-24T07:04:21Z</time>
      </trkpt>
      <trkpt lat="41.230346" lon="-6.394567">
        <ele>804.735</ele>
        <time>2018-07-24T07:04:22Z</time>
      </trkpt>
      <trkpt lat="41.230309" lon="-6.394652">
        <ele>804.41</ele>
        <time>2018-07-24T07:04:24Z</time>
      </trkpt>
      <trkpt lat="41.230293" lon="-6.394699">
        <ele>804.127</ele>
        <time>2018-07-24T07:04:25Z</time>
      </trkpt>
      <trkpt lat="41.230274" lon="-6.394747">
        <ele>803.868</ele>
        <time>2018-07-24T07:04:26Z</time>
      </trkpt>
      <trkpt lat="41.230257" lon="-6.394797">
        <ele>803.642</ele>
        <time>2018-07-24T07:04:27Z</time>
      </trkpt>
      <trkpt lat="41.23024" lon="-6.394848">
        <ele>803.431</ele>
        <time>2018-07-24T07:04:28Z</time>
      </trkpt>
      <trkpt lat="41.230219" lon="-6.394898">
        <ele>803.235</ele>
        <time>2018-07-24T07:04:29Z</time>
      </trkpt>
      <trkpt lat="41.230195" lon="-6.394948">
        <ele>803.044</ele>
        <time>2018-07-24T07:04:30Z</time>
      </trkpt>
      <trkpt lat="41.230168" lon="-6.395001">
        <ele>802.967</ele>
        <time>2018-07-24T07:04:31Z</time>
      </trkpt>
      <trkpt lat="41.230142" lon="-6.395053">
        <ele>802.9</ele>
        <time>2018-07-24T07:04:32Z</time>
      </trkpt>
      <trkpt lat="41.230115" lon="-6.395104">
        <ele>802.851</ele>
        <time>2018-07-24T07:04:33Z</time>
      </trkpt>
      <trkpt lat="41.230089" lon="-6.395154">
        <ele>802.775</ele>
        <time>2018-07-24T07:04:34Z</time>
      </trkpt>
      <trkpt lat="41.230063" lon="-6.395199">
        <ele>802.716</ele>
        <time>2018-07-24T07:04:35Z</time>
      </trkpt>
      <trkpt lat="41.230031" lon="-6.395243">
        <ele>802.725</ele>
        <time>2018-07-24T07:04:36Z</time>
      </trkpt>
      <trkpt lat="41.229997" lon="-6.395289">
        <ele>802.728</ele>
        <time>2018-07-24T07:04:37Z</time>
      </trkpt>
      <trkpt lat="41.229966" lon="-6.395334">
        <ele>802.752</ele>
        <time>2018-07-24T07:04:38Z</time>
      </trkpt>
      <trkpt lat="41.229933" lon="-6.395377">
        <ele>802.771</ele>
        <time>2018-07-24T07:04:39Z</time>
      </trkpt>
      <trkpt lat="41.2299" lon="-6.395422">
        <ele>802.782</ele>
        <time>2018-07-24T07:04:40Z</time>
      </trkpt>
      <trkpt lat="41.229867" lon="-6.395463">
        <ele>802.755</ele>
        <time>2018-07-24T07:04:41Z</time>
      </trkpt>
      <trkpt lat="41.229835" lon="-6.395503">
        <ele>802.721</ele>
        <time>2018-07-24T07:04:42Z</time>
      </trkpt>
      <trkpt lat="41.229803" lon="-6.395541">
        <ele>802.663</ele>
        <time>2018-07-24T07:04:43Z</time>
      </trkpt>
      <trkpt lat="41.229736" lon="-6.395604">
        <ele>802.662</ele>
        <time>2018-07-24T07:04:45Z</time>
      </trkpt>
      <trkpt lat="41.229706" lon="-6.395631">
        <ele>802.659</ele>
        <time>2018-07-24T07:04:46Z</time>
      </trkpt>
      <trkpt lat="41.229644" lon="-6.395677">
        <ele>802.656</ele>
        <time>2018-07-24T07:04:48Z</time>
      </trkpt>
      <trkpt lat="41.229616" lon="-6.395696">
        <ele>802.649</ele>
        <time>2018-07-24T07:04:49Z</time>
      </trkpt>
      <trkpt lat="41.22959" lon="-6.395716">
        <ele>802.639</ele>
        <time>2018-07-24T07:04:50Z</time>
      </trkpt>
      <trkpt lat="41.229564" lon="-6.395733">
        <ele>802.629</ele>
        <time>2018-07-24T07:04:51Z</time>
      </trkpt>
      <trkpt lat="41.229537" lon="-6.39575">
        <ele>802.618</ele>
        <time>2018-07-24T07:04:52Z</time>
      </trkpt>
      <trkpt lat="41.229514" lon="-6.395767">
        <ele>802.565</ele>
        <time>2018-07-24T07:04:53Z</time>
      </trkpt>
      <trkpt lat="41.229464" lon="-6.395798">
        <ele>802.501</ele>
        <time>2018-07-24T07:04:55Z</time>
      </trkpt>
      <trkpt lat="41.229424" lon="-6.395829">
        <ele>802.429</ele>
        <time>2018-07-24T07:04:57Z</time>
      </trkpt>
      <trkpt lat="41.229381" lon="-6.39585">
        <ele>802.31</ele>
        <time>2018-07-24T07:04:59Z</time>
      </trkpt>
      <trkpt lat="41.22931" lon="-6.395884">
        <ele>802.207</ele>
        <time>2018-07-24T07:05:02Z</time>
      </trkpt>
      <trkpt lat="41.229255" lon="-6.395923">
        <ele>802.104</ele>
        <time>2018-07-24T07:05:05Z</time>
      </trkpt>
      <trkpt lat="41.229193" lon="-6.395954">
        <ele>802.072</ele>
        <time>2018-07-24T07:05:08Z</time>
      </trkpt>
      <trkpt lat="41.229171" lon="-6.395966">
        <ele>802.039</ele>
        <time>2018-07-24T07:05:09Z</time>
      </trkpt>
      <trkpt lat="41.229146" lon="-6.395976">
        <ele>801.977</ele>
        <time>2018-07-24T07:05:10Z</time>
      </trkpt>
      <trkpt lat="41.229103" lon="-6.396001">
        <ele>801.949</ele>
        <time>2018-07-24T07:05:12Z</time>
      </trkpt>
      <trkpt lat="41.229077" lon="-6.396016">
        <ele>801.919</ele>
        <time>2018-07-24T07:05:13Z</time>
      </trkpt>
      <trkpt lat="41.229053" lon="-6.396028">
        <ele>801.891</ele>
        <time>2018-07-24T07:05:14Z</time>
      </trkpt>
      <trkpt lat="41.229026" lon="-6.396038">
        <ele>801.838</ele>
        <time>2018-07-24T07:05:15Z</time>
      </trkpt>
      <trkpt lat="41.228976" lon="-6.396061">
        <ele>801.814</ele>
        <time>2018-07-24T07:05:17Z</time>
      </trkpt>
      <trkpt lat="41.228952" lon="-6.396073">
        <ele>801.792</ele>
        <time>2018-07-24T07:05:18Z</time>
      </trkpt>
      <trkpt lat="41.22893" lon="-6.396087">
        <ele>801.755</ele>
        <time>2018-07-24T07:05:19Z</time>
      </trkpt>
      <trkpt lat="41.228887" lon="-6.396106">
        <ele>801.71</ele>
        <time>2018-07-24T07:05:21Z</time>
      </trkpt>
      <trkpt lat="41.22883" lon="-6.396125">
        <ele>801.681</ele>
        <time>2018-07-24T07:05:24Z</time>
      </trkpt>
      <trkpt lat="41.228778" lon="-6.396125">
        <ele>801.668</ele>
        <time>2018-07-24T07:05:27Z</time>
      </trkpt>
      <trkpt lat="41.228746" lon="-6.396123">
        <ele>801.664</ele>
        <time>2018-07-24T07:05:29Z</time>
      </trkpt>
      <trkpt lat="41.228686" lon="-6.396113">
        <ele>801.669</ele>
        <time>2018-07-24T07:05:32Z</time>
      </trkpt>
      <trkpt lat="41.228626" lon="-6.396125">
        <ele>801.675</ele>
        <time>2018-07-24T07:05:35Z</time>
      </trkpt>
      <trkpt lat="41.228572" lon="-6.396121">
        <ele>801.683</ele>
        <time>2018-07-24T07:05:38Z</time>
      </trkpt>
      <trkpt lat="41.228531" lon="-6.396095">
        <ele>801.704</ele>
        <time>2018-07-24T07:05:41Z</time>
      </trkpt>
      <trkpt lat="41.228486" lon="-6.396064">
        <ele>801.739</ele>
        <time>2018-07-24T07:05:44Z</time>
      </trkpt>
      <trkpt lat="41.228431" lon="-6.396048">
        <ele>801.781</ele>
        <time>2018-07-24T07:05:47Z</time>
      </trkpt>
      <trkpt lat="41.228384" lon="-6.396019">
        <ele>801.832</ele>
        <time>2018-07-24T07:05:50Z</time>
      </trkpt>
      <trkpt lat="41.228323" lon="-6.396009">
        <ele>801.879</ele>
        <time>2018-07-24T07:05:53Z</time>
      </trkpt>
      <trkpt lat="41.228279" lon="-6.395998">
        <ele>801.983</ele>
        <time>2018-07-24T07:05:55Z</time>
      </trkpt>
      <trkpt lat="41.228179" lon="-6.395988">
        <ele>802.041</ele>
        <time>2018-07-24T07:05:59Z</time>
      </trkpt>
      <trkpt lat="41.228127" lon="-6.395989">
        <ele>802.103</ele>
        <time>2018-07-24T07:06:01Z</time>
      </trkpt>
      <trkpt lat="41.228062" lon="-6.396005">
        <ele>802.133</ele>
        <time>2018-07-24T07:06:03Z</time>
      </trkpt>
      <trkpt lat="41.228031" lon="-6.396014">
        <ele>802.162</ele>
        <time>2018-07-24T07:06:04Z</time>
      </trkpt>
      <trkpt lat="41.228004" lon="-6.396023">
        <ele>802.192</ele>
        <time>2018-07-24T07:06:05Z</time>
      </trkpt>
      <trkpt lat="41.227976" lon="-6.396032">
        <ele>802.245</ele>
        <time>2018-07-24T07:06:06Z</time>
      </trkpt>
      <trkpt lat="41.22792" lon="-6.396054">
        <ele>802.289</ele>
        <time>2018-07-24T07:06:08Z</time>
      </trkpt>
      <trkpt lat="41.227868" lon="-6.396081">
        <ele>802.313</ele>
        <time>2018-07-24T07:06:10Z</time>
      </trkpt>
      <trkpt lat="41.227841" lon="-6.396095">
        <ele>802.36</ele>
        <time>2018-07-24T07:06:11Z</time>
      </trkpt>
      <trkpt lat="41.227794" lon="-6.396123">
        <ele>802.407</ele>
        <time>2018-07-24T07:06:13Z</time>
      </trkpt>
      <trkpt lat="41.227755" lon="-6.396149">
        <ele>802.427</ele>
        <time>2018-07-24T07:06:15Z</time>
      </trkpt>
      <trkpt lat="41.227734" lon="-6.396166">
        <ele>802.448</ele>
        <time>2018-07-24T07:06:16Z</time>
      </trkpt>
      <trkpt lat="41.227711" lon="-6.396186">
        <ele>802.48</ele>
        <time>2018-07-24T07:06:17Z</time>
      </trkpt>
      <trkpt lat="41.227669" lon="-6.396231">
        <ele>802.507</ele>
        <time>2018-07-24T07:06:19Z</time>
      </trkpt>
      <trkpt lat="41.227635" lon="-6.396278">
        <ele>802.519</ele>
        <time>2018-07-24T07:06:21Z</time>
      </trkpt>
      <trkpt lat="41.227618" lon="-6.3963">
        <ele>802.53</ele>
        <time>2018-07-24T07:06:22Z</time>
      </trkpt>
      <trkpt lat="41.227601" lon="-6.396323">
        <ele>802.539</ele>
        <time>2018-07-24T07:06:23Z</time>
      </trkpt>
      <trkpt lat="41.227584" lon="-6.396345">
        <ele>802.548</ele>
        <time>2018-07-24T07:06:24Z</time>
      </trkpt>
      <trkpt lat="41.227568" lon="-6.396367">
        <ele>802.566</ele>
        <time>2018-07-24T07:06:25Z</time>
      </trkpt>
      <trkpt lat="41.227538" lon="-6.396406">
        <ele>802.594</ele>
        <time>2018-07-24T07:06:27Z</time>
      </trkpt>
      <trkpt lat="41.22749" lon="-6.396456">
        <ele>802.622</ele>
        <time>2018-07-24T07:06:30Z</time>
      </trkpt>
      <trkpt lat="41.227441" lon="-6.39652">
        <ele>802.644</ele>
        <time>2018-07-24T07:06:33Z</time>
      </trkpt>
      <trkpt lat="41.227407" lon="-6.39656">
        <ele>802.656</ele>
        <time>2018-07-24T07:06:35Z</time>
      </trkpt>
      <trkpt lat="41.22739" lon="-6.39658">
        <ele>802.681</ele>
        <time>2018-07-24T07:06:36Z</time>
      </trkpt>
      <trkpt lat="41.227352" lon="-6.39662">
        <ele>802.694</ele>
        <time>2018-07-24T07:06:38Z</time>
      </trkpt>
      <trkpt lat="41.227335" lon="-6.39664">
        <ele>802.706</ele>
        <time>2018-07-24T07:06:39Z</time>
      </trkpt>
      <trkpt lat="41.227316" lon="-6.396661">
        <ele>802.753</ele>
        <time>2018-07-24T07:06:40Z</time>
      </trkpt>
      <trkpt lat="41.227265" lon="-6.396717">
        <ele>802.793</ele>
        <time>2018-07-24T07:06:43Z</time>
      </trkpt>
      <trkpt lat="41.227231" lon="-6.396754">
        <ele>802.835</ele>
        <time>2018-07-24T07:06:45Z</time>
      </trkpt>
      <trkpt lat="41.227199" lon="-6.39679">
        <ele>802.882</ele>
        <time>2018-07-24T07:06:47Z</time>
      </trkpt>
      <trkpt lat="41.227164" lon="-6.39683">
        <ele>802.959</ele>
        <time>2018-07-24T07:06:49Z</time>
      </trkpt>
      <trkpt lat="41.227117" lon="-6.396891">
        <ele>803.05</ele>
        <time>2018-07-24T07:06:52Z</time>
      </trkpt>
      <trkpt lat="41.227069" lon="-6.396941">
        <ele>803.155</ele>
        <time>2018-07-24T07:06:55Z</time>
      </trkpt>
      <trkpt lat="41.227022" lon="-6.396996">
        <ele>803.279</ele>
        <time>2018-07-24T07:06:58Z</time>
      </trkpt>
      <trkpt lat="41.226972" lon="-6.397051">
        <ele>803.324</ele>
        <time>2018-07-24T07:07:01Z</time>
      </trkpt>
      <trkpt lat="41.226955" lon="-6.397072">
        <ele>803.368</ele>
        <time>2018-07-24T07:07:02Z</time>
      </trkpt>
      <trkpt lat="41.226937" lon="-6.397091">
        <ele>803.455</ele>
        <time>2018-07-24T07:07:03Z</time>
      </trkpt>
      <trkpt lat="41.226896" lon="-6.397129">
        <ele>803.578</ele>
        <time>2018-07-24T07:07:05Z</time>
      </trkpt>
      <trkpt lat="41.226838" lon="-6.397199">
        <ele>803.694</ele>
        <time>2018-07-24T07:07:08Z</time>
      </trkpt>
      <trkpt lat="41.226778" lon="-6.397289">
        <ele>803.733</ele>
        <time>2018-07-24T07:07:11Z</time>
      </trkpt>
      <trkpt lat="41.226753" lon="-6.397319">
        <ele>803.809</ele>
        <time>2018-07-24T07:07:12Z</time>
      </trkpt>
      <trkpt lat="41.226708" lon="-6.397383">
        <ele>803.884</ele>
        <time>2018-07-24T07:07:14Z</time>
      </trkpt>
      <trkpt lat="41.226659" lon="-6.397451">
        <ele>804.285</ele>
        <time>2018-07-24T07:07:16Z</time>
      </trkpt>
      <trkpt lat="41.226613" lon="-6.397528">
        <ele>804.577</ele>
        <time>2018-07-24T07:07:18Z</time>
      </trkpt>
      <trkpt lat="41.22659" lon="-6.397569">
        <ele>804.801</ele>
        <time>2018-07-24T07:07:19Z</time>
      </trkpt>
      <trkpt lat="41.226567" lon="-6.397611">
        <ele>804.952</ele>
        <time>2018-07-24T07:07:20Z</time>
      </trkpt>
      <trkpt lat="41.226541" lon="-6.397653">
        <ele>805.038</ele>
        <time>2018-07-24T07:07:21Z</time>
      </trkpt>
      <trkpt lat="41.226516" lon="-6.397695">
        <ele>805.19</ele>
        <time>2018-07-24T07:07:22Z</time>
      </trkpt>
      <trkpt lat="41.226457" lon="-6.397791">
        <ele>805.343</ele>
        <time>2018-07-24T07:07:24Z</time>
      </trkpt>
      <trkpt lat="41.226391" lon="-6.397891">
        <ele>805.418</ele>
        <time>2018-07-24T07:07:26Z</time>
      </trkpt>
      <trkpt lat="41.226362" lon="-6.397936">
        <ele>805.485</ele>
        <time>2018-07-24T07:07:27Z</time>
      </trkpt>
      <trkpt lat="41.226332" lon="-6.397986">
        <ele>805.555</ele>
        <time>2018-07-24T07:07:28Z</time>
      </trkpt>
      <trkpt lat="41.226303" lon="-6.398033">
        <ele>805.623</ele>
        <time>2018-07-24T07:07:29Z</time>
      </trkpt>
      <trkpt lat="41.226274" lon="-6.398077">
        <ele>805.691</ele>
        <time>2018-07-24T07:07:30Z</time>
      </trkpt>
      <trkpt lat="41.226244" lon="-6.398122">
        <ele>805.755</ele>
        <time>2018-07-24T07:07:31Z</time>
      </trkpt>
      <trkpt lat="41.226214" lon="-6.398165">
        <ele>805.827</ele>
        <time>2018-07-24T07:07:32Z</time>
      </trkpt>
      <trkpt lat="41.226185" lon="-6.398207">
        <ele>805.9</ele>
        <time>2018-07-24T07:07:33Z</time>
      </trkpt>
      <trkpt lat="41.226154" lon="-6.398245">
        <ele>806.031</ele>
        <time>2018-07-24T07:07:34Z</time>
      </trkpt>
      <trkpt lat="41.226098" lon="-6.398331">
        <ele>806.088</ele>
        <time>2018-07-24T07:07:36Z</time>
      </trkpt>
      <trkpt lat="41.226071" lon="-6.398373">
        <ele>806.149</ele>
        <time>2018-07-24T07:07:37Z</time>
      </trkpt>
      <trkpt lat="41.226044" lon="-6.398415">
        <ele>806.218</ele>
        <time>2018-07-24T07:07:38Z</time>
      </trkpt>
      <trkpt lat="41.226018" lon="-6.398456">
        <ele>806.292</ele>
        <time>2018-07-24T07:07:39Z</time>
      </trkpt>
      <trkpt lat="41.225989" lon="-6.398496">
        <ele>806.364</ele>
        <time>2018-07-24T07:07:40Z</time>
      </trkpt>
      <trkpt lat="41.22596" lon="-6.398533">
        <ele>806.498</ele>
        <time>2018-07-24T07:07:41Z</time>
      </trkpt>
      <trkpt lat="41.225898" lon="-6.398613">
        <ele>806.556</ele>
        <time>2018-07-24T07:07:43Z</time>
      </trkpt>
      <trkpt lat="41.225868" lon="-6.398649">
        <ele>806.617</ele>
        <time>2018-07-24T07:07:44Z</time>
      </trkpt>
      <trkpt lat="41.225836" lon="-6.398686">
        <ele>806.672</ele>
        <time>2018-07-24T07:07:45Z</time>
      </trkpt>
      <trkpt lat="41.225805" lon="-6.398721">
        <ele>806.724</ele>
        <time>2018-07-24T07:07:46Z</time>
      </trkpt>
      <trkpt lat="41.225774" lon="-6.398755">
        <ele>806.728</ele>
        <time>2018-07-24T07:07:47Z</time>
      </trkpt>
      <trkpt lat="41.225747" lon="-6.39879">
        <ele>806.732</ele>
        <time>2018-07-24T07:07:48Z</time>
      </trkpt>
      <trkpt lat="41.225721" lon="-6.398825">
        <ele>806.737</ele>
        <time>2018-07-24T07:07:49Z</time>
      </trkpt>
      <trkpt lat="41.225696" lon="-6.398858">
        <ele>806.75</ele>
        <time>2018-07-24T07:07:50Z</time>
      </trkpt>
      <trkpt lat="41.22562" lon="-6.398961">
        <ele>806.821</ele>
        <time>2018-07-24T07:07:53Z</time>
      </trkpt>
      <trkpt lat="41.22556" lon="-6.399022">
        <ele>806.843</ele>
        <time>2018-07-24T07:07:55Z</time>
      </trkpt>
      <trkpt lat="41.225528" lon="-6.399053">
        <ele>806.847</ele>
        <time>2018-07-24T07:07:56Z</time>
      </trkpt>
      <trkpt lat="41.225497" lon="-6.399081">
        <ele>806.903</ele>
        <time>2018-07-24T07:07:57Z</time>
      </trkpt>
      <trkpt lat="41.225414" lon="-6.399177">
        <ele>806.908</ele>
        <time>2018-07-24T07:08:00Z</time>
      </trkpt>
      <trkpt lat="41.225389" lon="-6.399207">
        <ele>806.913</ele>
        <time>2018-07-24T07:08:01Z</time>
      </trkpt>
      <trkpt lat="41.225363" lon="-6.399238">
        <ele>806.919</ele>
        <time>2018-07-24T07:08:02Z</time>
      </trkpt>
      <trkpt lat="41.225339" lon="-6.39927">
        <ele>807.046</ele>
        <time>2018-07-24T07:08:03Z</time>
      </trkpt>
      <trkpt lat="41.225252" lon="-6.399364">
        <ele>807.082</ele>
        <time>2018-07-24T07:08:06Z</time>
      </trkpt>
      <trkpt lat="41.225224" lon="-6.399398">
        <ele>807.115</ele>
        <time>2018-07-24T07:08:07Z</time>
      </trkpt>
      <trkpt lat="41.225193" lon="-6.39943">
        <ele>807.136</ele>
        <time>2018-07-24T07:08:08Z</time>
      </trkpt>
      <trkpt lat="41.225161" lon="-6.399462">
        <ele>807.16</ele>
        <time>2018-07-24T07:08:09Z</time>
      </trkpt>
      <trkpt lat="41.22513" lon="-6.399495">
        <ele>807.163</ele>
        <time>2018-07-24T07:08:10Z</time>
      </trkpt>
      <trkpt lat="41.225098" lon="-6.399525">
        <ele>807.194</ele>
        <time>2018-07-24T07:08:11Z</time>
      </trkpt>
      <trkpt lat="41.225069" lon="-6.399554">
        <ele>807.198</ele>
        <time>2018-07-24T07:08:12Z</time>
      </trkpt>
      <trkpt lat="41.225038" lon="-6.399586">
        <ele>807.202</ele>
        <time>2018-07-24T07:08:13Z</time>
      </trkpt>
      <trkpt lat="41.225012" lon="-6.399616">
        <ele>807.235</ele>
        <time>2018-07-24T07:08:14Z</time>
      </trkpt>
      <trkpt lat="41.224983" lon="-6.399649">
        <ele>807.238</ele>
        <time>2018-07-24T07:08:15Z</time>
      </trkpt>
      <trkpt lat="41.224953" lon="-6.399683">
        <ele>807.267</ele>
        <time>2018-07-24T07:08:16Z</time>
      </trkpt>
      <trkpt lat="41.224896" lon="-6.399749">
        <ele>807.268</ele>
        <time>2018-07-24T07:08:18Z</time>
      </trkpt>
      <trkpt lat="41.224866" lon="-6.399781">
        <ele>807.271</ele>
        <time>2018-07-24T07:08:19Z</time>
      </trkpt>
      <trkpt lat="41.224836" lon="-6.399811">
        <ele>807.273</ele>
        <time>2018-07-24T07:08:20Z</time>
      </trkpt>
      <trkpt lat="41.224807" lon="-6.399842">
        <ele>807.274</ele>
        <time>2018-07-24T07:08:21Z</time>
      </trkpt>
      <trkpt lat="41.224777" lon="-6.399872">
        <ele>807.274</ele>
        <time>2018-07-24T07:08:22Z</time>
      </trkpt>
      <trkpt lat="41.224748" lon="-6.399899">
        <ele>807.273</ele>
        <time>2018-07-24T07:08:23Z</time>
      </trkpt>
      <trkpt lat="41.224654" lon="-6.39998">
        <ele>807.272</ele>
        <time>2018-07-24T07:08:26Z</time>
      </trkpt>
      <trkpt lat="41.224626" lon="-6.400006">
        <ele>807.272</ele>
        <time>2018-07-24T07:08:27Z</time>
      </trkpt>
      <trkpt lat="41.224596" lon="-6.400035">
        <ele>807.272</ele>
        <time>2018-07-24T07:08:28Z</time>
      </trkpt>
      <trkpt lat="41.224566" lon="-6.40006">
        <ele>807.273</ele>
        <time>2018-07-24T07:08:29Z</time>
      </trkpt>
      <trkpt lat="41.224537" lon="-6.400084">
        <ele>807.275</ele>
        <time>2018-07-24T07:08:30Z</time>
      </trkpt>
      <trkpt lat="41.224508" lon="-6.400111">
        <ele>807.278</ele>
        <time>2018-07-24T07:08:31Z</time>
      </trkpt>
      <trkpt lat="41.224479" lon="-6.400139">
        <ele>807.281</ele>
        <time>2018-07-24T07:08:32Z</time>
      </trkpt>
      <trkpt lat="41.22445" lon="-6.400169">
        <ele>807.286</ele>
        <time>2018-07-24T07:08:33Z</time>
      </trkpt>
      <trkpt lat="41.224422" lon="-6.400197">
        <ele>807.291</ele>
        <time>2018-07-24T07:08:34Z</time>
      </trkpt>
      <trkpt lat="41.224393" lon="-6.400225">
        <ele>807.297</ele>
        <time>2018-07-24T07:08:35Z</time>
      </trkpt>
      <trkpt lat="41.224364" lon="-6.400253">
        <ele>807.304</ele>
        <time>2018-07-24T07:08:36Z</time>
      </trkpt>
      <trkpt lat="41.224335" lon="-6.400282">
        <ele>807.312</ele>
        <time>2018-07-24T07:08:37Z</time>
      </trkpt>
      <trkpt lat="41.224307" lon="-6.400312">
        <ele>807.322</ele>
        <time>2018-07-24T07:08:38Z</time>
      </trkpt>
      <trkpt lat="41.224279" lon="-6.400339">
        <ele>807.333</ele>
        <time>2018-07-24T07:08:39Z</time>
      </trkpt>
      <trkpt lat="41.22425" lon="-6.400367">
        <ele>807.345</ele>
        <time>2018-07-24T07:08:40Z</time>
      </trkpt>
      <trkpt lat="41.224223" lon="-6.400397">
        <ele>807.358</ele>
        <time>2018-07-24T07:08:41Z</time>
      </trkpt>
      <trkpt lat="41.224197" lon="-6.400428">
        <ele>807.37</ele>
        <time>2018-07-24T07:08:42Z</time>
      </trkpt>
      <trkpt lat="41.224172" lon="-6.400457">
        <ele>807.383</ele>
        <time>2018-07-24T07:08:43Z</time>
      </trkpt>
      <trkpt lat="41.224146" lon="-6.400487">
        <ele>807.397</ele>
        <time>2018-07-24T07:08:44Z</time>
      </trkpt>
      <trkpt lat="41.224122" lon="-6.400517">
        <ele>807.409</ele>
        <time>2018-07-24T07:08:45Z</time>
      </trkpt>
      <trkpt lat="41.224095" lon="-6.400545">
        <ele>807.423</ele>
        <time>2018-07-24T07:08:46Z</time>
      </trkpt>
      <trkpt lat="41.224069" lon="-6.40057">
        <ele>807.439</ele>
        <time>2018-07-24T07:08:47Z</time>
      </trkpt>
      <trkpt lat="41.224043" lon="-6.400595">
        <ele>807.455</ele>
        <time>2018-07-24T07:08:48Z</time>
      </trkpt>
      <trkpt lat="41.22402" lon="-6.400621">
        <ele>807.472</ele>
        <time>2018-07-24T07:08:49Z</time>
      </trkpt>
      <trkpt lat="41.223994" lon="-6.400649">
        <ele>807.489</ele>
        <time>2018-07-24T07:08:50Z</time>
      </trkpt>
      <trkpt lat="41.223967" lon="-6.400676">
        <ele>807.505</ele>
        <time>2018-07-24T07:08:51Z</time>
      </trkpt>
      <trkpt lat="41.223939" lon="-6.400704">
        <ele>807.522</ele>
        <time>2018-07-24T07:08:52Z</time>
      </trkpt>
      <trkpt lat="41.223913" lon="-6.40073">
        <ele>807.539</ele>
        <time>2018-07-24T07:08:53Z</time>
      </trkpt>
      <trkpt lat="41.223888" lon="-6.400753">
        <ele>807.556</ele>
        <time>2018-07-24T07:08:54Z</time>
      </trkpt>
      <trkpt lat="41.223862" lon="-6.400776">
        <ele>807.573</ele>
        <time>2018-07-24T07:08:55Z</time>
      </trkpt>
      <trkpt lat="41.223838" lon="-6.400797">
        <ele>807.59</ele>
        <time>2018-07-24T07:08:56Z</time>
      </trkpt>
      <trkpt lat="41.223812" lon="-6.40082">
        <ele>807.637</ele>
        <time>2018-07-24T07:08:57Z</time>
      </trkpt>
      <trkpt lat="41.223736" lon="-6.400899">
        <ele>807.651</ele>
        <time>2018-07-24T07:09:00Z</time>
      </trkpt>
      <trkpt lat="41.223708" lon="-6.400928">
        <ele>807.667</ele>
        <time>2018-07-24T07:09:01Z</time>
      </trkpt>
      <trkpt lat="41.223685" lon="-6.400954">
        <ele>807.681</ele>
        <time>2018-07-24T07:09:02Z</time>
      </trkpt>
      <trkpt lat="41.223658" lon="-6.400981">
        <ele>807.726</ele>
        <time>2018-07-24T07:09:03Z</time>
      </trkpt>
      <trkpt lat="41.22359" lon="-6.401079">
        <ele>807.759</ele>
        <time>2018-07-24T07:09:06Z</time>
      </trkpt>
      <trkpt lat="41.223544" lon="-6.401144">
        <ele>807.778</ele>
        <time>2018-07-24T07:09:08Z</time>
      </trkpt>
      <trkpt lat="41.223522" lon="-6.401175">
        <ele>807.798</ele>
        <time>2018-07-24T07:09:09Z</time>
      </trkpt>
      <trkpt lat="41.223504" lon="-6.401205">
        <ele>807.819</ele>
        <time>2018-07-24T07:09:10Z</time>
      </trkpt>
      <trkpt lat="41.223484" lon="-6.401236">
        <ele>807.841</ele>
        <time>2018-07-24T07:09:11Z</time>
      </trkpt>
      <trkpt lat="41.223467" lon="-6.401265">
        <ele>807.863</ele>
        <time>2018-07-24T07:09:12Z</time>
      </trkpt>
      <trkpt lat="41.223448" lon="-6.401298">
        <ele>807.886</ele>
        <time>2018-07-24T07:09:13Z</time>
      </trkpt>
      <trkpt lat="41.223431" lon="-6.401331">
        <ele>807.91</ele>
        <time>2018-07-24T07:09:14Z</time>
      </trkpt>
      <trkpt lat="41.223411" lon="-6.401366">
        <ele>807.934</ele>
        <time>2018-07-24T07:09:15Z</time>
      </trkpt>
      <trkpt lat="41.223394" lon="-6.401399">
        <ele>807.984</ele>
        <time>2018-07-24T07:09:16Z</time>
      </trkpt>
      <trkpt lat="41.223354" lon="-6.401468">
        <ele>808.01</ele>
        <time>2018-07-24T07:09:18Z</time>
      </trkpt>
      <trkpt lat="41.223333" lon="-6.401504">
        <ele>808.037</ele>
        <time>2018-07-24T07:09:19Z</time>
      </trkpt>
      <trkpt lat="41.223314" lon="-6.401539">
        <ele>808.064</ele>
        <time>2018-07-24T07:09:20Z</time>
      </trkpt>
      <trkpt lat="41.223293" lon="-6.401577">
        <ele>808.091</ele>
        <time>2018-07-24T07:09:21Z</time>
      </trkpt>
      <trkpt lat="41.223274" lon="-6.401614">
        <ele>808.145</ele>
        <time>2018-07-24T07:09:22Z</time>
      </trkpt>
      <trkpt lat="41.223232" lon="-6.401693">
        <ele>808.197</ele>
        <time>2018-07-24T07:09:24Z</time>
      </trkpt>
      <trkpt lat="41.223192" lon="-6.40177">
        <ele>808.223</ele>
        <time>2018-07-24T07:09:26Z</time>
      </trkpt>
      <trkpt lat="41.223171" lon="-6.401807">
        <ele>808.249</ele>
        <time>2018-07-24T07:09:27Z</time>
      </trkpt>
      <trkpt lat="41.223151" lon="-6.401845">
        <ele>808.274</ele>
        <time>2018-07-24T07:09:28Z</time>
      </trkpt>
      <trkpt lat="41.22313" lon="-6.40188">
        <ele>808.299</ele>
        <time>2018-07-24T07:09:29Z</time>
      </trkpt>
      <trkpt lat="41.22311" lon="-6.401916">
        <ele>808.324</ele>
        <time>2018-07-24T07:09:30Z</time>
      </trkpt>
      <trkpt lat="41.22309" lon="-6.401952">
        <ele>808.374</ele>
        <time>2018-07-24T07:09:31Z</time>
      </trkpt>
      <trkpt lat="41.223058" lon="-6.402029">
        <ele>808.424</ele>
        <time>2018-07-24T07:09:33Z</time>
      </trkpt>
      <trkpt lat="41.223028" lon="-6.402113">
        <ele>808.449</ele>
        <time>2018-07-24T07:09:35Z</time>
      </trkpt>
      <trkpt lat="41.223014" lon="-6.402154">
        <ele>808.498</ele>
        <time>2018-07-24T07:09:36Z</time>
      </trkpt>
      <trkpt lat="41.222995" lon="-6.402243">
        <ele>808.522</ele>
        <time>2018-07-24T07:09:38Z</time>
      </trkpt>
      <trkpt lat="41.222987" lon="-6.402288">
        <ele>808.546</ele>
        <time>2018-07-24T07:09:39Z</time>
      </trkpt>
      <trkpt lat="41.222982" lon="-6.402331">
        <ele>808.569</ele>
        <time>2018-07-24T07:09:40Z</time>
      </trkpt>
      <trkpt lat="41.222977" lon="-6.402377">
        <ele>808.614</ele>
        <time>2018-07-24T07:09:41Z</time>
      </trkpt>
      <trkpt lat="41.222977" lon="-6.40247">
        <ele>808.827</ele>
        <time>2018-07-24T07:09:43Z</time>
      </trkpt>
      <trkpt lat="41.222976" lon="-6.402521">
        <ele>809.137</ele>
        <time>2018-07-24T07:09:44Z</time>
      </trkpt>
      <trkpt lat="41.222988" lon="-6.402625">
        <ele>809.241</ele>
        <time>2018-07-24T07:09:46Z</time>
      </trkpt>
      <trkpt lat="41.222993" lon="-6.402683">
        <ele>809.322</ele>
        <time>2018-07-24T07:09:47Z</time>
      </trkpt>
      <trkpt lat="41.222998" lon="-6.402745">
        <ele>809.376</ele>
        <time>2018-07-24T07:09:48Z</time>
      </trkpt>
      <trkpt lat="41.223004" lon="-6.402808">
        <ele>809.416</ele>
        <time>2018-07-24T07:09:49Z</time>
      </trkpt>
      <trkpt lat="41.223014" lon="-6.402871">
        <ele>809.444</ele>
        <time>2018-07-24T07:09:50Z</time>
      </trkpt>
      <trkpt lat="41.22302" lon="-6.402933">
        <ele>809.468</ele>
        <time>2018-07-24T07:09:51Z</time>
      </trkpt>
      <trkpt lat="41.223032" lon="-6.403061">
        <ele>809.462</ele>
        <time>2018-07-24T07:09:53Z</time>
      </trkpt>
      <trkpt lat="41.223035" lon="-6.403128">
        <ele>809.446</ele>
        <time>2018-07-24T07:09:54Z</time>
      </trkpt>
      <trkpt lat="41.22304" lon="-6.403195">
        <ele>809.423</ele>
        <time>2018-07-24T07:09:55Z</time>
      </trkpt>
      <trkpt lat="41.223046" lon="-6.403263">
        <ele>809.392</ele>
        <time>2018-07-24T07:09:56Z</time>
      </trkpt>
      <trkpt lat="41.22305" lon="-6.403331">
        <ele>809.359</ele>
        <time>2018-07-24T07:09:57Z</time>
      </trkpt>
      <trkpt lat="41.223057" lon="-6.403402">
        <ele>809.239</ele>
        <time>2018-07-24T07:09:58Z</time>
      </trkpt>
      <trkpt lat="41.223071" lon="-6.403627">
        <ele>809.199</ele>
        <time>2018-07-24T07:10:01Z</time>
      </trkpt>
      <trkpt lat="41.223076" lon="-6.403705">
        <ele>809.151</ele>
        <time>2018-07-24T07:10:02Z</time>
      </trkpt>
      <trkpt lat="41.223074" lon="-6.403781">
        <ele>809.107</ele>
        <time>2018-07-24T07:10:03Z</time>
      </trkpt>
      <trkpt lat="41.22307" lon="-6.403857">
        <ele>809.067</ele>
        <time>2018-07-24T07:10:04Z</time>
      </trkpt>
      <trkpt lat="41.223064" lon="-6.403931">
        <ele>809.027</ele>
        <time>2018-07-24T07:10:05Z</time>
      </trkpt>
      <trkpt lat="41.223059" lon="-6.404009">
        <ele>808.902</ele>
        <time>2018-07-24T07:10:06Z</time>
      </trkpt>
      <trkpt lat="41.223014" lon="-6.404222">
        <ele>808.868</ele>
        <time>2018-07-24T07:10:09Z</time>
      </trkpt>
      <trkpt lat="41.222993" lon="-6.404284">
        <ele>808.841</ele>
        <time>2018-07-24T07:10:10Z</time>
      </trkpt>
      <trkpt lat="41.222969" lon="-6.404346">
        <ele>808.816</ele>
        <time>2018-07-24T07:10:11Z</time>
      </trkpt>
      <trkpt lat="41.222945" lon="-6.404406">
        <ele>808.795</ele>
        <time>2018-07-24T07:10:12Z</time>
      </trkpt>
      <trkpt lat="41.222926" lon="-6.404464">
        <ele>808.774</ele>
        <time>2018-07-24T07:10:13Z</time>
      </trkpt>
      <trkpt lat="41.222905" lon="-6.40452">
        <ele>808.755</ele>
        <time>2018-07-24T07:10:14Z</time>
      </trkpt>
      <trkpt lat="41.22289" lon="-6.404579">
        <ele>808.737</ele>
        <time>2018-07-24T07:10:15Z</time>
      </trkpt>
      <trkpt lat="41.222872" lon="-6.404635">
        <ele>808.705</ele>
        <time>2018-07-24T07:10:16Z</time>
      </trkpt>
      <trkpt lat="41.222845" lon="-6.404744">
        <ele>808.689</ele>
        <time>2018-07-24T07:10:18Z</time>
      </trkpt>
      <trkpt lat="41.222829" lon="-6.404799">
        <ele>808.673</ele>
        <time>2018-07-24T07:10:19Z</time>
      </trkpt>
      <trkpt lat="41.222814" lon="-6.404854">
        <ele>808.634</ele>
        <time>2018-07-24T07:10:20Z</time>
      </trkpt>
      <trkpt lat="41.222756" lon="-6.404998">
        <ele>808.622</ele>
        <time>2018-07-24T07:10:23Z</time>
      </trkpt>
      <trkpt lat="41.222736" lon="-6.405044">
        <ele>808.613</ele>
        <time>2018-07-24T07:10:24Z</time>
      </trkpt>
      <trkpt lat="41.222716" lon="-6.40509">
        <ele>808.601</ele>
        <time>2018-07-24T07:10:25Z</time>
      </trkpt>
      <trkpt lat="41.222696" lon="-6.405133">
        <ele>808.592</ele>
        <time>2018-07-24T07:10:26Z</time>
      </trkpt>
      <trkpt lat="41.222677" lon="-6.405177">
        <ele>808.582</ele>
        <time>2018-07-24T07:10:27Z</time>
      </trkpt>
      <trkpt lat="41.222656" lon="-6.405222">
        <ele>808.581</ele>
        <time>2018-07-24T07:10:28Z</time>
      </trkpt>
      <trkpt lat="41.222634" lon="-6.405265">
        <ele>808.58</ele>
        <time>2018-07-24T07:10:29Z</time>
      </trkpt>
      <trkpt lat="41.222614" lon="-6.405305">
        <ele>808.578</ele>
        <time>2018-07-24T07:10:30Z</time>
      </trkpt>
      <trkpt lat="41.22257" lon="-6.405378">
        <ele>808.577</ele>
        <time>2018-07-24T07:10:32Z</time>
      </trkpt>
      <trkpt lat="41.222549" lon="-6.405414">
        <ele>808.576</ele>
        <time>2018-07-24T07:10:33Z</time>
      </trkpt>
      <trkpt lat="41.222528" lon="-6.405447">
        <ele>808.576</ele>
        <time>2018-07-24T07:10:34Z</time>
      </trkpt>
      <trkpt lat="41.222506" lon="-6.405481">
        <ele>808.576</ele>
        <time>2018-07-24T07:10:35Z</time>
      </trkpt>
      <trkpt lat="41.222487" lon="-6.405513">
        <ele>808.576</ele>
        <time>2018-07-24T07:10:36Z</time>
      </trkpt>
      <trkpt lat="41.222465" lon="-6.40555">
        <ele>808.576</ele>
        <time>2018-07-24T07:10:37Z</time>
      </trkpt>
      <trkpt lat="41.222429" lon="-6.405629">
        <ele>808.587</ele>
        <time>2018-07-24T07:10:39Z</time>
      </trkpt>
      <trkpt lat="41.22236" lon="-6.405748">
        <ele>808.596</ele>
        <time>2018-07-24T07:10:42Z</time>
      </trkpt>
      <trkpt lat="41.222336" lon="-6.405787">
        <ele>808.603</ele>
        <time>2018-07-24T07:10:43Z</time>
      </trkpt>
      <trkpt lat="41.22231" lon="-6.405829">
        <ele>808.617</ele>
        <time>2018-07-24T07:10:44Z</time>
      </trkpt>
      <trkpt lat="41.222284" lon="-6.405872">
        <ele>808.618</ele>
        <time>2018-07-24T07:10:45Z</time>
      </trkpt>
      <trkpt lat="41.222262" lon="-6.405914">
        <ele>808.622</ele>
        <time>2018-07-24T07:10:46Z</time>
      </trkpt>
      <trkpt lat="41.222238" lon="-6.405956">
        <ele>808.627</ele>
        <time>2018-07-24T07:10:47Z</time>
      </trkpt>
      <trkpt lat="41.222214" lon="-6.405999">
        <ele>808.63</ele>
        <time>2018-07-24T07:10:48Z</time>
      </trkpt>
      <trkpt lat="41.222192" lon="-6.406042">
        <ele>808.628</ele>
        <time>2018-07-24T07:10:49Z</time>
      </trkpt>
      <trkpt lat="41.222167" lon="-6.406083">
        <ele>808.628</ele>
        <time>2018-07-24T07:10:50Z</time>
      </trkpt>
      <trkpt lat="41.22214" lon="-6.406128">
        <ele>808.623</ele>
        <time>2018-07-24T07:10:51Z</time>
      </trkpt>
      <trkpt lat="41.222112" lon="-6.406172">
        <ele>808.619</ele>
        <time>2018-07-24T07:10:52Z</time>
      </trkpt>
      <trkpt lat="41.222086" lon="-6.406222">
        <ele>808.615</ele>
        <time>2018-07-24T07:10:53Z</time>
      </trkpt>
      <trkpt lat="41.222056" lon="-6.406267">
        <ele>808.609</ele>
        <time>2018-07-24T07:10:54Z</time>
      </trkpt>
      <trkpt lat="41.222029" lon="-6.406319">
        <ele>808.596</ele>
        <time>2018-07-24T07:10:55Z</time>
      </trkpt>
      <trkpt lat="41.222002" lon="-6.406371">
        <ele>808.585</ele>
        <time>2018-07-24T07:10:56Z</time>
      </trkpt>
      <trkpt lat="41.221974" lon="-6.406426">
        <ele>808.574</ele>
        <time>2018-07-24T07:10:57Z</time>
      </trkpt>
      <trkpt lat="41.221946" lon="-6.406476">
        <ele>808.564</ele>
        <time>2018-07-24T07:10:58Z</time>
      </trkpt>
      <trkpt lat="41.221915" lon="-6.406528">
        <ele>808.55</ele>
        <time>2018-07-24T07:10:59Z</time>
      </trkpt>
      <trkpt lat="41.221884" lon="-6.40658">
        <ele>808.538</ele>
        <time>2018-07-24T07:11:00Z</time>
      </trkpt>
      <trkpt lat="41.221852" lon="-6.406629">
        <ele>808.525</ele>
        <time>2018-07-24T07:11:01Z</time>
      </trkpt>
      <trkpt lat="41.22182" lon="-6.406674">
        <ele>808.506</ele>
        <time>2018-07-24T07:11:02Z</time>
      </trkpt>
      <trkpt lat="41.221762" lon="-6.406769">
        <ele>808.505</ele>
        <time>2018-07-24T07:11:04Z</time>
      </trkpt>
      <trkpt lat="41.221734" lon="-6.406817">
        <ele>808.504</ele>
        <time>2018-07-24T07:11:05Z</time>
      </trkpt>
      <trkpt lat="41.221704" lon="-6.406864">
        <ele>808.506</ele>
        <time>2018-07-24T07:11:06Z</time>
      </trkpt>
      <trkpt lat="41.221675" lon="-6.406918">
        <ele>808.507</ele>
        <time>2018-07-24T07:11:07Z</time>
      </trkpt>
      <trkpt lat="41.22165" lon="-6.406971">
        <ele>808.508</ele>
        <time>2018-07-24T07:11:08Z</time>
      </trkpt>
      <trkpt lat="41.221621" lon="-6.407027">
        <ele>808.504</ele>
        <time>2018-07-24T07:11:09Z</time>
      </trkpt>
      <trkpt lat="41.221593" lon="-6.407082">
        <ele>808.501</ele>
        <time>2018-07-24T07:11:10Z</time>
      </trkpt>
      <trkpt lat="41.221565" lon="-6.407139">
        <ele>808.495</ele>
        <time>2018-07-24T07:11:11Z</time>
      </trkpt>
      <trkpt lat="41.221537" lon="-6.407192">
        <ele>808.492</ele>
        <time>2018-07-24T07:11:12Z</time>
      </trkpt>
      <trkpt lat="41.221509" lon="-6.407244">
        <ele>808.488</ele>
        <time>2018-07-24T07:11:13Z</time>
      </trkpt>
      <trkpt lat="41.22148" lon="-6.407296">
        <ele>808.485</ele>
        <time>2018-07-24T07:11:14Z</time>
      </trkpt>
      <trkpt lat="41.221455" lon="-6.407348">
        <ele>808.483</ele>
        <time>2018-07-24T07:11:15Z</time>
      </trkpt>
      <trkpt lat="41.221429" lon="-6.407395">
        <ele>808.482</ele>
        <time>2018-07-24T07:11:16Z</time>
      </trkpt>
      <trkpt lat="41.221402" lon="-6.407448">
        <ele>808.482</ele>
        <time>2018-07-24T07:11:17Z</time>
      </trkpt>
      <trkpt lat="41.221375" lon="-6.4075">
        <ele>808.481</ele>
        <time>2018-07-24T07:11:18Z</time>
      </trkpt>
      <trkpt lat="41.221349" lon="-6.407561">
        <ele>808.487</ele>
        <time>2018-07-24T07:11:19Z</time>
      </trkpt>
      <trkpt lat="41.221306" lon="-6.40769">
        <ele>808.49</ele>
        <time>2018-07-24T07:11:21Z</time>
      </trkpt>
      <trkpt lat="41.221288" lon="-6.407752">
        <ele>808.491</ele>
        <time>2018-07-24T07:11:22Z</time>
      </trkpt>
      <trkpt lat="41.221265" lon="-6.407818">
        <ele>808.49</ele>
        <time>2018-07-24T07:11:23Z</time>
      </trkpt>
      <trkpt lat="41.221245" lon="-6.407883">
        <ele>808.483</ele>
        <time>2018-07-24T07:11:24Z</time>
      </trkpt>
      <trkpt lat="41.221225" lon="-6.407947">
        <ele>808.482</ele>
        <time>2018-07-24T07:11:25Z</time>
      </trkpt>
      <trkpt lat="41.221204" lon="-6.40801">
        <ele>808.477</ele>
        <time>2018-07-24T07:11:26Z</time>
      </trkpt>
      <trkpt lat="41.221183" lon="-6.408074">
        <ele>808.467</ele>
        <time>2018-07-24T07:11:27Z</time>
      </trkpt>
      <trkpt lat="41.221167" lon="-6.408142">
        <ele>808.445</ele>
        <time>2018-07-24T07:11:28Z</time>
      </trkpt>
      <trkpt lat="41.221149" lon="-6.408214">
        <ele>808.423</ele>
        <time>2018-07-24T07:11:29Z</time>
      </trkpt>
      <trkpt lat="41.221132" lon="-6.408282">
        <ele>808.393</ele>
        <time>2018-07-24T07:11:30Z</time>
      </trkpt>
      <trkpt lat="41.221112" lon="-6.408351">
        <ele>808.366</ele>
        <time>2018-07-24T07:11:31Z</time>
      </trkpt>
      <trkpt lat="41.221094" lon="-6.408416">
        <ele>808.333</ele>
        <time>2018-07-24T07:11:32Z</time>
      </trkpt>
      <trkpt lat="41.221071" lon="-6.408478">
        <ele>808.307</ele>
        <time>2018-07-24T07:11:33Z</time>
      </trkpt>
      <trkpt lat="41.221049" lon="-6.408539">
        <ele>808.277</ele>
        <time>2018-07-24T07:11:34Z</time>
      </trkpt>
      <trkpt lat="41.221026" lon="-6.408599">
        <ele>808.25</ele>
        <time>2018-07-24T07:11:35Z</time>
      </trkpt>
      <trkpt lat="41.221004" lon="-6.40866">
        <ele>808.19</ele>
        <time>2018-07-24T07:11:36Z</time>
      </trkpt>
      <trkpt lat="41.220962" lon="-6.408783">
        <ele>808.155</ele>
        <time>2018-07-24T07:11:38Z</time>
      </trkpt>
      <trkpt lat="41.220942" lon="-6.408844">
        <ele>808.124</ele>
        <time>2018-07-24T07:11:39Z</time>
      </trkpt>
      <trkpt lat="41.220924" lon="-6.408904">
        <ele>808.086</ele>
        <time>2018-07-24T07:11:40Z</time>
      </trkpt>
      <trkpt lat="41.220902" lon="-6.408966">
        <ele>808.054</ele>
        <time>2018-07-24T07:11:41Z</time>
      </trkpt>
      <trkpt lat="41.220882" lon="-6.409028">
        <ele>808.018</ele>
        <time>2018-07-24T07:11:42Z</time>
      </trkpt>
      <trkpt lat="41.220859" lon="-6.409092">
        <ele>807.989</ele>
        <time>2018-07-24T07:11:43Z</time>
      </trkpt>
      <trkpt lat="41.220839" lon="-6.409152">
        <ele>807.965</ele>
        <time>2018-07-24T07:11:44Z</time>
      </trkpt>
      <trkpt lat="41.220818" lon="-6.40921">
        <ele>807.943</ele>
        <time>2018-07-24T07:11:45Z</time>
      </trkpt>
      <trkpt lat="41.220799" lon="-6.409273">
        <ele>807.916</ele>
        <time>2018-07-24T07:11:46Z</time>
      </trkpt>
      <trkpt lat="41.220776" lon="-6.409338">
        <ele>807.892</ele>
        <time>2018-07-24T07:11:47Z</time>
      </trkpt>
      <trkpt lat="41.220758" lon="-6.409397">
        <ele>807.868</ele>
        <time>2018-07-24T07:11:48Z</time>
      </trkpt>
      <trkpt lat="41.220736" lon="-6.40946">
        <ele>807.846</ele>
        <time>2018-07-24T07:11:49Z</time>
      </trkpt>
      <trkpt lat="41.220717" lon="-6.409521">
        <ele>807.821</ele>
        <time>2018-07-24T07:11:50Z</time>
      </trkpt>
      <trkpt lat="41.220697" lon="-6.40958">
        <ele>807.801</ele>
        <time>2018-07-24T07:11:51Z</time>
      </trkpt>
      <trkpt lat="41.220679" lon="-6.409638">
        <ele>807.76</ele>
        <time>2018-07-24T07:11:52Z</time>
      </trkpt>
      <trkpt lat="41.220638" lon="-6.40976">
        <ele>807.739</ele>
        <time>2018-07-24T07:11:54Z</time>
      </trkpt>
      <trkpt lat="41.220617" lon="-6.409821">
        <ele>807.72</ele>
        <time>2018-07-24T07:11:55Z</time>
      </trkpt>
      <trkpt lat="41.220599" lon="-6.409878">
        <ele>807.697</ele>
        <time>2018-07-24T07:11:56Z</time>
      </trkpt>
      <trkpt lat="41.220581" lon="-6.409939">
        <ele>807.679</ele>
        <time>2018-07-24T07:11:57Z</time>
      </trkpt>
      <trkpt lat="41.220565" lon="-6.409992">
        <ele>807.654</ele>
        <time>2018-07-24T07:11:58Z</time>
      </trkpt>
      <trkpt lat="41.220546" lon="-6.410057">
        <ele>807.631</ele>
        <time>2018-07-24T07:11:59Z</time>
      </trkpt>
      <trkpt lat="41.22053" lon="-6.410115">
        <ele>807.61</ele>
        <time>2018-07-24T07:12:00Z</time>
      </trkpt>
      <trkpt lat="41.220512" lon="-6.410177">
        <ele>807.589</ele>
        <time>2018-07-24T07:12:01Z</time>
      </trkpt>
      <trkpt lat="41.220497" lon="-6.410237">
        <ele>807.568</ele>
        <time>2018-07-24T07:12:02Z</time>
      </trkpt>
      <trkpt lat="41.22048" lon="-6.410299">
        <ele>807.552</ele>
        <time>2018-07-24T07:12:03Z</time>
      </trkpt>
      <trkpt lat="41.220462" lon="-6.410361">
        <ele>807.535</ele>
        <time>2018-07-24T07:12:04Z</time>
      </trkpt>
      <trkpt lat="41.220448" lon="-6.410429">
        <ele>807.52</ele>
        <time>2018-07-24T07:12:05Z</time>
      </trkpt>
      <trkpt lat="41.220432" lon="-6.410497">
        <ele>807.502</ele>
        <time>2018-07-24T07:12:06Z</time>
      </trkpt>
      <trkpt lat="41.220416" lon="-6.410567">
        <ele>807.487</ele>
        <time>2018-07-24T07:12:07Z</time>
      </trkpt>
      <trkpt lat="41.220403" lon="-6.41063">
        <ele>807.472</ele>
        <time>2018-07-24T07:12:08Z</time>
      </trkpt>
      <trkpt lat="41.220389" lon="-6.410694">
        <ele>807.458</ele>
        <time>2018-07-24T07:12:09Z</time>
      </trkpt>
      <trkpt lat="41.220378" lon="-6.410759">
        <ele>807.446</ele>
        <time>2018-07-24T07:12:10Z</time>
      </trkpt>
      <trkpt lat="41.220367" lon="-6.410831">
        <ele>807.433</ele>
        <time>2018-07-24T07:12:11Z</time>
      </trkpt>
      <trkpt lat="41.220357" lon="-6.410899">
        <ele>807.421</ele>
        <time>2018-07-24T07:12:12Z</time>
      </trkpt>
      <trkpt lat="41.220347" lon="-6.410967">
        <ele>807.41</ele>
        <time>2018-07-24T07:12:13Z</time>
      </trkpt>
      <trkpt lat="41.220337" lon="-6.411031">
        <ele>807.399</ele>
        <time>2018-07-24T07:12:14Z</time>
      </trkpt>
      <trkpt lat="41.220328" lon="-6.4111">
        <ele>807.386</ele>
        <time>2018-07-24T07:12:15Z</time>
      </trkpt>
      <trkpt lat="41.220323" lon="-6.411168">
        <ele>807.37</ele>
        <time>2018-07-24T07:12:16Z</time>
      </trkpt>
      <trkpt lat="41.220321" lon="-6.411238">
        <ele>807.355</ele>
        <time>2018-07-24T07:12:17Z</time>
      </trkpt>
      <trkpt lat="41.220322" lon="-6.411301">
        <ele>807.342</ele>
        <time>2018-07-24T07:12:18Z</time>
      </trkpt>
      <trkpt lat="41.220325" lon="-6.411362">
        <ele>807.311</ele>
        <time>2018-07-24T07:12:19Z</time>
      </trkpt>
      <trkpt lat="41.220333" lon="-6.411486">
        <ele>807.296</ele>
        <time>2018-07-24T07:12:21Z</time>
      </trkpt>
      <trkpt lat="41.220337" lon="-6.411552">
        <ele>807.278</ele>
        <time>2018-07-24T07:12:22Z</time>
      </trkpt>
      <trkpt lat="41.220343" lon="-6.411617">
        <ele>807.258</ele>
        <time>2018-07-24T07:12:23Z</time>
      </trkpt>
      <trkpt lat="41.22035" lon="-6.411681">
        <ele>807.232</ele>
        <time>2018-07-24T07:12:24Z</time>
      </trkpt>
      <trkpt lat="41.220355" lon="-6.411747">
        <ele>807.21</ele>
        <time>2018-07-24T07:12:25Z</time>
      </trkpt>
      <trkpt lat="41.220358" lon="-6.411809">
        <ele>807.188</ele>
        <time>2018-07-24T07:12:26Z</time>
      </trkpt>
      <trkpt lat="41.220358" lon="-6.411867">
        <ele>807.167</ele>
        <time>2018-07-24T07:12:27Z</time>
      </trkpt>
      <trkpt lat="41.220357" lon="-6.411929">
        <ele>807.142</ele>
        <time>2018-07-24T07:12:28Z</time>
      </trkpt>
      <trkpt lat="41.220356" lon="-6.411987">
        <ele>807.123</ele>
        <time>2018-07-24T07:12:29Z</time>
      </trkpt>
      <trkpt lat="41.22035" lon="-6.412046">
        <ele>807.081</ele>
        <time>2018-07-24T07:12:30Z</time>
      </trkpt>
      <trkpt lat="41.220331" lon="-6.412159">
        <ele>807.051</ele>
        <time>2018-07-24T07:12:32Z</time>
      </trkpt>
      <trkpt lat="41.220317" lon="-6.412217">
        <ele>807.024</ele>
        <time>2018-07-24T07:12:33Z</time>
      </trkpt>
      <trkpt lat="41.220303" lon="-6.412273">
        <ele>806.999</ele>
        <time>2018-07-24T07:12:34Z</time>
      </trkpt>
      <trkpt lat="41.22029" lon="-6.412329">
        <ele>806.979</ele>
        <time>2018-07-24T07:12:35Z</time>
      </trkpt>
      <trkpt lat="41.220278" lon="-6.412385">
        <ele>806.963</ele>
        <time>2018-07-24T07:12:36Z</time>
      </trkpt>
      <trkpt lat="41.220266" lon="-6.412442">
        <ele>806.922</ele>
        <time>2018-07-24T07:12:37Z</time>
      </trkpt>
      <trkpt lat="41.220245" lon="-6.412549">
        <ele>806.905</ele>
        <time>2018-07-24T07:12:39Z</time>
      </trkpt>
      <trkpt lat="41.220234" lon="-6.412601">
        <ele>806.89</ele>
        <time>2018-07-24T07:12:40Z</time>
      </trkpt>
      <trkpt lat="41.220225" lon="-6.412652">
        <ele>806.863</ele>
        <time>2018-07-24T07:12:41Z</time>
      </trkpt>
      <trkpt lat="41.220194" lon="-6.412749">
        <ele>806.855</ele>
        <time>2018-07-24T07:12:43Z</time>
      </trkpt>
      <trkpt lat="41.22018" lon="-6.412797">
        <ele>806.85</ele>
        <time>2018-07-24T07:12:44Z</time>
      </trkpt>
      <trkpt lat="41.220166" lon="-6.412846">
        <ele>806.838</ele>
        <time>2018-07-24T07:12:45Z</time>
      </trkpt>
      <trkpt lat="41.220137" lon="-6.412946">
        <ele>806.84</ele>
        <time>2018-07-24T07:12:47Z</time>
      </trkpt>
      <trkpt lat="41.220124" lon="-6.412992">
        <ele>806.845</ele>
        <time>2018-07-24T07:12:48Z</time>
      </trkpt>
      <trkpt lat="41.220112" lon="-6.413043">
        <ele>806.846</ele>
        <time>2018-07-24T07:12:49Z</time>
      </trkpt>
      <trkpt lat="41.220102" lon="-6.413089">
        <ele>806.848</ele>
        <time>2018-07-24T07:12:50Z</time>
      </trkpt>
      <trkpt lat="41.220083" lon="-6.413182">
        <ele>806.87</ele>
        <time>2018-07-24T07:12:52Z</time>
      </trkpt>
      <trkpt lat="41.22006" lon="-6.413283">
        <ele>806.876</ele>
        <time>2018-07-24T07:12:54Z</time>
      </trkpt>
      <trkpt lat="41.22005" lon="-6.413336">
        <ele>806.881</ele>
        <time>2018-07-24T07:12:55Z</time>
      </trkpt>
      <trkpt lat="41.220041" lon="-6.413384">
        <ele>806.881</ele>
        <time>2018-07-24T07:12:56Z</time>
      </trkpt>
      <trkpt lat="41.220033" lon="-6.413438">
        <ele>806.877</ele>
        <time>2018-07-24T07:12:57Z</time>
      </trkpt>
      <trkpt lat="41.220013" lon="-6.41354">
        <ele>806.877</ele>
        <time>2018-07-24T07:12:59Z</time>
      </trkpt>
      <trkpt lat="41.220003" lon="-6.413587">
        <ele>806.876</ele>
        <time>2018-07-24T07:13:00Z</time>
      </trkpt>
      <trkpt lat="41.21999" lon="-6.413636">
        <ele>806.876</ele>
        <time>2018-07-24T07:13:01Z</time>
      </trkpt>
      <trkpt lat="41.219981" lon="-6.413683">
        <ele>806.876</ele>
        <time>2018-07-24T07:13:02Z</time>
      </trkpt>
      <trkpt lat="41.219969" lon="-6.413732">
        <ele>806.876</ele>
        <time>2018-07-24T07:13:03Z</time>
      </trkpt>
      <trkpt lat="41.219959" lon="-6.413777">
        <ele>806.866</ele>
        <time>2018-07-24T07:13:04Z</time>
      </trkpt>
      <trkpt lat="41.219945" lon="-6.413826">
        <ele>806.865</ele>
        <time>2018-07-24T07:13:05Z</time>
      </trkpt>
      <trkpt lat="41.219931" lon="-6.413873">
        <ele>806.864</ele>
        <time>2018-07-24T07:13:06Z</time>
      </trkpt>
      <trkpt lat="41.219919" lon="-6.413921">
        <ele>806.849</ele>
        <time>2018-07-24T07:13:07Z</time>
      </trkpt>
      <trkpt lat="41.219899" lon="-6.414014">
        <ele>806.839</ele>
        <time>2018-07-24T07:13:09Z</time>
      </trkpt>
      <trkpt lat="41.219889" lon="-6.414061">
        <ele>806.834</ele>
        <time>2018-07-24T07:13:10Z</time>
      </trkpt>
      <trkpt lat="41.21988" lon="-6.414116">
        <ele>806.833</ele>
        <time>2018-07-24T07:13:11Z</time>
      </trkpt>
      <trkpt lat="41.21987" lon="-6.414164">
        <ele>806.837</ele>
        <time>2018-07-24T07:13:12Z</time>
      </trkpt>
      <trkpt lat="41.21986" lon="-6.414214">
        <ele>806.838</ele>
        <time>2018-07-24T07:13:13Z</time>
      </trkpt>
      <trkpt lat="41.219848" lon="-6.41426">
        <ele>806.835</ele>
        <time>2018-07-24T07:13:14Z</time>
      </trkpt>
      <trkpt lat="41.219837" lon="-6.41431">
        <ele>806.835</ele>
        <time>2018-07-24T07:13:15Z</time>
      </trkpt>
      <trkpt lat="41.219828" lon="-6.414356">
        <ele>806.835</ele>
        <time>2018-07-24T07:13:16Z</time>
      </trkpt>
      <trkpt lat="41.219821" lon="-6.414398">
        <ele>806.835</ele>
        <time>2018-07-24T07:13:17Z</time>
      </trkpt>
      <trkpt lat="41.219813" lon="-6.414441">
        <ele>806.836</ele>
        <time>2018-07-24T07:13:18Z</time>
      </trkpt>
      <trkpt lat="41.219805" lon="-6.414483">
        <ele>806.836</ele>
        <time>2018-07-24T07:13:19Z</time>
      </trkpt>
      <trkpt lat="41.219795" lon="-6.414527">
        <ele>806.836</ele>
        <time>2018-07-24T07:13:20Z</time>
      </trkpt>
      <trkpt lat="41.219783" lon="-6.414573">
        <ele>806.837</ele>
        <time>2018-07-24T07:13:21Z</time>
      </trkpt>
      <trkpt lat="41.219771" lon="-6.414617">
        <ele>806.838</ele>
        <time>2018-07-24T07:13:22Z</time>
      </trkpt>
      <trkpt lat="41.219759" lon="-6.41466">
        <ele>806.838</ele>
        <time>2018-07-24T07:13:23Z</time>
      </trkpt>
      <trkpt lat="41.219746" lon="-6.4147">
        <ele>806.838</ele>
        <time>2018-07-24T07:13:24Z</time>
      </trkpt>
      <trkpt lat="41.219721" lon="-6.414772">
        <ele>806.838</ele>
        <time>2018-07-24T07:13:26Z</time>
      </trkpt>
      <trkpt lat="41.219703" lon="-6.414853">
        <ele>806.838</ele>
        <time>2018-07-24T07:13:28Z</time>
      </trkpt>
      <trkpt lat="41.219695" lon="-6.414894">
        <ele>806.838</ele>
        <time>2018-07-24T07:13:29Z</time>
      </trkpt>
      <trkpt lat="41.219687" lon="-6.414936">
        <ele>806.838</ele>
        <time>2018-07-24T07:13:30Z</time>
      </trkpt>
      <trkpt lat="41.219681" lon="-6.414982">
        <ele>806.838</ele>
        <time>2018-07-24T07:13:31Z</time>
      </trkpt>
      <trkpt lat="41.219672" lon="-6.415026">
        <ele>806.838</ele>
        <time>2018-07-24T07:13:32Z</time>
      </trkpt>
      <trkpt lat="41.219665" lon="-6.415076">
        <ele>806.838</ele>
        <time>2018-07-24T07:13:33Z</time>
      </trkpt>
      <trkpt lat="41.219659" lon="-6.415119">
        <ele>806.839</ele>
        <time>2018-07-24T07:13:34Z</time>
      </trkpt>
      <trkpt lat="41.219653" lon="-6.415162">
        <ele>806.839</ele>
        <time>2018-07-24T07:13:35Z</time>
      </trkpt>
      <trkpt lat="41.219646" lon="-6.41521">
        <ele>806.839</ele>
        <time>2018-07-24T07:13:36Z</time>
      </trkpt>
      <trkpt lat="41.219639" lon="-6.415256">
        <ele>806.838</ele>
        <time>2018-07-24T07:13:37Z</time>
      </trkpt>
      <trkpt lat="41.21963" lon="-6.415301">
        <ele>806.838</ele>
        <time>2018-07-24T07:13:38Z</time>
      </trkpt>
      <trkpt lat="41.219622" lon="-6.415347">
        <ele>806.838</ele>
        <time>2018-07-24T07:13:39Z</time>
      </trkpt>
      <trkpt lat="41.219615" lon="-6.415392">
        <ele>806.838</ele>
        <time>2018-07-24T07:13:40Z</time>
      </trkpt>
      <trkpt lat="41.219608" lon="-6.415436">
        <ele>806.822</ele>
        <time>2018-07-24T07:13:41Z</time>
      </trkpt>
      <trkpt lat="41.219592" lon="-6.415533">
        <ele>806.796</ele>
        <time>2018-07-24T07:13:43Z</time>
      </trkpt>
      <trkpt lat="41.219573" lon="-6.415635">
        <ele>806.787</ele>
        <time>2018-07-24T07:13:45Z</time>
      </trkpt>
      <trkpt lat="41.219562" lon="-6.415683">
        <ele>806.776</ele>
        <time>2018-07-24T07:13:46Z</time>
      </trkpt>
      <trkpt lat="41.21955" lon="-6.415735">
        <ele>806.763</ele>
        <time>2018-07-24T07:13:47Z</time>
      </trkpt>
      <trkpt lat="41.219536" lon="-6.415788">
        <ele>806.747</ele>
        <time>2018-07-24T07:13:48Z</time>
      </trkpt>
      <trkpt lat="41.219523" lon="-6.415843">
        <ele>806.708</ele>
        <time>2018-07-24T07:13:49Z</time>
      </trkpt>
      <trkpt lat="41.219492" lon="-6.415949">
        <ele>806.694</ele>
        <time>2018-07-24T07:13:51Z</time>
      </trkpt>
      <trkpt lat="41.219479" lon="-6.415998">
        <ele>806.678</ele>
        <time>2018-07-24T07:13:52Z</time>
      </trkpt>
      <trkpt lat="41.219468" lon="-6.416049">
        <ele>806.66</ele>
        <time>2018-07-24T07:13:53Z</time>
      </trkpt>
      <trkpt lat="41.219456" lon="-6.416104">
        <ele>806.64</ele>
        <time>2018-07-24T07:13:54Z</time>
      </trkpt>
      <trkpt lat="41.219444" lon="-6.416158">
        <ele>806.619</ele>
        <time>2018-07-24T07:13:55Z</time>
      </trkpt>
      <trkpt lat="41.219433" lon="-6.416209">
        <ele>806.596</ele>
        <time>2018-07-24T07:13:56Z</time>
      </trkpt>
      <trkpt lat="41.219421" lon="-6.416261">
        <ele>806.593</ele>
        <time>2018-07-24T07:13:57Z</time>
      </trkpt>
      <trkpt lat="41.219411" lon="-6.416311">
        <ele>806.56</ele>
        <time>2018-07-24T07:13:58Z</time>
      </trkpt>
      <trkpt lat="41.219399" lon="-6.41636">
        <ele>806.525</ele>
        <time>2018-07-24T07:13:59Z</time>
      </trkpt>
      <trkpt lat="41.219387" lon="-6.416412">
        <ele>806.522</ele>
        <time>2018-07-24T07:14:00Z</time>
      </trkpt>
      <trkpt lat="41.219373" lon="-6.416462">
        <ele>806.48</ele>
        <time>2018-07-24T07:14:01Z</time>
      </trkpt>
      <trkpt lat="41.21936" lon="-6.416509">
        <ele>806.441</ele>
        <time>2018-07-24T07:14:02Z</time>
      </trkpt>
      <trkpt lat="41.219346" lon="-6.416557">
        <ele>806.437</ele>
        <time>2018-07-24T07:14:03Z</time>
      </trkpt>
      <trkpt lat="41.21933" lon="-6.416605">
        <ele>806.396</ele>
        <time>2018-07-24T07:14:04Z</time>
      </trkpt>
      <trkpt lat="41.219312" lon="-6.41665">
        <ele>806.393</ele>
        <time>2018-07-24T07:14:05Z</time>
      </trkpt>
      <trkpt lat="41.219295" lon="-6.416695">
        <ele>806.388</ele>
        <time>2018-07-24T07:14:06Z</time>
      </trkpt>
      <trkpt lat="41.219279" lon="-6.416738">
        <ele>806.384</ele>
        <time>2018-07-24T07:14:07Z</time>
      </trkpt>
      <trkpt lat="41.219261" lon="-6.416782">
        <ele>806.333</ele>
        <time>2018-07-24T07:14:08Z</time>
      </trkpt>
      <trkpt lat="41.21924" lon="-6.416829">
        <ele>806.288</ele>
        <time>2018-07-24T07:14:09Z</time>
      </trkpt>
      <trkpt lat="41.219218" lon="-6.416875">
        <ele>806.248</ele>
        <time>2018-07-24T07:14:10Z</time>
      </trkpt>
      <trkpt lat="41.219193" lon="-6.41692">
        <ele>806.211</ele>
        <time>2018-07-24T07:14:11Z</time>
      </trkpt>
      <trkpt lat="41.219167" lon="-6.416964">
        <ele>806.176</ele>
        <time>2018-07-24T07:14:12Z</time>
      </trkpt>
      <trkpt lat="41.219142" lon="-6.417008">
        <ele>806.144</ele>
        <time>2018-07-24T07:14:13Z</time>
      </trkpt>
      <trkpt lat="41.219115" lon="-6.417053">
        <ele>806.116</ele>
        <time>2018-07-24T07:14:14Z</time>
      </trkpt>
      <trkpt lat="41.219088" lon="-6.417097">
        <ele>806.089</ele>
        <time>2018-07-24T07:14:15Z</time>
      </trkpt>
      <trkpt lat="41.219059" lon="-6.417142">
        <ele>806.064</ele>
        <time>2018-07-24T07:14:16Z</time>
      </trkpt>
      <trkpt lat="41.219032" lon="-6.417187">
        <ele>806.04</ele>
        <time>2018-07-24T07:14:17Z</time>
      </trkpt>
      <trkpt lat="41.219006" lon="-6.41723">
        <ele>806.016</ele>
        <time>2018-07-24T07:14:18Z</time>
      </trkpt>
      <trkpt lat="41.218978" lon="-6.417271">
        <ele>805.992</ele>
        <time>2018-07-24T07:14:19Z</time>
      </trkpt>
      <trkpt lat="41.218951" lon="-6.417313">
        <ele>805.949</ele>
        <time>2018-07-24T07:14:20Z</time>
      </trkpt>
      <trkpt lat="41.218896" lon="-6.417396">
        <ele>805.927</ele>
        <time>2018-07-24T07:14:22Z</time>
      </trkpt>
      <trkpt lat="41.21887" lon="-6.417439">
        <ele>805.903</ele>
        <time>2018-07-24T07:14:23Z</time>
      </trkpt>
      <trkpt lat="41.218845" lon="-6.417483">
        <ele>805.878</ele>
        <time>2018-07-24T07:14:24Z</time>
      </trkpt>
      <trkpt lat="41.21882" lon="-6.417531">
        <ele>805.854</ele>
        <time>2018-07-24T07:14:25Z</time>
      </trkpt>
      <trkpt lat="41.218797" lon="-6.417578">
        <ele>805.83</ele>
        <time>2018-07-24T07:14:26Z</time>
      </trkpt>
      <trkpt lat="41.218777" lon="-6.417623">
        <ele>805.809</ele>
        <time>2018-07-24T07:14:27Z</time>
      </trkpt>
      <trkpt lat="41.218757" lon="-6.417672">
        <ele>805.789</ele>
        <time>2018-07-24T07:14:28Z</time>
      </trkpt>
      <trkpt lat="41.21874" lon="-6.41772">
        <ele>805.772</ele>
        <time>2018-07-24T07:14:29Z</time>
      </trkpt>
      <trkpt lat="41.218722" lon="-6.417771">
        <ele>805.754</ele>
        <time>2018-07-24T07:14:30Z</time>
      </trkpt>
      <trkpt lat="41.218706" lon="-6.417821">
        <ele>805.735</ele>
        <time>2018-07-24T07:14:31Z</time>
      </trkpt>
      <trkpt lat="41.218691" lon="-6.417873">
        <ele>805.717</ele>
        <time>2018-07-24T07:14:32Z</time>
      </trkpt>
      <trkpt lat="41.218675" lon="-6.417924">
        <ele>805.7</ele>
        <time>2018-07-24T07:14:33Z</time>
      </trkpt>
      <trkpt lat="41.218659" lon="-6.417979">
        <ele>805.684</ele>
        <time>2018-07-24T07:14:34Z</time>
      </trkpt>
      <trkpt lat="41.218642" lon="-6.418032">
        <ele>805.667</ele>
        <time>2018-07-24T07:14:35Z</time>
      </trkpt>
      <trkpt lat="41.218624" lon="-6.418088">
        <ele>805.649</ele>
        <time>2018-07-24T07:14:36Z</time>
      </trkpt>
      <trkpt lat="41.218607" lon="-6.418145">
        <ele>805.632</ele>
        <time>2018-07-24T07:14:37Z</time>
      </trkpt>
      <trkpt lat="41.218592" lon="-6.418199">
        <ele>805.612</ele>
        <time>2018-07-24T07:14:38Z</time>
      </trkpt>
      <trkpt lat="41.218576" lon="-6.418256">
        <ele>805.593</ele>
        <time>2018-07-24T07:14:39Z</time>
      </trkpt>
      <trkpt lat="41.218561" lon="-6.418308">
        <ele>805.577</ele>
        <time>2018-07-24T07:14:40Z</time>
      </trkpt>
      <trkpt lat="41.218547" lon="-6.418363">
        <ele>805.559</ele>
        <time>2018-07-24T07:14:41Z</time>
      </trkpt>
      <trkpt lat="41.218534" lon="-6.418418">
        <ele>805.542</ele>
        <time>2018-07-24T07:14:42Z</time>
      </trkpt>
      <trkpt lat="41.218521" lon="-6.41847">
        <ele>805.521</ele>
        <time>2018-07-24T07:14:43Z</time>
      </trkpt>
      <trkpt lat="41.218508" lon="-6.418527">
        <ele>805.5</ele>
        <time>2018-07-24T07:14:44Z</time>
      </trkpt>
      <trkpt lat="41.218494" lon="-6.418581">
        <ele>805.482</ele>
        <time>2018-07-24T07:14:45Z</time>
      </trkpt>
      <trkpt lat="41.218477" lon="-6.418634">
        <ele>805.466</ele>
        <time>2018-07-24T07:14:46Z</time>
      </trkpt>
      <trkpt lat="41.218461" lon="-6.418687">
        <ele>805.451</ele>
        <time>2018-07-24T07:14:47Z</time>
      </trkpt>
      <trkpt lat="41.218446" lon="-6.418743">
        <ele>805.439</ele>
        <time>2018-07-24T07:14:48Z</time>
      </trkpt>
      <trkpt lat="41.218433" lon="-6.418791">
        <ele>805.427</ele>
        <time>2018-07-24T07:14:49Z</time>
      </trkpt>
      <trkpt lat="41.21842" lon="-6.418843">
        <ele>805.412</ele>
        <time>2018-07-24T07:14:50Z</time>
      </trkpt>
      <trkpt lat="41.218406" lon="-6.418898">
        <ele>805.4</ele>
        <time>2018-07-24T07:14:51Z</time>
      </trkpt>
      <trkpt lat="41.218392" lon="-6.41895">
        <ele>805.383</ele>
        <time>2018-07-24T07:14:52Z</time>
      </trkpt>
      <trkpt lat="41.218378" lon="-6.419007">
        <ele>805.349</ele>
        <time>2018-07-24T07:14:53Z</time>
      </trkpt>
      <trkpt lat="41.218355" lon="-6.419107">
        <ele>805.333</ele>
        <time>2018-07-24T07:14:55Z</time>
      </trkpt>
      <trkpt lat="41.218341" lon="-6.41916">
        <ele>805.317</ele>
        <time>2018-07-24T07:14:56Z</time>
      </trkpt>
      <trkpt lat="41.218328" lon="-6.419209">
        <ele>805.307</ele>
        <time>2018-07-24T07:14:57Z</time>
      </trkpt>
      <trkpt lat="41.218313" lon="-6.419256">
        <ele>805.306</ele>
        <time>2018-07-24T07:14:58Z</time>
      </trkpt>
      <trkpt lat="41.218298" lon="-6.419302">
        <ele>805.304</ele>
        <time>2018-07-24T07:14:59Z</time>
      </trkpt>
      <trkpt lat="41.218281" lon="-6.419347">
        <ele>805.302</ele>
        <time>2018-07-24T07:15:00Z</time>
      </trkpt>
      <trkpt lat="41.218263" lon="-6.41939">
        <ele>805.28</ele>
        <time>2018-07-24T07:15:01Z</time>
      </trkpt>
      <trkpt lat="41.218245" lon="-6.419435">
        <ele>805.258</ele>
        <time>2018-07-24T07:15:02Z</time>
      </trkpt>
      <trkpt lat="41.218228" lon="-6.419482">
        <ele>805.233</ele>
        <time>2018-07-24T07:15:03Z</time>
      </trkpt>
      <trkpt lat="41.218208" lon="-6.419532">
        <ele>805.21</ele>
        <time>2018-07-24T07:15:04Z</time>
      </trkpt>
      <trkpt lat="41.218188" lon="-6.419581">
        <ele>805.188</ele>
        <time>2018-07-24T07:15:05Z</time>
      </trkpt>
      <trkpt lat="41.218166" lon="-6.41963">
        <ele>805.165</ele>
        <time>2018-07-24T07:15:06Z</time>
      </trkpt>
      <trkpt lat="41.218142" lon="-6.419677">
        <ele>805.141</ele>
        <time>2018-07-24T07:15:07Z</time>
      </trkpt>
      <trkpt lat="41.218115" lon="-6.419722">
        <ele>805.12</ele>
        <time>2018-07-24T07:15:08Z</time>
      </trkpt>
      <trkpt lat="41.218086" lon="-6.419769">
        <ele>805.101</ele>
        <time>2018-07-24T07:15:09Z</time>
      </trkpt>
      <trkpt lat="41.218062" lon="-6.419809">
        <ele>805.085</ele>
        <time>2018-07-24T07:15:10Z</time>
      </trkpt>
      <trkpt lat="41.218032" lon="-6.419853">
        <ele>805.083</ele>
        <time>2018-07-24T07:15:11Z</time>
      </trkpt>
      <trkpt lat="41.218006" lon="-6.419893">
        <ele>805.081</ele>
        <time>2018-07-24T07:15:12Z</time>
      </trkpt>
      <trkpt lat="41.217983" lon="-6.419932">
        <ele>805.079</ele>
        <time>2018-07-24T07:15:13Z</time>
      </trkpt>
      <trkpt lat="41.217961" lon="-6.41997">
        <ele>805.057</ele>
        <time>2018-07-24T07:15:14Z</time>
      </trkpt>
      <trkpt lat="41.217936" lon="-6.420012">
        <ele>805.038</ele>
        <time>2018-07-24T07:15:15Z</time>
      </trkpt>
      <trkpt lat="41.217913" lon="-6.420057">
        <ele>805.036</ele>
        <time>2018-07-24T07:15:16Z</time>
      </trkpt>
      <trkpt lat="41.217889" lon="-6.420101">
        <ele>805.002</ele>
        <time>2018-07-24T07:15:17Z</time>
      </trkpt>
      <trkpt lat="41.217844" lon="-6.420182">
        <ele>805.001</ele>
        <time>2018-07-24T07:15:19Z</time>
      </trkpt>
      <trkpt lat="41.217822" lon="-6.420224">
        <ele>804.987</ele>
        <time>2018-07-24T07:15:20Z</time>
      </trkpt>
      <trkpt lat="41.217797" lon="-6.420261">
        <ele>804.975</ele>
        <time>2018-07-24T07:15:21Z</time>
      </trkpt>
      <trkpt lat="41.217773" lon="-6.420304">
        <ele>804.973</ele>
        <time>2018-07-24T07:15:22Z</time>
      </trkpt>
      <trkpt lat="41.217752" lon="-6.420345">
        <ele>804.958</ele>
        <time>2018-07-24T07:15:23Z</time>
      </trkpt>
      <trkpt lat="41.217733" lon="-6.420381">
        <ele>804.957</ele>
        <time>2018-07-24T07:15:24Z</time>
      </trkpt>
      <trkpt lat="41.217712" lon="-6.42042">
        <ele>804.948</ele>
        <time>2018-07-24T07:15:25Z</time>
      </trkpt>
      <trkpt lat="41.217689" lon="-6.420462">
        <ele>804.946</ele>
        <time>2018-07-24T07:15:26Z</time>
      </trkpt>
      <trkpt lat="41.217652" lon="-6.420542">
        <ele>804.946</ele>
        <time>2018-07-24T07:15:28Z</time>
      </trkpt>
      <trkpt lat="41.217632" lon="-6.420581">
        <ele>804.945</ele>
        <time>2018-07-24T07:15:29Z</time>
      </trkpt>
      <trkpt lat="41.217616" lon="-6.42062">
        <ele>804.943</ele>
        <time>2018-07-24T07:15:30Z</time>
      </trkpt>
      <trkpt lat="41.217598" lon="-6.420664">
        <ele>804.942</ele>
        <time>2018-07-24T07:15:31Z</time>
      </trkpt>
      <trkpt lat="41.217579" lon="-6.420711">
        <ele>804.941</ele>
        <time>2018-07-24T07:15:32Z</time>
      </trkpt>
      <trkpt lat="41.21756" lon="-6.420753">
        <ele>804.939</ele>
        <time>2018-07-24T07:15:33Z</time>
      </trkpt>
      <trkpt lat="41.217546" lon="-6.420788">
        <ele>804.937</ele>
        <time>2018-07-24T07:15:34Z</time>
      </trkpt>
      <trkpt lat="41.217531" lon="-6.420823">
        <ele>804.934</ele>
        <time>2018-07-24T07:15:35Z</time>
      </trkpt>
      <trkpt lat="41.217504" lon="-6.420896">
        <ele>804.932</ele>
        <time>2018-07-24T07:15:37Z</time>
      </trkpt>
      <trkpt lat="41.217489" lon="-6.42093">
        <ele>804.931</ele>
        <time>2018-07-24T07:15:38Z</time>
      </trkpt>
      <trkpt lat="41.217474" lon="-6.420963">
        <ele>804.927</ele>
        <time>2018-07-24T07:15:39Z</time>
      </trkpt>
      <trkpt lat="41.217448" lon="-6.421032">
        <ele>804.926</ele>
        <time>2018-07-24T07:15:41Z</time>
      </trkpt>
      <trkpt lat="41.217435" lon="-6.421064">
        <ele>804.924</ele>
        <time>2018-07-24T07:15:42Z</time>
      </trkpt>
      <trkpt lat="41.217423" lon="-6.421097">
        <ele>804.923</ele>
        <time>2018-07-24T07:15:43Z</time>
      </trkpt>
      <trkpt lat="41.217408" lon="-6.42113">
        <ele>804.922</ele>
        <time>2018-07-24T07:15:44Z</time>
      </trkpt>
      <trkpt lat="41.217394" lon="-6.421167">
        <ele>804.921</ele>
        <time>2018-07-24T07:15:45Z</time>
      </trkpt>
      <trkpt lat="41.217381" lon="-6.421199">
        <ele>804.921</ele>
        <time>2018-07-24T07:15:46Z</time>
      </trkpt>
      <trkpt lat="41.217367" lon="-6.421229">
        <ele>804.921</ele>
        <time>2018-07-24T07:15:47Z</time>
      </trkpt>
      <trkpt lat="41.217353" lon="-6.421257">
        <ele>804.921</ele>
        <time>2018-07-24T07:15:48Z</time>
      </trkpt>
      <trkpt lat="41.217336" lon="-6.421292">
        <ele>804.921</ele>
        <time>2018-07-24T07:15:49Z</time>
      </trkpt>
      <trkpt lat="41.217318" lon="-6.421329">
        <ele>804.92</ele>
        <time>2018-07-24T07:15:50Z</time>
      </trkpt>
      <trkpt lat="41.217289" lon="-6.421416">
        <ele>804.919</ele>
        <time>2018-07-24T07:15:52Z</time>
      </trkpt>
      <trkpt lat="41.217273" lon="-6.421457">
        <ele>804.912</ele>
        <time>2018-07-24T07:15:53Z</time>
      </trkpt>
      <trkpt lat="41.217253" lon="-6.421501">
        <ele>804.908</ele>
        <time>2018-07-24T07:15:54Z</time>
      </trkpt>
      <trkpt lat="41.217231" lon="-6.421546">
        <ele>804.905</ele>
        <time>2018-07-24T07:15:55Z</time>
      </trkpt>
      <trkpt lat="41.217209" lon="-6.421594">
        <ele>804.903</ele>
        <time>2018-07-24T07:15:56Z</time>
      </trkpt>
      <trkpt lat="41.217189" lon="-6.421644">
        <ele>804.903</ele>
        <time>2018-07-24T07:15:57Z</time>
      </trkpt>
      <trkpt lat="41.217173" lon="-6.421695">
        <ele>804.905</ele>
        <time>2018-07-24T07:15:58Z</time>
      </trkpt>
      <trkpt lat="41.217106" lon="-6.421856">
        <ele>804.904</ele>
        <time>2018-07-24T07:16:01Z</time>
      </trkpt>
      <trkpt lat="41.217087" lon="-6.421914">
        <ele>804.9</ele>
        <time>2018-07-24T07:16:02Z</time>
      </trkpt>
      <trkpt lat="41.217064" lon="-6.421972">
        <ele>804.899</ele>
        <time>2018-07-24T07:16:03Z</time>
      </trkpt>
      <trkpt lat="41.217039" lon="-6.422028">
        <ele>804.898</ele>
        <time>2018-07-24T07:16:04Z</time>
      </trkpt>
      <trkpt lat="41.217018" lon="-6.422084">
        <ele>804.895</ele>
        <time>2018-07-24T07:16:05Z</time>
      </trkpt>
      <trkpt lat="41.216996" lon="-6.422141">
        <ele>804.892</ele>
        <time>2018-07-24T07:16:06Z</time>
      </trkpt>
      <trkpt lat="41.216973" lon="-6.422199">
        <ele>804.882</ele>
        <time>2018-07-24T07:16:07Z</time>
      </trkpt>
      <trkpt lat="41.216929" lon="-6.422317">
        <ele>804.877</ele>
        <time>2018-07-24T07:16:09Z</time>
      </trkpt>
      <trkpt lat="41.216906" lon="-6.422373">
        <ele>804.872</ele>
        <time>2018-07-24T07:16:10Z</time>
      </trkpt>
      <trkpt lat="41.216883" lon="-6.42243">
        <ele>804.867</ele>
        <time>2018-07-24T07:16:11Z</time>
      </trkpt>
      <trkpt lat="41.21686" lon="-6.422488">
        <ele>804.861</ele>
        <time>2018-07-24T07:16:12Z</time>
      </trkpt>
      <trkpt lat="41.216838" lon="-6.422544">
        <ele>804.857</ele>
        <time>2018-07-24T07:16:13Z</time>
      </trkpt>
      <trkpt lat="41.216814" lon="-6.422599">
        <ele>804.856</ele>
        <time>2018-07-24T07:16:14Z</time>
      </trkpt>
      <trkpt lat="41.216792" lon="-6.422655">
        <ele>804.856</ele>
        <time>2018-07-24T07:16:15Z</time>
      </trkpt>
      <trkpt lat="41.216771" lon="-6.422714">
        <ele>804.852</ele>
        <time>2018-07-24T07:16:16Z</time>
      </trkpt>
      <trkpt lat="41.216754" lon="-6.422779">
        <ele>804.85</ele>
        <time>2018-07-24T07:16:17Z</time>
      </trkpt>
      <trkpt lat="41.216735" lon="-6.422841">
        <ele>804.845</ele>
        <time>2018-07-24T07:16:18Z</time>
      </trkpt>
      <trkpt lat="41.216718" lon="-6.422909">
        <ele>804.841</ele>
        <time>2018-07-24T07:16:19Z</time>
      </trkpt>
      <trkpt lat="41.216704" lon="-6.422978">
        <ele>804.833</ele>
        <time>2018-07-24T07:16:20Z</time>
      </trkpt>
      <trkpt lat="41.216701" lon="-6.423054">
        <ele>804.819</ele>
        <time>2018-07-24T07:16:21Z</time>
      </trkpt>
      <trkpt lat="41.216698" lon="-6.423198">
        <ele>804.811</ele>
        <time>2018-07-24T07:16:23Z</time>
      </trkpt>
      <trkpt lat="41.216697" lon="-6.423271">
        <ele>804.803</ele>
        <time>2018-07-24T07:16:24Z</time>
      </trkpt>
      <trkpt lat="41.216692" lon="-6.423341">
        <ele>804.794</ele>
        <time>2018-07-24T07:16:25Z</time>
      </trkpt>
      <trkpt lat="41.216684" lon="-6.423414">
        <ele>804.782</ele>
        <time>2018-07-24T07:16:26Z</time>
      </trkpt>
      <trkpt lat="41.21667" lon="-6.423489">
        <ele>804.771</ele>
        <time>2018-07-24T07:16:27Z</time>
      </trkpt>
      <trkpt lat="41.216653" lon="-6.423563">
        <ele>804.761</ele>
        <time>2018-07-24T07:16:28Z</time>
      </trkpt>
      <trkpt lat="41.216628" lon="-6.423638">
        <ele>804.746</ele>
        <time>2018-07-24T07:16:29Z</time>
      </trkpt>
      <trkpt lat="41.216607" lon="-6.423716">
        <ele>804.735</ele>
        <time>2018-07-24T07:16:30Z</time>
      </trkpt>
      <trkpt lat="41.216585" lon="-6.423789">
        <ele>804.722</ele>
        <time>2018-07-24T07:16:31Z</time>
      </trkpt>
      <trkpt lat="41.216558" lon="-6.423865">
        <ele>804.707</ele>
        <time>2018-07-24T07:16:32Z</time>
      </trkpt>
      <trkpt lat="41.216528" lon="-6.423941">
        <ele>804.691</ele>
        <time>2018-07-24T07:16:33Z</time>
      </trkpt>
      <trkpt lat="41.216499" lon="-6.424015">
        <ele>804.678</ele>
        <time>2018-07-24T07:16:34Z</time>
      </trkpt>
      <trkpt lat="41.21647" lon="-6.424086">
        <ele>804.666</ele>
        <time>2018-07-24T07:16:35Z</time>
      </trkpt>
      <trkpt lat="41.216441" lon="-6.424157">
        <ele>804.651</ele>
        <time>2018-07-24T07:16:36Z</time>
      </trkpt>
      <trkpt lat="41.216408" lon="-6.424234">
        <ele>804.629</ele>
        <time>2018-07-24T07:16:37Z</time>
      </trkpt>
      <trkpt lat="41.216381" lon="-6.424313">
        <ele>804.598</ele>
        <time>2018-07-24T07:16:38Z</time>
      </trkpt>
      <trkpt lat="41.216354" lon="-6.424397">
        <ele>804.557</ele>
        <time>2018-07-24T07:16:39Z</time>
      </trkpt>
      <trkpt lat="41.216327" lon="-6.424477">
        <ele>804.517</ele>
        <time>2018-07-24T07:16:40Z</time>
      </trkpt>
      <trkpt lat="41.216295" lon="-6.424553">
        <ele>804.475</ele>
        <time>2018-07-24T07:16:41Z</time>
      </trkpt>
      <trkpt lat="41.216267" lon="-6.424628">
        <ele>804.429</ele>
        <time>2018-07-24T07:16:42Z</time>
      </trkpt>
      <trkpt lat="41.216241" lon="-6.424702">
        <ele>804.376</ele>
        <time>2018-07-24T07:16:43Z</time>
      </trkpt>
      <trkpt lat="41.216212" lon="-6.424777">
        <ele>804.318</ele>
        <time>2018-07-24T07:16:44Z</time>
      </trkpt>
      <trkpt lat="41.216184" lon="-6.424854">
        <ele>804.243</ele>
        <time>2018-07-24T07:16:45Z</time>
      </trkpt>
      <trkpt lat="41.216156" lon="-6.424933">
        <ele>804.165</ele>
        <time>2018-07-24T07:16:46Z</time>
      </trkpt>
      <trkpt lat="41.216134" lon="-6.425017">
        <ele>804.08</ele>
        <time>2018-07-24T07:16:47Z</time>
      </trkpt>
      <trkpt lat="41.216119" lon="-6.425103">
        <ele>803.994</ele>
        <time>2018-07-24T07:16:48Z</time>
      </trkpt>
      <trkpt lat="41.216115" lon="-6.42519">
        <ele>803.939</ele>
        <time>2018-07-24T07:16:49Z</time>
      </trkpt>
      <trkpt lat="41.216123" lon="-6.425272">
        <ele>803.861</ele>
        <time>2018-07-24T07:16:50Z</time>
      </trkpt>
      <trkpt lat="41.216138" lon="-6.42535">
        <ele>803.755</ele>
        <time>2018-07-24T07:16:51Z</time>
      </trkpt>
      <trkpt lat="41.216157" lon="-6.425425">
        <ele>803.666</ele>
        <time>2018-07-24T07:16:52Z</time>
      </trkpt>
      <trkpt lat="41.216173" lon="-6.4255">
        <ele>803.569</ele>
        <time>2018-07-24T07:16:53Z</time>
      </trkpt>
      <trkpt lat="41.216185" lon="-6.425576">
        <ele>803.459</ele>
        <time>2018-07-24T07:16:54Z</time>
      </trkpt>
      <trkpt lat="41.216194" lon="-6.425652">
        <ele>803.374</ele>
        <time>2018-07-24T07:16:55Z</time>
      </trkpt>
      <trkpt lat="41.216196" lon="-6.42573">
        <ele>803.309</ele>
        <time>2018-07-24T07:16:56Z</time>
      </trkpt>
      <trkpt lat="41.216192" lon="-6.425805">
        <ele>803.219</ele>
        <time>2018-07-24T07:16:57Z</time>
      </trkpt>
      <trkpt lat="41.216182" lon="-6.425876">
        <ele>803.128</ele>
        <time>2018-07-24T07:16:58Z</time>
      </trkpt>
      <trkpt lat="41.216172" lon="-6.425943">
        <ele>803.055</ele>
        <time>2018-07-24T07:16:59Z</time>
      </trkpt>
      <trkpt lat="41.216164" lon="-6.426006">
        <ele>802.894</ele>
        <time>2018-07-24T07:17:00Z</time>
      </trkpt>
      <trkpt lat="41.216156" lon="-6.426072">
        <ele>802.728</ele>
        <time>2018-07-24T07:17:01Z</time>
      </trkpt>
      <trkpt lat="41.216144" lon="-6.426195">
        <ele>802.764</ele>
        <time>2018-07-24T07:17:03Z</time>
      </trkpt>
      <trkpt lat="41.216138" lon="-6.42625">
        <ele>802.694</ele>
        <time>2018-07-24T07:17:04Z</time>
      </trkpt>
      <trkpt lat="41.216132" lon="-6.426309">
        <ele>802.751</ele>
        <time>2018-07-24T07:17:05Z</time>
      </trkpt>
      <trkpt lat="41.216124" lon="-6.426362">
        <ele>802.745</ele>
        <time>2018-07-24T07:17:06Z</time>
      </trkpt>
      <trkpt lat="41.216115" lon="-6.426421">
        <ele>802.68</ele>
        <time>2018-07-24T07:17:07Z</time>
      </trkpt>
      <trkpt lat="41.216107" lon="-6.42648">
        <ele>802.542</ele>
        <time>2018-07-24T07:17:08Z</time>
      </trkpt>
      <trkpt lat="41.216094" lon="-6.426538">
        <ele>802.505</ele>
        <time>2018-07-24T07:17:09Z</time>
      </trkpt>
      <trkpt lat="41.216053" lon="-6.426633">
        <ele>802.455</ele>
        <time>2018-07-24T07:17:11Z</time>
      </trkpt>
      <trkpt lat="41.215972" lon="-6.426721">
        <ele>802.404</ele>
        <time>2018-07-24T07:17:14Z</time>
      </trkpt>
      <trkpt lat="41.215906" lon="-6.426777">
        <ele>802.371</ele>
        <time>2018-07-24T07:17:16Z</time>
      </trkpt>
      <trkpt lat="41.215873" lon="-6.426802">
        <ele>801.963</ele>
        <time>2018-07-24T07:17:17Z</time>
      </trkpt>
      <trkpt lat="41.215839" lon="-6.426828">
        <ele>801.56</ele>
        <time>2018-07-24T07:17:18Z</time>
      </trkpt>
      <trkpt lat="41.215804" lon="-6.426852">
        <ele>801.18</ele>
        <time>2018-07-24T07:17:19Z</time>
      </trkpt>
      <trkpt lat="41.215766" lon="-6.426875">
        <ele>800.787</ele>
        <time>2018-07-24T07:17:20Z</time>
      </trkpt>
      <trkpt lat="41.215729" lon="-6.426898">
        <ele>800.486</ele>
        <time>2018-07-24T07:17:21Z</time>
      </trkpt>
      <trkpt lat="41.21569" lon="-6.426921">
        <ele>800.214</ele>
        <time>2018-07-24T07:17:22Z</time>
      </trkpt>
      <trkpt lat="41.21565" lon="-6.426945">
        <ele>799.977</ele>
        <time>2018-07-24T07:17:23Z</time>
      </trkpt>
      <trkpt lat="41.215611" lon="-6.426967">
        <ele>799.798</ele>
        <time>2018-07-24T07:17:24Z</time>
      </trkpt>
      <trkpt lat="41.215573" lon="-6.426986">
        <ele>799.358</ele>
        <time>2018-07-24T07:17:25Z</time>
      </trkpt>
      <trkpt lat="41.215488" lon="-6.42702">
        <ele>799.153</ele>
        <time>2018-07-24T07:17:27Z</time>
      </trkpt>
      <trkpt lat="41.215443" lon="-6.427026">
        <ele>798.959</ele>
        <time>2018-07-24T07:17:28Z</time>
      </trkpt>
      <trkpt lat="41.215395" lon="-6.427036">
        <ele>798.779</ele>
        <time>2018-07-24T07:17:29Z</time>
      </trkpt>
      <trkpt lat="41.215348" lon="-6.427046">
        <ele>798.603</ele>
        <time>2018-07-24T07:17:30Z</time>
      </trkpt>
      <trkpt lat="41.2153" lon="-6.427056">
        <ele>798.435</ele>
        <time>2018-07-24T07:17:31Z</time>
      </trkpt>
      <trkpt lat="41.215252" lon="-6.427066">
        <ele>798.284</ele>
        <time>2018-07-24T07:17:32Z</time>
      </trkpt>
      <trkpt lat="41.215204" lon="-6.427073">
        <ele>798.152</ele>
        <time>2018-07-24T07:17:33Z</time>
      </trkpt>
      <trkpt lat="41.215154" lon="-6.42708">
        <ele>798.021</ele>
        <time>2018-07-24T07:17:34Z</time>
      </trkpt>
      <trkpt lat="41.215109" lon="-6.427086">
        <ele>797.898</ele>
        <time>2018-07-24T07:17:35Z</time>
      </trkpt>
      <trkpt lat="41.215065" lon="-6.427097">
        <ele>797.889</ele>
        <time>2018-07-24T07:17:36Z</time>
      </trkpt>
      <trkpt lat="41.215027" lon="-6.427106">
        <ele>797.88</ele>
        <time>2018-07-24T07:17:37Z</time>
      </trkpt>
      <trkpt lat="41.214991" lon="-6.427113">
        <ele>797.87</ele>
        <time>2018-07-24T07:17:38Z</time>
      </trkpt>
      <trkpt lat="41.214957" lon="-6.42712">
        <ele>797.86</ele>
        <time>2018-07-24T07:17:39Z</time>
      </trkpt>
      <trkpt lat="41.214925" lon="-6.427127">
        <ele>797.849</ele>
        <time>2018-07-24T07:17:40Z</time>
      </trkpt>
      <trkpt lat="41.214892" lon="-6.427135">
        <ele>797.837</ele>
        <time>2018-07-24T07:17:41Z</time>
      </trkpt>
      <trkpt lat="41.214856" lon="-6.427146">
        <ele>797.811</ele>
        <time>2018-07-24T07:17:42Z</time>
      </trkpt>
      <trkpt lat="41.214791" lon="-6.427186">
        <ele>797.785</ele>
        <time>2018-07-24T07:17:44Z</time>
      </trkpt>
      <trkpt lat="41.214713" lon="-6.427284">
        <ele>797.779</ele>
        <time>2018-07-24T07:17:47Z</time>
      </trkpt>
      <trkpt lat="41.214689" lon="-6.427319">
        <ele>797.772</ele>
        <time>2018-07-24T07:17:48Z</time>
      </trkpt>
      <trkpt lat="41.214666" lon="-6.427357">
        <ele>797.765</ele>
        <time>2018-07-24T07:17:49Z</time>
      </trkpt>
      <trkpt lat="41.214646" lon="-6.427393">
        <ele>797.757</ele>
        <time>2018-07-24T07:17:50Z</time>
      </trkpt>
      <trkpt lat="41.214626" lon="-6.427433">
        <ele>797.75</ele>
        <time>2018-07-24T07:17:51Z</time>
      </trkpt>
      <trkpt lat="41.214606" lon="-6.427473">
        <ele>797.741</ele>
        <time>2018-07-24T07:17:52Z</time>
      </trkpt>
      <trkpt lat="41.214587" lon="-6.427515">
        <ele>797.732</ele>
        <time>2018-07-24T07:17:53Z</time>
      </trkpt>
      <trkpt lat="41.21457" lon="-6.427555">
        <ele>797.722</ele>
        <time>2018-07-24T07:17:54Z</time>
      </trkpt>
      <trkpt lat="41.214551" lon="-6.427593">
        <ele>797.711</ele>
        <time>2018-07-24T07:17:55Z</time>
      </trkpt>
      <trkpt lat="41.214535" lon="-6.427626">
        <ele>797.701</ele>
        <time>2018-07-24T07:17:56Z</time>
      </trkpt>
      <trkpt lat="41.214515" lon="-6.427659">
        <ele>797.689</ele>
        <time>2018-07-24T07:17:57Z</time>
      </trkpt>
      <trkpt lat="41.214498" lon="-6.427689">
        <ele>797.666</ele>
        <time>2018-07-24T07:17:58Z</time>
      </trkpt>
      <trkpt lat="41.21447" lon="-6.427752">
        <ele>797.653</ele>
        <time>2018-07-24T07:18:00Z</time>
      </trkpt>
      <trkpt lat="41.214456" lon="-6.427786">
        <ele>797.64</ele>
        <time>2018-07-24T07:18:01Z</time>
      </trkpt>
      <trkpt lat="41.214442" lon="-6.427819">
        <ele>797.626</ele>
        <time>2018-07-24T07:18:02Z</time>
      </trkpt>
      <trkpt lat="41.214426" lon="-6.427854">
        <ele>797.613</ele>
        <time>2018-07-24T07:18:03Z</time>
      </trkpt>
      <trkpt lat="41.214408" lon="-6.42789">
        <ele>797.6</ele>
        <time>2018-07-24T07:18:04Z</time>
      </trkpt>
      <trkpt lat="41.214392" lon="-6.427922">
        <ele>797.587</ele>
        <time>2018-07-24T07:18:05Z</time>
      </trkpt>
      <trkpt lat="41.214375" lon="-6.427955">
        <ele>797.574</ele>
        <time>2018-07-24T07:18:06Z</time>
      </trkpt>
      <trkpt lat="41.214359" lon="-6.427986">
        <ele>797.562</ele>
        <time>2018-07-24T07:18:07Z</time>
      </trkpt>
      <trkpt lat="41.21434" lon="-6.428017">
        <ele>797.55</ele>
        <time>2018-07-24T07:18:08Z</time>
      </trkpt>
      <trkpt lat="41.214322" lon="-6.428047">
        <ele>797.538</ele>
        <time>2018-07-24T07:18:09Z</time>
      </trkpt>
      <trkpt lat="41.214305" lon="-6.428073">
        <ele>797.527</ele>
        <time>2018-07-24T07:18:10Z</time>
      </trkpt>
      <trkpt lat="41.214288" lon="-6.428099">
        <ele>797.506</ele>
        <time>2018-07-24T07:18:11Z</time>
      </trkpt>
      <trkpt lat="41.214259" lon="-6.428141">
        <ele>797.496</ele>
        <time>2018-07-24T07:18:13Z</time>
      </trkpt>
      <trkpt lat="41.214244" lon="-6.428163">
        <ele>797.486</ele>
        <time>2018-07-24T07:18:14Z</time>
      </trkpt>
      <trkpt lat="41.21423" lon="-6.428189">
        <ele>797.469</ele>
        <time>2018-07-24T07:18:15Z</time>
      </trkpt>
      <trkpt lat="41.214203" lon="-6.428244">
        <ele>797.46</ele>
        <time>2018-07-24T07:18:17Z</time>
      </trkpt>
      <trkpt lat="41.214189" lon="-6.428271">
        <ele>797.452</ele>
        <time>2018-07-24T07:18:18Z</time>
      </trkpt>
      <trkpt lat="41.214173" lon="-6.428294">
        <ele>797.444</ele>
        <time>2018-07-24T07:18:19Z</time>
      </trkpt>
      <trkpt lat="41.214158" lon="-6.428317">
        <ele>797.436</ele>
        <time>2018-07-24T07:18:20Z</time>
      </trkpt>
      <trkpt lat="41.214142" lon="-6.428343">
        <ele>797.428</ele>
        <time>2018-07-24T07:18:21Z</time>
      </trkpt>
      <trkpt lat="41.214126" lon="-6.428372">
        <ele>797.421</ele>
        <time>2018-07-24T07:18:22Z</time>
      </trkpt>
      <trkpt lat="41.214111" lon="-6.4284">
        <ele>797.414</ele>
        <time>2018-07-24T07:18:23Z</time>
      </trkpt>
      <trkpt lat="41.214095" lon="-6.428429">
        <ele>797.407</ele>
        <time>2018-07-24T07:18:24Z</time>
      </trkpt>
      <trkpt lat="41.214078" lon="-6.428461">
        <ele>797.4</ele>
        <time>2018-07-24T07:18:25Z</time>
      </trkpt>
      <trkpt lat="41.214062" lon="-6.42849">
        <ele>797.393</ele>
        <time>2018-07-24T07:18:26Z</time>
      </trkpt>
      <trkpt lat="41.214045" lon="-6.42852">
        <ele>797.382</ele>
        <time>2018-07-24T07:18:27Z</time>
      </trkpt>
      <trkpt lat="41.214017" lon="-6.428584">
        <ele>797.376</ele>
        <time>2018-07-24T07:18:29Z</time>
      </trkpt>
      <trkpt lat="41.214004" lon="-6.428614">
        <ele>797.365</ele>
        <time>2018-07-24T07:18:30Z</time>
      </trkpt>
      <trkpt lat="41.213981" lon="-6.42868">
        <ele>797.36</ele>
        <time>2018-07-24T07:18:32Z</time>
      </trkpt>
      <trkpt lat="41.21397" lon="-6.428716">
        <ele>797.355</ele>
        <time>2018-07-24T07:18:33Z</time>
      </trkpt>
      <trkpt lat="41.213961" lon="-6.428751">
        <ele>797.346</ele>
        <time>2018-07-24T07:18:34Z</time>
      </trkpt>
      <trkpt lat="41.21395" lon="-6.428822">
        <ele>797.343</ele>
        <time>2018-07-24T07:18:36Z</time>
      </trkpt>
      <trkpt lat="41.213947" lon="-6.428856">
        <ele>797.34</ele>
        <time>2018-07-24T07:18:37Z</time>
      </trkpt>
      <trkpt lat="41.213943" lon="-6.428892">
        <ele>797.338</ele>
        <time>2018-07-24T07:18:38Z</time>
      </trkpt>
      <trkpt lat="41.213941" lon="-6.428925">
        <ele>797.337</ele>
        <time>2018-07-24T07:18:39Z</time>
      </trkpt>
      <trkpt lat="41.213938" lon="-6.428963">
        <ele>797.336</ele>
        <time>2018-07-24T07:18:40Z</time>
      </trkpt>
      <trkpt lat="41.213936" lon="-6.428999">
        <ele>797.336</ele>
        <time>2018-07-24T07:18:41Z</time>
      </trkpt>
      <trkpt lat="41.213934" lon="-6.429037">
        <ele>797.335</ele>
        <time>2018-07-24T07:18:42Z</time>
      </trkpt>
      <trkpt lat="41.213931" lon="-6.429078">
        <ele>797.335</ele>
        <time>2018-07-24T07:18:43Z</time>
      </trkpt>
      <trkpt lat="41.213928" lon="-6.429116">
        <ele>797.335</ele>
        <time>2018-07-24T07:18:44Z</time>
      </trkpt>
      <trkpt lat="41.213925" lon="-6.429152">
        <ele>797.335</ele>
        <time>2018-07-24T07:18:45Z</time>
      </trkpt>
      <trkpt lat="41.21392" lon="-6.429186">
        <ele>797.336</ele>
        <time>2018-07-24T07:18:46Z</time>
      </trkpt>
      <trkpt lat="41.213916" lon="-6.429224">
        <ele>797.337</ele>
        <time>2018-07-24T07:18:47Z</time>
      </trkpt>
      <trkpt lat="41.213911" lon="-6.429259">
        <ele>797.338</ele>
        <time>2018-07-24T07:18:48Z</time>
      </trkpt>
      <trkpt lat="41.213908" lon="-6.429296">
        <ele>797.34</ele>
        <time>2018-07-24T07:18:49Z</time>
      </trkpt>
      <trkpt lat="41.213905" lon="-6.429334">
        <ele>797.342</ele>
        <time>2018-07-24T07:18:50Z</time>
      </trkpt>
      <trkpt lat="41.213903" lon="-6.429368">
        <ele>797.344</ele>
        <time>2018-07-24T07:18:51Z</time>
      </trkpt>
      <trkpt lat="41.2139" lon="-6.429407">
        <ele>797.346</ele>
        <time>2018-07-24T07:18:52Z</time>
      </trkpt>
      <trkpt lat="41.213897" lon="-6.429447">
        <ele>797.348</ele>
        <time>2018-07-24T07:18:53Z</time>
      </trkpt>
      <trkpt lat="41.213892" lon="-6.429488">
        <ele>797.351</ele>
        <time>2018-07-24T07:18:54Z</time>
      </trkpt>
      <trkpt lat="41.213888" lon="-6.429528">
        <ele>797.353</ele>
        <time>2018-07-24T07:18:55Z</time>
      </trkpt>
      <trkpt lat="41.213883" lon="-6.429568">
        <ele>797.357</ele>
        <time>2018-07-24T07:18:56Z</time>
      </trkpt>
      <trkpt lat="41.213879" lon="-6.429608">
        <ele>797.36</ele>
        <time>2018-07-24T07:18:57Z</time>
      </trkpt>
      <trkpt lat="41.213873" lon="-6.429648">
        <ele>797.365</ele>
        <time>2018-07-24T07:18:58Z</time>
      </trkpt>
      <trkpt lat="41.213867" lon="-6.429687">
        <ele>797.369</ele>
        <time>2018-07-24T07:18:59Z</time>
      </trkpt>
      <trkpt lat="41.213859" lon="-6.429731">
        <ele>797.379</ele>
        <time>2018-07-24T07:19:00Z</time>
      </trkpt>
      <trkpt lat="41.213838" lon="-6.429814">
        <ele>797.383</ele>
        <time>2018-07-24T07:19:02Z</time>
      </trkpt>
      <trkpt lat="41.213829" lon="-6.42986">
        <ele>797.395</ele>
        <time>2018-07-24T07:19:03Z</time>
      </trkpt>
      <trkpt lat="41.213809" lon="-6.42994">
        <ele>797.402</ele>
        <time>2018-07-24T07:19:05Z</time>
      </trkpt>
      <trkpt lat="41.213798" lon="-6.429978">
        <ele>797.408</ele>
        <time>2018-07-24T07:19:06Z</time>
      </trkpt>
      <trkpt lat="41.213786" lon="-6.430015">
        <ele>797.414</ele>
        <time>2018-07-24T07:19:07Z</time>
      </trkpt>
      <trkpt lat="41.213777" lon="-6.430053">
        <ele>797.436</ele>
        <time>2018-07-24T07:19:08Z</time>
      </trkpt>
      <trkpt lat="41.213744" lon="-6.430147">
        <ele>797.445</ele>
        <time>2018-07-24T07:19:11Z</time>
      </trkpt>
      <trkpt lat="41.213733" lon="-6.430177">
        <ele>797.461</ele>
        <time>2018-07-24T07:19:12Z</time>
      </trkpt>
      <trkpt lat="41.213714" lon="-6.430245">
        <ele>797.47</ele>
        <time>2018-07-24T07:19:14Z</time>
      </trkpt>
      <trkpt lat="41.213705" lon="-6.430279">
        <ele>797.478</ele>
        <time>2018-07-24T07:19:15Z</time>
      </trkpt>
      <trkpt lat="41.213694" lon="-6.430309">
        <ele>797.487</ele>
        <time>2018-07-24T07:19:16Z</time>
      </trkpt>
      <trkpt lat="41.213683" lon="-6.430339">
        <ele>797.515</ele>
        <time>2018-07-24T07:19:17Z</time>
      </trkpt>
      <trkpt lat="41.213656" lon="-6.430431">
        <ele>797.526</ele>
        <time>2018-07-24T07:19:20Z</time>
      </trkpt>
      <trkpt lat="41.213649" lon="-6.430461">
        <ele>797.538</ele>
        <time>2018-07-24T07:19:21Z</time>
      </trkpt>
      <trkpt lat="41.21364" lon="-6.430491">
        <ele>797.55</ele>
        <time>2018-07-24T07:19:22Z</time>
      </trkpt>
      <trkpt lat="41.213629" lon="-6.430523">
        <ele>797.576</ele>
        <time>2018-07-24T07:19:23Z</time>
      </trkpt>
      <trkpt lat="41.213606" lon="-6.430581">
        <ele>797.59</ele>
        <time>2018-07-24T07:19:25Z</time>
      </trkpt>
      <trkpt lat="41.213595" lon="-6.430609">
        <ele>797.604</ele>
        <time>2018-07-24T07:19:26Z</time>
      </trkpt>
      <trkpt lat="41.213586" lon="-6.430637">
        <ele>797.62</ele>
        <time>2018-07-24T07:19:27Z</time>
      </trkpt>
      <trkpt lat="41.213577" lon="-6.430666">
        <ele>797.636</ele>
        <time>2018-07-24T07:19:28Z</time>
      </trkpt>
      <trkpt lat="41.213568" lon="-6.430697">
        <ele>797.653</ele>
        <time>2018-07-24T07:19:29Z</time>
      </trkpt>
      <trkpt lat="41.213558" lon="-6.430726">
        <ele>797.67</ele>
        <time>2018-07-24T07:19:30Z</time>
      </trkpt>
      <trkpt lat="41.213549" lon="-6.430759">
        <ele>797.687</ele>
        <time>2018-07-24T07:19:31Z</time>
      </trkpt>
      <trkpt lat="41.21354" lon="-6.430789">
        <ele>797.706</ele>
        <time>2018-07-24T07:19:32Z</time>
      </trkpt>
      <trkpt lat="41.213531" lon="-6.430817">
        <ele>797.742</ele>
        <time>2018-07-24T07:19:33Z</time>
      </trkpt>
      <trkpt lat="41.213515" lon="-6.430881">
        <ele>797.76</ele>
        <time>2018-07-24T07:19:35Z</time>
      </trkpt>
      <trkpt lat="41.213508" lon="-6.430915">
        <ele>797.778</ele>
        <time>2018-07-24T07:19:36Z</time>
      </trkpt>
      <trkpt lat="41.213499" lon="-6.430945">
        <ele>797.796</ele>
        <time>2018-07-24T07:19:37Z</time>
      </trkpt>
      <trkpt lat="41.213492" lon="-6.430978">
        <ele>797.815</ele>
        <time>2018-07-24T07:19:38Z</time>
      </trkpt>
      <trkpt lat="41.213486" lon="-6.431015">
        <ele>797.833</ele>
        <time>2018-07-24T07:19:39Z</time>
      </trkpt>
      <trkpt lat="41.21348" lon="-6.43105">
        <ele>797.852</ele>
        <time>2018-07-24T07:19:40Z</time>
      </trkpt>
      <trkpt lat="41.213475" lon="-6.431084">
        <ele>797.871</ele>
        <time>2018-07-24T07:19:41Z</time>
      </trkpt>
      <trkpt lat="41.21347" lon="-6.431114">
        <ele>797.891</ele>
        <time>2018-07-24T07:19:42Z</time>
      </trkpt>
      <trkpt lat="41.213464" lon="-6.431146">
        <ele>797.911</ele>
        <time>2018-07-24T07:19:43Z</time>
      </trkpt>
      <trkpt lat="41.213458" lon="-6.431178">
        <ele>797.951</ele>
        <time>2018-07-24T07:19:44Z</time>
      </trkpt>
      <trkpt lat="41.21345" lon="-6.431252">
        <ele>797.972</ele>
        <time>2018-07-24T07:19:46Z</time>
      </trkpt>
      <trkpt lat="41.213446" lon="-6.431288">
        <ele>797.992</ele>
        <time>2018-07-24T07:19:47Z</time>
      </trkpt>
      <trkpt lat="41.213443" lon="-6.431323">
        <ele>798.012</ele>
        <time>2018-07-24T07:19:48Z</time>
      </trkpt>
      <trkpt lat="41.213441" lon="-6.431358">
        <ele>798.033</ele>
        <time>2018-07-24T07:19:49Z</time>
      </trkpt>
      <trkpt lat="41.213439" lon="-6.431389">
        <ele>798.053</ele>
        <time>2018-07-24T07:19:50Z</time>
      </trkpt>
      <trkpt lat="41.213436" lon="-6.431421">
        <ele>798.073</ele>
        <time>2018-07-24T07:19:51Z</time>
      </trkpt>
      <trkpt lat="41.213434" lon="-6.431455">
        <ele>798.112</ele>
        <time>2018-07-24T07:19:52Z</time>
      </trkpt>
      <trkpt lat="41.21343" lon="-6.431513">
        <ele>798.152</ele>
        <time>2018-07-24T07:19:54Z</time>
      </trkpt>
      <trkpt lat="41.213427" lon="-6.431573">
        <ele>798.192</ele>
        <time>2018-07-24T07:19:56Z</time>
      </trkpt>
      <trkpt lat="41.213428" lon="-6.431634">
        <ele>798.211</ele>
        <time>2018-07-24T07:19:58Z</time>
      </trkpt>
      <trkpt lat="41.213429" lon="-6.431666">
        <ele>798.23</ele>
        <time>2018-07-24T07:19:59Z</time>
      </trkpt>
      <trkpt lat="41.213431" lon="-6.431698">
        <ele>798.249</ele>
        <time>2018-07-24T07:20:00Z</time>
      </trkpt>
      <trkpt lat="41.213431" lon="-6.431728">
        <ele>798.268</ele>
        <time>2018-07-24T07:20:01Z</time>
      </trkpt>
      <trkpt lat="41.21343" lon="-6.43176">
        <ele>798.287</ele>
        <time>2018-07-24T07:20:02Z</time>
      </trkpt>
      <trkpt lat="41.21343" lon="-6.431794">
        <ele>798.306</ele>
        <time>2018-07-24T07:20:03Z</time>
      </trkpt>
      <trkpt lat="41.213431" lon="-6.431831">
        <ele>798.342</ele>
        <time>2018-07-24T07:20:04Z</time>
      </trkpt>
      <trkpt lat="41.213433" lon="-6.431908">
        <ele>798.36</ele>
        <time>2018-07-24T07:20:06Z</time>
      </trkpt>
      <trkpt lat="41.213434" lon="-6.431945">
        <ele>798.378</ele>
        <time>2018-07-24T07:20:07Z</time>
      </trkpt>
      <trkpt lat="41.213434" lon="-6.431983">
        <ele>798.396</ele>
        <time>2018-07-24T07:20:08Z</time>
      </trkpt>
      <trkpt lat="41.213434" lon="-6.432021">
        <ele>798.413</ele>
        <time>2018-07-24T07:20:09Z</time>
      </trkpt>
      <trkpt lat="41.213435" lon="-6.432061">
        <ele>798.431</ele>
        <time>2018-07-24T07:20:10Z</time>
      </trkpt>
      <trkpt lat="41.213434" lon="-6.432107">
        <ele>798.448</ele>
        <time>2018-07-24T07:20:11Z</time>
      </trkpt>
      <trkpt lat="41.213435" lon="-6.432153">
        <ele>798.464</ele>
        <time>2018-07-24T07:20:12Z</time>
      </trkpt>
      <trkpt lat="41.213434" lon="-6.432197">
        <ele>798.495</ele>
        <time>2018-07-24T07:20:13Z</time>
      </trkpt>
      <trkpt lat="41.213433" lon="-6.432281">
        <ele>798.51</ele>
        <time>2018-07-24T07:20:15Z</time>
      </trkpt>
      <trkpt lat="41.213431" lon="-6.432323">
        <ele>798.525</ele>
        <time>2018-07-24T07:20:16Z</time>
      </trkpt>
      <trkpt lat="41.21343" lon="-6.432368">
        <ele>798.539</ele>
        <time>2018-07-24T07:20:17Z</time>
      </trkpt>
      <trkpt lat="41.213428" lon="-6.432411">
        <ele>798.552</ele>
        <time>2018-07-24T07:20:18Z</time>
      </trkpt>
      <trkpt lat="41.213428" lon="-6.432457">
        <ele>798.567</ele>
        <time>2018-07-24T07:20:19Z</time>
      </trkpt>
      <trkpt lat="41.213428" lon="-6.432499">
        <ele>798.581</ele>
        <time>2018-07-24T07:20:20Z</time>
      </trkpt>
      <trkpt lat="41.213428" lon="-6.432544">
        <ele>798.594</ele>
        <time>2018-07-24T07:20:21Z</time>
      </trkpt>
      <trkpt lat="41.213429" lon="-6.432589">
        <ele>798.608</ele>
        <time>2018-07-24T07:20:22Z</time>
      </trkpt>
      <trkpt lat="41.213431" lon="-6.432635">
        <ele>798.621</ele>
        <time>2018-07-24T07:20:23Z</time>
      </trkpt>
      <trkpt lat="41.213429" lon="-6.432674">
        <ele>798.635</ele>
        <time>2018-07-24T07:20:24Z</time>
      </trkpt>
      <trkpt lat="41.213427" lon="-6.432712">
        <ele>798.648</ele>
        <time>2018-07-24T07:20:25Z</time>
      </trkpt>
      <trkpt lat="41.213425" lon="-6.43275">
        <ele>798.662</ele>
        <time>2018-07-24T07:20:26Z</time>
      </trkpt>
      <trkpt lat="41.213423" lon="-6.432786">
        <ele>798.675</ele>
        <time>2018-07-24T07:20:27Z</time>
      </trkpt>
      <trkpt lat="41.213421" lon="-6.432827">
        <ele>798.688</ele>
        <time>2018-07-24T07:20:28Z</time>
      </trkpt>
      <trkpt lat="41.21342" lon="-6.432869">
        <ele>798.702</ele>
        <time>2018-07-24T07:20:29Z</time>
      </trkpt>
      <trkpt lat="41.21342" lon="-6.432912">
        <ele>798.715</ele>
        <time>2018-07-24T07:20:30Z</time>
      </trkpt>
      <trkpt lat="41.21342" lon="-6.432957">
        <ele>798.729</ele>
        <time>2018-07-24T07:20:31Z</time>
      </trkpt>
      <trkpt lat="41.21342" lon="-6.433">
        <ele>798.756</ele>
        <time>2018-07-24T07:20:32Z</time>
      </trkpt>
      <trkpt lat="41.213421" lon="-6.433082">
        <ele>798.769</ele>
        <time>2018-07-24T07:20:34Z</time>
      </trkpt>
      <trkpt lat="41.213422" lon="-6.433125">
        <ele>798.782</ele>
        <time>2018-07-24T07:20:35Z</time>
      </trkpt>
      <trkpt lat="41.213422" lon="-6.433164">
        <ele>798.795</ele>
        <time>2018-07-24T07:20:36Z</time>
      </trkpt>
      <trkpt lat="41.213423" lon="-6.433205">
        <ele>798.821</ele>
        <time>2018-07-24T07:20:37Z</time>
      </trkpt>
      <trkpt lat="41.213424" lon="-6.433293">
        <ele>798.846</ele>
        <time>2018-07-24T07:20:39Z</time>
      </trkpt>
      <trkpt lat="41.213417" lon="-6.433369">
        <ele>798.859</ele>
        <time>2018-07-24T07:20:41Z</time>
      </trkpt>
      <trkpt lat="41.213415" lon="-6.433406">
        <ele>798.871</ele>
        <time>2018-07-24T07:20:42Z</time>
      </trkpt>
      <trkpt lat="41.213415" lon="-6.433441">
        <ele>798.884</ele>
        <time>2018-07-24T07:20:43Z</time>
      </trkpt>
      <trkpt lat="41.213414" lon="-6.433475">
        <ele>798.897</ele>
        <time>2018-07-24T07:20:44Z</time>
      </trkpt>
      <trkpt lat="41.213414" lon="-6.433506">
        <ele>798.924</ele>
        <time>2018-07-24T07:20:45Z</time>
      </trkpt>
      <trkpt lat="41.213414" lon="-6.433585">
        <ele>798.95</ele>
        <time>2018-07-24T07:20:47Z</time>
      </trkpt>
      <trkpt lat="41.213405" lon="-6.433658">
        <ele>798.963</ele>
        <time>2018-07-24T07:20:49Z</time>
      </trkpt>
      <trkpt lat="41.213401" lon="-6.433688">
        <ele>798.975</ele>
        <time>2018-07-24T07:20:50Z</time>
      </trkpt>
      <trkpt lat="41.213399" lon="-6.43372">
        <ele>799.0</ele>
        <time>2018-07-24T07:20:51Z</time>
      </trkpt>
      <trkpt lat="41.213395" lon="-6.433789">
        <ele>799.013</ele>
        <time>2018-07-24T07:20:53Z</time>
      </trkpt>
      <trkpt lat="41.213391" lon="-6.433823">
        <ele>799.026</ele>
        <time>2018-07-24T07:20:54Z</time>
      </trkpt>
      <trkpt lat="41.213389" lon="-6.433854">
        <ele>799.04</ele>
        <time>2018-07-24T07:20:55Z</time>
      </trkpt>
      <trkpt lat="41.213387" lon="-6.43389">
        <ele>799.053</ele>
        <time>2018-07-24T07:20:56Z</time>
      </trkpt>
      <trkpt lat="41.213384" lon="-6.433929">
        <ele>799.067</ele>
        <time>2018-07-24T07:20:57Z</time>
      </trkpt>
      <trkpt lat="41.213381" lon="-6.433965">
        <ele>799.081</ele>
        <time>2018-07-24T07:20:58Z</time>
      </trkpt>
      <trkpt lat="41.213379" lon="-6.434004">
        <ele>799.095</ele>
        <time>2018-07-24T07:20:59Z</time>
      </trkpt>
      <trkpt lat="41.213373" lon="-6.434045">
        <ele>799.109</ele>
        <time>2018-07-24T07:21:00Z</time>
      </trkpt>
      <trkpt lat="41.213369" lon="-6.434086">
        <ele>799.122</ele>
        <time>2018-07-24T07:21:01Z</time>
      </trkpt>
      <trkpt lat="41.213364" lon="-6.434127">
        <ele>799.135</ele>
        <time>2018-07-24T07:21:02Z</time>
      </trkpt>
      <trkpt lat="41.213359" lon="-6.434167">
        <ele>799.148</ele>
        <time>2018-07-24T07:21:03Z</time>
      </trkpt>
      <trkpt lat="41.213353" lon="-6.43421">
        <ele>799.161</ele>
        <time>2018-07-24T07:21:04Z</time>
      </trkpt>
      <trkpt lat="41.213347" lon="-6.43425">
        <ele>799.175</ele>
        <time>2018-07-24T07:21:05Z</time>
      </trkpt>
      <trkpt lat="41.213342" lon="-6.434284">
        <ele>799.203</ele>
        <time>2018-07-24T07:21:06Z</time>
      </trkpt>
      <trkpt lat="41.213337" lon="-6.434359">
        <ele>799.216</ele>
        <time>2018-07-24T07:21:08Z</time>
      </trkpt>
      <trkpt lat="41.213334" lon="-6.434394">
        <ele>799.231</ele>
        <time>2018-07-24T07:21:09Z</time>
      </trkpt>
      <trkpt lat="41.213328" lon="-6.434435">
        <ele>799.246</ele>
        <time>2018-07-24T07:21:10Z</time>
      </trkpt>
      <trkpt lat="41.213322" lon="-6.43447">
        <ele>799.261</ele>
        <time>2018-07-24T07:21:11Z</time>
      </trkpt>
      <trkpt lat="41.213317" lon="-6.434509">
        <ele>799.277</ele>
        <time>2018-07-24T07:21:12Z</time>
      </trkpt>
      <trkpt lat="41.213312" lon="-6.434549">
        <ele>799.292</ele>
        <time>2018-07-24T07:21:13Z</time>
      </trkpt>
      <trkpt lat="41.213307" lon="-6.434585">
        <ele>799.308</ele>
        <time>2018-07-24T07:21:14Z</time>
      </trkpt>
      <trkpt lat="41.213304" lon="-6.434622">
        <ele>799.324</ele>
        <time>2018-07-24T07:21:15Z</time>
      </trkpt>
      <trkpt lat="41.2133" lon="-6.43466">
        <ele>799.34</ele>
        <time>2018-07-24T07:21:16Z</time>
      </trkpt>
      <trkpt lat="41.213297" lon="-6.434695">
        <ele>799.355</ele>
        <time>2018-07-24T07:21:17Z</time>
      </trkpt>
      <trkpt lat="41.213293" lon="-6.43473">
        <ele>799.371</ele>
        <time>2018-07-24T07:21:18Z</time>
      </trkpt>
      <trkpt lat="41.213289" lon="-6.434761">
        <ele>799.387</ele>
        <time>2018-07-24T07:21:19Z</time>
      </trkpt>
      <trkpt lat="41.213282" lon="-6.434794">
        <ele>799.42</ele>
        <time>2018-07-24T07:21:20Z</time>
      </trkpt>
      <trkpt lat="41.213273" lon="-6.434865">
        <ele>799.436</ele>
        <time>2018-07-24T07:21:22Z</time>
      </trkpt>
      <trkpt lat="41.213268" lon="-6.434899">
        <ele>799.453</ele>
        <time>2018-07-24T07:21:23Z</time>
      </trkpt>
      <trkpt lat="41.213264" lon="-6.434932">
        <ele>799.471</ele>
        <time>2018-07-24T07:21:24Z</time>
      </trkpt>
      <trkpt lat="41.213258" lon="-6.434967">
        <ele>799.488</ele>
        <time>2018-07-24T07:21:25Z</time>
      </trkpt>
      <trkpt lat="41.213252" lon="-6.435004">
        <ele>799.506</ele>
        <time>2018-07-24T07:21:26Z</time>
      </trkpt>
      <trkpt lat="41.213245" lon="-6.435041">
        <ele>799.524</ele>
        <time>2018-07-24T07:21:27Z</time>
      </trkpt>
      <trkpt lat="41.21324" lon="-6.435082">
        <ele>799.558</ele>
        <time>2018-07-24T07:21:28Z</time>
      </trkpt>
      <trkpt lat="41.213237" lon="-6.435156">
        <ele>799.576</ele>
        <time>2018-07-24T07:21:30Z</time>
      </trkpt>
      <trkpt lat="41.213234" lon="-6.43519">
        <ele>799.594</ele>
        <time>2018-07-24T07:21:31Z</time>
      </trkpt>
      <trkpt lat="41.213231" lon="-6.435227">
        <ele>799.612</ele>
        <time>2018-07-24T07:21:32Z</time>
      </trkpt>
      <trkpt lat="41.213229" lon="-6.435263">
        <ele>799.631</ele>
        <time>2018-07-24T07:21:33Z</time>
      </trkpt>
      <trkpt lat="41.213226" lon="-6.435296">
        <ele>799.649</ele>
        <time>2018-07-24T07:21:34Z</time>
      </trkpt>
      <trkpt lat="41.213222" lon="-6.435334">
        <ele>799.667</ele>
        <time>2018-07-24T07:21:35Z</time>
      </trkpt>
      <trkpt lat="41.213218" lon="-6.43537">
        <ele>799.685</ele>
        <time>2018-07-24T07:21:36Z</time>
      </trkpt>
      <trkpt lat="41.213214" lon="-6.435404">
        <ele>799.703</ele>
        <time>2018-07-24T07:21:37Z</time>
      </trkpt>
      <trkpt lat="41.21321" lon="-6.435438">
        <ele>799.759</ele>
        <time>2018-07-24T07:21:38Z</time>
      </trkpt>
      <trkpt lat="41.2132" lon="-6.435526">
        <ele>799.777</ele>
        <time>2018-07-24T07:21:41Z</time>
      </trkpt>
      <trkpt lat="41.213197" lon="-6.435561">
        <ele>799.796</ele>
        <time>2018-07-24T07:21:42Z</time>
      </trkpt>
      <trkpt lat="41.213195" lon="-6.435593">
        <ele>799.814</ele>
        <time>2018-07-24T07:21:43Z</time>
      </trkpt>
      <trkpt lat="41.213194" lon="-6.435623">
        <ele>799.852</ele>
        <time>2018-07-24T07:21:44Z</time>
      </trkpt>
      <trkpt lat="41.21319" lon="-6.435683">
        <ele>799.909</ele>
        <time>2018-07-24T07:21:46Z</time>
      </trkpt>
      <trkpt lat="41.213182" lon="-6.435778">
        <ele>799.928</ele>
        <time>2018-07-24T07:21:49Z</time>
      </trkpt>
      <trkpt lat="41.213177" lon="-6.435809">
        <ele>799.966</ele>
        <time>2018-07-24T07:21:50Z</time>
      </trkpt>
      <trkpt lat="41.213175" lon="-6.435879">
        <ele>800.004</ele>
        <time>2018-07-24T07:21:52Z</time>
      </trkpt>
      <trkpt lat="41.213174" lon="-6.435935">
        <ele>800.023</ele>
        <time>2018-07-24T07:21:54Z</time>
      </trkpt>
      <trkpt lat="41.213172" lon="-6.435967">
        <ele>800.082</ele>
        <time>2018-07-24T07:21:55Z</time>
      </trkpt>
      <trkpt lat="41.213172" lon="-6.436058">
        <ele>800.123</ele>
        <time>2018-07-24T07:21:58Z</time>
      </trkpt>
      <trkpt lat="41.213175" lon="-6.436121">
        <ele>800.144</ele>
        <time>2018-07-24T07:22:00Z</time>
      </trkpt>
      <trkpt lat="41.213176" lon="-6.436155">
        <ele>800.164</ele>
        <time>2018-07-24T07:22:01Z</time>
      </trkpt>
      <trkpt lat="41.213179" lon="-6.436187">
        <ele>800.185</ele>
        <time>2018-07-24T07:22:02Z</time>
      </trkpt>
      <trkpt lat="41.213182" lon="-6.436219">
        <ele>800.228</ele>
        <time>2018-07-24T07:22:03Z</time>
      </trkpt>
      <trkpt lat="41.213191" lon="-6.436279">
        <ele>800.25</ele>
        <time>2018-07-24T07:22:05Z</time>
      </trkpt>
      <trkpt lat="41.213195" lon="-6.436311">
        <ele>800.293</ele>
        <time>2018-07-24T07:22:06Z</time>
      </trkpt>
      <trkpt lat="41.213204" lon="-6.436372">
        <ele>800.315</ele>
        <time>2018-07-24T07:22:08Z</time>
      </trkpt>
      <trkpt lat="41.213207" lon="-6.436404">
        <ele>800.36</ele>
        <time>2018-07-24T07:22:09Z</time>
      </trkpt>
      <trkpt lat="41.213214" lon="-6.436463">
        <ele>800.383</ele>
        <time>2018-07-24T07:22:11Z</time>
      </trkpt>
      <trkpt lat="41.213217" lon="-6.436495">
        <ele>800.406</ele>
        <time>2018-07-24T07:22:12Z</time>
      </trkpt>
      <trkpt lat="41.213221" lon="-6.436525">
        <ele>800.429</ele>
        <time>2018-07-24T07:22:13Z</time>
      </trkpt>
      <trkpt lat="41.213225" lon="-6.436558">
        <ele>800.453</ele>
        <time>2018-07-24T07:22:14Z</time>
      </trkpt>
      <trkpt lat="41.213229" lon="-6.43659">
        <ele>800.476</ele>
        <time>2018-07-24T07:22:15Z</time>
      </trkpt>
      <trkpt lat="41.213233" lon="-6.436622">
        <ele>800.5</ele>
        <time>2018-07-24T07:22:16Z</time>
      </trkpt>
      <trkpt lat="41.213237" lon="-6.436655">
        <ele>800.524</ele>
        <time>2018-07-24T07:22:17Z</time>
      </trkpt>
      <trkpt lat="41.213239" lon="-6.436688">
        <ele>800.549</ele>
        <time>2018-07-24T07:22:18Z</time>
      </trkpt>
      <trkpt lat="41.213242" lon="-6.436718">
        <ele>800.573</ele>
        <time>2018-07-24T07:22:19Z</time>
      </trkpt>
      <trkpt lat="41.213244" lon="-6.43675">
        <ele>800.598</ele>
        <time>2018-07-24T07:22:20Z</time>
      </trkpt>
      <trkpt lat="41.213248" lon="-6.436782">
        <ele>800.646</ele>
        <time>2018-07-24T07:22:21Z</time>
      </trkpt>
      <trkpt lat="41.213264" lon="-6.43685">
        <ele>800.67</ele>
        <time>2018-07-24T07:22:23Z</time>
      </trkpt>
      <trkpt lat="41.213271" lon="-6.436879">
        <ele>800.72</ele>
        <time>2018-07-24T07:22:24Z</time>
      </trkpt>
      <trkpt lat="41.213279" lon="-6.436943">
        <ele>800.744</ele>
        <time>2018-07-24T07:22:26Z</time>
      </trkpt>
      <trkpt lat="41.213284" lon="-6.436974">
        <ele>800.769</ele>
        <time>2018-07-24T07:22:27Z</time>
      </trkpt>
      <trkpt lat="41.21329" lon="-6.437007">
        <ele>800.793</ele>
        <time>2018-07-24T07:22:28Z</time>
      </trkpt>
      <trkpt lat="41.213295" lon="-6.437039">
        <ele>800.817</ele>
        <time>2018-07-24T07:22:29Z</time>
      </trkpt>
      <trkpt lat="41.213299" lon="-6.43707">
        <ele>800.842</ele>
        <time>2018-07-24T07:22:30Z</time>
      </trkpt>
      <trkpt lat="41.213304" lon="-6.4371">
        <ele>800.867</ele>
        <time>2018-07-24T07:22:31Z</time>
      </trkpt>
      <trkpt lat="41.21331" lon="-6.43713">
        <ele>800.892</ele>
        <time>2018-07-24T07:22:32Z</time>
      </trkpt>
      <trkpt lat="41.213316" lon="-6.43716">
        <ele>800.917</ele>
        <time>2018-07-24T07:22:33Z</time>
      </trkpt>
      <trkpt lat="41.213321" lon="-6.437189">
        <ele>800.971</ele>
        <time>2018-07-24T07:22:34Z</time>
      </trkpt>
      <trkpt lat="41.213331" lon="-6.437236">
        <ele>801.054</ele>
        <time>2018-07-24T07:22:36Z</time>
      </trkpt>
      <trkpt lat="41.213324" lon="-6.437317">
        <ele>801.139</ele>
        <time>2018-07-24T07:22:39Z</time>
      </trkpt>
      <trkpt lat="41.213325" lon="-6.437408">
        <ele>801.167</ele>
        <time>2018-07-24T07:22:42Z</time>
      </trkpt>
      <trkpt lat="41.213325" lon="-6.437441">
        <ele>801.223</ele>
        <time>2018-07-24T07:22:43Z</time>
      </trkpt>
      <trkpt lat="41.21332" lon="-6.437502">
        <ele>801.251</ele>
        <time>2018-07-24T07:22:45Z</time>
      </trkpt>
      <trkpt lat="41.213318" lon="-6.437533">
        <ele>801.307</ele>
        <time>2018-07-24T07:22:46Z</time>
      </trkpt>
      <trkpt lat="41.213314" lon="-6.437589">
        <ele>801.336</ele>
        <time>2018-07-24T07:22:48Z</time>
      </trkpt>
      <trkpt lat="41.213312" lon="-6.437619">
        <ele>801.364</ele>
        <time>2018-07-24T07:22:49Z</time>
      </trkpt>
      <trkpt lat="41.213308" lon="-6.437654">
        <ele>801.392</ele>
        <time>2018-07-24T07:22:50Z</time>
      </trkpt>
      <trkpt lat="41.213307" lon="-6.437685">
        <ele>801.42</ele>
        <time>2018-07-24T07:22:51Z</time>
      </trkpt>
      <trkpt lat="41.213305" lon="-6.437719">
        <ele>801.477</ele>
        <time>2018-07-24T07:22:52Z</time>
      </trkpt>
      <trkpt lat="41.2133" lon="-6.437783">
        <ele>801.506</ele>
        <time>2018-07-24T07:22:54Z</time>
      </trkpt>
      <trkpt lat="41.213298" lon="-6.437817">
        <ele>801.563</ele>
        <time>2018-07-24T07:22:55Z</time>
      </trkpt>
      <trkpt lat="41.213294" lon="-6.437873">
        <ele>801.621</ele>
        <time>2018-07-24T07:22:57Z</time>
      </trkpt>
      <trkpt lat="41.213287" lon="-6.437929">
        <ele>801.708</ele>
        <time>2018-07-24T07:23:00Z</time>
      </trkpt>
      <trkpt lat="41.213285" lon="-6.438026">
        <ele>801.794</ele>
        <time>2018-07-24T07:23:02Z</time>
      </trkpt>
      <trkpt lat="41.213284" lon="-6.438113">
        <ele>801.823</ele>
        <time>2018-07-24T07:23:05Z</time>
      </trkpt>
      <trkpt lat="41.213283" lon="-6.438144">
        <ele>801.88</ele>
        <time>2018-07-24T07:23:06Z</time>
      </trkpt>
      <trkpt lat="41.213278" lon="-6.4382">
        <ele>801.909</ele>
        <time>2018-07-24T07:23:08Z</time>
      </trkpt>
      <trkpt lat="41.213274" lon="-6.438234">
        <ele>801.937</ele>
        <time>2018-07-24T07:23:09Z</time>
      </trkpt>
      <trkpt lat="41.213269" lon="-6.438269">
        <ele>801.994</ele>
        <time>2018-07-24T07:23:10Z</time>
      </trkpt>
      <trkpt lat="41.213267" lon="-6.438334">
        <ele>802.022</ele>
        <time>2018-07-24T07:23:12Z</time>
      </trkpt>
      <trkpt lat="41.213264" lon="-6.438367">
        <ele>802.051</ele>
        <time>2018-07-24T07:23:13Z</time>
      </trkpt>
      <trkpt lat="41.213262" lon="-6.438399">
        <ele>802.079</ele>
        <time>2018-07-24T07:23:14Z</time>
      </trkpt>
      <trkpt lat="41.213258" lon="-6.43843">
        <ele>802.107</ele>
        <time>2018-07-24T07:23:15Z</time>
      </trkpt>
      <trkpt lat="41.213255" lon="-6.438461">
        <ele>802.163</ele>
        <time>2018-07-24T07:23:16Z</time>
      </trkpt>
      <trkpt lat="41.213245" lon="-6.438519">
        <ele>802.192</ele>
        <time>2018-07-24T07:23:18Z</time>
      </trkpt>
      <trkpt lat="41.213238" lon="-6.438551">
        <ele>802.22</ele>
        <time>2018-07-24T07:23:19Z</time>
      </trkpt>
      <trkpt lat="41.213233" lon="-6.438584">
        <ele>802.277</ele>
        <time>2018-07-24T07:23:20Z</time>
      </trkpt>
      <trkpt lat="41.213222" lon="-6.438647">
        <ele>802.333</ele>
        <time>2018-07-24T07:23:22Z</time>
      </trkpt>
      <trkpt lat="41.213213" lon="-6.438704">
        <ele>802.39</ele>
        <time>2018-07-24T07:23:24Z</time>
      </trkpt>
      <trkpt lat="41.213209" lon="-6.43877">
        <ele>802.478</ele>
        <time>2018-07-24T07:23:26Z</time>
      </trkpt>
      <trkpt lat="41.213177" lon="-6.438841">
        <ele>802.577</ele>
        <time>2018-07-24T07:23:29Z</time>
      </trkpt>
      <trkpt lat="41.21312" lon="-6.438884">
        <ele>802.651</ele>
        <time>2018-07-24T07:23:32Z</time>
      </trkpt>
      <trkpt lat="41.213073" lon="-6.438914">
        <ele>802.729</ele>
        <time>2018-07-24T07:23:34Z</time>
      </trkpt>
      <trkpt lat="41.21303" lon="-6.438947">
        <ele>802.806</ele>
        <time>2018-07-24T07:23:36Z</time>
      </trkpt>
      <trkpt lat="41.212988" lon="-6.438985">
        <ele>802.881</ele>
        <time>2018-07-24T07:23:38Z</time>
      </trkpt>
      <trkpt lat="41.212937" lon="-6.439006">
        <ele>802.955</ele>
        <time>2018-07-24T07:23:40Z</time>
      </trkpt>
      <trkpt lat="41.212887" lon="-6.439025">
        <ele>803.028</ele>
        <time>2018-07-24T07:23:42Z</time>
      </trkpt>
      <trkpt lat="41.212841" lon="-6.439049">
        <ele>803.064</ele>
        <time>2018-07-24T07:23:44Z</time>
      </trkpt>
      <trkpt lat="41.212815" lon="-6.439065">
        <ele>803.099</ele>
        <time>2018-07-24T07:23:45Z</time>
      </trkpt>
      <trkpt lat="41.212791" lon="-6.439081">
        <ele>803.134</ele>
        <time>2018-07-24T07:23:46Z</time>
      </trkpt>
      <trkpt lat="41.212768" lon="-6.439094">
        <ele>803.168</ele>
        <time>2018-07-24T07:23:47Z</time>
      </trkpt>
      <trkpt lat="41.212743" lon="-6.439108">
        <ele>803.202</ele>
        <time>2018-07-24T07:23:48Z</time>
      </trkpt>
      <trkpt lat="41.212718" lon="-6.439122">
        <ele>803.236</ele>
        <time>2018-07-24T07:23:49Z</time>
      </trkpt>
      <trkpt lat="41.212695" lon="-6.439133">
        <ele>803.27</ele>
        <time>2018-07-24T07:23:50Z</time>
      </trkpt>
      <trkpt lat="41.212672" lon="-6.439147">
        <ele>803.303</ele>
        <time>2018-07-24T07:23:51Z</time>
      </trkpt>
      <trkpt lat="41.212647" lon="-6.43916">
        <ele>803.368</ele>
        <time>2018-07-24T07:23:52Z</time>
      </trkpt>
      <trkpt lat="41.212606" lon="-6.439194">
        <ele>803.4</ele>
        <time>2018-07-24T07:23:54Z</time>
      </trkpt>
      <trkpt lat="41.212586" lon="-6.439212">
        <ele>803.432</ele>
        <time>2018-07-24T07:23:55Z</time>
      </trkpt>
      <trkpt lat="41.212562" lon="-6.43923">
        <ele>803.463</ele>
        <time>2018-07-24T07:23:56Z</time>
      </trkpt>
      <trkpt lat="41.212541" lon="-6.439244">
        <ele>803.495</ele>
        <time>2018-07-24T07:23:57Z</time>
      </trkpt>
      <trkpt lat="41.212522" lon="-6.439261">
        <ele>803.556</ele>
        <time>2018-07-24T07:23:58Z</time>
      </trkpt>
      <trkpt lat="41.212485" lon="-6.439293">
        <ele>803.616</ele>
        <time>2018-07-24T07:24:00Z</time>
      </trkpt>
      <trkpt lat="41.212449" lon="-6.439337">
        <ele>803.676</ele>
        <time>2018-07-24T07:24:02Z</time>
      </trkpt>
      <trkpt lat="41.212416" lon="-6.439379">
        <ele>803.705</ele>
        <time>2018-07-24T07:24:04Z</time>
      </trkpt>
      <trkpt lat="41.212399" lon="-6.439401">
        <ele>803.763</ele>
        <time>2018-07-24T07:24:05Z</time>
      </trkpt>
      <trkpt lat="41.21236" lon="-6.439446">
        <ele>803.792</ele>
        <time>2018-07-24T07:24:07Z</time>
      </trkpt>
      <trkpt lat="41.212341" lon="-6.439468">
        <ele>803.82</ele>
        <time>2018-07-24T07:24:08Z</time>
      </trkpt>
      <trkpt lat="41.212322" lon="-6.439492">
        <ele>803.848</ele>
        <time>2018-07-24T07:24:09Z</time>
      </trkpt>
      <trkpt lat="41.212303" lon="-6.439516">
        <ele>803.875</ele>
        <time>2018-07-24T07:24:10Z</time>
      </trkpt>
      <trkpt lat="41.212284" lon="-6.439543">
        <ele>803.903</ele>
        <time>2018-07-24T07:24:11Z</time>
      </trkpt>
      <trkpt lat="41.212265" lon="-6.439566">
        <ele>803.93</ele>
        <time>2018-07-24T07:24:12Z</time>
      </trkpt>
      <trkpt lat="41.212247" lon="-6.439589">
        <ele>803.956</ele>
        <time>2018-07-24T07:24:13Z</time>
      </trkpt>
      <trkpt lat="41.212231" lon="-6.439611">
        <ele>804.009</ele>
        <time>2018-07-24T07:24:14Z</time>
      </trkpt>
      <trkpt lat="41.212199" lon="-6.439662">
        <ele>804.035</ele>
        <time>2018-07-24T07:24:16Z</time>
      </trkpt>
      <trkpt lat="41.212183" lon="-6.439687">
        <ele>804.061</ele>
        <time>2018-07-24T07:24:17Z</time>
      </trkpt>
      <trkpt lat="41.212169" lon="-6.439711">
        <ele>804.086</ele>
        <time>2018-07-24T07:24:18Z</time>
      </trkpt>
      <trkpt lat="41.212154" lon="-6.439734">
        <ele>804.137</ele>
        <time>2018-07-24T07:24:19Z</time>
      </trkpt>
      <trkpt lat="41.212123" lon="-6.439779">
        <ele>804.162</ele>
        <time>2018-07-24T07:24:21Z</time>
      </trkpt>
      <trkpt lat="41.212108" lon="-6.439802">
        <ele>804.212</ele>
        <time>2018-07-24T07:24:22Z</time>
      </trkpt>
      <trkpt lat="41.212076" lon="-6.43985">
        <ele>804.236</ele>
        <time>2018-07-24T07:24:24Z</time>
      </trkpt>
      <trkpt lat="41.212059" lon="-6.439872">
        <ele>804.261</ele>
        <time>2018-07-24T07:24:25Z</time>
      </trkpt>
      <trkpt lat="41.212043" lon="-6.439896">
        <ele>804.309</ele>
        <time>2018-07-24T07:24:26Z</time>
      </trkpt>
      <trkpt lat="41.212013" lon="-6.439938">
        <ele>804.333</ele>
        <time>2018-07-24T07:24:28Z</time>
      </trkpt>
      <trkpt lat="41.211997" lon="-6.439964">
        <ele>804.357</ele>
        <time>2018-07-24T07:24:29Z</time>
      </trkpt>
      <trkpt lat="41.211977" lon="-6.439993">
        <ele>804.381</ele>
        <time>2018-07-24T07:24:30Z</time>
      </trkpt>
      <trkpt lat="41.211962" lon="-6.440017">
        <ele>804.428</ele>
        <time>2018-07-24T07:24:31Z</time>
      </trkpt>
      <trkpt lat="41.211927" lon="-6.440066">
        <ele>804.451</ele>
        <time>2018-07-24T07:24:33Z</time>
      </trkpt>
      <trkpt lat="41.211911" lon="-6.44009">
        <ele>804.474</ele>
        <time>2018-07-24T07:24:34Z</time>
      </trkpt>
      <trkpt lat="41.211894" lon="-6.440115">
        <ele>804.498</ele>
        <time>2018-07-24T07:24:35Z</time>
      </trkpt>
      <trkpt lat="41.211876" lon="-6.440142">
        <ele>804.521</ele>
        <time>2018-07-24T07:24:36Z</time>
      </trkpt>
      <trkpt lat="41.211859" lon="-6.440168">
        <ele>804.544</ele>
        <time>2018-07-24T07:24:37Z</time>
      </trkpt>
      <trkpt lat="41.21184" lon="-6.440194">
        <ele>804.567</ele>
        <time>2018-07-24T07:24:38Z</time>
      </trkpt>
      <trkpt lat="41.211822" lon="-6.440219">
        <ele>804.591</ele>
        <time>2018-07-24T07:24:39Z</time>
      </trkpt>
      <trkpt lat="41.211804" lon="-6.440245">
        <ele>804.614</ele>
        <time>2018-07-24T07:24:40Z</time>
      </trkpt>
      <trkpt lat="41.211786" lon="-6.440271">
        <ele>804.636</ele>
        <time>2018-07-24T07:24:41Z</time>
      </trkpt>
      <trkpt lat="41.211768" lon="-6.440299">
        <ele>804.659</ele>
        <time>2018-07-24T07:24:42Z</time>
      </trkpt>
      <trkpt lat="41.211748" lon="-6.440327">
        <ele>804.682</ele>
        <time>2018-07-24T07:24:43Z</time>
      </trkpt>
      <trkpt lat="41.211729" lon="-6.440354">
        <ele>804.727</ele>
        <time>2018-07-24T07:24:44Z</time>
      </trkpt>
      <trkpt lat="41.211696" lon="-6.440407">
        <ele>804.75</ele>
        <time>2018-07-24T07:24:46Z</time>
      </trkpt>
      <trkpt lat="41.211678" lon="-6.440436">
        <ele>804.795</ele>
        <time>2018-07-24T07:24:47Z</time>
      </trkpt>
      <trkpt lat="41.211654" lon="-6.440499">
        <ele>804.84</ele>
        <time>2018-07-24T07:24:49Z</time>
      </trkpt>
      <trkpt lat="41.211634" lon="-6.440566">
        <ele>804.862</ele>
        <time>2018-07-24T07:24:51Z</time>
      </trkpt>
      <trkpt lat="41.211625" lon="-6.440599">
        <ele>804.885</ele>
        <time>2018-07-24T07:24:52Z</time>
      </trkpt>
      <trkpt lat="41.211615" lon="-6.440628">
        <ele>804.908</ele>
        <time>2018-07-24T07:24:53Z</time>
      </trkpt>
      <trkpt lat="41.211607" lon="-6.44066">
        <ele>804.955</ele>
        <time>2018-07-24T07:24:54Z</time>
      </trkpt>
      <trkpt lat="41.21159" lon="-6.440717">
        <ele>805.004</ele>
        <time>2018-07-24T07:24:56Z</time>
      </trkpt>
      <trkpt lat="41.211578" lon="-6.440785">
        <ele>805.029</ele>
        <time>2018-07-24T07:24:58Z</time>
      </trkpt>
      <trkpt lat="41.21157" lon="-6.44082">
        <ele>805.054</ele>
        <time>2018-07-24T07:24:59Z</time>
      </trkpt>
      <trkpt lat="41.211563" lon="-6.440851">
        <ele>805.106</ele>
        <time>2018-07-24T07:25:00Z</time>
      </trkpt>
      <trkpt lat="41.211546" lon="-6.440909">
        <ele>805.133</ele>
        <time>2018-07-24T07:25:02Z</time>
      </trkpt>
      <trkpt lat="41.211537" lon="-6.440938">
        <ele>805.159</ele>
        <time>2018-07-24T07:25:03Z</time>
      </trkpt>
      <trkpt lat="41.21153" lon="-6.440969">
        <ele>805.213</ele>
        <time>2018-07-24T07:25:04Z</time>
      </trkpt>
      <trkpt lat="41.211513" lon="-6.44102">
        <ele>805.24</ele>
        <time>2018-07-24T07:25:06Z</time>
      </trkpt>
      <trkpt lat="41.211503" lon="-6.441049">
        <ele>805.295</ele>
        <time>2018-07-24T07:25:07Z</time>
      </trkpt>
      <trkpt lat="41.211481" lon="-6.441105">
        <ele>805.323</ele>
        <time>2018-07-24T07:25:09Z</time>
      </trkpt>
      <trkpt lat="41.211471" lon="-6.441133">
        <ele>805.406</ele>
        <time>2018-07-24T07:25:10Z</time>
      </trkpt>
      <trkpt lat="41.21143" lon="-6.441201">
        <ele>805.461</ele>
        <time>2018-07-24T07:25:13Z</time>
      </trkpt>
      <trkpt lat="41.211398" lon="-6.441245">
        <ele>805.545</ele>
        <time>2018-07-24T07:25:15Z</time>
      </trkpt>
      <trkpt lat="41.211366" lon="-6.441308">
        <ele>805.592</ele>
        <time>2018-07-24T07:25:18Z</time>
      </trkpt>
      <trkpt lat="41.211352" lon="-6.441324">
        <ele>806.852</ele>
        <time>2018-07-24T07:25:25Z</time>
      </trkpt>
      <trkpt lat="41.211297" lon="-6.441363">
        <ele>806.936</ele>
        <time>2018-07-24T07:27:23Z</time>
      </trkpt>
      <trkpt lat="41.211277" lon="-6.44138">
        <ele>807.018</ele>
        <time>2018-07-24T07:27:24Z</time>
      </trkpt>
      <trkpt lat="41.211252" lon="-6.441398">
        <ele>807.099</ele>
        <time>2018-07-24T07:27:25Z</time>
      </trkpt>
      <trkpt lat="41.211225" lon="-6.441421">
        <ele>807.178</ele>
        <time>2018-07-24T07:27:26Z</time>
      </trkpt>
      <trkpt lat="41.211198" lon="-6.441445">
        <ele>807.257</ele>
        <time>2018-07-24T07:27:27Z</time>
      </trkpt>
      <trkpt lat="41.211169" lon="-6.441468">
        <ele>807.334</ele>
        <time>2018-07-24T07:27:28Z</time>
      </trkpt>
      <trkpt lat="41.211138" lon="-6.44149">
        <ele>807.41</ele>
        <time>2018-07-24T07:27:29Z</time>
      </trkpt>
      <trkpt lat="41.211108" lon="-6.441512">
        <ele>807.485</ele>
        <time>2018-07-24T07:27:30Z</time>
      </trkpt>
      <trkpt lat="41.211078" lon="-6.441536">
        <ele>807.558</ele>
        <time>2018-07-24T07:27:31Z</time>
      </trkpt>
      <trkpt lat="41.211049" lon="-6.44156">
        <ele>807.631</ele>
        <time>2018-07-24T07:27:32Z</time>
      </trkpt>
      <trkpt lat="41.21102" lon="-6.441582">
        <ele>807.702</ele>
        <time>2018-07-24T07:27:33Z</time>
      </trkpt>
      <trkpt lat="41.210989" lon="-6.441604">
        <ele>807.775</ele>
        <time>2018-07-24T07:27:34Z</time>
      </trkpt>
      <trkpt lat="41.210956" lon="-6.441627">
        <ele>807.85</ele>
        <time>2018-07-24T07:27:35Z</time>
      </trkpt>
      <trkpt lat="41.210926" lon="-6.441649">
        <ele>808.126</ele>
        <time>2018-07-24T07:27:36Z</time>
      </trkpt>
      <trkpt lat="41.21091" lon="-6.441663">
        <ele>812.149</ele>
        <time>2018-07-24T07:27:43Z</time>
      </trkpt>
      <trkpt lat="41.210856" lon="-6.441687">
        <ele>813.691</ele>
        <time>2018-07-24T07:29:10Z</time>
      </trkpt>
      <trkpt lat="41.210825" lon="-6.44174">
        <ele>814.189</ele>
        <time>2018-07-24T07:29:22Z</time>
      </trkpt>
      <trkpt lat="41.21077" lon="-6.441793">
        <ele>814.508</ele>
        <time>2018-07-24T07:29:25Z</time>
      </trkpt>
      <trkpt lat="41.210721" lon="-6.441832">
        <ele>814.966</ele>
        <time>2018-07-24T07:29:27Z</time>
      </trkpt>
      <trkpt lat="41.210642" lon="-6.441912">
        <ele>815.114</ele>
        <time>2018-07-24T07:29:30Z</time>
      </trkpt>
      <trkpt lat="41.210616" lon="-6.441943">
        <ele>815.259</ele>
        <time>2018-07-24T07:29:31Z</time>
      </trkpt>
      <trkpt lat="41.210589" lon="-6.441977">
        <ele>815.546</ele>
        <time>2018-07-24T07:29:32Z</time>
      </trkpt>
      <trkpt lat="41.210533" lon="-6.442055">
        <ele>815.687</ele>
        <time>2018-07-24T07:29:34Z</time>
      </trkpt>
      <trkpt lat="41.210511" lon="-6.442083">
        <ele>815.962</ele>
        <time>2018-07-24T07:29:35Z</time>
      </trkpt>
      <trkpt lat="41.210469" lon="-6.442143">
        <ele>816.096</ele>
        <time>2018-07-24T07:29:37Z</time>
      </trkpt>
      <trkpt lat="41.210449" lon="-6.44217">
        <ele>816.229</ele>
        <time>2018-07-24T07:29:38Z</time>
      </trkpt>
      <trkpt lat="41.210424" lon="-6.442199">
        <ele>816.359</ele>
        <time>2018-07-24T07:29:39Z</time>
      </trkpt>
      <trkpt lat="41.210399" lon="-6.442231">
        <ele>816.486</ele>
        <time>2018-07-24T07:29:40Z</time>
      </trkpt>
      <trkpt lat="41.210375" lon="-6.442264">
        <ele>816.612</ele>
        <time>2018-07-24T07:29:41Z</time>
      </trkpt>
      <trkpt lat="41.210353" lon="-6.442302">
        <ele>816.736</ele>
        <time>2018-07-24T07:29:42Z</time>
      </trkpt>
      <trkpt lat="41.21033" lon="-6.44234">
        <ele>816.857</ele>
        <time>2018-07-24T07:29:43Z</time>
      </trkpt>
      <trkpt lat="41.210308" lon="-6.442379">
        <ele>816.977</ele>
        <time>2018-07-24T07:29:44Z</time>
      </trkpt>
      <trkpt lat="41.210284" lon="-6.442416">
        <ele>817.095</ele>
        <time>2018-07-24T07:29:45Z</time>
      </trkpt>
      <trkpt lat="41.21026" lon="-6.442454">
        <ele>817.211</ele>
        <time>2018-07-24T07:29:46Z</time>
      </trkpt>
      <trkpt lat="41.210235" lon="-6.442491">
        <ele>817.325</ele>
        <time>2018-07-24T07:29:47Z</time>
      </trkpt>
      <trkpt lat="41.210208" lon="-6.442525">
        <ele>817.438</ele>
        <time>2018-07-24T07:29:48Z</time>
      </trkpt>
      <trkpt lat="41.210185" lon="-6.442557">
        <ele>817.657</ele>
        <time>2018-07-24T07:29:49Z</time>
      </trkpt>
      <trkpt lat="41.210139" lon="-6.442623">
        <ele>817.764</ele>
        <time>2018-07-24T07:29:51Z</time>
      </trkpt>
      <trkpt lat="41.210115" lon="-6.442657">
        <ele>817.869</ele>
        <time>2018-07-24T07:29:52Z</time>
      </trkpt>
      <trkpt lat="41.210092" lon="-6.442691">
        <ele>817.973</ele>
        <time>2018-07-24T07:29:53Z</time>
      </trkpt>
      <trkpt lat="41.21007" lon="-6.442725">
        <ele>818.075</ele>
        <time>2018-07-24T07:29:54Z</time>
      </trkpt>
      <trkpt lat="41.210047" lon="-6.44276">
        <ele>818.176</ele>
        <time>2018-07-24T07:29:55Z</time>
      </trkpt>
      <trkpt lat="41.210024" lon="-6.442795">
        <ele>818.275</ele>
        <time>2018-07-24T07:29:56Z</time>
      </trkpt>
      <trkpt lat="41.209999" lon="-6.442833">
        <ele>818.372</ele>
        <time>2018-07-24T07:29:57Z</time>
      </trkpt>
      <trkpt lat="41.209978" lon="-6.442869">
        <ele>818.467</ele>
        <time>2018-07-24T07:29:58Z</time>
      </trkpt>
      <trkpt lat="41.209954" lon="-6.442905">
        <ele>818.561</ele>
        <time>2018-07-24T07:29:59Z</time>
      </trkpt>
      <trkpt lat="41.20993" lon="-6.44294">
        <ele>818.654</ele>
        <time>2018-07-24T07:30:00Z</time>
      </trkpt>
      <trkpt lat="41.209905" lon="-6.442977">
        <ele>818.745</ele>
        <time>2018-07-24T07:30:01Z</time>
      </trkpt>
      <trkpt lat="41.209883" lon="-6.443012">
        <ele>818.834</ele>
        <time>2018-07-24T07:30:02Z</time>
      </trkpt>
      <trkpt lat="41.209861" lon="-6.44305">
        <ele>818.921</ele>
        <time>2018-07-24T07:30:03Z</time>
      </trkpt>
      <trkpt lat="41.20984" lon="-6.443087">
        <ele>819.008</ele>
        <time>2018-07-24T07:30:04Z</time>
      </trkpt>
      <trkpt lat="41.209816" lon="-6.443122">
        <ele>819.855</ele>
        <time>2018-07-24T07:30:05Z</time>
      </trkpt>
      <trkpt lat="41.20979" lon="-6.443158">
        <ele>820.536</ele>
        <time>2018-07-24T07:30:06Z</time>
      </trkpt>
      <trkpt lat="41.209764" lon="-6.443196">
        <ele>821.084</ele>
        <time>2018-07-24T07:30:07Z</time>
      </trkpt>
      <trkpt lat="41.209738" lon="-6.443237">
        <ele>821.526</ele>
        <time>2018-07-24T07:30:08Z</time>
      </trkpt>
      <trkpt lat="41.209716" lon="-6.443276">
        <ele>821.882</ele>
        <time>2018-07-24T07:30:09Z</time>
      </trkpt>
      <trkpt lat="41.209691" lon="-6.443317">
        <ele>822.171</ele>
        <time>2018-07-24T07:30:10Z</time>
      </trkpt>
      <trkpt lat="41.209665" lon="-6.443353">
        <ele>822.404</ele>
        <time>2018-07-24T07:30:11Z</time>
      </trkpt>
      <trkpt lat="41.209638" lon="-6.443392">
        <ele>822.594</ele>
        <time>2018-07-24T07:30:12Z</time>
      </trkpt>
      <trkpt lat="41.209614" lon="-6.443429">
        <ele>822.75</ele>
        <time>2018-07-24T07:30:13Z</time>
      </trkpt>
      <trkpt lat="41.209588" lon="-6.443467">
        <ele>822.879</ele>
        <time>2018-07-24T07:30:14Z</time>
      </trkpt>
      <trkpt lat="41.209561" lon="-6.443508">
        <ele>822.985</ele>
        <time>2018-07-24T07:30:15Z</time>
      </trkpt>
      <trkpt lat="41.209534" lon="-6.44355">
        <ele>823.074</ele>
        <time>2018-07-24T07:30:16Z</time>
      </trkpt>
      <trkpt lat="41.209507" lon="-6.443592">
        <ele>823.149</ele>
        <time>2018-07-24T07:30:17Z</time>
      </trkpt>
      <trkpt lat="41.209481" lon="-6.443635">
        <ele>823.212</ele>
        <time>2018-07-24T07:30:18Z</time>
      </trkpt>
      <trkpt lat="41.209457" lon="-6.443676">
        <ele>823.266</ele>
        <time>2018-07-24T07:30:19Z</time>
      </trkpt>
      <trkpt lat="41.209433" lon="-6.44372">
        <ele>823.352</ele>
        <time>2018-07-24T07:30:20Z</time>
      </trkpt>
      <trkpt lat="41.209394" lon="-6.443814">
        <ele>823.387</ele>
        <time>2018-07-24T07:30:22Z</time>
      </trkpt>
      <trkpt lat="41.209374" lon="-6.443862">
        <ele>823.416</ele>
        <time>2018-07-24T07:30:23Z</time>
      </trkpt>
      <trkpt lat="41.209354" lon="-6.443912">
        <ele>823.444</ele>
        <time>2018-07-24T07:30:24Z</time>
      </trkpt>
      <trkpt lat="41.209337" lon="-6.44396">
        <ele>823.47</ele>
        <time>2018-07-24T07:30:25Z</time>
      </trkpt>
      <trkpt lat="41.209321" lon="-6.444009">
        <ele>823.493</ele>
        <time>2018-07-24T07:30:26Z</time>
      </trkpt>
      <trkpt lat="41.209305" lon="-6.444057">
        <ele>823.516</ele>
        <time>2018-07-24T07:30:27Z</time>
      </trkpt>
      <trkpt lat="41.20929" lon="-6.444106">
        <ele>823.54</ele>
        <time>2018-07-24T07:30:28Z</time>
      </trkpt>
      <trkpt lat="41.209275" lon="-6.444155">
        <ele>823.562</ele>
        <time>2018-07-24T07:30:29Z</time>
      </trkpt>
      <trkpt lat="41.20926" lon="-6.444202">
        <ele>823.583</ele>
        <time>2018-07-24T07:30:30Z</time>
      </trkpt>
      <trkpt lat="41.209247" lon="-6.444248">
        <ele>823.602</ele>
        <time>2018-07-24T07:30:31Z</time>
      </trkpt>
      <trkpt lat="41.209231" lon="-6.444297">
        <ele>823.641</ele>
        <time>2018-07-24T07:30:32Z</time>
      </trkpt>
      <trkpt lat="41.209205" lon="-6.444391">
        <ele>823.66</ele>
        <time>2018-07-24T07:30:34Z</time>
      </trkpt>
      <trkpt lat="41.20919" lon="-6.444444">
        <ele>823.68</ele>
        <time>2018-07-24T07:30:35Z</time>
      </trkpt>
      <trkpt lat="41.209177" lon="-6.444495">
        <ele>823.698</ele>
        <time>2018-07-24T07:30:36Z</time>
      </trkpt>
      <trkpt lat="41.209161" lon="-6.444548">
        <ele>823.714</ele>
        <time>2018-07-24T07:30:37Z</time>
      </trkpt>
      <trkpt lat="41.209146" lon="-6.444603">
        <ele>823.73</ele>
        <time>2018-07-24T07:30:38Z</time>
      </trkpt>
      <trkpt lat="41.209133" lon="-6.444656">
        <ele>823.747</ele>
        <time>2018-07-24T07:30:39Z</time>
      </trkpt>
      <trkpt lat="41.209118" lon="-6.444713">
        <ele>823.761</ele>
        <time>2018-07-24T07:30:40Z</time>
      </trkpt>
      <trkpt lat="41.2091" lon="-6.444771">
        <ele>823.776</ele>
        <time>2018-07-24T07:30:41Z</time>
      </trkpt>
      <trkpt lat="41.209082" lon="-6.444829">
        <ele>823.791</ele>
        <time>2018-07-24T07:30:42Z</time>
      </trkpt>
      <trkpt lat="41.209066" lon="-6.444885">
        <ele>823.807</ele>
        <time>2018-07-24T07:30:43Z</time>
      </trkpt>
      <trkpt lat="41.20905" lon="-6.444941">
        <ele>823.824</ele>
        <time>2018-07-24T07:30:44Z</time>
      </trkpt>
      <trkpt lat="41.209034" lon="-6.444996">
        <ele>823.839</ele>
        <time>2018-07-24T07:30:45Z</time>
      </trkpt>
      <trkpt lat="41.209017" lon="-6.445051">
        <ele>823.854</ele>
        <time>2018-07-24T07:30:46Z</time>
      </trkpt>
      <trkpt lat="41.209" lon="-6.445106">
        <ele>823.869</ele>
        <time>2018-07-24T07:30:47Z</time>
      </trkpt>
      <trkpt lat="41.208986" lon="-6.445161">
        <ele>823.883</ele>
        <time>2018-07-24T07:30:48Z</time>
      </trkpt>
      <trkpt lat="41.208973" lon="-6.445217">
        <ele>823.898</ele>
        <time>2018-07-24T07:30:49Z</time>
      </trkpt>
      <trkpt lat="41.208959" lon="-6.445273">
        <ele>823.912</ele>
        <time>2018-07-24T07:30:50Z</time>
      </trkpt>
      <trkpt lat="41.208945" lon="-6.445327">
        <ele>823.927</ele>
        <time>2018-07-24T07:30:51Z</time>
      </trkpt>
      <trkpt lat="41.208931" lon="-6.445379">
        <ele>823.942</ele>
        <time>2018-07-24T07:30:52Z</time>
      </trkpt>
      <trkpt lat="41.208916" lon="-6.445432">
        <ele>823.956</ele>
        <time>2018-07-24T07:30:53Z</time>
      </trkpt>
      <trkpt lat="41.208899" lon="-6.445485">
        <ele>823.968</ele>
        <time>2018-07-24T07:30:54Z</time>
      </trkpt>
      <trkpt lat="41.20888" lon="-6.44554">
        <ele>823.978</ele>
        <time>2018-07-24T07:30:55Z</time>
      </trkpt>
      <trkpt lat="41.208862" lon="-6.445595">
        <ele>823.99</ele>
        <time>2018-07-24T07:30:56Z</time>
      </trkpt>
      <trkpt lat="41.208847" lon="-6.445644">
        <ele>824.0</ele>
        <time>2018-07-24T07:30:57Z</time>
      </trkpt>
      <trkpt lat="41.208829" lon="-6.445698">
        <ele>824.022</ele>
        <time>2018-07-24T07:30:58Z</time>
      </trkpt>
      <trkpt lat="41.208798" lon="-6.445801">
        <ele>824.034</ele>
        <time>2018-07-24T07:31:00Z</time>
      </trkpt>
      <trkpt lat="41.208782" lon="-6.445852">
        <ele>824.047</ele>
        <time>2018-07-24T07:31:01Z</time>
      </trkpt>
      <trkpt lat="41.208767" lon="-6.445902">
        <ele>824.076</ele>
        <time>2018-07-24T07:31:02Z</time>
      </trkpt>
      <trkpt lat="41.208737" lon="-6.445999">
        <ele>824.078</ele>
        <time>2018-07-24T07:31:04Z</time>
      </trkpt>
      <trkpt lat="41.208722" lon="-6.446044">
        <ele>824.096</ele>
        <time>2018-07-24T07:31:05Z</time>
      </trkpt>
      <trkpt lat="41.208705" lon="-6.44609">
        <ele>824.098</ele>
        <time>2018-07-24T07:31:06Z</time>
      </trkpt>
      <trkpt lat="41.208689" lon="-6.446136">
        <ele>824.1</ele>
        <time>2018-07-24T07:31:07Z</time>
      </trkpt>
      <trkpt lat="41.208673" lon="-6.446179">
        <ele>824.102</ele>
        <time>2018-07-24T07:31:08Z</time>
      </trkpt>
      <trkpt lat="41.208657" lon="-6.446223">
        <ele>824.105</ele>
        <time>2018-07-24T07:31:09Z</time>
      </trkpt>
      <trkpt lat="41.208641" lon="-6.446267">
        <ele>824.108</ele>
        <time>2018-07-24T07:31:10Z</time>
      </trkpt>
      <trkpt lat="41.208626" lon="-6.446309">
        <ele>824.111</ele>
        <time>2018-07-24T07:31:11Z</time>
      </trkpt>
      <trkpt lat="41.208611" lon="-6.446354">
        <ele>824.148</ele>
        <time>2018-07-24T07:31:12Z</time>
      </trkpt>
      <trkpt lat="41.208589" lon="-6.446448">
        <ele>824.152</ele>
        <time>2018-07-24T07:31:14Z</time>
      </trkpt>
      <trkpt lat="41.20858" lon="-6.446494">
        <ele>824.156</ele>
        <time>2018-07-24T07:31:15Z</time>
      </trkpt>
      <trkpt lat="41.20857" lon="-6.446538">
        <ele>824.202</ele>
        <time>2018-07-24T07:31:16Z</time>
      </trkpt>
      <trkpt lat="41.208561" lon="-6.446632">
        <ele>824.245</ele>
        <time>2018-07-24T07:31:18Z</time>
      </trkpt>
      <trkpt lat="41.208559" lon="-6.446684">
        <ele>824.284</ele>
        <time>2018-07-24T07:31:19Z</time>
      </trkpt>
      <trkpt lat="41.208556" lon="-6.446738">
        <ele>824.32</ele>
        <time>2018-07-24T07:31:20Z</time>
      </trkpt>
      <trkpt lat="41.208554" lon="-6.446789">
        <ele>824.353</ele>
        <time>2018-07-24T07:31:21Z</time>
      </trkpt>
      <trkpt lat="41.208552" lon="-6.446841">
        <ele>824.409</ele>
        <time>2018-07-24T07:31:22Z</time>
      </trkpt>
      <trkpt lat="41.208552" lon="-6.446949">
        <ele>824.437</ele>
        <time>2018-07-24T07:31:24Z</time>
      </trkpt>
      <trkpt lat="41.208552" lon="-6.447003">
        <ele>824.46</ele>
        <time>2018-07-24T07:31:25Z</time>
      </trkpt>
      <trkpt lat="41.208554" lon="-6.44706">
        <ele>824.48</ele>
        <time>2018-07-24T07:31:26Z</time>
      </trkpt>
      <trkpt lat="41.208559" lon="-6.44712">
        <ele>824.517</ele>
        <time>2018-07-24T07:31:27Z</time>
      </trkpt>
      <trkpt lat="41.208564" lon="-6.447226">
        <ele>824.518</ele>
        <time>2018-07-24T07:31:29Z</time>
      </trkpt>
      <trkpt lat="41.208568" lon="-6.44728">
        <ele>824.539</ele>
        <time>2018-07-24T07:31:30Z</time>
      </trkpt>
      <trkpt lat="41.208571" lon="-6.447332">
        <ele>824.558</ele>
        <time>2018-07-24T07:31:31Z</time>
      </trkpt>
      <trkpt lat="41.208574" lon="-6.447388">
        <ele>824.56</ele>
        <time>2018-07-24T07:31:32Z</time>
      </trkpt>
      <trkpt lat="41.208578" lon="-6.447439">
        <ele>824.562</ele>
        <time>2018-07-24T07:31:33Z</time>
      </trkpt>
      <trkpt lat="41.20858" lon="-6.447491">
        <ele>824.585</ele>
        <time>2018-07-24T07:31:34Z</time>
      </trkpt>
      <trkpt lat="41.208584" lon="-6.447545">
        <ele>824.609</ele>
        <time>2018-07-24T07:31:35Z</time>
      </trkpt>
      <trkpt lat="41.208585" lon="-6.447602">
        <ele>824.611</ele>
        <time>2018-07-24T07:31:36Z</time>
      </trkpt>
      <trkpt lat="41.208589" lon="-6.447652">
        <ele>824.614</ele>
        <time>2018-07-24T07:31:37Z</time>
      </trkpt>
      <trkpt lat="41.208593" lon="-6.447702">
        <ele>824.636</ele>
        <time>2018-07-24T07:31:38Z</time>
      </trkpt>
      <trkpt lat="41.208596" lon="-6.447759">
        <ele>824.656</ele>
        <time>2018-07-24T07:31:39Z</time>
      </trkpt>
      <trkpt lat="41.208598" lon="-6.447815">
        <ele>824.674</ele>
        <time>2018-07-24T07:31:40Z</time>
      </trkpt>
      <trkpt lat="41.2086" lon="-6.447869">
        <ele>824.685</ele>
        <time>2018-07-24T07:31:41Z</time>
      </trkpt>
      <trkpt lat="41.208602" lon="-6.44793">
        <ele>824.698</ele>
        <time>2018-07-24T07:31:42Z</time>
      </trkpt>
      <trkpt lat="41.208604" lon="-6.447981">
        <ele>824.699</ele>
        <time>2018-07-24T07:31:43Z</time>
      </trkpt>
      <trkpt lat="41.208606" lon="-6.448031">
        <ele>824.7</ele>
        <time>2018-07-24T07:31:44Z</time>
      </trkpt>
      <trkpt lat="41.208608" lon="-6.448081">
        <ele>824.702</ele>
        <time>2018-07-24T07:31:45Z</time>
      </trkpt>
      <trkpt lat="41.208612" lon="-6.448128">
        <ele>824.704</ele>
        <time>2018-07-24T07:31:46Z</time>
      </trkpt>
      <trkpt lat="41.208613" lon="-6.448174">
        <ele>824.706</ele>
        <time>2018-07-24T07:31:47Z</time>
      </trkpt>
      <trkpt lat="41.208612" lon="-6.448222">
        <ele>824.708</ele>
        <time>2018-07-24T07:31:48Z</time>
      </trkpt>
      <trkpt lat="41.208612" lon="-6.44827">
        <ele>824.73</ele>
        <time>2018-07-24T07:31:49Z</time>
      </trkpt>
      <trkpt lat="41.208611" lon="-6.448321">
        <ele>824.751</ele>
        <time>2018-07-24T07:31:50Z</time>
      </trkpt>
      <trkpt lat="41.208613" lon="-6.448372">
        <ele>824.753</ele>
        <time>2018-07-24T07:31:51Z</time>
      </trkpt>
      <trkpt lat="41.208616" lon="-6.448425">
        <ele>824.755</ele>
        <time>2018-07-24T07:31:52Z</time>
      </trkpt>
      <trkpt lat="41.208618" lon="-6.448474">
        <ele>824.776</ele>
        <time>2018-07-24T07:31:53Z</time>
      </trkpt>
      <trkpt lat="41.208619" lon="-6.448522">
        <ele>824.795</ele>
        <time>2018-07-24T07:31:54Z</time>
      </trkpt>
      <trkpt lat="41.20862" lon="-6.448576">
        <ele>824.797</ele>
        <time>2018-07-24T07:31:55Z</time>
      </trkpt>
      <trkpt lat="41.208621" lon="-6.448631">
        <ele>824.798</ele>
        <time>2018-07-24T07:31:56Z</time>
      </trkpt>
      <trkpt lat="41.208623" lon="-6.44868">
        <ele>824.817</ele>
        <time>2018-07-24T07:31:57Z</time>
      </trkpt>
      <trkpt lat="41.208624" lon="-6.448731">
        <ele>824.834</ele>
        <time>2018-07-24T07:31:58Z</time>
      </trkpt>
      <trkpt lat="41.208625" lon="-6.448786">
        <ele>824.848</ele>
        <time>2018-07-24T07:31:59Z</time>
      </trkpt>
      <trkpt lat="41.208622" lon="-6.448843">
        <ele>824.849</ele>
        <time>2018-07-24T07:32:00Z</time>
      </trkpt>
      <trkpt lat="41.208623" lon="-6.448894">
        <ele>824.851</ele>
        <time>2018-07-24T07:32:01Z</time>
      </trkpt>
      <trkpt lat="41.208622" lon="-6.448944">
        <ele>824.866</ele>
        <time>2018-07-24T07:32:02Z</time>
      </trkpt>
      <trkpt lat="41.208623" lon="-6.448997">
        <ele>824.881</ele>
        <time>2018-07-24T07:32:03Z</time>
      </trkpt>
      <trkpt lat="41.208626" lon="-6.449051">
        <ele>824.882</ele>
        <time>2018-07-24T07:32:04Z</time>
      </trkpt>
      <trkpt lat="41.208626" lon="-6.449105">
        <ele>824.883</ele>
        <time>2018-07-24T07:32:05Z</time>
      </trkpt>
      <trkpt lat="41.208627" lon="-6.449154">
        <ele>824.913</ele>
        <time>2018-07-24T07:32:06Z</time>
      </trkpt>
      <trkpt lat="41.208627" lon="-6.449254">
        <ele>824.914</ele>
        <time>2018-07-24T07:32:08Z</time>
      </trkpt>
      <trkpt lat="41.208627" lon="-6.449306">
        <ele>824.928</ele>
        <time>2018-07-24T07:32:09Z</time>
      </trkpt>
      <trkpt lat="41.208626" lon="-6.449356">
        <ele>824.929</ele>
        <time>2018-07-24T07:32:10Z</time>
      </trkpt>
      <trkpt lat="41.208625" lon="-6.449409">
        <ele>824.94</ele>
        <time>2018-07-24T07:32:11Z</time>
      </trkpt>
      <trkpt lat="41.208624" lon="-6.449456">
        <ele>824.951</ele>
        <time>2018-07-24T07:32:12Z</time>
      </trkpt>
      <trkpt lat="41.208624" lon="-6.449506">
        <ele>824.957</ele>
        <time>2018-07-24T07:32:13Z</time>
      </trkpt>
      <trkpt lat="41.208624" lon="-6.449561">
        <ele>824.964</ele>
        <time>2018-07-24T07:32:14Z</time>
      </trkpt>
      <trkpt lat="41.208624" lon="-6.449612">
        <ele>824.964</ele>
        <time>2018-07-24T07:32:15Z</time>
      </trkpt>
      <trkpt lat="41.208624" lon="-6.449667">
        <ele>824.965</ele>
        <time>2018-07-24T07:32:16Z</time>
      </trkpt>
      <trkpt lat="41.208624" lon="-6.449717">
        <ele>824.965</ele>
        <time>2018-07-24T07:32:17Z</time>
      </trkpt>
      <trkpt lat="41.208626" lon="-6.449762">
        <ele>824.966</ele>
        <time>2018-07-24T07:32:18Z</time>
      </trkpt>
      <trkpt lat="41.208627" lon="-6.449812">
        <ele>824.966</ele>
        <time>2018-07-24T07:32:19Z</time>
      </trkpt>
      <trkpt lat="41.208629" lon="-6.449861">
        <ele>824.975</ele>
        <time>2018-07-24T07:32:20Z</time>
      </trkpt>
      <trkpt lat="41.208631" lon="-6.449911">
        <ele>824.983</ele>
        <time>2018-07-24T07:32:21Z</time>
      </trkpt>
      <trkpt lat="41.208633" lon="-6.449967">
        <ele>824.989</ele>
        <time>2018-07-24T07:32:22Z</time>
      </trkpt>
      <trkpt lat="41.208635" lon="-6.450028">
        <ele>824.997</ele>
        <time>2018-07-24T07:32:23Z</time>
      </trkpt>
      <trkpt lat="41.208639" lon="-6.450086">
        <ele>825.004</ele>
        <time>2018-07-24T07:32:24Z</time>
      </trkpt>
      <trkpt lat="41.208641" lon="-6.450144">
        <ele>825.013</ele>
        <time>2018-07-24T07:32:25Z</time>
      </trkpt>
      <trkpt lat="41.208642" lon="-6.450204">
        <ele>825.02</ele>
        <time>2018-07-24T07:32:26Z</time>
      </trkpt>
      <trkpt lat="41.208645" lon="-6.450262">
        <ele>825.027</ele>
        <time>2018-07-24T07:32:27Z</time>
      </trkpt>
      <trkpt lat="41.20865" lon="-6.45032">
        <ele>825.033</ele>
        <time>2018-07-24T07:32:28Z</time>
      </trkpt>
      <trkpt lat="41.208657" lon="-6.450379">
        <ele>825.036</ele>
        <time>2018-07-24T07:32:29Z</time>
      </trkpt>
      <trkpt lat="41.208664" lon="-6.450439">
        <ele>825.034</ele>
        <time>2018-07-24T07:32:30Z</time>
      </trkpt>
      <trkpt lat="41.20869" lon="-6.450555">
        <ele>825.032</ele>
        <time>2018-07-24T07:32:32Z</time>
      </trkpt>
      <trkpt lat="41.2087" lon="-6.45061">
        <ele>825.03</ele>
        <time>2018-07-24T07:32:33Z</time>
      </trkpt>
      <trkpt lat="41.208713" lon="-6.450662">
        <ele>825.03</ele>
        <time>2018-07-24T07:32:34Z</time>
      </trkpt>
      <trkpt lat="41.208725" lon="-6.450709">
        <ele>825.032</ele>
        <time>2018-07-24T07:32:35Z</time>
      </trkpt>
      <trkpt lat="41.20876" lon="-6.450799">
        <ele>825.032</ele>
        <time>2018-07-24T07:32:37Z</time>
      </trkpt>
      <trkpt lat="41.208777" lon="-6.450841">
        <ele>825.047</ele>
        <time>2018-07-24T07:32:38Z</time>
      </trkpt>
      <trkpt lat="41.208819" lon="-6.450984">
        <ele>825.053</ele>
        <time>2018-07-24T07:32:41Z</time>
      </trkpt>
      <trkpt lat="41.208835" lon="-6.451031">
        <ele>825.059</ele>
        <time>2018-07-24T07:32:42Z</time>
      </trkpt>
      <trkpt lat="41.208852" lon="-6.451075">
        <ele>825.066</ele>
        <time>2018-07-24T07:32:43Z</time>
      </trkpt>
      <trkpt lat="41.20887" lon="-6.451122">
        <ele>825.075</ele>
        <time>2018-07-24T07:32:44Z</time>
      </trkpt>
      <trkpt lat="41.208888" lon="-6.451168">
        <ele>825.081</ele>
        <time>2018-07-24T07:32:45Z</time>
      </trkpt>
      <trkpt lat="41.208904" lon="-6.451216">
        <ele>825.091</ele>
        <time>2018-07-24T07:32:46Z</time>
      </trkpt>
      <trkpt lat="41.208942" lon="-6.451318">
        <ele>825.097</ele>
        <time>2018-07-24T07:32:48Z</time>
      </trkpt>
      <trkpt lat="41.208957" lon="-6.451365">
        <ele>825.104</ele>
        <time>2018-07-24T07:32:49Z</time>
      </trkpt>
      <trkpt lat="41.20897" lon="-6.451413">
        <ele>825.11</ele>
        <time>2018-07-24T07:32:50Z</time>
      </trkpt>
      <trkpt lat="41.208984" lon="-6.451463">
        <ele>825.128</ele>
        <time>2018-07-24T07:32:51Z</time>
      </trkpt>
      <trkpt lat="41.209034" lon="-6.451612">
        <ele>825.135</ele>
        <time>2018-07-24T07:32:54Z</time>
      </trkpt>
      <trkpt lat="41.209049" lon="-6.451658">
        <ele>825.14</ele>
        <time>2018-07-24T07:32:55Z</time>
      </trkpt>
      <trkpt lat="41.209064" lon="-6.451707">
        <ele>825.144</ele>
        <time>2018-07-24T07:32:56Z</time>
      </trkpt>
      <trkpt lat="41.209081" lon="-6.451755">
        <ele>825.148</ele>
        <time>2018-07-24T07:32:57Z</time>
      </trkpt>
      <trkpt lat="41.209095" lon="-6.451799">
        <ele>825.152</ele>
        <time>2018-07-24T07:32:58Z</time>
      </trkpt>
      <trkpt lat="41.209109" lon="-6.451847">
        <ele>825.153</ele>
        <time>2018-07-24T07:32:59Z</time>
      </trkpt>
      <trkpt lat="41.209124" lon="-6.451894">
        <ele>825.153</ele>
        <time>2018-07-24T07:33:00Z</time>
      </trkpt>
      <trkpt lat="41.209139" lon="-6.451937">
        <ele>825.154</ele>
        <time>2018-07-24T07:33:01Z</time>
      </trkpt>
      <trkpt lat="41.209154" lon="-6.451979">
        <ele>825.155</ele>
        <time>2018-07-24T07:33:02Z</time>
      </trkpt>
      <trkpt lat="41.20917" lon="-6.45202">
        <ele>825.157</ele>
        <time>2018-07-24T07:33:03Z</time>
      </trkpt>
      <trkpt lat="41.209201" lon="-6.452104">
        <ele>825.158</ele>
        <time>2018-07-24T07:33:05Z</time>
      </trkpt>
      <trkpt lat="41.209215" lon="-6.452146">
        <ele>825.159</ele>
        <time>2018-07-24T07:33:06Z</time>
      </trkpt>
      <trkpt lat="41.209228" lon="-6.452188">
        <ele>825.16</ele>
        <time>2018-07-24T07:33:07Z</time>
      </trkpt>
      <trkpt lat="41.209241" lon="-6.452229">
        <ele>825.162</ele>
        <time>2018-07-24T07:33:08Z</time>
      </trkpt>
      <trkpt lat="41.209253" lon="-6.452272">
        <ele>825.163</ele>
        <time>2018-07-24T07:33:09Z</time>
      </trkpt>
      <trkpt lat="41.209265" lon="-6.452311">
        <ele>825.167</ele>
        <time>2018-07-24T07:33:10Z</time>
      </trkpt>
      <trkpt lat="41.209295" lon="-6.452393">
        <ele>825.17</ele>
        <time>2018-07-24T07:33:12Z</time>
      </trkpt>
      <trkpt lat="41.20931" lon="-6.452433">
        <ele>825.172</ele>
        <time>2018-07-24T07:33:13Z</time>
      </trkpt>
      <trkpt lat="41.209327" lon="-6.452478">
        <ele>825.175</ele>
        <time>2018-07-24T07:33:14Z</time>
      </trkpt>
      <trkpt lat="41.20934" lon="-6.452519">
        <ele>825.178</ele>
        <time>2018-07-24T07:33:15Z</time>
      </trkpt>
      <trkpt lat="41.209353" lon="-6.452557">
        <ele>825.184</ele>
        <time>2018-07-24T07:33:16Z</time>
      </trkpt>
      <trkpt lat="41.209376" lon="-6.452639">
        <ele>825.188</ele>
        <time>2018-07-24T07:33:18Z</time>
      </trkpt>
      <trkpt lat="41.209389" lon="-6.452683">
        <ele>825.191</ele>
        <time>2018-07-24T07:33:19Z</time>
      </trkpt>
      <trkpt lat="41.2094" lon="-6.452724">
        <ele>825.195</ele>
        <time>2018-07-24T07:33:20Z</time>
      </trkpt>
      <trkpt lat="41.209416" lon="-6.452769">
        <ele>825.199</ele>
        <time>2018-07-24T07:33:21Z</time>
      </trkpt>
      <trkpt lat="41.209431" lon="-6.452815">
        <ele>825.202</ele>
        <time>2018-07-24T07:33:22Z</time>
      </trkpt>
      <trkpt lat="41.209446" lon="-6.452861">
        <ele>825.206</ele>
        <time>2018-07-24T07:33:23Z</time>
      </trkpt>
      <trkpt lat="41.209461" lon="-6.452906">
        <ele>825.21</ele>
        <time>2018-07-24T07:33:24Z</time>
      </trkpt>
      <trkpt lat="41.209477" lon="-6.452951">
        <ele>825.214</ele>
        <time>2018-07-24T07:33:25Z</time>
      </trkpt>
      <trkpt lat="41.20949" lon="-6.452995">
        <ele>825.218</ele>
        <time>2018-07-24T07:33:26Z</time>
      </trkpt>
      <trkpt lat="41.209504" lon="-6.453038">
        <ele>825.261</ele>
        <time>2018-07-24T07:33:27Z</time>
      </trkpt>
      <trkpt lat="41.20952" lon="-6.453084">
        <ele>825.299</ele>
        <time>2018-07-24T07:33:28Z</time>
      </trkpt>
      <trkpt lat="41.209537" lon="-6.453129">
        <ele>825.302</ele>
        <time>2018-07-24T07:33:29Z</time>
      </trkpt>
      <trkpt lat="41.209553" lon="-6.453176">
        <ele>825.33</ele>
        <time>2018-07-24T07:33:30Z</time>
      </trkpt>
      <trkpt lat="41.209568" lon="-6.45322">
        <ele>825.352</ele>
        <time>2018-07-24T07:33:31Z</time>
      </trkpt>
      <trkpt lat="41.209585" lon="-6.453266">
        <ele>825.371</ele>
        <time>2018-07-24T07:33:32Z</time>
      </trkpt>
      <trkpt lat="41.209602" lon="-6.453311">
        <ele>825.381</ele>
        <time>2018-07-24T07:33:33Z</time>
      </trkpt>
      <trkpt lat="41.209619" lon="-6.453358">
        <ele>825.391</ele>
        <time>2018-07-24T07:33:34Z</time>
      </trkpt>
      <trkpt lat="41.209637" lon="-6.453402">
        <ele>825.398</ele>
        <time>2018-07-24T07:33:35Z</time>
      </trkpt>
      <trkpt lat="41.209655" lon="-6.453447">
        <ele>825.402</ele>
        <time>2018-07-24T07:33:36Z</time>
      </trkpt>
      <trkpt lat="41.209672" lon="-6.453494">
        <ele>825.407</ele>
        <time>2018-07-24T07:33:37Z</time>
      </trkpt>
      <trkpt lat="41.20969" lon="-6.453537">
        <ele>825.414</ele>
        <time>2018-07-24T07:33:38Z</time>
      </trkpt>
      <trkpt lat="41.209707" lon="-6.453582">
        <ele>825.417</ele>
        <time>2018-07-24T07:33:39Z</time>
      </trkpt>
      <trkpt lat="41.209722" lon="-6.453631">
        <ele>825.423</ele>
        <time>2018-07-24T07:33:40Z</time>
      </trkpt>
      <trkpt lat="41.209737" lon="-6.453679">
        <ele>825.423</ele>
        <time>2018-07-24T07:33:41Z</time>
      </trkpt>
      <trkpt lat="41.209754" lon="-6.453726">
        <ele>825.426</ele>
        <time>2018-07-24T07:33:42Z</time>
      </trkpt>
      <trkpt lat="41.20977" lon="-6.453772">
        <ele>825.428</ele>
        <time>2018-07-24T07:33:43Z</time>
      </trkpt>
      <trkpt lat="41.209786" lon="-6.453819">
        <ele>825.432</ele>
        <time>2018-07-24T07:33:44Z</time>
      </trkpt>
      <trkpt lat="41.209802" lon="-6.453869">
        <ele>825.438</ele>
        <time>2018-07-24T07:33:45Z</time>
      </trkpt>
      <trkpt lat="41.209817" lon="-6.453915">
        <ele>825.438</ele>
        <time>2018-07-24T07:33:46Z</time>
      </trkpt>
      <trkpt lat="41.209832" lon="-6.453962">
        <ele>825.445</ele>
        <time>2018-07-24T07:33:47Z</time>
      </trkpt>
      <trkpt lat="41.209846" lon="-6.454008">
        <ele>825.451</ele>
        <time>2018-07-24T07:33:48Z</time>
      </trkpt>
      <trkpt lat="41.209862" lon="-6.454059">
        <ele>825.452</ele>
        <time>2018-07-24T07:33:49Z</time>
      </trkpt>
      <trkpt lat="41.209876" lon="-6.454105">
        <ele>825.458</ele>
        <time>2018-07-24T07:33:50Z</time>
      </trkpt>
      <trkpt lat="41.20989" lon="-6.45415">
        <ele>825.464</ele>
        <time>2018-07-24T07:33:51Z</time>
      </trkpt>
      <trkpt lat="41.209905" lon="-6.454196">
        <ele>825.464</ele>
        <time>2018-07-24T07:33:52Z</time>
      </trkpt>
      <trkpt lat="41.20992" lon="-6.454244">
        <ele>825.464</ele>
        <time>2018-07-24T07:33:53Z</time>
      </trkpt>
      <trkpt lat="41.209936" lon="-6.45429">
        <ele>825.464</ele>
        <time>2018-07-24T07:33:54Z</time>
      </trkpt>
      <trkpt lat="41.209952" lon="-6.454339">
        <ele>825.465</ele>
        <time>2018-07-24T07:33:55Z</time>
      </trkpt>
      <trkpt lat="41.209967" lon="-6.454383">
        <ele>825.465</ele>
        <time>2018-07-24T07:33:56Z</time>
      </trkpt>
      <trkpt lat="41.209996" lon="-6.454471">
        <ele>825.469</ele>
        <time>2018-07-24T07:33:58Z</time>
      </trkpt>
      <trkpt lat="41.210009" lon="-6.454514">
        <ele>825.469</ele>
        <time>2018-07-24T07:33:59Z</time>
      </trkpt>
      <trkpt lat="41.210025" lon="-6.454558">
        <ele>825.48</ele>
        <time>2018-07-24T07:34:00Z</time>
      </trkpt>
      <trkpt lat="41.210039" lon="-6.454602">
        <ele>825.481</ele>
        <time>2018-07-24T07:34:01Z</time>
      </trkpt>
      <trkpt lat="41.210054" lon="-6.454649">
        <ele>825.482</ele>
        <time>2018-07-24T07:34:02Z</time>
      </trkpt>
      <trkpt lat="41.210069" lon="-6.454695">
        <ele>825.483</ele>
        <time>2018-07-24T07:34:03Z</time>
      </trkpt>
      <trkpt lat="41.210083" lon="-6.454738">
        <ele>825.484</ele>
        <time>2018-07-24T07:34:04Z</time>
      </trkpt>
      <trkpt lat="41.210097" lon="-6.454781">
        <ele>825.486</ele>
        <time>2018-07-24T07:34:05Z</time>
      </trkpt>
      <trkpt lat="41.210113" lon="-6.454822">
        <ele>825.487</ele>
        <time>2018-07-24T07:34:06Z</time>
      </trkpt>
      <trkpt lat="41.210127" lon="-6.454864">
        <ele>825.489</ele>
        <time>2018-07-24T07:34:07Z</time>
      </trkpt>
      <trkpt lat="41.210141" lon="-6.454904">
        <ele>825.491</ele>
        <time>2018-07-24T07:34:08Z</time>
      </trkpt>
      <trkpt lat="41.210156" lon="-6.454945">
        <ele>825.493</ele>
        <time>2018-07-24T07:34:09Z</time>
      </trkpt>
      <trkpt lat="41.210171" lon="-6.454987">
        <ele>825.495</ele>
        <time>2018-07-24T07:34:10Z</time>
      </trkpt>
      <trkpt lat="41.210186" lon="-6.45503">
        <ele>825.516</ele>
        <time>2018-07-24T07:34:11Z</time>
      </trkpt>
      <trkpt lat="41.210201" lon="-6.455072">
        <ele>825.536</ele>
        <time>2018-07-24T07:34:12Z</time>
      </trkpt>
      <trkpt lat="41.210217" lon="-6.455113">
        <ele>825.552</ele>
        <time>2018-07-24T07:34:13Z</time>
      </trkpt>
      <trkpt lat="41.210232" lon="-6.45516">
        <ele>825.565</ele>
        <time>2018-07-24T07:34:14Z</time>
      </trkpt>
      <trkpt lat="41.210248" lon="-6.455206">
        <ele>825.577</ele>
        <time>2018-07-24T07:34:15Z</time>
      </trkpt>
      <trkpt lat="41.210263" lon="-6.455255">
        <ele>825.578</ele>
        <time>2018-07-24T07:34:16Z</time>
      </trkpt>
      <trkpt lat="41.210279" lon="-6.455301">
        <ele>825.579</ele>
        <time>2018-07-24T07:34:17Z</time>
      </trkpt>
      <trkpt lat="41.210296" lon="-6.455347">
        <ele>825.58</ele>
        <time>2018-07-24T07:34:18Z</time>
      </trkpt>
      <trkpt lat="41.210313" lon="-6.455389">
        <ele>825.58</ele>
        <time>2018-07-24T07:34:19Z</time>
      </trkpt>
      <trkpt lat="41.210328" lon="-6.455429">
        <ele>825.582</ele>
        <time>2018-07-24T07:34:20Z</time>
      </trkpt>
      <trkpt lat="41.210357" lon="-6.455517">
        <ele>825.585</ele>
        <time>2018-07-24T07:34:22Z</time>
      </trkpt>
      <trkpt lat="41.210373" lon="-6.455564">
        <ele>825.584</ele>
        <time>2018-07-24T07:34:23Z</time>
      </trkpt>
      <trkpt lat="41.21039" lon="-6.455617">
        <ele>825.575</ele>
        <time>2018-07-24T07:34:24Z</time>
      </trkpt>
      <trkpt lat="41.210428" lon="-6.455718">
        <ele>825.571</ele>
        <time>2018-07-24T07:34:26Z</time>
      </trkpt>
      <trkpt lat="41.210444" lon="-6.455765">
        <ele>825.57</ele>
        <time>2018-07-24T07:34:27Z</time>
      </trkpt>
      <trkpt lat="41.210463" lon="-6.45581">
        <ele>825.566</ele>
        <time>2018-07-24T07:34:28Z</time>
      </trkpt>
      <trkpt lat="41.210482" lon="-6.455854">
        <ele>825.564</ele>
        <time>2018-07-24T07:34:29Z</time>
      </trkpt>
      <trkpt lat="41.210501" lon="-6.455899">
        <ele>825.562</ele>
        <time>2018-07-24T07:34:30Z</time>
      </trkpt>
      <trkpt lat="41.210535" lon="-6.455992">
        <ele>825.561</ele>
        <time>2018-07-24T07:34:32Z</time>
      </trkpt>
      <trkpt lat="41.210552" lon="-6.45604">
        <ele>825.561</ele>
        <time>2018-07-24T07:34:33Z</time>
      </trkpt>
      <trkpt lat="41.210569" lon="-6.456086">
        <ele>825.558</ele>
        <time>2018-07-24T07:34:34Z</time>
      </trkpt>
      <trkpt lat="41.210584" lon="-6.456134">
        <ele>825.559</ele>
        <time>2018-07-24T07:34:35Z</time>
      </trkpt>
      <trkpt lat="41.210619" lon="-6.456218">
        <ele>825.559</ele>
        <time>2018-07-24T07:34:37Z</time>
      </trkpt>
      <trkpt lat="41.210635" lon="-6.456262">
        <ele>825.56</ele>
        <time>2018-07-24T07:34:38Z</time>
      </trkpt>
      <trkpt lat="41.210653" lon="-6.456307">
        <ele>825.561</ele>
        <time>2018-07-24T07:34:39Z</time>
      </trkpt>
      <trkpt lat="41.21067" lon="-6.456348">
        <ele>825.562</ele>
        <time>2018-07-24T07:34:40Z</time>
      </trkpt>
      <trkpt lat="41.210686" lon="-6.456392">
        <ele>825.575</ele>
        <time>2018-07-24T07:34:41Z</time>
      </trkpt>
      <trkpt lat="41.210702" lon="-6.456435">
        <ele>825.576</ele>
        <time>2018-07-24T07:34:42Z</time>
      </trkpt>
      <trkpt lat="41.210718" lon="-6.45648">
        <ele>825.578</ele>
        <time>2018-07-24T07:34:43Z</time>
      </trkpt>
      <trkpt lat="41.210731" lon="-6.456522">
        <ele>825.617</ele>
        <time>2018-07-24T07:34:44Z</time>
      </trkpt>
      <trkpt lat="41.21075" lon="-6.456618">
        <ele>825.634</ele>
        <time>2018-07-24T07:34:46Z</time>
      </trkpt>
      <trkpt lat="41.210763" lon="-6.45672">
        <ele>825.635</ele>
        <time>2018-07-24T07:34:48Z</time>
      </trkpt>
      <trkpt lat="41.210768" lon="-6.45677">
        <ele>825.637</ele>
        <time>2018-07-24T07:34:49Z</time>
      </trkpt>
      <trkpt lat="41.210774" lon="-6.456819">
        <ele>825.638</ele>
        <time>2018-07-24T07:34:50Z</time>
      </trkpt>
      <trkpt lat="41.210777" lon="-6.45687">
        <ele>825.655</ele>
        <time>2018-07-24T07:34:51Z</time>
      </trkpt>
      <trkpt lat="41.210782" lon="-6.456921">
        <ele>825.671</ele>
        <time>2018-07-24T07:34:52Z</time>
      </trkpt>
      <trkpt lat="41.210785" lon="-6.456976">
        <ele>825.685</ele>
        <time>2018-07-24T07:34:53Z</time>
      </trkpt>
      <trkpt lat="41.210789" lon="-6.457038">
        <ele>825.696</ele>
        <time>2018-07-24T07:34:54Z</time>
      </trkpt>
      <trkpt lat="41.210792" lon="-6.457102">
        <ele>825.705</ele>
        <time>2018-07-24T07:34:55Z</time>
      </trkpt>
      <trkpt lat="41.210793" lon="-6.457163">
        <ele>825.712</ele>
        <time>2018-07-24T07:34:56Z</time>
      </trkpt>
      <trkpt lat="41.210795" lon="-6.457221">
        <ele>825.72</ele>
        <time>2018-07-24T07:34:57Z</time>
      </trkpt>
      <trkpt lat="41.210797" lon="-6.457277">
        <ele>825.729</ele>
        <time>2018-07-24T07:34:58Z</time>
      </trkpt>
      <trkpt lat="41.2108" lon="-6.457338">
        <ele>825.735</ele>
        <time>2018-07-24T07:34:59Z</time>
      </trkpt>
      <trkpt lat="41.210802" lon="-6.4574">
        <ele>825.739</ele>
        <time>2018-07-24T07:35:00Z</time>
      </trkpt>
      <trkpt lat="41.210808" lon="-6.457466">
        <ele>825.743</ele>
        <time>2018-07-24T07:35:01Z</time>
      </trkpt>
      <trkpt lat="41.21081" lon="-6.457529">
        <ele>825.745</ele>
        <time>2018-07-24T07:35:02Z</time>
      </trkpt>
      <trkpt lat="41.210812" lon="-6.457592">
        <ele>825.748</ele>
        <time>2018-07-24T07:35:03Z</time>
      </trkpt>
      <trkpt lat="41.210813" lon="-6.457652">
        <ele>825.751</ele>
        <time>2018-07-24T07:35:04Z</time>
      </trkpt>
      <trkpt lat="41.210817" lon="-6.457713">
        <ele>825.752</ele>
        <time>2018-07-24T07:35:05Z</time>
      </trkpt>
      <trkpt lat="41.210818" lon="-6.457779">
        <ele>825.752</ele>
        <time>2018-07-24T07:35:06Z</time>
      </trkpt>
      <trkpt lat="41.21082" lon="-6.457842">
        <ele>825.752</ele>
        <time>2018-07-24T07:35:07Z</time>
      </trkpt>
      <trkpt lat="41.210821" lon="-6.457905">
        <ele>825.751</ele>
        <time>2018-07-24T07:35:08Z</time>
      </trkpt>
      <trkpt lat="41.210826" lon="-6.45797">
        <ele>825.749</ele>
        <time>2018-07-24T07:35:09Z</time>
      </trkpt>
      <trkpt lat="41.21083" lon="-6.458037">
        <ele>825.746</ele>
        <time>2018-07-24T07:35:10Z</time>
      </trkpt>
      <trkpt lat="41.210833" lon="-6.458103">
        <ele>825.743</ele>
        <time>2018-07-24T07:35:11Z</time>
      </trkpt>
      <trkpt lat="41.210837" lon="-6.458168">
        <ele>825.74</ele>
        <time>2018-07-24T07:35:12Z</time>
      </trkpt>
      <trkpt lat="41.210841" lon="-6.458237">
        <ele>825.736</ele>
        <time>2018-07-24T07:35:13Z</time>
      </trkpt>
      <trkpt lat="41.210845" lon="-6.458306">
        <ele>825.732</ele>
        <time>2018-07-24T07:35:14Z</time>
      </trkpt>
      <trkpt lat="41.21085" lon="-6.458377">
        <ele>825.727</ele>
        <time>2018-07-24T07:35:15Z</time>
      </trkpt>
      <trkpt lat="41.210854" lon="-6.458446">
        <ele>825.724</ele>
        <time>2018-07-24T07:35:16Z</time>
      </trkpt>
      <trkpt lat="41.210858" lon="-6.45851">
        <ele>825.718</ele>
        <time>2018-07-24T07:35:17Z</time>
      </trkpt>
      <trkpt lat="41.210862" lon="-6.458579">
        <ele>825.712</ele>
        <time>2018-07-24T07:35:18Z</time>
      </trkpt>
      <trkpt lat="41.210864" lon="-6.458646">
        <ele>825.707</ele>
        <time>2018-07-24T07:35:19Z</time>
      </trkpt>
      <trkpt lat="41.210869" lon="-6.458717">
        <ele>825.702</ele>
        <time>2018-07-24T07:35:20Z</time>
      </trkpt>
      <trkpt lat="41.210872" lon="-6.458785">
        <ele>825.699</ele>
        <time>2018-07-24T07:35:21Z</time>
      </trkpt>
      <trkpt lat="41.210876" lon="-6.458854">
        <ele>825.698</ele>
        <time>2018-07-24T07:35:22Z</time>
      </trkpt>
      <trkpt lat="41.210881" lon="-6.458924">
        <ele>825.697</ele>
        <time>2018-07-24T07:35:23Z</time>
      </trkpt>
      <trkpt lat="41.210887" lon="-6.458994">
        <ele>825.696</ele>
        <time>2018-07-24T07:35:24Z</time>
      </trkpt>
      <trkpt lat="41.210893" lon="-6.459062">
        <ele>825.693</ele>
        <time>2018-07-24T07:35:25Z</time>
      </trkpt>
      <trkpt lat="41.2109" lon="-6.459133">
        <ele>825.688</ele>
        <time>2018-07-24T07:35:26Z</time>
      </trkpt>
      <trkpt lat="41.21091" lon="-6.459205">
        <ele>825.687</ele>
        <time>2018-07-24T07:35:27Z</time>
      </trkpt>
      <trkpt lat="41.21092" lon="-6.45927">
        <ele>825.686</ele>
        <time>2018-07-24T07:35:28Z</time>
      </trkpt>
      <trkpt lat="41.21093" lon="-6.459338">
        <ele>825.684</ele>
        <time>2018-07-24T07:35:29Z</time>
      </trkpt>
      <trkpt lat="41.21094" lon="-6.459403">
        <ele>825.682</ele>
        <time>2018-07-24T07:35:30Z</time>
      </trkpt>
      <trkpt lat="41.210949" lon="-6.45947">
        <ele>825.678</ele>
        <time>2018-07-24T07:35:31Z</time>
      </trkpt>
      <trkpt lat="41.210956" lon="-6.459536">
        <ele>825.673</ele>
        <time>2018-07-24T07:35:32Z</time>
      </trkpt>
      <trkpt lat="41.210964" lon="-6.459599">
        <ele>825.672</ele>
        <time>2018-07-24T07:35:33Z</time>
      </trkpt>
      <trkpt lat="41.210973" lon="-6.459657">
        <ele>825.67</ele>
        <time>2018-07-24T07:35:34Z</time>
      </trkpt>
      <trkpt lat="41.210981" lon="-6.459714">
        <ele>825.672</ele>
        <time>2018-07-24T07:35:35Z</time>
      </trkpt>
      <trkpt lat="41.210992" lon="-6.459775">
        <ele>825.674</ele>
        <time>2018-07-24T07:35:36Z</time>
      </trkpt>
      <trkpt lat="41.211002" lon="-6.459845">
        <ele>825.676</ele>
        <time>2018-07-24T07:35:37Z</time>
      </trkpt>
      <trkpt lat="41.211012" lon="-6.459915">
        <ele>825.677</ele>
        <time>2018-07-24T07:35:38Z</time>
      </trkpt>
      <trkpt lat="41.211025" lon="-6.459984">
        <ele>825.674</ele>
        <time>2018-07-24T07:35:39Z</time>
      </trkpt>
      <trkpt lat="41.211037" lon="-6.460049">
        <ele>825.657</ele>
        <time>2018-07-24T07:35:40Z</time>
      </trkpt>
      <trkpt lat="41.211076" lon="-6.460261">
        <ele>825.652</ele>
        <time>2018-07-24T07:35:43Z</time>
      </trkpt>
      <trkpt lat="41.21109" lon="-6.460329">
        <ele>825.647</ele>
        <time>2018-07-24T07:35:44Z</time>
      </trkpt>
      <trkpt lat="41.211103" lon="-6.460393">
        <ele>825.632</ele>
        <time>2018-07-24T07:35:45Z</time>
      </trkpt>
      <trkpt lat="41.211142" lon="-6.460525">
        <ele>825.62</ele>
        <time>2018-07-24T07:35:47Z</time>
      </trkpt>
      <trkpt lat="41.211171" lon="-6.46064">
        <ele>825.613</ele>
        <time>2018-07-24T07:35:49Z</time>
      </trkpt>
      <trkpt lat="41.211186" lon="-6.460709">
        <ele>825.603</ele>
        <time>2018-07-24T07:35:50Z</time>
      </trkpt>
      <trkpt lat="41.211204" lon="-6.46079">
        <ele>825.593</ele>
        <time>2018-07-24T07:35:51Z</time>
      </trkpt>
      <trkpt lat="41.211223" lon="-6.460869">
        <ele>825.581</ele>
        <time>2018-07-24T07:35:52Z</time>
      </trkpt>
      <trkpt lat="41.211235" lon="-6.460944">
        <ele>825.571</ele>
        <time>2018-07-24T07:35:53Z</time>
      </trkpt>
      <trkpt lat="41.211249" lon="-6.461019">
        <ele>825.557</ele>
        <time>2018-07-24T07:35:54Z</time>
      </trkpt>
      <trkpt lat="41.211263" lon="-6.461103">
        <ele>825.543</ele>
        <time>2018-07-24T07:35:55Z</time>
      </trkpt>
      <trkpt lat="41.211275" lon="-6.461169">
        <ele>825.529</ele>
        <time>2018-07-24T07:35:56Z</time>
      </trkpt>
      <trkpt lat="41.211287" lon="-6.461246">
        <ele>825.514</ele>
        <time>2018-07-24T07:35:57Z</time>
      </trkpt>
      <trkpt lat="41.211302" lon="-6.461325">
        <ele>825.498</ele>
        <time>2018-07-24T07:35:58Z</time>
      </trkpt>
      <trkpt lat="41.211317" lon="-6.461399">
        <ele>825.484</ele>
        <time>2018-07-24T07:35:59Z</time>
      </trkpt>
      <trkpt lat="41.211329" lon="-6.461468">
        <ele>825.47</ele>
        <time>2018-07-24T07:36:00Z</time>
      </trkpt>
      <trkpt lat="41.211343" lon="-6.46154">
        <ele>825.458</ele>
        <time>2018-07-24T07:36:01Z</time>
      </trkpt>
      <trkpt lat="41.211356" lon="-6.461606">
        <ele>825.445</ele>
        <time>2018-07-24T07:36:02Z</time>
      </trkpt>
      <trkpt lat="41.21137" lon="-6.461674">
        <ele>825.433</ele>
        <time>2018-07-24T07:36:03Z</time>
      </trkpt>
      <trkpt lat="41.211384" lon="-6.461739">
        <ele>825.42</ele>
        <time>2018-07-24T07:36:04Z</time>
      </trkpt>
      <trkpt lat="41.211397" lon="-6.4618">
        <ele>825.407</ele>
        <time>2018-07-24T07:36:05Z</time>
      </trkpt>
      <trkpt lat="41.211408" lon="-6.461862">
        <ele>825.396</ele>
        <time>2018-07-24T07:36:06Z</time>
      </trkpt>
      <trkpt lat="41.211417" lon="-6.461918">
        <ele>825.385</ele>
        <time>2018-07-24T07:36:07Z</time>
      </trkpt>
      <trkpt lat="41.211428" lon="-6.461978">
        <ele>825.374</ele>
        <time>2018-07-24T07:36:08Z</time>
      </trkpt>
      <trkpt lat="41.211439" lon="-6.462045">
        <ele>825.365</ele>
        <time>2018-07-24T07:36:09Z</time>
      </trkpt>
      <trkpt lat="41.211453" lon="-6.462104">
        <ele>825.355</ele>
        <time>2018-07-24T07:36:10Z</time>
      </trkpt>
      <trkpt lat="41.211466" lon="-6.462162">
        <ele>825.336</ele>
        <time>2018-07-24T07:36:11Z</time>
      </trkpt>
      <trkpt lat="41.211485" lon="-6.462277">
        <ele>825.326</ele>
        <time>2018-07-24T07:36:13Z</time>
      </trkpt>
      <trkpt lat="41.211497" lon="-6.462332">
        <ele>825.298</ele>
        <time>2018-07-24T07:36:14Z</time>
      </trkpt>
      <trkpt lat="41.211522" lon="-6.462448">
        <ele>825.285</ele>
        <time>2018-07-24T07:36:16Z</time>
      </trkpt>
      <trkpt lat="41.211535" lon="-6.462508">
        <ele>825.274</ele>
        <time>2018-07-24T07:36:17Z</time>
      </trkpt>
      <trkpt lat="41.211548" lon="-6.462564">
        <ele>825.264</ele>
        <time>2018-07-24T07:36:18Z</time>
      </trkpt>
      <trkpt lat="41.211559" lon="-6.462622">
        <ele>825.25</ele>
        <time>2018-07-24T07:36:19Z</time>
      </trkpt>
      <trkpt lat="41.211571" lon="-6.462689">
        <ele>825.237</ele>
        <time>2018-07-24T07:36:20Z</time>
      </trkpt>
      <trkpt lat="41.211581" lon="-6.462752">
        <ele>825.226</ele>
        <time>2018-07-24T07:36:21Z</time>
      </trkpt>
      <trkpt lat="41.211593" lon="-6.462813">
        <ele>825.217</ele>
        <time>2018-07-24T07:36:22Z</time>
      </trkpt>
      <trkpt lat="41.211605" lon="-6.462876">
        <ele>825.209</ele>
        <time>2018-07-24T07:36:23Z</time>
      </trkpt>
      <trkpt lat="41.211617" lon="-6.462939">
        <ele>825.196</ele>
        <time>2018-07-24T07:36:24Z</time>
      </trkpt>
      <trkpt lat="41.21163" lon="-6.463007">
        <ele>825.184</ele>
        <time>2018-07-24T07:36:25Z</time>
      </trkpt>
      <trkpt lat="41.211642" lon="-6.463069">
        <ele>825.176</ele>
        <time>2018-07-24T07:36:26Z</time>
      </trkpt>
      <trkpt lat="41.211653" lon="-6.463125">
        <ele>825.169</ele>
        <time>2018-07-24T07:36:27Z</time>
      </trkpt>
      <trkpt lat="41.211665" lon="-6.463186">
        <ele>825.162</ele>
        <time>2018-07-24T07:36:28Z</time>
      </trkpt>
      <trkpt lat="41.211676" lon="-6.463246">
        <ele>825.154</ele>
        <time>2018-07-24T07:36:29Z</time>
      </trkpt>
      <trkpt lat="41.211684" lon="-6.463301">
        <ele>825.139</ele>
        <time>2018-07-24T07:36:30Z</time>
      </trkpt>
      <trkpt lat="41.2117" lon="-6.463361">
        <ele>825.118</ele>
        <time>2018-07-24T07:36:31Z</time>
      </trkpt>
      <trkpt lat="41.211714" lon="-6.463424">
        <ele>825.093</ele>
        <time>2018-07-24T07:36:32Z</time>
      </trkpt>
      <trkpt lat="41.211724" lon="-6.463491">
        <ele>825.064</ele>
        <time>2018-07-24T07:36:33Z</time>
      </trkpt>
      <trkpt lat="41.211736" lon="-6.463558">
        <ele>825.027</ele>
        <time>2018-07-24T07:36:34Z</time>
      </trkpt>
      <trkpt lat="41.211747" lon="-6.463629">
        <ele>824.99</ele>
        <time>2018-07-24T07:36:35Z</time>
      </trkpt>
      <trkpt lat="41.211761" lon="-6.463697">
        <ele>824.953</ele>
        <time>2018-07-24T07:36:36Z</time>
      </trkpt>
      <trkpt lat="41.211775" lon="-6.463763">
        <ele>824.918</ele>
        <time>2018-07-24T07:36:37Z</time>
      </trkpt>
      <trkpt lat="41.211793" lon="-6.463833">
        <ele>824.888</ele>
        <time>2018-07-24T07:36:38Z</time>
      </trkpt>
      <trkpt lat="41.211813" lon="-6.463904">
        <ele>824.859</ele>
        <time>2018-07-24T07:36:39Z</time>
      </trkpt>
      <trkpt lat="41.211838" lon="-6.463976">
        <ele>824.836</ele>
        <time>2018-07-24T07:36:40Z</time>
      </trkpt>
      <trkpt lat="41.211858" lon="-6.464044">
        <ele>824.797</ele>
        <time>2018-07-24T07:36:41Z</time>
      </trkpt>
      <trkpt lat="41.21191" lon="-6.46419">
        <ele>824.777</ele>
        <time>2018-07-24T07:36:43Z</time>
      </trkpt>
      <trkpt lat="41.211939" lon="-6.464265">
        <ele>824.763</ele>
        <time>2018-07-24T07:36:44Z</time>
      </trkpt>
      <trkpt lat="41.211966" lon="-6.464344">
        <ele>824.743</ele>
        <time>2018-07-24T07:36:45Z</time>
      </trkpt>
      <trkpt lat="41.211993" lon="-6.464413">
        <ele>824.719</ele>
        <time>2018-07-24T07:36:46Z</time>
      </trkpt>
      <trkpt lat="41.212021" lon="-6.464481">
        <ele>824.691</ele>
        <time>2018-07-24T07:36:47Z</time>
      </trkpt>
      <trkpt lat="41.212047" lon="-6.464547">
        <ele>824.651</ele>
        <time>2018-07-24T07:36:48Z</time>
      </trkpt>
      <trkpt lat="41.21207" lon="-6.464617">
        <ele>824.607</ele>
        <time>2018-07-24T07:36:49Z</time>
      </trkpt>
      <trkpt lat="41.212092" lon="-6.464689">
        <ele>824.561</ele>
        <time>2018-07-24T07:36:50Z</time>
      </trkpt>
      <trkpt lat="41.212121" lon="-6.464757">
        <ele>824.513</ele>
        <time>2018-07-24T07:36:51Z</time>
      </trkpt>
      <trkpt lat="41.212145" lon="-6.464832">
        <ele>824.467</ele>
        <time>2018-07-24T07:36:52Z</time>
      </trkpt>
      <trkpt lat="41.212169" lon="-6.464905">
        <ele>824.419</ele>
        <time>2018-07-24T07:36:53Z</time>
      </trkpt>
      <trkpt lat="41.212195" lon="-6.464977">
        <ele>824.37</ele>
        <time>2018-07-24T07:36:54Z</time>
      </trkpt>
      <trkpt lat="41.212223" lon="-6.465044">
        <ele>824.319</ele>
        <time>2018-07-24T07:36:55Z</time>
      </trkpt>
      <trkpt lat="41.212247" lon="-6.465113">
        <ele>824.263</ele>
        <time>2018-07-24T07:36:56Z</time>
      </trkpt>
      <trkpt lat="41.212267" lon="-6.465182">
        <ele>824.212</ele>
        <time>2018-07-24T07:36:57Z</time>
      </trkpt>
      <trkpt lat="41.21229" lon="-6.46525">
        <ele>824.151</ele>
        <time>2018-07-24T07:36:58Z</time>
      </trkpt>
      <trkpt lat="41.212311" lon="-6.465316">
        <ele>824.113</ele>
        <time>2018-07-24T07:36:59Z</time>
      </trkpt>
      <trkpt lat="41.212331" lon="-6.465378">
        <ele>824.069</ele>
        <time>2018-07-24T07:37:00Z</time>
      </trkpt>
      <trkpt lat="41.21235" lon="-6.46544">
        <ele>824.047</ele>
        <time>2018-07-24T07:37:01Z</time>
      </trkpt>
      <trkpt lat="41.212372" lon="-6.465507">
        <ele>824.059</ele>
        <time>2018-07-24T07:37:02Z</time>
      </trkpt>
      <trkpt lat="41.212394" lon="-6.46557">
        <ele>824.069</ele>
        <time>2018-07-24T07:37:03Z</time>
      </trkpt>
      <trkpt lat="41.212417" lon="-6.465632">
        <ele>824.052</ele>
        <time>2018-07-24T07:37:04Z</time>
      </trkpt>
      <trkpt lat="41.212438" lon="-6.465696">
        <ele>824.08</ele>
        <time>2018-07-24T07:37:05Z</time>
      </trkpt>
      <trkpt lat="41.212458" lon="-6.465754">
        <ele>824.098</ele>
        <time>2018-07-24T07:37:06Z</time>
      </trkpt>
      <trkpt lat="41.21248" lon="-6.465813">
        <ele>824.076</ele>
        <time>2018-07-24T07:37:07Z</time>
      </trkpt>
      <trkpt lat="41.212503" lon="-6.465871">
        <ele>824.011</ele>
        <time>2018-07-24T07:37:08Z</time>
      </trkpt>
      <trkpt lat="41.212524" lon="-6.465927">
        <ele>823.917</ele>
        <time>2018-07-24T07:37:09Z</time>
      </trkpt>
      <trkpt lat="41.212544" lon="-6.465983">
        <ele>823.84</ele>
        <time>2018-07-24T07:37:10Z</time>
      </trkpt>
      <trkpt lat="41.212561" lon="-6.46603">
        <ele>823.845</ele>
        <time>2018-07-24T07:37:11Z</time>
      </trkpt>
      <trkpt lat="41.212576" lon="-6.466077">
        <ele>823.927</ele>
        <time>2018-07-24T07:37:12Z</time>
      </trkpt>
      <trkpt lat="41.212609" lon="-6.466171">
        <ele>824.02</ele>
        <time>2018-07-24T07:37:14Z</time>
      </trkpt>
      <trkpt lat="41.212628" lon="-6.466219">
        <ele>824.027</ele>
        <time>2018-07-24T07:37:15Z</time>
      </trkpt>
      <trkpt lat="41.212647" lon="-6.466268">
        <ele>824.032</ele>
        <time>2018-07-24T07:37:16Z</time>
      </trkpt>
      <trkpt lat="41.212663" lon="-6.466313">
        <ele>824.042</ele>
        <time>2018-07-24T07:37:17Z</time>
      </trkpt>
      <trkpt lat="41.212677" lon="-6.466351">
        <ele>824.055</ele>
        <time>2018-07-24T07:37:18Z</time>
      </trkpt>
      <trkpt lat="41.21269" lon="-6.466389">
        <ele>824.077</ele>
        <time>2018-07-24T07:37:19Z</time>
      </trkpt>
      <trkpt lat="41.212707" lon="-6.466475">
        <ele>824.086</ele>
        <time>2018-07-24T07:37:21Z</time>
      </trkpt>
      <trkpt lat="41.212716" lon="-6.466523">
        <ele>824.091</ele>
        <time>2018-07-24T07:37:22Z</time>
      </trkpt>
      <trkpt lat="41.212725" lon="-6.466572">
        <ele>824.088</ele>
        <time>2018-07-24T07:37:23Z</time>
      </trkpt>
      <trkpt lat="41.212743" lon="-6.466675">
        <ele>823.933</ele>
        <time>2018-07-24T07:37:25Z</time>
      </trkpt>
      <trkpt lat="41.212751" lon="-6.466734">
        <ele>823.774</ele>
        <time>2018-07-24T07:37:26Z</time>
      </trkpt>
      <trkpt lat="41.212762" lon="-6.466795">
        <ele>823.435</ele>
        <time>2018-07-24T07:37:27Z</time>
      </trkpt>
      <trkpt lat="41.212771" lon="-6.466856">
        <ele>823.189</ele>
        <time>2018-07-24T07:37:28Z</time>
      </trkpt>
      <trkpt lat="41.212783" lon="-6.466914">
        <ele>822.944</ele>
        <time>2018-07-24T07:37:29Z</time>
      </trkpt>
      <trkpt lat="41.212792" lon="-6.466968">
        <ele>822.73</ele>
        <time>2018-07-24T07:37:30Z</time>
      </trkpt>
      <trkpt lat="41.2128" lon="-6.467023">
        <ele>822.716</ele>
        <time>2018-07-24T07:37:31Z</time>
      </trkpt>
      <trkpt lat="41.212805" lon="-6.467074">
        <ele>822.569</ele>
        <time>2018-07-24T07:37:32Z</time>
      </trkpt>
      <trkpt lat="41.212811" lon="-6.467121">
        <ele>822.435</ele>
        <time>2018-07-24T07:37:33Z</time>
      </trkpt>
      <trkpt lat="41.212819" lon="-6.467179">
        <ele>822.3</ele>
        <time>2018-07-24T07:37:34Z</time>
      </trkpt>
      <trkpt lat="41.21283" lon="-6.46724">
        <ele>822.02</ele>
        <time>2018-07-24T07:37:35Z</time>
      </trkpt>
      <trkpt lat="41.212857" lon="-6.467361">
        <ele>821.838</ele>
        <time>2018-07-24T07:37:37Z</time>
      </trkpt>
      <trkpt lat="41.212876" lon="-6.467422">
        <ele>821.666</ele>
        <time>2018-07-24T07:37:38Z</time>
      </trkpt>
      <trkpt lat="41.212895" lon="-6.467481">
        <ele>821.508</ele>
        <time>2018-07-24T07:37:39Z</time>
      </trkpt>
      <trkpt lat="41.212918" lon="-6.467537">
        <ele>821.358</ele>
        <time>2018-07-24T07:37:40Z</time>
      </trkpt>
      <trkpt lat="41.212941" lon="-6.467595">
        <ele>821.205</ele>
        <time>2018-07-24T07:37:41Z</time>
      </trkpt>
      <trkpt lat="41.212963" lon="-6.467655">
        <ele>821.035</ele>
        <time>2018-07-24T07:37:42Z</time>
      </trkpt>
      <trkpt lat="41.212989" lon="-6.467711">
        <ele>820.876</ele>
        <time>2018-07-24T07:37:43Z</time>
      </trkpt>
      <trkpt lat="41.213019" lon="-6.467765">
        <ele>820.699</ele>
        <time>2018-07-24T07:37:44Z</time>
      </trkpt>
      <trkpt lat="41.213047" lon="-6.467817">
        <ele>820.553</ele>
        <time>2018-07-24T07:37:45Z</time>
      </trkpt>
      <trkpt lat="41.213077" lon="-6.46787">
        <ele>820.423</ele>
        <time>2018-07-24T07:37:46Z</time>
      </trkpt>
      <trkpt lat="41.213106" lon="-6.467921">
        <ele>820.319</ele>
        <time>2018-07-24T07:37:47Z</time>
      </trkpt>
      <trkpt lat="41.213138" lon="-6.46797">
        <ele>820.223</ele>
        <time>2018-07-24T07:37:48Z</time>
      </trkpt>
      <trkpt lat="41.213167" lon="-6.468017">
        <ele>820.045</ele>
        <time>2018-07-24T07:37:49Z</time>
      </trkpt>
      <trkpt lat="41.21323" lon="-6.468118">
        <ele>819.964</ele>
        <time>2018-07-24T07:37:51Z</time>
      </trkpt>
      <trkpt lat="41.213263" lon="-6.46817">
        <ele>819.897</ele>
        <time>2018-07-24T07:37:52Z</time>
      </trkpt>
      <trkpt lat="41.213295" lon="-6.468219">
        <ele>819.836</ele>
        <time>2018-07-24T07:37:53Z</time>
      </trkpt>
      <trkpt lat="41.213327" lon="-6.468268">
        <ele>819.776</ele>
        <time>2018-07-24T07:37:54Z</time>
      </trkpt>
      <trkpt lat="41.213358" lon="-6.468318">
        <ele>819.715</ele>
        <time>2018-07-24T07:37:55Z</time>
      </trkpt>
      <trkpt lat="41.213392" lon="-6.468372">
        <ele>819.654</ele>
        <time>2018-07-24T07:37:56Z</time>
      </trkpt>
      <trkpt lat="41.213425" lon="-6.468425">
        <ele>819.601</ele>
        <time>2018-07-24T07:37:57Z</time>
      </trkpt>
      <trkpt lat="41.213458" lon="-6.46848">
        <ele>819.548</ele>
        <time>2018-07-24T07:37:58Z</time>
      </trkpt>
      <trkpt lat="41.213487" lon="-6.468528">
        <ele>819.501</ele>
        <time>2018-07-24T07:37:59Z</time>
      </trkpt>
      <trkpt lat="41.213519" lon="-6.468578">
        <ele>819.465</ele>
        <time>2018-07-24T07:38:00Z</time>
      </trkpt>
      <trkpt lat="41.213549" lon="-6.468625">
        <ele>819.421</ele>
        <time>2018-07-24T07:38:01Z</time>
      </trkpt>
      <trkpt lat="41.213578" lon="-6.468674">
        <ele>819.39</ele>
        <time>2018-07-24T07:38:02Z</time>
      </trkpt>
      <trkpt lat="41.213609" lon="-6.468721">
        <ele>819.36</ele>
        <time>2018-07-24T07:38:03Z</time>
      </trkpt>
      <trkpt lat="41.213638" lon="-6.468769">
        <ele>819.323</ele>
        <time>2018-07-24T07:38:04Z</time>
      </trkpt>
      <trkpt lat="41.213666" lon="-6.468814">
        <ele>819.282</ele>
        <time>2018-07-24T07:38:05Z</time>
      </trkpt>
      <trkpt lat="41.21369" lon="-6.468855">
        <ele>819.239</ele>
        <time>2018-07-24T07:38:06Z</time>
      </trkpt>
      <trkpt lat="41.213714" lon="-6.468898">
        <ele>819.192</ele>
        <time>2018-07-24T07:38:07Z</time>
      </trkpt>
      <trkpt lat="41.213735" lon="-6.468939">
        <ele>819.137</ele>
        <time>2018-07-24T07:38:08Z</time>
      </trkpt>
      <trkpt lat="41.213755" lon="-6.468979">
        <ele>819.132</ele>
        <time>2018-07-24T07:38:09Z</time>
      </trkpt>
      <trkpt lat="41.213777" lon="-6.469022">
        <ele>819.127</ele>
        <time>2018-07-24T07:38:10Z</time>
      </trkpt>
      <trkpt lat="41.213795" lon="-6.469054">
        <ele>819.12</ele>
        <time>2018-07-24T07:38:11Z</time>
      </trkpt>
      <trkpt lat="41.213813" lon="-6.469085">
        <ele>819.113</ele>
        <time>2018-07-24T07:38:12Z</time>
      </trkpt>
      <trkpt lat="41.213834" lon="-6.469124">
        <ele>819.103</ele>
        <time>2018-07-24T07:38:13Z</time>
      </trkpt>
      <trkpt lat="41.213857" lon="-6.469163">
        <ele>819.093</ele>
        <time>2018-07-24T07:38:14Z</time>
      </trkpt>
      <trkpt lat="41.213879" lon="-6.469205">
        <ele>819.066</ele>
        <time>2018-07-24T07:38:15Z</time>
      </trkpt>
      <trkpt lat="41.213924" lon="-6.469299">
        <ele>819.051</ele>
        <time>2018-07-24T07:38:17Z</time>
      </trkpt>
      <trkpt lat="41.213946" lon="-6.469343">
        <ele>818.986</ele>
        <time>2018-07-24T07:38:18Z</time>
      </trkpt>
      <trkpt lat="41.214022" lon="-6.469504">
        <ele>818.953</ele>
        <time>2018-07-24T07:38:22Z</time>
      </trkpt>
      <trkpt lat="41.214063" lon="-6.469557">
        <ele>818.919</ele>
        <time>2018-07-24T07:38:24Z</time>
      </trkpt>
      <trkpt lat="41.214109" lon="-6.469624">
        <ele>818.902</ele>
        <time>2018-07-24T07:38:26Z</time>
      </trkpt>
      <trkpt lat="41.214135" lon="-6.469663">
        <ele>818.733</ele>
        <time>2018-07-24T07:38:27Z</time>
      </trkpt>
      <trkpt lat="41.214161" lon="-6.469702">
        <ele>818.587</ele>
        <time>2018-07-24T07:38:28Z</time>
      </trkpt>
      <trkpt lat="41.214186" lon="-6.469744">
        <ele>818.469</ele>
        <time>2018-07-24T07:38:29Z</time>
      </trkpt>
      <trkpt lat="41.214213" lon="-6.469788">
        <ele>818.374</ele>
        <time>2018-07-24T07:38:30Z</time>
      </trkpt>
      <trkpt lat="41.21424" lon="-6.469827">
        <ele>818.357</ele>
        <time>2018-07-24T07:38:31Z</time>
      </trkpt>
      <trkpt lat="41.214288" lon="-6.469888">
        <ele>818.339</ele>
        <time>2018-07-24T07:38:33Z</time>
      </trkpt>
      <trkpt lat="41.214336" lon="-6.469948">
        <ele>818.33</ele>
        <time>2018-07-24T07:38:35Z</time>
      </trkpt>
      <trkpt lat="41.214361" lon="-6.469979">
        <ele>818.322</ele>
        <time>2018-07-24T07:38:36Z</time>
      </trkpt>
      <trkpt lat="41.214382" lon="-6.470008">
        <ele>818.313</ele>
        <time>2018-07-24T07:38:37Z</time>
      </trkpt>
      <trkpt lat="41.214404" lon="-6.47004">
        <ele>818.303</ele>
        <time>2018-07-24T07:38:38Z</time>
      </trkpt>
      <trkpt lat="41.214421" lon="-6.470062">
        <ele>818.293</ele>
        <time>2018-07-24T07:38:39Z</time>
      </trkpt>
      <trkpt lat="41.214442" lon="-6.47009">
        <ele>818.272</ele>
        <time>2018-07-24T07:38:40Z</time>
      </trkpt>
      <trkpt lat="41.214477" lon="-6.470132">
        <ele>818.248</ele>
        <time>2018-07-24T07:38:42Z</time>
      </trkpt>
      <trkpt lat="41.214509" lon="-6.470172">
        <ele>818.235</ele>
        <time>2018-07-24T07:38:44Z</time>
      </trkpt>
      <trkpt lat="41.214528" lon="-6.470198">
        <ele>818.223</ele>
        <time>2018-07-24T07:38:45Z</time>
      </trkpt>
      <trkpt lat="41.214551" lon="-6.470226">
        <ele>818.196</ele>
        <time>2018-07-24T07:38:46Z</time>
      </trkpt>
      <trkpt lat="41.214594" lon="-6.470271">
        <ele>818.182</ele>
        <time>2018-07-24T07:38:48Z</time>
      </trkpt>
      <trkpt lat="41.214614" lon="-6.470294">
        <ele>818.168</ele>
        <time>2018-07-24T07:38:49Z</time>
      </trkpt>
      <trkpt lat="41.214633" lon="-6.470317">
        <ele>818.154</ele>
        <time>2018-07-24T07:38:50Z</time>
      </trkpt>
      <trkpt lat="41.214652" lon="-6.470339">
        <ele>818.14</ele>
        <time>2018-07-24T07:38:51Z</time>
      </trkpt>
      <trkpt lat="41.214669" lon="-6.470359">
        <ele>818.127</ele>
        <time>2018-07-24T07:38:52Z</time>
      </trkpt>
      <trkpt lat="41.214689" lon="-6.470385">
        <ele>818.099</ele>
        <time>2018-07-24T07:38:53Z</time>
      </trkpt>
      <trkpt lat="41.214719" lon="-6.470419">
        <ele>818.06</ele>
        <time>2018-07-24T07:38:55Z</time>
      </trkpt>
      <trkpt lat="41.214778" lon="-6.47046">
        <ele>818.048</ele>
        <time>2018-07-24T07:38:58Z</time>
      </trkpt>
      <trkpt lat="41.214801" lon="-6.470478">
        <ele>818.022</ele>
        <time>2018-07-24T07:38:59Z</time>
      </trkpt>
      <trkpt lat="41.214835" lon="-6.470507">
        <ele>818.009</ele>
        <time>2018-07-24T07:39:01Z</time>
      </trkpt>
      <trkpt lat="41.214855" lon="-6.470524">
        <ele>817.984</ele>
        <time>2018-07-24T07:39:02Z</time>
      </trkpt>
      <trkpt lat="41.214885" lon="-6.470546">
        <ele>817.963</ele>
        <time>2018-07-24T07:39:04Z</time>
      </trkpt>
      <trkpt lat="41.214922" lon="-6.470571">
        <ele>817.942</ele>
        <time>2018-07-24T07:39:06Z</time>
      </trkpt>
      <trkpt lat="41.214962" lon="-6.470597">
        <ele>817.922</ele>
        <time>2018-07-24T07:39:08Z</time>
      </trkpt>
      <trkpt lat="41.214993" lon="-6.470619">
        <ele>817.914</ele>
        <time>2018-07-24T07:39:10Z</time>
      </trkpt>
      <trkpt lat="41.215017" lon="-6.470635">
        <ele>817.907</ele>
        <time>2018-07-24T07:39:11Z</time>
      </trkpt>
      <trkpt lat="41.215039" lon="-6.470648">
        <ele>817.888</ele>
        <time>2018-07-24T07:39:12Z</time>
      </trkpt>
      <trkpt lat="41.215088" lon="-6.470694">
        <ele>817.872</ele>
        <time>2018-07-24T07:39:15Z</time>
      </trkpt>
      <trkpt lat="41.215153" lon="-6.470723">
        <ele>817.856</ele>
        <time>2018-07-24T07:39:18Z</time>
      </trkpt>
      <trkpt lat="41.215205" lon="-6.470753">
        <ele>817.835</ele>
        <time>2018-07-24T07:39:21Z</time>
      </trkpt>
      <trkpt lat="41.215271" lon="-6.470782">
        <ele>817.821</ele>
        <time>2018-07-24T07:39:24Z</time>
      </trkpt>
      <trkpt lat="41.215315" lon="-6.470801">
        <ele>817.813</ele>
        <time>2018-07-24T07:39:26Z</time>
      </trkpt>
      <trkpt lat="41.215339" lon="-6.470809">
        <ele>817.806</ele>
        <time>2018-07-24T07:39:27Z</time>
      </trkpt>
      <trkpt lat="41.215361" lon="-6.470817">
        <ele>817.792</ele>
        <time>2018-07-24T07:39:28Z</time>
      </trkpt>
      <trkpt lat="41.215405" lon="-6.470836">
        <ele>817.767</ele>
        <time>2018-07-24T07:39:30Z</time>
      </trkpt>
      <trkpt lat="41.215461" lon="-6.470874">
        <ele>817.75</ele>
        <time>2018-07-24T07:39:34Z</time>
      </trkpt>
      <trkpt lat="41.215514" lon="-6.470898">
        <ele>817.739</ele>
        <time>2018-07-24T07:39:37Z</time>
      </trkpt>
      <trkpt lat="41.215549" lon="-6.470919">
        <ele>817.734</ele>
        <time>2018-07-24T07:39:39Z</time>
      </trkpt>
      <trkpt lat="41.215569" lon="-6.470933">
        <ele>817.726</ele>
        <time>2018-07-24T07:39:40Z</time>
      </trkpt>
      <trkpt lat="41.215615" lon="-6.470954">
        <ele>817.722</ele>
        <time>2018-07-24T07:39:42Z</time>
      </trkpt>
      <trkpt lat="41.215638" lon="-6.470967">
        <ele>817.715</ele>
        <time>2018-07-24T07:39:43Z</time>
      </trkpt>
      <trkpt lat="41.215679" lon="-6.470986">
        <ele>817.707</ele>
        <time>2018-07-24T07:39:45Z</time>
      </trkpt>
      <trkpt lat="41.215743" lon="-6.471024">
        <ele>817.704</ele>
        <time>2018-07-24T07:39:48Z</time>
      </trkpt>
      <trkpt lat="41.215769" lon="-6.471038">
        <ele>817.702</ele>
        <time>2018-07-24T07:39:49Z</time>
      </trkpt>
      <trkpt lat="41.215792" lon="-6.471048">
        <ele>817.7</ele>
        <time>2018-07-24T07:39:50Z</time>
      </trkpt>
      <trkpt lat="41.215816" lon="-6.471059">
        <ele>817.693</ele>
        <time>2018-07-24T07:39:51Z</time>
      </trkpt>
      <trkpt lat="41.215864" lon="-6.471096">
        <ele>817.689</ele>
        <time>2018-07-24T07:39:53Z</time>
      </trkpt>
      <trkpt lat="41.215886" lon="-6.471113">
        <ele>817.683</ele>
        <time>2018-07-24T07:39:54Z</time>
      </trkpt>
      <trkpt lat="41.215934" lon="-6.471141">
        <ele>817.681</ele>
        <time>2018-07-24T07:39:56Z</time>
      </trkpt>
      <trkpt lat="41.215964" lon="-6.471162">
        <ele>817.677</ele>
        <time>2018-07-24T07:39:57Z</time>
      </trkpt>
      <trkpt lat="41.21601" lon="-6.471201">
        <ele>817.673</ele>
        <time>2018-07-24T07:39:59Z</time>
      </trkpt>
      <trkpt lat="41.216054" lon="-6.471222">
        <ele>817.671</ele>
        <time>2018-07-24T07:40:01Z</time>
      </trkpt>
      <trkpt lat="41.216104" lon="-6.471262">
        <ele>817.669</ele>
        <time>2018-07-24T07:40:03Z</time>
      </trkpt>
      <trkpt lat="41.21616" lon="-6.471318">
        <ele>817.667</ele>
        <time>2018-07-24T07:40:05Z</time>
      </trkpt>
      <trkpt lat="41.216188" lon="-6.471345">
        <ele>817.667</ele>
        <time>2018-07-24T07:40:06Z</time>
      </trkpt>
      <trkpt lat="41.21625" lon="-6.4714">
        <ele>817.67</ele>
        <time>2018-07-24T07:40:08Z</time>
      </trkpt>
      <trkpt lat="41.216285" lon="-6.471431">
        <ele>817.678</ele>
        <time>2018-07-24T07:40:09Z</time>
      </trkpt>
      <trkpt lat="41.216325" lon="-6.471466">
        <ele>817.691</ele>
        <time>2018-07-24T07:40:10Z</time>
      </trkpt>
      <trkpt lat="41.216363" lon="-6.471505">
        <ele>817.704</ele>
        <time>2018-07-24T07:40:11Z</time>
      </trkpt>
      <trkpt lat="41.216408" lon="-6.471551">
        <ele>817.715</ele>
        <time>2018-07-24T07:40:12Z</time>
      </trkpt>
      <trkpt lat="41.216452" lon="-6.471589">
        <ele>817.72</ele>
        <time>2018-07-24T07:40:13Z</time>
      </trkpt>
      <trkpt lat="41.216501" lon="-6.471632">
        <ele>817.727</ele>
        <time>2018-07-24T07:40:14Z</time>
      </trkpt>
      <trkpt lat="41.21655" lon="-6.471672">
        <ele>817.731</ele>
        <time>2018-07-24T07:40:15Z</time>
      </trkpt>
      <trkpt lat="41.216607" lon="-6.47172">
        <ele>817.727</ele>
        <time>2018-07-24T07:40:16Z</time>
      </trkpt>
      <trkpt lat="41.216671" lon="-6.471769">
        <ele>817.726</ele>
        <time>2018-07-24T07:40:17Z</time>
      </trkpt>
      <trkpt lat="41.216732" lon="-6.471819">
        <ele>817.76</ele>
        <time>2018-07-24T07:40:18Z</time>
      </trkpt>
      <trkpt lat="41.216926" lon="-6.471987">
        <ele>817.765</ele>
        <time>2018-07-24T07:40:21Z</time>
      </trkpt>
      <trkpt lat="41.216994" lon="-6.472046">
        <ele>817.774</ele>
        <time>2018-07-24T07:40:22Z</time>
      </trkpt>
      <trkpt lat="41.217063" lon="-6.472103">
        <ele>817.792</ele>
        <time>2018-07-24T07:40:23Z</time>
      </trkpt>
      <trkpt lat="41.217124" lon="-6.472163">
        <ele>817.816</ele>
        <time>2018-07-24T07:40:24Z</time>
      </trkpt>
      <trkpt lat="41.217189" lon="-6.472217">
        <ele>817.872</ele>
        <time>2018-07-24T07:40:25Z</time>
      </trkpt>
      <trkpt lat="41.217251" lon="-6.47227">
        <ele>817.907</ele>
        <time>2018-07-24T07:40:26Z</time>
      </trkpt>
      <trkpt lat="41.21731" lon="-6.472321">
        <ele>817.924</ele>
        <time>2018-07-24T07:40:27Z</time>
      </trkpt>
      <trkpt lat="41.217367" lon="-6.47237">
        <ele>817.937</ele>
        <time>2018-07-24T07:40:28Z</time>
      </trkpt>
      <trkpt lat="41.217421" lon="-6.47242">
        <ele>817.954</ele>
        <time>2018-07-24T07:40:29Z</time>
      </trkpt>
      <trkpt lat="41.217475" lon="-6.47247">
        <ele>817.903</ele>
        <time>2018-07-24T07:40:30Z</time>
      </trkpt>
      <trkpt lat="41.21752" lon="-6.472532">
        <ele>817.814</ele>
        <time>2018-07-24T07:40:31Z</time>
      </trkpt>
      <trkpt lat="41.217564" lon="-6.4726">
        <ele>817.732</ele>
        <time>2018-07-24T07:40:32Z</time>
      </trkpt>
      <trkpt lat="41.217603" lon="-6.472674">
        <ele>817.64</ele>
        <time>2018-07-24T07:40:33Z</time>
      </trkpt>
      <trkpt lat="41.217642" lon="-6.472755">
        <ele>817.534</ele>
        <time>2018-07-24T07:40:34Z</time>
      </trkpt>
      <trkpt lat="41.217683" lon="-6.472838">
        <ele>817.44</ele>
        <time>2018-07-24T07:40:35Z</time>
      </trkpt>
      <trkpt lat="41.217723" lon="-6.472925">
        <ele>817.353</ele>
        <time>2018-07-24T07:40:36Z</time>
      </trkpt>
      <trkpt lat="41.217762" lon="-6.473017">
        <ele>817.274</ele>
        <time>2018-07-24T07:40:37Z</time>
      </trkpt>
      <trkpt lat="41.217803" lon="-6.473109">
        <ele>817.182</ele>
        <time>2018-07-24T07:40:38Z</time>
      </trkpt>
      <trkpt lat="41.217845" lon="-6.473201">
        <ele>817.077</ele>
        <time>2018-07-24T07:40:39Z</time>
      </trkpt>
      <trkpt lat="41.217887" lon="-6.4733">
        <ele>816.972</ele>
        <time>2018-07-24T07:40:40Z</time>
      </trkpt>
      <trkpt lat="41.21793" lon="-6.473403">
        <ele>816.905</ele>
        <time>2018-07-24T07:40:41Z</time>
      </trkpt>
      <trkpt lat="41.217976" lon="-6.473503">
        <ele>816.771</ele>
        <time>2018-07-24T07:40:42Z</time>
      </trkpt>
      <trkpt lat="41.218026" lon="-6.473601">
        <ele>816.655</ele>
        <time>2018-07-24T07:40:43Z</time>
      </trkpt>
      <trkpt lat="41.218076" lon="-6.473703">
        <ele>816.522</ele>
        <time>2018-07-24T07:40:44Z</time>
      </trkpt>
      <trkpt lat="41.218125" lon="-6.473807">
        <ele>816.386</ele>
        <time>2018-07-24T07:40:45Z</time>
      </trkpt>
      <trkpt lat="41.218175" lon="-6.473912">
        <ele>816.236</ele>
        <time>2018-07-24T07:40:46Z</time>
      </trkpt>
      <trkpt lat="41.218227" lon="-6.474018">
        <ele>816.028</ele>
        <time>2018-07-24T07:40:47Z</time>
      </trkpt>
      <trkpt lat="41.218285" lon="-6.474123">
        <ele>815.811</ele>
        <time>2018-07-24T07:40:48Z</time>
      </trkpt>
      <trkpt lat="41.218348" lon="-6.474225">
        <ele>815.586</ele>
        <time>2018-07-24T07:40:49Z</time>
      </trkpt>
      <trkpt lat="41.218419" lon="-6.474324">
        <ele>815.397</ele>
        <time>2018-07-24T07:40:50Z</time>
      </trkpt>
      <trkpt lat="41.218499" lon="-6.474414">
        <ele>815.155</ele>
        <time>2018-07-24T07:40:51Z</time>
      </trkpt>
      <trkpt lat="41.218584" lon="-6.4745">
        <ele>814.88</ele>
        <time>2018-07-24T07:40:52Z</time>
      </trkpt>
      <trkpt lat="41.218672" lon="-6.474584">
        <ele>814.605</ele>
        <time>2018-07-24T07:40:53Z</time>
      </trkpt>
      <trkpt lat="41.218758" lon="-6.474671">
        <ele>814.397</ele>
        <time>2018-07-24T07:40:54Z</time>
      </trkpt>
      <trkpt lat="41.218847" lon="-6.474755">
        <ele>814.125</ele>
        <time>2018-07-24T07:40:55Z</time>
      </trkpt>
      <trkpt lat="41.218935" lon="-6.474841">
        <ele>813.881</ele>
        <time>2018-07-24T07:40:56Z</time>
      </trkpt>
      <trkpt lat="41.219025" lon="-6.474927">
        <ele>813.64</ele>
        <time>2018-07-24T07:40:57Z</time>
      </trkpt>
      <trkpt lat="41.219115" lon="-6.475011">
        <ele>813.545</ele>
        <time>2018-07-24T07:40:58Z</time>
      </trkpt>
      <trkpt lat="41.219203" lon="-6.475093">
        <ele>813.433</ele>
        <time>2018-07-24T07:40:59Z</time>
      </trkpt>
      <trkpt lat="41.21929" lon="-6.475173">
        <ele>813.281</ele>
        <time>2018-07-24T07:41:00Z</time>
      </trkpt>
      <trkpt lat="41.219376" lon="-6.47525">
        <ele>813.069</ele>
        <time>2018-07-24T07:41:01Z</time>
      </trkpt>
      <trkpt lat="41.219468" lon="-6.475312">
        <ele>812.933</ele>
        <time>2018-07-24T07:41:02Z</time>
      </trkpt>
      <trkpt lat="41.219563" lon="-6.475355">
        <ele>812.831</ele>
        <time>2018-07-24T07:41:03Z</time>
      </trkpt>
      <trkpt lat="41.219659" lon="-6.47538">
        <ele>812.731</ele>
        <time>2018-07-24T07:41:04Z</time>
      </trkpt>
      <trkpt lat="41.219751" lon="-6.475401">
        <ele>812.6</ele>
        <time>2018-07-24T07:41:05Z</time>
      </trkpt>
      <trkpt lat="41.219843" lon="-6.475411">
        <ele>812.461</ele>
        <time>2018-07-24T07:41:06Z</time>
      </trkpt>
      <trkpt lat="41.21993" lon="-6.475424">
        <ele>812.257</ele>
        <time>2018-07-24T07:41:07Z</time>
      </trkpt>
      <trkpt lat="41.220014" lon="-6.475451">
        <ele>811.959</ele>
        <time>2018-07-24T07:41:08Z</time>
      </trkpt>
      <trkpt lat="41.220094" lon="-6.475503">
        <ele>811.591</ele>
        <time>2018-07-24T07:41:09Z</time>
      </trkpt>
      <trkpt lat="41.220172" lon="-6.475569">
        <ele>811.248</ele>
        <time>2018-07-24T07:41:10Z</time>
      </trkpt>
      <trkpt lat="41.220249" lon="-6.475641">
        <ele>810.882</ele>
        <time>2018-07-24T07:41:11Z</time>
      </trkpt>
      <trkpt lat="41.220326" lon="-6.475717">
        <ele>810.54</ele>
        <time>2018-07-24T07:41:12Z</time>
      </trkpt>
      <trkpt lat="41.220403" lon="-6.475794">
        <ele>810.205</ele>
        <time>2018-07-24T07:41:13Z</time>
      </trkpt>
      <trkpt lat="41.220482" lon="-6.475873">
        <ele>809.813</ele>
        <time>2018-07-24T07:41:14Z</time>
      </trkpt>
      <trkpt lat="41.220561" lon="-6.475955">
        <ele>809.487</ele>
        <time>2018-07-24T07:41:15Z</time>
      </trkpt>
      <trkpt lat="41.220639" lon="-6.476042">
        <ele>809.146</ele>
        <time>2018-07-24T07:41:16Z</time>
      </trkpt>
      <trkpt lat="41.220719" lon="-6.476125">
        <ele>808.782</ele>
        <time>2018-07-24T07:41:17Z</time>
      </trkpt>
      <trkpt lat="41.220799" lon="-6.476208">
        <ele>808.031</ele>
        <time>2018-07-24T07:41:18Z</time>
      </trkpt>
      <trkpt lat="41.220966" lon="-6.476357">
        <ele>807.569</ele>
        <time>2018-07-24T07:41:20Z</time>
      </trkpt>
      <trkpt lat="41.221052" lon="-6.47643">
        <ele>807.121</ele>
        <time>2018-07-24T07:41:21Z</time>
      </trkpt>
      <trkpt lat="41.22114" lon="-6.4765">
        <ele>806.71</ele>
        <time>2018-07-24T07:41:22Z</time>
      </trkpt>
      <trkpt lat="41.221226" lon="-6.476571">
        <ele>806.305</ele>
        <time>2018-07-24T07:41:23Z</time>
      </trkpt>
      <trkpt lat="41.221314" lon="-6.476639">
        <ele>805.982</ele>
        <time>2018-07-24T07:41:24Z</time>
      </trkpt>
      <trkpt lat="41.221398" lon="-6.476706">
        <ele>805.629</ele>
        <time>2018-07-24T07:41:25Z</time>
      </trkpt>
      <trkpt lat="41.221481" lon="-6.476773">
        <ele>805.285</ele>
        <time>2018-07-24T07:41:26Z</time>
      </trkpt>
      <trkpt lat="41.221565" lon="-6.476838">
        <ele>804.903</ele>
        <time>2018-07-24T07:41:27Z</time>
      </trkpt>
      <trkpt lat="41.22165" lon="-6.4769">
        <ele>804.597</ele>
        <time>2018-07-24T07:41:28Z</time>
      </trkpt>
      <trkpt lat="41.221734" lon="-6.476965">
        <ele>804.276</ele>
        <time>2018-07-24T07:41:29Z</time>
      </trkpt>
      <trkpt lat="41.221813" lon="-6.477031">
        <ele>803.82</ele>
        <time>2018-07-24T07:41:30Z</time>
      </trkpt>
      <trkpt lat="41.22188" lon="-6.477113">
        <ele>803.403</ele>
        <time>2018-07-24T07:41:31Z</time>
      </trkpt>
      <trkpt lat="41.221937" lon="-6.477218">
        <ele>802.419</ele>
        <time>2018-07-24T07:41:32Z</time>
      </trkpt>
      <trkpt lat="41.222043" lon="-6.477449">
        <ele>801.342</ele>
        <time>2018-07-24T07:41:34Z</time>
      </trkpt>
      <trkpt lat="41.222159" lon="-6.477674">
        <ele>800.895</ele>
        <time>2018-07-24T07:41:36Z</time>
      </trkpt>
      <trkpt lat="41.222213" lon="-6.477785">
        <ele>800.41</ele>
        <time>2018-07-24T07:41:37Z</time>
      </trkpt>
      <trkpt lat="41.222263" lon="-6.477898">
        <ele>799.874</ele>
        <time>2018-07-24T07:41:38Z</time>
      </trkpt>
      <trkpt lat="41.222307" lon="-6.478007">
        <ele>799.293</ele>
        <time>2018-07-24T07:41:39Z</time>
      </trkpt>
      <trkpt lat="41.222336" lon="-6.478118">
        <ele>798.719</ele>
        <time>2018-07-24T07:41:40Z</time>
      </trkpt>
      <trkpt lat="41.222342" lon="-6.478238">
        <ele>798.152</ele>
        <time>2018-07-24T07:41:41Z</time>
      </trkpt>
      <trkpt lat="41.222332" lon="-6.478364">
        <ele>796.321</ele>
        <time>2018-07-24T07:41:42Z</time>
      </trkpt>
      <trkpt lat="41.222317" lon="-6.478755">
        <ele>795.655</ele>
        <time>2018-07-24T07:41:45Z</time>
      </trkpt>
      <trkpt lat="41.222335" lon="-6.478891">
        <ele>795.045</ele>
        <time>2018-07-24T07:41:46Z</time>
      </trkpt>
      <trkpt lat="41.222358" lon="-6.479031">
        <ele>794.54</ele>
        <time>2018-07-24T07:41:47Z</time>
      </trkpt>
      <trkpt lat="41.222382" lon="-6.479168">
        <ele>793.999</ele>
        <time>2018-07-24T07:41:48Z</time>
      </trkpt>
      <trkpt lat="41.222406" lon="-6.479309">
        <ele>793.424</ele>
        <time>2018-07-24T07:41:49Z</time>
      </trkpt>
      <trkpt lat="41.222432" lon="-6.479451">
        <ele>792.868</ele>
        <time>2018-07-24T07:41:50Z</time>
      </trkpt>
      <trkpt lat="41.222455" lon="-6.479595">
        <ele>792.328</ele>
        <time>2018-07-24T07:41:51Z</time>
      </trkpt>
      <trkpt lat="41.222486" lon="-6.479737">
        <ele>791.876</ele>
        <time>2018-07-24T07:41:52Z</time>
      </trkpt>
      <trkpt lat="41.222513" lon="-6.479882">
        <ele>791.362</ele>
        <time>2018-07-24T07:41:53Z</time>
      </trkpt>
      <trkpt lat="41.222541" lon="-6.480024">
        <ele>790.784</ele>
        <time>2018-07-24T07:41:54Z</time>
      </trkpt>
      <trkpt lat="41.222566" lon="-6.480164">
        <ele>790.188</ele>
        <time>2018-07-24T07:41:55Z</time>
      </trkpt>
      <trkpt lat="41.222599" lon="-6.480295">
        <ele>789.524</ele>
        <time>2018-07-24T07:41:56Z</time>
      </trkpt>
      <trkpt lat="41.222635" lon="-6.48042">
        <ele>788.851</ele>
        <time>2018-07-24T07:41:57Z</time>
      </trkpt>
      <trkpt lat="41.222677" lon="-6.480536">
        <ele>788.199</ele>
        <time>2018-07-24T07:41:58Z</time>
      </trkpt>
      <trkpt lat="41.222729" lon="-6.480632">
        <ele>787.543</ele>
        <time>2018-07-24T07:41:59Z</time>
      </trkpt>
      <trkpt lat="41.22279" lon="-6.480705">
        <ele>786.86</ele>
        <time>2018-07-24T07:42:00Z</time>
      </trkpt>
      <trkpt lat="41.22286" lon="-6.480764">
        <ele>786.312</ele>
        <time>2018-07-24T07:42:01Z</time>
      </trkpt>
      <trkpt lat="41.222935" lon="-6.48081">
        <ele>785.753</ele>
        <time>2018-07-24T07:42:02Z</time>
      </trkpt>
      <trkpt lat="41.223014" lon="-6.480841">
        <ele>785.149</ele>
        <time>2018-07-24T07:42:03Z</time>
      </trkpt>
      <trkpt lat="41.223095" lon="-6.480859">
        <ele>784.607</ele>
        <time>2018-07-24T07:42:04Z</time>
      </trkpt>
      <trkpt lat="41.223175" lon="-6.48087">
        <ele>784.055</ele>
        <time>2018-07-24T07:42:05Z</time>
      </trkpt>
      <trkpt lat="41.223253" lon="-6.480878">
        <ele>782.895</ele>
        <time>2018-07-24T07:42:06Z</time>
      </trkpt>
      <trkpt lat="41.223403" lon="-6.480893">
        <ele>782.374</ele>
        <time>2018-07-24T07:42:08Z</time>
      </trkpt>
      <trkpt lat="41.223476" lon="-6.480899">
        <ele>781.854</ele>
        <time>2018-07-24T07:42:09Z</time>
      </trkpt>
      <trkpt lat="41.223547" lon="-6.4809">
        <ele>780.804</ele>
        <time>2018-07-24T07:42:10Z</time>
      </trkpt>
      <trkpt lat="41.223681" lon="-6.480898">
        <ele>780.284</ele>
        <time>2018-07-24T07:42:12Z</time>
      </trkpt>
      <trkpt lat="41.223747" lon="-6.480895">
        <ele>779.742</ele>
        <time>2018-07-24T07:42:13Z</time>
      </trkpt>
      <trkpt lat="41.223813" lon="-6.48089">
        <ele>779.221</ele>
        <time>2018-07-24T07:42:14Z</time>
      </trkpt>
      <trkpt lat="41.223878" lon="-6.480885">
        <ele>778.709</ele>
        <time>2018-07-24T07:42:15Z</time>
      </trkpt>
      <trkpt lat="41.223943" lon="-6.480881">
        <ele>778.226</ele>
        <time>2018-07-24T07:42:16Z</time>
      </trkpt>
      <trkpt lat="41.224005" lon="-6.480873">
        <ele>777.749</ele>
        <time>2018-07-24T07:42:17Z</time>
      </trkpt>
      <trkpt lat="41.224067" lon="-6.480867">
        <ele>777.284</ele>
        <time>2018-07-24T07:42:18Z</time>
      </trkpt>
      <trkpt lat="41.224126" lon="-6.480862">
        <ele>776.863</ele>
        <time>2018-07-24T07:42:19Z</time>
      </trkpt>
      <trkpt lat="41.224183" lon="-6.480857">
        <ele>776.445</ele>
        <time>2018-07-24T07:42:20Z</time>
      </trkpt>
      <trkpt lat="41.224239" lon="-6.480851">
        <ele>776.058</ele>
        <time>2018-07-24T07:42:21Z</time>
      </trkpt>
      <trkpt lat="41.224295" lon="-6.480847">
        <ele>775.671</ele>
        <time>2018-07-24T07:42:22Z</time>
      </trkpt>
      <trkpt lat="41.224351" lon="-6.480846">
        <ele>775.271</ele>
        <time>2018-07-24T07:42:23Z</time>
      </trkpt>
      <trkpt lat="41.224401" lon="-6.480847">
        <ele>774.89</ele>
        <time>2018-07-24T07:42:24Z</time>
      </trkpt>
      <trkpt lat="41.224449" lon="-6.480856">
        <ele>774.142</ele>
        <time>2018-07-24T07:42:25Z</time>
      </trkpt>
      <trkpt lat="41.224536" lon="-6.480893">
        <ele>773.754</ele>
        <time>2018-07-24T07:42:27Z</time>
      </trkpt>
      <trkpt lat="41.224581" lon="-6.48092">
        <ele>773.39</ele>
        <time>2018-07-24T07:42:28Z</time>
      </trkpt>
      <trkpt lat="41.224632" lon="-6.480952">
        <ele>773.141</ele>
        <time>2018-07-24T07:42:29Z</time>
      </trkpt>
      <trkpt lat="41.22468" lon="-6.480988">
        <ele>772.886</ele>
        <time>2018-07-24T07:42:30Z</time>
      </trkpt>
      <trkpt lat="41.224719" lon="-6.481027">
        <ele>772.639</ele>
        <time>2018-07-24T07:42:31Z</time>
      </trkpt>
      <trkpt lat="41.224755" lon="-6.481071">
        <ele>772.499</ele>
        <time>2018-07-24T07:42:32Z</time>
      </trkpt>
      <trkpt lat="41.224786" lon="-6.481119">
        <ele>772.184</ele>
        <time>2018-07-24T07:42:33Z</time>
      </trkpt>
      <trkpt lat="41.224827" lon="-6.481221">
        <ele>771.933</ele>
        <time>2018-07-24T07:42:35Z</time>
      </trkpt>
      <trkpt lat="41.224844" lon="-6.481269">
        <ele>771.699</ele>
        <time>2018-07-24T07:42:36Z</time>
      </trkpt>
      <trkpt lat="41.224862" lon="-6.48132">
        <ele>771.495</ele>
        <time>2018-07-24T07:42:37Z</time>
      </trkpt>
      <trkpt lat="41.224875" lon="-6.481369">
        <ele>771.284</ele>
        <time>2018-07-24T07:42:38Z</time>
      </trkpt>
      <trkpt lat="41.224889" lon="-6.481462">
        <ele>771.25</ele>
        <time>2018-07-24T07:42:40Z</time>
      </trkpt>
      <trkpt lat="41.224915" lon="-6.48154">
        <ele>771.22</ele>
        <time>2018-07-24T07:42:42Z</time>
      </trkpt>
      <trkpt lat="41.224923" lon="-6.481627">
        <ele>771.201</ele>
        <time>2018-07-24T07:42:44Z</time>
      </trkpt>
      <trkpt lat="41.224925" lon="-6.481671">
        <ele>771.151</ele>
        <time>2018-07-24T07:42:45Z</time>
      </trkpt>
      <trkpt lat="41.224925" lon="-6.481741">
        <ele>771.123</ele>
        <time>2018-07-24T07:42:47Z</time>
      </trkpt>
      <trkpt lat="41.224924" lon="-6.481771">
        <ele>771.093</ele>
        <time>2018-07-24T07:42:48Z</time>
      </trkpt>
      <trkpt lat="41.224922" lon="-6.481801">
        <ele>771.038</ele>
        <time>2018-07-24T07:42:49Z</time>
      </trkpt>
      <trkpt lat="41.22492" lon="-6.481857">
        <ele>770.951</ele>
        <time>2018-07-24T07:42:51Z</time>
      </trkpt>
      <trkpt lat="41.22493" lon="-6.481945">
        <ele>770.921</ele>
        <time>2018-07-24T07:42:54Z</time>
      </trkpt>
      <trkpt lat="41.224945" lon="-6.482002">
        <ele>770.884</ele>
        <time>2018-07-24T07:42:56Z</time>
      </trkpt>
      <trkpt lat="41.224993" lon="-6.482103">
        <ele>770.861</ele>
        <time>2018-07-24T07:43:00Z</time>
      </trkpt>
      <trkpt lat="41.22503" lon="-6.482152">
        <ele>770.8</ele>
        <time>2018-07-24T07:43:02Z</time>
      </trkpt>
      <trkpt lat="41.225131" lon="-6.482229">
        <ele>770.778</ele>
        <time>2018-07-24T07:43:07Z</time>
      </trkpt>
      <trkpt lat="41.225163" lon="-6.482249">
        <ele>770.72</ele>
        <time>2018-07-24T07:43:09Z</time>
      </trkpt>
      <trkpt lat="41.225216" lon="-6.482273">
        <ele>770.676</ele>
        <time>2018-07-24T07:43:13Z</time>
      </trkpt>
      <trkpt lat="41.225267" lon="-6.482325">
        <ele>770.645</ele>
        <time>2018-07-24T07:43:16Z</time>
      </trkpt>
      <trkpt lat="41.225299" lon="-6.482363">
        <ele>770.598</ele>
        <time>2018-07-24T07:43:18Z</time>
      </trkpt>
      <trkpt lat="41.225336" lon="-6.482439">
        <ele>770.564</ele>
        <time>2018-07-24T07:43:21Z</time>
      </trkpt>
      <trkpt lat="41.225358" lon="-6.482484">
        <ele>770.528</ele>
        <time>2018-07-24T07:43:23Z</time>
      </trkpt>
      <trkpt lat="41.225376" lon="-6.482525">
        <ele>770.475</ele>
        <time>2018-07-24T07:43:25Z</time>
      </trkpt>
      <trkpt lat="41.225374" lon="-6.482589">
        <ele>770.424</ele>
        <time>2018-07-24T07:43:28Z</time>
      </trkpt>
      <trkpt lat="41.225385" lon="-6.482659">
        <ele>770.378</ele>
        <time>2018-07-24T07:43:31Z</time>
      </trkpt>
      <trkpt lat="41.22539" lon="-6.482719">
        <ele>770.34</ele>
        <time>2018-07-24T07:43:34Z</time>
      </trkpt>
      <trkpt lat="41.225385" lon="-6.482785">
        <ele>770.319</ele>
        <time>2018-07-24T07:43:37Z</time>
      </trkpt>
      <trkpt lat="41.225379" lon="-6.482837">
        <ele>770.3</ele>
        <time>2018-07-24T07:43:39Z</time>
      </trkpt>
      <trkpt lat="41.225374" lon="-6.482886">
        <ele>770.281</ele>
        <time>2018-07-24T07:43:41Z</time>
      </trkpt>
      <trkpt lat="41.225371" lon="-6.482937">
        <ele>770.255</ele>
        <time>2018-07-24T07:43:43Z</time>
      </trkpt>
      <trkpt lat="41.225377" lon="-6.483014">
        <ele>770.238</ele>
        <time>2018-07-24T07:43:46Z</time>
      </trkpt>
      <trkpt lat="41.225373" lon="-6.483075">
        <ele>770.223</ele>
        <time>2018-07-24T07:43:48Z</time>
      </trkpt>
      <trkpt lat="41.225375" lon="-6.483137">
        <ele>770.202</ele>
        <time>2018-07-24T07:43:50Z</time>
      </trkpt>
      <trkpt lat="41.225376" lon="-6.483221">
        <ele>770.196</ele>
        <time>2018-07-24T07:43:53Z</time>
      </trkpt>
      <trkpt lat="41.225376" lon="-6.483252">
        <ele>770.189</ele>
        <time>2018-07-24T07:43:54Z</time>
      </trkpt>
      <trkpt lat="41.225376" lon="-6.483291">
        <ele>770.173</ele>
        <time>2018-07-24T07:43:55Z</time>
      </trkpt>
      <trkpt lat="41.225387" lon="-6.483372">
        <ele>770.169</ele>
        <time>2018-07-24T07:43:58Z</time>
      </trkpt>
      <trkpt lat="41.225391" lon="-6.483403">
        <ele>770.159</ele>
        <time>2018-07-24T07:43:59Z</time>
      </trkpt>
      <trkpt lat="41.225387" lon="-6.483478">
        <ele>770.157</ele>
        <time>2018-07-24T07:44:03Z</time>
      </trkpt>
      <trkpt lat="41.225386" lon="-6.483552">
        <ele>770.152</ele>
        <time>2018-07-24T07:44:06Z</time>
      </trkpt>
      <trkpt lat="41.225403" lon="-6.483642">
        <ele>770.148</ele>
        <time>2018-07-24T07:44:09Z</time>
      </trkpt>
      <trkpt lat="41.225409" lon="-6.483671">
        <ele>770.14</ele>
        <time>2018-07-24T07:44:10Z</time>
      </trkpt>
      <trkpt lat="41.225418" lon="-6.483738">
        <ele>770.133</ele>
        <time>2018-07-24T07:44:13Z</time>
      </trkpt>
      <trkpt lat="41.225426" lon="-6.483784">
        <ele>770.129</ele>
        <time>2018-07-24T07:44:16Z</time>
      </trkpt>
      <trkpt lat="41.225432" lon="-6.483848">
        <ele>770.135</ele>
        <time>2018-07-24T07:44:20Z</time>
      </trkpt>
      <trkpt lat="41.225451" lon="-6.48392">
        <ele>770.14</ele>
        <time>2018-07-24T07:44:24Z</time>
      </trkpt>
      <trkpt lat="41.225457" lon="-6.483956">
        <ele>770.148</ele>
        <time>2018-07-24T07:44:26Z</time>
      </trkpt>
      <trkpt lat="41.225466" lon="-6.483989">
        <ele>770.165</ele>
        <time>2018-07-24T07:44:28Z</time>
      </trkpt>
      <trkpt lat="41.225479" lon="-6.484035">
        <ele>770.178</ele>
        <time>2018-07-24T07:44:31Z</time>
      </trkpt>
      <trkpt lat="41.225488" lon="-6.484068">
        <ele>770.191</ele>
        <time>2018-07-24T07:44:33Z</time>
      </trkpt>
      <trkpt lat="41.225497" lon="-6.484096">
        <ele>770.222</ele>
        <time>2018-07-24T07:44:35Z</time>
      </trkpt>
      <trkpt lat="41.225527" lon="-6.48417">
        <ele>770.247</ele>
        <time>2018-07-24T07:44:39Z</time>
      </trkpt>
      <trkpt lat="41.225558" lon="-6.484226">
        <ele>770.265</ele>
        <time>2018-07-24T07:44:42Z</time>
      </trkpt>
      <trkpt lat="41.225576" lon="-6.484257">
        <ele>770.275</ele>
        <time>2018-07-24T07:44:44Z</time>
      </trkpt>
      <trkpt lat="41.22559" lon="-6.484282">
        <ele>770.291</ele>
        <time>2018-07-24T07:44:45Z</time>
      </trkpt>
      <trkpt lat="41.225609" lon="-6.484322">
        <ele>770.317</ele>
        <time>2018-07-24T07:44:47Z</time>
      </trkpt>
      <trkpt lat="41.225658" lon="-6.484382">
        <ele>770.336</ele>
        <time>2018-07-24T07:44:50Z</time>
      </trkpt>
      <trkpt lat="41.225698" lon="-6.484424">
        <ele>770.355</ele>
        <time>2018-07-24T07:44:52Z</time>
      </trkpt>
      <trkpt lat="41.225739" lon="-6.484473">
        <ele>770.38</ele>
        <time>2018-07-24T07:44:54Z</time>
      </trkpt>
      <trkpt lat="41.225791" lon="-6.484535">
        <ele>770.397</ele>
        <time>2018-07-24T07:44:57Z</time>
      </trkpt>
      <trkpt lat="41.225815" lon="-6.484561">
        <ele>770.421</ele>
        <time>2018-07-24T07:44:59Z</time>
      </trkpt>
      <trkpt lat="41.225852" lon="-6.484627">
        <ele>770.437</ele>
        <time>2018-07-24T07:45:02Z</time>
      </trkpt>
      <trkpt lat="41.225876" lon="-6.484674">
        <ele>770.445</ele>
        <time>2018-07-24T07:45:04Z</time>
      </trkpt>
      <trkpt lat="41.225889" lon="-6.484699">
        <ele>770.47</ele>
        <time>2018-07-24T07:45:05Z</time>
      </trkpt>
      <trkpt lat="41.225915" lon="-6.484779">
        <ele>770.498</ele>
        <time>2018-07-24T07:45:08Z</time>
      </trkpt>
      <trkpt lat="41.225927" lon="-6.484851">
        <ele>770.521</ele>
        <time>2018-07-24T07:45:11Z</time>
      </trkpt>
      <trkpt lat="41.225925" lon="-6.484915">
        <ele>770.534</ele>
        <time>2018-07-24T07:45:13Z</time>
      </trkpt>
      <trkpt lat="41.225924" lon="-6.484946">
        <ele>770.548</ele>
        <time>2018-07-24T07:45:14Z</time>
      </trkpt>
      <trkpt lat="41.225921" lon="-6.484978">
        <ele>770.596</ele>
        <time>2018-07-24T07:45:15Z</time>
      </trkpt>
      <trkpt lat="41.225914" lon="-6.485057">
        <ele>770.631</ele>
        <time>2018-07-24T07:45:18Z</time>
      </trkpt>
      <trkpt lat="41.225912" lon="-6.485105">
        <ele>770.67</ele>
        <time>2018-07-24T07:45:20Z</time>
      </trkpt>
      <trkpt lat="41.225909" lon="-6.485151">
        <ele>770.711</ele>
        <time>2018-07-24T07:45:22Z</time>
      </trkpt>
      <trkpt lat="41.225906" lon="-6.485195">
        <ele>770.773</ele>
        <time>2018-07-24T07:45:24Z</time>
      </trkpt>
      <trkpt lat="41.225898" lon="-6.485261">
        <ele>770.814</ele>
        <time>2018-07-24T07:45:27Z</time>
      </trkpt>
      <trkpt lat="41.225892" lon="-6.485311">
        <ele>770.856</ele>
        <time>2018-07-24T07:45:29Z</time>
      </trkpt>
      <trkpt lat="41.225885" lon="-6.485362">
        <ele>770.877</ele>
        <time>2018-07-24T07:45:31Z</time>
      </trkpt>
      <trkpt lat="41.225882" lon="-6.485392">
        <ele>770.897</ele>
        <time>2018-07-24T07:45:32Z</time>
      </trkpt>
      <trkpt lat="41.225879" lon="-6.485422">
        <ele>770.961</ele>
        <time>2018-07-24T07:45:33Z</time>
      </trkpt>
      <trkpt lat="41.225876" lon="-6.48551">
        <ele>771.004</ele>
        <time>2018-07-24T07:45:36Z</time>
      </trkpt>
      <trkpt lat="41.225873" lon="-6.485566">
        <ele>771.049</ele>
        <time>2018-07-24T07:45:38Z</time>
      </trkpt>
      <trkpt lat="41.225869" lon="-6.485609">
        <ele>771.093</ele>
        <time>2018-07-24T07:45:40Z</time>
      </trkpt>
      <trkpt lat="41.225865" lon="-6.485661">
        <ele>771.136</ele>
        <time>2018-07-24T07:45:42Z</time>
      </trkpt>
      <trkpt lat="41.225862" lon="-6.485707">
        <ele>771.2</ele>
        <time>2018-07-24T07:45:44Z</time>
      </trkpt>
      <trkpt lat="41.225845" lon="-6.485771">
        <ele>771.264</ele>
        <time>2018-07-24T07:45:47Z</time>
      </trkpt>
      <trkpt lat="41.225837" lon="-6.485855">
        <ele>771.285</ele>
        <time>2018-07-24T07:45:50Z</time>
      </trkpt>
      <trkpt lat="41.225834" lon="-6.485886">
        <ele>771.327</ele>
        <time>2018-07-24T07:45:51Z</time>
      </trkpt>
      <trkpt lat="41.225828" lon="-6.485939">
        <ele>771.369</ele>
        <time>2018-07-24T07:45:53Z</time>
      </trkpt>
      <trkpt lat="41.225819" lon="-6.485993">
        <ele>771.391</ele>
        <time>2018-07-24T07:45:55Z</time>
      </trkpt>
      <trkpt lat="41.225815" lon="-6.486023">
        <ele>771.435</ele>
        <time>2018-07-24T07:45:56Z</time>
      </trkpt>
      <trkpt lat="41.225806" lon="-6.486078">
        <ele>771.457</ele>
        <time>2018-07-24T07:45:58Z</time>
      </trkpt>
      <trkpt lat="41.2258" lon="-6.486107">
        <ele>771.48</ele>
        <time>2018-07-24T07:45:59Z</time>
      </trkpt>
      <trkpt lat="41.225793" lon="-6.486137">
        <ele>771.525</ele>
        <time>2018-07-24T07:46:00Z</time>
      </trkpt>
      <trkpt lat="41.225777" lon="-6.486187">
        <ele>771.596</ele>
        <time>2018-07-24T07:46:02Z</time>
      </trkpt>
      <trkpt lat="41.225766" lon="-6.486264">
        <ele>771.644</ele>
        <time>2018-07-24T07:46:05Z</time>
      </trkpt>
      <trkpt lat="41.225757" lon="-6.486321">
        <ele>771.717</ele>
        <time>2018-07-24T07:46:07Z</time>
      </trkpt>
      <trkpt lat="41.225729" lon="-6.486384">
        <ele>771.79</ele>
        <time>2018-07-24T07:46:10Z</time>
      </trkpt>
      <trkpt lat="41.225712" lon="-6.486472">
        <ele>771.839</ele>
        <time>2018-07-24T07:46:13Z</time>
      </trkpt>
      <trkpt lat="41.2257" lon="-6.486518">
        <ele>771.887</ele>
        <time>2018-07-24T07:46:15Z</time>
      </trkpt>
      <trkpt lat="41.225689" lon="-6.486571">
        <ele>771.959</ele>
        <time>2018-07-24T07:46:17Z</time>
      </trkpt>
      <trkpt lat="41.225666" lon="-6.486642">
        <ele>772.007</ele>
        <time>2018-07-24T07:46:20Z</time>
      </trkpt>
      <trkpt lat="41.225655" lon="-6.486686">
        <ele>772.056</ele>
        <time>2018-07-24T07:46:22Z</time>
      </trkpt>
      <trkpt lat="41.225642" lon="-6.486726">
        <ele>772.103</ele>
        <time>2018-07-24T07:46:24Z</time>
      </trkpt>
      <trkpt lat="41.225626" lon="-6.48678">
        <ele>772.151</ele>
        <time>2018-07-24T07:46:26Z</time>
      </trkpt>
      <trkpt lat="41.225612" lon="-6.486825">
        <ele>772.197</ele>
        <time>2018-07-24T07:46:28Z</time>
      </trkpt>
      <trkpt lat="41.225599" lon="-6.486873">
        <ele>772.266</ele>
        <time>2018-07-24T07:46:30Z</time>
      </trkpt>
      <trkpt lat="41.225588" lon="-6.486933">
        <ele>772.336</ele>
        <time>2018-07-24T07:46:33Z</time>
      </trkpt>
      <trkpt lat="41.225568" lon="-6.486999">
        <ele>772.381</ele>
        <time>2018-07-24T07:46:36Z</time>
      </trkpt>
      <trkpt lat="41.225557" lon="-6.487071">
        <ele>772.426</ele>
        <time>2018-07-24T07:46:38Z</time>
      </trkpt>
      <trkpt lat="41.225548" lon="-6.487144">
        <ele>772.472</ele>
        <time>2018-07-24T07:46:40Z</time>
      </trkpt>
      <trkpt lat="41.225541" lon="-6.487208">
        <ele>772.495</ele>
        <time>2018-07-24T07:46:42Z</time>
      </trkpt>
      <trkpt lat="41.225538" lon="-6.487245">
        <ele>772.518</ele>
        <time>2018-07-24T07:46:43Z</time>
      </trkpt>
      <trkpt lat="41.225535" lon="-6.487278">
        <ele>772.564</ele>
        <time>2018-07-24T07:46:44Z</time>
      </trkpt>
      <trkpt lat="41.225524" lon="-6.487339">
        <ele>772.633</ele>
        <time>2018-07-24T07:46:46Z</time>
      </trkpt>
      <trkpt lat="41.225502" lon="-6.487425">
        <ele>772.701</ele>
        <time>2018-07-24T07:46:49Z</time>
      </trkpt>
      <trkpt lat="41.225491" lon="-6.487501">
        <ele>772.747</ele>
        <time>2018-07-24T07:46:52Z</time>
      </trkpt>
      <trkpt lat="41.225485" lon="-6.487556">
        <ele>772.818</ele>
        <time>2018-07-24T07:46:54Z</time>
      </trkpt>
      <trkpt lat="41.225471" lon="-6.487634">
        <ele>772.842</ele>
        <time>2018-07-24T07:46:57Z</time>
      </trkpt>
      <trkpt lat="41.225465" lon="-6.487667">
        <ele>772.889</ele>
        <time>2018-07-24T07:46:58Z</time>
      </trkpt>
      <trkpt lat="41.225456" lon="-6.487719">
        <ele>772.936</ele>
        <time>2018-07-24T07:47:00Z</time>
      </trkpt>
      <trkpt lat="41.22544" lon="-6.487782">
        <ele>772.959</ele>
        <time>2018-07-24T07:47:02Z</time>
      </trkpt>
      <trkpt lat="41.225433" lon="-6.487814">
        <ele>773.006</ele>
        <time>2018-07-24T07:47:03Z</time>
      </trkpt>
      <trkpt lat="41.225426" lon="-6.487874">
        <ele>773.054</ele>
        <time>2018-07-24T07:47:05Z</time>
      </trkpt>
      <trkpt lat="41.225428" lon="-6.487946">
        <ele>773.079</ele>
        <time>2018-07-24T07:47:07Z</time>
      </trkpt>
      <trkpt lat="41.225427" lon="-6.487988">
        <ele>773.103</ele>
        <time>2018-07-24T07:47:08Z</time>
      </trkpt>
      <trkpt lat="41.225429" lon="-6.488021">
        <ele>773.152</ele>
        <time>2018-07-24T07:47:09Z</time>
      </trkpt>
      <trkpt lat="41.225425" lon="-6.488094">
        <ele>773.178</ele>
        <time>2018-07-24T07:47:11Z</time>
      </trkpt>
      <trkpt lat="41.225424" lon="-6.488125">
        <ele>773.228</ele>
        <time>2018-07-24T07:47:12Z</time>
      </trkpt>
      <trkpt lat="41.225422" lon="-6.488186">
        <ele>773.278</ele>
        <time>2018-07-24T07:47:14Z</time>
      </trkpt>
      <trkpt lat="41.225408" lon="-6.488246">
        <ele>773.303</ele>
        <time>2018-07-24T07:47:16Z</time>
      </trkpt>
      <trkpt lat="41.225403" lon="-6.488276">
        <ele>773.354</ele>
        <time>2018-07-24T07:47:17Z</time>
      </trkpt>
      <trkpt lat="41.225399" lon="-6.488345">
        <ele>773.404</ele>
        <time>2018-07-24T07:47:19Z</time>
      </trkpt>
      <trkpt lat="41.225389" lon="-6.488406">
        <ele>773.454</ele>
        <time>2018-07-24T07:47:21Z</time>
      </trkpt>
      <trkpt lat="41.225385" lon="-6.488473">
        <ele>773.479</ele>
        <time>2018-07-24T07:47:23Z</time>
      </trkpt>
      <trkpt lat="41.225383" lon="-6.488509">
        <ele>773.555</ele>
        <time>2018-07-24T07:47:24Z</time>
      </trkpt>
      <trkpt lat="41.225369" lon="-6.488608">
        <ele>773.605</ele>
        <time>2018-07-24T07:47:27Z</time>
      </trkpt>
      <trkpt lat="41.22537" lon="-6.488679">
        <ele>773.685</ele>
        <time>2018-07-24T07:47:29Z</time>
      </trkpt>
      <trkpt lat="41.22538" lon="-6.488765">
        <ele>773.767</ele>
        <time>2018-07-24T07:47:32Z</time>
      </trkpt>
      <trkpt lat="41.225383" lon="-6.488836">
        <ele>773.848</ele>
        <time>2018-07-24T07:47:35Z</time>
      </trkpt>
      <trkpt lat="41.225392" lon="-6.488909">
        <ele>773.875</ele>
        <time>2018-07-24T07:47:38Z</time>
      </trkpt>
      <trkpt lat="41.225396" lon="-6.488941">
        <ele>773.929</ele>
        <time>2018-07-24T07:47:39Z</time>
      </trkpt>
      <trkpt lat="41.225404" lon="-6.488994">
        <ele>773.982</ele>
        <time>2018-07-24T07:47:41Z</time>
      </trkpt>
      <trkpt lat="41.225414" lon="-6.489045">
        <ele>774.008</ele>
        <time>2018-07-24T07:47:43Z</time>
      </trkpt>
      <trkpt lat="41.225422" lon="-6.489074">
        <ele>774.06</ele>
        <time>2018-07-24T07:47:44Z</time>
      </trkpt>
      <trkpt lat="41.225437" lon="-6.489123">
        <ele>774.137</ele>
        <time>2018-07-24T07:47:46Z</time>
      </trkpt>
      <trkpt lat="41.225449" lon="-6.489186">
        <ele>774.235</ele>
        <time>2018-07-24T07:47:49Z</time>
      </trkpt>
      <trkpt lat="41.225491" lon="-6.489264">
        <ele>774.259</ele>
        <time>2018-07-24T07:47:53Z</time>
      </trkpt>
      <trkpt lat="41.225504" lon="-6.489289">
        <ele>774.283</ele>
        <time>2018-07-24T07:47:54Z</time>
      </trkpt>
      <trkpt lat="41.225518" lon="-6.489314">
        <ele>774.306</ele>
        <time>2018-07-24T07:47:55Z</time>
      </trkpt>
      <trkpt lat="41.225533" lon="-6.489338">
        <ele>774.351</ele>
        <time>2018-07-24T07:47:56Z</time>
      </trkpt>
      <trkpt lat="41.225559" lon="-6.48938">
        <ele>774.396</ele>
        <time>2018-07-24T07:47:58Z</time>
      </trkpt>
      <trkpt lat="41.225581" lon="-6.489424">
        <ele>774.44</ele>
        <time>2018-07-24T07:48:00Z</time>
      </trkpt>
      <trkpt lat="41.225605" lon="-6.48948">
        <ele>774.503</ele>
        <time>2018-07-24T07:48:02Z</time>
      </trkpt>
      <trkpt lat="41.225639" lon="-6.489547">
        <ele>774.544</ele>
        <time>2018-07-24T07:48:05Z</time>
      </trkpt>
      <trkpt lat="41.225666" lon="-6.489597">
        <ele>774.584</ele>
        <time>2018-07-24T07:48:07Z</time>
      </trkpt>
      <trkpt lat="41.225691" lon="-6.489648">
        <ele>774.622</ele>
        <time>2018-07-24T07:48:09Z</time>
      </trkpt>
      <trkpt lat="41.225712" lon="-6.489712">
        <ele>774.642</ele>
        <time>2018-07-24T07:48:11Z</time>
      </trkpt>
      <trkpt lat="41.225721" lon="-6.489743">
        <ele>774.661</ele>
        <time>2018-07-24T07:48:12Z</time>
      </trkpt>
      <trkpt lat="41.225731" lon="-6.489775">
        <ele>774.68</ele>
        <time>2018-07-24T07:48:13Z</time>
      </trkpt>
      <trkpt lat="41.225739" lon="-6.489803">
        <ele>774.698</ele>
        <time>2018-07-24T07:48:14Z</time>
      </trkpt>
      <trkpt lat="41.225746" lon="-6.489832">
        <ele>774.737</ele>
        <time>2018-07-24T07:48:15Z</time>
      </trkpt>
      <trkpt lat="41.22576" lon="-6.489885">
        <ele>774.757</ele>
        <time>2018-07-24T07:48:17Z</time>
      </trkpt>
      <trkpt lat="41.22577" lon="-6.489921">
        <ele>774.798</ele>
        <time>2018-07-24T07:48:18Z</time>
      </trkpt>
      <trkpt lat="41.225797" lon="-6.489983">
        <ele>774.858</ele>
        <time>2018-07-24T07:48:20Z</time>
      </trkpt>
      <trkpt lat="41.225809" lon="-6.49005">
        <ele>774.919</ele>
        <time>2018-07-24T07:48:23Z</time>
      </trkpt>
      <trkpt lat="41.225832" lon="-6.490129">
        <ele>774.979</ele>
        <time>2018-07-24T07:48:26Z</time>
      </trkpt>
      <trkpt lat="41.225862" lon="-6.490186">
        <ele>775.02</ele>
        <time>2018-07-24T07:48:29Z</time>
      </trkpt>
      <trkpt lat="41.225883" lon="-6.49024">
        <ele>775.04</ele>
        <time>2018-07-24T07:48:31Z</time>
      </trkpt>
      <trkpt lat="41.225896" lon="-6.490275">
        <ele>775.08</ele>
        <time>2018-07-24T07:48:32Z</time>
      </trkpt>
      <trkpt lat="41.225915" lon="-6.490324">
        <ele>775.12</ele>
        <time>2018-07-24T07:48:34Z</time>
      </trkpt>
      <trkpt lat="41.225931" lon="-6.490367">
        <ele>775.179</ele>
        <time>2018-07-24T07:48:36Z</time>
      </trkpt>
      <trkpt lat="41.225959" lon="-6.490425">
        <ele>775.219</ele>
        <time>2018-07-24T07:48:39Z</time>
      </trkpt>
      <trkpt lat="41.22599" lon="-6.490471">
        <ele>775.238</ele>
        <time>2018-07-24T07:48:41Z</time>
      </trkpt>
      <trkpt lat="41.226008" lon="-6.490495">
        <ele>775.257</ele>
        <time>2018-07-24T07:48:42Z</time>
      </trkpt>
      <trkpt lat="41.226024" lon="-6.490521">
        <ele>775.294</ele>
        <time>2018-07-24T07:48:43Z</time>
      </trkpt>
      <trkpt lat="41.226055" lon="-6.490564">
        <ele>775.33</ele>
        <time>2018-07-24T07:48:45Z</time>
      </trkpt>
      <trkpt lat="41.226085" lon="-6.490624">
        <ele>775.366</ele>
        <time>2018-07-24T07:48:47Z</time>
      </trkpt>
      <trkpt lat="41.226109" lon="-6.490682">
        <ele>775.419</ele>
        <time>2018-07-24T07:48:49Z</time>
      </trkpt>
      <trkpt lat="41.226152" lon="-6.490755">
        <ele>775.455</ele>
        <time>2018-07-24T07:48:52Z</time>
      </trkpt>
      <trkpt lat="41.226197" lon="-6.490803">
        <ele>775.472</ele>
        <time>2018-07-24T07:48:54Z</time>
      </trkpt>
      <trkpt lat="41.226213" lon="-6.490824">
        <ele>775.508</ele>
        <time>2018-07-24T07:48:55Z</time>
      </trkpt>
      <trkpt lat="41.226238" lon="-6.49088">
        <ele>775.543</ele>
        <time>2018-07-24T07:48:57Z</time>
      </trkpt>
      <trkpt lat="41.226267" lon="-6.49093">
        <ele>775.595</ele>
        <time>2018-07-24T07:48:59Z</time>
      </trkpt>
      <trkpt lat="41.226314" lon="-6.490977">
        <ele>775.646</ele>
        <time>2018-07-24T07:49:02Z</time>
      </trkpt>
      <trkpt lat="41.226364" lon="-6.49105">
        <ele>775.697</ele>
        <time>2018-07-24T07:49:05Z</time>
      </trkpt>
      <trkpt lat="41.226395" lon="-6.491106">
        <ele>775.713</ele>
        <time>2018-07-24T07:49:08Z</time>
      </trkpt>
      <trkpt lat="41.226409" lon="-6.491132">
        <ele>775.763</ele>
        <time>2018-07-24T07:49:09Z</time>
      </trkpt>
      <trkpt lat="41.226447" lon="-6.491173">
        <ele>775.812</ele>
        <time>2018-07-24T07:49:12Z</time>
      </trkpt>
      <trkpt lat="41.226488" lon="-6.491214">
        <ele>775.878</ele>
        <time>2018-07-24T07:49:15Z</time>
      </trkpt>
      <trkpt lat="41.226532" lon="-6.491267">
        <ele>775.943</ele>
        <time>2018-07-24T07:49:19Z</time>
      </trkpt>
      <trkpt lat="41.226591" lon="-6.491297">
        <ele>776.005</ele>
        <time>2018-07-24T07:49:23Z</time>
      </trkpt>
      <trkpt lat="41.226637" lon="-6.491309">
        <ele>776.07</ele>
        <time>2018-07-24T07:49:27Z</time>
      </trkpt>
      <trkpt lat="41.226687" lon="-6.491315">
        <ele>776.157</ele>
        <time>2018-07-24T07:49:31Z</time>
      </trkpt>
      <trkpt lat="41.226743" lon="-6.491332">
        <ele>776.251</ele>
        <time>2018-07-24T07:49:36Z</time>
      </trkpt>
      <trkpt lat="41.226787" lon="-6.491374">
        <ele>776.35</ele>
        <time>2018-07-24T07:49:41Z</time>
      </trkpt>
      <trkpt lat="41.226816" lon="-6.491447">
        <ele>776.391</ele>
        <time>2018-07-24T07:49:46Z</time>
      </trkpt>
      <trkpt lat="41.22683" lon="-6.491478">
        <ele>776.455</ele>
        <time>2018-07-24T07:49:48Z</time>
      </trkpt>
      <trkpt lat="41.226853" lon="-6.491539">
        <ele>776.499</ele>
        <time>2018-07-24T07:49:51Z</time>
      </trkpt>
      <trkpt lat="41.226863" lon="-6.491567">
        <ele>776.569</ele>
        <time>2018-07-24T07:49:53Z</time>
      </trkpt>
      <trkpt lat="41.226878" lon="-6.491624">
        <ele>776.616</ele>
        <time>2018-07-24T07:49:56Z</time>
      </trkpt>
      <trkpt lat="41.226886" lon="-6.491656">
        <ele>776.688</ele>
        <time>2018-07-24T07:49:58Z</time>
      </trkpt>
      <trkpt lat="41.226918" lon="-6.491724">
        <ele>776.762</ele>
        <time>2018-07-24T07:50:01Z</time>
      </trkpt>
      <trkpt lat="41.226968" lon="-6.491781">
        <ele>776.815</ele>
        <time>2018-07-24T07:50:04Z</time>
      </trkpt>
      <trkpt lat="41.227003" lon="-6.491816">
        <ele>776.871</ele>
        <time>2018-07-24T07:50:06Z</time>
      </trkpt>
      <trkpt lat="41.227032" lon="-6.491848">
        <ele>776.929</ele>
        <time>2018-07-24T07:50:08Z</time>
      </trkpt>
      <trkpt lat="41.227057" lon="-6.491874">
        <ele>777.019</ele>
        <time>2018-07-24T07:50:10Z</time>
      </trkpt>
      <trkpt lat="41.227106" lon="-6.491901">
        <ele>777.113</ele>
        <time>2018-07-24T07:50:13Z</time>
      </trkpt>
      <trkpt lat="41.227154" lon="-6.491921">
        <ele>777.178</ele>
        <time>2018-07-24T07:50:16Z</time>
      </trkpt>
      <trkpt lat="41.227193" lon="-6.491936">
        <ele>777.276</ele>
        <time>2018-07-24T07:50:18Z</time>
      </trkpt>
      <trkpt lat="41.22724" lon="-6.491959">
        <ele>777.342</ele>
        <time>2018-07-24T07:50:21Z</time>
      </trkpt>
      <trkpt lat="41.227273" lon="-6.491979">
        <ele>777.48</ele>
        <time>2018-07-24T07:50:23Z</time>
      </trkpt>
      <trkpt lat="41.227319" lon="-6.492031">
        <ele>777.587</ele>
        <time>2018-07-24T07:50:27Z</time>
      </trkpt>
      <trkpt lat="41.227343" lon="-6.492095">
        <ele>777.66</ele>
        <time>2018-07-24T07:50:30Z</time>
      </trkpt>
      <trkpt lat="41.227358" lon="-6.492151">
        <ele>777.728</ele>
        <time>2018-07-24T07:50:32Z</time>
      </trkpt>
      <trkpt lat="41.227367" lon="-6.492183">
        <ele>777.833</ele>
        <time>2018-07-24T07:50:34Z</time>
      </trkpt>
      <trkpt lat="41.227365" lon="-6.492257">
        <ele>777.936</ele>
        <time>2018-07-24T07:50:37Z</time>
      </trkpt>
      <trkpt lat="41.227341" lon="-6.492334">
        <ele>778.007</ele>
        <time>2018-07-24T07:50:40Z</time>
      </trkpt>
      <trkpt lat="41.227316" lon="-6.492385">
        <ele>778.044</ele>
        <time>2018-07-24T07:50:42Z</time>
      </trkpt>
      <trkpt lat="41.227303" lon="-6.492415">
        <ele>778.082</ele>
        <time>2018-07-24T07:50:43Z</time>
      </trkpt>
      <trkpt lat="41.227291" lon="-6.492447">
        <ele>778.161</ele>
        <time>2018-07-24T07:50:44Z</time>
      </trkpt>
      <trkpt lat="41.22725" lon="-6.49251">
        <ele>778.252</ele>
        <time>2018-07-24T07:50:46Z</time>
      </trkpt>
      <trkpt lat="41.227209" lon="-6.492559">
        <ele>778.36</ele>
        <time>2018-07-24T07:50:48Z</time>
      </trkpt>
      <trkpt lat="41.227162" lon="-6.49263">
        <ele>778.423</ele>
        <time>2018-07-24T07:50:50Z</time>
      </trkpt>
      <trkpt lat="41.227142" lon="-6.492666">
        <ele>778.492</ele>
        <time>2018-07-24T07:50:51Z</time>
      </trkpt>
      <trkpt lat="41.227121" lon="-6.492697">
        <ele>778.567</ele>
        <time>2018-07-24T07:50:52Z</time>
      </trkpt>
      <trkpt lat="41.227102" lon="-6.492725">
        <ele>778.65</ele>
        <time>2018-07-24T07:50:53Z</time>
      </trkpt>
      <trkpt lat="41.227081" lon="-6.492754">
        <ele>778.835</ele>
        <time>2018-07-24T07:50:54Z</time>
      </trkpt>
      <trkpt lat="41.227046" lon="-6.492811">
        <ele>778.937</ele>
        <time>2018-07-24T07:50:56Z</time>
      </trkpt>
      <trkpt lat="41.227029" lon="-6.492837">
        <ele>779.045</ele>
        <time>2018-07-24T07:50:57Z</time>
      </trkpt>
      <trkpt lat="41.227012" lon="-6.492864">
        <ele>779.157</ele>
        <time>2018-07-24T07:50:58Z</time>
      </trkpt>
      <trkpt lat="41.226998" lon="-6.492888">
        <ele>779.273</ele>
        <time>2018-07-24T07:50:59Z</time>
      </trkpt>
      <trkpt lat="41.226982" lon="-6.492914">
        <ele>779.512</ele>
        <time>2018-07-24T07:51:00Z</time>
      </trkpt>
      <trkpt lat="41.226958" lon="-6.492957">
        <ele>779.768</ele>
        <time>2018-07-24T07:51:02Z</time>
      </trkpt>
      <trkpt lat="41.226932" lon="-6.493007">
        <ele>780.172</ele>
        <time>2018-07-24T07:51:04Z</time>
      </trkpt>
      <trkpt lat="41.2269" lon="-6.493084">
        <ele>780.45</ele>
        <time>2018-07-24T07:51:07Z</time>
      </trkpt>
      <trkpt lat="41.226878" lon="-6.493132">
        <ele>780.875</ele>
        <time>2018-07-24T07:51:09Z</time>
      </trkpt>
      <trkpt lat="41.226839" lon="-6.493196">
        <ele>781.018</ele>
        <time>2018-07-24T07:51:12Z</time>
      </trkpt>
      <trkpt lat="41.226826" lon="-6.49322">
        <ele>781.306</ele>
        <time>2018-07-24T07:51:13Z</time>
      </trkpt>
      <trkpt lat="41.226803" lon="-6.493262">
        <ele>781.735</ele>
        <time>2018-07-24T07:51:15Z</time>
      </trkpt>
      <trkpt lat="41.226769" lon="-6.493308">
        <ele>782.165</ele>
        <time>2018-07-24T07:51:18Z</time>
      </trkpt>
      <trkpt lat="41.226742" lon="-6.49337">
        <ele>782.603</ele>
        <time>2018-07-24T07:51:21Z</time>
      </trkpt>
      <trkpt lat="41.226708" lon="-6.493437">
        <ele>782.897</ele>
        <time>2018-07-24T07:51:24Z</time>
      </trkpt>
      <trkpt lat="41.226685" lon="-6.493482">
        <ele>783.194</ele>
        <time>2018-07-24T07:51:26Z</time>
      </trkpt>
      <trkpt lat="41.226662" lon="-6.493523">
        <ele>783.648</ele>
        <time>2018-07-24T07:51:28Z</time>
      </trkpt>
      <trkpt lat="41.226637" lon="-6.493594">
        <ele>783.954</ele>
        <time>2018-07-24T07:51:31Z</time>
      </trkpt>
      <trkpt lat="41.226617" lon="-6.493643">
        <ele>784.265</ele>
        <time>2018-07-24T07:51:33Z</time>
      </trkpt>
      <trkpt lat="41.226599" lon="-6.493693">
        <ele>784.577</ele>
        <time>2018-07-24T07:51:35Z</time>
      </trkpt>
      <trkpt lat="41.226579" lon="-6.493746">
        <ele>785.038</ele>
        <time>2018-07-24T07:51:37Z</time>
      </trkpt>
      <trkpt lat="41.226563" lon="-6.493807">
        <ele>785.339</ele>
        <time>2018-07-24T07:51:40Z</time>
      </trkpt>
      <trkpt lat="41.226553" lon="-6.493852">
        <ele>785.781</ele>
        <time>2018-07-24T07:51:42Z</time>
      </trkpt>
      <trkpt lat="41.226533" lon="-6.493915">
        <ele>786.21</ele>
        <time>2018-07-24T07:51:45Z</time>
      </trkpt>
      <trkpt lat="41.226532" lon="-6.493996">
        <ele>786.492</ele>
        <time>2018-07-24T07:51:48Z</time>
      </trkpt>
      <trkpt lat="41.22654" lon="-6.494055">
        <ele>786.933</ele>
        <time>2018-07-24T07:51:50Z</time>
      </trkpt>
      <trkpt lat="41.226557" lon="-6.494124">
        <ele>787.234</ele>
        <time>2018-07-24T07:51:53Z</time>
      </trkpt>
      <trkpt lat="41.226565" lon="-6.494189">
        <ele>787.693</ele>
        <time>2018-07-24T07:51:55Z</time>
      </trkpt>
      <trkpt lat="41.226584" lon="-6.494269">
        <ele>787.846</ele>
        <time>2018-07-24T07:51:58Z</time>
      </trkpt>
      <trkpt lat="41.226591" lon="-6.494298">
        <ele>788.15</ele>
        <time>2018-07-24T07:51:59Z</time>
      </trkpt>
      <trkpt lat="41.226603" lon="-6.494359">
        <ele>788.453</ele>
        <time>2018-07-24T07:52:01Z</time>
      </trkpt>
      <trkpt lat="41.226612" lon="-6.494416">
        <ele>788.605</ele>
        <time>2018-07-24T07:52:03Z</time>
      </trkpt>
      <trkpt lat="41.226617" lon="-6.494446">
        <ele>788.757</ele>
        <time>2018-07-24T07:52:04Z</time>
      </trkpt>
      <trkpt lat="41.226622" lon="-6.494482">
        <ele>788.908</ele>
        <time>2018-07-24T07:52:05Z</time>
      </trkpt>
      <trkpt lat="41.226629" lon="-6.494517">
        <ele>789.06</ele>
        <time>2018-07-24T07:52:06Z</time>
      </trkpt>
      <trkpt lat="41.226634" lon="-6.494551">
        <ele>789.511</ele>
        <time>2018-07-24T07:52:07Z</time>
      </trkpt>
      <trkpt lat="41.226634" lon="-6.494628">
        <ele>789.81</ele>
        <time>2018-07-24T07:52:10Z</time>
      </trkpt>
      <trkpt lat="41.226637" lon="-6.494691">
        <ele>790.256</ele>
        <time>2018-07-24T07:52:12Z</time>
      </trkpt>
      <trkpt lat="41.226659" lon="-6.494803">
        <ele>790.404</ele>
        <time>2018-07-24T07:52:15Z</time>
      </trkpt>
      <trkpt lat="41.226664" lon="-6.494837">
        <ele>790.698</ele>
        <time>2018-07-24T07:52:16Z</time>
      </trkpt>
      <trkpt lat="41.226667" lon="-6.494901">
        <ele>790.844</ele>
        <time>2018-07-24T07:52:18Z</time>
      </trkpt>
      <trkpt lat="41.226668" lon="-6.494939">
        <ele>791.136</ele>
        <time>2018-07-24T07:52:19Z</time>
      </trkpt>
      <trkpt lat="41.226682" lon="-6.495023">
        <ele>791.576</ele>
        <time>2018-07-24T07:52:21Z</time>
      </trkpt>
      <trkpt lat="41.226694" lon="-6.495139">
        <ele>791.865</ele>
        <time>2018-07-24T07:52:24Z</time>
      </trkpt>
      <trkpt lat="41.226703" lon="-6.495204">
        <ele>792.15</ele>
        <time>2018-07-24T07:52:26Z</time>
      </trkpt>
      <trkpt lat="41.22671" lon="-6.495265">
        <ele>792.291</ele>
        <time>2018-07-24T07:52:28Z</time>
      </trkpt>
      <trkpt lat="41.226715" lon="-6.495303">
        <ele>792.432</ele>
        <time>2018-07-24T07:52:29Z</time>
      </trkpt>
      <trkpt lat="41.226718" lon="-6.495336">
        <ele>792.71</ele>
        <time>2018-07-24T07:52:30Z</time>
      </trkpt>
      <trkpt lat="41.226723" lon="-6.495383">
        <ele>792.985</ele>
        <time>2018-07-24T07:52:32Z</time>
      </trkpt>
      <trkpt lat="41.226731" lon="-6.495439">
        <ele>793.387</ele>
        <time>2018-07-24T07:52:34Z</time>
      </trkpt>
      <trkpt lat="41.226748" lon="-6.495521">
        <ele>793.517</ele>
        <time>2018-07-24T07:52:37Z</time>
      </trkpt>
      <trkpt lat="41.226754" lon="-6.495551">
        <ele>793.774</ele>
        <time>2018-07-24T07:52:38Z</time>
      </trkpt>
      <trkpt lat="41.226759" lon="-6.495614">
        <ele>793.9</ele>
        <time>2018-07-24T07:52:40Z</time>
      </trkpt>
      <trkpt lat="41.22676" lon="-6.495649">
        <ele>794.024</ele>
        <time>2018-07-24T07:52:41Z</time>
      </trkpt>
      <trkpt lat="41.22676" lon="-6.495686">
        <ele>794.149</ele>
        <time>2018-07-24T07:52:42Z</time>
      </trkpt>
      <trkpt lat="41.22676" lon="-6.495719">
        <ele>794.272</ele>
        <time>2018-07-24T07:52:43Z</time>
      </trkpt>
      <trkpt lat="41.226758" lon="-6.495764">
        <ele>794.394</ele>
        <time>2018-07-24T07:52:44Z</time>
      </trkpt>
      <trkpt lat="41.226757" lon="-6.495805">
        <ele>794.515</ele>
        <time>2018-07-24T07:52:45Z</time>
      </trkpt>
      <trkpt lat="41.226756" lon="-6.495839">
        <ele>794.636</ele>
        <time>2018-07-24T07:52:46Z</time>
      </trkpt>
      <trkpt lat="41.226756" lon="-6.495878">
        <ele>794.996</ele>
        <time>2018-07-24T07:52:47Z</time>
      </trkpt>
      <trkpt lat="41.226731" lon="-6.495991">
        <ele>795.23</ele>
        <time>2018-07-24T07:52:50Z</time>
      </trkpt>
      <trkpt lat="41.226704" lon="-6.496073">
        <ele>795.458</ele>
        <time>2018-07-24T07:52:52Z</time>
      </trkpt>
      <trkpt lat="41.226683" lon="-6.496153">
        <ele>795.789</ele>
        <time>2018-07-24T07:52:54Z</time>
      </trkpt>
      <trkpt lat="41.226636" lon="-6.496247">
        <ele>795.898</ele>
        <time>2018-07-24T07:52:57Z</time>
      </trkpt>
      <trkpt lat="41.226618" lon="-6.496282">
        <ele>796.007</ele>
        <time>2018-07-24T07:52:58Z</time>
      </trkpt>
      <trkpt lat="41.226599" lon="-6.496315">
        <ele>796.115</ele>
        <time>2018-07-24T07:52:59Z</time>
      </trkpt>
      <trkpt lat="41.226579" lon="-6.496345">
        <ele>796.222</ele>
        <time>2018-07-24T07:53:00Z</time>
      </trkpt>
      <trkpt lat="41.226559" lon="-6.496379">
        <ele>796.329</ele>
        <time>2018-07-24T07:53:01Z</time>
      </trkpt>
      <trkpt lat="41.226538" lon="-6.49641">
        <ele>796.436</ele>
        <time>2018-07-24T07:53:02Z</time>
      </trkpt>
      <trkpt lat="41.22652" lon="-6.496442">
        <ele>796.646</ele>
        <time>2018-07-24T07:53:03Z</time>
      </trkpt>
      <trkpt lat="41.22648" lon="-6.496503">
        <ele>796.854</ele>
        <time>2018-07-24T07:53:05Z</time>
      </trkpt>
      <trkpt lat="41.226447" lon="-6.496566">
        <ele>797.062</ele>
        <time>2018-07-24T07:53:07Z</time>
      </trkpt>
      <trkpt lat="41.226411" lon="-6.496622">
        <ele>797.165</ele>
        <time>2018-07-24T07:53:09Z</time>
      </trkpt>
      <trkpt lat="41.226394" lon="-6.496651">
        <ele>797.266</ele>
        <time>2018-07-24T07:53:10Z</time>
      </trkpt>
      <trkpt lat="41.226377" lon="-6.496679">
        <ele>797.367</ele>
        <time>2018-07-24T07:53:11Z</time>
      </trkpt>
      <trkpt lat="41.226361" lon="-6.496703">
        <ele>797.467</ele>
        <time>2018-07-24T07:53:12Z</time>
      </trkpt>
      <trkpt lat="41.226345" lon="-6.496727">
        <ele>797.666</ele>
        <time>2018-07-24T07:53:13Z</time>
      </trkpt>
      <trkpt lat="41.226316" lon="-6.49677">
        <ele>797.766</ele>
        <time>2018-07-24T07:53:15Z</time>
      </trkpt>
      <trkpt lat="41.226301" lon="-6.496793">
        <ele>798.063</ele>
        <time>2018-07-24T07:53:16Z</time>
      </trkpt>
      <trkpt lat="41.226265" lon="-6.496866">
        <ele>798.353</ele>
        <time>2018-07-24T07:53:19Z</time>
      </trkpt>
      <trkpt lat="41.226219" lon="-6.496927">
        <ele>798.448</ele>
        <time>2018-07-24T07:53:22Z</time>
      </trkpt>
      <trkpt lat="41.226204" lon="-6.496949">
        <ele>798.638</ele>
        <time>2018-07-24T07:53:23Z</time>
      </trkpt>
      <trkpt lat="41.226175" lon="-6.496991">
        <ele>798.822</ele>
        <time>2018-07-24T07:53:25Z</time>
      </trkpt>
      <trkpt lat="41.226145" lon="-6.497035">
        <ele>798.914</ele>
        <time>2018-07-24T07:53:27Z</time>
      </trkpt>
      <trkpt lat="41.226129" lon="-6.497056">
        <ele>799.183</ele>
        <time>2018-07-24T07:53:28Z</time>
      </trkpt>
      <trkpt lat="41.226095" lon="-6.497116">
        <ele>799.361</ele>
        <time>2018-07-24T07:53:31Z</time>
      </trkpt>
      <trkpt lat="41.226069" lon="-6.497161">
        <ele>799.538</ele>
        <time>2018-07-24T07:53:33Z</time>
      </trkpt>
      <trkpt lat="41.226045" lon="-6.497219">
        <ele>799.714</ele>
        <time>2018-07-24T07:53:35Z</time>
      </trkpt>
      <trkpt lat="41.226028" lon="-6.497278">
        <ele>799.887</ele>
        <time>2018-07-24T07:53:37Z</time>
      </trkpt>
      <trkpt lat="41.226013" lon="-6.497324">
        <ele>800.141</ele>
        <time>2018-07-24T07:53:39Z</time>
      </trkpt>
      <trkpt lat="41.226004" lon="-6.497394">
        <ele>800.392</ele>
        <time>2018-07-24T07:53:42Z</time>
      </trkpt>
      <trkpt lat="41.226008" lon="-6.497469">
        <ele>800.559</ele>
        <time>2018-07-24T07:53:45Z</time>
      </trkpt>
      <trkpt lat="41.226009" lon="-6.497505">
        <ele>800.819</ele>
        <time>2018-07-24T07:53:47Z</time>
      </trkpt>
      <trkpt lat="41.226009" lon="-6.497574">
        <ele>801.084</ele>
        <time>2018-07-24T07:53:50Z</time>
      </trkpt>
      <trkpt lat="41.226003" lon="-6.49767">
        <ele>801.264</ele>
        <time>2018-07-24T07:53:53Z</time>
      </trkpt>
      <trkpt lat="41.225994" lon="-6.497739">
        <ele>801.355</ele>
        <time>2018-07-24T07:53:55Z</time>
      </trkpt>
      <trkpt lat="41.22599" lon="-6.497774">
        <ele>801.54</ele>
        <time>2018-07-24T07:53:56Z</time>
      </trkpt>
      <trkpt lat="41.225994" lon="-6.497843">
        <ele>801.634</ele>
        <time>2018-07-24T07:53:58Z</time>
      </trkpt>
      <trkpt lat="41.225994" lon="-6.497877">
        <ele>801.73</ele>
        <time>2018-07-24T07:53:59Z</time>
      </trkpt>
      <trkpt lat="41.225994" lon="-6.497912">
        <ele>801.826</ele>
        <time>2018-07-24T07:54:00Z</time>
      </trkpt>
      <trkpt lat="41.225993" lon="-6.497945">
        <ele>801.923</ele>
        <time>2018-07-24T07:54:01Z</time>
      </trkpt>
      <trkpt lat="41.225992" lon="-6.49798">
        <ele>802.119</ele>
        <time>2018-07-24T07:54:02Z</time>
      </trkpt>
      <trkpt lat="41.225989" lon="-6.498037">
        <ele>802.219</ele>
        <time>2018-07-24T07:54:04Z</time>
      </trkpt>
      <trkpt lat="41.225987" lon="-6.498076">
        <ele>802.318</ele>
        <time>2018-07-24T07:54:05Z</time>
      </trkpt>
      <trkpt lat="41.225984" lon="-6.498108">
        <ele>802.516</ele>
        <time>2018-07-24T07:54:06Z</time>
      </trkpt>
      <trkpt lat="41.225977" lon="-6.498162">
        <ele>802.814</ele>
        <time>2018-07-24T07:54:08Z</time>
      </trkpt>
      <trkpt lat="41.225982" lon="-6.498244">
        <ele>803.118</ele>
        <time>2018-07-24T07:54:11Z</time>
      </trkpt>
      <trkpt lat="41.225976" lon="-6.498317">
        <ele>803.32</ele>
        <time>2018-07-24T07:54:14Z</time>
      </trkpt>
      <trkpt lat="41.225974" lon="-6.498375">
        <ele>803.52</ele>
        <time>2018-07-24T07:54:16Z</time>
      </trkpt>
      <trkpt lat="41.225976" lon="-6.498435">
        <ele>803.62</ele>
        <time>2018-07-24T07:54:18Z</time>
      </trkpt>
      <trkpt lat="41.225977" lon="-6.498472">
        <ele>803.818</ele>
        <time>2018-07-24T07:54:19Z</time>
      </trkpt>
      <trkpt lat="41.225983" lon="-6.498554">
        <ele>803.917</ele>
        <time>2018-07-24T07:54:21Z</time>
      </trkpt>
      <trkpt lat="41.225988" lon="-6.498591">
        <ele>804.016</ele>
        <time>2018-07-24T07:54:22Z</time>
      </trkpt>
      <trkpt lat="41.225991" lon="-6.498628">
        <ele>804.116</ele>
        <time>2018-07-24T07:54:23Z</time>
      </trkpt>
      <trkpt lat="41.225993" lon="-6.498662">
        <ele>804.316</ele>
        <time>2018-07-24T07:54:24Z</time>
      </trkpt>
      <trkpt lat="41.226006" lon="-6.498737">
        <ele>804.62</ele>
        <time>2018-07-24T07:54:26Z</time>
      </trkpt>
      <trkpt lat="41.226018" lon="-6.498844">
        <ele>804.722</ele>
        <time>2018-07-24T07:54:29Z</time>
      </trkpt>
      <trkpt lat="41.226024" lon="-6.498887">
        <ele>804.825</ele>
        <time>2018-07-24T07:54:30Z</time>
      </trkpt>
      <trkpt lat="41.226028" lon="-6.498931">
        <ele>805.032</ele>
        <time>2018-07-24T07:54:31Z</time>
      </trkpt>
      <trkpt lat="41.226042" lon="-6.499019">
        <ele>805.137</ele>
        <time>2018-07-24T07:54:33Z</time>
      </trkpt>
      <trkpt lat="41.22605" lon="-6.499061">
        <ele>805.452</ele>
        <time>2018-07-24T07:54:34Z</time>
      </trkpt>
      <trkpt lat="41.22607" lon="-6.499204">
        <ele>805.661</ele>
        <time>2018-07-24T07:54:37Z</time>
      </trkpt>
      <trkpt lat="41.226079" lon="-6.499307">
        <ele>805.766</ele>
        <time>2018-07-24T07:54:39Z</time>
      </trkpt>
      <trkpt lat="41.226083" lon="-6.499351">
        <ele>805.869</ele>
        <time>2018-07-24T07:54:40Z</time>
      </trkpt>
      <trkpt lat="41.226086" lon="-6.499394">
        <ele>806.904</ele>
        <time>2018-07-24T07:54:41Z</time>
      </trkpt>
      <trkpt lat="41.226091" lon="-6.499444">
        <ele>807.742</ele>
        <time>2018-07-24T07:54:42Z</time>
      </trkpt>
      <trkpt lat="41.226097" lon="-6.499505">
        <ele>808.988</ele>
        <time>2018-07-24T07:54:43Z</time>
      </trkpt>
      <trkpt lat="41.226116" lon="-6.499619">
        <ele>809.452</ele>
        <time>2018-07-24T07:54:45Z</time>
      </trkpt>
      <trkpt lat="41.226127" lon="-6.499685">
        <ele>809.837</ele>
        <time>2018-07-24T07:54:46Z</time>
      </trkpt>
      <trkpt lat="41.226131" lon="-6.499747">
        <ele>810.647</ele>
        <time>2018-07-24T07:54:47Z</time>
      </trkpt>
      <trkpt lat="41.226155" lon="-6.499958">
        <ele>810.83</ele>
        <time>2018-07-24T07:54:50Z</time>
      </trkpt>
      <trkpt lat="41.226165" lon="-6.500027">
        <ele>810.977</ele>
        <time>2018-07-24T07:54:51Z</time>
      </trkpt>
      <trkpt lat="41.226177" lon="-6.500117">
        <ele>811.553</ele>
        <time>2018-07-24T07:54:52Z</time>
      </trkpt>
      <trkpt lat="41.226228" lon="-6.500438">
        <ele>811.831</ele>
        <time>2018-07-24T07:54:55Z</time>
      </trkpt>
      <trkpt lat="41.226244" lon="-6.500543">
        <ele>812.444</ele>
        <time>2018-07-24T07:54:56Z</time>
      </trkpt>
      <trkpt lat="41.226278" lon="-6.500753">
        <ele>812.789</ele>
        <time>2018-07-24T07:54:58Z</time>
      </trkpt>
      <trkpt lat="41.226294" lon="-6.500857">
        <ele>813.136</ele>
        <time>2018-07-24T07:54:59Z</time>
      </trkpt>
      <trkpt lat="41.226309" lon="-6.500958">
        <ele>813.472</ele>
        <time>2018-07-24T07:55:00Z</time>
      </trkpt>
      <trkpt lat="41.226326" lon="-6.50106">
        <ele>813.796</ele>
        <time>2018-07-24T07:55:01Z</time>
      </trkpt>
      <trkpt lat="41.226339" lon="-6.50116">
        <ele>814.107</ele>
        <time>2018-07-24T07:55:02Z</time>
      </trkpt>
      <trkpt lat="41.226357" lon="-6.501259">
        <ele>814.418</ele>
        <time>2018-07-24T07:55:03Z</time>
      </trkpt>
      <trkpt lat="41.226379" lon="-6.501354">
        <ele>814.722</ele>
        <time>2018-07-24T07:55:04Z</time>
      </trkpt>
      <trkpt lat="41.226403" lon="-6.50145">
        <ele>815.015</ele>
        <time>2018-07-24T07:55:05Z</time>
      </trkpt>
      <trkpt lat="41.22644" lon="-6.501544">
        <ele>815.298</ele>
        <time>2018-07-24T07:55:06Z</time>
      </trkpt>
      <trkpt lat="41.226482" lon="-6.501631">
        <ele>815.562</ele>
        <time>2018-07-24T07:55:07Z</time>
      </trkpt>
      <trkpt lat="41.226529" lon="-6.501714">
        <ele>815.808</ele>
        <time>2018-07-24T07:55:08Z</time>
      </trkpt>
      <trkpt lat="41.226581" lon="-6.501795">
        <ele>816.047</ele>
        <time>2018-07-24T07:55:09Z</time>
      </trkpt>
      <trkpt lat="41.226636" lon="-6.501873">
        <ele>816.272</ele>
        <time>2018-07-24T07:55:10Z</time>
      </trkpt>
      <trkpt lat="41.226697" lon="-6.501947">
        <ele>816.467</ele>
        <time>2018-07-24T07:55:11Z</time>
      </trkpt>
      <trkpt lat="41.226756" lon="-6.502022">
        <ele>816.663</ele>
        <time>2018-07-24T07:55:12Z</time>
      </trkpt>
      <trkpt lat="41.226811" lon="-6.502094">
        <ele>816.851</ele>
        <time>2018-07-24T07:55:13Z</time>
      </trkpt>
      <trkpt lat="41.226865" lon="-6.502168">
        <ele>817.022</ele>
        <time>2018-07-24T07:55:14Z</time>
      </trkpt>
      <trkpt lat="41.226923" lon="-6.502247">
        <ele>817.167</ele>
        <time>2018-07-24T07:55:15Z</time>
      </trkpt>
      <trkpt lat="41.226984" lon="-6.50233">
        <ele>817.285</ele>
        <time>2018-07-24T07:55:16Z</time>
      </trkpt>
      <trkpt lat="41.22705" lon="-6.502411">
        <ele>817.379</ele>
        <time>2018-07-24T07:55:17Z</time>
      </trkpt>
      <trkpt lat="41.227118" lon="-6.502488">
        <ele>817.427</ele>
        <time>2018-07-24T07:55:18Z</time>
      </trkpt>
      <trkpt lat="41.22719" lon="-6.502562">
        <ele>817.461</ele>
        <time>2018-07-24T07:55:19Z</time>
      </trkpt>
      <trkpt lat="41.227269" lon="-6.502631">
        <ele>817.474</ele>
        <time>2018-07-24T07:55:20Z</time>
      </trkpt>
      <trkpt lat="41.227345" lon="-6.502698">
        <ele>817.476</ele>
        <time>2018-07-24T07:55:21Z</time>
      </trkpt>
      <trkpt lat="41.227419" lon="-6.50276">
        <ele>817.468</ele>
        <time>2018-07-24T07:55:22Z</time>
      </trkpt>
      <trkpt lat="41.227491" lon="-6.50282">
        <ele>817.357</ele>
        <time>2018-07-24T07:55:23Z</time>
      </trkpt>
      <trkpt lat="41.227703" lon="-6.502984">
        <ele>817.304</ele>
        <time>2018-07-24T07:55:26Z</time>
      </trkpt>
      <trkpt lat="41.227765" lon="-6.503038">
        <ele>817.256</ele>
        <time>2018-07-24T07:55:27Z</time>
      </trkpt>
      <trkpt lat="41.227825" lon="-6.503102">
        <ele>817.206</ele>
        <time>2018-07-24T07:55:28Z</time>
      </trkpt>
      <trkpt lat="41.227879" lon="-6.503173">
        <ele>817.153</ele>
        <time>2018-07-24T07:55:29Z</time>
      </trkpt>
      <trkpt lat="41.22793" lon="-6.503241">
        <ele>817.109</ele>
        <time>2018-07-24T07:55:30Z</time>
      </trkpt>
      <trkpt lat="41.227982" lon="-6.503306">
        <ele>817.068</ele>
        <time>2018-07-24T07:55:31Z</time>
      </trkpt>
      <trkpt lat="41.228031" lon="-6.503373">
        <ele>816.949</ele>
        <time>2018-07-24T07:55:32Z</time>
      </trkpt>
      <trkpt lat="41.228122" lon="-6.503505">
        <ele>816.925</ele>
        <time>2018-07-24T07:55:34Z</time>
      </trkpt>
      <trkpt lat="41.228166" lon="-6.503569">
        <ele>816.909</ele>
        <time>2018-07-24T07:55:35Z</time>
      </trkpt>
      <trkpt lat="41.228214" lon="-6.503628">
        <ele>816.8</ele>
        <time>2018-07-24T07:55:36Z</time>
      </trkpt>
      <trkpt lat="41.22826" lon="-6.503685">
        <ele>816.75</ele>
        <time>2018-07-24T07:55:37Z</time>
      </trkpt>
      <trkpt lat="41.228307" lon="-6.503741">
        <ele>816.707</ele>
        <time>2018-07-24T07:55:38Z</time>
      </trkpt>
      <trkpt lat="41.228353" lon="-6.503799">
        <ele>816.667</ele>
        <time>2018-07-24T07:55:39Z</time>
      </trkpt>
      <trkpt lat="41.228396" lon="-6.503856">
        <ele>816.614</ele>
        <time>2018-07-24T07:55:40Z</time>
      </trkpt>
      <trkpt lat="41.228442" lon="-6.503913">
        <ele>816.577</ele>
        <time>2018-07-24T07:55:41Z</time>
      </trkpt>
      <trkpt lat="41.228491" lon="-6.503972">
        <ele>816.519</ele>
        <time>2018-07-24T07:55:42Z</time>
      </trkpt>
      <trkpt lat="41.228545" lon="-6.504035">
        <ele>816.445</ele>
        <time>2018-07-24T07:55:43Z</time>
      </trkpt>
      <trkpt lat="41.228598" lon="-6.504093">
        <ele>816.354</ele>
        <time>2018-07-24T07:55:44Z</time>
      </trkpt>
      <trkpt lat="41.228649" lon="-6.504151">
        <ele>816.258</ele>
        <time>2018-07-24T07:55:45Z</time>
      </trkpt>
      <trkpt lat="41.228697" lon="-6.504216">
        <ele>816.18</ele>
        <time>2018-07-24T07:55:46Z</time>
      </trkpt>
      <trkpt lat="41.228746" lon="-6.504278">
        <ele>816.066</ele>
        <time>2018-07-24T07:55:47Z</time>
      </trkpt>
      <trkpt lat="41.228797" lon="-6.504342">
        <ele>816.014</ele>
        <time>2018-07-24T07:55:48Z</time>
      </trkpt>
      <trkpt lat="41.228847" lon="-6.504404">
        <ele>815.979</ele>
        <time>2018-07-24T07:55:49Z</time>
      </trkpt>
      <trkpt lat="41.2289" lon="-6.50446">
        <ele>815.898</ele>
        <time>2018-07-24T07:55:50Z</time>
      </trkpt>
      <trkpt lat="41.228952" lon="-6.504518">
        <ele>815.796</ele>
        <time>2018-07-24T07:55:51Z</time>
      </trkpt>
      <trkpt lat="41.228998" lon="-6.504578">
        <ele>815.705</ele>
        <time>2018-07-24T07:55:52Z</time>
      </trkpt>
      <trkpt lat="41.229039" lon="-6.504646">
        <ele>815.617</ele>
        <time>2018-07-24T07:55:53Z</time>
      </trkpt>
      <trkpt lat="41.229072" lon="-6.504723">
        <ele>815.433</ele>
        <time>2018-07-24T07:55:54Z</time>
      </trkpt>
      <trkpt lat="41.229096" lon="-6.504811">
        <ele>815.179</ele>
        <time>2018-07-24T07:55:55Z</time>
      </trkpt>
      <trkpt lat="41.229119" lon="-6.504907">
        <ele>814.957</ele>
        <time>2018-07-24T07:55:56Z</time>
      </trkpt>
      <trkpt lat="41.229131" lon="-6.505008">
        <ele>814.735</ele>
        <time>2018-07-24T07:55:57Z</time>
      </trkpt>
      <trkpt lat="41.229141" lon="-6.505111">
        <ele>814.563</ele>
        <time>2018-07-24T07:55:58Z</time>
      </trkpt>
      <trkpt lat="41.229151" lon="-6.505215">
        <ele>814.332</ele>
        <time>2018-07-24T07:55:59Z</time>
      </trkpt>
      <trkpt lat="41.229159" lon="-6.505321">
        <ele>814.177</ele>
        <time>2018-07-24T07:56:00Z</time>
      </trkpt>
      <trkpt lat="41.229156" lon="-6.505426">
        <ele>814.008</ele>
        <time>2018-07-24T07:56:01Z</time>
      </trkpt>
      <trkpt lat="41.229144" lon="-6.505527">
        <ele>813.607</ele>
        <time>2018-07-24T07:56:02Z</time>
      </trkpt>
      <trkpt lat="41.229115" lon="-6.505733">
        <ele>813.413</ele>
        <time>2018-07-24T07:56:04Z</time>
      </trkpt>
      <trkpt lat="41.229099" lon="-6.505836">
        <ele>813.246</ele>
        <time>2018-07-24T07:56:05Z</time>
      </trkpt>
      <trkpt lat="41.229086" lon="-6.505933">
        <ele>813.062</ele>
        <time>2018-07-24T07:56:06Z</time>
      </trkpt>
      <trkpt lat="41.229083" lon="-6.506029">
        <ele>812.866</ele>
        <time>2018-07-24T07:56:07Z</time>
      </trkpt>
      <trkpt lat="41.229093" lon="-6.506123">
        <ele>812.641</ele>
        <time>2018-07-24T07:56:08Z</time>
      </trkpt>
      <trkpt lat="41.229122" lon="-6.506211">
        <ele>812.377</ele>
        <time>2018-07-24T07:56:09Z</time>
      </trkpt>
      <trkpt lat="41.229165" lon="-6.506291">
        <ele>812.059</ele>
        <time>2018-07-24T07:56:10Z</time>
      </trkpt>
      <trkpt lat="41.229223" lon="-6.50636">
        <ele>811.719</ele>
        <time>2018-07-24T07:56:11Z</time>
      </trkpt>
      <trkpt lat="41.229287" lon="-6.506428">
        <ele>811.408</ele>
        <time>2018-07-24T07:56:12Z</time>
      </trkpt>
      <trkpt lat="41.229352" lon="-6.506498">
        <ele>811.056</ele>
        <time>2018-07-24T07:56:13Z</time>
      </trkpt>
      <trkpt lat="41.229418" lon="-6.506571">
        <ele>810.648</ele>
        <time>2018-07-24T07:56:14Z</time>
      </trkpt>
      <trkpt lat="41.22949" lon="-6.506644">
        <ele>810.304</ele>
        <time>2018-07-24T07:56:15Z</time>
      </trkpt>
      <trkpt lat="41.229563" lon="-6.506719">
        <ele>809.888</ele>
        <time>2018-07-24T07:56:16Z</time>
      </trkpt>
      <trkpt lat="41.229638" lon="-6.506796">
        <ele>809.488</ele>
        <time>2018-07-24T07:56:17Z</time>
      </trkpt>
      <trkpt lat="41.229715" lon="-6.506875">
        <ele>809.126</ele>
        <time>2018-07-24T07:56:18Z</time>
      </trkpt>
      <trkpt lat="41.229794" lon="-6.506957">
        <ele>808.814</ele>
        <time>2018-07-24T07:56:19Z</time>
      </trkpt>
      <trkpt lat="41.229874" lon="-6.507038">
        <ele>808.461</ele>
        <time>2018-07-24T07:56:20Z</time>
      </trkpt>
      <trkpt lat="41.229953" lon="-6.507123">
        <ele>808.369</ele>
        <time>2018-07-24T07:56:21Z</time>
      </trkpt>
      <trkpt lat="41.230032" lon="-6.5072">
        <ele>808.057</ele>
        <time>2018-07-24T07:56:22Z</time>
      </trkpt>
      <trkpt lat="41.230184" lon="-6.507362">
        <ele>807.853</ele>
        <time>2018-07-24T07:56:24Z</time>
      </trkpt>
      <trkpt lat="41.230255" lon="-6.507444">
        <ele>807.627</ele>
        <time>2018-07-24T07:56:25Z</time>
      </trkpt>
      <trkpt lat="41.230321" lon="-6.507532">
        <ele>807.404</ele>
        <time>2018-07-24T07:56:26Z</time>
      </trkpt>
      <trkpt lat="41.230384" lon="-6.507619">
        <ele>807.165</ele>
        <time>2018-07-24T07:56:27Z</time>
      </trkpt>
      <trkpt lat="41.230444" lon="-6.507705">
        <ele>806.889</ele>
        <time>2018-07-24T07:56:28Z</time>
      </trkpt>
      <trkpt lat="41.230506" lon="-6.507789">
        <ele>806.603</ele>
        <time>2018-07-24T07:56:29Z</time>
      </trkpt>
      <trkpt lat="41.230561" lon="-6.507877">
        <ele>806.305</ele>
        <time>2018-07-24T07:56:30Z</time>
      </trkpt>
      <trkpt lat="41.230617" lon="-6.50796">
        <ele>805.525</ele>
        <time>2018-07-24T07:56:31Z</time>
      </trkpt>
      <trkpt lat="41.230771" lon="-6.508198">
        <ele>805.251</ele>
        <time>2018-07-24T07:56:34Z</time>
      </trkpt>
      <trkpt lat="41.230821" lon="-6.508272">
        <ele>804.914</ele>
        <time>2018-07-24T07:56:35Z</time>
      </trkpt>
      <trkpt lat="41.230873" lon="-6.508342">
        <ele>804.501</ele>
        <time>2018-07-24T07:56:36Z</time>
      </trkpt>
      <trkpt lat="41.230924" lon="-6.508413">
        <ele>804.116</ele>
        <time>2018-07-24T07:56:37Z</time>
      </trkpt>
      <trkpt lat="41.230974" lon="-6.508484">
        <ele>803.718</ele>
        <time>2018-07-24T07:56:38Z</time>
      </trkpt>
      <trkpt lat="41.231025" lon="-6.508556">
        <ele>803.337</ele>
        <time>2018-07-24T07:56:39Z</time>
      </trkpt>
      <trkpt lat="41.231081" lon="-6.508626">
        <ele>802.985</ele>
        <time>2018-07-24T07:56:40Z</time>
      </trkpt>
      <trkpt lat="41.231136" lon="-6.508698">
        <ele>802.592</ele>
        <time>2018-07-24T07:56:41Z</time>
      </trkpt>
      <trkpt lat="41.231188" lon="-6.508775">
        <ele>802.213</ele>
        <time>2018-07-24T07:56:42Z</time>
      </trkpt>
      <trkpt lat="41.231243" lon="-6.508853">
        <ele>801.827</ele>
        <time>2018-07-24T07:56:43Z</time>
      </trkpt>
      <trkpt lat="41.231303" lon="-6.508936">
        <ele>801.414</ele>
        <time>2018-07-24T07:56:44Z</time>
      </trkpt>
      <trkpt lat="41.231367" lon="-6.509022">
        <ele>800.688</ele>
        <time>2018-07-24T07:56:45Z</time>
      </trkpt>
      <trkpt lat="41.231502" lon="-6.509197">
        <ele>800.511</ele>
        <time>2018-07-24T07:56:47Z</time>
      </trkpt>
      <trkpt lat="41.231571" lon="-6.509285">
        <ele>800.27</ele>
        <time>2018-07-24T07:56:48Z</time>
      </trkpt>
      <trkpt lat="41.23164" lon="-6.509372">
        <ele>799.969</ele>
        <time>2018-07-24T07:56:49Z</time>
      </trkpt>
      <trkpt lat="41.231713" lon="-6.509463">
        <ele>799.663</ele>
        <time>2018-07-24T07:56:50Z</time>
      </trkpt>
      <trkpt lat="41.231788" lon="-6.509556">
        <ele>799.317</ele>
        <time>2018-07-24T07:56:51Z</time>
      </trkpt>
      <trkpt lat="41.231863" lon="-6.509649">
        <ele>798.934</ele>
        <time>2018-07-24T07:56:52Z</time>
      </trkpt>
      <trkpt lat="41.231938" lon="-6.509743">
        <ele>798.561</ele>
        <time>2018-07-24T07:56:53Z</time>
      </trkpt>
      <trkpt lat="41.232014" lon="-6.509839">
        <ele>797.836</ele>
        <time>2018-07-24T07:56:54Z</time>
      </trkpt>
      <trkpt lat="41.232169" lon="-6.510028">
        <ele>797.433</ele>
        <time>2018-07-24T07:56:56Z</time>
      </trkpt>
      <trkpt lat="41.232251" lon="-6.510119">
        <ele>797.012</ele>
        <time>2018-07-24T07:56:57Z</time>
      </trkpt>
      <trkpt lat="41.232336" lon="-6.510208">
        <ele>796.557</ele>
        <time>2018-07-24T07:56:58Z</time>
      </trkpt>
      <trkpt lat="41.232423" lon="-6.5103">
        <ele>796.135</ele>
        <time>2018-07-24T07:56:59Z</time>
      </trkpt>
      <trkpt lat="41.232512" lon="-6.510391">
        <ele>795.715</ele>
        <time>2018-07-24T07:57:00Z</time>
      </trkpt>
      <trkpt lat="41.232601" lon="-6.510481">
        <ele>795.358</ele>
        <time>2018-07-24T07:57:01Z</time>
      </trkpt>
      <trkpt lat="41.232689" lon="-6.510567">
        <ele>795.07</ele>
        <time>2018-07-24T07:57:02Z</time>
      </trkpt>
      <trkpt lat="41.232774" lon="-6.510653">
        <ele>794.772</ele>
        <time>2018-07-24T07:57:03Z</time>
      </trkpt>
      <trkpt lat="41.232862" lon="-6.51074">
        <ele>794.427</ele>
        <time>2018-07-24T07:57:04Z</time>
      </trkpt>
      <trkpt lat="41.232949" lon="-6.510836">
        <ele>794.032</ele>
        <time>2018-07-24T07:57:05Z</time>
      </trkpt>
      <trkpt lat="41.233031" lon="-6.510939">
        <ele>793.643</ele>
        <time>2018-07-24T07:57:06Z</time>
      </trkpt>
      <trkpt lat="41.233092" lon="-6.511055">
        <ele>793.233</ele>
        <time>2018-07-24T07:57:07Z</time>
      </trkpt>
      <trkpt lat="41.233141" lon="-6.511178">
        <ele>792.847</ele>
        <time>2018-07-24T07:57:08Z</time>
      </trkpt>
      <trkpt lat="41.233183" lon="-6.511304">
        <ele>792.512</ele>
        <time>2018-07-24T07:57:09Z</time>
      </trkpt>
      <trkpt lat="41.233214" lon="-6.511432">
        <ele>792.093</ele>
        <time>2018-07-24T07:57:10Z</time>
      </trkpt>
      <trkpt lat="41.233246" lon="-6.51156">
        <ele>791.555</ele>
        <time>2018-07-24T07:57:11Z</time>
      </trkpt>
      <trkpt lat="41.233281" lon="-6.511689">
        <ele>791.041</ele>
        <time>2018-07-24T07:57:12Z</time>
      </trkpt>
      <trkpt lat="41.23332" lon="-6.511814">
        <ele>790.52</ele>
        <time>2018-07-24T07:57:13Z</time>
      </trkpt>
      <trkpt lat="41.233364" lon="-6.511933">
        <ele>790.036</ele>
        <time>2018-07-24T07:57:14Z</time>
      </trkpt>
      <trkpt lat="41.233412" lon="-6.512046">
        <ele>789.508</ele>
        <time>2018-07-24T07:57:15Z</time>
      </trkpt>
      <trkpt lat="41.233474" lon="-6.512151">
        <ele>788.956</ele>
        <time>2018-07-24T07:57:16Z</time>
      </trkpt>
      <trkpt lat="41.233544" lon="-6.51225">
        <ele>788.439</ele>
        <time>2018-07-24T07:57:17Z</time>
      </trkpt>
      <trkpt lat="41.233612" lon="-6.512351">
        <ele>786.559</ele>
        <time>2018-07-24T07:57:18Z</time>
      </trkpt>
      <trkpt lat="41.233908" lon="-6.512717">
        <ele>786.036</ele>
        <time>2018-07-24T07:57:22Z</time>
      </trkpt>
      <trkpt lat="41.233984" lon="-6.512806">
        <ele>785.491</ele>
        <time>2018-07-24T07:57:23Z</time>
      </trkpt>
      <trkpt lat="41.23406" lon="-6.512896">
        <ele>784.927</ele>
        <time>2018-07-24T07:57:24Z</time>
      </trkpt>
      <trkpt lat="41.234136" lon="-6.512993">
        <ele>784.355</ele>
        <time>2018-07-24T07:57:25Z</time>
      </trkpt>
      <trkpt lat="41.234213" lon="-6.513089">
        <ele>783.71</ele>
        <time>2018-07-24T07:57:26Z</time>
      </trkpt>
      <trkpt lat="41.234288" lon="-6.513191">
        <ele>783.028</ele>
        <time>2018-07-24T07:57:27Z</time>
      </trkpt>
      <trkpt lat="41.234366" lon="-6.513291">
        <ele>781.758</ele>
        <time>2018-07-24T07:57:28Z</time>
      </trkpt>
      <trkpt lat="41.234516" lon="-6.513497">
        <ele>781.148</ele>
        <time>2018-07-24T07:57:30Z</time>
      </trkpt>
      <trkpt lat="41.234581" lon="-6.513614">
        <ele>780.548</ele>
        <time>2018-07-24T07:57:31Z</time>
      </trkpt>
      <trkpt lat="41.234643" lon="-6.513741">
        <ele>780.0</ele>
        <time>2018-07-24T07:57:32Z</time>
      </trkpt>
      <trkpt lat="41.234697" lon="-6.513868">
        <ele>779.472</ele>
        <time>2018-07-24T07:57:33Z</time>
      </trkpt>
      <trkpt lat="41.234749" lon="-6.513996">
        <ele>778.949</ele>
        <time>2018-07-24T07:57:34Z</time>
      </trkpt>
      <trkpt lat="41.234801" lon="-6.514124">
        <ele>778.436</ele>
        <time>2018-07-24T07:57:35Z</time>
      </trkpt>
      <trkpt lat="41.234852" lon="-6.514246">
        <ele>778.278</ele>
        <time>2018-07-24T07:57:36Z</time>
      </trkpt>
      <trkpt lat="41.234901" lon="-6.514355">
        <ele>778.063</ele>
        <time>2018-07-24T07:57:37Z</time>
      </trkpt>
      <trkpt lat="41.234951" lon="-6.514461">
        <ele>777.789</ele>
        <time>2018-07-24T07:57:38Z</time>
      </trkpt>
      <trkpt lat="41.234998" lon="-6.514562">
        <ele>777.708</ele>
        <time>2018-07-24T07:57:39Z</time>
      </trkpt>
      <trkpt lat="41.235038" lon="-6.514656">
        <ele>777.532</ele>
        <time>2018-07-24T07:57:40Z</time>
      </trkpt>
      <trkpt lat="41.235077" lon="-6.514742">
        <ele>777.261</ele>
        <time>2018-07-24T07:57:41Z</time>
      </trkpt>
      <trkpt lat="41.23511" lon="-6.51482">
        <ele>776.919</ele>
        <time>2018-07-24T07:57:42Z</time>
      </trkpt>
      <trkpt lat="41.235141" lon="-6.514895">
        <ele>776.542</ele>
        <time>2018-07-24T07:57:43Z</time>
      </trkpt>
      <trkpt lat="41.235173" lon="-6.51496">
        <ele>776.094</ele>
        <time>2018-07-24T07:57:44Z</time>
      </trkpt>
      <trkpt lat="41.2352" lon="-6.515016">
        <ele>775.623</ele>
        <time>2018-07-24T07:57:45Z</time>
      </trkpt>
      <trkpt lat="41.235222" lon="-6.515065">
        <ele>775.573</ele>
        <time>2018-07-24T07:57:46Z</time>
      </trkpt>
      <trkpt lat="41.235243" lon="-6.515109">
        <ele>775.512</ele>
        <time>2018-07-24T07:57:47Z</time>
      </trkpt>
      <trkpt lat="41.235261" lon="-6.515147">
        <ele>775.445</ele>
        <time>2018-07-24T07:57:48Z</time>
      </trkpt>
      <trkpt lat="41.235275" lon="-6.515178">
        <ele>775.37</ele>
        <time>2018-07-24T07:57:49Z</time>
      </trkpt>
      <trkpt lat="41.235287" lon="-6.515207">
        <ele>775.288</ele>
        <time>2018-07-24T07:57:50Z</time>
      </trkpt>
      <trkpt lat="41.2353" lon="-6.515237">
        <ele>775.198</ele>
        <time>2018-07-24T07:57:51Z</time>
      </trkpt>
      <trkpt lat="41.235312" lon="-6.515266">
        <ele>775.101</ele>
        <time>2018-07-24T07:57:52Z</time>
      </trkpt>
      <trkpt lat="41.235323" lon="-6.515294">
        <ele>775.004</ele>
        <time>2018-07-24T07:57:53Z</time>
      </trkpt>
      <trkpt lat="41.235333" lon="-6.515322">
        <ele>774.904</ele>
        <time>2018-07-24T07:57:54Z</time>
      </trkpt>
      <trkpt lat="41.235342" lon="-6.51535">
        <ele>774.799</ele>
        <time>2018-07-24T07:57:55Z</time>
      </trkpt>
      <trkpt lat="41.235352" lon="-6.515379">
        <ele>774.69</ele>
        <time>2018-07-24T07:57:56Z</time>
      </trkpt>
      <trkpt lat="41.235364" lon="-6.515409">
        <ele>774.457</ele>
        <time>2018-07-24T07:57:57Z</time>
      </trkpt>
      <trkpt lat="41.235384" lon="-6.515476">
        <ele>774.08</ele>
        <time>2018-07-24T07:57:59Z</time>
      </trkpt>
      <trkpt lat="41.235415" lon="-6.515553">
        <ele>773.948</ele>
        <time>2018-07-24T07:58:02Z</time>
      </trkpt>
      <trkpt lat="41.235428" lon="-6.515583">
        <ele>773.677</ele>
        <time>2018-07-24T07:58:03Z</time>
      </trkpt>
      <trkpt lat="41.235463" lon="-6.515648">
        <ele>773.538</ele>
        <time>2018-07-24T07:58:05Z</time>
      </trkpt>
      <trkpt lat="41.235479" lon="-6.515681">
        <ele>772.088</ele>
        <time>2018-07-24T07:58:06Z</time>
      </trkpt>
      <trkpt lat="41.2355" lon="-6.515719">
        <ele>770.874</ele>
        <time>2018-07-24T07:58:07Z</time>
      </trkpt>
      <trkpt lat="41.235528" lon="-6.515764">
        <ele>769.799</ele>
        <time>2018-07-24T07:58:08Z</time>
      </trkpt>
      <trkpt lat="41.23556" lon="-6.515807">
        <ele>768.881</ele>
        <time>2018-07-24T07:58:09Z</time>
      </trkpt>
      <trkpt lat="41.235595" lon="-6.515847">
        <ele>768.124</ele>
        <time>2018-07-24T07:58:10Z</time>
      </trkpt>
      <trkpt lat="41.235629" lon="-6.515881">
        <ele>767.455</ele>
        <time>2018-07-24T07:58:11Z</time>
      </trkpt>
      <trkpt lat="41.235664" lon="-6.51591">
        <ele>766.884</ele>
        <time>2018-07-24T07:58:12Z</time>
      </trkpt>
      <trkpt lat="41.235702" lon="-6.515939">
        <ele>766.787</ele>
        <time>2018-07-24T07:58:13Z</time>
      </trkpt>
      <trkpt lat="41.235771" lon="-6.515979">
        <ele>766.687</ele>
        <time>2018-07-24T07:58:15Z</time>
      </trkpt>
      <trkpt lat="41.235839" lon="-6.516011">
        <ele>766.584</ele>
        <time>2018-07-24T07:58:17Z</time>
      </trkpt>
      <trkpt lat="41.235916" lon="-6.516033">
        <ele>766.423</ele>
        <time>2018-07-24T07:58:19Z</time>
      </trkpt>
      <trkpt lat="41.235991" lon="-6.516059">
        <ele>766.423</ele>
        <time>2018-07-24T07:58:22Z</time>
      </trkpt>
      <trkpt lat="41.235991" lon="-6.516059">
        <ele>766.423</ele>
        <time>2018-07-24T07:58:27Z</time>
      </trkpt>
      <trkpt lat="41.235991" lon="-6.516059">
        <ele>765.695</ele>
        <time>2018-07-24T07:58:28Z</time>
      </trkpt>
      <trkpt lat="41.236039" lon="-6.516094">
        <ele>765.559</ele>
        <time>2018-07-24T07:58:58Z</time>
      </trkpt>
      <trkpt lat="41.236086" lon="-6.516106">
        <ele>764.899</ele>
        <time>2018-07-24T07:59:00Z</time>
      </trkpt>
      <trkpt lat="41.236126" lon="-6.516117">
        <ele>764.372</ele>
        <time>2018-07-24T07:59:01Z</time>
      </trkpt>
      <trkpt lat="41.236171" lon="-6.516126">
        <ele>763.947</ele>
        <time>2018-07-24T07:59:02Z</time>
      </trkpt>
      <trkpt lat="41.236219" lon="-6.51614">
        <ele>763.597</ele>
        <time>2018-07-24T07:59:03Z</time>
      </trkpt>
      <trkpt lat="41.236273" lon="-6.51616">
        <ele>763.315</ele>
        <time>2018-07-24T07:59:04Z</time>
      </trkpt>
      <trkpt lat="41.236319" lon="-6.516174">
        <ele>763.086</ele>
        <time>2018-07-24T07:59:05Z</time>
      </trkpt>
      <trkpt lat="41.236372" lon="-6.516192">
        <ele>762.899</ele>
        <time>2018-07-24T07:59:06Z</time>
      </trkpt>
      <trkpt lat="41.236428" lon="-6.51621">
        <ele>762.423</ele>
        <time>2018-07-24T07:59:07Z</time>
      </trkpt>
      <trkpt lat="41.236666" lon="-6.516328">
        <ele>762.342</ele>
        <time>2018-07-24T07:59:11Z</time>
      </trkpt>
      <trkpt lat="41.236725" lon="-6.516351">
        <ele>762.215</ele>
        <time>2018-07-24T07:59:12Z</time>
      </trkpt>
      <trkpt lat="41.236857" lon="-6.516395">
        <ele>762.167</ele>
        <time>2018-07-24T07:59:14Z</time>
      </trkpt>
      <trkpt lat="41.236922" lon="-6.516414">
        <ele>762.099</ele>
        <time>2018-07-24T07:59:15Z</time>
      </trkpt>
      <trkpt lat="41.23699" lon="-6.516432">
        <ele>762.017</ele>
        <time>2018-07-24T07:59:16Z</time>
      </trkpt>
      <trkpt lat="41.237053" lon="-6.516451">
        <ele>761.934</ele>
        <time>2018-07-24T07:59:17Z</time>
      </trkpt>
      <trkpt lat="41.237114" lon="-6.516483">
        <ele>761.829</ele>
        <time>2018-07-24T07:59:18Z</time>
      </trkpt>
      <trkpt lat="41.237172" lon="-6.516523">
        <ele>761.712</ele>
        <time>2018-07-24T07:59:19Z</time>
      </trkpt>
      <trkpt lat="41.237216" lon="-6.516583">
        <ele>761.539</ele>
        <time>2018-07-24T07:59:20Z</time>
      </trkpt>
      <trkpt lat="41.23725" lon="-6.516657">
        <ele>761.376</ele>
        <time>2018-07-24T07:59:21Z</time>
      </trkpt>
      <trkpt lat="41.237276" lon="-6.51674">
        <ele>761.187</ele>
        <time>2018-07-24T07:59:22Z</time>
      </trkpt>
      <trkpt lat="41.237291" lon="-6.516823">
        <ele>761.02</ele>
        <time>2018-07-24T07:59:23Z</time>
      </trkpt>
      <trkpt lat="41.237298" lon="-6.516904">
        <ele>760.866</ele>
        <time>2018-07-24T07:59:24Z</time>
      </trkpt>
      <trkpt lat="41.237303" lon="-6.516987">
        <ele>760.685</ele>
        <time>2018-07-24T07:59:25Z</time>
      </trkpt>
      <trkpt lat="41.237302" lon="-6.517068">
        <ele>760.372</ele>
        <time>2018-07-24T07:59:26Z</time>
      </trkpt>
      <trkpt lat="41.237287" lon="-6.517221">
        <ele>760.203</ele>
        <time>2018-07-24T07:59:28Z</time>
      </trkpt>
      <trkpt lat="41.237278" lon="-6.517295">
        <ele>760.0</ele>
        <time>2018-07-24T07:59:29Z</time>
      </trkpt>
      <trkpt lat="41.237274" lon="-6.517361">
        <ele>759.956</ele>
        <time>2018-07-24T07:59:30Z</time>
      </trkpt>
      <trkpt lat="41.237284" lon="-6.517458">
        <ele>759.93</ele>
        <time>2018-07-24T07:59:32Z</time>
      </trkpt>
      <trkpt lat="41.237289" lon="-6.517497">
        <ele>759.883</ele>
        <time>2018-07-24T07:59:33Z</time>
      </trkpt>
      <trkpt lat="41.237291" lon="-6.517568">
        <ele>759.808</ele>
        <time>2018-07-24T07:59:35Z</time>
      </trkpt>
      <trkpt lat="41.237302" lon="-6.517633">
        <ele>759.697</ele>
        <time>2018-07-24T07:59:37Z</time>
      </trkpt>
      <trkpt lat="41.237289" lon="-6.517702">
        <ele>759.581</ele>
        <time>2018-07-24T07:59:39Z</time>
      </trkpt>
      <trkpt lat="41.237264" lon="-6.517764">
        <ele>759.456</ele>
        <time>2018-07-24T07:59:41Z</time>
      </trkpt>
      <trkpt lat="41.237225" lon="-6.517837">
        <ele>759.391</ele>
        <time>2018-07-24T07:59:43Z</time>
      </trkpt>
      <trkpt lat="41.237205" lon="-6.517871">
        <ele>759.326</ele>
        <time>2018-07-24T07:59:44Z</time>
      </trkpt>
      <trkpt lat="41.237182" lon="-6.517906">
        <ele>759.261</ele>
        <time>2018-07-24T07:59:45Z</time>
      </trkpt>
      <trkpt lat="41.237156" lon="-6.517943">
        <ele>758.604</ele>
        <time>2018-07-24T07:59:46Z</time>
      </trkpt>
      <trkpt lat="41.23713" lon="-6.517981">
        <ele>758.003</ele>
        <time>2018-07-24T07:59:47Z</time>
      </trkpt>
      <trkpt lat="41.237101" lon="-6.518018">
        <ele>757.054</ele>
        <time>2018-07-24T07:59:48Z</time>
      </trkpt>
      <trkpt lat="41.237049" lon="-6.518111">
        <ele>756.669</ele>
        <time>2018-07-24T07:59:50Z</time>
      </trkpt>
      <trkpt lat="41.237024" lon="-6.518158">
        <ele>756.294</ele>
        <time>2018-07-24T07:59:51Z</time>
      </trkpt>
      <trkpt lat="41.236994" lon="-6.518203">
        <ele>755.955</ele>
        <time>2018-07-24T07:59:52Z</time>
      </trkpt>
      <trkpt lat="41.236959" lon="-6.51825">
        <ele>755.637</ele>
        <time>2018-07-24T07:59:53Z</time>
      </trkpt>
      <trkpt lat="41.236924" lon="-6.5183">
        <ele>755.353</ele>
        <time>2018-07-24T07:59:54Z</time>
      </trkpt>
      <trkpt lat="41.236887" lon="-6.518346">
        <ele>755.118</ele>
        <time>2018-07-24T07:59:55Z</time>
      </trkpt>
      <trkpt lat="41.236855" lon="-6.518402">
        <ele>754.906</ele>
        <time>2018-07-24T07:59:56Z</time>
      </trkpt>
      <trkpt lat="41.236822" lon="-6.518455">
        <ele>754.723</ele>
        <time>2018-07-24T07:59:57Z</time>
      </trkpt>
      <trkpt lat="41.236791" lon="-6.518512">
        <ele>754.543</ele>
        <time>2018-07-24T07:59:58Z</time>
      </trkpt>
      <trkpt lat="41.236759" lon="-6.518565">
        <ele>754.351</ele>
        <time>2018-07-24T07:59:59Z</time>
      </trkpt>
      <trkpt lat="41.236726" lon="-6.518618">
        <ele>754.15</ele>
        <time>2018-07-24T08:00:00Z</time>
      </trkpt>
      <trkpt lat="41.236696" lon="-6.518666">
        <ele>753.97</ele>
        <time>2018-07-24T08:00:01Z</time>
      </trkpt>
      <trkpt lat="41.236667" lon="-6.518711">
        <ele>753.73</ele>
        <time>2018-07-24T08:00:02Z</time>
      </trkpt>
      <trkpt lat="41.236637" lon="-6.518752">
        <ele>753.531</ele>
        <time>2018-07-24T08:00:03Z</time>
      </trkpt>
      <trkpt lat="41.236608" lon="-6.518791">
        <ele>753.513</ele>
        <time>2018-07-24T08:00:04Z</time>
      </trkpt>
      <trkpt lat="41.236579" lon="-6.518828">
        <ele>753.492</ele>
        <time>2018-07-24T08:00:05Z</time>
      </trkpt>
      <trkpt lat="41.236555" lon="-6.518858">
        <ele>753.469</ele>
        <time>2018-07-24T08:00:06Z</time>
      </trkpt>
      <trkpt lat="41.236533" lon="-6.518886">
        <ele>753.441</ele>
        <time>2018-07-24T08:00:07Z</time>
      </trkpt>
      <trkpt lat="41.236512" lon="-6.518912">
        <ele>753.086</ele>
        <time>2018-07-24T08:00:08Z</time>
      </trkpt>
      <trkpt lat="41.236466" lon="-6.518979">
        <ele>752.796</ele>
        <time>2018-07-24T08:00:10Z</time>
      </trkpt>
      <trkpt lat="41.236442" lon="-6.51902">
        <ele>752.296</ele>
        <time>2018-07-24T08:00:11Z</time>
      </trkpt>
      <trkpt lat="41.236411" lon="-6.519117">
        <ele>752.044</ele>
        <time>2018-07-24T08:00:13Z</time>
      </trkpt>
      <trkpt lat="41.236406" lon="-6.519177">
        <ele>751.767</ele>
        <time>2018-07-24T08:00:14Z</time>
      </trkpt>
      <trkpt lat="41.236405" lon="-6.519237">
        <ele>751.496</ele>
        <time>2018-07-24T08:00:15Z</time>
      </trkpt>
      <trkpt lat="41.236406" lon="-6.519305">
        <ele>751.25</ele>
        <time>2018-07-24T08:00:16Z</time>
      </trkpt>
      <trkpt lat="41.236407" lon="-6.519367">
        <ele>751.004</ele>
        <time>2018-07-24T08:00:17Z</time>
      </trkpt>
      <trkpt lat="41.236407" lon="-6.519422">
        <ele>750.981</ele>
        <time>2018-07-24T08:00:18Z</time>
      </trkpt>
      <trkpt lat="41.236406" lon="-6.519469">
        <ele>750.956</ele>
        <time>2018-07-24T08:00:19Z</time>
      </trkpt>
      <trkpt lat="41.236406" lon="-6.519511">
        <ele>750.93</ele>
        <time>2018-07-24T08:00:20Z</time>
      </trkpt>
      <trkpt lat="41.236407" lon="-6.519543">
        <ele>750.871</ele>
        <time>2018-07-24T08:00:21Z</time>
      </trkpt>
      <trkpt lat="41.236409" lon="-6.519583">
        <ele>750.829</ele>
        <time>2018-07-24T08:00:23Z</time>
      </trkpt>
      <trkpt lat="41.236409" lon="-6.519583">
        <ele>751.726</ele>
        <time>2018-07-24T08:00:29Z</time>
      </trkpt>
      <trkpt lat="41.236443" lon="-6.519649">
        <ele>751.734</ele>
        <time>2018-07-24T08:02:01Z</time>
      </trkpt>
      <trkpt lat="41.236457" lon="-6.519679">
        <ele>751.748</ele>
        <time>2018-07-24T08:02:02Z</time>
      </trkpt>
      <trkpt lat="41.236483" lon="-6.519756">
        <ele>751.764</ele>
        <time>2018-07-24T08:02:04Z</time>
      </trkpt>
      <trkpt lat="41.236537" lon="-6.519882">
        <ele>751.772</ele>
        <time>2018-07-24T08:02:07Z</time>
      </trkpt>
      <trkpt lat="41.236554" lon="-6.519961">
        <ele>751.779</ele>
        <time>2018-07-24T08:02:09Z</time>
      </trkpt>
      <trkpt lat="41.23657" lon="-6.520026">
        <ele>751.786</ele>
        <time>2018-07-24T08:02:11Z</time>
      </trkpt>
      <trkpt lat="41.236592" lon="-6.520135">
        <ele>751.787</ele>
        <time>2018-07-24T08:02:14Z</time>
      </trkpt>
      <trkpt lat="41.236602" lon="-6.520177">
        <ele>751.788</ele>
        <time>2018-07-24T08:02:15Z</time>
      </trkpt>
      <trkpt lat="41.236611" lon="-6.520212">
        <ele>751.789</ele>
        <time>2018-07-24T08:02:16Z</time>
      </trkpt>
      <trkpt lat="41.236618" lon="-6.520242">
        <ele>751.79</ele>
        <time>2018-07-24T08:02:17Z</time>
      </trkpt>
      <trkpt lat="41.236632" lon="-6.520303">
        <ele>751.789</ele>
        <time>2018-07-24T08:02:19Z</time>
      </trkpt>
      <trkpt lat="41.23664" lon="-6.520381">
        <ele>751.787</ele>
        <time>2018-07-24T08:02:21Z</time>
      </trkpt>
      <trkpt lat="41.236653" lon="-6.520451">
        <ele>751.785</ele>
        <time>2018-07-24T08:02:23Z</time>
      </trkpt>
      <trkpt lat="41.236658" lon="-6.520489">
        <ele>751.784</ele>
        <time>2018-07-24T08:02:24Z</time>
      </trkpt>
      <trkpt lat="41.236662" lon="-6.520531">
        <ele>751.779</ele>
        <time>2018-07-24T08:02:25Z</time>
      </trkpt>
      <trkpt lat="41.236668" lon="-6.520594">
        <ele>751.774</ele>
        <time>2018-07-24T08:02:27Z</time>
      </trkpt>
      <trkpt lat="41.236663" lon="-6.52067">
        <ele>751.769</ele>
        <time>2018-07-24T08:02:29Z</time>
      </trkpt>
      <trkpt lat="41.236655" lon="-6.520743">
        <ele>751.76</ele>
        <time>2018-07-24T08:02:31Z</time>
      </trkpt>
      <trkpt lat="41.236653" lon="-6.520845">
        <ele>751.75</ele>
        <time>2018-07-24T08:02:34Z</time>
      </trkpt>
      <trkpt lat="41.236659" lon="-6.520935">
        <ele>751.742</ele>
        <time>2018-07-24T08:02:37Z</time>
      </trkpt>
      <trkpt lat="41.236654" lon="-6.521004">
        <ele>751.736</ele>
        <time>2018-07-24T08:02:39Z</time>
      </trkpt>
      <trkpt lat="41.236649" lon="-6.521061">
        <ele>751.732</ele>
        <time>2018-07-24T08:02:41Z</time>
      </trkpt>
      <trkpt lat="41.236645" lon="-6.521097">
        <ele>751.728</ele>
        <time>2018-07-24T08:02:42Z</time>
      </trkpt>
      <trkpt lat="41.236641" lon="-6.521132">
        <ele>751.723</ele>
        <time>2018-07-24T08:02:43Z</time>
      </trkpt>
      <trkpt lat="41.236635" lon="-6.521162">
        <ele>751.713</ele>
        <time>2018-07-24T08:02:44Z</time>
      </trkpt>
      <trkpt lat="41.236625" lon="-6.521224">
        <ele>751.695</ele>
        <time>2018-07-24T08:02:46Z</time>
      </trkpt>
      <trkpt lat="41.236595" lon="-6.521317">
        <ele>751.68</ele>
        <time>2018-07-24T08:02:49Z</time>
      </trkpt>
      <trkpt lat="41.23658" lon="-6.521377">
        <ele>751.656</ele>
        <time>2018-07-24T08:02:51Z</time>
      </trkpt>
      <trkpt lat="41.236569" lon="-6.521455">
        <ele>751.633</ele>
        <time>2018-07-24T08:02:54Z</time>
      </trkpt>
      <trkpt lat="41.236553" lon="-6.521531">
        <ele>751.617</ele>
        <time>2018-07-24T08:02:57Z</time>
      </trkpt>
      <trkpt lat="41.236547" lon="-6.521576">
        <ele>751.594</ele>
        <time>2018-07-24T08:02:59Z</time>
      </trkpt>
      <trkpt lat="41.236545" lon="-6.521664">
        <ele>751.578</ele>
        <time>2018-07-24T08:03:02Z</time>
      </trkpt>
      <trkpt lat="41.236543" lon="-6.521712">
        <ele>751.555</ele>
        <time>2018-07-24T08:03:04Z</time>
      </trkpt>
      <trkpt lat="41.236526" lon="-6.5218">
        <ele>751.539</ele>
        <time>2018-07-24T08:03:07Z</time>
      </trkpt>
      <trkpt lat="41.236514" lon="-6.52188">
        <ele>751.439</ele>
        <time>2018-07-24T08:03:09Z</time>
      </trkpt>
      <trkpt lat="41.236501" lon="-6.521987">
        <ele>751.432</ele>
        <time>2018-07-24T08:03:11Z</time>
      </trkpt>
      <trkpt lat="41.236495" lon="-6.522036">
        <ele>751.424</ele>
        <time>2018-07-24T08:03:12Z</time>
      </trkpt>
      <trkpt lat="41.236491" lon="-6.522085">
        <ele>751.341</ele>
        <time>2018-07-24T08:03:13Z</time>
      </trkpt>
      <trkpt lat="41.236486" lon="-6.522132">
        <ele>751.266</ele>
        <time>2018-07-24T08:03:14Z</time>
      </trkpt>
      <trkpt lat="41.236483" lon="-6.522191">
        <ele>751.069</ele>
        <time>2018-07-24T08:03:15Z</time>
      </trkpt>
      <trkpt lat="41.23651" lon="-6.52241">
        <ele>751.018</ele>
        <time>2018-07-24T08:03:18Z</time>
      </trkpt>
      <trkpt lat="41.236523" lon="-6.522478">
        <ele>750.973</ele>
        <time>2018-07-24T08:03:19Z</time>
      </trkpt>
      <trkpt lat="41.236531" lon="-6.522543">
        <ele>750.966</ele>
        <time>2018-07-24T08:03:20Z</time>
      </trkpt>
      <trkpt lat="41.236553" lon="-6.522649">
        <ele>750.958</ele>
        <time>2018-07-24T08:03:22Z</time>
      </trkpt>
      <trkpt lat="41.236557" lon="-6.522728">
        <ele>750.949</ele>
        <time>2018-07-24T08:03:24Z</time>
      </trkpt>
      <trkpt lat="41.236545" lon="-6.522807">
        <ele>750.94</ele>
        <time>2018-07-24T08:03:26Z</time>
      </trkpt>
      <trkpt lat="41.236528" lon="-6.522865">
        <ele>750.925</ele>
        <time>2018-07-24T08:03:28Z</time>
      </trkpt>
      <trkpt lat="41.23652" lon="-6.522978">
        <ele>750.915</ele>
        <time>2018-07-24T08:03:31Z</time>
      </trkpt>
      <trkpt lat="41.236501" lon="-6.523062">
        <ele>750.904</ele>
        <time>2018-07-24T08:03:33Z</time>
      </trkpt>
      <trkpt lat="41.236486" lon="-6.523125">
        <ele>750.892</ele>
        <time>2018-07-24T08:03:35Z</time>
      </trkpt>
      <trkpt lat="41.236474" lon="-6.523174">
        <ele>750.879</ele>
        <time>2018-07-24T08:03:37Z</time>
      </trkpt>
      <trkpt lat="41.236477" lon="-6.523247">
        <ele>750.865</ele>
        <time>2018-07-24T08:03:39Z</time>
      </trkpt>
      <trkpt lat="41.236479" lon="-6.52331">
        <ele>750.858</ele>
        <time>2018-07-24T08:03:41Z</time>
      </trkpt>
      <trkpt lat="41.23648" lon="-6.523341">
        <ele>750.843</ele>
        <time>2018-07-24T08:03:42Z</time>
      </trkpt>
      <trkpt lat="41.236496" lon="-6.523402">
        <ele>750.818</ele>
        <time>2018-07-24T08:03:44Z</time>
      </trkpt>
      <trkpt lat="41.236532" lon="-6.523459">
        <ele>750.792</ele>
        <time>2018-07-24T08:03:47Z</time>
      </trkpt>
      <trkpt lat="41.236588" lon="-6.523474">
        <ele>750.774</ele>
        <time>2018-07-24T08:03:50Z</time>
      </trkpt>
      <trkpt lat="41.236634" lon="-6.523497">
        <ele>750.765</ele>
        <time>2018-07-24T08:03:52Z</time>
      </trkpt>
      <trkpt lat="41.236657" lon="-6.523509">
        <ele>750.756</ele>
        <time>2018-07-24T08:03:53Z</time>
      </trkpt>
      <trkpt lat="41.23668" lon="-6.523519">
        <ele>750.747</ele>
        <time>2018-07-24T08:03:54Z</time>
      </trkpt>
      <trkpt lat="41.236702" lon="-6.523528">
        <ele>750.738</ele>
        <time>2018-07-24T08:03:55Z</time>
      </trkpt>
      <trkpt lat="41.236725" lon="-6.523539">
        <ele>750.729</ele>
        <time>2018-07-24T08:03:56Z</time>
      </trkpt>
      <trkpt lat="41.236752" lon="-6.523551">
        <ele>750.72</ele>
        <time>2018-07-24T08:03:57Z</time>
      </trkpt>
      <trkpt lat="41.236776" lon="-6.523561">
        <ele>750.711</ele>
        <time>2018-07-24T08:03:58Z</time>
      </trkpt>
      <trkpt lat="41.236798" lon="-6.523572">
        <ele>750.703</ele>
        <time>2018-07-24T08:03:59Z</time>
      </trkpt>
      <trkpt lat="41.23682" lon="-6.523583">
        <ele>750.694</ele>
        <time>2018-07-24T08:04:00Z</time>
      </trkpt>
      <trkpt lat="41.236841" lon="-6.523596">
        <ele>750.677</ele>
        <time>2018-07-24T08:04:01Z</time>
      </trkpt>
      <trkpt lat="41.236886" lon="-6.523614">
        <ele>750.668</ele>
        <time>2018-07-24T08:04:03Z</time>
      </trkpt>
      <trkpt lat="41.236909" lon="-6.523624">
        <ele>750.66</ele>
        <time>2018-07-24T08:04:04Z</time>
      </trkpt>
      <trkpt lat="41.23693" lon="-6.523633">
        <ele>750.651</ele>
        <time>2018-07-24T08:04:05Z</time>
      </trkpt>
      <trkpt lat="41.236955" lon="-6.523643">
        <ele>750.643</ele>
        <time>2018-07-24T08:04:06Z</time>
      </trkpt>
      <trkpt lat="41.23698" lon="-6.523654">
        <ele>750.634</ele>
        <time>2018-07-24T08:04:07Z</time>
      </trkpt>
      <trkpt lat="41.237002" lon="-6.523665">
        <ele>750.626</ele>
        <time>2018-07-24T08:04:08Z</time>
      </trkpt>
      <trkpt lat="41.237027" lon="-6.523677">
        <ele>750.618</ele>
        <time>2018-07-24T08:04:09Z</time>
      </trkpt>
      <trkpt lat="41.237052" lon="-6.523686">
        <ele>750.592</ele>
        <time>2018-07-24T08:04:10Z</time>
      </trkpt>
      <trkpt lat="41.237116" lon="-6.523722">
        <ele>750.584</ele>
        <time>2018-07-24T08:04:13Z</time>
      </trkpt>
      <trkpt lat="41.237138" lon="-6.523737">
        <ele>750.567</ele>
        <time>2018-07-24T08:04:14Z</time>
      </trkpt>
      <trkpt lat="41.237178" lon="-6.52376">
        <ele>750.55</ele>
        <time>2018-07-24T08:04:16Z</time>
      </trkpt>
      <trkpt lat="41.237224" lon="-6.523783">
        <ele>750.527</ele>
        <time>2018-07-24T08:04:18Z</time>
      </trkpt>
      <trkpt lat="41.237278" lon="-6.523823">
        <ele>750.512</ele>
        <time>2018-07-24T08:04:21Z</time>
      </trkpt>
      <trkpt lat="41.237315" lon="-6.523855">
        <ele>750.49</ele>
        <time>2018-07-24T08:04:23Z</time>
      </trkpt>
      <trkpt lat="41.237388" lon="-6.523892">
        <ele>750.469</ele>
        <time>2018-07-24T08:04:26Z</time>
      </trkpt>
      <trkpt lat="41.237443" lon="-6.52391">
        <ele>750.456</ele>
        <time>2018-07-24T08:04:29Z</time>
      </trkpt>
      <trkpt lat="41.237481" lon="-6.52392">
        <ele>750.449</ele>
        <time>2018-07-24T08:04:31Z</time>
      </trkpt>
      <trkpt lat="41.237506" lon="-6.523927">
        <ele>750.43</ele>
        <time>2018-07-24T08:04:32Z</time>
      </trkpt>
      <trkpt lat="41.237568" lon="-6.523942">
        <ele>750.417</ele>
        <time>2018-07-24T08:04:35Z</time>
      </trkpt>
      <trkpt lat="41.237609" lon="-6.523955">
        <ele>750.398</ele>
        <time>2018-07-24T08:04:37Z</time>
      </trkpt>
      <trkpt lat="41.237645" lon="-6.523995">
        <ele>750.38</ele>
        <time>2018-07-24T08:04:40Z</time>
      </trkpt>
      <trkpt lat="41.237655" lon="-6.524088">
        <ele>750.364</ele>
        <time>2018-07-24T08:04:43Z</time>
      </trkpt>
      <trkpt lat="41.237684" lon="-6.524142">
        <ele>750.353</ele>
        <time>2018-07-24T08:04:46Z</time>
      </trkpt>
      <trkpt lat="41.237699" lon="-6.52417">
        <ele>750.332</ele>
        <time>2018-07-24T08:04:48Z</time>
      </trkpt>
      <trkpt lat="41.237748" lon="-6.5242">
        <ele>750.319</ele>
        <time>2018-07-24T08:04:52Z</time>
      </trkpt>
      <trkpt lat="41.237802" lon="-6.524201">
        <ele>750.31</ele>
        <time>2018-07-24T08:04:55Z</time>
      </trkpt>
      <trkpt lat="41.237844" lon="-6.524207">
        <ele>750.294</ele>
        <time>2018-07-24T08:04:57Z</time>
      </trkpt>
      <trkpt lat="41.237891" lon="-6.524234">
        <ele>750.279</ele>
        <time>2018-07-24T08:05:01Z</time>
      </trkpt>
      <trkpt lat="41.237886" lon="-6.524315">
        <ele>750.271</ele>
        <time>2018-07-24T08:05:05Z</time>
      </trkpt>
      <trkpt lat="41.237882" lon="-6.524358">
        <ele>750.258</ele>
        <time>2018-07-24T08:05:07Z</time>
      </trkpt>
      <trkpt lat="41.237866" lon="-6.524429">
        <ele>750.242</ele>
        <time>2018-07-24T08:05:10Z</time>
      </trkpt>
      <trkpt lat="41.237857" lon="-6.524499">
        <ele>750.226</ele>
        <time>2018-07-24T08:05:14Z</time>
      </trkpt>
      <trkpt lat="41.237844" lon="-6.524574">
        <ele>750.216</ele>
        <time>2018-07-24T08:05:18Z</time>
      </trkpt>
      <trkpt lat="41.237839" lon="-6.52461">
        <ele>750.199</ele>
        <time>2018-07-24T08:05:20Z</time>
      </trkpt>
      <trkpt lat="41.23783" lon="-6.52467">
        <ele>750.185</ele>
        <time>2018-07-24T08:05:24Z</time>
      </trkpt>
      <trkpt lat="41.237814" lon="-6.524734">
        <ele>750.177</ele>
        <time>2018-07-24T08:05:28Z</time>
      </trkpt>
      <trkpt lat="41.237806" lon="-6.524765">
        <ele>750.163</ele>
        <time>2018-07-24T08:05:30Z</time>
      </trkpt>
      <trkpt lat="41.237798" lon="-6.524834">
        <ele>750.153</ele>
        <time>2018-07-24T08:05:34Z</time>
      </trkpt>
      <trkpt lat="41.237789" lon="-6.524882">
        <ele>750.147</ele>
        <time>2018-07-24T08:05:37Z</time>
      </trkpt>
      <trkpt lat="41.237784" lon="-6.524921">
        <ele>750.14</ele>
        <time>2018-07-24T08:05:39Z</time>
      </trkpt>
      <trkpt lat="41.237775" lon="-6.524968">
        <ele>750.129</ele>
        <time>2018-07-24T08:05:41Z</time>
      </trkpt>
      <trkpt lat="41.237756" lon="-6.525032">
        <ele>750.119</ele>
        <time>2018-07-24T08:05:44Z</time>
      </trkpt>
      <trkpt lat="41.237744" lon="-6.525105">
        <ele>750.112</ele>
        <time>2018-07-24T08:05:47Z</time>
      </trkpt>
      <trkpt lat="41.237726" lon="-6.525171">
        <ele>750.107</ele>
        <time>2018-07-24T08:05:50Z</time>
      </trkpt>
      <trkpt lat="41.237716" lon="-6.525217">
        <ele>750.103</ele>
        <time>2018-07-24T08:05:52Z</time>
      </trkpt>
      <trkpt lat="41.237705" lon="-6.525262">
        <ele>750.097</ele>
        <time>2018-07-24T08:05:54Z</time>
      </trkpt>
      <trkpt lat="41.237682" lon="-6.525325">
        <ele>750.093</ele>
        <time>2018-07-24T08:05:57Z</time>
      </trkpt>
      <trkpt lat="41.237663" lon="-6.525375">
        <ele>750.09</ele>
        <time>2018-07-24T08:05:59Z</time>
      </trkpt>
      <trkpt lat="41.237646" lon="-6.525417">
        <ele>750.086</ele>
        <time>2018-07-24T08:06:01Z</time>
      </trkpt>
      <trkpt lat="41.237632" lon="-6.525449">
        <ele>750.079</ele>
        <time>2018-07-24T08:06:03Z</time>
      </trkpt>
      <trkpt lat="41.237621" lon="-6.525532">
        <ele>750.072</ele>
        <time>2018-07-24T08:06:06Z</time>
      </trkpt>
      <trkpt lat="41.237601" lon="-6.525591">
        <ele>750.064</ele>
        <time>2018-07-24T08:06:09Z</time>
      </trkpt>
      <trkpt lat="41.237575" lon="-6.525658">
        <ele>750.059</ele>
        <time>2018-07-24T08:06:13Z</time>
      </trkpt>
      <trkpt lat="41.237565" lon="-6.525725">
        <ele>750.054</ele>
        <time>2018-07-24T08:06:16Z</time>
      </trkpt>
      <trkpt lat="41.237561" lon="-6.525803">
        <ele>750.05</ele>
        <time>2018-07-24T08:06:19Z</time>
      </trkpt>
      <trkpt lat="41.237548" lon="-6.525881">
        <ele>750.047</ele>
        <time>2018-07-24T08:06:22Z</time>
      </trkpt>
      <trkpt lat="41.237543" lon="-6.525962">
        <ele>750.045</ele>
        <time>2018-07-24T08:06:25Z</time>
      </trkpt>
      <trkpt lat="41.237534" lon="-6.526029">
        <ele>750.045</ele>
        <time>2018-07-24T08:06:28Z</time>
      </trkpt>
      <trkpt lat="41.237528" lon="-6.526084">
        <ele>750.045</ele>
        <time>2018-07-24T08:06:30Z</time>
      </trkpt>
      <trkpt lat="41.237519" lon="-6.526137">
        <ele>750.046</ele>
        <time>2018-07-24T08:06:32Z</time>
      </trkpt>
      <trkpt lat="41.237516" lon="-6.526215">
        <ele>750.049</ele>
        <time>2018-07-24T08:06:35Z</time>
      </trkpt>
      <trkpt lat="41.237504" lon="-6.526306">
        <ele>750.05</ele>
        <time>2018-07-24T08:06:38Z</time>
      </trkpt>
      <trkpt lat="41.237499" lon="-6.526341">
        <ele>750.053</ele>
        <time>2018-07-24T08:06:39Z</time>
      </trkpt>
      <trkpt lat="41.237494" lon="-6.526398">
        <ele>750.057</ele>
        <time>2018-07-24T08:06:41Z</time>
      </trkpt>
      <trkpt lat="41.237488" lon="-6.526453">
        <ele>750.059</ele>
        <time>2018-07-24T08:06:43Z</time>
      </trkpt>
      <trkpt lat="41.237484" lon="-6.526485">
        <ele>750.061</ele>
        <time>2018-07-24T08:06:44Z</time>
      </trkpt>
      <trkpt lat="41.237481" lon="-6.52652">
        <ele>750.066</ele>
        <time>2018-07-24T08:06:45Z</time>
      </trkpt>
      <trkpt lat="41.237464" lon="-6.526578">
        <ele>750.068</ele>
        <time>2018-07-24T08:06:47Z</time>
      </trkpt>
      <trkpt lat="41.237455" lon="-6.526609">
        <ele>750.073</ele>
        <time>2018-07-24T08:06:48Z</time>
      </trkpt>
      <trkpt lat="41.237452" lon="-6.526687">
        <ele>750.077</ele>
        <time>2018-07-24T08:06:50Z</time>
      </trkpt>
      <trkpt lat="41.237438" lon="-6.52675">
        <ele>750.082</ele>
        <time>2018-07-24T08:06:52Z</time>
      </trkpt>
      <trkpt lat="41.237412" lon="-6.526833">
        <ele>750.103</ele>
        <time>2018-07-24T08:06:54Z</time>
      </trkpt>
      <trkpt lat="41.237397" lon="-6.52688">
        <ele>750.121</ele>
        <time>2018-07-24T08:06:55Z</time>
      </trkpt>
      <trkpt lat="41.237379" lon="-6.52693">
        <ele>750.135</ele>
        <time>2018-07-24T08:06:56Z</time>
      </trkpt>
      <trkpt lat="41.237355" lon="-6.526984">
        <ele>750.146</ele>
        <time>2018-07-24T08:06:57Z</time>
      </trkpt>
      <trkpt lat="41.237329" lon="-6.527041">
        <ele>750.169</ele>
        <time>2018-07-24T08:06:58Z</time>
      </trkpt>
      <trkpt lat="41.2373" lon="-6.527093">
        <ele>750.205</ele>
        <time>2018-07-24T08:06:59Z</time>
      </trkpt>
      <trkpt lat="41.23727" lon="-6.527153">
        <ele>750.249</ele>
        <time>2018-07-24T08:07:00Z</time>
      </trkpt>
      <trkpt lat="41.237235" lon="-6.52722">
        <ele>750.304</ele>
        <time>2018-07-24T08:07:01Z</time>
      </trkpt>
      <trkpt lat="41.237199" lon="-6.527288">
        <ele>750.366</ele>
        <time>2018-07-24T08:07:02Z</time>
      </trkpt>
      <trkpt lat="41.23716" lon="-6.527359">
        <ele>750.43</ele>
        <time>2018-07-24T08:07:03Z</time>
      </trkpt>
      <trkpt lat="41.23712" lon="-6.527436">
        <ele>750.494</ele>
        <time>2018-07-24T08:07:04Z</time>
      </trkpt>
      <trkpt lat="41.237077" lon="-6.527514">
        <ele>750.553</ele>
        <time>2018-07-24T08:07:05Z</time>
      </trkpt>
      <trkpt lat="41.237031" lon="-6.527596">
        <ele>750.593</ele>
        <time>2018-07-24T08:07:06Z</time>
      </trkpt>
      <trkpt lat="41.236982" lon="-6.52768">
        <ele>750.659</ele>
        <time>2018-07-24T08:07:07Z</time>
      </trkpt>
      <trkpt lat="41.236885" lon="-6.527851">
        <ele>750.678</ele>
        <time>2018-07-24T08:07:09Z</time>
      </trkpt>
      <trkpt lat="41.236836" lon="-6.52794">
        <ele>750.687</ele>
        <time>2018-07-24T08:07:10Z</time>
      </trkpt>
      <trkpt lat="41.236785" lon="-6.528025">
        <ele>750.68</ele>
        <time>2018-07-24T08:07:11Z</time>
      </trkpt>
      <trkpt lat="41.236731" lon="-6.528108">
        <ele>750.65</ele>
        <time>2018-07-24T08:07:12Z</time>
      </trkpt>
      <trkpt lat="41.236676" lon="-6.528194">
        <ele>750.599</ele>
        <time>2018-07-24T08:07:13Z</time>
      </trkpt>
      <trkpt lat="41.236621" lon="-6.528277">
        <ele>750.53</ele>
        <time>2018-07-24T08:07:14Z</time>
      </trkpt>
      <trkpt lat="41.236567" lon="-6.52836">
        <ele>750.459</ele>
        <time>2018-07-24T08:07:15Z</time>
      </trkpt>
      <trkpt lat="41.236513" lon="-6.528443">
        <ele>750.38</ele>
        <time>2018-07-24T08:07:16Z</time>
      </trkpt>
      <trkpt lat="41.236464" lon="-6.528525">
        <ele>750.303</ele>
        <time>2018-07-24T08:07:17Z</time>
      </trkpt>
      <trkpt lat="41.236419" lon="-6.528603">
        <ele>750.224</ele>
        <time>2018-07-24T08:07:18Z</time>
      </trkpt>
      <trkpt lat="41.236377" lon="-6.528674">
        <ele>750.171</ele>
        <time>2018-07-24T08:07:19Z</time>
      </trkpt>
      <trkpt lat="41.236333" lon="-6.52874">
        <ele>750.182</ele>
        <time>2018-07-24T08:07:20Z</time>
      </trkpt>
      <trkpt lat="41.23629" lon="-6.528799">
        <ele>750.185</ele>
        <time>2018-07-24T08:07:21Z</time>
      </trkpt>
      <trkpt lat="41.23625" lon="-6.528848">
        <ele>750.184</ele>
        <time>2018-07-24T08:07:22Z</time>
      </trkpt>
      <trkpt lat="41.236219" lon="-6.528885">
        <ele>750.174</ele>
        <time>2018-07-24T08:07:23Z</time>
      </trkpt>
      <trkpt lat="41.236185" lon="-6.528952">
        <ele>750.147</ele>
        <time>2018-07-24T08:07:26Z</time>
      </trkpt>
      <trkpt lat="41.236116" lon="-6.528983">
        <ele>750.128</ele>
        <time>2018-07-24T08:07:29Z</time>
      </trkpt>
      <trkpt lat="41.23606" lon="-6.529029">
        <ele>750.057</ele>
        <time>2018-07-24T08:07:31Z</time>
      </trkpt>
      <trkpt lat="41.23601" lon="-6.529097">
        <ele>750.044</ele>
        <time>2018-07-24T08:07:33Z</time>
      </trkpt>
      <trkpt lat="41.235951" lon="-6.529161">
        <ele>749.967</ele>
        <time>2018-07-24T08:07:35Z</time>
      </trkpt>
      <trkpt lat="41.235921" lon="-6.529193">
        <ele>749.962</ele>
        <time>2018-07-24T08:07:36Z</time>
      </trkpt>
      <trkpt lat="41.235892" lon="-6.529224">
        <ele>749.961</ele>
        <time>2018-07-24T08:07:37Z</time>
      </trkpt>
      <trkpt lat="41.235866" lon="-6.529252">
        <ele>749.96</ele>
        <time>2018-07-24T08:07:38Z</time>
      </trkpt>
      <trkpt lat="41.235841" lon="-6.529276">
        <ele>749.976</ele>
        <time>2018-07-24T08:07:39Z</time>
      </trkpt>
      <trkpt lat="41.235751" lon="-6.529347">
        <ele>749.979</ele>
        <time>2018-07-24T08:07:42Z</time>
      </trkpt>
      <trkpt lat="41.235698" lon="-6.529396">
        <ele>749.982</ele>
        <time>2018-07-24T08:07:44Z</time>
      </trkpt>
      <trkpt lat="41.235673" lon="-6.529419">
        <ele>749.985</ele>
        <time>2018-07-24T08:07:45Z</time>
      </trkpt>
      <trkpt lat="41.23565" lon="-6.529441">
        <ele>749.99</ele>
        <time>2018-07-24T08:07:46Z</time>
      </trkpt>
      <trkpt lat="41.235628" lon="-6.529463">
        <ele>749.997</ele>
        <time>2018-07-24T08:07:47Z</time>
      </trkpt>
      <trkpt lat="41.235606" lon="-6.529484">
        <ele>750.009</ele>
        <time>2018-07-24T08:07:48Z</time>
      </trkpt>
      <trkpt lat="41.235568" lon="-6.529539">
        <ele>750.034</ele>
        <time>2018-07-24T08:07:50Z</time>
      </trkpt>
      <trkpt lat="41.235522" lon="-6.529581">
        <ele>750.038</ele>
        <time>2018-07-24T08:07:52Z</time>
      </trkpt>
      <trkpt lat="41.235497" lon="-6.529603">
        <ele>750.04</ele>
        <time>2018-07-24T08:07:53Z</time>
      </trkpt>
      <trkpt lat="41.235475" lon="-6.529626">
        <ele>750.039</ele>
        <time>2018-07-24T08:07:54Z</time>
      </trkpt>
      <trkpt lat="41.235453" lon="-6.529646">
        <ele>750.036</ele>
        <time>2018-07-24T08:07:55Z</time>
      </trkpt>
      <trkpt lat="41.235429" lon="-6.529666">
        <ele>750.026</ele>
        <time>2018-07-24T08:07:56Z</time>
      </trkpt>
      <trkpt lat="41.235404" lon="-6.529687">
        <ele>750.005</ele>
        <time>2018-07-24T08:07:57Z</time>
      </trkpt>
      <trkpt lat="41.235359" lon="-6.52974">
        <ele>749.99</ele>
        <time>2018-07-24T08:07:59Z</time>
      </trkpt>
      <trkpt lat="41.235305" lon="-6.529783">
        <ele>749.982</ele>
        <time>2018-07-24T08:08:01Z</time>
      </trkpt>
      <trkpt lat="41.235275" lon="-6.529805">
        <ele>749.863</ele>
        <time>2018-07-24T08:08:02Z</time>
      </trkpt>
      <trkpt lat="41.235198" lon="-6.529887">
        <ele>749.856</ele>
        <time>2018-07-24T08:08:05Z</time>
      </trkpt>
      <trkpt lat="41.235166" lon="-6.529924">
        <ele>749.79</ele>
        <time>2018-07-24T08:08:06Z</time>
      </trkpt>
      <trkpt lat="41.235103" lon="-6.529985">
        <ele>749.784</ele>
        <time>2018-07-24T08:08:08Z</time>
      </trkpt>
      <trkpt lat="41.235076" lon="-6.530013">
        <ele>749.778</ele>
        <time>2018-07-24T08:08:09Z</time>
      </trkpt>
      <trkpt lat="41.235049" lon="-6.530039">
        <ele>749.767</ele>
        <time>2018-07-24T08:08:10Z</time>
      </trkpt>
      <trkpt lat="41.235003" lon="-6.530095">
        <ele>749.762</ele>
        <time>2018-07-24T08:08:12Z</time>
      </trkpt>
      <trkpt lat="41.23498" lon="-6.530124">
        <ele>749.757</ele>
        <time>2018-07-24T08:08:13Z</time>
      </trkpt>
      <trkpt lat="41.234954" lon="-6.530155">
        <ele>749.752</ele>
        <time>2018-07-24T08:08:14Z</time>
      </trkpt>
      <trkpt lat="41.234929" lon="-6.530188">
        <ele>749.746</ele>
        <time>2018-07-24T08:08:15Z</time>
      </trkpt>
      <trkpt lat="41.234902" lon="-6.530222">
        <ele>749.687</ele>
        <time>2018-07-24T08:08:16Z</time>
      </trkpt>
      <trkpt lat="41.234877" lon="-6.530258">
        <ele>749.682</ele>
        <time>2018-07-24T08:08:17Z</time>
      </trkpt>
      <trkpt lat="41.234853" lon="-6.530296">
        <ele>749.629</ele>
        <time>2018-07-24T08:08:18Z</time>
      </trkpt>
      <trkpt lat="41.234832" lon="-6.530335">
        <ele>749.587</ele>
        <time>2018-07-24T08:08:19Z</time>
      </trkpt>
      <trkpt lat="41.234808" lon="-6.530376">
        <ele>749.544</ele>
        <time>2018-07-24T08:08:20Z</time>
      </trkpt>
      <trkpt lat="41.234782" lon="-6.530416">
        <ele>749.541</ele>
        <time>2018-07-24T08:08:21Z</time>
      </trkpt>
      <trkpt lat="41.234756" lon="-6.530452">
        <ele>749.499</ele>
        <time>2018-07-24T08:08:22Z</time>
      </trkpt>
      <trkpt lat="41.23473" lon="-6.530487">
        <ele>749.458</ele>
        <time>2018-07-24T08:08:23Z</time>
      </trkpt>
      <trkpt lat="41.234698" lon="-6.530527">
        <ele>749.424</ele>
        <time>2018-07-24T08:08:24Z</time>
      </trkpt>
      <trkpt lat="41.234667" lon="-6.530567">
        <ele>749.385</ele>
        <time>2018-07-24T08:08:25Z</time>
      </trkpt>
      <trkpt lat="41.234636" lon="-6.53061">
        <ele>749.347</ele>
        <time>2018-07-24T08:08:26Z</time>
      </trkpt>
      <trkpt lat="41.234602" lon="-6.530655">
        <ele>749.315</ele>
        <time>2018-07-24T08:08:27Z</time>
      </trkpt>
      <trkpt lat="41.234569" lon="-6.530699">
        <ele>749.282</ele>
        <time>2018-07-24T08:08:28Z</time>
      </trkpt>
      <trkpt lat="41.234534" lon="-6.530748">
        <ele>749.247</ele>
        <time>2018-07-24T08:08:29Z</time>
      </trkpt>
      <trkpt lat="41.234496" lon="-6.530791">
        <ele>749.213</ele>
        <time>2018-07-24T08:08:30Z</time>
      </trkpt>
      <trkpt lat="41.234457" lon="-6.530837">
        <ele>749.18</ele>
        <time>2018-07-24T08:08:31Z</time>
      </trkpt>
      <trkpt lat="41.234419" lon="-6.530883">
        <ele>749.152</ele>
        <time>2018-07-24T08:08:32Z</time>
      </trkpt>
      <trkpt lat="41.234379" lon="-6.530928">
        <ele>749.122</ele>
        <time>2018-07-24T08:08:33Z</time>
      </trkpt>
      <trkpt lat="41.234341" lon="-6.530975">
        <ele>749.094</ele>
        <time>2018-07-24T08:08:34Z</time>
      </trkpt>
      <trkpt lat="41.2343" lon="-6.531026">
        <ele>749.072</ele>
        <time>2018-07-24T08:08:35Z</time>
      </trkpt>
      <trkpt lat="41.234259" lon="-6.531076">
        <ele>749.05</ele>
        <time>2018-07-24T08:08:36Z</time>
      </trkpt>
      <trkpt lat="41.23422" lon="-6.531124">
        <ele>749.027</ele>
        <time>2018-07-24T08:08:37Z</time>
      </trkpt>
      <trkpt lat="41.234184" lon="-6.531172">
        <ele>749.001</ele>
        <time>2018-07-24T08:08:38Z</time>
      </trkpt>
      <trkpt lat="41.234143" lon="-6.531224">
        <ele>748.972</ele>
        <time>2018-07-24T08:08:39Z</time>
      </trkpt>
      <trkpt lat="41.234105" lon="-6.531278">
        <ele>748.946</ele>
        <time>2018-07-24T08:08:40Z</time>
      </trkpt>
      <trkpt lat="41.234068" lon="-6.531333">
        <ele>748.922</ele>
        <time>2018-07-24T08:08:41Z</time>
      </trkpt>
      <trkpt lat="41.234031" lon="-6.53139">
        <ele>748.896</ele>
        <time>2018-07-24T08:08:42Z</time>
      </trkpt>
      <trkpt lat="41.234002" lon="-6.531456">
        <ele>748.87</ele>
        <time>2018-07-24T08:08:43Z</time>
      </trkpt>
      <trkpt lat="41.233975" lon="-6.531516">
        <ele>748.838</ele>
        <time>2018-07-24T08:08:44Z</time>
      </trkpt>
      <trkpt lat="41.23394" lon="-6.531575">
        <ele>748.792</ele>
        <time>2018-07-24T08:08:45Z</time>
      </trkpt>
      <trkpt lat="41.233903" lon="-6.531632">
        <ele>748.737</ele>
        <time>2018-07-24T08:08:46Z</time>
      </trkpt>
      <trkpt lat="41.23387" lon="-6.531694">
        <ele>748.686</ele>
        <time>2018-07-24T08:08:47Z</time>
      </trkpt>
      <trkpt lat="41.233836" lon="-6.531751">
        <ele>748.638</ele>
        <time>2018-07-24T08:08:48Z</time>
      </trkpt>
      <trkpt lat="41.233803" lon="-6.53181">
        <ele>748.584</ele>
        <time>2018-07-24T08:08:49Z</time>
      </trkpt>
      <trkpt lat="41.233765" lon="-6.531872">
        <ele>748.531</ele>
        <time>2018-07-24T08:08:50Z</time>
      </trkpt>
      <trkpt lat="41.233728" lon="-6.531929">
        <ele>748.486</ele>
        <time>2018-07-24T08:08:51Z</time>
      </trkpt>
      <trkpt lat="41.23369" lon="-6.531984">
        <ele>748.439</ele>
        <time>2018-07-24T08:08:52Z</time>
      </trkpt>
      <trkpt lat="41.233648" lon="-6.53204">
        <ele>748.393</ele>
        <time>2018-07-24T08:08:53Z</time>
      </trkpt>
      <trkpt lat="41.233605" lon="-6.532096">
        <ele>748.343</ele>
        <time>2018-07-24T08:08:54Z</time>
      </trkpt>
      <trkpt lat="41.23356" lon="-6.53215">
        <ele>748.278</ele>
        <time>2018-07-24T08:08:55Z</time>
      </trkpt>
      <trkpt lat="41.23352" lon="-6.532203">
        <ele>748.181</ele>
        <time>2018-07-24T08:08:56Z</time>
      </trkpt>
      <trkpt lat="41.233466" lon="-6.532258">
        <ele>748.081</ele>
        <time>2018-07-24T08:08:57Z</time>
      </trkpt>
      <trkpt lat="41.233417" lon="-6.532316">
        <ele>747.953</ele>
        <time>2018-07-24T08:08:58Z</time>
      </trkpt>
      <trkpt lat="41.233361" lon="-6.532377">
        <ele>747.801</ele>
        <time>2018-07-24T08:08:59Z</time>
      </trkpt>
      <trkpt lat="41.233299" lon="-6.532437">
        <ele>747.636</ele>
        <time>2018-07-24T08:09:00Z</time>
      </trkpt>
      <trkpt lat="41.233237" lon="-6.532495">
        <ele>747.454</ele>
        <time>2018-07-24T08:09:01Z</time>
      </trkpt>
      <trkpt lat="41.233172" lon="-6.532554">
        <ele>747.215</ele>
        <time>2018-07-24T08:09:02Z</time>
      </trkpt>
      <trkpt lat="41.233105" lon="-6.532615">
        <ele>746.974</ele>
        <time>2018-07-24T08:09:03Z</time>
      </trkpt>
      <trkpt lat="41.233035" lon="-6.532669">
        <ele>746.701</ele>
        <time>2018-07-24T08:09:04Z</time>
      </trkpt>
      <trkpt lat="41.232964" lon="-6.532714">
        <ele>746.449</ele>
        <time>2018-07-24T08:09:05Z</time>
      </trkpt>
      <trkpt lat="41.232897" lon="-6.532752">
        <ele>745.923</ele>
        <time>2018-07-24T08:09:06Z</time>
      </trkpt>
      <trkpt lat="41.232771" lon="-6.532821">
        <ele>745.672</ele>
        <time>2018-07-24T08:09:08Z</time>
      </trkpt>
      <trkpt lat="41.232711" lon="-6.532851">
        <ele>745.418</ele>
        <time>2018-07-24T08:09:09Z</time>
      </trkpt>
      <trkpt lat="41.232653" lon="-6.532866">
        <ele>745.166</ele>
        <time>2018-07-24T08:09:10Z</time>
      </trkpt>
      <trkpt lat="41.232597" lon="-6.532876">
        <ele>744.9</ele>
        <time>2018-07-24T08:09:11Z</time>
      </trkpt>
      <trkpt lat="41.232543" lon="-6.532875">
        <ele>744.64</ele>
        <time>2018-07-24T08:09:12Z</time>
      </trkpt>
      <trkpt lat="41.232484" lon="-6.532876">
        <ele>744.386</ele>
        <time>2018-07-24T08:09:13Z</time>
      </trkpt>
      <trkpt lat="41.232424" lon="-6.532874">
        <ele>744.161</ele>
        <time>2018-07-24T08:09:14Z</time>
      </trkpt>
      <trkpt lat="41.232364" lon="-6.53287">
        <ele>743.912</ele>
        <time>2018-07-24T08:09:15Z</time>
      </trkpt>
      <trkpt lat="41.232309" lon="-6.532859">
        <ele>743.615</ele>
        <time>2018-07-24T08:09:16Z</time>
      </trkpt>
      <trkpt lat="41.232256" lon="-6.532839">
        <ele>743.339</ele>
        <time>2018-07-24T08:09:17Z</time>
      </trkpt>
      <trkpt lat="41.232204" lon="-6.532822">
        <ele>742.956</ele>
        <time>2018-07-24T08:09:18Z</time>
      </trkpt>
      <trkpt lat="41.23215" lon="-6.532813">
        <ele>742.562</ele>
        <time>2018-07-24T08:09:19Z</time>
      </trkpt>
      <trkpt lat="41.232099" lon="-6.53281">
        <ele>742.145</ele>
        <time>2018-07-24T08:09:20Z</time>
      </trkpt>
      <trkpt lat="41.232046" lon="-6.532811">
        <ele>740.944</ele>
        <time>2018-07-24T08:09:21Z</time>
      </trkpt>
      <trkpt lat="41.231861" lon="-6.532792">
        <ele>740.615</ele>
        <time>2018-07-24T08:09:24Z</time>
      </trkpt>
      <trkpt lat="41.231802" lon="-6.532789">
        <ele>740.312</ele>
        <time>2018-07-24T08:09:25Z</time>
      </trkpt>
      <trkpt lat="41.231751" lon="-6.532786">
        <ele>739.944</ele>
        <time>2018-07-24T08:09:26Z</time>
      </trkpt>
      <trkpt lat="41.231692" lon="-6.53278">
        <ele>739.515</ele>
        <time>2018-07-24T08:09:27Z</time>
      </trkpt>
      <trkpt lat="41.231625" lon="-6.532765">
        <ele>739.039</ele>
        <time>2018-07-24T08:09:28Z</time>
      </trkpt>
      <trkpt lat="41.231557" lon="-6.532745">
        <ele>738.601</ele>
        <time>2018-07-24T08:09:29Z</time>
      </trkpt>
      <trkpt lat="41.231492" lon="-6.532723">
        <ele>738.148</ele>
        <time>2018-07-24T08:09:30Z</time>
      </trkpt>
      <trkpt lat="41.231426" lon="-6.532691">
        <ele>737.043</ele>
        <time>2018-07-24T08:09:31Z</time>
      </trkpt>
      <trkpt lat="41.231301" lon="-6.532621">
        <ele>736.391</ele>
        <time>2018-07-24T08:09:33Z</time>
      </trkpt>
      <trkpt lat="41.23124" lon="-6.532599">
        <ele>735.743</ele>
        <time>2018-07-24T08:09:34Z</time>
      </trkpt>
      <trkpt lat="41.231181" lon="-6.532578">
        <ele>735.064</ele>
        <time>2018-07-24T08:09:35Z</time>
      </trkpt>
      <trkpt lat="41.231123" lon="-6.532559">
        <ele>734.426</ele>
        <time>2018-07-24T08:09:36Z</time>
      </trkpt>
      <trkpt lat="41.231074" lon="-6.532545">
        <ele>733.753</ele>
        <time>2018-07-24T08:09:37Z</time>
      </trkpt>
      <trkpt lat="41.231022" lon="-6.532532">
        <ele>733.021</ele>
        <time>2018-07-24T08:09:38Z</time>
      </trkpt>
      <trkpt lat="41.230965" lon="-6.532521">
        <ele>732.346</ele>
        <time>2018-07-24T08:09:39Z</time>
      </trkpt>
      <trkpt lat="41.230912" lon="-6.53251">
        <ele>731.459</ele>
        <time>2018-07-24T08:09:40Z</time>
      </trkpt>
      <trkpt lat="41.230827" lon="-6.532508">
        <ele>730.651</ele>
        <time>2018-07-24T08:09:42Z</time>
      </trkpt>
      <trkpt lat="41.230784" lon="-6.532511">
        <ele>729.95</ele>
        <time>2018-07-24T08:09:43Z</time>
      </trkpt>
      <trkpt lat="41.230742" lon="-6.532536">
        <ele>729.236</ele>
        <time>2018-07-24T08:09:44Z</time>
      </trkpt>
      <trkpt lat="41.230693" lon="-6.532568">
        <ele>728.456</ele>
        <time>2018-07-24T08:09:45Z</time>
      </trkpt>
      <trkpt lat="41.23064" lon="-6.532609">
        <ele>726.016</ele>
        <time>2018-07-24T08:09:46Z</time>
      </trkpt>
      <trkpt lat="41.230477" lon="-6.53279">
        <ele>725.242</ele>
        <time>2018-07-24T08:09:49Z</time>
      </trkpt>
      <trkpt lat="41.23042" lon="-6.532843">
        <ele>724.403</ele>
        <time>2018-07-24T08:09:50Z</time>
      </trkpt>
      <trkpt lat="41.230359" lon="-6.532889">
        <ele>723.575</ele>
        <time>2018-07-24T08:09:51Z</time>
      </trkpt>
      <trkpt lat="41.230304" lon="-6.532935">
        <ele>722.721</ele>
        <time>2018-07-24T08:09:52Z</time>
      </trkpt>
      <trkpt lat="41.230255" lon="-6.532977">
        <ele>721.858</ele>
        <time>2018-07-24T08:09:53Z</time>
      </trkpt>
      <trkpt lat="41.2302" lon="-6.533016">
        <ele>720.999</ele>
        <time>2018-07-24T08:09:54Z</time>
      </trkpt>
      <trkpt lat="41.230133" lon="-6.53305">
        <ele>720.108</ele>
        <time>2018-07-24T08:09:55Z</time>
      </trkpt>
      <trkpt lat="41.230059" lon="-6.533092">
        <ele>719.209</ele>
        <time>2018-07-24T08:09:56Z</time>
      </trkpt>
      <trkpt lat="41.229983" lon="-6.533133">
        <ele>718.301</ele>
        <time>2018-07-24T08:09:57Z</time>
      </trkpt>
      <trkpt lat="41.22991" lon="-6.533168">
        <ele>717.391</ele>
        <time>2018-07-24T08:09:58Z</time>
      </trkpt>
      <trkpt lat="41.229829" lon="-6.5332">
        <ele>716.499</ele>
        <time>2018-07-24T08:09:59Z</time>
      </trkpt>
      <trkpt lat="41.229746" lon="-6.533241">
        <ele>715.635</ele>
        <time>2018-07-24T08:10:00Z</time>
      </trkpt>
      <trkpt lat="41.229659" lon="-6.533281">
        <ele>714.795</ele>
        <time>2018-07-24T08:10:01Z</time>
      </trkpt>
      <trkpt lat="41.229573" lon="-6.533319">
        <ele>711.7</ele>
        <time>2018-07-24T08:10:02Z</time>
      </trkpt>
      <trkpt lat="41.229244" lon="-6.533478">
        <ele>711.007</ele>
        <time>2018-07-24T08:10:06Z</time>
      </trkpt>
      <trkpt lat="41.22917" lon="-6.533532">
        <ele>710.353</ele>
        <time>2018-07-24T08:10:07Z</time>
      </trkpt>
      <trkpt lat="41.229102" lon="-6.533577">
        <ele>709.018</ele>
        <time>2018-07-24T08:10:08Z</time>
      </trkpt>
      <trkpt lat="41.228979" lon="-6.533694">
        <ele>708.391</ele>
        <time>2018-07-24T08:10:10Z</time>
      </trkpt>
      <trkpt lat="41.228916" lon="-6.533758">
        <ele>707.796</ele>
        <time>2018-07-24T08:10:11Z</time>
      </trkpt>
      <trkpt lat="41.228856" lon="-6.533815">
        <ele>707.187</ele>
        <time>2018-07-24T08:10:12Z</time>
      </trkpt>
      <trkpt lat="41.228797" lon="-6.533868">
        <ele>706.556</ele>
        <time>2018-07-24T08:10:13Z</time>
      </trkpt>
      <trkpt lat="41.228744" lon="-6.533932">
        <ele>706.053</ele>
        <time>2018-07-24T08:10:14Z</time>
      </trkpt>
      <trkpt lat="41.228693" lon="-6.533996">
        <ele>705.606</ele>
        <time>2018-07-24T08:10:15Z</time>
      </trkpt>
      <trkpt lat="41.228645" lon="-6.534057">
        <ele>705.089</ele>
        <time>2018-07-24T08:10:16Z</time>
      </trkpt>
      <trkpt lat="41.2286" lon="-6.534116">
        <ele>704.532</ele>
        <time>2018-07-24T08:10:17Z</time>
      </trkpt>
      <trkpt lat="41.228561" lon="-6.534173">
        <ele>704.003</ele>
        <time>2018-07-24T08:10:18Z</time>
      </trkpt>
      <trkpt lat="41.228529" lon="-6.534228">
        <ele>703.471</ele>
        <time>2018-07-24T08:10:19Z</time>
      </trkpt>
      <trkpt lat="41.228502" lon="-6.534279">
        <ele>702.311</ele>
        <time>2018-07-24T08:10:20Z</time>
      </trkpt>
      <trkpt lat="41.228498" lon="-6.534395">
        <ele>701.693</ele>
        <time>2018-07-24T08:10:22Z</time>
      </trkpt>
      <trkpt lat="41.228507" lon="-6.534456">
        <ele>701.135</ele>
        <time>2018-07-24T08:10:23Z</time>
      </trkpt>
      <trkpt lat="41.228514" lon="-6.534518">
        <ele>700.546</ele>
        <time>2018-07-24T08:10:24Z</time>
      </trkpt>
      <trkpt lat="41.228523" lon="-6.534578">
        <ele>699.957</ele>
        <time>2018-07-24T08:10:25Z</time>
      </trkpt>
      <trkpt lat="41.22852" lon="-6.534638">
        <ele>699.369</ele>
        <time>2018-07-24T08:10:26Z</time>
      </trkpt>
      <trkpt lat="41.228496" lon="-6.534702">
        <ele>698.847</ele>
        <time>2018-07-24T08:10:27Z</time>
      </trkpt>
      <trkpt lat="41.228466" lon="-6.534759">
        <ele>698.435</ele>
        <time>2018-07-24T08:10:28Z</time>
      </trkpt>
      <trkpt lat="41.228424" lon="-6.534807">
        <ele>698.02</ele>
        <time>2018-07-24T08:10:29Z</time>
      </trkpt>
      <trkpt lat="41.228377" lon="-6.534851">
        <ele>697.756</ele>
        <time>2018-07-24T08:10:30Z</time>
      </trkpt>
      <trkpt lat="41.228335" lon="-6.534887">
        <ele>697.725</ele>
        <time>2018-07-24T08:10:31Z</time>
      </trkpt>
      <trkpt lat="41.228306" lon="-6.534913">
        <ele>697.698</ele>
        <time>2018-07-24T08:10:32Z</time>
      </trkpt>
      <trkpt lat="41.228285" lon="-6.534931">
        <ele>697.617</ele>
        <time>2018-07-24T08:10:33Z</time>
      </trkpt>
      <trkpt lat="41.228258" lon="-6.534958">
        <ele>697.487</ele>
        <time>2018-07-24T08:10:35Z</time>
      </trkpt>
      <trkpt lat="41.228223" lon="-6.535016">
        <ele>695.989</ele>
        <time>2018-07-24T08:10:37Z</time>
      </trkpt>
      <trkpt lat="41.228186" lon="-6.535099">
        <ele>694.708</ele>
        <time>2018-07-24T08:10:39Z</time>
      </trkpt>
      <trkpt lat="41.228159" lon="-6.535204">
        <ele>694.054</ele>
        <time>2018-07-24T08:10:41Z</time>
      </trkpt>
      <trkpt lat="41.228156" lon="-6.535267">
        <ele>693.414</ele>
        <time>2018-07-24T08:10:42Z</time>
      </trkpt>
      <trkpt lat="41.228164" lon="-6.535333">
        <ele>692.812</ele>
        <time>2018-07-24T08:10:43Z</time>
      </trkpt>
      <trkpt lat="41.228178" lon="-6.5354">
        <ele>691.037</ele>
        <time>2018-07-24T08:10:44Z</time>
      </trkpt>
      <trkpt lat="41.22825" lon="-6.535685">
        <ele>690.497</ele>
        <time>2018-07-24T08:10:47Z</time>
      </trkpt>
      <trkpt lat="41.228252" lon="-6.53578">
        <ele>689.928</ele>
        <time>2018-07-24T08:10:48Z</time>
      </trkpt>
      <trkpt lat="41.228244" lon="-6.53585">
        <ele>689.426</ele>
        <time>2018-07-24T08:10:49Z</time>
      </trkpt>
      <trkpt lat="41.228235" lon="-6.535907">
        <ele>689.065</ele>
        <time>2018-07-24T08:10:50Z</time>
      </trkpt>
      <trkpt lat="41.228225" lon="-6.535961">
        <ele>689.02</ele>
        <time>2018-07-24T08:10:51Z</time>
      </trkpt>
      <trkpt lat="41.228229" lon="-6.536066">
        <ele>688.976</ele>
        <time>2018-07-24T08:10:53Z</time>
      </trkpt>
      <trkpt lat="41.22824" lon="-6.536127">
        <ele>688.944</ele>
        <time>2018-07-24T08:10:55Z</time>
      </trkpt>
      <trkpt lat="41.228246" lon="-6.53616">
        <ele>688.855</ele>
        <time>2018-07-24T08:10:56Z</time>
      </trkpt>
      <trkpt lat="41.228246" lon="-6.536223">
        <ele>688.749</ele>
        <time>2018-07-24T08:10:58Z</time>
      </trkpt>
      <trkpt lat="41.228238" lon="-6.536295">
        <ele>688.606</ele>
        <time>2018-07-24T08:11:00Z</time>
      </trkpt>
      <trkpt lat="41.228198" lon="-6.53635">
        <ele>688.431</ele>
        <time>2018-07-24T08:11:03Z</time>
      </trkpt>
      <trkpt lat="41.228141" lon="-6.536397">
        <ele>688.373</ele>
        <time>2018-07-24T08:11:06Z</time>
      </trkpt>
      <trkpt lat="41.228115" lon="-6.536416">
        <ele>688.314</ele>
        <time>2018-07-24T08:11:07Z</time>
      </trkpt>
      <trkpt lat="41.228088" lon="-6.536433">
        <ele>688.19</ele>
        <time>2018-07-24T08:11:08Z</time>
      </trkpt>
      <trkpt lat="41.228045" lon="-6.536475">
        <ele>687.989</ele>
        <time>2018-07-24T08:11:10Z</time>
      </trkpt>
      <trkpt lat="41.228015" lon="-6.536542">
        <ele>687.773</ele>
        <time>2018-07-24T08:11:13Z</time>
      </trkpt>
      <trkpt lat="41.227991" lon="-6.536627">
        <ele>687.626</ele>
        <time>2018-07-24T08:11:16Z</time>
      </trkpt>
      <trkpt lat="41.227972" lon="-6.536688">
        <ele>687.403</ele>
        <time>2018-07-24T08:11:18Z</time>
      </trkpt>
      <trkpt lat="41.227951" lon="-6.536778">
        <ele>687.278</ele>
        <time>2018-07-24T08:11:21Z</time>
      </trkpt>
      <trkpt lat="41.227928" lon="-6.536846">
        <ele>687.169</ele>
        <time>2018-07-24T08:11:23Z</time>
      </trkpt>
      <trkpt lat="41.227922" lon="-6.536914">
        <ele>687.058</ele>
        <time>2018-07-24T08:11:25Z</time>
      </trkpt>
      <trkpt lat="41.227906" lon="-6.536976">
        <ele>687.0</ele>
        <time>2018-07-24T08:11:27Z</time>
      </trkpt>
      <trkpt lat="41.227898" lon="-6.537006">
        <ele>686.834</ele>
        <time>2018-07-24T08:11:28Z</time>
      </trkpt>
      <trkpt lat="41.227885" lon="-6.537081">
        <ele>686.727</ele>
        <time>2018-07-24T08:11:31Z</time>
      </trkpt>
      <trkpt lat="41.227878" lon="-6.537123">
        <ele>686.521</ele>
        <time>2018-07-24T08:11:33Z</time>
      </trkpt>
      <trkpt lat="41.227872" lon="-6.537194">
        <ele>686.415</ele>
        <time>2018-07-24T08:11:37Z</time>
      </trkpt>
      <trkpt lat="41.227871" lon="-6.537236">
        <ele>686.31</ele>
        <time>2018-07-24T08:11:39Z</time>
      </trkpt>
      <trkpt lat="41.227871" lon="-6.537278">
        <ele>686.146</ele>
        <time>2018-07-24T08:11:41Z</time>
      </trkpt>
      <trkpt lat="41.227874" lon="-6.537355">
        <ele>685.983</ele>
        <time>2018-07-24T08:11:44Z</time>
      </trkpt>
      <trkpt lat="41.227882" lon="-6.537423">
        <ele>685.714</ele>
        <time>2018-07-24T08:11:47Z</time>
      </trkpt>
      <trkpt lat="41.227873" lon="-6.53753">
        <ele>685.556</ele>
        <time>2018-07-24T08:11:52Z</time>
      </trkpt>
      <trkpt lat="41.227871" lon="-6.537596">
        <ele>685.453</ele>
        <time>2018-07-24T08:11:55Z</time>
      </trkpt>
      <trkpt lat="41.227867" lon="-6.537635">
        <ele>685.256</ele>
        <time>2018-07-24T08:11:57Z</time>
      </trkpt>
      <trkpt lat="41.227831" lon="-6.537699">
        <ele>685.118</ele>
        <time>2018-07-24T08:12:01Z</time>
      </trkpt>
      <trkpt lat="41.227809" lon="-6.537758">
        <ele>684.986</ele>
        <time>2018-07-24T08:12:04Z</time>
      </trkpt>
      <trkpt lat="41.227776" lon="-6.537816">
        <ele>684.902</ele>
        <time>2018-07-24T08:12:07Z</time>
      </trkpt>
      <trkpt lat="41.227759" lon="-6.53785">
        <ele>684.74</ele>
        <time>2018-07-24T08:12:09Z</time>
      </trkpt>
      <trkpt lat="41.227719" lon="-6.537909">
        <ele>684.662</ele>
        <time>2018-07-24T08:12:13Z</time>
      </trkpt>
      <trkpt lat="41.227694" lon="-6.537945">
        <ele>684.548</ele>
        <time>2018-07-24T08:12:15Z</time>
      </trkpt>
      <trkpt lat="41.227672" lon="-6.537998">
        <ele>684.472</ele>
        <time>2018-07-24T08:12:18Z</time>
      </trkpt>
      <trkpt lat="41.227657" lon="-6.538036">
        <ele>684.399</ele>
        <time>2018-07-24T08:12:20Z</time>
      </trkpt>
      <trkpt lat="41.227645" lon="-6.538075">
        <ele>684.293</ele>
        <time>2018-07-24T08:12:22Z</time>
      </trkpt>
      <trkpt lat="41.227631" lon="-6.538125">
        <ele>684.159</ele>
        <time>2018-07-24T08:12:25Z</time>
      </trkpt>
      <trkpt lat="41.227599" lon="-6.538192">
        <ele>684.095</ele>
        <time>2018-07-24T08:12:29Z</time>
      </trkpt>
      <trkpt lat="41.227582" lon="-6.538224">
        <ele>684.035</ele>
        <time>2018-07-24T08:12:31Z</time>
      </trkpt>
      <trkpt lat="41.227564" lon="-6.53826">
        <ele>683.975</ele>
        <time>2018-07-24T08:12:33Z</time>
      </trkpt>
      <trkpt lat="41.227542" lon="-6.538301">
        <ele>683.917</ele>
        <time>2018-07-24T08:12:35Z</time>
      </trkpt>
      <trkpt lat="41.227524" lon="-6.538335">
        <ele>683.861</ele>
        <time>2018-07-24T08:12:37Z</time>
      </trkpt>
      <trkpt lat="41.227504" lon="-6.538367">
        <ele>683.78</ele>
        <time>2018-07-24T08:12:39Z</time>
      </trkpt>
      <trkpt lat="41.227481" lon="-6.53842">
        <ele>683.703</ele>
        <time>2018-07-24T08:12:42Z</time>
      </trkpt>
      <trkpt lat="41.227452" lon="-6.538474">
        <ele>683.655</ele>
        <time>2018-07-24T08:12:45Z</time>
      </trkpt>
      <trkpt lat="41.227437" lon="-6.538507">
        <ele>683.608</ele>
        <time>2018-07-24T08:12:47Z</time>
      </trkpt>
      <trkpt lat="41.227419" lon="-6.53854">
        <ele>683.537</ele>
        <time>2018-07-24T08:12:49Z</time>
      </trkpt>
      <trkpt lat="41.227395" lon="-6.538599">
        <ele>683.469</ele>
        <time>2018-07-24T08:12:52Z</time>
      </trkpt>
      <trkpt lat="41.227369" lon="-6.538655">
        <ele>683.426</ele>
        <time>2018-07-24T08:12:55Z</time>
      </trkpt>
      <trkpt lat="41.22735" lon="-6.53869">
        <ele>683.368</ele>
        <time>2018-07-24T08:12:57Z</time>
      </trkpt>
      <trkpt lat="41.227323" lon="-6.538733">
        <ele>683.332</ele>
        <time>2018-07-24T08:13:00Z</time>
      </trkpt>
      <trkpt lat="41.227304" lon="-6.538766">
        <ele>683.277</ele>
        <time>2018-07-24T08:13:02Z</time>
      </trkpt>
      <trkpt lat="41.227272" lon="-6.538827">
        <ele>683.225</ele>
        <time>2018-07-24T08:13:05Z</time>
      </trkpt>
      <trkpt lat="41.227239" lon="-6.538882">
        <ele>683.192</ele>
        <time>2018-07-24T08:13:08Z</time>
      </trkpt>
      <trkpt lat="41.22722" lon="-6.538914">
        <ele>683.161</ele>
        <time>2018-07-24T08:13:10Z</time>
      </trkpt>
      <trkpt lat="41.227193" lon="-6.538958">
        <ele>683.114</ele>
        <time>2018-07-24T08:13:12Z</time>
      </trkpt>
      <trkpt lat="41.227166" lon="-6.53902">
        <ele>683.07</ele>
        <time>2018-07-24T08:13:15Z</time>
      </trkpt>
      <trkpt lat="41.227136" lon="-6.539071">
        <ele>683.043</ele>
        <time>2018-07-24T08:13:18Z</time>
      </trkpt>
      <trkpt lat="41.227115" lon="-6.53911">
        <ele>683.019</ele>
        <time>2018-07-24T08:13:20Z</time>
      </trkpt>
      <trkpt lat="41.227096" lon="-6.539143">
        <ele>682.984</ele>
        <time>2018-07-24T08:13:22Z</time>
      </trkpt>
      <trkpt lat="41.227061" lon="-6.539193">
        <ele>682.964</ele>
        <time>2018-07-24T08:13:25Z</time>
      </trkpt>
      <trkpt lat="41.227038" lon="-6.539227">
        <ele>682.938</ele>
        <time>2018-07-24T08:13:27Z</time>
      </trkpt>
      <trkpt lat="41.227021" lon="-6.53929">
        <ele>682.911</ele>
        <time>2018-07-24T08:13:30Z</time>
      </trkpt>
      <trkpt lat="41.226993" lon="-6.539364">
        <ele>682.897</ele>
        <time>2018-07-24T08:13:34Z</time>
      </trkpt>
      <trkpt lat="41.226979" lon="-6.539406">
        <ele>682.877</ele>
        <time>2018-07-24T08:13:36Z</time>
      </trkpt>
      <trkpt lat="41.226969" lon="-6.539466">
        <ele>682.854</ele>
        <time>2018-07-24T08:13:39Z</time>
      </trkpt>
      <trkpt lat="41.226974" lon="-6.539535">
        <ele>682.833</ele>
        <time>2018-07-24T08:13:42Z</time>
      </trkpt>
      <trkpt lat="41.226945" lon="-6.5396">
        <ele>682.819</ele>
        <time>2018-07-24T08:13:45Z</time>
      </trkpt>
      <trkpt lat="41.22693" lon="-6.539632">
        <ele>682.8</ele>
        <time>2018-07-24T08:13:47Z</time>
      </trkpt>
      <trkpt lat="41.226917" lon="-6.539689">
        <ele>682.785</ele>
        <time>2018-07-24T08:13:50Z</time>
      </trkpt>
      <trkpt lat="41.226898" lon="-6.539754">
        <ele>682.774</ele>
        <time>2018-07-24T08:13:53Z</time>
      </trkpt>
      <trkpt lat="41.226871" lon="-6.53983">
        <ele>682.766</ele>
        <time>2018-07-24T08:13:56Z</time>
      </trkpt>
      <trkpt lat="41.226857" lon="-6.539866">
        <ele>682.759</ele>
        <time>2018-07-24T08:13:58Z</time>
      </trkpt>
      <trkpt lat="41.226839" lon="-6.539911">
        <ele>682.754</ele>
        <time>2018-07-24T08:14:00Z</time>
      </trkpt>
      <trkpt lat="41.226823" lon="-6.539953">
        <ele>682.748</ele>
        <time>2018-07-24T08:14:02Z</time>
      </trkpt>
      <trkpt lat="41.226806" lon="-6.539997">
        <ele>682.74</ele>
        <time>2018-07-24T08:14:04Z</time>
      </trkpt>
      <trkpt lat="41.2268" lon="-6.540068">
        <ele>682.733</ele>
        <time>2018-07-24T08:14:07Z</time>
      </trkpt>
      <trkpt lat="41.226783" lon="-6.540126">
        <ele>682.728</ele>
        <time>2018-07-24T08:14:10Z</time>
      </trkpt>
      <trkpt lat="41.226771" lon="-6.540194">
        <ele>682.726</ele>
        <time>2018-07-24T08:14:13Z</time>
      </trkpt>
      <trkpt lat="41.226751" lon="-6.540259">
        <ele>682.725</ele>
        <time>2018-07-24T08:14:16Z</time>
      </trkpt>
      <trkpt lat="41.226739" lon="-6.540304">
        <ele>682.726</ele>
        <time>2018-07-24T08:14:18Z</time>
      </trkpt>
      <trkpt lat="41.226717" lon="-6.540361">
        <ele>682.727</ele>
        <time>2018-07-24T08:14:21Z</time>
      </trkpt>
      <trkpt lat="41.226711" lon="-6.540421">
        <ele>682.728</ele>
        <time>2018-07-24T08:14:23Z</time>
      </trkpt>
      <trkpt lat="41.226698" lon="-6.540487">
        <ele>682.729</ele>
        <time>2018-07-24T08:14:26Z</time>
      </trkpt>
      <trkpt lat="41.226687" lon="-6.540541">
        <ele>682.73</ele>
        <time>2018-07-24T08:14:28Z</time>
      </trkpt>
      <trkpt lat="41.226677" lon="-6.540585">
        <ele>682.733</ele>
        <time>2018-07-24T08:14:30Z</time>
      </trkpt>
      <trkpt lat="41.226655" lon="-6.540649">
        <ele>682.739</ele>
        <time>2018-07-24T08:14:33Z</time>
      </trkpt>
      <trkpt lat="41.226623" lon="-6.540712">
        <ele>682.744</ele>
        <time>2018-07-24T08:14:36Z</time>
      </trkpt>
      <trkpt lat="41.226606" lon="-6.540744">
        <ele>682.753</ele>
        <time>2018-07-24T08:14:38Z</time>
      </trkpt>
      <trkpt lat="41.226568" lon="-6.540807">
        <ele>682.764</ele>
        <time>2018-07-24T08:14:41Z</time>
      </trkpt>
      <trkpt lat="41.226531" lon="-6.540851">
        <ele>682.776</ele>
        <time>2018-07-24T08:14:44Z</time>
      </trkpt>
      <trkpt lat="41.226493" lon="-6.540886">
        <ele>682.785</ele>
        <time>2018-07-24T08:14:47Z</time>
      </trkpt>
      <trkpt lat="41.226462" lon="-6.540915">
        <ele>682.802</ele>
        <time>2018-07-24T08:14:49Z</time>
      </trkpt>
      <trkpt lat="41.226421" lon="-6.540958">
        <ele>682.813</ele>
        <time>2018-07-24T08:14:52Z</time>
      </trkpt>
      <trkpt lat="41.226389" lon="-6.54099">
        <ele>682.825</ele>
        <time>2018-07-24T08:14:54Z</time>
      </trkpt>
      <trkpt lat="41.226371" lon="-6.54101">
        <ele>682.838</ele>
        <time>2018-07-24T08:14:56Z</time>
      </trkpt>
      <trkpt lat="41.226349" lon="-6.541037">
        <ele>682.85</ele>
        <time>2018-07-24T08:14:58Z</time>
      </trkpt>
      <trkpt lat="41.226315" lon="-6.541077">
        <ele>682.863</ele>
        <time>2018-07-24T08:15:00Z</time>
      </trkpt>
      <trkpt lat="41.226283" lon="-6.541113">
        <ele>682.883</ele>
        <time>2018-07-24T08:15:02Z</time>
      </trkpt>
      <trkpt lat="41.226226" lon="-6.541159">
        <ele>682.903</ele>
        <time>2018-07-24T08:15:05Z</time>
      </trkpt>
      <trkpt lat="41.226183" lon="-6.541199">
        <ele>682.917</ele>
        <time>2018-07-24T08:15:08Z</time>
      </trkpt>
      <trkpt lat="41.226149" lon="-6.541226">
        <ele>682.931</ele>
        <time>2018-07-24T08:15:10Z</time>
      </trkpt>
      <trkpt lat="41.226123" lon="-6.541249">
        <ele>682.954</ele>
        <time>2018-07-24T08:15:12Z</time>
      </trkpt>
      <trkpt lat="41.226063" lon="-6.541292">
        <ele>682.972</ele>
        <time>2018-07-24T08:15:15Z</time>
      </trkpt>
      <trkpt lat="41.226033" lon="-6.541312">
        <ele>683.0</ele>
        <time>2018-07-24T08:15:17Z</time>
      </trkpt>
      <trkpt lat="41.225987" lon="-6.541352">
        <ele>683.033</ele>
        <time>2018-07-24T08:15:20Z</time>
      </trkpt>
      <trkpt lat="41.225939" lon="-6.541377">
        <ele>683.069</ele>
        <time>2018-07-24T08:15:23Z</time>
      </trkpt>
      <trkpt lat="41.225898" lon="-6.541404">
        <ele>683.095</ele>
        <time>2018-07-24T08:15:26Z</time>
      </trkpt>
      <trkpt lat="41.225869" lon="-6.541426">
        <ele>683.122</ele>
        <time>2018-07-24T08:15:28Z</time>
      </trkpt>
      <trkpt lat="41.225847" lon="-6.541443">
        <ele>683.161</ele>
        <time>2018-07-24T08:15:30Z</time>
      </trkpt>
      <trkpt lat="41.225818" lon="-6.541492">
        <ele>683.214</ele>
        <time>2018-07-24T08:15:33Z</time>
      </trkpt>
      <trkpt lat="41.225773" lon="-6.54154">
        <ele>683.242</ele>
        <time>2018-07-24T08:15:37Z</time>
      </trkpt>
      <trkpt lat="41.225752" lon="-6.541562">
        <ele>683.297</ele>
        <time>2018-07-24T08:15:39Z</time>
      </trkpt>
      <trkpt lat="41.225718" lon="-6.541612">
        <ele>683.325</ele>
        <time>2018-07-24T08:15:43Z</time>
      </trkpt>
      <trkpt lat="41.225697" lon="-6.541646">
        <ele>683.354</ele>
        <time>2018-07-24T08:15:45Z</time>
      </trkpt>
      <trkpt lat="41.225679" lon="-6.541675">
        <ele>683.398</ele>
        <time>2018-07-24T08:15:47Z</time>
      </trkpt>
      <trkpt lat="41.225651" lon="-6.541715">
        <ele>683.46</ele>
        <time>2018-07-24T08:15:50Z</time>
      </trkpt>
      <trkpt lat="41.225626" lon="-6.541777">
        <ele>683.508</ele>
        <time>2018-07-24T08:15:54Z</time>
      </trkpt>
      <trkpt lat="41.225599" lon="-6.541829">
        <ele>683.556</ele>
        <time>2018-07-24T08:15:57Z</time>
      </trkpt>
      <trkpt lat="41.225568" lon="-6.541881">
        <ele>683.588</ele>
        <time>2018-07-24T08:16:00Z</time>
      </trkpt>
      <trkpt lat="41.225552" lon="-6.54191">
        <ele>683.636</ele>
        <time>2018-07-24T08:16:02Z</time>
      </trkpt>
      <trkpt lat="41.225525" lon="-6.541972">
        <ele>683.687</ele>
        <time>2018-07-24T08:16:05Z</time>
      </trkpt>
      <trkpt lat="41.22549" lon="-6.542024">
        <ele>683.722</ele>
        <time>2018-07-24T08:16:08Z</time>
      </trkpt>
      <trkpt lat="41.225466" lon="-6.542061">
        <ele>683.776</ele>
        <time>2018-07-24T08:16:10Z</time>
      </trkpt>
      <trkpt lat="41.22543" lon="-6.542105">
        <ele>683.834</ele>
        <time>2018-07-24T08:16:13Z</time>
      </trkpt>
      <trkpt lat="41.225399" lon="-6.542156">
        <ele>683.875</ele>
        <time>2018-07-24T08:16:16Z</time>
      </trkpt>
      <trkpt lat="41.225379" lon="-6.542189">
        <ele>683.937</ele>
        <time>2018-07-24T08:16:18Z</time>
      </trkpt>
      <trkpt lat="41.225349" lon="-6.542256">
        <ele>683.979</ele>
        <time>2018-07-24T08:16:21Z</time>
      </trkpt>
      <trkpt lat="41.225334" lon="-6.542294">
        <ele>684.044</ele>
        <time>2018-07-24T08:16:23Z</time>
      </trkpt>
      <trkpt lat="41.225297" lon="-6.542355">
        <ele>684.089</ele>
        <time>2018-07-24T08:16:26Z</time>
      </trkpt>
      <trkpt lat="41.225276" lon="-6.542391">
        <ele>684.136</ele>
        <time>2018-07-24T08:16:28Z</time>
      </trkpt>
      <trkpt lat="41.225253" lon="-6.542429">
        <ele>684.184</ele>
        <time>2018-07-24T08:16:30Z</time>
      </trkpt>
      <trkpt lat="41.225235" lon="-6.542467">
        <ele>684.232</ele>
        <time>2018-07-24T08:16:32Z</time>
      </trkpt>
      <trkpt lat="41.225214" lon="-6.542506">
        <ele>684.279</ele>
        <time>2018-07-24T08:16:34Z</time>
      </trkpt>
      <trkpt lat="41.22519" lon="-6.542555">
        <ele>684.351</ele>
        <time>2018-07-24T08:16:36Z</time>
      </trkpt>
      <trkpt lat="41.225154" lon="-6.542619">
        <ele>684.447</ele>
        <time>2018-07-24T08:16:39Z</time>
      </trkpt>
      <trkpt lat="41.225126" lon="-6.542691">
        <ele>684.495</ele>
        <time>2018-07-24T08:16:43Z</time>
      </trkpt>
      <trkpt lat="41.225112" lon="-6.54273">
        <ele>684.567</ele>
        <time>2018-07-24T08:16:45Z</time>
      </trkpt>
      <trkpt lat="41.225088" lon="-6.542784">
        <ele>684.663</ele>
        <time>2018-07-24T08:16:48Z</time>
      </trkpt>
      <trkpt lat="41.225074" lon="-6.542857">
        <ele>684.711</ele>
        <time>2018-07-24T08:16:52Z</time>
      </trkpt>
      <trkpt lat="41.225068" lon="-6.542896">
        <ele>684.759</ele>
        <time>2018-07-24T08:16:54Z</time>
      </trkpt>
      <trkpt lat="41.225061" lon="-6.542931">
        <ele>684.831</ele>
        <time>2018-07-24T08:16:56Z</time>
      </trkpt>
      <trkpt lat="41.225052" lon="-6.542988">
        <ele>684.925</ele>
        <time>2018-07-24T08:16:59Z</time>
      </trkpt>
      <trkpt lat="41.225033" lon="-6.543062">
        <ele>684.995</ele>
        <time>2018-07-24T08:17:03Z</time>
      </trkpt>
      <trkpt lat="41.225015" lon="-6.543121">
        <ele>685.04</ele>
        <time>2018-07-24T08:17:06Z</time>
      </trkpt>
      <trkpt lat="41.225006" lon="-6.543152">
        <ele>685.131</ele>
        <time>2018-07-24T08:17:08Z</time>
      </trkpt>
      <trkpt lat="41.225019" lon="-6.543221">
        <ele>685.22</ele>
        <time>2018-07-24T08:17:12Z</time>
      </trkpt>
      <trkpt lat="41.225002" lon="-6.543298">
        <ele>685.31</ele>
        <time>2018-07-24T08:17:16Z</time>
      </trkpt>
      <trkpt lat="41.224984" lon="-6.543359">
        <ele>685.427</ele>
        <time>2018-07-24T08:17:20Z</time>
      </trkpt>
      <trkpt lat="41.224948" lon="-6.543402">
        <ele>685.495</ele>
        <time>2018-07-24T08:17:25Z</time>
      </trkpt>
      <trkpt lat="41.224895" lon="-6.543429">
        <ele>685.54</ele>
        <time>2018-07-24T08:17:28Z</time>
      </trkpt>
      <trkpt lat="41.224859" lon="-6.543446">
        <ele>685.609</ele>
        <time>2018-07-24T08:17:30Z</time>
      </trkpt>
      <trkpt lat="41.224812" lon="-6.543448">
        <ele>685.68</ele>
        <time>2018-07-24T08:17:33Z</time>
      </trkpt>
      <trkpt lat="41.224764" lon="-6.543468">
        <ele>685.773</ele>
        <time>2018-07-24T08:17:36Z</time>
      </trkpt>
      <trkpt lat="41.22471" lon="-6.54351">
        <ele>685.82</ele>
        <time>2018-07-24T08:17:40Z</time>
      </trkpt>
      <trkpt lat="41.224686" lon="-6.54353">
        <ele>685.866</ele>
        <time>2018-07-24T08:17:42Z</time>
      </trkpt>
      <trkpt lat="41.224659" lon="-6.543551">
        <ele>685.911</ele>
        <time>2018-07-24T08:17:44Z</time>
      </trkpt>
      <trkpt lat="41.224627" lon="-6.543573">
        <ele>686.0</ele>
        <time>2018-07-24T08:17:46Z</time>
      </trkpt>
      <trkpt lat="41.224574" lon="-6.543604">
        <ele>686.043</ele>
        <time>2018-07-24T08:17:50Z</time>
      </trkpt>
      <trkpt lat="41.224542" lon="-6.543623">
        <ele>686.086</ele>
        <time>2018-07-24T08:17:52Z</time>
      </trkpt>
      <trkpt lat="41.224511" lon="-6.543644">
        <ele>686.151</ele>
        <time>2018-07-24T08:17:54Z</time>
      </trkpt>
      <trkpt lat="41.224471" lon="-6.543666">
        <ele>686.217</ele>
        <time>2018-07-24T08:17:57Z</time>
      </trkpt>
      <trkpt lat="41.224427" lon="-6.543694">
        <ele>686.26</ele>
        <time>2018-07-24T08:18:00Z</time>
      </trkpt>
      <trkpt lat="41.224399" lon="-6.543713">
        <ele>686.326</ele>
        <time>2018-07-24T08:18:02Z</time>
      </trkpt>
      <trkpt lat="41.22436" lon="-6.543755">
        <ele>686.37</ele>
        <time>2018-07-24T08:18:05Z</time>
      </trkpt>
      <trkpt lat="41.224336" lon="-6.543782">
        <ele>686.436</ele>
        <time>2018-07-24T08:18:07Z</time>
      </trkpt>
      <trkpt lat="41.224311" lon="-6.543836">
        <ele>686.48</ele>
        <time>2018-07-24T08:18:10Z</time>
      </trkpt>
      <trkpt lat="41.224294" lon="-6.543873">
        <ele>686.525</ele>
        <time>2018-07-24T08:18:12Z</time>
      </trkpt>
      <trkpt lat="41.224275" lon="-6.543915">
        <ele>686.569</ele>
        <time>2018-07-24T08:18:14Z</time>
      </trkpt>
      <trkpt lat="41.224247" lon="-6.543963">
        <ele>686.613</ele>
        <time>2018-07-24T08:18:16Z</time>
      </trkpt>
      <trkpt lat="41.224211" lon="-6.544">
        <ele>686.679</ele>
        <time>2018-07-24T08:18:18Z</time>
      </trkpt>
      <trkpt lat="41.224182" lon="-6.544048">
        <ele>686.723</ele>
        <time>2018-07-24T08:18:21Z</time>
      </trkpt>
      <trkpt lat="41.224162" lon="-6.544086">
        <ele>686.768</ele>
        <time>2018-07-24T08:18:23Z</time>
      </trkpt>
      <trkpt lat="41.224146" lon="-6.54412">
        <ele>686.836</ele>
        <time>2018-07-24T08:18:25Z</time>
      </trkpt>
      <trkpt lat="41.224117" lon="-6.544169">
        <ele>686.905</ele>
        <time>2018-07-24T08:18:28Z</time>
      </trkpt>
      <trkpt lat="41.22409" lon="-6.54423">
        <ele>686.974</ele>
        <time>2018-07-24T08:18:31Z</time>
      </trkpt>
      <trkpt lat="41.224067" lon="-6.544293">
        <ele>687.043</ele>
        <time>2018-07-24T08:18:34Z</time>
      </trkpt>
      <trkpt lat="41.224035" lon="-6.544338">
        <ele>687.113</ele>
        <time>2018-07-24T08:18:37Z</time>
      </trkpt>
      <trkpt lat="41.223998" lon="-6.544397">
        <ele>687.163</ele>
        <time>2018-07-24T08:18:40Z</time>
      </trkpt>
      <trkpt lat="41.22397" lon="-6.544435">
        <ele>687.214</ele>
        <time>2018-07-24T08:18:42Z</time>
      </trkpt>
      <trkpt lat="41.22395" lon="-6.544466">
        <ele>687.267</ele>
        <time>2018-07-24T08:18:44Z</time>
      </trkpt>
      <trkpt lat="41.223928" lon="-6.544501">
        <ele>687.356</ele>
        <time>2018-07-24T08:18:46Z</time>
      </trkpt>
      <trkpt lat="41.223883" lon="-6.544557">
        <ele>687.476</ele>
        <time>2018-07-24T08:18:49Z</time>
      </trkpt>
      <trkpt lat="41.223856" lon="-6.54461">
        <ele>687.567</ele>
        <time>2018-07-24T08:18:53Z</time>
      </trkpt>
      <trkpt lat="41.223826" lon="-6.544659">
        <ele>687.691</ele>
        <time>2018-07-24T08:18:56Z</time>
      </trkpt>
      <trkpt lat="41.223783" lon="-6.544718">
        <ele>687.817</ele>
        <time>2018-07-24T08:19:00Z</time>
      </trkpt>
      <trkpt lat="41.223752" lon="-6.54478">
        <ele>687.881</ele>
        <time>2018-07-24T08:19:04Z</time>
      </trkpt>
      <trkpt lat="41.223733" lon="-6.544811">
        <ele>687.945</ele>
        <time>2018-07-24T08:19:06Z</time>
      </trkpt>
      <trkpt lat="41.223714" lon="-6.544847">
        <ele>688.043</ele>
        <time>2018-07-24T08:19:08Z</time>
      </trkpt>
      <trkpt lat="41.223682" lon="-6.544901">
        <ele>688.111</ele>
        <time>2018-07-24T08:19:11Z</time>
      </trkpt>
      <trkpt lat="41.223661" lon="-6.544935">
        <ele>688.214</ele>
        <time>2018-07-24T08:19:13Z</time>
      </trkpt>
      <trkpt lat="41.223628" lon="-6.544986">
        <ele>688.283</ele>
        <time>2018-07-24T08:19:16Z</time>
      </trkpt>
      <trkpt lat="41.223606" lon="-6.545023">
        <ele>688.353</ele>
        <time>2018-07-24T08:19:18Z</time>
      </trkpt>
      <trkpt lat="41.223589" lon="-6.545054">
        <ele>688.509</ele>
        <time>2018-07-24T08:19:20Z</time>
      </trkpt>
      <trkpt lat="41.223539" lon="-6.545115">
        <ele>688.664</ele>
        <time>2018-07-24T08:19:24Z</time>
      </trkpt>
      <trkpt lat="41.223505" lon="-6.545163">
        <ele>688.834</ele>
        <time>2018-07-24T08:19:27Z</time>
      </trkpt>
      <trkpt lat="41.223471" lon="-6.545225">
        <ele>689.003</ele>
        <time>2018-07-24T08:19:30Z</time>
      </trkpt>
      <trkpt lat="41.223434" lon="-6.545289">
        <ele>689.17</ele>
        <time>2018-07-24T08:19:33Z</time>
      </trkpt>
      <trkpt lat="41.223398" lon="-6.545328">
        <ele>689.393</ele>
        <time>2018-07-24T08:19:36Z</time>
      </trkpt>
      <trkpt lat="41.223347" lon="-6.545368">
        <ele>689.509</ele>
        <time>2018-07-24T08:19:40Z</time>
      </trkpt>
      <trkpt lat="41.223325" lon="-6.545387">
        <ele>689.571</ele>
        <time>2018-07-24T08:19:42Z</time>
      </trkpt>
      <trkpt lat="41.223299" lon="-6.545405">
        <ele>689.696</ele>
        <time>2018-07-24T08:19:43Z</time>
      </trkpt>
      <trkpt lat="41.223272" lon="-6.545429">
        <ele>689.888</ele>
        <time>2018-07-24T08:19:45Z</time>
      </trkpt>
      <trkpt lat="41.22323" lon="-6.545458">
        <ele>690.018</ele>
        <time>2018-07-24T08:19:48Z</time>
      </trkpt>
      <trkpt lat="41.223198" lon="-6.545478">
        <ele>690.146</ele>
        <time>2018-07-24T08:19:50Z</time>
      </trkpt>
      <trkpt lat="41.223166" lon="-6.545494">
        <ele>709.739</ele>
        <time>2018-07-24T08:19:52Z</time>
      </trkpt>
      <trkpt lat="41.223166" lon="-6.545494">
        <ele>712.026</ele>
        <time>2018-07-24T08:20:03Z</time>
      </trkpt>
      <trkpt lat="41.223166" lon="-6.545494">
        <ele>712.674</ele>
        <time>2018-07-24T08:25:33Z</time>
      </trkpt>
      <trkpt lat="41.223062" lon="-6.545444">
        <ele>713.297</ele>
        <time>2018-07-24T08:25:33Z</time>
      </trkpt>
      <trkpt lat="41.223021" lon="-6.545488">
        <ele>716.315</ele>
        <time>2018-07-24T08:25:44Z</time>
      </trkpt>
      <trkpt lat="41.222973" lon="-6.545509">
        <ele>718.728</ele>
        <time>2018-07-24T08:25:46Z</time>
      </trkpt>
      <trkpt lat="41.222915" lon="-6.545544">
        <ele>720.657</ele>
        <time>2018-07-24T08:25:48Z</time>
      </trkpt>
      <trkpt lat="41.222883" lon="-6.545565">
        <ele>722.202</ele>
        <time>2018-07-24T08:25:49Z</time>
      </trkpt>
      <trkpt lat="41.222843" lon="-6.545591">
        <ele>723.438</ele>
        <time>2018-07-24T08:25:50Z</time>
      </trkpt>
      <trkpt lat="41.2228" lon="-6.545619">
        <ele>724.427</ele>
        <time>2018-07-24T08:25:51Z</time>
      </trkpt>
      <trkpt lat="41.22276" lon="-6.545643">
        <ele>725.221</ele>
        <time>2018-07-24T08:25:52Z</time>
      </trkpt>
      <trkpt lat="41.222721" lon="-6.545666">
        <ele>725.855</ele>
        <time>2018-07-24T08:25:53Z</time>
      </trkpt>
      <trkpt lat="41.222683" lon="-6.545694">
        <ele>726.362</ele>
        <time>2018-07-24T08:25:54Z</time>
      </trkpt>
      <trkpt lat="41.222647" lon="-6.545722">
        <ele>726.402</ele>
        <time>2018-07-24T08:25:55Z</time>
      </trkpt>
      <trkpt lat="41.222612" lon="-6.545751">
        <ele>726.442</ele>
        <time>2018-07-24T08:25:56Z</time>
      </trkpt>
      <trkpt lat="41.222577" lon="-6.545785">
        <ele>726.831</ele>
        <time>2018-07-24T08:25:57Z</time>
      </trkpt>
      <trkpt lat="41.222547" lon="-6.545816">
        <ele>727.142</ele>
        <time>2018-07-24T08:25:58Z</time>
      </trkpt>
      <trkpt lat="41.222521" lon="-6.545844">
        <ele>727.59</ele>
        <time>2018-07-24T08:25:59Z</time>
      </trkpt>
      <trkpt lat="41.222492" lon="-6.545871">
        <ele>727.741</ele>
        <time>2018-07-24T08:26:00Z</time>
      </trkpt>
      <trkpt lat="41.222463" lon="-6.545901">
        <ele>727.861</ele>
        <time>2018-07-24T08:26:01Z</time>
      </trkpt>
      <trkpt lat="41.222407" lon="-6.545964">
        <ele>727.956</ele>
        <time>2018-07-24T08:26:03Z</time>
      </trkpt>
      <trkpt lat="41.222377" lon="-6.546">
        <ele>728.03</ele>
        <time>2018-07-24T08:26:04Z</time>
      </trkpt>
      <trkpt lat="41.222346" lon="-6.54604">
        <ele>728.088</ele>
        <time>2018-07-24T08:26:05Z</time>
      </trkpt>
      <trkpt lat="41.222318" lon="-6.546075">
        <ele>728.131</ele>
        <time>2018-07-24T08:26:06Z</time>
      </trkpt>
      <trkpt lat="41.222288" lon="-6.546107">
        <ele>728.166</ele>
        <time>2018-07-24T08:26:07Z</time>
      </trkpt>
      <trkpt lat="41.222255" lon="-6.546145">
        <ele>728.192</ele>
        <time>2018-07-24T08:26:08Z</time>
      </trkpt>
      <trkpt lat="41.222223" lon="-6.546185">
        <ele>728.211</ele>
        <time>2018-07-24T08:26:09Z</time>
      </trkpt>
      <trkpt lat="41.222192" lon="-6.546234">
        <ele>728.224</ele>
        <time>2018-07-24T08:26:10Z</time>
      </trkpt>
      <trkpt lat="41.222157" lon="-6.54629">
        <ele>728.231</ele>
        <time>2018-07-24T08:26:11Z</time>
      </trkpt>
      <trkpt lat="41.222124" lon="-6.546337">
        <ele>728.231</ele>
        <time>2018-07-24T08:26:12Z</time>
      </trkpt>
      <trkpt lat="41.222095" lon="-6.546384">
        <ele>728.229</ele>
        <time>2018-07-24T08:26:13Z</time>
      </trkpt>
      <trkpt lat="41.222056" lon="-6.546478">
        <ele>728.225</ele>
        <time>2018-07-24T08:26:15Z</time>
      </trkpt>
      <trkpt lat="41.222041" lon="-6.54652">
        <ele>728.216</ele>
        <time>2018-07-24T08:26:16Z</time>
      </trkpt>
      <trkpt lat="41.222025" lon="-6.546556">
        <ele>728.211</ele>
        <time>2018-07-24T08:26:17Z</time>
      </trkpt>
      <trkpt lat="41.222007" lon="-6.546602">
        <ele>728.205</ele>
        <time>2018-07-24T08:26:18Z</time>
      </trkpt>
      <trkpt lat="41.22196" lon="-6.546774">
        <ele>728.2</ele>
        <time>2018-07-24T08:26:21Z</time>
      </trkpt>
      <trkpt lat="41.221944" lon="-6.546841">
        <ele>728.199</ele>
        <time>2018-07-24T08:26:22Z</time>
      </trkpt>
      <trkpt lat="41.22193" lon="-6.546905">
        <ele>728.198</ele>
        <time>2018-07-24T08:26:23Z</time>
      </trkpt>
      <trkpt lat="41.221913" lon="-6.546959">
        <ele>728.183</ele>
        <time>2018-07-24T08:26:24Z</time>
      </trkpt>
      <trkpt lat="41.2219" lon="-6.547004">
        <ele>728.17</ele>
        <time>2018-07-24T08:26:25Z</time>
      </trkpt>
      <trkpt lat="41.221888" lon="-6.54704">
        <ele>728.158</ele>
        <time>2018-07-24T08:26:26Z</time>
      </trkpt>
      <trkpt lat="41.221872" lon="-6.547078">
        <ele>728.148</ele>
        <time>2018-07-24T08:26:27Z</time>
      </trkpt>
      <trkpt lat="41.221849" lon="-6.547125">
        <ele>728.14</ele>
        <time>2018-07-24T08:26:28Z</time>
      </trkpt>
      <trkpt lat="41.221822" lon="-6.547185">
        <ele>728.13</ele>
        <time>2018-07-24T08:26:29Z</time>
      </trkpt>
      <trkpt lat="41.221799" lon="-6.547241">
        <ele>728.129</ele>
        <time>2018-07-24T08:26:30Z</time>
      </trkpt>
      <trkpt lat="41.221779" lon="-6.54729">
        <ele>728.118</ele>
        <time>2018-07-24T08:26:31Z</time>
      </trkpt>
      <trkpt lat="41.221749" lon="-6.547395">
        <ele>728.107</ele>
        <time>2018-07-24T08:26:33Z</time>
      </trkpt>
      <trkpt lat="41.221735" lon="-6.54744">
        <ele>728.097</ele>
        <time>2018-07-24T08:26:34Z</time>
      </trkpt>
      <trkpt lat="41.221722" lon="-6.547485">
        <ele>728.086</ele>
        <time>2018-07-24T08:26:35Z</time>
      </trkpt>
      <trkpt lat="41.221706" lon="-6.547532">
        <ele>728.074</ele>
        <time>2018-07-24T08:26:36Z</time>
      </trkpt>
      <trkpt lat="41.221687" lon="-6.547588">
        <ele>728.062</ele>
        <time>2018-07-24T08:26:37Z</time>
      </trkpt>
      <trkpt lat="41.221673" lon="-6.54764">
        <ele>728.051</ele>
        <time>2018-07-24T08:26:38Z</time>
      </trkpt>
      <trkpt lat="41.221656" lon="-6.547697">
        <ele>728.04</ele>
        <time>2018-07-24T08:26:39Z</time>
      </trkpt>
      <trkpt lat="41.221631" lon="-6.547753">
        <ele>728.029</ele>
        <time>2018-07-24T08:26:40Z</time>
      </trkpt>
      <trkpt lat="41.221601" lon="-6.547812">
        <ele>728.028</ele>
        <time>2018-07-24T08:26:41Z</time>
      </trkpt>
      <trkpt lat="41.221573" lon="-6.547871">
        <ele>728.027</ele>
        <time>2018-07-24T08:26:42Z</time>
      </trkpt>
      <trkpt lat="41.221549" lon="-6.547931">
        <ele>728.009</ele>
        <time>2018-07-24T08:26:43Z</time>
      </trkpt>
      <trkpt lat="41.221523" lon="-6.547981">
        <ele>727.962</ele>
        <time>2018-07-24T08:26:44Z</time>
      </trkpt>
      <trkpt lat="41.221503" lon="-6.54802">
        <ele>727.947</ele>
        <time>2018-07-24T08:26:45Z</time>
      </trkpt>
      <trkpt lat="41.221481" lon="-6.548063">
        <ele>727.933</ele>
        <time>2018-07-24T08:26:46Z</time>
      </trkpt>
      <trkpt lat="41.221427" lon="-6.548207">
        <ele>727.922</ele>
        <time>2018-07-24T08:26:49Z</time>
      </trkpt>
      <trkpt lat="41.221409" lon="-6.548266">
        <ele>727.91</ele>
        <time>2018-07-24T08:26:50Z</time>
      </trkpt>
      <trkpt lat="41.221396" lon="-6.548332">
        <ele>727.901</ele>
        <time>2018-07-24T08:26:51Z</time>
      </trkpt>
      <trkpt lat="41.221381" lon="-6.548397">
        <ele>727.891</ele>
        <time>2018-07-24T08:26:52Z</time>
      </trkpt>
      <trkpt lat="41.221365" lon="-6.548471">
        <ele>727.873</ele>
        <time>2018-07-24T08:26:53Z</time>
      </trkpt>
      <trkpt lat="41.221348" lon="-6.548544">
        <ele>727.851</ele>
        <time>2018-07-24T08:26:54Z</time>
      </trkpt>
      <trkpt lat="41.221327" lon="-6.548622">
        <ele>727.832</ele>
        <time>2018-07-24T08:26:55Z</time>
      </trkpt>
      <trkpt lat="41.221303" lon="-6.548699">
        <ele>727.81</ele>
        <time>2018-07-24T08:26:56Z</time>
      </trkpt>
      <trkpt lat="41.221278" lon="-6.548778">
        <ele>727.791</ele>
        <time>2018-07-24T08:26:57Z</time>
      </trkpt>
      <trkpt lat="41.221256" lon="-6.548854">
        <ele>727.774</ele>
        <time>2018-07-24T08:26:58Z</time>
      </trkpt>
      <trkpt lat="41.221229" lon="-6.548934">
        <ele>727.749</ele>
        <time>2018-07-24T08:26:59Z</time>
      </trkpt>
      <trkpt lat="41.221205" lon="-6.549006">
        <ele>727.721</ele>
        <time>2018-07-24T08:27:00Z</time>
      </trkpt>
      <trkpt lat="41.221178" lon="-6.549072">
        <ele>727.694</ele>
        <time>2018-07-24T08:27:01Z</time>
      </trkpt>
      <trkpt lat="41.221152" lon="-6.549139">
        <ele>727.557</ele>
        <time>2018-07-24T08:27:02Z</time>
      </trkpt>
      <trkpt lat="41.221127" lon="-6.549214">
        <ele>727.496</ele>
        <time>2018-07-24T08:27:03Z</time>
      </trkpt>
      <trkpt lat="41.221098" lon="-6.549295">
        <ele>727.43</ele>
        <time>2018-07-24T08:27:04Z</time>
      </trkpt>
      <trkpt lat="41.22101" lon="-6.54953">
        <ele>727.359</ele>
        <time>2018-07-24T08:27:07Z</time>
      </trkpt>
      <trkpt lat="41.220983" lon="-6.549612">
        <ele>727.277</ele>
        <time>2018-07-24T08:27:08Z</time>
      </trkpt>
      <trkpt lat="41.220964" lon="-6.549691">
        <ele>727.186</ele>
        <time>2018-07-24T08:27:09Z</time>
      </trkpt>
      <trkpt lat="41.220946" lon="-6.549758">
        <ele>726.851</ele>
        <time>2018-07-24T08:27:10Z</time>
      </trkpt>
      <trkpt lat="41.22093" lon="-6.549826">
        <ele>726.716</ele>
        <time>2018-07-24T08:27:11Z</time>
      </trkpt>
      <trkpt lat="41.220914" lon="-6.549908">
        <ele>726.571</ele>
        <time>2018-07-24T08:27:12Z</time>
      </trkpt>
      <trkpt lat="41.22085" lon="-6.550189">
        <ele>726.419</ele>
        <time>2018-07-24T08:27:15Z</time>
      </trkpt>
      <trkpt lat="41.220824" lon="-6.550284">
        <ele>726.278</ele>
        <time>2018-07-24T08:27:16Z</time>
      </trkpt>
      <trkpt lat="41.220791" lon="-6.550374">
        <ele>726.133</ele>
        <time>2018-07-24T08:27:17Z</time>
      </trkpt>
      <trkpt lat="41.220749" lon="-6.55044">
        <ele>726.102</ele>
        <time>2018-07-24T08:27:18Z</time>
      </trkpt>
      <trkpt lat="41.220713" lon="-6.550499">
        <ele>726.06</ele>
        <time>2018-07-24T08:27:19Z</time>
      </trkpt>
      <trkpt lat="41.220678" lon="-6.550551">
        <ele>725.755</ele>
        <time>2018-07-24T08:27:20Z</time>
      </trkpt>
      <trkpt lat="41.220633" lon="-6.550603">
        <ele>725.509</ele>
        <time>2018-07-24T08:27:22Z</time>
      </trkpt>
      <trkpt lat="41.220604" lon="-6.550639">
        <ele>725.093</ele>
        <time>2018-07-24T08:27:24Z</time>
      </trkpt>
      <trkpt lat="41.220572" lon="-6.550708">
        <ele>724.92</ele>
        <time>2018-07-24T08:27:26Z</time>
      </trkpt>
      <trkpt lat="41.22055" lon="-6.550757">
        <ele>724.252</ele>
        <time>2018-07-24T08:27:27Z</time>
      </trkpt>
      <trkpt lat="41.220499" lon="-6.55083">
        <ele>722.952</ele>
        <time>2018-07-24T08:27:29Z</time>
      </trkpt>
      <trkpt lat="41.220472" lon="-6.550866">
        <ele>722.367</ele>
        <time>2018-07-24T08:27:30Z</time>
      </trkpt>
      <trkpt lat="41.220314" lon="-6.551011">
        <ele>720.754</ele>
        <time>2018-07-24T08:27:35Z</time>
      </trkpt>
      <trkpt lat="41.220267" lon="-6.551094">
        <ele>720.231</ele>
        <time>2018-07-24T08:27:37Z</time>
      </trkpt>
      <trkpt lat="41.220239" lon="-6.551138">
        <ele>719.704</ele>
        <time>2018-07-24T08:27:38Z</time>
      </trkpt>
      <trkpt lat="41.220166" lon="-6.551293">
        <ele>719.179</ele>
        <time>2018-07-24T08:27:41Z</time>
      </trkpt>
      <trkpt lat="41.220143" lon="-6.55135">
        <ele>718.678</ele>
        <time>2018-07-24T08:27:42Z</time>
      </trkpt>
      <trkpt lat="41.220121" lon="-6.551405">
        <ele>718.18</ele>
        <time>2018-07-24T08:27:43Z</time>
      </trkpt>
      <trkpt lat="41.220101" lon="-6.551459">
        <ele>718.062</ele>
        <time>2018-07-24T08:27:44Z</time>
      </trkpt>
      <trkpt lat="41.22008" lon="-6.551507">
        <ele>718.001</ele>
        <time>2018-07-24T08:27:45Z</time>
      </trkpt>
      <trkpt lat="41.22006" lon="-6.551557">
        <ele>717.941</ele>
        <time>2018-07-24T08:27:46Z</time>
      </trkpt>
      <trkpt lat="41.220032" lon="-6.551644">
        <ele>717.337</ele>
        <time>2018-07-24T08:27:48Z</time>
      </trkpt>
      <trkpt lat="41.22002" lon="-6.551682">
        <ele>716.751</ele>
        <time>2018-07-24T08:27:49Z</time>
      </trkpt>
      <trkpt lat="41.220008" lon="-6.551718">
        <ele>716.664</ele>
        <time>2018-07-24T08:27:50Z</time>
      </trkpt>
      <trkpt lat="41.219991" lon="-6.551759">
        <ele>716.617</ele>
        <time>2018-07-24T08:27:51Z</time>
      </trkpt>
      <trkpt lat="41.219907" lon="-6.551866">
        <ele>716.095</ele>
        <time>2018-07-24T08:27:54Z</time>
      </trkpt>
      <trkpt lat="41.219861" lon="-6.551909">
        <ele>715.687</ele>
        <time>2018-07-24T08:27:56Z</time>
      </trkpt>
      <trkpt lat="41.219841" lon="-6.55193">
        <ele>715.34</ele>
        <time>2018-07-24T08:27:57Z</time>
      </trkpt>
      <trkpt lat="41.219789" lon="-6.551981">
        <ele>715.054</ele>
        <time>2018-07-24T08:27:59Z</time>
      </trkpt>
      <trkpt lat="41.219756" lon="-6.552018">
        <ele>714.799</ele>
        <time>2018-07-24T08:28:00Z</time>
      </trkpt>
      <trkpt lat="41.219716" lon="-6.552055">
        <ele>714.573</ele>
        <time>2018-07-24T08:28:01Z</time>
      </trkpt>
      <trkpt lat="41.219671" lon="-6.552083">
        <ele>714.356</ele>
        <time>2018-07-24T08:28:02Z</time>
      </trkpt>
      <trkpt lat="41.219627" lon="-6.552116">
        <ele>714.166</ele>
        <time>2018-07-24T08:28:03Z</time>
      </trkpt>
      <trkpt lat="41.219584" lon="-6.552147">
        <ele>714.134</ele>
        <time>2018-07-24T08:28:04Z</time>
      </trkpt>
      <trkpt lat="41.219541" lon="-6.55218">
        <ele>714.09</ele>
        <time>2018-07-24T08:28:05Z</time>
      </trkpt>
      <trkpt lat="41.2195" lon="-6.552209">
        <ele>714.065</ele>
        <time>2018-07-24T08:28:06Z</time>
      </trkpt>
      <trkpt lat="41.21944" lon="-6.55224">
        <ele>714.04</ele>
        <time>2018-07-24T08:28:08Z</time>
      </trkpt>
      <trkpt lat="41.21938" lon="-6.552267">
        <ele>713.985</ele>
        <time>2018-07-24T08:28:10Z</time>
      </trkpt>
      <trkpt lat="41.219349" lon="-6.552279">
        <ele>713.465</ele>
        <time>2018-07-24T08:28:11Z</time>
      </trkpt>
      <trkpt lat="41.219319" lon="-6.552287">
        <ele>713.241</ele>
        <time>2018-07-24T08:28:12Z</time>
      </trkpt>
      <trkpt lat="41.219252" lon="-6.552324">
        <ele>713.051</ele>
        <time>2018-07-24T08:28:14Z</time>
      </trkpt>
      <trkpt lat="41.219201" lon="-6.552397">
        <ele>712.857</ele>
        <time>2018-07-24T08:28:16Z</time>
      </trkpt>
      <trkpt lat="41.219177" lon="-6.552437">
        <ele>712.838</ele>
        <time>2018-07-24T08:28:17Z</time>
      </trkpt>
      <trkpt lat="41.219153" lon="-6.552488">
        <ele>712.788</ele>
        <time>2018-07-24T08:28:18Z</time>
      </trkpt>
      <trkpt lat="41.219134" lon="-6.55253">
        <ele>712.499</ele>
        <time>2018-07-24T08:28:19Z</time>
      </trkpt>
      <trkpt lat="41.219115" lon="-6.552569">
        <ele>712.231</ele>
        <time>2018-07-24T08:28:20Z</time>
      </trkpt>
      <trkpt lat="41.219086" lon="-6.552651">
        <ele>711.892</ele>
        <time>2018-07-24T08:28:22Z</time>
      </trkpt>
      <trkpt lat="41.219073" lon="-6.552697">
        <ele>711.304</ele>
        <time>2018-07-24T08:28:23Z</time>
      </trkpt>
      <trkpt lat="41.219062" lon="-6.552746">
        <ele>711.075</ele>
        <time>2018-07-24T08:28:24Z</time>
      </trkpt>
      <trkpt lat="41.219017" lon="-6.552836">
        <ele>710.644</ele>
        <time>2018-07-24T08:28:26Z</time>
      </trkpt>
      <trkpt lat="41.218978" lon="-6.552933">
        <ele>710.106</ele>
        <time>2018-07-24T08:28:28Z</time>
      </trkpt>
      <trkpt lat="41.218961" lon="-6.55298">
        <ele>709.716</ele>
        <time>2018-07-24T08:28:29Z</time>
      </trkpt>
      <trkpt lat="41.218947" lon="-6.553027">
        <ele>709.472</ele>
        <time>2018-07-24T08:28:30Z</time>
      </trkpt>
      <trkpt lat="41.218896" lon="-6.553121">
        <ele>709.184</ele>
        <time>2018-07-24T08:28:32Z</time>
      </trkpt>
      <trkpt lat="41.218866" lon="-6.553173">
        <ele>708.838</ele>
        <time>2018-07-24T08:28:33Z</time>
      </trkpt>
      <trkpt lat="41.218838" lon="-6.553222">
        <ele>708.099</ele>
        <time>2018-07-24T08:28:34Z</time>
      </trkpt>
      <trkpt lat="41.218811" lon="-6.553268">
        <ele>707.747</ele>
        <time>2018-07-24T08:28:35Z</time>
      </trkpt>
      <trkpt lat="41.218784" lon="-6.553325">
        <ele>707.326</ele>
        <time>2018-07-24T08:28:36Z</time>
      </trkpt>
      <trkpt lat="41.218725" lon="-6.553414">
        <ele>706.863</ele>
        <time>2018-07-24T08:28:38Z</time>
      </trkpt>
      <trkpt lat="41.218714" lon="-6.553472">
        <ele>706.212</ele>
        <time>2018-07-24T08:28:39Z</time>
      </trkpt>
      <trkpt lat="41.218705" lon="-6.553536">
        <ele>703.22</ele>
        <time>2018-07-24T08:28:40Z</time>
      </trkpt>
      <trkpt lat="41.218695" lon="-6.553618">
        <ele>701.905</ele>
        <time>2018-07-24T08:28:41Z</time>
      </trkpt>
      <trkpt lat="41.218672" lon="-6.5538">
        <ele>700.51</ele>
        <time>2018-07-24T08:28:43Z</time>
      </trkpt>
      <trkpt lat="41.218634" lon="-6.554068">
        <ele>696.405</ele>
        <time>2018-07-24T08:28:46Z</time>
      </trkpt>
      <trkpt lat="41.218618" lon="-6.554155">
        <ele>694.951</ele>
        <time>2018-07-24T08:28:47Z</time>
      </trkpt>
      <trkpt lat="41.218598" lon="-6.554223">
        <ele>693.468</ele>
        <time>2018-07-24T08:28:48Z</time>
      </trkpt>
      <trkpt lat="41.218533" lon="-6.55443">
        <ele>692.053</ele>
        <time>2018-07-24T08:28:51Z</time>
      </trkpt>
      <trkpt lat="41.218504" lon="-6.554489">
        <ele>690.687</ele>
        <time>2018-07-24T08:28:52Z</time>
      </trkpt>
      <trkpt lat="41.218476" lon="-6.55455">
        <ele>689.353</ele>
        <time>2018-07-24T08:28:53Z</time>
      </trkpt>
      <trkpt lat="41.218444" lon="-6.554603">
        <ele>688.055</ele>
        <time>2018-07-24T08:28:54Z</time>
      </trkpt>
      <trkpt lat="41.218413" lon="-6.554659">
        <ele>687.788</ele>
        <time>2018-07-24T08:28:55Z</time>
      </trkpt>
      <trkpt lat="41.218385" lon="-6.554709">
        <ele>685.906</ele>
        <time>2018-07-24T08:28:56Z</time>
      </trkpt>
      <trkpt lat="41.218362" lon="-6.554751">
        <ele>684.356</ele>
        <time>2018-07-24T08:28:57Z</time>
      </trkpt>
      <trkpt lat="41.218308" lon="-6.554822">
        <ele>682.939</ele>
        <time>2018-07-24T08:28:59Z</time>
      </trkpt>
      <trkpt lat="41.218258" lon="-6.554889">
        <ele>681.623</ele>
        <time>2018-07-24T08:29:01Z</time>
      </trkpt>
      <trkpt lat="41.218227" lon="-6.554925">
        <ele>679.186</ele>
        <time>2018-07-24T08:29:02Z</time>
      </trkpt>
      <trkpt lat="41.218196" lon="-6.554962">
        <ele>678.069</ele>
        <time>2018-07-24T08:29:03Z</time>
      </trkpt>
      <trkpt lat="41.218162" lon="-6.555">
        <ele>677.964</ele>
        <time>2018-07-24T08:29:04Z</time>
      </trkpt>
      <trkpt lat="41.218089" lon="-6.55506">
        <ele>677.845</ele>
        <time>2018-07-24T08:29:06Z</time>
      </trkpt>
      <trkpt lat="41.218058" lon="-6.555082">
        <ele>677.715</ele>
        <time>2018-07-24T08:29:07Z</time>
      </trkpt>
      <trkpt lat="41.218026" lon="-6.555106">
        <ele>677.572</ele>
        <time>2018-07-24T08:29:08Z</time>
      </trkpt>
      <trkpt lat="41.217998" lon="-6.55513">
        <ele>677.419</ele>
        <time>2018-07-24T08:29:09Z</time>
      </trkpt>
      <trkpt lat="41.217972" lon="-6.55515">
        <ele>677.256</ele>
        <time>2018-07-24T08:29:10Z</time>
      </trkpt>
      <trkpt lat="41.217952" lon="-6.555169">
        <ele>677.084</ele>
        <time>2018-07-24T08:29:11Z</time>
      </trkpt>
      <trkpt lat="41.217929" lon="-6.555189">
        <ele>676.726</ele>
        <time>2018-07-24T08:29:12Z</time>
      </trkpt>
      <trkpt lat="41.217908" lon="-6.555206">
        <ele>676.159</ele>
        <time>2018-07-24T08:29:13Z</time>
      </trkpt>
      <trkpt lat="41.217888" lon="-6.555221">
        <ele>675.609</ele>
        <time>2018-07-24T08:29:14Z</time>
      </trkpt>
      <trkpt lat="41.217858" lon="-6.555246">
        <ele>675.086</ele>
        <time>2018-07-24T08:29:16Z</time>
      </trkpt>
      <trkpt lat="41.217815" lon="-6.555307">
        <ele>674.746</ele>
        <time>2018-07-24T08:29:19Z</time>
      </trkpt>
      <trkpt lat="41.217777" lon="-6.555388">
        <ele>672.94</ele>
        <time>2018-07-24T08:29:22Z</time>
      </trkpt>
      <trkpt lat="41.217725" lon="-6.555504">
        <ele>671.604</ele>
        <time>2018-07-24T08:29:25Z</time>
      </trkpt>
      <trkpt lat="41.217682" lon="-6.555567">
        <ele>670.523</ele>
        <time>2018-07-24T08:29:27Z</time>
      </trkpt>
      <trkpt lat="41.217628" lon="-6.555623">
        <ele>669.643</ele>
        <time>2018-07-24T08:29:29Z</time>
      </trkpt>
      <trkpt lat="41.217594" lon="-6.555662">
        <ele>668.927</ele>
        <time>2018-07-24T08:29:30Z</time>
      </trkpt>
      <trkpt lat="41.217554" lon="-6.555708">
        <ele>668.334</ele>
        <time>2018-07-24T08:29:31Z</time>
      </trkpt>
      <trkpt lat="41.217522" lon="-6.555764">
        <ele>667.806</ele>
        <time>2018-07-24T08:29:32Z</time>
      </trkpt>
      <trkpt lat="41.217494" lon="-6.555822">
        <ele>667.725</ele>
        <time>2018-07-24T08:29:33Z</time>
      </trkpt>
      <trkpt lat="41.217469" lon="-6.555873">
        <ele>667.643</ele>
        <time>2018-07-24T08:29:34Z</time>
      </trkpt>
      <trkpt lat="41.217444" lon="-6.555978">
        <ele>667.6</ele>
        <time>2018-07-24T08:29:36Z</time>
      </trkpt>
      <trkpt lat="41.217433" lon="-6.556065">
        <ele>667.471</ele>
        <time>2018-07-24T08:29:38Z</time>
      </trkpt>
      <trkpt lat="41.217431" lon="-6.556159">
        <ele>667.386</ele>
        <time>2018-07-24T08:29:40Z</time>
      </trkpt>
      <trkpt lat="41.217429" lon="-6.556206">
        <ele>667.263</ele>
        <time>2018-07-24T08:29:41Z</time>
      </trkpt>
      <trkpt lat="41.217437" lon="-6.556319">
        <ele>667.222</ele>
        <time>2018-07-24T08:29:44Z</time>
      </trkpt>
      <trkpt lat="41.217443" lon="-6.55638">
        <ele>667.181</ele>
        <time>2018-07-24T08:29:46Z</time>
      </trkpt>
      <trkpt lat="41.217452" lon="-6.556468">
        <ele>667.138</ele>
        <time>2018-07-24T08:29:49Z</time>
      </trkpt>
      <trkpt lat="41.217455" lon="-6.556509">
        <ele>666.705</ele>
        <time>2018-07-24T08:29:50Z</time>
      </trkpt>
      <trkpt lat="41.217456" lon="-6.55656">
        <ele>666.357</ele>
        <time>2018-07-24T08:29:51Z</time>
      </trkpt>
      <trkpt lat="41.217458" lon="-6.556611">
        <ele>665.818</ele>
        <time>2018-07-24T08:29:52Z</time>
      </trkpt>
      <trkpt lat="41.21746" lon="-6.556668">
        <ele>665.606</ele>
        <time>2018-07-24T08:29:53Z</time>
      </trkpt>
      <trkpt lat="41.217465" lon="-6.556716">
        <ele>665.424</ele>
        <time>2018-07-24T08:29:54Z</time>
      </trkpt>
      <trkpt lat="41.217465" lon="-6.556838">
        <ele>665.266</ele>
        <time>2018-07-24T08:29:56Z</time>
      </trkpt>
      <trkpt lat="41.217458" lon="-6.5569">
        <ele>665.124</ele>
        <time>2018-07-24T08:29:57Z</time>
      </trkpt>
      <trkpt lat="41.217448" lon="-6.556974">
        <ele>665.009</ele>
        <time>2018-07-24T08:29:58Z</time>
      </trkpt>
      <trkpt lat="41.217421" lon="-6.557052">
        <ele>664.909</ele>
        <time>2018-07-24T08:29:59Z</time>
      </trkpt>
      <trkpt lat="41.217395" lon="-6.557126">
        <ele>664.811</ele>
        <time>2018-07-24T08:30:00Z</time>
      </trkpt>
      <trkpt lat="41.217363" lon="-6.557183">
        <ele>664.721</ele>
        <time>2018-07-24T08:30:01Z</time>
      </trkpt>
      <trkpt lat="41.217327" lon="-6.557233">
        <ele>664.627</ele>
        <time>2018-07-24T08:30:02Z</time>
      </trkpt>
      <trkpt lat="41.217294" lon="-6.557288">
        <ele>664.609</ele>
        <time>2018-07-24T08:30:03Z</time>
      </trkpt>
      <trkpt lat="41.217261" lon="-6.557345">
        <ele>664.583</ele>
        <time>2018-07-24T08:30:04Z</time>
      </trkpt>
      <trkpt lat="41.217232" lon="-6.557402">
        <ele>664.363</ele>
        <time>2018-07-24T08:30:05Z</time>
      </trkpt>
      <trkpt lat="41.217181" lon="-6.557478">
        <ele>664.179</ele>
        <time>2018-07-24T08:30:07Z</time>
      </trkpt>
      <trkpt lat="41.217135" lon="-6.557545">
        <ele>664.145</ele>
        <time>2018-07-24T08:30:09Z</time>
      </trkpt>
      <trkpt lat="41.217057" lon="-6.557625">
        <ele>664.125</ele>
        <time>2018-07-24T08:30:12Z</time>
      </trkpt>
      <trkpt lat="41.216988" lon="-6.557679">
        <ele>663.907</ele>
        <time>2018-07-24T08:30:14Z</time>
      </trkpt>
      <trkpt lat="41.216947" lon="-6.557731">
        <ele>663.857</ele>
        <time>2018-07-24T08:30:16Z</time>
      </trkpt>
      <trkpt lat="41.216923" lon="-6.557759">
        <ele>663.798</ele>
        <time>2018-07-24T08:30:17Z</time>
      </trkpt>
      <trkpt lat="41.21686" lon="-6.557808">
        <ele>663.729</ele>
        <time>2018-07-24T08:30:19Z</time>
      </trkpt>
      <trkpt lat="41.216817" lon="-6.557847">
        <ele>663.628</ele>
        <time>2018-07-24T08:30:22Z</time>
      </trkpt>
      <trkpt lat="41.216749" lon="-6.557844">
        <ele>663.573</ele>
        <time>2018-07-24T08:30:25Z</time>
      </trkpt>
      <trkpt lat="41.216704" lon="-6.557856">
        <ele>663.49</ele>
        <time>2018-07-24T08:30:28Z</time>
      </trkpt>
      <trkpt lat="41.216659" lon="-6.557887">
        <ele>663.374</ele>
        <time>2018-07-24T08:30:32Z</time>
      </trkpt>
      <trkpt lat="41.216627" lon="-6.557908">
        <ele>663.315</ele>
        <time>2018-07-24T08:30:34Z</time>
      </trkpt>
      <trkpt lat="41.216575" lon="-6.557924">
        <ele>663.223</ele>
        <time>2018-07-24T08:30:37Z</time>
      </trkpt>
      <trkpt lat="41.216523" lon="-6.557955">
        <ele>663.16</ele>
        <time>2018-07-24T08:30:41Z</time>
      </trkpt>
      <trkpt lat="41.2165" lon="-6.55797">
        <ele>663.006</ele>
        <time>2018-07-24T08:30:43Z</time>
      </trkpt>
      <trkpt lat="41.216455" lon="-6.557988">
        <ele>662.881</ele>
        <time>2018-07-24T08:30:46Z</time>
      </trkpt>
      <trkpt lat="41.216429" lon="-6.557998">
        <ele>662.818</ele>
        <time>2018-07-24T08:30:48Z</time>
      </trkpt>
      <trkpt lat="41.21638" lon="-6.558032">
        <ele>662.692</ele>
        <time>2018-07-24T08:30:53Z</time>
      </trkpt>
      <trkpt lat="41.216336" lon="-6.55808">
        <ele>662.597</ele>
        <time>2018-07-24T08:30:57Z</time>
      </trkpt>
      <trkpt lat="41.216317" lon="-6.558101">
        <ele>662.504</ele>
        <time>2018-07-24T08:30:59Z</time>
      </trkpt>
      <trkpt lat="41.216289" lon="-6.558134">
        <ele>662.351</ele>
        <time>2018-07-24T08:31:03Z</time>
      </trkpt>
      <trkpt lat="41.216262" lon="-6.558161">
        <ele>662.202</ele>
        <time>2018-07-24T08:31:06Z</time>
      </trkpt>
      <trkpt lat="41.216243" lon="-6.558183">
        <ele>662.115</ele>
        <time>2018-07-24T08:31:09Z</time>
      </trkpt>
      <trkpt lat="41.216201" lon="-6.558214">
        <ele>662.031</ele>
        <time>2018-07-24T08:31:14Z</time>
      </trkpt>
      <trkpt lat="41.216165" lon="-6.558267">
        <ele>661.951</ele>
        <time>2018-07-24T08:31:19Z</time>
      </trkpt>
      <trkpt lat="41.216142" lon="-6.558296">
        <ele>661.899</ele>
        <time>2018-07-24T08:31:22Z</time>
      </trkpt>
      <trkpt lat="41.216121" lon="-6.55832">
        <ele>661.848</ele>
        <time>2018-07-24T08:31:25Z</time>
      </trkpt>
      <trkpt lat="41.216096" lon="-6.558345">
        <ele>661.797</ele>
        <time>2018-07-24T08:31:28Z</time>
      </trkpt>
      <trkpt lat="41.216064" lon="-6.558374">
        <ele>661.747</ele>
        <time>2018-07-24T08:31:30Z</time>
      </trkpt>
      <trkpt lat="41.216038" lon="-6.558396">
        <ele>661.698</ele>
        <time>2018-07-24T08:31:32Z</time>
      </trkpt>
      <trkpt lat="41.216004" lon="-6.558427">
        <ele>661.651</ele>
        <time>2018-07-24T08:31:34Z</time>
      </trkpt>
      <trkpt lat="41.215981" lon="-6.558452">
        <ele>661.627</ele>
        <time>2018-07-24T08:31:36Z</time>
      </trkpt>
      <trkpt lat="41.215949" lon="-6.558482">
        <ele>661.581</ele>
        <time>2018-07-24T08:31:38Z</time>
      </trkpt>
      <trkpt lat="41.215916" lon="-6.558514">
        <ele>661.532</ele>
        <time>2018-07-24T08:31:40Z</time>
      </trkpt>
      <trkpt lat="41.215895" lon="-6.558537">
        <ele>661.481</ele>
        <time>2018-07-24T08:31:41Z</time>
      </trkpt>
      <trkpt lat="41.215865" lon="-6.558572">
        <ele>661.382</ele>
        <time>2018-07-24T08:31:43Z</time>
      </trkpt>
      <trkpt lat="41.215839" lon="-6.5586">
        <ele>661.333</ele>
        <time>2018-07-24T08:31:45Z</time>
      </trkpt>
      <trkpt lat="41.215818" lon="-6.558622">
        <ele>661.236</ele>
        <time>2018-07-24T08:31:47Z</time>
      </trkpt>
      <trkpt lat="41.215764" lon="-6.558669">
        <ele>661.164</ele>
        <time>2018-07-24T08:31:51Z</time>
      </trkpt>
      <trkpt lat="41.215736" lon="-6.558689">
        <ele>661.093</ele>
        <time>2018-07-24T08:31:53Z</time>
      </trkpt>
      <trkpt lat="41.21569" lon="-6.558734">
        <ele>661.019</ele>
        <time>2018-07-24T08:31:57Z</time>
      </trkpt>
      <trkpt lat="41.215646" lon="-6.55878">
        <ele>660.92</ele>
        <time>2018-07-24T08:32:00Z</time>
      </trkpt>
      <trkpt lat="41.215602" lon="-6.558814">
        <ele>660.894</ele>
        <time>2018-07-24T08:32:03Z</time>
      </trkpt>
      <trkpt lat="41.215563" lon="-6.558849">
        <ele>660.844</ele>
        <time>2018-07-24T08:32:06Z</time>
      </trkpt>
      <trkpt lat="41.215503" lon="-6.558884">
        <ele>660.771</ele>
        <time>2018-07-24T08:32:10Z</time>
      </trkpt>
      <trkpt lat="41.21548" lon="-6.558894">
        <ele>660.679</ele>
        <time>2018-07-24T08:32:11Z</time>
      </trkpt>
      <trkpt lat="41.215432" lon="-6.55891">
        <ele>660.609</ele>
        <time>2018-07-24T08:32:13Z</time>
      </trkpt>
      <trkpt lat="41.215375" lon="-6.558932">
        <ele>660.539</ele>
        <time>2018-07-24T08:32:16Z</time>
      </trkpt>
      <trkpt lat="41.215332" lon="-6.558969">
        <ele>660.494</ele>
        <time>2018-07-24T08:32:20Z</time>
      </trkpt>
      <trkpt lat="41.215317" lon="-6.559041">
        <ele>660.428</ele>
        <time>2018-07-24T08:32:23Z</time>
      </trkpt>
      <trkpt lat="41.215312" lon="-6.559106">
        <ele>660.363</ele>
        <time>2018-07-24T08:32:26Z</time>
      </trkpt>
      <trkpt lat="41.215311" lon="-6.559161">
        <ele>660.283</ele>
        <time>2018-07-24T08:32:28Z</time>
      </trkpt>
      <trkpt lat="41.215315" lon="-6.559222">
        <ele>660.211</ele>
        <time>2018-07-24T08:32:31Z</time>
      </trkpt>
      <trkpt lat="41.215306" lon="-6.559287">
        <ele>660.142</ele>
        <time>2018-07-24T08:32:34Z</time>
      </trkpt>
      <trkpt lat="41.2153" lon="-6.559351">
        <ele>660.086</ele>
        <time>2018-07-24T08:32:38Z</time>
      </trkpt>
      <trkpt lat="41.215263" lon="-6.559403">
        <ele>660.011</ele>
        <time>2018-07-24T08:32:42Z</time>
      </trkpt>
      <trkpt lat="41.215231" lon="-6.559467">
        <ele>659.961</ele>
        <time>2018-07-24T08:32:46Z</time>
      </trkpt>
      <trkpt lat="41.215203" lon="-6.559527">
        <ele>659.928</ele>
        <time>2018-07-24T08:32:49Z</time>
      </trkpt>
      <trkpt lat="41.215163" lon="-6.559584">
        <ele>659.881</ele>
        <time>2018-07-24T08:32:53Z</time>
      </trkpt>
      <trkpt lat="41.215118" lon="-6.559633">
        <ele>659.838</ele>
        <time>2018-07-24T08:32:56Z</time>
      </trkpt>
      <trkpt lat="41.215089" lon="-6.559668">
        <ele>659.798</ele>
        <time>2018-07-24T08:32:58Z</time>
      </trkpt>
      <trkpt lat="41.215047" lon="-6.559701">
        <ele>659.747</ele>
        <time>2018-07-24T08:33:01Z</time>
      </trkpt>
      <trkpt lat="41.214997" lon="-6.559724">
        <ele>659.703</ele>
        <time>2018-07-24T08:33:04Z</time>
      </trkpt>
      <trkpt lat="41.214955" lon="-6.559751">
        <ele>659.671</ele>
        <time>2018-07-24T08:33:07Z</time>
      </trkpt>
      <trkpt lat="41.214905" lon="-6.559765">
        <ele>659.64</ele>
        <time>2018-07-24T08:33:11Z</time>
      </trkpt>
      <trkpt lat="41.214861" lon="-6.559781">
        <ele>659.599</ele>
        <time>2018-07-24T08:33:15Z</time>
      </trkpt>
      <trkpt lat="41.214821" lon="-6.559809">
        <ele>659.559</ele>
        <time>2018-07-24T08:33:18Z</time>
      </trkpt>
      <trkpt lat="41.214788" lon="-6.559829">
        <ele>659.519</ele>
        <time>2018-07-24T08:33:21Z</time>
      </trkpt>
      <trkpt lat="41.214743" lon="-6.559839">
        <ele>659.48</ele>
        <time>2018-07-24T08:33:25Z</time>
      </trkpt>
      <trkpt lat="41.214702" lon="-6.559844">
        <ele>659.45</ele>
        <time>2018-07-24T08:33:29Z</time>
      </trkpt>
      <trkpt lat="41.214656" lon="-6.559877">
        <ele>659.424</ele>
        <time>2018-07-24T08:33:33Z</time>
      </trkpt>
      <trkpt lat="41.214603" lon="-6.559911">
        <ele>659.413</ele>
        <time>2018-07-24T08:33:38Z</time>
      </trkpt>
      <trkpt lat="41.214559" lon="-6.559962">
        <ele>659.389</ele>
        <time>2018-07-24T08:33:42Z</time>
      </trkpt>
      <trkpt lat="41.214513" lon="-6.560004">
        <ele>659.379</ele>
        <time>2018-07-24T08:33:46Z</time>
      </trkpt>
      <trkpt lat="41.214491" lon="-6.560025">
        <ele>659.363</ele>
        <time>2018-07-24T08:33:48Z</time>
      </trkpt>
      <trkpt lat="41.21444" lon="-6.560061">
        <ele>659.337</ele>
        <time>2018-07-24T08:33:52Z</time>
      </trkpt>
      <trkpt lat="41.214408" lon="-6.560078">
        <ele>659.323</ele>
        <time>2018-07-24T08:33:54Z</time>
      </trkpt>
      <trkpt lat="41.214378" lon="-6.560094">
        <ele>659.315</ele>
        <time>2018-07-24T08:33:57Z</time>
      </trkpt>
      <trkpt lat="41.214336" lon="-6.560131">
        <ele>659.309</ele>
        <time>2018-07-24T08:34:03Z</time>
      </trkpt>
      <trkpt lat="41.214291" lon="-6.560153">
        <ele>659.311</ele>
        <time>2018-07-24T08:34:07Z</time>
      </trkpt>
      <trkpt lat="41.21425" lon="-6.560191">
        <ele>659.316</ele>
        <time>2018-07-24T08:34:11Z</time>
      </trkpt>
      <trkpt lat="41.214209" lon="-6.560222">
        <ele>659.321</ele>
        <time>2018-07-24T08:34:16Z</time>
      </trkpt>
      <trkpt lat="41.214161" lon="-6.560245">
        <ele>659.333</ele>
        <time>2018-07-24T08:34:21Z</time>
      </trkpt>
      <trkpt lat="41.214117" lon="-6.560289">
        <ele>659.34</ele>
        <time>2018-07-24T08:34:25Z</time>
      </trkpt>
      <trkpt lat="41.214095" lon="-6.560308">
        <ele>659.356</ele>
        <time>2018-07-24T08:34:27Z</time>
      </trkpt>
      <trkpt lat="41.214054" lon="-6.560336">
        <ele>659.375</ele>
        <time>2018-07-24T08:34:31Z</time>
      </trkpt>
      <trkpt lat="41.214028" lon="-6.560349">
        <ele>659.384</ele>
        <time>2018-07-24T08:34:33Z</time>
      </trkpt>
      <trkpt lat="41.213981" lon="-6.560384">
        <ele>659.405</ele>
        <time>2018-07-24T08:34:37Z</time>
      </trkpt>
      <trkpt lat="41.213937" lon="-6.56043">
        <ele>659.425</ele>
        <time>2018-07-24T08:34:41Z</time>
      </trkpt>
      <trkpt lat="41.213916" lon="-6.560448">
        <ele>659.461</ele>
        <time>2018-07-24T08:34:43Z</time>
      </trkpt>
      <trkpt lat="41.213886" lon="-6.560502">
        <ele>659.487</ele>
        <time>2018-07-24T08:34:47Z</time>
      </trkpt>
      <trkpt lat="41.213863" lon="-6.560542">
        <ele>659.512</ele>
        <time>2018-07-24T08:34:50Z</time>
      </trkpt>
      <trkpt lat="41.213825" lon="-6.560586">
        <ele>659.544</ele>
        <time>2018-07-24T08:34:55Z</time>
      </trkpt>
      <trkpt lat="41.213795" lon="-6.560633">
        <ele>659.568</ele>
        <time>2018-07-24T08:34:58Z</time>
      </trkpt>
      <trkpt lat="41.213771" lon="-6.560694">
        <ele>659.605</ele>
        <time>2018-07-24T08:35:01Z</time>
      </trkpt>
      <trkpt lat="41.213743" lon="-6.560744">
        <ele>659.633</ele>
        <time>2018-07-24T08:35:05Z</time>
      </trkpt>
      <trkpt lat="41.213713" lon="-6.560788">
        <ele>659.66</ele>
        <time>2018-07-24T08:35:08Z</time>
      </trkpt>
      <trkpt lat="41.21368" lon="-6.560835">
        <ele>659.687</ele>
        <time>2018-07-24T08:35:12Z</time>
      </trkpt>
      <trkpt lat="41.213657" lon="-6.56087">
        <ele>659.721</ele>
        <time>2018-07-24T08:35:15Z</time>
      </trkpt>
      <trkpt lat="41.213631" lon="-6.56092">
        <ele>659.76</ele>
        <time>2018-07-24T08:35:18Z</time>
      </trkpt>
      <trkpt lat="41.213615" lon="-6.560956">
        <ele>659.81</ele>
        <time>2018-07-24T08:35:21Z</time>
      </trkpt>
      <trkpt lat="41.213583" lon="-6.560999">
        <ele>659.873</ele>
        <time>2018-07-24T08:35:25Z</time>
      </trkpt>
      <trkpt lat="41.213535" lon="-6.561034">
        <ele>659.923</ele>
        <time>2018-07-24T08:35:29Z</time>
      </trkpt>
      <trkpt lat="41.213475" lon="-6.561045">
        <ele>659.958</ele>
        <time>2018-07-24T08:35:33Z</time>
      </trkpt>
      <trkpt lat="41.213429" lon="-6.561033">
        <ele>660.012</ele>
        <time>2018-07-24T08:35:37Z</time>
      </trkpt>
      <trkpt lat="41.213384" lon="-6.561011">
        <ele>660.012</ele>
        <time>2018-07-24T08:35:40Z</time>
      </trkpt>
      <trkpt lat="41.213338" lon="-6.561024">
        <ele>660.012</ele>
        <time>2018-07-24T08:35:42Z</time>
      </trkpt>
      <trkpt lat="41.213295" lon="-6.561075">
        <ele>664.872</ele>
        <time>2018-07-24T08:35:45Z</time>
      </trkpt>
      <trkpt lat="41.213295" lon="-6.561075">
        <ele>664.983</ele>
        <time>2018-07-24T08:35:50Z</time>
      </trkpt>
      <trkpt lat="41.213295" lon="-6.561075">
        <ele>665.166</ele>
        <time>2018-07-24T08:35:51Z</time>
      </trkpt>
      <trkpt lat="41.213347" lon="-6.56108">
        <ele>665.203</ele>
        <time>2018-07-24T08:42:07Z</time>
      </trkpt>
      <trkpt lat="41.213394" lon="-6.561038">
        <ele>665.276</ele>
        <time>2018-07-24T08:42:10Z</time>
      </trkpt>
      <trkpt lat="41.213352" lon="-6.56093">
        <ele>665.384</ele>
        <time>2018-07-24T08:42:15Z</time>
      </trkpt>
      <trkpt lat="41.213343" lon="-6.560899">
        <ele>665.525</ele>
        <time>2018-07-24T08:42:16Z</time>
      </trkpt>
      <trkpt lat="41.213321" lon="-6.560844">
        <ele>665.593</ele>
        <time>2018-07-24T08:42:18Z</time>
      </trkpt>
      <trkpt lat="41.213287" lon="-6.56079">
        <ele>665.627</ele>
        <time>2018-07-24T08:42:21Z</time>
      </trkpt>
      <trkpt lat="41.213237" lon="-6.560733">
        <ele>665.661</ele>
        <time>2018-07-24T08:42:25Z</time>
      </trkpt>
      <trkpt lat="41.213205" lon="-6.560697">
        <ele>665.694</ele>
        <time>2018-07-24T08:42:27Z</time>
      </trkpt>
      <trkpt lat="41.213184" lon="-6.560677">
        <ele>665.728</ele>
        <time>2018-07-24T08:42:28Z</time>
      </trkpt>
      <trkpt lat="41.21316" lon="-6.56065">
        <ele>665.793</ele>
        <time>2018-07-24T08:42:29Z</time>
      </trkpt>
      <trkpt lat="41.213137" lon="-6.560628">
        <ele>665.858</ele>
        <time>2018-07-24T08:42:30Z</time>
      </trkpt>
      <trkpt lat="41.213113" lon="-6.560602">
        <ele>665.953</ele>
        <time>2018-07-24T08:42:31Z</time>
      </trkpt>
      <trkpt lat="41.213071" lon="-6.56057">
        <ele>666.046</ele>
        <time>2018-07-24T08:42:33Z</time>
      </trkpt>
      <trkpt lat="41.213037" lon="-6.560543">
        <ele>666.168</ele>
        <time>2018-07-24T08:42:35Z</time>
      </trkpt>
      <trkpt lat="41.212998" lon="-6.560505">
        <ele>666.227</ele>
        <time>2018-07-24T08:42:38Z</time>
      </trkpt>
      <trkpt lat="41.212957" lon="-6.560478">
        <ele>666.315</ele>
        <time>2018-07-24T08:42:41Z</time>
      </trkpt>
      <trkpt lat="41.212899" lon="-6.560451">
        <ele>666.373</ele>
        <time>2018-07-24T08:42:45Z</time>
      </trkpt>
      <trkpt lat="41.212866" lon="-6.56044">
        <ele>666.432</ele>
        <time>2018-07-24T08:42:47Z</time>
      </trkpt>
      <trkpt lat="41.212816" lon="-6.560415">
        <ele>666.489</ele>
        <time>2018-07-24T08:42:50Z</time>
      </trkpt>
      <trkpt lat="41.212789" lon="-6.5604">
        <ele>666.605</ele>
        <time>2018-07-24T08:42:52Z</time>
      </trkpt>
      <trkpt lat="41.212755" lon="-6.560378">
        <ele>666.894</ele>
        <time>2018-07-24T08:42:54Z</time>
      </trkpt>
      <trkpt lat="41.212732" lon="-6.560362">
        <ele>666.945</ele>
        <time>2018-07-24T08:42:56Z</time>
      </trkpt>
      <trkpt lat="41.212733" lon="-6.560354">
        <ele>666.996</ele>
        <time>2018-07-24T08:43:03Z</time>
      </trkpt>
      <trkpt lat="41.212689" lon="-6.560314">
        <ele>667.096</ele>
        <time>2018-07-24T08:43:24Z</time>
      </trkpt>
      <trkpt lat="41.212663" lon="-6.560285">
        <ele>667.173</ele>
        <time>2018-07-24T08:43:26Z</time>
      </trkpt>
      <trkpt lat="41.212644" lon="-6.560263">
        <ele>667.278</ele>
        <time>2018-07-24T08:43:28Z</time>
      </trkpt>
      <trkpt lat="41.212607" lon="-6.560229">
        <ele>667.359</ele>
        <time>2018-07-24T08:43:32Z</time>
      </trkpt>
      <trkpt lat="41.212575" lon="-6.560195">
        <ele>667.359</ele>
        <time>2018-07-24T08:43:35Z</time>
      </trkpt>
      <trkpt lat="41.212537" lon="-6.560158">
        <ele>667.527</ele>
        <time>2018-07-24T08:43:39Z</time>
      </trkpt>
      <trkpt lat="41.212515" lon="-6.560135">
        <ele>668.492</ele>
        <time>2018-07-24T08:43:42Z</time>
      </trkpt>
      <trkpt lat="41.212515" lon="-6.560135">
        <ele>668.954</ele>
        <time>2018-07-24T08:43:50Z</time>
      </trkpt>
      <trkpt lat="41.212483" lon="-6.560096">
        <ele>669.182</ele>
        <time>2018-07-24T08:43:51Z</time>
      </trkpt>
      <trkpt lat="41.21246" lon="-6.560045">
        <ele>669.444</ele>
        <time>2018-07-24T08:45:51Z</time>
      </trkpt>
      <trkpt lat="41.212442" lon="-6.559979">
        <ele>669.691</ele>
        <time>2018-07-24T08:46:06Z</time>
      </trkpt>
      <trkpt lat="41.212434" lon="-6.559945">
        <ele>669.886</ele>
        <time>2018-07-24T08:46:11Z</time>
      </trkpt>
      <trkpt lat="41.212441" lon="-6.55987">
        <ele>670.036</ele>
        <time>2018-07-24T08:46:17Z</time>
      </trkpt>
      <trkpt lat="41.212457" lon="-6.559806">
        <ele>670.25</ele>
        <time>2018-07-24T08:46:23Z</time>
      </trkpt>
      <trkpt lat="41.212474" lon="-6.559741">
        <ele>670.422</ele>
        <time>2018-07-24T08:46:28Z</time>
      </trkpt>
      <trkpt lat="41.212478" lon="-6.559675">
        <ele>670.523</ele>
        <time>2018-07-24T08:46:32Z</time>
      </trkpt>
      <trkpt lat="41.212478" lon="-6.559611">
        <ele>670.778</ele>
        <time>2018-07-24T08:46:38Z</time>
      </trkpt>
      <trkpt lat="41.212484" lon="-6.559551">
        <ele>670.927</ele>
        <time>2018-07-24T08:46:43Z</time>
      </trkpt>
      <trkpt lat="41.212487" lon="-6.559517">
        <ele>671.189</ele>
        <time>2018-07-24T08:46:46Z</time>
      </trkpt>
      <trkpt lat="41.212492" lon="-6.559473">
        <ele>671.302</ele>
        <time>2018-07-24T08:46:54Z</time>
      </trkpt>
      <trkpt lat="41.212479" lon="-6.55941">
        <ele>671.439</ele>
        <time>2018-07-24T08:46:59Z</time>
      </trkpt>
      <trkpt lat="41.212481" lon="-6.559345">
        <ele>671.573</ele>
        <time>2018-07-24T08:47:08Z</time>
      </trkpt>
      <trkpt lat="41.212483" lon="-6.559312">
        <ele>671.627</ele>
        <time>2018-07-24T08:47:12Z</time>
      </trkpt>
      <trkpt lat="41.212482" lon="-6.559245">
        <ele>671.68</ele>
        <time>2018-07-24T08:47:17Z</time>
      </trkpt>
      <trkpt lat="41.212471" lon="-6.559177">
        <ele>671.758</ele>
        <time>2018-07-24T08:47:22Z</time>
      </trkpt>
      <trkpt lat="41.212465" lon="-6.559146">
        <ele>671.916</ele>
        <time>2018-07-24T08:47:24Z</time>
      </trkpt>
      <trkpt lat="41.212458" lon="-6.559114">
        <ele>672.058</ele>
        <time>2018-07-24T08:47:26Z</time>
      </trkpt>
      <trkpt lat="41.212447" lon="-6.559074">
        <ele>675.112</ele>
        <time>2018-07-24T08:47:29Z</time>
      </trkpt>
      <trkpt lat="41.21243" lon="-6.559021">
        <ele>675.411</ele>
        <time>2018-07-24T08:47:35Z</time>
      </trkpt>
      <trkpt lat="41.212419" lon="-6.558992">
        <ele>675.712</ele>
        <time>2018-07-24T08:47:40Z</time>
      </trkpt>
      <trkpt lat="41.212335" lon="-6.559011">
        <ele>676.167</ele>
        <time>2018-07-24T08:48:50Z</time>
      </trkpt>
      <trkpt lat="41.212331" lon="-6.559055">
        <ele>676.475</ele>
        <time>2018-07-24T08:48:52Z</time>
      </trkpt>
      <trkpt lat="41.212328" lon="-6.559094">
        <ele>677.224</ele>
        <time>2018-07-24T08:48:54Z</time>
      </trkpt>
      <trkpt lat="41.212331" lon="-6.559155">
        <ele>677.524</ele>
        <time>2018-07-24T08:48:57Z</time>
      </trkpt>
      <trkpt lat="41.21233" lon="-6.559193">
        <ele>677.969</ele>
        <time>2018-07-24T08:48:59Z</time>
      </trkpt>
      <trkpt lat="41.212313" lon="-6.559266">
        <ele>678.55</ele>
        <time>2018-07-24T08:49:04Z</time>
      </trkpt>
      <trkpt lat="41.212303" lon="-6.55931">
        <ele>679.234</ele>
        <time>2018-07-24T08:49:06Z</time>
      </trkpt>
      <trkpt lat="41.212276" lon="-6.559358">
        <ele>679.756</ele>
        <time>2018-07-24T08:49:09Z</time>
      </trkpt>
      <trkpt lat="41.212253" lon="-6.559421">
        <ele>681.168</ele>
        <time>2018-07-24T08:49:13Z</time>
      </trkpt>
      <trkpt lat="41.212232" lon="-6.559475">
        <ele>682.216</ele>
        <time>2018-07-24T08:49:18Z</time>
      </trkpt>
      <trkpt lat="41.212219" lon="-6.559553">
        <ele>683.082</ele>
        <time>2018-07-24T08:49:22Z</time>
      </trkpt>
      <trkpt lat="41.21219" lon="-6.559643">
        <ele>684.332</ele>
        <time>2018-07-24T08:49:24Z</time>
      </trkpt>
      <trkpt lat="41.212158" lon="-6.559695">
        <ele>684.807</ele>
        <time>2018-07-24T08:49:25Z</time>
      </trkpt>
      <trkpt lat="41.212126" lon="-6.559759">
        <ele>685.815</ele>
        <time>2018-07-24T08:49:26Z</time>
      </trkpt>
      <trkpt lat="41.212041" lon="-6.559898">
        <ele>686.082</ele>
        <time>2018-07-24T08:49:28Z</time>
      </trkpt>
      <trkpt lat="41.212001" lon="-6.559963">
        <ele>686.335</ele>
        <time>2018-07-24T08:49:29Z</time>
      </trkpt>
      <trkpt lat="41.211843" lon="-6.560172">
        <ele>686.603</ele>
        <time>2018-07-24T08:49:32Z</time>
      </trkpt>
      <trkpt lat="41.211776" lon="-6.560238">
        <ele>686.922</ele>
        <time>2018-07-24T08:49:33Z</time>
      </trkpt>
      <trkpt lat="41.211708" lon="-6.560307">
        <ele>687.337</ele>
        <time>2018-07-24T08:49:34Z</time>
      </trkpt>
      <trkpt lat="41.211641" lon="-6.560377">
        <ele>687.795</ele>
        <time>2018-07-24T08:49:35Z</time>
      </trkpt>
      <trkpt lat="41.211573" lon="-6.560447">
        <ele>688.781</ele>
        <time>2018-07-24T08:49:36Z</time>
      </trkpt>
      <trkpt lat="41.211512" lon="-6.560522">
        <ele>689.221</ele>
        <time>2018-07-24T08:49:37Z</time>
      </trkpt>
      <trkpt lat="41.211458" lon="-6.560588">
        <ele>689.604</ele>
        <time>2018-07-24T08:49:38Z</time>
      </trkpt>
      <trkpt lat="41.211354" lon="-6.560697">
        <ele>689.912</ele>
        <time>2018-07-24T08:49:40Z</time>
      </trkpt>
      <trkpt lat="41.21129" lon="-6.560718">
        <ele>690.158</ele>
        <time>2018-07-24T08:49:41Z</time>
      </trkpt>
      <trkpt lat="41.211218" lon="-6.560712">
        <ele>690.597</ele>
        <time>2018-07-24T08:49:42Z</time>
      </trkpt>
      <trkpt lat="41.211154" lon="-6.560687">
        <ele>690.831</ele>
        <time>2018-07-24T08:49:43Z</time>
      </trkpt>
      <trkpt lat="41.211098" lon="-6.560659">
        <ele>690.986</ele>
        <time>2018-07-24T08:49:44Z</time>
      </trkpt>
      <trkpt lat="41.210917" lon="-6.560619">
        <ele>691.168</ele>
        <time>2018-07-24T08:49:47Z</time>
      </trkpt>
      <trkpt lat="41.210765" lon="-6.560679">
        <ele>691.613</ele>
        <time>2018-07-24T08:49:49Z</time>
      </trkpt>
      <trkpt lat="41.210689" lon="-6.560725">
        <ele>691.837</ele>
        <time>2018-07-24T08:49:50Z</time>
      </trkpt>
      <trkpt lat="41.210613" lon="-6.560767">
        <ele>692.092</ele>
        <time>2018-07-24T08:49:51Z</time>
      </trkpt>
      <trkpt lat="41.210398" lon="-6.560949">
        <ele>692.366</ele>
        <time>2018-07-24T08:49:54Z</time>
      </trkpt>
      <trkpt lat="41.210351" lon="-6.561036">
        <ele>693.692</ele>
        <time>2018-07-24T08:49:55Z</time>
      </trkpt>
      <trkpt lat="41.210315" lon="-6.561141">
        <ele>694.402</ele>
        <time>2018-07-24T08:49:56Z</time>
      </trkpt>
      <trkpt lat="41.210289" lon="-6.561252">
        <ele>695.847</ele>
        <time>2018-07-24T08:49:57Z</time>
      </trkpt>
      <trkpt lat="41.210215" lon="-6.561594">
        <ele>696.468</ele>
        <time>2018-07-24T08:49:59Z</time>
      </trkpt>
      <trkpt lat="41.210173" lon="-6.561754">
        <ele>697.029</ele>
        <time>2018-07-24T08:50:00Z</time>
      </trkpt>
      <trkpt lat="41.210116" lon="-6.56201">
        <ele>697.492</ele>
        <time>2018-07-24T08:50:02Z</time>
      </trkpt>
      <trkpt lat="41.210086" lon="-6.562131">
        <ele>697.856</ele>
        <time>2018-07-24T08:50:03Z</time>
      </trkpt>
      <trkpt lat="41.210075" lon="-6.562247">
        <ele>698.142</ele>
        <time>2018-07-24T08:50:04Z</time>
      </trkpt>
      <trkpt lat="41.210043" lon="-6.562363">
        <ele>698.381</ele>
        <time>2018-07-24T08:50:05Z</time>
      </trkpt>
      <trkpt lat="41.21001" lon="-6.56247">
        <ele>698.592</ele>
        <time>2018-07-24T08:50:06Z</time>
      </trkpt>
      <trkpt lat="41.209969" lon="-6.562568">
        <ele>698.743</ele>
        <time>2018-07-24T08:50:07Z</time>
      </trkpt>
      <trkpt lat="41.209934" lon="-6.562662">
        <ele>698.849</ele>
        <time>2018-07-24T08:50:08Z</time>
      </trkpt>
      <trkpt lat="41.209898" lon="-6.562752">
        <ele>698.925</ele>
        <time>2018-07-24T08:50:09Z</time>
      </trkpt>
      <trkpt lat="41.209858" lon="-6.562841">
        <ele>698.986</ele>
        <time>2018-07-24T08:50:10Z</time>
      </trkpt>
      <trkpt lat="41.209813" lon="-6.562936">
        <ele>699.045</ele>
        <time>2018-07-24T08:50:11Z</time>
      </trkpt>
      <trkpt lat="41.209763" lon="-6.563026">
        <ele>699.092</ele>
        <time>2018-07-24T08:50:12Z</time>
      </trkpt>
      <trkpt lat="41.209715" lon="-6.563119">
        <ele>699.113</ele>
        <time>2018-07-24T08:50:13Z</time>
      </trkpt>
      <trkpt lat="41.209663" lon="-6.563214">
        <ele>699.09</ele>
        <time>2018-07-24T08:50:14Z</time>
      </trkpt>
      <trkpt lat="41.209611" lon="-6.563314">
        <ele>699.029</ele>
        <time>2018-07-24T08:50:15Z</time>
      </trkpt>
      <trkpt lat="41.209561" lon="-6.563421">
        <ele>698.907</ele>
        <time>2018-07-24T08:50:16Z</time>
      </trkpt>
      <trkpt lat="41.209506" lon="-6.563528">
        <ele>698.73</ele>
        <time>2018-07-24T08:50:17Z</time>
      </trkpt>
      <trkpt lat="41.209448" lon="-6.563632">
        <ele>698.496</ele>
        <time>2018-07-24T08:50:18Z</time>
      </trkpt>
      <trkpt lat="41.20938" lon="-6.563735">
        <ele>698.264</ele>
        <time>2018-07-24T08:50:19Z</time>
      </trkpt>
      <trkpt lat="41.209308" lon="-6.563838">
        <ele>698.055</ele>
        <time>2018-07-24T08:50:20Z</time>
      </trkpt>
      <trkpt lat="41.209232" lon="-6.563933">
        <ele>697.858</ele>
        <time>2018-07-24T08:50:21Z</time>
      </trkpt>
      <trkpt lat="41.209152" lon="-6.564021">
        <ele>697.667</ele>
        <time>2018-07-24T08:50:22Z</time>
      </trkpt>
      <trkpt lat="41.209079" lon="-6.564117">
        <ele>697.47</ele>
        <time>2018-07-24T08:50:23Z</time>
      </trkpt>
      <trkpt lat="41.209016" lon="-6.564228">
        <ele>696.261</ele>
        <time>2018-07-24T08:50:24Z</time>
      </trkpt>
      <trkpt lat="41.208953" lon="-6.564338">
        <ele>695.862</ele>
        <time>2018-07-24T08:50:25Z</time>
      </trkpt>
      <trkpt lat="41.208877" lon="-6.56444">
        <ele>695.34</ele>
        <time>2018-07-24T08:50:26Z</time>
      </trkpt>
      <trkpt lat="41.208535" lon="-6.564669">
        <ele>694.769</ele>
        <time>2018-07-24T08:50:30Z</time>
      </trkpt>
      <trkpt lat="41.208442" lon="-6.564683">
        <ele>694.167</ele>
        <time>2018-07-24T08:50:31Z</time>
      </trkpt>
      <trkpt lat="41.20835" lon="-6.564679">
        <ele>693.511</ele>
        <time>2018-07-24T08:50:32Z</time>
      </trkpt>
      <trkpt lat="41.208264" lon="-6.564664">
        <ele>692.84</ele>
        <time>2018-07-24T08:50:33Z</time>
      </trkpt>
      <trkpt lat="41.208175" lon="-6.564644">
        <ele>690.816</ele>
        <time>2018-07-24T08:50:34Z</time>
      </trkpt>
      <trkpt lat="41.208085" lon="-6.564628">
        <ele>690.132</ele>
        <time>2018-07-24T08:50:35Z</time>
      </trkpt>
      <trkpt lat="41.207988" lon="-6.564618">
        <ele>689.388</ele>
        <time>2018-07-24T08:50:36Z</time>
      </trkpt>
      <trkpt lat="41.207697" lon="-6.56475">
        <ele>688.636</ele>
        <time>2018-07-24T08:50:39Z</time>
      </trkpt>
      <trkpt lat="41.207599" lon="-6.564783">
        <ele>687.874</ele>
        <time>2018-07-24T08:50:40Z</time>
      </trkpt>
      <trkpt lat="41.2075" lon="-6.564801">
        <ele>687.125</ele>
        <time>2018-07-24T08:50:41Z</time>
      </trkpt>
      <trkpt lat="41.207399" lon="-6.564803">
        <ele>686.37</ele>
        <time>2018-07-24T08:50:42Z</time>
      </trkpt>
      <trkpt lat="41.207299" lon="-6.5648">
        <ele>685.577</ele>
        <time>2018-07-24T08:50:43Z</time>
      </trkpt>
      <trkpt lat="41.207202" lon="-6.56478">
        <ele>684.796</ele>
        <time>2018-07-24T08:50:44Z</time>
      </trkpt>
      <trkpt lat="41.207107" lon="-6.564749">
        <ele>683.988</ele>
        <time>2018-07-24T08:50:45Z</time>
      </trkpt>
      <trkpt lat="41.207013" lon="-6.564712">
        <ele>683.191</ele>
        <time>2018-07-24T08:50:46Z</time>
      </trkpt>
      <trkpt lat="41.206918" lon="-6.564671">
        <ele>682.4</ele>
        <time>2018-07-24T08:50:47Z</time>
      </trkpt>
      <trkpt lat="41.206827" lon="-6.564629">
        <ele>681.622</ele>
        <time>2018-07-24T08:50:48Z</time>
      </trkpt>
      <trkpt lat="41.206737" lon="-6.564598">
        <ele>680.866</ele>
        <time>2018-07-24T08:50:49Z</time>
      </trkpt>
      <trkpt lat="41.206651" lon="-6.564566">
        <ele>680.12</ele>
        <time>2018-07-24T08:50:50Z</time>
      </trkpt>
      <trkpt lat="41.206565" lon="-6.564536">
        <ele>679.41</ele>
        <time>2018-07-24T08:50:51Z</time>
      </trkpt>
      <trkpt lat="41.20648" lon="-6.564511">
        <ele>678.766</ele>
        <time>2018-07-24T08:50:52Z</time>
      </trkpt>
      <trkpt lat="41.206395" lon="-6.564492">
        <ele>678.158</ele>
        <time>2018-07-24T08:50:53Z</time>
      </trkpt>
      <trkpt lat="41.206306" lon="-6.564476">
        <ele>677.57</ele>
        <time>2018-07-24T08:50:54Z</time>
      </trkpt>
      <trkpt lat="41.206224" lon="-6.564463">
        <ele>677.011</ele>
        <time>2018-07-24T08:50:55Z</time>
      </trkpt>
      <trkpt lat="41.206139" lon="-6.564454">
        <ele>676.476</ele>
        <time>2018-07-24T08:50:56Z</time>
      </trkpt>
      <trkpt lat="41.20605" lon="-6.564446">
        <ele>675.958</ele>
        <time>2018-07-24T08:50:57Z</time>
      </trkpt>
      <trkpt lat="41.20596" lon="-6.564444">
        <ele>675.43</ele>
        <time>2018-07-24T08:50:58Z</time>
      </trkpt>
      <trkpt lat="41.205871" lon="-6.564459">
        <ele>674.845</ele>
        <time>2018-07-24T08:50:59Z</time>
      </trkpt>
      <trkpt lat="41.205782" lon="-6.564486">
        <ele>674.252</ele>
        <time>2018-07-24T08:51:00Z</time>
      </trkpt>
      <trkpt lat="41.205692" lon="-6.564521">
        <ele>673.668</ele>
        <time>2018-07-24T08:51:01Z</time>
      </trkpt>
      <trkpt lat="41.205596" lon="-6.564559">
        <ele>670.627</ele>
        <time>2018-07-24T08:51:02Z</time>
      </trkpt>
      <trkpt lat="41.205497" lon="-6.564599">
        <ele>669.991</ele>
        <time>2018-07-24T08:51:03Z</time>
      </trkpt>
      <trkpt lat="41.205393" lon="-6.564641">
        <ele>669.369</ele>
        <time>2018-07-24T08:51:04Z</time>
      </trkpt>
      <trkpt lat="41.204872" lon="-6.564816">
        <ele>668.772</ele>
        <time>2018-07-24T08:51:09Z</time>
      </trkpt>
      <trkpt lat="41.204774" lon="-6.564853">
        <ele>668.231</ele>
        <time>2018-07-24T08:51:10Z</time>
      </trkpt>
      <trkpt lat="41.204683" lon="-6.564905">
        <ele>666.761</ele>
        <time>2018-07-24T08:51:11Z</time>
      </trkpt>
      <trkpt lat="41.204599" lon="-6.564975">
        <ele>666.317</ele>
        <time>2018-07-24T08:51:12Z</time>
      </trkpt>
      <trkpt lat="41.204523" lon="-6.565063">
        <ele>665.889</ele>
        <time>2018-07-24T08:51:13Z</time>
      </trkpt>
      <trkpt lat="41.20436" lon="-6.565343">
        <ele>665.462</ele>
        <time>2018-07-24T08:51:16Z</time>
      </trkpt>
      <trkpt lat="41.204307" lon="-6.565413">
        <ele>665.016</ele>
        <time>2018-07-24T08:51:17Z</time>
      </trkpt>
      <trkpt lat="41.204257" lon="-6.56548">
        <ele>664.538</ele>
        <time>2018-07-24T08:51:18Z</time>
      </trkpt>
      <trkpt lat="41.20421" lon="-6.565537">
        <ele>664.101</ele>
        <time>2018-07-24T08:51:19Z</time>
      </trkpt>
      <trkpt lat="41.204167" lon="-6.565585">
        <ele>663.143</ele>
        <time>2018-07-24T08:51:20Z</time>
      </trkpt>
      <trkpt lat="41.204114" lon="-6.56562">
        <ele>662.642</ele>
        <time>2018-07-24T08:51:21Z</time>
      </trkpt>
      <trkpt lat="41.204054" lon="-6.56565">
        <ele>662.174</ele>
        <time>2018-07-24T08:51:22Z</time>
      </trkpt>
      <trkpt lat="41.203958" lon="-6.565696">
        <ele>661.691</ele>
        <time>2018-07-24T08:51:24Z</time>
      </trkpt>
      <trkpt lat="41.203905" lon="-6.565705">
        <ele>661.266</ele>
        <time>2018-07-24T08:51:25Z</time>
      </trkpt>
      <trkpt lat="41.203847" lon="-6.565709">
        <ele>660.871</ele>
        <time>2018-07-24T08:51:26Z</time>
      </trkpt>
      <trkpt lat="41.203793" lon="-6.565719">
        <ele>660.548</ele>
        <time>2018-07-24T08:51:27Z</time>
      </trkpt>
      <trkpt lat="41.203739" lon="-6.565733">
        <ele>660.279</ele>
        <time>2018-07-24T08:51:28Z</time>
      </trkpt>
      <trkpt lat="41.203672" lon="-6.565764">
        <ele>660.034</ele>
        <time>2018-07-24T08:51:29Z</time>
      </trkpt>
      <trkpt lat="41.203614" lon="-6.565821">
        <ele>659.782</ele>
        <time>2018-07-24T08:51:30Z</time>
      </trkpt>
      <trkpt lat="41.203564" lon="-6.565875">
        <ele>659.53</ele>
        <time>2018-07-24T08:51:31Z</time>
      </trkpt>
      <trkpt lat="41.203517" lon="-6.565923">
        <ele>659.299</ele>
        <time>2018-07-24T08:51:32Z</time>
      </trkpt>
      <trkpt lat="41.203471" lon="-6.565968">
        <ele>659.099</ele>
        <time>2018-07-24T08:51:33Z</time>
      </trkpt>
      <trkpt lat="41.203429" lon="-6.56601">
        <ele>658.948</ele>
        <time>2018-07-24T08:51:34Z</time>
      </trkpt>
      <trkpt lat="41.20339" lon="-6.566048">
        <ele>658.851</ele>
        <time>2018-07-24T08:51:35Z</time>
      </trkpt>
      <trkpt lat="41.203348" lon="-6.566087">
        <ele>658.703</ele>
        <time>2018-07-24T08:51:36Z</time>
      </trkpt>
      <trkpt lat="41.203309" lon="-6.566121">
        <ele>658.574</ele>
        <time>2018-07-24T08:51:37Z</time>
      </trkpt>
      <trkpt lat="41.203274" lon="-6.566151">
        <ele>658.398</ele>
        <time>2018-07-24T08:51:38Z</time>
      </trkpt>
      <trkpt lat="41.20324" lon="-6.566178">
        <ele>658.382</ele>
        <time>2018-07-24T08:51:39Z</time>
      </trkpt>
      <trkpt lat="41.203207" lon="-6.566203">
        <ele>658.18</ele>
        <time>2018-07-24T08:51:40Z</time>
      </trkpt>
      <trkpt lat="41.203175" lon="-6.566227">
        <ele>657.93</ele>
        <time>2018-07-24T08:51:41Z</time>
      </trkpt>
      <trkpt lat="41.203141" lon="-6.56625">
        <ele>657.638</ele>
        <time>2018-07-24T08:51:42Z</time>
      </trkpt>
      <trkpt lat="41.203109" lon="-6.566275">
        <ele>657.347</ele>
        <time>2018-07-24T08:51:43Z</time>
      </trkpt>
      <trkpt lat="41.203072" lon="-6.566299">
        <ele>657.049</ele>
        <time>2018-07-24T08:51:44Z</time>
      </trkpt>
      <trkpt lat="41.203032" lon="-6.566327">
        <ele>656.687</ele>
        <time>2018-07-24T08:51:45Z</time>
      </trkpt>
      <trkpt lat="41.202991" lon="-6.566356">
        <ele>656.64</ele>
        <time>2018-07-24T08:51:46Z</time>
      </trkpt>
      <trkpt lat="41.202954" lon="-6.566386">
        <ele>656.64</ele>
        <time>2018-07-24T08:51:47Z</time>
      </trkpt>
      <trkpt lat="41.202874" lon="-6.56649">
        <ele>656.64</ele>
        <time>2018-07-24T08:51:50Z</time>
      </trkpt>
      <trkpt lat="41.202846" lon="-6.566521">
        <ele>657.441</ele>
        <time>2018-07-24T08:51:52Z</time>
      </trkpt>
      <trkpt lat="41.202846" lon="-6.566521">
        <ele>657.528</ele>
        <time>2018-07-24T08:52:00Z</time>
      </trkpt>
      <trkpt lat="41.202846" lon="-6.566521">
        <ele>658.914</ele>
        <time>2018-07-24T08:52:01Z</time>
      </trkpt>
      <trkpt lat="41.202759" lon="-6.566564">
        <ele>659.316</ele>
        <time>2018-07-24T08:52:24Z</time>
      </trkpt>
      <trkpt lat="41.202729" lon="-6.566577">
        <ele>659.625</ele>
        <time>2018-07-24T08:52:25Z</time>
      </trkpt>
      <trkpt lat="41.202646" lon="-6.566572">
        <ele>659.62</ele>
        <time>2018-07-24T08:52:27Z</time>
      </trkpt>
      <trkpt lat="41.202589" lon="-6.566552">
        <ele>659.322</ele>
        <time>2018-07-24T08:52:28Z</time>
      </trkpt>
      <trkpt lat="41.202479" lon="-6.566493">
        <ele>659.107</ele>
        <time>2018-07-24T08:52:30Z</time>
      </trkpt>
      <trkpt lat="41.202421" lon="-6.566455">
        <ele>658.851</ele>
        <time>2018-07-24T08:52:31Z</time>
      </trkpt>
      <trkpt lat="41.202297" lon="-6.566361">
        <ele>658.557</ele>
        <time>2018-07-24T08:52:33Z</time>
      </trkpt>
      <trkpt lat="41.202229" lon="-6.566298">
        <ele>658.234</ele>
        <time>2018-07-24T08:52:34Z</time>
      </trkpt>
      <trkpt lat="41.202157" lon="-6.566227">
        <ele>657.841</ele>
        <time>2018-07-24T08:52:35Z</time>
      </trkpt>
      <trkpt lat="41.202092" lon="-6.56614">
        <ele>657.349</ele>
        <time>2018-07-24T08:52:36Z</time>
      </trkpt>
      <trkpt lat="41.202035" lon="-6.566042">
        <ele>656.859</ele>
        <time>2018-07-24T08:52:37Z</time>
      </trkpt>
      <trkpt lat="41.20198" lon="-6.565938">
        <ele>656.309</ele>
        <time>2018-07-24T08:52:38Z</time>
      </trkpt>
      <trkpt lat="41.201919" lon="-6.565833">
        <ele>655.747</ele>
        <time>2018-07-24T08:52:39Z</time>
      </trkpt>
      <trkpt lat="41.201853" lon="-6.565729">
        <ele>655.116</ele>
        <time>2018-07-24T08:52:40Z</time>
      </trkpt>
      <trkpt lat="41.201789" lon="-6.565623">
        <ele>654.558</ele>
        <time>2018-07-24T08:52:41Z</time>
      </trkpt>
      <trkpt lat="41.201723" lon="-6.565515">
        <ele>653.505</ele>
        <time>2018-07-24T08:52:42Z</time>
      </trkpt>
      <trkpt lat="41.201654" lon="-6.565405">
        <ele>653.081</ele>
        <time>2018-07-24T08:52:43Z</time>
      </trkpt>
      <trkpt lat="41.201583" lon="-6.565296">
        <ele>652.959</ele>
        <time>2018-07-24T08:52:44Z</time>
      </trkpt>
      <trkpt lat="41.201454" lon="-6.565076">
        <ele>652.689</ele>
        <time>2018-07-24T08:52:46Z</time>
      </trkpt>
      <trkpt lat="41.201391" lon="-6.564971">
        <ele>652.402</ele>
        <time>2018-07-24T08:52:47Z</time>
      </trkpt>
      <trkpt lat="41.201334" lon="-6.564873">
        <ele>652.13</ele>
        <time>2018-07-24T08:52:48Z</time>
      </trkpt>
      <trkpt lat="41.201295" lon="-6.564768">
        <ele>651.775</ele>
        <time>2018-07-24T08:52:49Z</time>
      </trkpt>
      <trkpt lat="41.201269" lon="-6.564659">
        <ele>651.43</ele>
        <time>2018-07-24T08:52:50Z</time>
      </trkpt>
      <trkpt lat="41.201268" lon="-6.564552">
        <ele>650.135</ele>
        <time>2018-07-24T08:52:51Z</time>
      </trkpt>
      <trkpt lat="41.201282" lon="-6.564457">
        <ele>649.584</ele>
        <time>2018-07-24T08:52:52Z</time>
      </trkpt>
      <trkpt lat="41.201277" lon="-6.564388">
        <ele>648.971</ele>
        <time>2018-07-24T08:52:53Z</time>
      </trkpt>
      <trkpt lat="41.201175" lon="-6.56435">
        <ele>648.437</ele>
        <time>2018-07-24T08:52:56Z</time>
      </trkpt>
      <trkpt lat="41.201139" lon="-6.56439">
        <ele>647.97</ele>
        <time>2018-07-24T08:52:57Z</time>
      </trkpt>
      <trkpt lat="41.201132" lon="-6.564452">
        <ele>647.541</ele>
        <time>2018-07-24T08:52:58Z</time>
      </trkpt>
      <trkpt lat="41.201149" lon="-6.564524">
        <ele>647.029</ele>
        <time>2018-07-24T08:52:59Z</time>
      </trkpt>
      <trkpt lat="41.201162" lon="-6.564596">
        <ele>646.556</ele>
        <time>2018-07-24T08:53:00Z</time>
      </trkpt>
      <trkpt lat="41.201178" lon="-6.564667">
        <ele>646.08</ele>
        <time>2018-07-24T08:53:01Z</time>
      </trkpt>
      <trkpt lat="41.201197" lon="-6.56475">
        <ele>645.554</ele>
        <time>2018-07-24T08:53:02Z</time>
      </trkpt>
      <trkpt lat="41.201217" lon="-6.56484">
        <ele>645.013</ele>
        <time>2018-07-24T08:53:03Z</time>
      </trkpt>
      <trkpt lat="41.201234" lon="-6.564937">
        <ele>643.899</ele>
        <time>2018-07-24T08:53:04Z</time>
      </trkpt>
      <trkpt lat="41.201248" lon="-6.565041">
        <ele>643.284</ele>
        <time>2018-07-24T08:53:05Z</time>
      </trkpt>
      <trkpt lat="41.201261" lon="-6.565153">
        <ele>642.681</ele>
        <time>2018-07-24T08:53:06Z</time>
      </trkpt>
      <trkpt lat="41.201276" lon="-6.56539">
        <ele>642.156</ele>
        <time>2018-07-24T08:53:08Z</time>
      </trkpt>
      <trkpt lat="41.201284" lon="-6.565511">
        <ele>641.597</ele>
        <time>2018-07-24T08:53:09Z</time>
      </trkpt>
      <trkpt lat="41.201293" lon="-6.565637">
        <ele>641.042</ele>
        <time>2018-07-24T08:53:10Z</time>
      </trkpt>
      <trkpt lat="41.201306" lon="-6.565765">
        <ele>640.525</ele>
        <time>2018-07-24T08:53:11Z</time>
      </trkpt>
      <trkpt lat="41.201319" lon="-6.565894">
        <ele>640.005</ele>
        <time>2018-07-24T08:53:12Z</time>
      </trkpt>
      <trkpt lat="41.201335" lon="-6.566026">
        <ele>639.448</ele>
        <time>2018-07-24T08:53:13Z</time>
      </trkpt>
      <trkpt lat="41.201354" lon="-6.566161">
        <ele>638.852</ele>
        <time>2018-07-24T08:53:14Z</time>
      </trkpt>
      <trkpt lat="41.20137" lon="-6.566298">
        <ele>638.256</ele>
        <time>2018-07-24T08:53:15Z</time>
      </trkpt>
      <trkpt lat="41.201396" lon="-6.566432">
        <ele>637.749</ele>
        <time>2018-07-24T08:53:16Z</time>
      </trkpt>
      <trkpt lat="41.201416" lon="-6.566558">
        <ele>637.213</ele>
        <time>2018-07-24T08:53:17Z</time>
      </trkpt>
      <trkpt lat="41.201437" lon="-6.566672">
        <ele>636.612</ele>
        <time>2018-07-24T08:53:18Z</time>
      </trkpt>
      <trkpt lat="41.201442" lon="-6.566783">
        <ele>636.0</ele>
        <time>2018-07-24T08:53:19Z</time>
      </trkpt>
      <trkpt lat="41.201432" lon="-6.56689">
        <ele>634.132</ele>
        <time>2018-07-24T08:53:20Z</time>
      </trkpt>
      <trkpt lat="41.201416" lon="-6.566993">
        <ele>634.07</ele>
        <time>2018-07-24T08:53:21Z</time>
      </trkpt>
      <trkpt lat="41.201379" lon="-6.567082">
        <ele>633.969</ele>
        <time>2018-07-24T08:53:22Z</time>
      </trkpt>
      <trkpt lat="41.201276" lon="-6.567288">
        <ele>633.711</ele>
        <time>2018-07-24T08:53:25Z</time>
      </trkpt>
      <trkpt lat="41.201249" lon="-6.567336">
        <ele>633.285</ele>
        <time>2018-07-24T08:53:26Z</time>
      </trkpt>
      <trkpt lat="41.201217" lon="-6.567409">
        <ele>632.997</ele>
        <time>2018-07-24T08:53:28Z</time>
      </trkpt>
      <trkpt lat="41.201207" lon="-6.567472">
        <ele>632.481</ele>
        <time>2018-07-24T08:53:30Z</time>
      </trkpt>
      <trkpt lat="41.20119" lon="-6.567534">
        <ele>632.038</ele>
        <time>2018-07-24T08:53:33Z</time>
      </trkpt>
      <trkpt lat="41.201181" lon="-6.567566">
        <ele>625.059</ele>
        <time>2018-07-24T08:53:35Z</time>
      </trkpt>
      <trkpt lat="41.201181" lon="-6.567629">
        <ele>608.191</ele>
        <time>2018-07-24T08:53:39Z</time>
      </trkpt>
      <trkpt lat="41.201187" lon="-6.567657">
        <ele>607.185</ele>
        <time>2018-07-24T08:53:47Z</time>
      </trkpt>
      <trkpt lat="41.201187" lon="-6.567657">
        <ele>607.025</ele>
        <time>2018-07-24T08:54:00Z</time>
      </trkpt>
      <trkpt lat="41.201187" lon="-6.567657">
        <ele>606.96</ele>
        <time>2018-07-24T08:57:19Z</time>
      </trkpt>
      <trkpt lat="41.20124" lon="-6.567739">
        <ele>606.9</ele>
        <time>2018-07-24T08:57:19Z</time>
      </trkpt>
      <trkpt lat="41.20124" lon="-6.567739">
        <ele>606.862</ele>
        <time>2018-07-24T08:57:48Z</time>
      </trkpt>
      <trkpt lat="41.20124" lon="-6.567739">
        <ele>606.807</ele>
        <time>2018-07-24T08:59:48Z</time>
      </trkpt>
      <trkpt lat="41.201203" lon="-6.567829">
        <ele>606.755</ele>
        <time>2018-07-24T08:59:49Z</time>
      </trkpt>
      <trkpt lat="41.201153" lon="-6.567719">
        <ele>606.704</ele>
        <time>2018-07-24T09:00:35Z</time>
      </trkpt>
      <trkpt lat="41.201116" lon="-6.567665">
        <ele>606.673</ele>
        <time>2018-07-24T09:00:43Z</time>
      </trkpt>
      <trkpt lat="41.201063" lon="-6.567638">
        <ele>606.628</ele>
        <time>2018-07-24T09:00:46Z</time>
      </trkpt>
      <trkpt lat="41.201013" lon="-6.567619">
        <ele>606.577</ele>
        <time>2018-07-24T09:00:49Z</time>
      </trkpt>
      <trkpt lat="41.200973" lon="-6.567599">
        <ele>606.545</ele>
        <time>2018-07-24T09:00:51Z</time>
      </trkpt>
      <trkpt lat="41.200922" lon="-6.567548">
        <ele>606.519</ele>
        <time>2018-07-24T09:00:54Z</time>
      </trkpt>
      <trkpt lat="41.200886" lon="-6.567492">
        <ele>606.501</ele>
        <time>2018-07-24T09:00:57Z</time>
      </trkpt>
      <trkpt lat="41.200846" lon="-6.567453">
        <ele>606.493</ele>
        <time>2018-07-24T09:01:00Z</time>
      </trkpt>
      <trkpt lat="41.200818" lon="-6.56742">
        <ele>606.487</ele>
        <time>2018-07-24T09:01:02Z</time>
      </trkpt>
      <trkpt lat="41.200777" lon="-6.567374">
        <ele>606.484</ele>
        <time>2018-07-24T09:01:05Z</time>
      </trkpt>
      <trkpt lat="41.20074" lon="-6.567304">
        <ele>606.484</ele>
        <time>2018-07-24T09:01:09Z</time>
      </trkpt>
      <trkpt lat="41.200712" lon="-6.567256">
        <ele>606.485</ele>
        <time>2018-07-24T09:01:12Z</time>
      </trkpt>
      <trkpt lat="41.200694" lon="-6.567189">
        <ele>606.486</ele>
        <time>2018-07-24T09:01:15Z</time>
      </trkpt>
      <trkpt lat="41.200669" lon="-6.567123">
        <ele>606.488</ele>
        <time>2018-07-24T09:01:18Z</time>
      </trkpt>
      <trkpt lat="41.200656" lon="-6.567081">
        <ele>606.493</ele>
        <time>2018-07-24T09:01:20Z</time>
      </trkpt>
      <trkpt lat="41.200652" lon="-6.567006">
        <ele>606.502</ele>
        <time>2018-07-24T09:01:23Z</time>
      </trkpt>
      <trkpt lat="41.20064" lon="-6.566915">
        <ele>606.505</ele>
        <time>2018-07-24T09:01:26Z</time>
      </trkpt>
      <trkpt lat="41.200631" lon="-6.566868">
        <ele>606.51</ele>
        <time>2018-07-24T09:01:28Z</time>
      </trkpt>
      <trkpt lat="41.200622" lon="-6.566775">
        <ele>606.518</ele>
        <time>2018-07-24T09:01:31Z</time>
      </trkpt>
      <trkpt lat="41.200619" lon="-6.566715">
        <ele>606.52</ele>
        <time>2018-07-24T09:01:33Z</time>
      </trkpt>
      <trkpt lat="41.200614" lon="-6.566646">
        <ele>606.522</ele>
        <time>2018-07-24T09:01:35Z</time>
      </trkpt>
      <trkpt lat="41.200611" lon="-6.566611">
        <ele>606.528</ele>
        <time>2018-07-24T09:01:36Z</time>
      </trkpt>
      <trkpt lat="41.2006" lon="-6.566548">
        <ele>606.534</ele>
        <time>2018-07-24T09:01:38Z</time>
      </trkpt>
      <trkpt lat="41.200594" lon="-6.566519">
        <ele>606.544</ele>
        <time>2018-07-24T09:01:39Z</time>
      </trkpt>
      <trkpt lat="41.200584" lon="-6.566466">
        <ele>606.548</ele>
        <time>2018-07-24T09:01:41Z</time>
      </trkpt>
      <trkpt lat="41.200552" lon="-6.566397">
        <ele>606.551</ele>
        <time>2018-07-24T09:01:44Z</time>
      </trkpt>
      <trkpt lat="41.20054" lon="-6.566368">
        <ele>606.556</ele>
        <time>2018-07-24T09:01:45Z</time>
      </trkpt>
      <trkpt lat="41.200517" lon="-6.566317">
        <ele>606.559</ele>
        <time>2018-07-24T09:01:47Z</time>
      </trkpt>
      <trkpt lat="41.200488" lon="-6.566257">
        <ele>606.561</ele>
        <time>2018-07-24T09:01:50Z</time>
      </trkpt>
      <trkpt lat="41.20047" lon="-6.566219">
        <ele>606.56</ele>
        <time>2018-07-24T09:01:52Z</time>
      </trkpt>
      <trkpt lat="41.200428" lon="-6.566143">
        <ele>606.559</ele>
        <time>2018-07-24T09:01:55Z</time>
      </trkpt>
      <trkpt lat="41.200384" lon="-6.566078">
        <ele>606.557</ele>
        <time>2018-07-24T09:01:58Z</time>
      </trkpt>
      <trkpt lat="41.20035" lon="-6.566016">
        <ele>606.558</ele>
        <time>2018-07-24T09:02:01Z</time>
      </trkpt>
      <trkpt lat="41.200326" lon="-6.565973">
        <ele>606.562</ele>
        <time>2018-07-24T09:02:04Z</time>
      </trkpt>
      <trkpt lat="41.200301" lon="-6.565904">
        <ele>606.567</ele>
        <time>2018-07-24T09:02:07Z</time>
      </trkpt>
      <trkpt lat="41.200286" lon="-6.565859">
        <ele>606.578</ele>
        <time>2018-07-24T09:02:09Z</time>
      </trkpt>
      <trkpt lat="41.200257" lon="-6.565791">
        <ele>606.592</ele>
        <time>2018-07-24T09:02:12Z</time>
      </trkpt>
      <trkpt lat="41.200237" lon="-6.565751">
        <ele>606.608</ele>
        <time>2018-07-24T09:02:15Z</time>
      </trkpt>
      <trkpt lat="41.200205" lon="-6.5657">
        <ele>606.626</ele>
        <time>2018-07-24T09:02:18Z</time>
      </trkpt>
      <trkpt lat="41.200183" lon="-6.565642">
        <ele>606.645</ele>
        <time>2018-07-24T09:02:21Z</time>
      </trkpt>
      <trkpt lat="41.200148" lon="-6.565596">
        <ele>606.667</ele>
        <time>2018-07-24T09:02:24Z</time>
      </trkpt>
      <trkpt lat="41.200123" lon="-6.565565">
        <ele>606.688</ele>
        <time>2018-07-24T09:02:26Z</time>
      </trkpt>
      <trkpt lat="41.200081" lon="-6.565522">
        <ele>606.703</ele>
        <time>2018-07-24T09:02:29Z</time>
      </trkpt>
      <trkpt lat="41.200047" lon="-6.565479">
        <ele>606.719</ele>
        <time>2018-07-24T09:02:32Z</time>
      </trkpt>
      <trkpt lat="41.200004" lon="-6.565447">
        <ele>606.734</ele>
        <time>2018-07-24T09:02:35Z</time>
      </trkpt>
      <trkpt lat="41.199956" lon="-6.565421">
        <ele>606.759</ele>
        <time>2018-07-24T09:02:38Z</time>
      </trkpt>
      <trkpt lat="41.199895" lon="-6.565404">
        <ele>606.777</ele>
        <time>2018-07-24T09:02:41Z</time>
      </trkpt>
      <trkpt lat="41.19984" lon="-6.5654">
        <ele>606.808</ele>
        <time>2018-07-24T09:02:44Z</time>
      </trkpt>
      <trkpt lat="41.199794" lon="-6.565431">
        <ele>606.828</ele>
        <time>2018-07-24T09:02:47Z</time>
      </trkpt>
      <trkpt lat="41.19977" lon="-6.565446">
        <ele>606.862</ele>
        <time>2018-07-24T09:02:49Z</time>
      </trkpt>
      <trkpt lat="41.199736" lon="-6.56547">
        <ele>606.897</ele>
        <time>2018-07-24T09:02:51Z</time>
      </trkpt>
      <trkpt lat="41.199705" lon="-6.565489">
        <ele>606.933</ele>
        <time>2018-07-24T09:02:53Z</time>
      </trkpt>
      <trkpt lat="41.199662" lon="-6.565529">
        <ele>606.973</ele>
        <time>2018-07-24T09:02:56Z</time>
      </trkpt>
      <trkpt lat="41.199634" lon="-6.565554">
        <ele>607.001</ele>
        <time>2018-07-24T09:02:58Z</time>
      </trkpt>
      <trkpt lat="41.1996" lon="-6.565595">
        <ele>607.053</ele>
        <time>2018-07-24T09:03:01Z</time>
      </trkpt>
      <trkpt lat="41.199579" lon="-6.565623">
        <ele>607.107</ele>
        <time>2018-07-24T09:03:03Z</time>
      </trkpt>
      <trkpt lat="41.199541" lon="-6.565656">
        <ele>607.169</ele>
        <time>2018-07-24T09:03:06Z</time>
      </trkpt>
      <trkpt lat="41.199502" lon="-6.565686">
        <ele>607.229</ele>
        <time>2018-07-24T09:03:09Z</time>
      </trkpt>
      <trkpt lat="41.199466" lon="-6.565737">
        <ele>607.271</ele>
        <time>2018-07-24T09:03:12Z</time>
      </trkpt>
      <trkpt lat="41.199426" lon="-6.565781">
        <ele>607.317</ele>
        <time>2018-07-24T09:03:15Z</time>
      </trkpt>
      <trkpt lat="41.199405" lon="-6.565802">
        <ele>607.393</ele>
        <time>2018-07-24T09:03:17Z</time>
      </trkpt>
      <trkpt lat="41.199355" lon="-6.565838">
        <ele>607.453</ele>
        <time>2018-07-24T09:03:21Z</time>
      </trkpt>
      <trkpt lat="41.199316" lon="-6.565882">
        <ele>607.55</ele>
        <time>2018-07-24T09:03:25Z</time>
      </trkpt>
      <trkpt lat="41.199272" lon="-6.565916">
        <ele>607.651</ele>
        <time>2018-07-24T09:03:28Z</time>
      </trkpt>
      <trkpt lat="41.199229" lon="-6.565936">
        <ele>607.722</ele>
        <time>2018-07-24T09:03:31Z</time>
      </trkpt>
      <trkpt lat="41.1992" lon="-6.565951">
        <ele>607.85</ele>
        <time>2018-07-24T09:03:33Z</time>
      </trkpt>
      <trkpt lat="41.199172" lon="-6.565964">
        <ele>607.996</ele>
        <time>2018-07-24T09:03:35Z</time>
      </trkpt>
      <trkpt lat="41.199124" lon="-6.565978">
        <ele>608.046</ele>
        <time>2018-07-24T09:03:38Z</time>
      </trkpt>
      <trkpt lat="41.199093" lon="-6.565985">
        <ele>608.144</ele>
        <time>2018-07-24T09:03:40Z</time>
      </trkpt>
      <trkpt lat="41.199064" lon="-6.565994">
        <ele>608.244</ele>
        <time>2018-07-24T09:03:43Z</time>
      </trkpt>
      <trkpt lat="41.199013" lon="-6.56598">
        <ele>608.345</ele>
        <time>2018-07-24T09:03:46Z</time>
      </trkpt>
      <trkpt lat="41.198981" lon="-6.565972">
        <ele>608.504</ele>
        <time>2018-07-24T09:03:48Z</time>
      </trkpt>
      <trkpt lat="41.198931" lon="-6.565962">
        <ele>608.669</ele>
        <time>2018-07-24T09:03:51Z</time>
      </trkpt>
      <trkpt lat="41.198875" lon="-6.565935">
        <ele>608.783</ele>
        <time>2018-07-24T09:03:54Z</time>
      </trkpt>
      <trkpt lat="41.198853" lon="-6.565925">
        <ele>608.898</ele>
        <time>2018-07-24T09:03:55Z</time>
      </trkpt>
      <trkpt lat="41.198808" lon="-6.565902">
        <ele>609.014</ele>
        <time>2018-07-24T09:03:57Z</time>
      </trkpt>
      <trkpt lat="41.198774" lon="-6.56588">
        <ele>609.129</ele>
        <time>2018-07-24T09:03:59Z</time>
      </trkpt>
      <trkpt lat="41.198738" lon="-6.565844">
        <ele>609.303</ele>
        <time>2018-07-24T09:04:01Z</time>
      </trkpt>
      <trkpt lat="41.198686" lon="-6.565816">
        <ele>609.482</ele>
        <time>2018-07-24T09:04:04Z</time>
      </trkpt>
      <trkpt lat="41.198634" lon="-6.565805">
        <ele>609.664</ele>
        <time>2018-07-24T09:04:07Z</time>
      </trkpt>
      <trkpt lat="41.198603" lon="-6.5658">
        <ele>609.782</ele>
        <time>2018-07-24T09:04:09Z</time>
      </trkpt>
      <trkpt lat="41.19857" lon="-6.565793">
        <ele>609.898</ele>
        <time>2018-07-24T09:04:11Z</time>
      </trkpt>
      <trkpt lat="41.198523" lon="-6.56579">
        <ele>610.074</ele>
        <time>2018-07-24T09:04:13Z</time>
      </trkpt>
      <trkpt lat="41.198489" lon="-6.565788">
        <ele>610.193</ele>
        <time>2018-07-24T09:04:15Z</time>
      </trkpt>
      <trkpt lat="41.198438" lon="-6.565802">
        <ele>610.309</ele>
        <time>2018-07-24T09:04:18Z</time>
      </trkpt>
      <trkpt lat="41.198388" lon="-6.565807">
        <ele>610.424</ele>
        <time>2018-07-24T09:04:21Z</time>
      </trkpt>
      <trkpt lat="41.198335" lon="-6.565827">
        <ele>610.545</ele>
        <time>2018-07-24T09:04:24Z</time>
      </trkpt>
      <trkpt lat="41.198296" lon="-6.565844">
        <ele>610.677</ele>
        <time>2018-07-24T09:04:26Z</time>
      </trkpt>
      <trkpt lat="41.198264" lon="-6.565862">
        <ele>610.821</ele>
        <time>2018-07-24T09:04:28Z</time>
      </trkpt>
      <trkpt lat="41.198216" lon="-6.565904">
        <ele>611.129</ele>
        <time>2018-07-24T09:04:31Z</time>
      </trkpt>
      <trkpt lat="41.198181" lon="-6.56594">
        <ele>611.208</ele>
        <time>2018-07-24T09:04:33Z</time>
      </trkpt>
      <trkpt lat="41.198152" lon="-6.565973">
        <ele>611.419</ele>
        <time>2018-07-24T09:04:35Z</time>
      </trkpt>
      <trkpt lat="41.198124" lon="-6.56601">
        <ele>611.548</ele>
        <time>2018-07-24T09:04:37Z</time>
      </trkpt>
      <trkpt lat="41.1981" lon="-6.566045">
        <ele>611.677</ele>
        <time>2018-07-24T09:04:39Z</time>
      </trkpt>
      <trkpt lat="41.198078" lon="-6.566082">
        <ele>611.802</ele>
        <time>2018-07-24T09:04:41Z</time>
      </trkpt>
      <trkpt lat="41.198054" lon="-6.566129">
        <ele>611.935</ele>
        <time>2018-07-24T09:04:43Z</time>
      </trkpt>
      <trkpt lat="41.198021" lon="-6.566237">
        <ele>612.145</ele>
        <time>2018-07-24T09:04:47Z</time>
      </trkpt>
      <trkpt lat="41.198012" lon="-6.566268">
        <ele>612.292</ele>
        <time>2018-07-24T09:04:48Z</time>
      </trkpt>
      <trkpt lat="41.198004" lon="-6.566347">
        <ele>612.441</ele>
        <time>2018-07-24T09:04:51Z</time>
      </trkpt>
      <trkpt lat="41.198001" lon="-6.566396">
        <ele>612.591</ele>
        <time>2018-07-24T09:04:53Z</time>
      </trkpt>
      <trkpt lat="41.197998" lon="-6.566447">
        <ele>612.808</ele>
        <time>2018-07-24T09:04:55Z</time>
      </trkpt>
      <trkpt lat="41.197996" lon="-6.566496">
        <ele>612.947</ele>
        <time>2018-07-24T09:04:57Z</time>
      </trkpt>
      <trkpt lat="41.197997" lon="-6.566547">
        <ele>613.086</ele>
        <time>2018-07-24T09:04:59Z</time>
      </trkpt>
      <trkpt lat="41.198009" lon="-6.56663">
        <ele>613.294</ele>
        <time>2018-07-24T09:05:02Z</time>
      </trkpt>
      <trkpt lat="41.198019" lon="-6.566681">
        <ele>613.432</ele>
        <time>2018-07-24T09:05:04Z</time>
      </trkpt>
      <trkpt lat="41.198028" lon="-6.566735">
        <ele>613.697</ele>
        <time>2018-07-24T09:05:06Z</time>
      </trkpt>
      <trkpt lat="41.198041" lon="-6.566792">
        <ele>613.899</ele>
        <time>2018-07-24T09:05:08Z</time>
      </trkpt>
      <trkpt lat="41.198063" lon="-6.566852">
        <ele>614.159</ele>
        <time>2018-07-24T09:05:11Z</time>
      </trkpt>
      <trkpt lat="41.198078" lon="-6.566901">
        <ele>614.294</ele>
        <time>2018-07-24T09:05:13Z</time>
      </trkpt>
      <trkpt lat="41.198092" lon="-6.566942">
        <ele>614.495</ele>
        <time>2018-07-24T09:05:15Z</time>
      </trkpt>
      <trkpt lat="41.198108" lon="-6.567011">
        <ele>614.688</ele>
        <time>2018-07-24T09:05:18Z</time>
      </trkpt>
      <trkpt lat="41.198115" lon="-6.567047">
        <ele>614.868</ele>
        <time>2018-07-24T09:05:20Z</time>
      </trkpt>
      <trkpt lat="41.198137" lon="-6.567112">
        <ele>615.097</ele>
        <time>2018-07-24T09:05:24Z</time>
      </trkpt>
      <trkpt lat="41.19815" lon="-6.567171">
        <ele>615.217</ele>
        <time>2018-07-24T09:05:27Z</time>
      </trkpt>
      <trkpt lat="41.198174" lon="-6.567245">
        <ele>615.419</ele>
        <time>2018-07-24T09:05:31Z</time>
      </trkpt>
      <trkpt lat="41.198189" lon="-6.567284">
        <ele>615.647</ele>
        <time>2018-07-24T09:05:33Z</time>
      </trkpt>
      <trkpt lat="41.198214" lon="-6.567341">
        <ele>615.813</ele>
        <time>2018-07-24T09:05:36Z</time>
      </trkpt>
      <trkpt lat="41.198234" lon="-6.567399">
        <ele>615.986</ele>
        <time>2018-07-24T09:05:39Z</time>
      </trkpt>
      <trkpt lat="41.198245" lon="-6.567457">
        <ele>616.159</ele>
        <time>2018-07-24T09:05:42Z</time>
      </trkpt>
      <trkpt lat="41.198274" lon="-6.567525">
        <ele>616.515</ele>
        <time>2018-07-24T09:05:46Z</time>
      </trkpt>
      <trkpt lat="41.198285" lon="-6.567558">
        <ele>616.696</ele>
        <time>2018-07-24T09:05:48Z</time>
      </trkpt>
      <trkpt lat="41.198311" lon="-6.567608">
        <ele>617.056</ele>
        <time>2018-07-24T09:05:51Z</time>
      </trkpt>
      <trkpt lat="41.198343" lon="-6.567659">
        <ele>617.322</ele>
        <time>2018-07-24T09:05:54Z</time>
      </trkpt>
      <trkpt lat="41.198361" lon="-6.567694">
        <ele>617.69</ele>
        <time>2018-07-24T09:05:56Z</time>
      </trkpt>
      <trkpt lat="41.198376" lon="-6.567724">
        <ele>618.08</ele>
        <time>2018-07-24T09:05:58Z</time>
      </trkpt>
      <trkpt lat="41.198395" lon="-6.567759">
        <ele>618.38</ele>
        <time>2018-07-24T09:06:00Z</time>
      </trkpt>
      <trkpt lat="41.198417" lon="-6.567823">
        <ele>618.701</ele>
        <time>2018-07-24T09:06:04Z</time>
      </trkpt>
      <trkpt lat="41.198427" lon="-6.567852">
        <ele>619.048</ele>
        <time>2018-07-24T09:06:06Z</time>
      </trkpt>
      <trkpt lat="41.198456" lon="-6.567924">
        <ele>619.291</ele>
        <time>2018-07-24T09:06:10Z</time>
      </trkpt>
      <trkpt lat="41.198471" lon="-6.567983">
        <ele>619.545</ele>
        <time>2018-07-24T09:06:13Z</time>
      </trkpt>
      <trkpt lat="41.198502" lon="-6.568052">
        <ele>619.802</ele>
        <time>2018-07-24T09:06:17Z</time>
      </trkpt>
      <trkpt lat="41.19852" lon="-6.568126">
        <ele>620.062</ele>
        <time>2018-07-24T09:06:21Z</time>
      </trkpt>
      <trkpt lat="41.198546" lon="-6.568186">
        <ele>620.32</ele>
        <time>2018-07-24T09:06:24Z</time>
      </trkpt>
      <trkpt lat="41.198575" lon="-6.568236">
        <ele>620.705</ele>
        <time>2018-07-24T09:06:27Z</time>
      </trkpt>
      <trkpt lat="41.198597" lon="-6.568294">
        <ele>620.961</ele>
        <time>2018-07-24T09:06:30Z</time>
      </trkpt>
      <trkpt lat="41.198618" lon="-6.568341">
        <ele>621.213</ele>
        <time>2018-07-24T09:06:32Z</time>
      </trkpt>
      <trkpt lat="41.198631" lon="-6.568371">
        <ele>621.466</ele>
        <time>2018-07-24T09:06:34Z</time>
      </trkpt>
      <trkpt lat="41.198644" lon="-6.568408">
        <ele>621.72</ele>
        <time>2018-07-24T09:06:36Z</time>
      </trkpt>
      <trkpt lat="41.198657" lon="-6.568445">
        <ele>621.978</ele>
        <time>2018-07-24T09:06:38Z</time>
      </trkpt>
      <trkpt lat="41.198673" lon="-6.568484">
        <ele>622.378</ele>
        <time>2018-07-24T09:06:40Z</time>
      </trkpt>
      <trkpt lat="41.198695" lon="-6.56853">
        <ele>622.801</ele>
        <time>2018-07-24T09:06:43Z</time>
      </trkpt>
      <trkpt lat="41.198715" lon="-6.568569">
        <ele>623.218</ele>
        <time>2018-07-24T09:06:45Z</time>
      </trkpt>
      <trkpt lat="41.198735" lon="-6.568607">
        <ele>623.485</ele>
        <time>2018-07-24T09:06:47Z</time>
      </trkpt>
      <trkpt lat="41.198754" lon="-6.56865">
        <ele>623.877</ele>
        <time>2018-07-24T09:06:49Z</time>
      </trkpt>
      <trkpt lat="41.198767" lon="-6.568685">
        <ele>624.129</ele>
        <time>2018-07-24T09:06:51Z</time>
      </trkpt>
      <trkpt lat="41.198782" lon="-6.568721">
        <ele>624.375</ele>
        <time>2018-07-24T09:06:53Z</time>
      </trkpt>
      <trkpt lat="41.198815" lon="-6.568779">
        <ele>624.618</ele>
        <time>2018-07-24T09:06:56Z</time>
      </trkpt>
      <trkpt lat="41.198841" lon="-6.568842">
        <ele>624.973</ele>
        <time>2018-07-24T09:06:59Z</time>
      </trkpt>
      <trkpt lat="41.198877" lon="-6.568903">
        <ele>625.31</ele>
        <time>2018-07-24T09:07:02Z</time>
      </trkpt>
      <trkpt lat="41.198896" lon="-6.568942">
        <ele>625.63</ele>
        <time>2018-07-24T09:07:04Z</time>
      </trkpt>
      <trkpt lat="41.198917" lon="-6.568996">
        <ele>625.93</ele>
        <time>2018-07-24T09:07:07Z</time>
      </trkpt>
      <trkpt lat="41.198935" lon="-6.569038">
        <ele>626.222</ele>
        <time>2018-07-24T09:07:09Z</time>
      </trkpt>
      <trkpt lat="41.198951" lon="-6.569073">
        <ele>626.412</ele>
        <time>2018-07-24T09:07:11Z</time>
      </trkpt>
      <trkpt lat="41.198967" lon="-6.569113">
        <ele>626.696</ele>
        <time>2018-07-24T09:07:13Z</time>
      </trkpt>
      <trkpt lat="41.19898" lon="-6.569194">
        <ele>626.885</ele>
        <time>2018-07-24T09:07:16Z</time>
      </trkpt>
      <trkpt lat="41.198996" lon="-6.569252">
        <ele>627.165</ele>
        <time>2018-07-24T09:07:19Z</time>
      </trkpt>
      <trkpt lat="41.199" lon="-6.569318">
        <ele>627.441</ele>
        <time>2018-07-24T09:07:22Z</time>
      </trkpt>
      <trkpt lat="41.198987" lon="-6.569383">
        <ele>627.531</ele>
        <time>2018-07-24T09:07:25Z</time>
      </trkpt>
      <trkpt lat="41.198965" lon="-6.569452">
        <ele>627.709</ele>
        <time>2018-07-24T09:07:28Z</time>
      </trkpt>
      <trkpt lat="41.198953" lon="-6.569498">
        <ele>627.976</ele>
        <time>2018-07-24T09:07:30Z</time>
      </trkpt>
      <trkpt lat="41.198914" lon="-6.56956">
        <ele>628.242</ele>
        <time>2018-07-24T09:07:33Z</time>
      </trkpt>
      <trkpt lat="41.198893" lon="-6.569591">
        <ele>628.424</ele>
        <time>2018-07-24T09:07:35Z</time>
      </trkpt>
      <trkpt lat="41.198854" lon="-6.56963">
        <ele>628.699</ele>
        <time>2018-07-24T09:07:38Z</time>
      </trkpt>
      <trkpt lat="41.198809" lon="-6.569656">
        <ele>628.882</ele>
        <time>2018-07-24T09:07:41Z</time>
      </trkpt>
      <trkpt lat="41.198787" lon="-6.569668">
        <ele>629.064</ele>
        <time>2018-07-24T09:07:42Z</time>
      </trkpt>
      <trkpt lat="41.198757" lon="-6.569689">
        <ele>629.157</ele>
        <time>2018-07-24T09:07:44Z</time>
      </trkpt>
      <trkpt lat="41.198712" lon="-6.569704">
        <ele>629.436</ele>
        <time>2018-07-24T09:07:47Z</time>
      </trkpt>
      <trkpt lat="41.198646" lon="-6.569714">
        <ele>629.712</ele>
        <time>2018-07-24T09:07:50Z</time>
      </trkpt>
      <trkpt lat="41.19861" lon="-6.569717">
        <ele>629.897</ele>
        <time>2018-07-24T09:07:52Z</time>
      </trkpt>
      <trkpt lat="41.198556" lon="-6.569714">
        <ele>629.99</ele>
        <time>2018-07-24T09:07:55Z</time>
      </trkpt>
      <trkpt lat="41.19852" lon="-6.569709">
        <ele>630.267</ele>
        <time>2018-07-24T09:07:57Z</time>
      </trkpt>
      <trkpt lat="41.198487" lon="-6.569704">
        <ele>630.45</ele>
        <time>2018-07-24T09:07:59Z</time>
      </trkpt>
      <trkpt lat="41.198464" lon="-6.569701">
        <ele>630.631</ele>
        <time>2018-07-24T09:08:00Z</time>
      </trkpt>
      <trkpt lat="41.198413" lon="-6.5697">
        <ele>630.815</ele>
        <time>2018-07-24T09:08:03Z</time>
      </trkpt>
      <trkpt lat="41.198357" lon="-6.569705">
        <ele>630.997</ele>
        <time>2018-07-24T09:08:06Z</time>
      </trkpt>
      <trkpt lat="41.198317" lon="-6.569706">
        <ele>631.178</ele>
        <time>2018-07-24T09:08:08Z</time>
      </trkpt>
      <trkpt lat="41.19829" lon="-6.569705">
        <ele>631.359</ele>
        <time>2018-07-24T09:08:09Z</time>
      </trkpt>
      <trkpt lat="41.198234" lon="-6.569715">
        <ele>631.625</ele>
        <time>2018-07-24T09:08:12Z</time>
      </trkpt>
      <trkpt lat="41.198197" lon="-6.569723">
        <ele>631.886</ele>
        <time>2018-07-24T09:08:14Z</time>
      </trkpt>
      <trkpt lat="41.198161" lon="-6.569731">
        <ele>632.058</ele>
        <time>2018-07-24T09:08:16Z</time>
      </trkpt>
      <trkpt lat="41.198126" lon="-6.569741">
        <ele>632.227</ele>
        <time>2018-07-24T09:08:18Z</time>
      </trkpt>
      <trkpt lat="41.198094" lon="-6.569752">
        <ele>632.397</ele>
        <time>2018-07-24T09:08:20Z</time>
      </trkpt>
      <trkpt lat="41.19806" lon="-6.569766">
        <ele>632.572</ele>
        <time>2018-07-24T09:08:22Z</time>
      </trkpt>
      <trkpt lat="41.19803" lon="-6.569783">
        <ele>632.834</ele>
        <time>2018-07-24T09:08:24Z</time>
      </trkpt>
      <trkpt lat="41.197986" lon="-6.569819">
        <ele>633.088</ele>
        <time>2018-07-24T09:08:27Z</time>
      </trkpt>
      <trkpt lat="41.197942" lon="-6.569846">
        <ele>633.255</ele>
        <time>2018-07-24T09:08:30Z</time>
      </trkpt>
      <trkpt lat="41.197915" lon="-6.569864">
        <ele>633.422</ele>
        <time>2018-07-24T09:08:32Z</time>
      </trkpt>
      <trkpt lat="41.197892" lon="-6.569881">
        <ele>633.672</ele>
        <time>2018-07-24T09:08:34Z</time>
      </trkpt>
      <trkpt lat="41.197862" lon="-6.569904">
        <ele>633.921</ele>
        <time>2018-07-24T09:08:36Z</time>
      </trkpt>
      <trkpt lat="41.197826" lon="-6.56993">
        <ele>634.167</ele>
        <time>2018-07-24T09:08:38Z</time>
      </trkpt>
      <trkpt lat="41.197774" lon="-6.569961">
        <ele>634.423</ele>
        <time>2018-07-24T09:08:41Z</time>
      </trkpt>
      <trkpt lat="41.197727" lon="-6.569995">
        <ele>634.683</ele>
        <time>2018-07-24T09:08:44Z</time>
      </trkpt>
      <trkpt lat="41.197698" lon="-6.570018">
        <ele>634.856</ele>
        <time>2018-07-24T09:08:46Z</time>
      </trkpt>
      <trkpt lat="41.19767" lon="-6.570038">
        <ele>635.024</ele>
        <time>2018-07-24T09:08:48Z</time>
      </trkpt>
      <trkpt lat="41.197628" lon="-6.570063">
        <ele>635.275</ele>
        <time>2018-07-24T09:08:51Z</time>
      </trkpt>
      <trkpt lat="41.19758" lon="-6.570103">
        <ele>635.446</ele>
        <time>2018-07-24T09:08:54Z</time>
      </trkpt>
      <trkpt lat="41.197546" lon="-6.570151">
        <ele>635.783</ele>
        <time>2018-07-24T09:08:57Z</time>
      </trkpt>
      <trkpt lat="41.197495" lon="-6.570188">
        <ele>635.949</ele>
        <time>2018-07-24T09:09:00Z</time>
      </trkpt>
      <trkpt lat="41.197447" lon="-6.570244">
        <ele>636.113</ele>
        <time>2018-07-24T09:09:03Z</time>
      </trkpt>
      <trkpt lat="41.197421" lon="-6.570279">
        <ele>636.358</ele>
        <time>2018-07-24T09:09:05Z</time>
      </trkpt>
      <trkpt lat="41.197396" lon="-6.570314">
        <ele>636.599</ele>
        <time>2018-07-24T09:09:07Z</time>
      </trkpt>
      <trkpt lat="41.197357" lon="-6.57035">
        <ele>636.835</ele>
        <time>2018-07-24T09:09:10Z</time>
      </trkpt>
      <trkpt lat="41.197335" lon="-6.570374">
        <ele>637.059</ele>
        <time>2018-07-24T09:09:12Z</time>
      </trkpt>
      <trkpt lat="41.197295" lon="-6.570427">
        <ele>637.276</ele>
        <time>2018-07-24T09:09:16Z</time>
      </trkpt>
      <trkpt lat="41.197275" lon="-6.570458">
        <ele>637.563</ele>
        <time>2018-07-24T09:09:18Z</time>
      </trkpt>
      <trkpt lat="41.197254" lon="-6.570494">
        <ele>637.763</ele>
        <time>2018-07-24T09:09:20Z</time>
      </trkpt>
      <trkpt lat="41.197218" lon="-6.570543">
        <ele>637.958</ele>
        <time>2018-07-24T09:09:23Z</time>
      </trkpt>
      <trkpt lat="41.197182" lon="-6.570604">
        <ele>638.15</ele>
        <time>2018-07-24T09:09:26Z</time>
      </trkpt>
      <trkpt lat="41.19715" lon="-6.570673">
        <ele>638.275</ele>
        <time>2018-07-24T09:09:29Z</time>
      </trkpt>
      <trkpt lat="41.197112" lon="-6.570724">
        <ele>638.404</ele>
        <time>2018-07-24T09:09:32Z</time>
      </trkpt>
      <trkpt lat="41.197083" lon="-6.57077">
        <ele>638.591</ele>
        <time>2018-07-24T09:09:35Z</time>
      </trkpt>
      <trkpt lat="41.197049" lon="-6.570824">
        <ele>638.716</ele>
        <time>2018-07-24T09:09:39Z</time>
      </trkpt>
      <trkpt lat="41.197026" lon="-6.570885">
        <ele>638.839</ele>
        <time>2018-07-24T09:09:42Z</time>
      </trkpt>
      <trkpt lat="41.196996" lon="-6.570938">
        <ele>638.959</ele>
        <time>2018-07-24T09:09:45Z</time>
      </trkpt>
      <trkpt lat="41.19697" lon="-6.570996">
        <ele>639.08</ele>
        <time>2018-07-24T09:09:48Z</time>
      </trkpt>
      <trkpt lat="41.196953" lon="-6.571037">
        <ele>639.203</ele>
        <time>2018-07-24T09:09:50Z</time>
      </trkpt>
      <trkpt lat="41.196938" lon="-6.571072">
        <ele>639.326</ele>
        <time>2018-07-24T09:09:52Z</time>
      </trkpt>
      <trkpt lat="41.196919" lon="-6.57114">
        <ele>639.513</ele>
        <time>2018-07-24T09:09:55Z</time>
      </trkpt>
      <trkpt lat="41.196904" lon="-6.571181">
        <ele>639.639</ele>
        <time>2018-07-24T09:09:57Z</time>
      </trkpt>
      <trkpt lat="41.196887" lon="-6.571234">
        <ele>639.768</ele>
        <time>2018-07-24T09:09:59Z</time>
      </trkpt>
      <trkpt lat="41.196871" lon="-6.571278">
        <ele>639.832</ele>
        <time>2018-07-24T09:10:01Z</time>
      </trkpt>
      <trkpt lat="41.196855" lon="-6.571316">
        <ele>639.958</ele>
        <time>2018-07-24T09:10:03Z</time>
      </trkpt>
      <trkpt lat="41.196842" lon="-6.57135">
        <ele>640.082</ele>
        <time>2018-07-24T09:10:05Z</time>
      </trkpt>
      <trkpt lat="41.196828" lon="-6.571387">
        <ele>640.208</ele>
        <time>2018-07-24T09:10:07Z</time>
      </trkpt>
      <trkpt lat="41.196813" lon="-6.571446">
        <ele>640.397</ele>
        <time>2018-07-24T09:10:10Z</time>
      </trkpt>
      <trkpt lat="41.1968" lon="-6.571493">
        <ele>640.526</ele>
        <time>2018-07-24T09:10:12Z</time>
      </trkpt>
      <trkpt lat="41.196787" lon="-6.571541">
        <ele>640.794</ele>
        <time>2018-07-24T09:10:14Z</time>
      </trkpt>
      <trkpt lat="41.196779" lon="-6.571572">
        <ele>640.929</ele>
        <time>2018-07-24T09:10:15Z</time>
      </trkpt>
      <trkpt lat="41.196769" lon="-6.571622">
        <ele>641.19</ele>
        <time>2018-07-24T09:10:17Z</time>
      </trkpt>
      <trkpt lat="41.196759" lon="-6.571656">
        <ele>641.372</ele>
        <time>2018-07-24T09:10:19Z</time>
      </trkpt>
      <trkpt lat="41.196747" lon="-6.571698">
        <ele>641.491</ele>
        <time>2018-07-24T09:10:21Z</time>
      </trkpt>
      <trkpt lat="41.19674" lon="-6.571763">
        <ele>641.611</ele>
        <time>2018-07-24T09:10:24Z</time>
      </trkpt>
      <trkpt lat="41.196738" lon="-6.571805">
        <ele>641.731</ele>
        <time>2018-07-24T09:10:26Z</time>
      </trkpt>
      <trkpt lat="41.196726" lon="-6.571887">
        <ele>641.905</ele>
        <time>2018-07-24T09:10:30Z</time>
      </trkpt>
      <trkpt lat="41.196719" lon="-6.571933">
        <ele>642.064</ele>
        <time>2018-07-24T09:10:32Z</time>
      </trkpt>
      <trkpt lat="41.196719" lon="-6.572007">
        <ele>642.171</ele>
        <time>2018-07-24T09:10:36Z</time>
      </trkpt>
      <trkpt lat="41.196716" lon="-6.572068">
        <ele>642.325</ele>
        <time>2018-07-24T09:10:39Z</time>
      </trkpt>
      <trkpt lat="41.196713" lon="-6.572115">
        <ele>642.468</ele>
        <time>2018-07-24T09:10:41Z</time>
      </trkpt>
      <trkpt lat="41.196712" lon="-6.57216">
        <ele>642.56</ele>
        <time>2018-07-24T09:10:43Z</time>
      </trkpt>
      <trkpt lat="41.19671" lon="-6.572195">
        <ele>642.697</ele>
        <time>2018-07-24T09:10:45Z</time>
      </trkpt>
      <trkpt lat="41.196704" lon="-6.572251">
        <ele>642.794</ele>
        <time>2018-07-24T09:10:48Z</time>
      </trkpt>
      <trkpt lat="41.196717" lon="-6.572324">
        <ele>642.947</ele>
        <time>2018-07-24T09:10:51Z</time>
      </trkpt>
      <trkpt lat="41.196724" lon="-6.572366">
        <ele>643.065</ele>
        <time>2018-07-24T09:10:53Z</time>
      </trkpt>
      <trkpt lat="41.196746" lon="-6.572426">
        <ele>643.201</ele>
        <time>2018-07-24T09:10:56Z</time>
      </trkpt>
      <trkpt lat="41.196777" lon="-6.572483">
        <ele>643.436</ele>
        <time>2018-07-24T09:10:59Z</time>
      </trkpt>
      <trkpt lat="41.196802" lon="-6.572526">
        <ele>643.603</ele>
        <time>2018-07-24T09:11:01Z</time>
      </trkpt>
      <trkpt lat="41.196834" lon="-6.572578">
        <ele>643.873</ele>
        <time>2018-07-24T09:11:04Z</time>
      </trkpt>
      <trkpt lat="41.196857" lon="-6.57262">
        <ele>644.143</ele>
        <time>2018-07-24T09:11:06Z</time>
      </trkpt>
      <trkpt lat="41.196896" lon="-6.572674">
        <ele>644.416</ele>
        <time>2018-07-24T09:11:09Z</time>
      </trkpt>
      <trkpt lat="41.196916" lon="-6.572703">
        <ele>644.683</ele>
        <time>2018-07-24T09:11:11Z</time>
      </trkpt>
      <trkpt lat="41.196935" lon="-6.572735">
        <ele>644.858</ele>
        <time>2018-07-24T09:11:13Z</time>
      </trkpt>
      <trkpt lat="41.196979" lon="-6.572776">
        <ele>645.112</ele>
        <time>2018-07-24T09:11:16Z</time>
      </trkpt>
      <trkpt lat="41.197009" lon="-6.5728">
        <ele>645.28</ele>
        <time>2018-07-24T09:11:18Z</time>
      </trkpt>
      <trkpt lat="41.197046" lon="-6.572846">
        <ele>645.453</ele>
        <time>2018-07-24T09:11:21Z</time>
      </trkpt>
      <trkpt lat="41.197079" lon="-6.572893">
        <ele>645.631</ele>
        <time>2018-07-24T09:11:24Z</time>
      </trkpt>
      <trkpt lat="41.197114" lon="-6.572935">
        <ele>645.815</ele>
        <time>2018-07-24T09:11:27Z</time>
      </trkpt>
      <trkpt lat="41.197154" lon="-6.572972">
        <ele>645.999</ele>
        <time>2018-07-24T09:11:30Z</time>
      </trkpt>
      <trkpt lat="41.197182" lon="-6.572995">
        <ele>646.183</ele>
        <time>2018-07-24T09:11:32Z</time>
      </trkpt>
      <trkpt lat="41.197213" lon="-6.573044">
        <ele>646.368</ele>
        <time>2018-07-24T09:11:35Z</time>
      </trkpt>
      <trkpt lat="41.197235" lon="-6.573075">
        <ele>646.643</ele>
        <time>2018-07-24T09:11:37Z</time>
      </trkpt>
      <trkpt lat="41.197257" lon="-6.573107">
        <ele>646.822</ele>
        <time>2018-07-24T09:11:39Z</time>
      </trkpt>
      <trkpt lat="41.197279" lon="-6.57314">
        <ele>647.178</ele>
        <time>2018-07-24T09:11:41Z</time>
      </trkpt>
      <trkpt lat="41.197304" lon="-6.573174">
        <ele>647.364</ele>
        <time>2018-07-24T09:11:43Z</time>
      </trkpt>
      <trkpt lat="41.197331" lon="-6.573206">
        <ele>647.759</ele>
        <time>2018-07-24T09:11:45Z</time>
      </trkpt>
      <trkpt lat="41.197356" lon="-6.57324">
        <ele>647.961</ele>
        <time>2018-07-24T09:11:47Z</time>
      </trkpt>
      <trkpt lat="41.197379" lon="-6.573272">
        <ele>648.167</ele>
        <time>2018-07-24T09:11:49Z</time>
      </trkpt>
      <trkpt lat="41.197418" lon="-6.573315">
        <ele>648.485</ele>
        <time>2018-07-24T09:11:52Z</time>
      </trkpt>
      <trkpt lat="41.197438" lon="-6.573335">
        <ele>648.919</ele>
        <time>2018-07-24T09:11:54Z</time>
      </trkpt>
      <trkpt lat="41.19749" lon="-6.573368">
        <ele>649.14</ele>
        <time>2018-07-24T09:11:58Z</time>
      </trkpt>
      <trkpt lat="41.197511" lon="-6.573383">
        <ele>649.479</ele>
        <time>2018-07-24T09:12:00Z</time>
      </trkpt>
      <trkpt lat="41.197565" lon="-6.573413">
        <ele>649.83</ele>
        <time>2018-07-24T09:12:04Z</time>
      </trkpt>
      <trkpt lat="41.19759" lon="-6.573425">
        <ele>650.079</ele>
        <time>2018-07-24T09:12:06Z</time>
      </trkpt>
      <trkpt lat="41.197614" lon="-6.573435">
        <ele>650.47</ele>
        <time>2018-07-24T09:12:08Z</time>
      </trkpt>
      <trkpt lat="41.19767" lon="-6.57344">
        <ele>650.896</ele>
        <time>2018-07-24T09:12:11Z</time>
      </trkpt>
      <trkpt lat="41.197726" lon="-6.573453">
        <ele>651.347</ele>
        <time>2018-07-24T09:12:15Z</time>
      </trkpt>
      <trkpt lat="41.197754" lon="-6.573457">
        <ele>651.817</ele>
        <time>2018-07-24T09:12:17Z</time>
      </trkpt>
      <trkpt lat="41.197807" lon="-6.573466">
        <ele>652.14</ele>
        <time>2018-07-24T09:12:20Z</time>
      </trkpt>
      <trkpt lat="41.197859" lon="-6.573455">
        <ele>652.626</ele>
        <time>2018-07-24T09:12:23Z</time>
      </trkpt>
      <trkpt lat="41.197887" lon="-6.573451">
        <ele>653.106</ele>
        <time>2018-07-24T09:12:25Z</time>
      </trkpt>
      <trkpt lat="41.197942" lon="-6.573422">
        <ele>653.421</ele>
        <time>2018-07-24T09:12:28Z</time>
      </trkpt>
      <trkpt lat="41.197985" lon="-6.573388">
        <ele>653.89</ele>
        <time>2018-07-24T09:12:31Z</time>
      </trkpt>
      <trkpt lat="41.198033" lon="-6.573367">
        <ele>654.194</ele>
        <time>2018-07-24T09:12:34Z</time>
      </trkpt>
      <trkpt lat="41.198081" lon="-6.573314">
        <ele>654.492</ele>
        <time>2018-07-24T09:12:37Z</time>
      </trkpt>
      <trkpt lat="41.198103" lon="-6.573288">
        <ele>654.938</ele>
        <time>2018-07-24T09:12:39Z</time>
      </trkpt>
      <trkpt lat="41.198146" lon="-6.573247">
        <ele>655.236</ele>
        <time>2018-07-24T09:12:42Z</time>
      </trkpt>
      <trkpt lat="41.198187" lon="-6.573213">
        <ele>655.83</ele>
        <time>2018-07-24T09:12:45Z</time>
      </trkpt>
      <trkpt lat="41.198214" lon="-6.573194">
        <ele>656.13</ele>
        <time>2018-07-24T09:12:47Z</time>
      </trkpt>
      <trkpt lat="41.19826" lon="-6.573169">
        <ele>656.44</ele>
        <time>2018-07-24T09:12:50Z</time>
      </trkpt>
      <trkpt lat="41.198285" lon="-6.573153">
        <ele>656.914</ele>
        <time>2018-07-24T09:12:52Z</time>
      </trkpt>
      <trkpt lat="41.19832" lon="-6.573125">
        <ele>657.393</ele>
        <time>2018-07-24T09:12:54Z</time>
      </trkpt>
      <trkpt lat="41.198362" lon="-6.5731">
        <ele>657.71</ele>
        <time>2018-07-24T09:12:57Z</time>
      </trkpt>
      <trkpt lat="41.198392" lon="-6.573079">
        <ele>658.169</ele>
        <time>2018-07-24T09:12:59Z</time>
      </trkpt>
      <trkpt lat="41.198449" lon="-6.573059">
        <ele>658.63</ele>
        <time>2018-07-24T09:13:03Z</time>
      </trkpt>
      <trkpt lat="41.198481" lon="-6.573046">
        <ele>659.101</ele>
        <time>2018-07-24T09:13:05Z</time>
      </trkpt>
      <trkpt lat="41.198509" lon="-6.573035">
        <ele>659.414</ele>
        <time>2018-07-24T09:13:07Z</time>
      </trkpt>
      <trkpt lat="41.198568" lon="-6.57303">
        <ele>659.723</ele>
        <time>2018-07-24T09:13:10Z</time>
      </trkpt>
      <trkpt lat="41.198621" lon="-6.573015">
        <ele>660.033</ele>
        <time>2018-07-24T09:13:13Z</time>
      </trkpt>
      <trkpt lat="41.198654" lon="-6.573006">
        <ele>660.495</ele>
        <time>2018-07-24T09:13:15Z</time>
      </trkpt>
      <trkpt lat="41.1987" lon="-6.573007">
        <ele>660.797</ele>
        <time>2018-07-24T09:13:18Z</time>
      </trkpt>
      <trkpt lat="41.198747" lon="-6.572997">
        <ele>661.248</ele>
        <time>2018-07-24T09:13:21Z</time>
      </trkpt>
      <trkpt lat="41.198802" lon="-6.573003">
        <ele>661.55</ele>
        <time>2018-07-24T09:13:24Z</time>
      </trkpt>
      <trkpt lat="41.19884" lon="-6.573004">
        <ele>661.847</ele>
        <time>2018-07-24T09:13:26Z</time>
      </trkpt>
      <trkpt lat="41.198878" lon="-6.573008">
        <ele>662.141</ele>
        <time>2018-07-24T09:13:28Z</time>
      </trkpt>
      <trkpt lat="41.198915" lon="-6.573015">
        <ele>662.58</ele>
        <time>2018-07-24T09:13:30Z</time>
      </trkpt>
      <trkpt lat="41.198972" lon="-6.57301">
        <ele>663.021</ele>
        <time>2018-07-24T09:13:33Z</time>
      </trkpt>
      <trkpt lat="41.199011" lon="-6.573008">
        <ele>663.324</ele>
        <time>2018-07-24T09:13:35Z</time>
      </trkpt>
      <trkpt lat="41.199065" lon="-6.573016">
        <ele>663.782</ele>
        <time>2018-07-24T09:13:38Z</time>
      </trkpt>
      <trkpt lat="41.1991" lon="-6.573022">
        <ele>664.083</ele>
        <time>2018-07-24T09:13:40Z</time>
      </trkpt>
      <trkpt lat="41.199131" lon="-6.573025">
        <ele>664.533</ele>
        <time>2018-07-24T09:13:42Z</time>
      </trkpt>
      <trkpt lat="41.199166" lon="-6.573025">
        <ele>664.972</ele>
        <time>2018-07-24T09:13:44Z</time>
      </trkpt>
      <trkpt lat="41.199227" lon="-6.573024">
        <ele>665.401</ele>
        <time>2018-07-24T09:13:47Z</time>
      </trkpt>
      <trkpt lat="41.19928" lon="-6.573041">
        <ele>665.68</ele>
        <time>2018-07-24T09:13:50Z</time>
      </trkpt>
      <trkpt lat="41.199322" lon="-6.573049">
        <ele>665.958</ele>
        <time>2018-07-24T09:13:52Z</time>
      </trkpt>
      <trkpt lat="41.199375" lon="-6.573074">
        <ele>666.098</ele>
        <time>2018-07-24T09:13:55Z</time>
      </trkpt>
      <trkpt lat="41.199411" lon="-6.573092">
        <ele>666.377</ele>
        <time>2018-07-24T09:13:57Z</time>
      </trkpt>
      <trkpt lat="41.199458" lon="-6.573135">
        <ele>666.516</ele>
        <time>2018-07-24T09:14:00Z</time>
      </trkpt>
      <trkpt lat="41.199504" lon="-6.573197">
        <ele>666.787</ele>
        <time>2018-07-24T09:14:03Z</time>
      </trkpt>
      <trkpt lat="41.199552" lon="-6.573239">
        <ele>667.054</ele>
        <time>2018-07-24T09:14:06Z</time>
      </trkpt>
      <trkpt lat="41.199589" lon="-6.573268">
        <ele>667.318</ele>
        <time>2018-07-24T09:14:08Z</time>
      </trkpt>
      <trkpt lat="41.19963" lon="-6.573309">
        <ele>667.448</ele>
        <time>2018-07-24T09:14:10Z</time>
      </trkpt>
      <trkpt lat="41.19965" lon="-6.573332">
        <ele>667.576</ele>
        <time>2018-07-24T09:14:11Z</time>
      </trkpt>
      <trkpt lat="41.199682" lon="-6.57337">
        <ele>667.829</ele>
        <time>2018-07-24T09:14:13Z</time>
      </trkpt>
      <trkpt lat="41.1997" lon="-6.57339">
        <ele>667.953</ele>
        <time>2018-07-24T09:14:14Z</time>
      </trkpt>
      <trkpt lat="41.19973" lon="-6.573437">
        <ele>668.076</ele>
        <time>2018-07-24T09:14:16Z</time>
      </trkpt>
      <trkpt lat="41.199765" lon="-6.573482">
        <ele>668.318</ele>
        <time>2018-07-24T09:14:18Z</time>
      </trkpt>
      <trkpt lat="41.199796" lon="-6.573526">
        <ele>668.438</ele>
        <time>2018-07-24T09:14:20Z</time>
      </trkpt>
      <trkpt lat="41.199814" lon="-6.57355">
        <ele>668.555</ele>
        <time>2018-07-24T09:14:21Z</time>
      </trkpt>
      <trkpt lat="41.19983" lon="-6.573576">
        <ele>668.671</ele>
        <time>2018-07-24T09:14:22Z</time>
      </trkpt>
      <trkpt lat="41.199865" lon="-6.573623">
        <ele>669.01</ele>
        <time>2018-07-24T09:14:24Z</time>
      </trkpt>
      <trkpt lat="41.199882" lon="-6.573647">
        <ele>669.232</ele>
        <time>2018-07-24T09:14:25Z</time>
      </trkpt>
      <trkpt lat="41.199899" lon="-6.573669">
        <ele>669.341</ele>
        <time>2018-07-24T09:14:26Z</time>
      </trkpt>
      <trkpt lat="41.199931" lon="-6.573714">
        <ele>669.449</ele>
        <time>2018-07-24T09:14:28Z</time>
      </trkpt>
      <trkpt lat="41.199947" lon="-6.573736">
        <ele>669.556</ele>
        <time>2018-07-24T09:14:29Z</time>
      </trkpt>
      <trkpt lat="41.199962" lon="-6.57376">
        <ele>669.663</ele>
        <time>2018-07-24T09:14:30Z</time>
      </trkpt>
      <trkpt lat="41.19998" lon="-6.573789">
        <ele>669.769</ele>
        <time>2018-07-24T09:14:31Z</time>
      </trkpt>
      <trkpt lat="41.200032" lon="-6.573847">
        <ele>669.978</ele>
        <time>2018-07-24T09:14:34Z</time>
      </trkpt>
      <trkpt lat="41.200069" lon="-6.573889">
        <ele>670.082</ele>
        <time>2018-07-24T09:14:36Z</time>
      </trkpt>
      <trkpt lat="41.200089" lon="-6.573909">
        <ele>670.286</ele>
        <time>2018-07-24T09:14:37Z</time>
      </trkpt>
      <trkpt lat="41.200112" lon="-6.573932">
        <ele>670.486</ele>
        <time>2018-07-24T09:14:38Z</time>
      </trkpt>
      <trkpt lat="41.200132" lon="-6.573951">
        <ele>670.584</ele>
        <time>2018-07-24T09:14:39Z</time>
      </trkpt>
      <trkpt lat="41.200152" lon="-6.573969">
        <ele>670.681</ele>
        <time>2018-07-24T09:14:40Z</time>
      </trkpt>
      <trkpt lat="41.200173" lon="-6.573986">
        <ele>670.872</ele>
        <time>2018-07-24T09:14:41Z</time>
      </trkpt>
      <trkpt lat="41.200218" lon="-6.574023">
        <ele>670.966</ele>
        <time>2018-07-24T09:14:43Z</time>
      </trkpt>
      <trkpt lat="41.200241" lon="-6.57404">
        <ele>671.153</ele>
        <time>2018-07-24T09:14:44Z</time>
      </trkpt>
      <trkpt lat="41.20028" lon="-6.574071">
        <ele>671.337</ele>
        <time>2018-07-24T09:14:46Z</time>
      </trkpt>
      <trkpt lat="41.200325" lon="-6.5741">
        <ele>671.52</ele>
        <time>2018-07-24T09:14:48Z</time>
      </trkpt>
      <trkpt lat="41.200348" lon="-6.574113">
        <ele>671.609</ele>
        <time>2018-07-24T09:14:49Z</time>
      </trkpt>
      <trkpt lat="41.200374" lon="-6.574126">
        <ele>671.783</ele>
        <time>2018-07-24T09:14:50Z</time>
      </trkpt>
      <trkpt lat="41.200418" lon="-6.574152">
        <ele>671.952</ele>
        <time>2018-07-24T09:14:52Z</time>
      </trkpt>
      <trkpt lat="41.200439" lon="-6.574166">
        <ele>672.034</ele>
        <time>2018-07-24T09:14:53Z</time>
      </trkpt>
      <trkpt lat="41.200484" lon="-6.574189">
        <ele>672.199</ele>
        <time>2018-07-24T09:14:55Z</time>
      </trkpt>
      <trkpt lat="41.20052" lon="-6.574208">
        <ele>672.363</ele>
        <time>2018-07-24T09:14:57Z</time>
      </trkpt>
      <trkpt lat="41.200562" lon="-6.574229">
        <ele>672.445</ele>
        <time>2018-07-24T09:14:59Z</time>
      </trkpt>
      <trkpt lat="41.200585" lon="-6.57424">
        <ele>672.61</ele>
        <time>2018-07-24T09:15:00Z</time>
      </trkpt>
      <trkpt lat="41.200619" lon="-6.57426">
        <ele>672.771</ele>
        <time>2018-07-24T09:15:02Z</time>
      </trkpt>
      <trkpt lat="41.20066" lon="-6.574283">
        <ele>672.925</ele>
        <time>2018-07-24T09:15:04Z</time>
      </trkpt>
      <trkpt lat="41.200681" lon="-6.574295">
        <ele>673.146</ele>
        <time>2018-07-24T09:15:05Z</time>
      </trkpt>
      <trkpt lat="41.200711" lon="-6.574314">
        <ele>673.287</ele>
        <time>2018-07-24T09:15:07Z</time>
      </trkpt>
      <trkpt lat="41.200746" lon="-6.574333">
        <ele>673.426</ele>
        <time>2018-07-24T09:15:09Z</time>
      </trkpt>
      <trkpt lat="41.200767" lon="-6.574347">
        <ele>673.562</ele>
        <time>2018-07-24T09:15:10Z</time>
      </trkpt>
      <trkpt lat="41.200798" lon="-6.57437">
        <ele>673.761</ele>
        <time>2018-07-24T09:15:12Z</time>
      </trkpt>
      <trkpt lat="41.200835" lon="-6.574393">
        <ele>673.889</ele>
        <time>2018-07-24T09:15:14Z</time>
      </trkpt>
      <trkpt lat="41.200873" lon="-6.574414">
        <ele>674.075</ele>
        <time>2018-07-24T09:15:16Z</time>
      </trkpt>
      <trkpt lat="41.200925" lon="-6.574457">
        <ele>674.197</ele>
        <time>2018-07-24T09:15:19Z</time>
      </trkpt>
      <trkpt lat="41.200956" lon="-6.574487">
        <ele>674.316</ele>
        <time>2018-07-24T09:15:21Z</time>
      </trkpt>
      <trkpt lat="41.200986" lon="-6.574512">
        <ele>674.374</ele>
        <time>2018-07-24T09:15:23Z</time>
      </trkpt>
      <trkpt lat="41.201017" lon="-6.574536">
        <ele>674.488</ele>
        <time>2018-07-24T09:15:25Z</time>
      </trkpt>
      <trkpt lat="41.201065" lon="-6.57459">
        <ele>674.654</ele>
        <time>2018-07-24T09:15:28Z</time>
      </trkpt>
      <trkpt lat="41.201094" lon="-6.574625">
        <ele>674.764</ele>
        <time>2018-07-24T09:15:30Z</time>
      </trkpt>
      <trkpt lat="41.201136" lon="-6.574694">
        <ele>674.872</ele>
        <time>2018-07-24T09:15:33Z</time>
      </trkpt>
      <trkpt lat="41.201164" lon="-6.574739">
        <ele>674.926</ele>
        <time>2018-07-24T09:15:35Z</time>
      </trkpt>
      <trkpt lat="41.201188" lon="-6.574788">
        <ele>675.034</ele>
        <time>2018-07-24T09:15:37Z</time>
      </trkpt>
      <trkpt lat="41.201201" lon="-6.574814">
        <ele>675.189</ele>
        <time>2018-07-24T09:15:38Z</time>
      </trkpt>
      <trkpt lat="41.201222" lon="-6.574861">
        <ele>675.239</ele>
        <time>2018-07-24T09:15:40Z</time>
      </trkpt>
      <trkpt lat="41.201253" lon="-6.574952">
        <ele>675.289</ele>
        <time>2018-07-24T09:15:43Z</time>
      </trkpt>
      <trkpt lat="41.201268" lon="-6.575002">
        <ele>675.387</ele>
        <time>2018-07-24T09:15:45Z</time>
      </trkpt>
      <trkpt lat="41.201278" lon="-6.575064">
        <ele>675.484</ele>
        <time>2018-07-24T09:15:47Z</time>
      </trkpt>
      <trkpt lat="41.201284" lon="-6.575094">
        <ele>675.634</ele>
        <time>2018-07-24T09:15:48Z</time>
      </trkpt>
      <trkpt lat="41.201292" lon="-6.57515">
        <ele>675.735</ele>
        <time>2018-07-24T09:15:50Z</time>
      </trkpt>
      <trkpt lat="41.201298" lon="-6.57524">
        <ele>675.886</ele>
        <time>2018-07-24T09:15:53Z</time>
      </trkpt>
      <trkpt lat="41.201299" lon="-6.575271">
        <ele>676.037</ele>
        <time>2018-07-24T09:15:54Z</time>
      </trkpt>
      <trkpt lat="41.201299" lon="-6.575301">
        <ele>676.134</ele>
        <time>2018-07-24T09:15:55Z</time>
      </trkpt>
      <trkpt lat="41.201301" lon="-6.575356">
        <ele>676.283</ele>
        <time>2018-07-24T09:15:57Z</time>
      </trkpt>
      <trkpt lat="41.201302" lon="-6.5754">
        <ele>676.383</ele>
        <time>2018-07-24T09:15:59Z</time>
      </trkpt>
      <trkpt lat="41.201298" lon="-6.57546">
        <ele>676.482</ele>
        <time>2018-07-24T09:16:02Z</time>
      </trkpt>
      <trkpt lat="41.201291" lon="-6.575512">
        <ele>676.581</ele>
        <time>2018-07-24T09:16:04Z</time>
      </trkpt>
      <trkpt lat="41.201289" lon="-6.575582">
        <ele>676.682</ele>
        <time>2018-07-24T09:16:07Z</time>
      </trkpt>
      <trkpt lat="41.201271" lon="-6.57565">
        <ele>676.786</ele>
        <time>2018-07-24T09:16:10Z</time>
      </trkpt>
      <trkpt lat="41.201254" lon="-6.575701">
        <ele>676.889</ele>
        <time>2018-07-24T09:16:12Z</time>
      </trkpt>
      <trkpt lat="41.201227" lon="-6.57576">
        <ele>676.993</ele>
        <time>2018-07-24T09:16:15Z</time>
      </trkpt>
      <trkpt lat="41.201205" lon="-6.5758">
        <ele>677.047</ele>
        <time>2018-07-24T09:16:17Z</time>
      </trkpt>
      <trkpt lat="41.201178" lon="-6.575853">
        <ele>677.103</ele>
        <time>2018-07-24T09:16:19Z</time>
      </trkpt>
      <trkpt lat="41.201156" lon="-6.575898">
        <ele>677.16</ele>
        <time>2018-07-24T09:16:21Z</time>
      </trkpt>
      <trkpt lat="41.201138" lon="-6.575944">
        <ele>677.336</ele>
        <time>2018-07-24T09:16:23Z</time>
      </trkpt>
      <trkpt lat="41.201112" lon="-6.575993">
        <ele>677.398</ele>
        <time>2018-07-24T09:16:25Z</time>
      </trkpt>
      <trkpt lat="41.201091" lon="-6.576041">
        <ele>677.46</ele>
        <time>2018-07-24T09:16:27Z</time>
      </trkpt>
      <trkpt lat="41.201065" lon="-6.576095">
        <ele>677.593</ele>
        <time>2018-07-24T09:16:29Z</time>
      </trkpt>
      <trkpt lat="41.201052" lon="-6.576123">
        <ele>677.663</ele>
        <time>2018-07-24T09:16:30Z</time>
      </trkpt>
      <trkpt lat="41.201041" lon="-6.576151">
        <ele>677.88</ele>
        <time>2018-07-24T09:16:31Z</time>
      </trkpt>
      <trkpt lat="41.201029" lon="-6.576177">
        <ele>678.02</ele>
        <time>2018-07-24T09:16:32Z</time>
      </trkpt>
      <trkpt lat="41.200985" lon="-6.576268">
        <ele>678.09</ele>
        <time>2018-07-24T09:16:35Z</time>
      </trkpt>
      <trkpt lat="41.200971" lon="-6.576295">
        <ele>678.16</ele>
        <time>2018-07-24T09:16:36Z</time>
      </trkpt>
      <trkpt lat="41.200955" lon="-6.576321">
        <ele>678.231</ele>
        <time>2018-07-24T09:16:37Z</time>
      </trkpt>
      <trkpt lat="41.20093" lon="-6.576389">
        <ele>678.302</ele>
        <time>2018-07-24T09:16:39Z</time>
      </trkpt>
      <trkpt lat="41.200918" lon="-6.576421">
        <ele>678.373</ele>
        <time>2018-07-24T09:16:40Z</time>
      </trkpt>
      <trkpt lat="41.200875" lon="-6.576504">
        <ele>678.445</ele>
        <time>2018-07-24T09:16:43Z</time>
      </trkpt>
      <trkpt lat="41.200849" lon="-6.576565">
        <ele>678.518</ele>
        <time>2018-07-24T09:16:45Z</time>
      </trkpt>
      <trkpt lat="41.200835" lon="-6.576597">
        <ele>678.59</ele>
        <time>2018-07-24T09:16:46Z</time>
      </trkpt>
      <trkpt lat="41.200823" lon="-6.576627">
        <ele>678.665</ele>
        <time>2018-07-24T09:16:47Z</time>
      </trkpt>
      <trkpt lat="41.20081" lon="-6.576655">
        <ele>678.811</ele>
        <time>2018-07-24T09:16:48Z</time>
      </trkpt>
      <trkpt lat="41.200797" lon="-6.576682">
        <ele>678.889</ele>
        <time>2018-07-24T09:16:49Z</time>
      </trkpt>
      <trkpt lat="41.200783" lon="-6.57671">
        <ele>678.976</ele>
        <time>2018-07-24T09:16:50Z</time>
      </trkpt>
      <trkpt lat="41.200772" lon="-6.576738">
        <ele>679.063</ele>
        <time>2018-07-24T09:16:51Z</time>
      </trkpt>
      <trkpt lat="41.20076" lon="-6.576768">
        <ele>679.231</ele>
        <time>2018-07-24T09:16:52Z</time>
      </trkpt>
      <trkpt lat="41.200749" lon="-6.576798">
        <ele>679.395</ele>
        <time>2018-07-24T09:16:53Z</time>
      </trkpt>
      <trkpt lat="41.200738" lon="-6.576829">
        <ele>679.566</ele>
        <time>2018-07-24T09:16:54Z</time>
      </trkpt>
      <trkpt lat="41.200714" lon="-6.576881">
        <ele>679.836</ele>
        <time>2018-07-24T09:16:56Z</time>
      </trkpt>
      <trkpt lat="41.200702" lon="-6.57691">
        <ele>680.024</ele>
        <time>2018-07-24T09:16:57Z</time>
      </trkpt>
      <trkpt lat="41.200692" lon="-6.576939">
        <ele>680.21</ele>
        <time>2018-07-24T09:16:58Z</time>
      </trkpt>
      <trkpt lat="41.200682" lon="-6.576966">
        <ele>680.391</ele>
        <time>2018-07-24T09:16:59Z</time>
      </trkpt>
      <trkpt lat="41.200662" lon="-6.577012">
        <ele>680.566</ele>
        <time>2018-07-24T09:17:01Z</time>
      </trkpt>
      <trkpt lat="41.20064" lon="-6.577068">
        <ele>680.745</ele>
        <time>2018-07-24T09:17:03Z</time>
      </trkpt>
      <trkpt lat="41.200617" lon="-6.577121">
        <ele>680.955</ele>
        <time>2018-07-24T09:17:05Z</time>
      </trkpt>
      <trkpt lat="41.200589" lon="-6.577202">
        <ele>681.313</ele>
        <time>2018-07-24T09:17:08Z</time>
      </trkpt>
      <trkpt lat="41.200569" lon="-6.577254">
        <ele>681.674</ele>
        <time>2018-07-24T09:17:10Z</time>
      </trkpt>
      <trkpt lat="41.200551" lon="-6.577303">
        <ele>681.922</ele>
        <time>2018-07-24T09:17:12Z</time>
      </trkpt>
      <trkpt lat="41.200533" lon="-6.57734">
        <ele>682.049</ele>
        <time>2018-07-24T09:17:14Z</time>
      </trkpt>
      <trkpt lat="41.200516" lon="-6.577383">
        <ele>682.308</ele>
        <time>2018-07-24T09:17:16Z</time>
      </trkpt>
      <trkpt lat="41.200497" lon="-6.57743">
        <ele>682.569</ele>
        <time>2018-07-24T09:17:18Z</time>
      </trkpt>
      <trkpt lat="41.200474" lon="-6.577477">
        <ele>682.833</ele>
        <time>2018-07-24T09:17:20Z</time>
      </trkpt>
      <trkpt lat="41.200446" lon="-6.577554">
        <ele>683.093</ele>
        <time>2018-07-24T09:17:23Z</time>
      </trkpt>
      <trkpt lat="41.200418" lon="-6.577625">
        <ele>683.361</ele>
        <time>2018-07-24T09:17:26Z</time>
      </trkpt>
      <trkpt lat="41.2004" lon="-6.577665">
        <ele>683.635</ele>
        <time>2018-07-24T09:17:28Z</time>
      </trkpt>
      <trkpt lat="41.200389" lon="-6.577692">
        <ele>683.909</ele>
        <time>2018-07-24T09:17:29Z</time>
      </trkpt>
      <trkpt lat="41.200368" lon="-6.577736">
        <ele>684.197</ele>
        <time>2018-07-24T09:17:31Z</time>
      </trkpt>
      <trkpt lat="41.200343" lon="-6.577789">
        <ele>684.489</ele>
        <time>2018-07-24T09:17:33Z</time>
      </trkpt>
      <trkpt lat="41.200323" lon="-6.577834">
        <ele>684.638</ele>
        <time>2018-07-24T09:17:35Z</time>
      </trkpt>
      <trkpt lat="41.2003" lon="-6.577887">
        <ele>684.936</ele>
        <time>2018-07-24T09:17:37Z</time>
      </trkpt>
      <trkpt lat="41.200279" lon="-6.577933">
        <ele>685.086</ele>
        <time>2018-07-24T09:17:39Z</time>
      </trkpt>
      <trkpt lat="41.200259" lon="-6.577981">
        <ele>685.387</ele>
        <time>2018-07-24T09:17:41Z</time>
      </trkpt>
      <trkpt lat="41.200237" lon="-6.578033">
        <ele>685.687</ele>
        <time>2018-07-24T09:17:43Z</time>
      </trkpt>
      <trkpt lat="41.200219" lon="-6.578077">
        <ele>685.837</ele>
        <time>2018-07-24T09:17:45Z</time>
      </trkpt>
      <trkpt lat="41.200194" lon="-6.578132">
        <ele>686.134</ele>
        <time>2018-07-24T09:17:47Z</time>
      </trkpt>
      <trkpt lat="41.20018" lon="-6.57816">
        <ele>686.585</ele>
        <time>2018-07-24T09:17:48Z</time>
      </trkpt>
      <trkpt lat="41.200155" lon="-6.578212">
        <ele>686.901</ele>
        <time>2018-07-24T09:17:50Z</time>
      </trkpt>
      <trkpt lat="41.200141" lon="-6.578238">
        <ele>687.227</ele>
        <time>2018-07-24T09:17:51Z</time>
      </trkpt>
      <trkpt lat="41.200119" lon="-6.578293">
        <ele>687.392</ele>
        <time>2018-07-24T09:17:53Z</time>
      </trkpt>
      <trkpt lat="41.200101" lon="-6.578337">
        <ele>687.559</ele>
        <time>2018-07-24T09:17:55Z</time>
      </trkpt>
      <trkpt lat="41.20009" lon="-6.578365">
        <ele>687.887</ele>
        <time>2018-07-24T09:17:56Z</time>
      </trkpt>
      <trkpt lat="41.200073" lon="-6.578414">
        <ele>688.213</ele>
        <time>2018-07-24T09:17:58Z</time>
      </trkpt>
      <trkpt lat="41.200037" lon="-6.578475">
        <ele>688.526</ele>
        <time>2018-07-24T09:18:01Z</time>
      </trkpt>
      <trkpt lat="41.200017" lon="-6.57853">
        <ele>688.822</ele>
        <time>2018-07-24T09:18:03Z</time>
      </trkpt>
      <trkpt lat="41.199996" lon="-6.57858">
        <ele>689.117</ele>
        <time>2018-07-24T09:18:05Z</time>
      </trkpt>
      <trkpt lat="41.199986" lon="-6.578608">
        <ele>689.567</ele>
        <time>2018-07-24T09:18:06Z</time>
      </trkpt>
      <trkpt lat="41.199974" lon="-6.578636">
        <ele>689.719</ele>
        <time>2018-07-24T09:18:07Z</time>
      </trkpt>
      <trkpt lat="41.199949" lon="-6.578684">
        <ele>690.025</ele>
        <time>2018-07-24T09:18:09Z</time>
      </trkpt>
      <trkpt lat="41.199924" lon="-6.578729">
        <ele>690.328</ele>
        <time>2018-07-24T09:18:11Z</time>
      </trkpt>
      <trkpt lat="41.199901" lon="-6.578786">
        <ele>690.637</ele>
        <time>2018-07-24T09:18:13Z</time>
      </trkpt>
      <trkpt lat="41.199883" lon="-6.578843">
        <ele>690.949</ele>
        <time>2018-07-24T09:18:15Z</time>
      </trkpt>
      <trkpt lat="41.199861" lon="-6.578898">
        <ele>691.105</ele>
        <time>2018-07-24T09:18:17Z</time>
      </trkpt>
      <trkpt lat="41.199826" lon="-6.578969">
        <ele>691.414</ele>
        <time>2018-07-24T09:18:20Z</time>
      </trkpt>
      <trkpt lat="41.199814" lon="-6.578994">
        <ele>691.722</ele>
        <time>2018-07-24T09:18:21Z</time>
      </trkpt>
      <trkpt lat="41.19979" lon="-6.579048">
        <ele>692.185</ele>
        <time>2018-07-24T09:18:23Z</time>
      </trkpt>
      <trkpt lat="41.199766" lon="-6.579104">
        <ele>692.34</ele>
        <time>2018-07-24T09:18:25Z</time>
      </trkpt>
      <trkpt lat="41.199743" lon="-6.579155">
        <ele>692.495</ele>
        <time>2018-07-24T09:18:27Z</time>
      </trkpt>
      <trkpt lat="41.19972" lon="-6.579205">
        <ele>692.649</ele>
        <time>2018-07-24T09:18:29Z</time>
      </trkpt>
      <trkpt lat="41.199707" lon="-6.579235">
        <ele>692.802</ele>
        <time>2018-07-24T09:18:30Z</time>
      </trkpt>
      <trkpt lat="41.199683" lon="-6.579289">
        <ele>692.954</ele>
        <time>2018-07-24T09:18:32Z</time>
      </trkpt>
      <trkpt lat="41.19966" lon="-6.579339">
        <ele>693.258</ele>
        <time>2018-07-24T09:18:34Z</time>
      </trkpt>
      <trkpt lat="41.199625" lon="-6.57941">
        <ele>693.559</ele>
        <time>2018-07-24T09:18:37Z</time>
      </trkpt>
      <trkpt lat="41.199612" lon="-6.579439">
        <ele>693.858</ele>
        <time>2018-07-24T09:18:38Z</time>
      </trkpt>
      <trkpt lat="41.1996" lon="-6.579467">
        <ele>694.006</ele>
        <time>2018-07-24T09:18:39Z</time>
      </trkpt>
      <trkpt lat="41.199588" lon="-6.579497">
        <ele>694.448</ele>
        <time>2018-07-24T09:18:40Z</time>
      </trkpt>
      <trkpt lat="41.199578" lon="-6.579526">
        <ele>694.739</ele>
        <time>2018-07-24T09:18:41Z</time>
      </trkpt>
      <trkpt lat="41.199568" lon="-6.579553">
        <ele>694.883</ele>
        <time>2018-07-24T09:18:42Z</time>
      </trkpt>
      <trkpt lat="41.199552" lon="-6.579603">
        <ele>695.025</ele>
        <time>2018-07-24T09:18:44Z</time>
      </trkpt>
      <trkpt lat="41.199536" lon="-6.57966">
        <ele>695.167</ele>
        <time>2018-07-24T09:18:46Z</time>
      </trkpt>
      <trkpt lat="41.199524" lon="-6.579714">
        <ele>695.449</ele>
        <time>2018-07-24T09:18:48Z</time>
      </trkpt>
      <trkpt lat="41.199518" lon="-6.57975">
        <ele>695.728</ele>
        <time>2018-07-24T09:18:49Z</time>
      </trkpt>
      <trkpt lat="41.199513" lon="-6.579846">
        <ele>695.867</ele>
        <time>2018-07-24T09:18:52Z</time>
      </trkpt>
      <trkpt lat="41.199512" lon="-6.579914">
        <ele>696.281</ele>
        <time>2018-07-24T09:18:54Z</time>
      </trkpt>
      <trkpt lat="41.199513" lon="-6.579946">
        <ele>696.556</ele>
        <time>2018-07-24T09:18:55Z</time>
      </trkpt>
      <trkpt lat="41.199515" lon="-6.579978">
        <ele>696.697</ele>
        <time>2018-07-24T09:18:56Z</time>
      </trkpt>
      <trkpt lat="41.199518" lon="-6.580011">
        <ele>696.836</ele>
        <time>2018-07-24T09:18:57Z</time>
      </trkpt>
      <trkpt lat="41.199527" lon="-6.580071">
        <ele>696.975</ele>
        <time>2018-07-24T09:18:59Z</time>
      </trkpt>
      <trkpt lat="41.199538" lon="-6.580131">
        <ele>697.113</ele>
        <time>2018-07-24T09:19:01Z</time>
      </trkpt>
      <trkpt lat="41.199544" lon="-6.580164">
        <ele>697.247</ele>
        <time>2018-07-24T09:19:02Z</time>
      </trkpt>
      <trkpt lat="41.199552" lon="-6.580253">
        <ele>697.381</ele>
        <time>2018-07-24T09:19:05Z</time>
      </trkpt>
      <trkpt lat="41.199577" lon="-6.580312">
        <ele>697.645</ele>
        <time>2018-07-24T09:19:07Z</time>
      </trkpt>
      <trkpt lat="41.199589" lon="-6.580341">
        <ele>697.778</ele>
        <time>2018-07-24T09:19:08Z</time>
      </trkpt>
      <trkpt lat="41.1996" lon="-6.58037">
        <ele>698.038</ele>
        <time>2018-07-24T09:19:09Z</time>
      </trkpt>
      <trkpt lat="41.199611" lon="-6.580399">
        <ele>698.175</ele>
        <time>2018-07-24T09:19:10Z</time>
      </trkpt>
      <trkpt lat="41.199623" lon="-6.58043">
        <ele>698.311</ele>
        <time>2018-07-24T09:19:11Z</time>
      </trkpt>
      <trkpt lat="41.199635" lon="-6.580462">
        <ele>698.45</ele>
        <time>2018-07-24T09:19:12Z</time>
      </trkpt>
      <trkpt lat="41.199646" lon="-6.580495">
        <ele>698.714</ele>
        <time>2018-07-24T09:19:13Z</time>
      </trkpt>
      <trkpt lat="41.199664" lon="-6.580553">
        <ele>699.095</ele>
        <time>2018-07-24T09:19:15Z</time>
      </trkpt>
      <trkpt lat="41.199672" lon="-6.580585">
        <ele>699.223</ele>
        <time>2018-07-24T09:19:16Z</time>
      </trkpt>
      <trkpt lat="41.199689" lon="-6.580642">
        <ele>699.348</ele>
        <time>2018-07-24T09:19:18Z</time>
      </trkpt>
      <trkpt lat="41.1997" lon="-6.580679">
        <ele>699.584</ele>
        <time>2018-07-24T09:19:19Z</time>
      </trkpt>
      <trkpt lat="41.19971" lon="-6.580708">
        <ele>699.824</ele>
        <time>2018-07-24T09:19:20Z</time>
      </trkpt>
      <trkpt lat="41.199722" lon="-6.580739">
        <ele>700.065</ele>
        <time>2018-07-24T09:19:21Z</time>
      </trkpt>
      <trkpt lat="41.199741" lon="-6.580785">
        <ele>700.431</ele>
        <time>2018-07-24T09:19:23Z</time>
      </trkpt>
      <trkpt lat="41.199774" lon="-6.580862">
        <ele>700.798</ele>
        <time>2018-07-24T09:19:26Z</time>
      </trkpt>
      <trkpt lat="41.199786" lon="-6.58089">
        <ele>701.171</ele>
        <time>2018-07-24T09:19:27Z</time>
      </trkpt>
      <trkpt lat="41.199798" lon="-6.580919">
        <ele>701.424</ele>
        <time>2018-07-24T09:19:28Z</time>
      </trkpt>
      <trkpt lat="41.199816" lon="-6.580974">
        <ele>701.8</ele>
        <time>2018-07-24T09:19:30Z</time>
      </trkpt>
      <trkpt lat="41.199832" lon="-6.581027">
        <ele>702.047</ele>
        <time>2018-07-24T09:19:32Z</time>
      </trkpt>
      <trkpt lat="41.199849" lon="-6.581078">
        <ele>702.289</ele>
        <time>2018-07-24T09:19:34Z</time>
      </trkpt>
      <trkpt lat="41.199873" lon="-6.581157">
        <ele>702.653</ele>
        <time>2018-07-24T09:19:37Z</time>
      </trkpt>
      <trkpt lat="41.199905" lon="-6.581236">
        <ele>703.018</ele>
        <time>2018-07-24T09:19:40Z</time>
      </trkpt>
      <trkpt lat="41.199928" lon="-6.58131">
        <ele>703.395</ele>
        <time>2018-07-24T09:19:43Z</time>
      </trkpt>
      <trkpt lat="41.199944" lon="-6.581361">
        <ele>703.657</ele>
        <time>2018-07-24T09:19:45Z</time>
      </trkpt>
      <trkpt lat="41.199969" lon="-6.581435">
        <ele>703.785</ele>
        <time>2018-07-24T09:19:48Z</time>
      </trkpt>
      <trkpt lat="41.199986" lon="-6.581482">
        <ele>704.04</ele>
        <time>2018-07-24T09:19:50Z</time>
      </trkpt>
      <trkpt lat="41.200004" lon="-6.581528">
        <ele>704.29</ele>
        <time>2018-07-24T09:19:52Z</time>
      </trkpt>
      <trkpt lat="41.200029" lon="-6.581607">
        <ele>704.414</ele>
        <time>2018-07-24T09:19:55Z</time>
      </trkpt>
      <trkpt lat="41.200056" lon="-6.581693">
        <ele>704.661</ele>
        <time>2018-07-24T09:19:58Z</time>
      </trkpt>
      <trkpt lat="41.200086" lon="-6.581769">
        <ele>704.784</ele>
        <time>2018-07-24T09:20:01Z</time>
      </trkpt>
      <trkpt lat="41.200105" lon="-6.581825">
        <ele>704.903</ele>
        <time>2018-07-24T09:20:03Z</time>
      </trkpt>
      <trkpt lat="41.200115" lon="-6.581852">
        <ele>705.024</ele>
        <time>2018-07-24T09:20:04Z</time>
      </trkpt>
      <trkpt lat="41.200133" lon="-6.581899">
        <ele>705.26</ele>
        <time>2018-07-24T09:20:06Z</time>
      </trkpt>
      <trkpt lat="41.200157" lon="-6.581956">
        <ele>705.377</ele>
        <time>2018-07-24T09:20:08Z</time>
      </trkpt>
      <trkpt lat="41.200167" lon="-6.581986">
        <ele>705.492</ele>
        <time>2018-07-24T09:20:09Z</time>
      </trkpt>
      <trkpt lat="41.200185" lon="-6.582044">
        <ele>705.608</ele>
        <time>2018-07-24T09:20:11Z</time>
      </trkpt>
      <trkpt lat="41.200195" lon="-6.582075">
        <ele>705.838</ele>
        <time>2018-07-24T09:20:12Z</time>
      </trkpt>
      <trkpt lat="41.200206" lon="-6.582104">
        <ele>706.175</ele>
        <time>2018-07-24T09:20:13Z</time>
      </trkpt>
      <trkpt lat="41.200218" lon="-6.582131">
        <ele>706.395</ele>
        <time>2018-07-24T09:20:14Z</time>
      </trkpt>
      <trkpt lat="41.200239" lon="-6.582179">
        <ele>706.613</ele>
        <time>2018-07-24T09:20:16Z</time>
      </trkpt>
      <trkpt lat="41.20025" lon="-6.582206">
        <ele>707.044</ele>
        <time>2018-07-24T09:20:17Z</time>
      </trkpt>
      <trkpt lat="41.200259" lon="-6.582235">
        <ele>707.044</ele>
        <time>2018-07-24T09:20:18Z</time>
      </trkpt>
      <trkpt lat="41.200268" lon="-6.582264">
        <ele>707.044</ele>
        <time>2018-07-24T09:20:19Z</time>
      </trkpt>
      <trkpt lat="41.200284" lon="-6.58232">
        <ele>707.979</ele>
        <time>2018-07-24T09:20:21Z</time>
      </trkpt>
      <trkpt lat="41.200312" lon="-6.582398">
        <ele>708.342</ele>
        <time>2018-07-24T09:20:24Z</time>
      </trkpt>
      <trkpt lat="41.200327" lon="-6.582446">
        <ele>708.689</ele>
        <time>2018-07-24T09:20:26Z</time>
      </trkpt>
      <trkpt lat="41.200341" lon="-6.582488">
        <ele>708.91</ele>
        <time>2018-07-24T09:20:28Z</time>
      </trkpt>
      <trkpt lat="41.20037" lon="-6.582542">
        <ele>709.02</ele>
        <time>2018-07-24T09:20:32Z</time>
      </trkpt>
      <trkpt lat="41.20037" lon="-6.582542">
        <ele>709.129</ele>
        <time>2018-07-24T09:20:40Z</time>
      </trkpt>
      <trkpt lat="41.20037" lon="-6.582542">
        <ele>709.235</ele>
        <time>2018-07-24T09:20:41Z</time>
      </trkpt>
      <trkpt lat="41.200388" lon="-6.582611">
        <ele>709.34</ele>
        <time>2018-07-24T09:20:46Z</time>
      </trkpt>
      <trkpt lat="41.200415" lon="-6.582676">
        <ele>709.549</ele>
        <time>2018-07-24T09:20:49Z</time>
      </trkpt>
      <trkpt lat="41.200454" lon="-6.582746">
        <ele>709.652</ele>
        <time>2018-07-24T09:20:52Z</time>
      </trkpt>
      <trkpt lat="41.200481" lon="-6.582795">
        <ele>709.756</ele>
        <time>2018-07-24T09:20:54Z</time>
      </trkpt>
      <trkpt lat="41.200495" lon="-6.58282">
        <ele>709.857</ele>
        <time>2018-07-24T09:20:55Z</time>
      </trkpt>
      <trkpt lat="41.200508" lon="-6.582847">
        <ele>709.96</ele>
        <time>2018-07-24T09:20:56Z</time>
      </trkpt>
      <trkpt lat="41.20052" lon="-6.582872">
        <ele>710.063</ele>
        <time>2018-07-24T09:20:57Z</time>
      </trkpt>
      <trkpt lat="41.200534" lon="-6.582902">
        <ele>710.166</ele>
        <time>2018-07-24T09:20:58Z</time>
      </trkpt>
      <trkpt lat="41.200568" lon="-6.582964">
        <ele>710.271</ele>
        <time>2018-07-24T09:21:00Z</time>
      </trkpt>
      <trkpt lat="41.200582" lon="-6.582991">
        <ele>710.378</ele>
        <time>2018-07-24T09:21:01Z</time>
      </trkpt>
      <trkpt lat="41.200596" lon="-6.583019">
        <ele>710.486</ele>
        <time>2018-07-24T09:21:02Z</time>
      </trkpt>
      <trkpt lat="41.200611" lon="-6.583048">
        <ele>710.595</ele>
        <time>2018-07-24T09:21:03Z</time>
      </trkpt>
      <trkpt lat="41.200627" lon="-6.583077">
        <ele>710.812</ele>
        <time>2018-07-24T09:21:04Z</time>
      </trkpt>
      <trkpt lat="41.200643" lon="-6.583104">
        <ele>710.919</ele>
        <time>2018-07-24T09:21:05Z</time>
      </trkpt>
      <trkpt lat="41.200659" lon="-6.583135">
        <ele>711.026</ele>
        <time>2018-07-24T09:21:06Z</time>
      </trkpt>
      <trkpt lat="41.200675" lon="-6.583165">
        <ele>711.133</ele>
        <time>2018-07-24T09:21:07Z</time>
      </trkpt>
      <trkpt lat="41.20069" lon="-6.5832">
        <ele>711.238</ele>
        <time>2018-07-24T09:21:08Z</time>
      </trkpt>
      <trkpt lat="41.200706" lon="-6.583239">
        <ele>711.343</ele>
        <time>2018-07-24T09:21:09Z</time>
      </trkpt>
      <trkpt lat="41.200721" lon="-6.583275">
        <ele>711.449</ele>
        <time>2018-07-24T09:21:10Z</time>
      </trkpt>
      <trkpt lat="41.200755" lon="-6.583344">
        <ele>711.553</ele>
        <time>2018-07-24T09:21:12Z</time>
      </trkpt>
      <trkpt lat="41.200771" lon="-6.583376">
        <ele>711.658</ele>
        <time>2018-07-24T09:21:13Z</time>
      </trkpt>
      <trkpt lat="41.200788" lon="-6.58341">
        <ele>711.764</ele>
        <time>2018-07-24T09:21:14Z</time>
      </trkpt>
      <trkpt lat="41.200804" lon="-6.583445">
        <ele>711.869</ele>
        <time>2018-07-24T09:21:15Z</time>
      </trkpt>
      <trkpt lat="41.200819" lon="-6.583478">
        <ele>711.974</ele>
        <time>2018-07-24T09:21:16Z</time>
      </trkpt>
      <trkpt lat="41.200833" lon="-6.583512">
        <ele>712.08</ele>
        <time>2018-07-24T09:21:17Z</time>
      </trkpt>
      <trkpt lat="41.200847" lon="-6.583548">
        <ele>712.187</ele>
        <time>2018-07-24T09:21:18Z</time>
      </trkpt>
      <trkpt lat="41.200863" lon="-6.583582">
        <ele>712.296</ele>
        <time>2018-07-24T09:21:19Z</time>
      </trkpt>
      <trkpt lat="41.200878" lon="-6.583614">
        <ele>712.407</ele>
        <time>2018-07-24T09:21:20Z</time>
      </trkpt>
      <trkpt lat="41.200892" lon="-6.583644">
        <ele>712.518</ele>
        <time>2018-07-24T09:21:21Z</time>
      </trkpt>
      <trkpt lat="41.200908" lon="-6.583675">
        <ele>712.628</ele>
        <time>2018-07-24T09:21:22Z</time>
      </trkpt>
      <trkpt lat="41.200924" lon="-6.583706">
        <ele>712.848</ele>
        <time>2018-07-24T09:21:23Z</time>
      </trkpt>
      <trkpt lat="41.200939" lon="-6.583742">
        <ele>712.956</ele>
        <time>2018-07-24T09:21:24Z</time>
      </trkpt>
      <trkpt lat="41.200955" lon="-6.58378">
        <ele>713.065</ele>
        <time>2018-07-24T09:21:25Z</time>
      </trkpt>
      <trkpt lat="41.20097" lon="-6.583813">
        <ele>713.174</ele>
        <time>2018-07-24T09:21:26Z</time>
      </trkpt>
      <trkpt lat="41.200986" lon="-6.583848">
        <ele>713.281</ele>
        <time>2018-07-24T09:21:27Z</time>
      </trkpt>
      <trkpt lat="41.200999" lon="-6.583879">
        <ele>713.389</ele>
        <time>2018-07-24T09:21:28Z</time>
      </trkpt>
      <trkpt lat="41.201012" lon="-6.583909">
        <ele>713.497</ele>
        <time>2018-07-24T09:21:29Z</time>
      </trkpt>
      <trkpt lat="41.201036" lon="-6.583964">
        <ele>713.603</ele>
        <time>2018-07-24T09:21:31Z</time>
      </trkpt>
      <trkpt lat="41.201049" lon="-6.583992">
        <ele>713.81</ele>
        <time>2018-07-24T09:21:32Z</time>
      </trkpt>
      <trkpt lat="41.201063" lon="-6.584023">
        <ele>713.911</ele>
        <time>2018-07-24T09:21:33Z</time>
      </trkpt>
      <trkpt lat="41.201078" lon="-6.584051">
        <ele>714.105</ele>
        <time>2018-07-24T09:21:34Z</time>
      </trkpt>
      <trkpt lat="41.201093" lon="-6.58408">
        <ele>714.2</ele>
        <time>2018-07-24T09:21:35Z</time>
      </trkpt>
      <trkpt lat="41.201109" lon="-6.584107">
        <ele>714.293</ele>
        <time>2018-07-24T09:21:36Z</time>
      </trkpt>
      <trkpt lat="41.201123" lon="-6.584134">
        <ele>714.386</ele>
        <time>2018-07-24T09:21:37Z</time>
      </trkpt>
      <trkpt lat="41.201138" lon="-6.584161">
        <ele>714.475</ele>
        <time>2018-07-24T09:21:38Z</time>
      </trkpt>
      <trkpt lat="41.201164" lon="-6.584216">
        <ele>714.564</ele>
        <time>2018-07-24T09:21:40Z</time>
      </trkpt>
      <trkpt lat="41.201178" lon="-6.584242">
        <ele>714.651</ele>
        <time>2018-07-24T09:21:41Z</time>
      </trkpt>
      <trkpt lat="41.2012" lon="-6.584285">
        <ele>714.738</ele>
        <time>2018-07-24T09:21:43Z</time>
      </trkpt>
      <trkpt lat="41.201215" lon="-6.58431">
        <ele>714.824</ele>
        <time>2018-07-24T09:21:44Z</time>
      </trkpt>
      <trkpt lat="41.201229" lon="-6.584335">
        <ele>714.91</ele>
        <time>2018-07-24T09:21:45Z</time>
      </trkpt>
      <trkpt lat="41.201244" lon="-6.584365">
        <ele>715.082</ele>
        <time>2018-07-24T09:21:46Z</time>
      </trkpt>
      <trkpt lat="41.201259" lon="-6.584392">
        <ele>715.168</ele>
        <time>2018-07-24T09:21:47Z</time>
      </trkpt>
      <trkpt lat="41.201276" lon="-6.58442">
        <ele>715.254</ele>
        <time>2018-07-24T09:21:48Z</time>
      </trkpt>
      <trkpt lat="41.20129" lon="-6.58445">
        <ele>715.339</ele>
        <time>2018-07-24T09:21:49Z</time>
      </trkpt>
      <trkpt lat="41.201305" lon="-6.58448">
        <ele>715.592</ele>
        <time>2018-07-24T09:21:50Z</time>
      </trkpt>
      <trkpt lat="41.20132" lon="-6.584506">
        <ele>715.833</ele>
        <time>2018-07-24T09:21:51Z</time>
      </trkpt>
      <trkpt lat="41.201335" lon="-6.58453">
        <ele>716.064</ele>
        <time>2018-07-24T09:21:52Z</time>
      </trkpt>
      <trkpt lat="41.201364" lon="-6.584577">
        <ele>716.215</ele>
        <time>2018-07-24T09:21:54Z</time>
      </trkpt>
      <trkpt lat="41.20138" lon="-6.584602">
        <ele>716.365</ele>
        <time>2018-07-24T09:21:55Z</time>
      </trkpt>
      <trkpt lat="41.201397" lon="-6.584629">
        <ele>716.44</ele>
        <time>2018-07-24T09:21:56Z</time>
      </trkpt>
      <trkpt lat="41.201412" lon="-6.584651">
        <ele>716.513</ele>
        <time>2018-07-24T09:21:57Z</time>
      </trkpt>
      <trkpt lat="41.201448" lon="-6.584716">
        <ele>716.586</ele>
        <time>2018-07-24T09:22:00Z</time>
      </trkpt>
      <trkpt lat="41.201486" lon="-6.584782">
        <ele>716.657</ele>
        <time>2018-07-24T09:22:03Z</time>
      </trkpt>
      <trkpt lat="41.201527" lon="-6.584844">
        <ele>716.8</ele>
        <time>2018-07-24T09:22:06Z</time>
      </trkpt>
      <trkpt lat="41.201557" lon="-6.584886">
        <ele>716.945</ele>
        <time>2018-07-24T09:22:08Z</time>
      </trkpt>
      <trkpt lat="41.201586" lon="-6.584924">
        <ele>717.084</ele>
        <time>2018-07-24T09:22:10Z</time>
      </trkpt>
      <trkpt lat="41.201602" lon="-6.584945">
        <ele>717.152</ele>
        <time>2018-07-24T09:22:11Z</time>
      </trkpt>
      <trkpt lat="41.201619" lon="-6.584965">
        <ele>717.289</ele>
        <time>2018-07-24T09:22:12Z</time>
      </trkpt>
      <trkpt lat="41.201636" lon="-6.584986">
        <ele>717.357</ele>
        <time>2018-07-24T09:22:13Z</time>
      </trkpt>
      <trkpt lat="41.201652" lon="-6.585009">
        <ele>717.491</ele>
        <time>2018-07-24T09:22:14Z</time>
      </trkpt>
      <trkpt lat="41.201687" lon="-6.585051">
        <ele>717.688</ele>
        <time>2018-07-24T09:22:16Z</time>
      </trkpt>
      <trkpt lat="41.201716" lon="-6.58509">
        <ele>717.817</ele>
        <time>2018-07-24T09:22:18Z</time>
      </trkpt>
      <trkpt lat="41.201747" lon="-6.58513">
        <ele>717.944</ele>
        <time>2018-07-24T09:22:20Z</time>
      </trkpt>
      <trkpt lat="41.201764" lon="-6.585151">
        <ele>718.072</ele>
        <time>2018-07-24T09:22:21Z</time>
      </trkpt>
      <trkpt lat="41.2018" lon="-6.585191">
        <ele>718.2</ele>
        <time>2018-07-24T09:22:23Z</time>
      </trkpt>
      <trkpt lat="41.201819" lon="-6.585217">
        <ele>718.388</ele>
        <time>2018-07-24T09:22:24Z</time>
      </trkpt>
      <trkpt lat="41.20185" lon="-6.585258">
        <ele>718.574</ele>
        <time>2018-07-24T09:22:26Z</time>
      </trkpt>
      <trkpt lat="41.201895" lon="-6.585312">
        <ele>718.702</ele>
        <time>2018-07-24T09:22:29Z</time>
      </trkpt>
      <trkpt lat="41.201922" lon="-6.585346">
        <ele>718.831</ele>
        <time>2018-07-24T09:22:31Z</time>
      </trkpt>
      <trkpt lat="41.201948" lon="-6.58538">
        <ele>718.963</ele>
        <time>2018-07-24T09:22:33Z</time>
      </trkpt>
      <trkpt lat="41.201975" lon="-6.585414">
        <ele>719.099</ele>
        <time>2018-07-24T09:22:35Z</time>
      </trkpt>
      <trkpt lat="41.202003" lon="-6.58545">
        <ele>719.168</ele>
        <time>2018-07-24T09:22:37Z</time>
      </trkpt>
      <trkpt lat="41.202054" lon="-6.585499">
        <ele>719.241</ele>
        <time>2018-07-24T09:22:40Z</time>
      </trkpt>
      <trkpt lat="41.202096" lon="-6.585561">
        <ele>719.389</ele>
        <time>2018-07-24T09:22:43Z</time>
      </trkpt>
      <trkpt lat="41.202124" lon="-6.585602">
        <ele>719.465</ele>
        <time>2018-07-24T09:22:45Z</time>
      </trkpt>
      <trkpt lat="41.202151" lon="-6.585649">
        <ele>719.54</ele>
        <time>2018-07-24T09:22:47Z</time>
      </trkpt>
      <trkpt lat="41.202174" lon="-6.585695">
        <ele>719.614</ele>
        <time>2018-07-24T09:22:49Z</time>
      </trkpt>
      <trkpt lat="41.202197" lon="-6.585748">
        <ele>719.76</ele>
        <time>2018-07-24T09:22:51Z</time>
      </trkpt>
      <trkpt lat="41.20221" lon="-6.585776">
        <ele>719.977</ele>
        <time>2018-07-24T09:22:52Z</time>
      </trkpt>
      <trkpt lat="41.202225" lon="-6.585805">
        <ele>720.049</ele>
        <time>2018-07-24T09:22:53Z</time>
      </trkpt>
      <trkpt lat="41.202256" lon="-6.585858">
        <ele>720.122</ele>
        <time>2018-07-24T09:22:55Z</time>
      </trkpt>
      <trkpt lat="41.202271" lon="-6.585884">
        <ele>720.194</ele>
        <time>2018-07-24T09:22:56Z</time>
      </trkpt>
      <trkpt lat="41.202284" lon="-6.585913">
        <ele>720.266</ele>
        <time>2018-07-24T09:22:57Z</time>
      </trkpt>
      <trkpt lat="41.202296" lon="-6.585943">
        <ele>720.339</ele>
        <time>2018-07-24T09:22:58Z</time>
      </trkpt>
      <trkpt lat="41.202326" lon="-6.586001">
        <ele>720.552</ele>
        <time>2018-07-24T09:23:00Z</time>
      </trkpt>
      <trkpt lat="41.202364" lon="-6.586079">
        <ele>720.694</ele>
        <time>2018-07-24T09:23:03Z</time>
      </trkpt>
      <trkpt lat="41.202377" lon="-6.586108">
        <ele>720.766</ele>
        <time>2018-07-24T09:23:04Z</time>
      </trkpt>
      <trkpt lat="41.202387" lon="-6.586134">
        <ele>720.911</ele>
        <time>2018-07-24T09:23:05Z</time>
      </trkpt>
      <trkpt lat="41.202401" lon="-6.586164">
        <ele>720.983</ele>
        <time>2018-07-24T09:23:06Z</time>
      </trkpt>
      <trkpt lat="41.202415" lon="-6.586191">
        <ele>721.053</ele>
        <time>2018-07-24T09:23:07Z</time>
      </trkpt>
      <trkpt lat="41.202428" lon="-6.586219">
        <ele>721.122</ele>
        <time>2018-07-24T09:23:08Z</time>
      </trkpt>
      <trkpt lat="41.202468" lon="-6.586306">
        <ele>721.191</ele>
        <time>2018-07-24T09:23:11Z</time>
      </trkpt>
      <trkpt lat="41.20249" lon="-6.58637">
        <ele>721.259</ele>
        <time>2018-07-24T09:23:13Z</time>
      </trkpt>
      <trkpt lat="41.202502" lon="-6.586406">
        <ele>721.394</ele>
        <time>2018-07-24T09:23:14Z</time>
      </trkpt>
      <trkpt lat="41.202525" lon="-6.586458">
        <ele>721.46</ele>
        <time>2018-07-24T09:23:16Z</time>
      </trkpt>
      <trkpt lat="41.202542" lon="-6.586494">
        <ele>721.526</ele>
        <time>2018-07-24T09:23:17Z</time>
      </trkpt>
      <trkpt lat="41.202559" lon="-6.586524">
        <ele>721.59</ele>
        <time>2018-07-24T09:23:18Z</time>
      </trkpt>
      <trkpt lat="41.202573" lon="-6.586553">
        <ele>721.656</ele>
        <time>2018-07-24T09:23:19Z</time>
      </trkpt>
      <trkpt lat="41.202588" lon="-6.586578">
        <ele>721.721</ele>
        <time>2018-07-24T09:23:20Z</time>
      </trkpt>
      <trkpt lat="41.202602" lon="-6.586608">
        <ele>721.786</ele>
        <time>2018-07-24T09:23:21Z</time>
      </trkpt>
      <trkpt lat="41.202636" lon="-6.586686">
        <ele>721.851</ele>
        <time>2018-07-24T09:23:23Z</time>
      </trkpt>
      <trkpt lat="41.202651" lon="-6.58672">
        <ele>721.915</ele>
        <time>2018-07-24T09:23:24Z</time>
      </trkpt>
      <trkpt lat="41.202665" lon="-6.586755">
        <ele>721.978</ele>
        <time>2018-07-24T09:23:25Z</time>
      </trkpt>
      <trkpt lat="41.202682" lon="-6.58679">
        <ele>722.041</ele>
        <time>2018-07-24T09:23:26Z</time>
      </trkpt>
      <trkpt lat="41.202698" lon="-6.586826">
        <ele>722.104</ele>
        <time>2018-07-24T09:23:27Z</time>
      </trkpt>
      <trkpt lat="41.202714" lon="-6.586865">
        <ele>722.167</ele>
        <time>2018-07-24T09:23:28Z</time>
      </trkpt>
      <trkpt lat="41.20273" lon="-6.586903">
        <ele>722.228</ele>
        <time>2018-07-24T09:23:29Z</time>
      </trkpt>
      <trkpt lat="41.202745" lon="-6.586937">
        <ele>722.29</ele>
        <time>2018-07-24T09:23:30Z</time>
      </trkpt>
      <trkpt lat="41.202759" lon="-6.586973">
        <ele>722.352</ele>
        <time>2018-07-24T09:23:31Z</time>
      </trkpt>
      <trkpt lat="41.202775" lon="-6.587008">
        <ele>722.414</ele>
        <time>2018-07-24T09:23:32Z</time>
      </trkpt>
      <trkpt lat="41.202791" lon="-6.587045">
        <ele>722.475</ele>
        <time>2018-07-24T09:23:33Z</time>
      </trkpt>
      <trkpt lat="41.202809" lon="-6.587084">
        <ele>722.536</ele>
        <time>2018-07-24T09:23:34Z</time>
      </trkpt>
      <trkpt lat="41.202829" lon="-6.58713">
        <ele>722.596</ele>
        <time>2018-07-24T09:23:35Z</time>
      </trkpt>
      <trkpt lat="41.202848" lon="-6.587171">
        <ele>722.655</ele>
        <time>2018-07-24T09:23:36Z</time>
      </trkpt>
      <trkpt lat="41.202865" lon="-6.587207">
        <ele>722.714</ele>
        <time>2018-07-24T09:23:37Z</time>
      </trkpt>
      <trkpt lat="41.202881" lon="-6.587243">
        <ele>722.772</ele>
        <time>2018-07-24T09:23:38Z</time>
      </trkpt>
      <trkpt lat="41.2029" lon="-6.587282">
        <ele>722.833</ele>
        <time>2018-07-24T09:23:39Z</time>
      </trkpt>
      <trkpt lat="41.20292" lon="-6.587326">
        <ele>722.898</ele>
        <time>2018-07-24T09:23:40Z</time>
      </trkpt>
      <trkpt lat="41.202942" lon="-6.587367">
        <ele>722.966</ele>
        <time>2018-07-24T09:23:41Z</time>
      </trkpt>
      <trkpt lat="41.202959" lon="-6.587403">
        <ele>723.165</ele>
        <time>2018-07-24T09:23:42Z</time>
      </trkpt>
      <trkpt lat="41.202976" lon="-6.587438">
        <ele>723.233</ele>
        <time>2018-07-24T09:23:43Z</time>
      </trkpt>
      <trkpt lat="41.202992" lon="-6.587468">
        <ele>723.301</ele>
        <time>2018-07-24T09:23:44Z</time>
      </trkpt>
      <trkpt lat="41.203012" lon="-6.587507">
        <ele>723.373</ele>
        <time>2018-07-24T09:23:45Z</time>
      </trkpt>
      <trkpt lat="41.20303" lon="-6.587549">
        <ele>723.525</ele>
        <time>2018-07-24T09:23:46Z</time>
      </trkpt>
      <trkpt lat="41.203051" lon="-6.587592">
        <ele>723.601</ele>
        <time>2018-07-24T09:23:47Z</time>
      </trkpt>
      <trkpt lat="41.203068" lon="-6.587635">
        <ele>723.682</ele>
        <time>2018-07-24T09:23:48Z</time>
      </trkpt>
      <trkpt lat="41.203121" lon="-6.587753">
        <ele>723.762</ele>
        <time>2018-07-24T09:23:51Z</time>
      </trkpt>
      <trkpt lat="41.203139" lon="-6.587789">
        <ele>723.838</ele>
        <time>2018-07-24T09:23:52Z</time>
      </trkpt>
      <trkpt lat="41.203162" lon="-6.587829">
        <ele>723.914</ele>
        <time>2018-07-24T09:23:53Z</time>
      </trkpt>
      <trkpt lat="41.203182" lon="-6.587862">
        <ele>724.075</ele>
        <time>2018-07-24T09:23:54Z</time>
      </trkpt>
      <trkpt lat="41.203211" lon="-6.587932">
        <ele>724.156</ele>
        <time>2018-07-24T09:23:56Z</time>
      </trkpt>
      <trkpt lat="41.203228" lon="-6.587971">
        <ele>724.326</ele>
        <time>2018-07-24T09:23:57Z</time>
      </trkpt>
      <trkpt lat="41.203243" lon="-6.588008">
        <ele>724.415</ele>
        <time>2018-07-24T09:23:58Z</time>
      </trkpt>
      <trkpt lat="41.203257" lon="-6.588041">
        <ele>724.687</ele>
        <time>2018-07-24T09:23:59Z</time>
      </trkpt>
      <trkpt lat="41.203269" lon="-6.588072">
        <ele>724.78</ele>
        <time>2018-07-24T09:24:00Z</time>
      </trkpt>
      <trkpt lat="41.203282" lon="-6.588113">
        <ele>724.875</ele>
        <time>2018-07-24T09:24:01Z</time>
      </trkpt>
      <trkpt lat="41.20331" lon="-6.588168">
        <ele>724.976</ele>
        <time>2018-07-24T09:24:03Z</time>
      </trkpt>
      <trkpt lat="41.203324" lon="-6.588198">
        <ele>725.082</ele>
        <time>2018-07-24T09:24:04Z</time>
      </trkpt>
      <trkpt lat="41.203351" lon="-6.588271">
        <ele>725.196</ele>
        <time>2018-07-24T09:24:06Z</time>
      </trkpt>
      <trkpt lat="41.203364" lon="-6.588301">
        <ele>725.44</ele>
        <time>2018-07-24T09:24:07Z</time>
      </trkpt>
      <trkpt lat="41.203394" lon="-6.588384">
        <ele>725.562</ele>
        <time>2018-07-24T09:24:10Z</time>
      </trkpt>
      <trkpt lat="41.203408" lon="-6.588418">
        <ele>725.687</ele>
        <time>2018-07-24T09:24:11Z</time>
      </trkpt>
      <trkpt lat="41.20342" lon="-6.588444">
        <ele>726.082</ele>
        <time>2018-07-24T09:24:12Z</time>
      </trkpt>
      <trkpt lat="41.203436" lon="-6.588478">
        <ele>726.352</ele>
        <time>2018-07-24T09:24:13Z</time>
      </trkpt>
      <trkpt lat="41.20345" lon="-6.58851">
        <ele>726.773</ele>
        <time>2018-07-24T09:24:14Z</time>
      </trkpt>
      <trkpt lat="41.203463" lon="-6.588542">
        <ele>727.714</ele>
        <time>2018-07-24T09:24:15Z</time>
      </trkpt>
      <trkpt lat="41.203486" lon="-6.588601">
        <ele>730.535</ele>
        <time>2018-07-24T09:24:17Z</time>
      </trkpt>
      <trkpt lat="41.2035" lon="-6.588633">
        <ele>730.816</ele>
        <time>2018-07-24T09:24:18Z</time>
      </trkpt>
      <trkpt lat="41.203513" lon="-6.588659">
        <ele>731.131</ele>
        <time>2018-07-24T09:24:19Z</time>
      </trkpt>
      <trkpt lat="41.203544" lon="-6.588747">
        <ele>731.61</ele>
        <time>2018-07-24T09:24:22Z</time>
      </trkpt>
      <trkpt lat="41.203558" lon="-6.588804">
        <ele>732.148</ele>
        <time>2018-07-24T09:24:24Z</time>
      </trkpt>
      <trkpt lat="41.203578" lon="-6.588859">
        <ele>732.726</ele>
        <time>2018-07-24T09:24:27Z</time>
      </trkpt>
      <trkpt lat="41.203608" lon="-6.588874">
        <ele>733.312</ele>
        <time>2018-07-24T09:24:34Z</time>
      </trkpt>
      <trkpt lat="41.203696" lon="-6.588942">
        <ele>733.706</ele>
        <time>2018-07-24T09:25:08Z</time>
      </trkpt>
      <trkpt lat="41.203717" lon="-6.589">
        <ele>734.3</ele>
        <time>2018-07-24T09:25:10Z</time>
      </trkpt>
      <trkpt lat="41.203715" lon="-6.589061">
        <ele>734.685</ele>
        <time>2018-07-24T09:25:12Z</time>
      </trkpt>
      <trkpt lat="41.203699" lon="-6.589134">
        <ele>735.251</ele>
        <time>2018-07-24T09:25:15Z</time>
      </trkpt>
      <trkpt lat="41.203693" lon="-6.589214">
        <ele>735.782</ele>
        <time>2018-07-24T09:25:18Z</time>
      </trkpt>
      <trkpt lat="41.203713" lon="-6.589295">
        <ele>736.136</ele>
        <time>2018-07-24T09:25:21Z</time>
      </trkpt>
      <trkpt lat="41.203758" lon="-6.589341">
        <ele>736.494</ele>
        <time>2018-07-24T09:25:24Z</time>
      </trkpt>
      <trkpt lat="41.203812" lon="-6.589357">
        <ele>736.854</ele>
        <time>2018-07-24T09:25:26Z</time>
      </trkpt>
      <trkpt lat="41.203897" lon="-6.589375">
        <ele>737.212</ele>
        <time>2018-07-24T09:25:29Z</time>
      </trkpt>
      <trkpt lat="41.203948" lon="-6.589375">
        <ele>737.558</ele>
        <time>2018-07-24T09:25:31Z</time>
      </trkpt>
      <trkpt lat="41.204004" lon="-6.589421">
        <ele>737.895</ele>
        <time>2018-07-24T09:25:34Z</time>
      </trkpt>
      <trkpt lat="41.204086" lon="-6.589465">
        <ele>738.223</ele>
        <time>2018-07-24T09:25:37Z</time>
      </trkpt>
      <trkpt lat="41.204134" lon="-6.589517">
        <ele>738.381</ele>
        <time>2018-07-24T09:25:39Z</time>
      </trkpt>
      <trkpt lat="41.204179" lon="-6.589566">
        <ele>738.538</ele>
        <time>2018-07-24T09:25:41Z</time>
      </trkpt>
      <trkpt lat="41.204217" lon="-6.589618">
        <ele>738.691</ele>
        <time>2018-07-24T09:25:43Z</time>
      </trkpt>
      <trkpt lat="41.204258" lon="-6.589663">
        <ele>740.253</ele>
        <time>2018-07-24T09:25:45Z</time>
      </trkpt>
      <trkpt lat="41.204317" lon="-6.589697">
        <ele>741.402</ele>
        <time>2018-07-24T09:25:47Z</time>
      </trkpt>
      <trkpt lat="41.20436" lon="-6.589731">
        <ele>742.326</ele>
        <time>2018-07-24T09:25:49Z</time>
      </trkpt>
      <trkpt lat="41.204398" lon="-6.589782">
        <ele>743.06</ele>
        <time>2018-07-24T09:25:51Z</time>
      </trkpt>
      <trkpt lat="41.204418" lon="-6.589812">
        <ele>743.631</ele>
        <time>2018-07-24T09:25:52Z</time>
      </trkpt>
      <trkpt lat="41.204439" lon="-6.589842">
        <ele>744.074</ele>
        <time>2018-07-24T09:25:53Z</time>
      </trkpt>
      <trkpt lat="41.204463" lon="-6.589873">
        <ele>744.677</ele>
        <time>2018-07-24T09:25:54Z</time>
      </trkpt>
      <trkpt lat="41.204506" lon="-6.589959">
        <ele>744.863</ele>
        <time>2018-07-24T09:25:56Z</time>
      </trkpt>
      <trkpt lat="41.204532" lon="-6.590006">
        <ele>744.995</ele>
        <time>2018-07-24T09:25:57Z</time>
      </trkpt>
      <trkpt lat="41.20456" lon="-6.590052">
        <ele>745.111</ele>
        <time>2018-07-24T09:25:58Z</time>
      </trkpt>
      <trkpt lat="41.204583" lon="-6.590107">
        <ele>745.215</ele>
        <time>2018-07-24T09:25:59Z</time>
      </trkpt>
      <trkpt lat="41.204606" lon="-6.590164">
        <ele>745.282</ele>
        <time>2018-07-24T09:26:00Z</time>
      </trkpt>
      <trkpt lat="41.20463" lon="-6.590228">
        <ele>745.334</ele>
        <time>2018-07-24T09:26:01Z</time>
      </trkpt>
      <trkpt lat="41.204684" lon="-6.590345">
        <ele>745.347</ele>
        <time>2018-07-24T09:26:03Z</time>
      </trkpt>
      <trkpt lat="41.204712" lon="-6.590406">
        <ele>745.362</ele>
        <time>2018-07-24T09:26:04Z</time>
      </trkpt>
      <trkpt lat="41.204737" lon="-6.590469">
        <ele>745.393</ele>
        <time>2018-07-24T09:26:05Z</time>
      </trkpt>
      <trkpt lat="41.204763" lon="-6.590536">
        <ele>745.405</ele>
        <time>2018-07-24T09:26:06Z</time>
      </trkpt>
      <trkpt lat="41.204787" lon="-6.590602">
        <ele>745.385</ele>
        <time>2018-07-24T09:26:07Z</time>
      </trkpt>
      <trkpt lat="41.204812" lon="-6.590679">
        <ele>745.331</ele>
        <time>2018-07-24T09:26:08Z</time>
      </trkpt>
      <trkpt lat="41.204834" lon="-6.59075">
        <ele>745.252</ele>
        <time>2018-07-24T09:26:09Z</time>
      </trkpt>
      <trkpt lat="41.204854" lon="-6.590829">
        <ele>745.163</ele>
        <time>2018-07-24T09:26:10Z</time>
      </trkpt>
      <trkpt lat="41.20488" lon="-6.590905">
        <ele>744.88</ele>
        <time>2018-07-24T09:26:11Z</time>
      </trkpt>
      <trkpt lat="41.204906" lon="-6.590988">
        <ele>744.744</ele>
        <time>2018-07-24T09:26:12Z</time>
      </trkpt>
      <trkpt lat="41.204935" lon="-6.591071">
        <ele>744.603</ele>
        <time>2018-07-24T09:26:13Z</time>
      </trkpt>
      <trkpt lat="41.204964" lon="-6.591154">
        <ele>744.44</ele>
        <time>2018-07-24T09:26:14Z</time>
      </trkpt>
      <trkpt lat="41.204991" lon="-6.591234">
        <ele>744.35</ele>
        <time>2018-07-24T09:26:15Z</time>
      </trkpt>
      <trkpt lat="41.205017" lon="-6.591311">
        <ele>744.275</ele>
        <time>2018-07-24T09:26:16Z</time>
      </trkpt>
      <trkpt lat="41.205041" lon="-6.591385">
        <ele>744.184</ele>
        <time>2018-07-24T09:26:17Z</time>
      </trkpt>
      <trkpt lat="41.205087" lon="-6.591515">
        <ele>744.064</ele>
        <time>2018-07-24T09:26:19Z</time>
      </trkpt>
      <trkpt lat="41.205108" lon="-6.591572">
        <ele>743.859</ele>
        <time>2018-07-24T09:26:20Z</time>
      </trkpt>
      <trkpt lat="41.205131" lon="-6.591624">
        <ele>743.651</ele>
        <time>2018-07-24T09:26:21Z</time>
      </trkpt>
      <trkpt lat="41.205151" lon="-6.591672">
        <ele>743.529</ele>
        <time>2018-07-24T09:26:22Z</time>
      </trkpt>
      <trkpt lat="41.205222" lon="-6.591762">
        <ele>743.432</ele>
        <time>2018-07-24T09:26:25Z</time>
      </trkpt>
      <trkpt lat="41.205268" lon="-6.591782">
        <ele>743.309</ele>
        <time>2018-07-24T09:26:27Z</time>
      </trkpt>
      <trkpt lat="41.205317" lon="-6.591796">
        <ele>743.237</ele>
        <time>2018-07-24T09:26:29Z</time>
      </trkpt>
      <trkpt lat="41.20536" lon="-6.591806">
        <ele>743.145</ele>
        <time>2018-07-24T09:26:31Z</time>
      </trkpt>
      <trkpt lat="41.20542" lon="-6.591825">
        <ele>743.088</ele>
        <time>2018-07-24T09:26:34Z</time>
      </trkpt>
      <trkpt lat="41.205472" lon="-6.591833">
        <ele>743.031</ele>
        <time>2018-07-24T09:26:37Z</time>
      </trkpt>
      <trkpt lat="41.205508" lon="-6.591837">
        <ele>742.95</ele>
        <time>2018-07-24T09:26:39Z</time>
      </trkpt>
      <trkpt lat="41.205543" lon="-6.591839">
        <ele>742.868</ele>
        <time>2018-07-24T09:26:41Z</time>
      </trkpt>
      <trkpt lat="41.205603" lon="-6.59186">
        <ele>742.868</ele>
        <time>2018-07-24T09:26:44Z</time>
      </trkpt>
      <trkpt lat="41.205636" lon="-6.591874">
        <ele>742.868</ele>
        <time>2018-07-24T09:26:46Z</time>
      </trkpt>
      <trkpt lat="41.205687" lon="-6.591885">
        <ele>743.4</ele>
        <time>2018-07-24T09:26:49Z</time>
      </trkpt>
      <trkpt lat="41.205731" lon="-6.591893">
        <ele>743.698</ele>
        <time>2018-07-24T09:26:51Z</time>
      </trkpt>
      <trkpt lat="41.205774" lon="-6.591895">
        <ele>744.09</ele>
        <time>2018-07-24T09:26:53Z</time>
      </trkpt>
      <trkpt lat="41.205801" lon="-6.591959">
        <ele>744.157</ele>
        <time>2018-07-24T09:26:56Z</time>
      </trkpt>
      <trkpt lat="41.205816" lon="-6.592027">
        <ele>744.199</ele>
        <time>2018-07-24T09:27:00Z</time>
      </trkpt>
      <trkpt lat="41.205816" lon="-6.592027">
        <ele>744.259</ele>
        <time>2018-07-24T09:27:07Z</time>
      </trkpt>
      <trkpt lat="41.205816" lon="-6.592027">
        <ele>744.297</ele>
        <time>2018-07-24T09:27:08Z</time>
      </trkpt>
      <trkpt lat="41.205816" lon="-6.592027">
        <ele>744.332</ele>
        <time>2018-07-24T09:27:22Z</time>
      </trkpt>
      <trkpt lat="41.205816" lon="-6.592027">
        <ele>744.349</ele>
        <time>2018-07-24T09:29:36Z</time>
      </trkpt>
      <trkpt lat="41.205871" lon="-6.592045">
        <ele>744.396</ele>
        <time>2018-07-24T09:29:37Z</time>
      </trkpt>
      <trkpt lat="41.205884" lon="-6.59197">
        <ele>744.439</ele>
        <time>2018-07-24T09:29:49Z</time>
      </trkpt>
      <trkpt lat="41.205897" lon="-6.591857">
        <ele>744.468</ele>
        <time>2018-07-24T09:30:06Z</time>
      </trkpt>
      <trkpt lat="41.205952" lon="-6.591867">
        <ele>744.482</ele>
        <time>2018-07-24T09:30:09Z</time>
      </trkpt>
      <trkpt lat="41.205995" lon="-6.591874">
        <ele>744.495</ele>
        <time>2018-07-24T09:30:11Z</time>
      </trkpt>
      <trkpt lat="41.206052" lon="-6.591885">
        <ele>744.521</ele>
        <time>2018-07-24T09:30:14Z</time>
      </trkpt>
      <trkpt lat="41.206091" lon="-6.591889">
        <ele>744.534</ele>
        <time>2018-07-24T09:30:16Z</time>
      </trkpt>
      <trkpt lat="41.206135" lon="-6.591891">
        <ele>744.546</ele>
        <time>2018-07-24T09:30:18Z</time>
      </trkpt>
      <trkpt lat="41.206159" lon="-6.591891">
        <ele>744.568</ele>
        <time>2018-07-24T09:30:19Z</time>
      </trkpt>
      <trkpt lat="41.206236" lon="-6.591889">
        <ele>744.579</ele>
        <time>2018-07-24T09:30:22Z</time>
      </trkpt>
      <trkpt lat="41.20631" lon="-6.591893">
        <ele>744.589</ele>
        <time>2018-07-24T09:30:25Z</time>
      </trkpt>
      <trkpt lat="41.206375" lon="-6.591889">
        <ele>744.599</ele>
        <time>2018-07-24T09:30:27Z</time>
      </trkpt>
      <trkpt lat="41.206406" lon="-6.591888">
        <ele>744.609</ele>
        <time>2018-07-24T09:30:28Z</time>
      </trkpt>
      <trkpt lat="41.206439" lon="-6.591883">
        <ele>744.639</ele>
        <time>2018-07-24T09:30:29Z</time>
      </trkpt>
      <trkpt lat="41.206492" lon="-6.591883">
        <ele>744.667</ele>
        <time>2018-07-24T09:30:31Z</time>
      </trkpt>
      <trkpt lat="41.206516" lon="-6.591883">
        <ele>744.676</ele>
        <time>2018-07-24T09:30:32Z</time>
      </trkpt>
      <trkpt lat="41.206543" lon="-6.591886">
        <ele>744.694</ele>
        <time>2018-07-24T09:30:33Z</time>
      </trkpt>
      <trkpt lat="41.206608" lon="-6.591883">
        <ele>744.703</ele>
        <time>2018-07-24T09:30:35Z</time>
      </trkpt>
      <trkpt lat="41.206635" lon="-6.591882">
        <ele>744.72</ele>
        <time>2018-07-24T09:30:36Z</time>
      </trkpt>
      <trkpt lat="41.206665" lon="-6.591882">
        <ele>744.736</ele>
        <time>2018-07-24T09:30:37Z</time>
      </trkpt>
      <trkpt lat="41.206691" lon="-6.591884">
        <ele>744.744</ele>
        <time>2018-07-24T09:30:38Z</time>
      </trkpt>
      <trkpt lat="41.206722" lon="-6.591887">
        <ele>744.758</ele>
        <time>2018-07-24T09:30:39Z</time>
      </trkpt>
      <trkpt lat="41.206795" lon="-6.591901">
        <ele>744.78</ele>
        <time>2018-07-24T09:30:42Z</time>
      </trkpt>
      <trkpt lat="41.206868" lon="-6.591905">
        <ele>744.794</ele>
        <time>2018-07-24T09:30:45Z</time>
      </trkpt>
      <trkpt lat="41.206895" lon="-6.591907">
        <ele>744.802</ele>
        <time>2018-07-24T09:30:46Z</time>
      </trkpt>
      <trkpt lat="41.206942" lon="-6.591913">
        <ele>744.809</ele>
        <time>2018-07-24T09:30:48Z</time>
      </trkpt>
      <trkpt lat="41.206967" lon="-6.591915">
        <ele>744.817</ele>
        <time>2018-07-24T09:30:49Z</time>
      </trkpt>
      <trkpt lat="41.207012" lon="-6.591932">
        <ele>744.832</ele>
        <time>2018-07-24T09:30:51Z</time>
      </trkpt>
      <trkpt lat="41.207059" lon="-6.591943">
        <ele>744.848</ele>
        <time>2018-07-24T09:30:53Z</time>
      </trkpt>
      <trkpt lat="41.207086" lon="-6.59195">
        <ele>744.856</ele>
        <time>2018-07-24T09:30:54Z</time>
      </trkpt>
      <trkpt lat="41.207129" lon="-6.591965">
        <ele>744.864</ele>
        <time>2018-07-24T09:30:56Z</time>
      </trkpt>
      <trkpt lat="41.207193" lon="-6.591994">
        <ele>744.872</ele>
        <time>2018-07-24T09:30:59Z</time>
      </trkpt>
      <trkpt lat="41.20724" lon="-6.59201">
        <ele>744.88</ele>
        <time>2018-07-24T09:31:01Z</time>
      </trkpt>
      <trkpt lat="41.207266" lon="-6.59202">
        <ele>744.895</ele>
        <time>2018-07-24T09:31:02Z</time>
      </trkpt>
      <trkpt lat="41.207291" lon="-6.592031">
        <ele>744.911</ele>
        <time>2018-07-24T09:31:03Z</time>
      </trkpt>
      <trkpt lat="41.207319" lon="-6.592042">
        <ele>744.918</ele>
        <time>2018-07-24T09:31:04Z</time>
      </trkpt>
      <trkpt lat="41.207359" lon="-6.592073">
        <ele>744.927</ele>
        <time>2018-07-24T09:31:06Z</time>
      </trkpt>
      <trkpt lat="41.207415" lon="-6.592099">
        <ele>744.935</ele>
        <time>2018-07-24T09:31:08Z</time>
      </trkpt>
      <trkpt lat="41.207439" lon="-6.59211">
        <ele>744.944</ele>
        <time>2018-07-24T09:31:09Z</time>
      </trkpt>
      <trkpt lat="41.207473" lon="-6.592125">
        <ele>744.952</ele>
        <time>2018-07-24T09:31:10Z</time>
      </trkpt>
      <trkpt lat="41.207497" lon="-6.592137">
        <ele>744.97</ele>
        <time>2018-07-24T09:31:11Z</time>
      </trkpt>
      <trkpt lat="41.207519" lon="-6.592151">
        <ele>744.979</ele>
        <time>2018-07-24T09:31:12Z</time>
      </trkpt>
      <trkpt lat="41.207561" lon="-6.592188">
        <ele>744.988</ele>
        <time>2018-07-24T09:31:14Z</time>
      </trkpt>
      <trkpt lat="41.207615" lon="-6.592221">
        <ele>744.998</ele>
        <time>2018-07-24T09:31:16Z</time>
      </trkpt>
      <trkpt lat="41.207641" lon="-6.592238">
        <ele>745.008</ele>
        <time>2018-07-24T09:31:17Z</time>
      </trkpt>
      <trkpt lat="41.207669" lon="-6.592255">
        <ele>745.032</ele>
        <time>2018-07-24T09:31:18Z</time>
      </trkpt>
      <trkpt lat="41.207695" lon="-6.592271">
        <ele>745.06</ele>
        <time>2018-07-24T09:31:19Z</time>
      </trkpt>
      <trkpt lat="41.207721" lon="-6.592286">
        <ele>745.091</ele>
        <time>2018-07-24T09:31:20Z</time>
      </trkpt>
      <trkpt lat="41.207751" lon="-6.592305">
        <ele>745.108</ele>
        <time>2018-07-24T09:31:21Z</time>
      </trkpt>
      <trkpt lat="41.207817" lon="-6.592352">
        <ele>745.125</ele>
        <time>2018-07-24T09:31:23Z</time>
      </trkpt>
      <trkpt lat="41.207845" lon="-6.592375">
        <ele>745.144</ele>
        <time>2018-07-24T09:31:24Z</time>
      </trkpt>
      <trkpt lat="41.207873" lon="-6.592398">
        <ele>745.163</ele>
        <time>2018-07-24T09:31:25Z</time>
      </trkpt>
      <trkpt lat="41.2079" lon="-6.592422">
        <ele>745.184</ele>
        <time>2018-07-24T09:31:26Z</time>
      </trkpt>
      <trkpt lat="41.207928" lon="-6.592444">
        <ele>745.206</ele>
        <time>2018-07-24T09:31:27Z</time>
      </trkpt>
      <trkpt lat="41.207979" lon="-6.592494">
        <ele>745.229</ele>
        <time>2018-07-24T09:31:29Z</time>
      </trkpt>
      <trkpt lat="41.208035" lon="-6.592534">
        <ele>745.281</ele>
        <time>2018-07-24T09:31:31Z</time>
      </trkpt>
      <trkpt lat="41.208088" lon="-6.592571">
        <ele>745.307</ele>
        <time>2018-07-24T09:31:33Z</time>
      </trkpt>
      <trkpt lat="41.208114" lon="-6.592589">
        <ele>745.335</ele>
        <time>2018-07-24T09:31:34Z</time>
      </trkpt>
      <trkpt lat="41.208141" lon="-6.592608">
        <ele>745.363</ele>
        <time>2018-07-24T09:31:35Z</time>
      </trkpt>
      <trkpt lat="41.208167" lon="-6.592628">
        <ele>745.39</ele>
        <time>2018-07-24T09:31:36Z</time>
      </trkpt>
      <trkpt lat="41.208188" lon="-6.592645">
        <ele>745.418</ele>
        <time>2018-07-24T09:31:37Z</time>
      </trkpt>
      <trkpt lat="41.20821" lon="-6.592663">
        <ele>745.476</ele>
        <time>2018-07-24T09:31:38Z</time>
      </trkpt>
      <trkpt lat="41.208232" lon="-6.59268">
        <ele>745.504</ele>
        <time>2018-07-24T09:31:39Z</time>
      </trkpt>
      <trkpt lat="41.208257" lon="-6.592698">
        <ele>745.532</ele>
        <time>2018-07-24T09:31:40Z</time>
      </trkpt>
      <trkpt lat="41.208305" lon="-6.592731">
        <ele>745.587</ele>
        <time>2018-07-24T09:31:42Z</time>
      </trkpt>
      <trkpt lat="41.208329" lon="-6.592749">
        <ele>745.641</ele>
        <time>2018-07-24T09:31:43Z</time>
      </trkpt>
      <trkpt lat="41.208352" lon="-6.592766">
        <ele>745.692</ele>
        <time>2018-07-24T09:31:44Z</time>
      </trkpt>
      <trkpt lat="41.208374" lon="-6.592783">
        <ele>745.717</ele>
        <time>2018-07-24T09:31:45Z</time>
      </trkpt>
      <trkpt lat="41.208399" lon="-6.592803">
        <ele>745.767</ele>
        <time>2018-07-24T09:31:46Z</time>
      </trkpt>
      <trkpt lat="41.208424" lon="-6.592819">
        <ele>745.791</ele>
        <time>2018-07-24T09:31:47Z</time>
      </trkpt>
      <trkpt lat="41.208469" lon="-6.592852">
        <ele>745.815</ele>
        <time>2018-07-24T09:31:49Z</time>
      </trkpt>
      <trkpt lat="41.208491" lon="-6.592867">
        <ele>745.839</ele>
        <time>2018-07-24T09:31:50Z</time>
      </trkpt>
      <trkpt lat="41.208514" lon="-6.592882">
        <ele>745.863</ele>
        <time>2018-07-24T09:31:51Z</time>
      </trkpt>
      <trkpt lat="41.208556" lon="-6.592917">
        <ele>745.887</ele>
        <time>2018-07-24T09:31:53Z</time>
      </trkpt>
      <trkpt lat="41.208593" lon="-6.592952">
        <ele>745.935</ele>
        <time>2018-07-24T09:31:55Z</time>
      </trkpt>
      <trkpt lat="41.208632" lon="-6.592983">
        <ele>745.959</ele>
        <time>2018-07-24T09:31:57Z</time>
      </trkpt>
      <trkpt lat="41.208654" lon="-6.592998">
        <ele>745.982</ele>
        <time>2018-07-24T09:31:58Z</time>
      </trkpt>
      <trkpt lat="41.208697" lon="-6.593037">
        <ele>746.005</ele>
        <time>2018-07-24T09:32:00Z</time>
      </trkpt>
      <trkpt lat="41.20872" lon="-6.593057">
        <ele>746.028</ele>
        <time>2018-07-24T09:32:01Z</time>
      </trkpt>
      <trkpt lat="41.208742" lon="-6.593075">
        <ele>746.05</ele>
        <time>2018-07-24T09:32:02Z</time>
      </trkpt>
      <trkpt lat="41.208764" lon="-6.593093">
        <ele>746.116</ele>
        <time>2018-07-24T09:32:03Z</time>
      </trkpt>
      <trkpt lat="41.208787" lon="-6.593112">
        <ele>746.157</ele>
        <time>2018-07-24T09:32:04Z</time>
      </trkpt>
      <trkpt lat="41.20881" lon="-6.593127">
        <ele>746.178</ele>
        <time>2018-07-24T09:32:05Z</time>
      </trkpt>
      <trkpt lat="41.208856" lon="-6.593158">
        <ele>746.199</ele>
        <time>2018-07-24T09:32:07Z</time>
      </trkpt>
      <trkpt lat="41.208878" lon="-6.593176">
        <ele>746.218</ele>
        <time>2018-07-24T09:32:08Z</time>
      </trkpt>
      <trkpt lat="41.208901" lon="-6.593194">
        <ele>746.238</ele>
        <time>2018-07-24T09:32:09Z</time>
      </trkpt>
      <trkpt lat="41.208923" lon="-6.593211">
        <ele>746.295</ele>
        <time>2018-07-24T09:32:10Z</time>
      </trkpt>
      <trkpt lat="41.208944" lon="-6.593228">
        <ele>746.331</ele>
        <time>2018-07-24T09:32:11Z</time>
      </trkpt>
      <trkpt lat="41.208963" lon="-6.593247">
        <ele>746.349</ele>
        <time>2018-07-24T09:32:12Z</time>
      </trkpt>
      <trkpt lat="41.209032" lon="-6.593299">
        <ele>746.367</ele>
        <time>2018-07-24T09:32:15Z</time>
      </trkpt>
      <trkpt lat="41.209074" lon="-6.593337">
        <ele>746.384</ele>
        <time>2018-07-24T09:32:17Z</time>
      </trkpt>
      <trkpt lat="41.209094" lon="-6.593355">
        <ele>746.419</ele>
        <time>2018-07-24T09:32:18Z</time>
      </trkpt>
      <trkpt lat="41.209117" lon="-6.593376">
        <ele>746.436</ele>
        <time>2018-07-24T09:32:19Z</time>
      </trkpt>
      <trkpt lat="41.20914" lon="-6.593398">
        <ele>746.453</ele>
        <time>2018-07-24T09:32:20Z</time>
      </trkpt>
      <trkpt lat="41.209161" lon="-6.593416">
        <ele>746.469</ele>
        <time>2018-07-24T09:32:21Z</time>
      </trkpt>
      <trkpt lat="41.20922" lon="-6.593464">
        <ele>746.485</ele>
        <time>2018-07-24T09:32:24Z</time>
      </trkpt>
      <trkpt lat="41.209264" lon="-6.593503">
        <ele>746.501</ele>
        <time>2018-07-24T09:32:26Z</time>
      </trkpt>
      <trkpt lat="41.209284" lon="-6.593523">
        <ele>746.517</ele>
        <time>2018-07-24T09:32:27Z</time>
      </trkpt>
      <trkpt lat="41.209305" lon="-6.593541">
        <ele>746.533</ele>
        <time>2018-07-24T09:32:28Z</time>
      </trkpt>
      <trkpt lat="41.209326" lon="-6.593561">
        <ele>746.549</ele>
        <time>2018-07-24T09:32:29Z</time>
      </trkpt>
      <trkpt lat="41.209371" lon="-6.593603">
        <ele>746.564</ele>
        <time>2018-07-24T09:32:31Z</time>
      </trkpt>
      <trkpt lat="41.209393" lon="-6.593624">
        <ele>746.58</ele>
        <time>2018-07-24T09:32:32Z</time>
      </trkpt>
      <trkpt lat="41.209414" lon="-6.593647">
        <ele>746.611</ele>
        <time>2018-07-24T09:32:33Z</time>
      </trkpt>
      <trkpt lat="41.209434" lon="-6.593671">
        <ele>746.626</ele>
        <time>2018-07-24T09:32:34Z</time>
      </trkpt>
      <trkpt lat="41.209455" lon="-6.593694">
        <ele>746.641</ele>
        <time>2018-07-24T09:32:35Z</time>
      </trkpt>
      <trkpt lat="41.209472" lon="-6.593717">
        <ele>746.656</ele>
        <time>2018-07-24T09:32:36Z</time>
      </trkpt>
      <trkpt lat="41.209493" lon="-6.593741">
        <ele>746.672</ele>
        <time>2018-07-24T09:32:37Z</time>
      </trkpt>
      <trkpt lat="41.209514" lon="-6.593764">
        <ele>746.687</ele>
        <time>2018-07-24T09:32:38Z</time>
      </trkpt>
      <trkpt lat="41.209534" lon="-6.593788">
        <ele>746.702</ele>
        <time>2018-07-24T09:32:39Z</time>
      </trkpt>
      <trkpt lat="41.209555" lon="-6.593813">
        <ele>746.717</ele>
        <time>2018-07-24T09:32:40Z</time>
      </trkpt>
      <trkpt lat="41.209576" lon="-6.593837">
        <ele>746.747</ele>
        <time>2018-07-24T09:32:41Z</time>
      </trkpt>
      <trkpt lat="41.209618" lon="-6.593899">
        <ele>746.778</ele>
        <time>2018-07-24T09:32:43Z</time>
      </trkpt>
      <trkpt lat="41.209638" lon="-6.593931">
        <ele>746.81</ele>
        <time>2018-07-24T09:32:44Z</time>
      </trkpt>
      <trkpt lat="41.209662" lon="-6.593965">
        <ele>746.842</ele>
        <time>2018-07-24T09:32:45Z</time>
      </trkpt>
      <trkpt lat="41.209681" lon="-6.593995">
        <ele>746.858</ele>
        <time>2018-07-24T09:32:46Z</time>
      </trkpt>
      <trkpt lat="41.209699" lon="-6.594026">
        <ele>746.874</ele>
        <time>2018-07-24T09:32:47Z</time>
      </trkpt>
      <trkpt lat="41.209717" lon="-6.594055">
        <ele>747.046</ele>
        <time>2018-07-24T09:32:48Z</time>
      </trkpt>
      <trkpt lat="41.209737" lon="-6.594087">
        <ele>747.059</ele>
        <time>2018-07-24T09:32:49Z</time>
      </trkpt>
      <trkpt lat="41.209758" lon="-6.59412">
        <ele>747.072</ele>
        <time>2018-07-24T09:32:50Z</time>
      </trkpt>
      <trkpt lat="41.209795" lon="-6.594191">
        <ele>747.202</ele>
        <time>2018-07-24T09:32:52Z</time>
      </trkpt>
      <trkpt lat="41.209843" lon="-6.594236">
        <ele>747.315</ele>
        <time>2018-07-24T09:32:54Z</time>
      </trkpt>
      <trkpt lat="41.209893" lon="-6.594272">
        <ele>747.324</ele>
        <time>2018-07-24T09:32:56Z</time>
      </trkpt>
      <trkpt lat="41.209926" lon="-6.594341">
        <ele>747.495</ele>
        <time>2018-07-24T09:32:58Z</time>
      </trkpt>
      <trkpt lat="41.209945" lon="-6.594382">
        <ele>747.502</ele>
        <time>2018-07-24T09:32:59Z</time>
      </trkpt>
      <trkpt lat="41.209965" lon="-6.594428">
        <ele>747.509</ele>
        <time>2018-07-24T09:33:00Z</time>
      </trkpt>
      <trkpt lat="41.210011" lon="-6.594505">
        <ele>747.583</ele>
        <time>2018-07-24T09:33:02Z</time>
      </trkpt>
      <trkpt lat="41.210037" lon="-6.594544">
        <ele>747.642</ele>
        <time>2018-07-24T09:33:03Z</time>
      </trkpt>
      <trkpt lat="41.210059" lon="-6.594582">
        <ele>747.693</ele>
        <time>2018-07-24T09:33:04Z</time>
      </trkpt>
      <trkpt lat="41.210081" lon="-6.594625">
        <ele>747.739</ele>
        <time>2018-07-24T09:33:05Z</time>
      </trkpt>
      <trkpt lat="41.2101" lon="-6.59467">
        <ele>747.813</ele>
        <time>2018-07-24T09:33:06Z</time>
      </trkpt>
      <trkpt lat="41.210119" lon="-6.594717">
        <ele>747.816</ele>
        <time>2018-07-24T09:33:07Z</time>
      </trkpt>
      <trkpt lat="41.210161" lon="-6.594796">
        <ele>747.844</ele>
        <time>2018-07-24T09:33:09Z</time>
      </trkpt>
      <trkpt lat="41.21018" lon="-6.594839">
        <ele>747.869</ele>
        <time>2018-07-24T09:33:10Z</time>
      </trkpt>
      <trkpt lat="41.210196" lon="-6.59488">
        <ele>747.871</ele>
        <time>2018-07-24T09:33:11Z</time>
      </trkpt>
      <trkpt lat="41.210216" lon="-6.59492">
        <ele>747.894</ele>
        <time>2018-07-24T09:33:12Z</time>
      </trkpt>
      <trkpt lat="41.210238" lon="-6.594968">
        <ele>747.915</ele>
        <time>2018-07-24T09:33:13Z</time>
      </trkpt>
      <trkpt lat="41.210255" lon="-6.595012">
        <ele>747.917</ele>
        <time>2018-07-24T09:33:14Z</time>
      </trkpt>
      <trkpt lat="41.210272" lon="-6.595057">
        <ele>747.952</ele>
        <time>2018-07-24T09:33:15Z</time>
      </trkpt>
      <trkpt lat="41.210312" lon="-6.59514">
        <ele>747.977</ele>
        <time>2018-07-24T09:33:17Z</time>
      </trkpt>
      <trkpt lat="41.210334" lon="-6.59518">
        <ele>747.998</ele>
        <time>2018-07-24T09:33:18Z</time>
      </trkpt>
      <trkpt lat="41.210358" lon="-6.595219">
        <ele>748.014</ele>
        <time>2018-07-24T09:33:19Z</time>
      </trkpt>
      <trkpt lat="41.210402" lon="-6.595303">
        <ele>748.028</ele>
        <time>2018-07-24T09:33:21Z</time>
      </trkpt>
      <trkpt lat="41.210422" lon="-6.595343">
        <ele>748.04</ele>
        <time>2018-07-24T09:33:22Z</time>
      </trkpt>
      <trkpt lat="41.210443" lon="-6.595386">
        <ele>748.052</ele>
        <time>2018-07-24T09:33:23Z</time>
      </trkpt>
      <trkpt lat="41.210466" lon="-6.595428">
        <ele>748.063</ele>
        <time>2018-07-24T09:33:24Z</time>
      </trkpt>
      <trkpt lat="41.210488" lon="-6.595475">
        <ele>748.074</ele>
        <time>2018-07-24T09:33:25Z</time>
      </trkpt>
      <trkpt lat="41.210529" lon="-6.595573">
        <ele>748.087</ele>
        <time>2018-07-24T09:33:27Z</time>
      </trkpt>
      <trkpt lat="41.210588" lon="-6.595661">
        <ele>748.099</ele>
        <time>2018-07-24T09:33:29Z</time>
      </trkpt>
      <trkpt lat="41.210639" lon="-6.595768">
        <ele>748.109</ele>
        <time>2018-07-24T09:33:31Z</time>
      </trkpt>
      <trkpt lat="41.210664" lon="-6.595822">
        <ele>748.121</ele>
        <time>2018-07-24T09:33:32Z</time>
      </trkpt>
      <trkpt lat="41.210688" lon="-6.59587">
        <ele>748.127</ele>
        <time>2018-07-24T09:33:33Z</time>
      </trkpt>
      <trkpt lat="41.21071" lon="-6.595921">
        <ele>748.128</ele>
        <time>2018-07-24T09:33:34Z</time>
      </trkpt>
      <trkpt lat="41.210734" lon="-6.595972">
        <ele>748.13</ele>
        <time>2018-07-24T09:33:35Z</time>
      </trkpt>
      <trkpt lat="41.21076" lon="-6.596021">
        <ele>748.131</ele>
        <time>2018-07-24T09:33:36Z</time>
      </trkpt>
      <trkpt lat="41.210785" lon="-6.596071">
        <ele>748.133</ele>
        <time>2018-07-24T09:33:37Z</time>
      </trkpt>
      <trkpt lat="41.210804" lon="-6.596112">
        <ele>748.152</ele>
        <time>2018-07-24T09:33:38Z</time>
      </trkpt>
      <trkpt lat="41.210824" lon="-6.59616">
        <ele>748.167</ele>
        <time>2018-07-24T09:33:39Z</time>
      </trkpt>
      <trkpt lat="41.210844" lon="-6.596206">
        <ele>748.177</ele>
        <time>2018-07-24T09:33:40Z</time>
      </trkpt>
      <trkpt lat="41.210864" lon="-6.596254">
        <ele>748.178</ele>
        <time>2018-07-24T09:33:41Z</time>
      </trkpt>
      <trkpt lat="41.210883" lon="-6.596302">
        <ele>748.2</ele>
        <time>2018-07-24T09:33:42Z</time>
      </trkpt>
      <trkpt lat="41.210902" lon="-6.596346">
        <ele>748.21</ele>
        <time>2018-07-24T09:33:43Z</time>
      </trkpt>
      <trkpt lat="41.21092" lon="-6.596387">
        <ele>748.22</ele>
        <time>2018-07-24T09:33:44Z</time>
      </trkpt>
      <trkpt lat="41.210937" lon="-6.596429">
        <ele>748.227</ele>
        <time>2018-07-24T09:33:45Z</time>
      </trkpt>
      <trkpt lat="41.210955" lon="-6.596471">
        <ele>748.237</ele>
        <time>2018-07-24T09:33:46Z</time>
      </trkpt>
      <trkpt lat="41.210978" lon="-6.596517">
        <ele>748.251</ele>
        <time>2018-07-24T09:33:47Z</time>
      </trkpt>
      <trkpt lat="41.210999" lon="-6.596562">
        <ele>748.264</ele>
        <time>2018-07-24T09:33:48Z</time>
      </trkpt>
      <trkpt lat="41.211019" lon="-6.596607">
        <ele>748.275</ele>
        <time>2018-07-24T09:33:49Z</time>
      </trkpt>
      <trkpt lat="41.21104" lon="-6.596653">
        <ele>748.276</ele>
        <time>2018-07-24T09:33:50Z</time>
      </trkpt>
      <trkpt lat="41.211083" lon="-6.596735">
        <ele>748.278</ele>
        <time>2018-07-24T09:33:52Z</time>
      </trkpt>
      <trkpt lat="41.211108" lon="-6.596779">
        <ele>748.292</ele>
        <time>2018-07-24T09:33:53Z</time>
      </trkpt>
      <trkpt lat="41.211131" lon="-6.59682">
        <ele>748.308</ele>
        <time>2018-07-24T09:33:54Z</time>
      </trkpt>
      <trkpt lat="41.211155" lon="-6.596865">
        <ele>748.322</ele>
        <time>2018-07-24T09:33:55Z</time>
      </trkpt>
      <trkpt lat="41.211183" lon="-6.596914">
        <ele>748.332</ele>
        <time>2018-07-24T09:33:56Z</time>
      </trkpt>
      <trkpt lat="41.211208" lon="-6.59696">
        <ele>748.341</ele>
        <time>2018-07-24T09:33:57Z</time>
      </trkpt>
      <trkpt lat="41.211232" lon="-6.597001">
        <ele>748.342</ele>
        <time>2018-07-24T09:33:58Z</time>
      </trkpt>
      <trkpt lat="41.211257" lon="-6.597043">
        <ele>748.344</ele>
        <time>2018-07-24T09:33:59Z</time>
      </trkpt>
      <trkpt lat="41.211276" lon="-6.597083">
        <ele>748.351</ele>
        <time>2018-07-24T09:34:00Z</time>
      </trkpt>
      <trkpt lat="41.211294" lon="-6.597121">
        <ele>748.354</ele>
        <time>2018-07-24T09:34:01Z</time>
      </trkpt>
      <trkpt lat="41.211315" lon="-6.597161">
        <ele>748.379</ele>
        <time>2018-07-24T09:34:02Z</time>
      </trkpt>
      <trkpt lat="41.211334" lon="-6.597207">
        <ele>748.382</ele>
        <time>2018-07-24T09:34:03Z</time>
      </trkpt>
      <trkpt lat="41.211354" lon="-6.597253">
        <ele>748.411</ele>
        <time>2018-07-24T09:34:04Z</time>
      </trkpt>
      <trkpt lat="41.211376" lon="-6.597308">
        <ele>748.436</ele>
        <time>2018-07-24T09:34:05Z</time>
      </trkpt>
      <trkpt lat="41.211403" lon="-6.597359">
        <ele>748.438</ele>
        <time>2018-07-24T09:34:06Z</time>
      </trkpt>
      <trkpt lat="41.211428" lon="-6.597404">
        <ele>748.442</ele>
        <time>2018-07-24T09:34:07Z</time>
      </trkpt>
      <trkpt lat="41.211464" lon="-6.597493">
        <ele>748.447</ele>
        <time>2018-07-24T09:34:09Z</time>
      </trkpt>
      <trkpt lat="41.211531" lon="-6.597625">
        <ele>748.45</ele>
        <time>2018-07-24T09:34:12Z</time>
      </trkpt>
      <trkpt lat="41.211554" lon="-6.597671">
        <ele>748.456</ele>
        <time>2018-07-24T09:34:13Z</time>
      </trkpt>
      <trkpt lat="41.211577" lon="-6.597714">
        <ele>748.459</ele>
        <time>2018-07-24T09:34:14Z</time>
      </trkpt>
      <trkpt lat="41.211599" lon="-6.597758">
        <ele>748.463</ele>
        <time>2018-07-24T09:34:15Z</time>
      </trkpt>
      <trkpt lat="41.211644" lon="-6.597843">
        <ele>748.467</ele>
        <time>2018-07-24T09:34:17Z</time>
      </trkpt>
      <trkpt lat="41.211666" lon="-6.597883">
        <ele>748.471</ele>
        <time>2018-07-24T09:34:18Z</time>
      </trkpt>
      <trkpt lat="41.211689" lon="-6.597929">
        <ele>748.479</ele>
        <time>2018-07-24T09:34:19Z</time>
      </trkpt>
      <trkpt lat="41.211727" lon="-6.598013">
        <ele>748.488</ele>
        <time>2018-07-24T09:34:21Z</time>
      </trkpt>
      <trkpt lat="41.211768" lon="-6.598088">
        <ele>748.492</ele>
        <time>2018-07-24T09:34:23Z</time>
      </trkpt>
      <trkpt lat="41.211788" lon="-6.598123">
        <ele>748.497</ele>
        <time>2018-07-24T09:34:24Z</time>
      </trkpt>
      <trkpt lat="41.211824" lon="-6.598201">
        <ele>748.501</ele>
        <time>2018-07-24T09:34:26Z</time>
      </trkpt>
      <trkpt lat="41.211841" lon="-6.598237">
        <ele>748.546</ele>
        <time>2018-07-24T09:34:27Z</time>
      </trkpt>
      <trkpt lat="41.211858" lon="-6.598274">
        <ele>748.586</ele>
        <time>2018-07-24T09:34:28Z</time>
      </trkpt>
      <trkpt lat="41.211876" lon="-6.598309">
        <ele>748.62</ele>
        <time>2018-07-24T09:34:29Z</time>
      </trkpt>
      <trkpt lat="41.211891" lon="-6.598337">
        <ele>748.652</ele>
        <time>2018-07-24T09:34:30Z</time>
      </trkpt>
      <trkpt lat="41.211918" lon="-6.598399">
        <ele>748.677</ele>
        <time>2018-07-24T09:34:32Z</time>
      </trkpt>
      <trkpt lat="41.211954" lon="-6.598465">
        <ele>748.7</ele>
        <time>2018-07-24T09:34:34Z</time>
      </trkpt>
      <trkpt lat="41.211972" lon="-6.598503">
        <ele>748.719</ele>
        <time>2018-07-24T09:34:35Z</time>
      </trkpt>
      <trkpt lat="41.211989" lon="-6.598537">
        <ele>748.721</ele>
        <time>2018-07-24T09:34:36Z</time>
      </trkpt>
      <trkpt lat="41.212009" lon="-6.598575">
        <ele>748.743</ele>
        <time>2018-07-24T09:34:37Z</time>
      </trkpt>
      <trkpt lat="41.212029" lon="-6.598614">
        <ele>748.76</ele>
        <time>2018-07-24T09:34:38Z</time>
      </trkpt>
      <trkpt lat="41.212053" lon="-6.598658">
        <ele>748.762</ele>
        <time>2018-07-24T09:34:39Z</time>
      </trkpt>
      <trkpt lat="41.212072" lon="-6.598702">
        <ele>748.781</ele>
        <time>2018-07-24T09:34:40Z</time>
      </trkpt>
      <trkpt lat="41.212094" lon="-6.598745">
        <ele>748.8</ele>
        <time>2018-07-24T09:34:41Z</time>
      </trkpt>
      <trkpt lat="41.212116" lon="-6.598792">
        <ele>748.837</ele>
        <time>2018-07-24T09:34:42Z</time>
      </trkpt>
      <trkpt lat="41.212139" lon="-6.598839">
        <ele>748.853</ele>
        <time>2018-07-24T09:34:43Z</time>
      </trkpt>
      <trkpt lat="41.212162" lon="-6.598884">
        <ele>748.881</ele>
        <time>2018-07-24T09:34:44Z</time>
      </trkpt>
      <trkpt lat="41.212184" lon="-6.598927">
        <ele>748.894</ele>
        <time>2018-07-24T09:34:45Z</time>
      </trkpt>
      <trkpt lat="41.212205" lon="-6.59897">
        <ele>748.907</ele>
        <time>2018-07-24T09:34:46Z</time>
      </trkpt>
      <trkpt lat="41.212227" lon="-6.599016">
        <ele>748.918</ele>
        <time>2018-07-24T09:34:47Z</time>
      </trkpt>
      <trkpt lat="41.212249" lon="-6.599062">
        <ele>748.919</ele>
        <time>2018-07-24T09:34:48Z</time>
      </trkpt>
      <trkpt lat="41.212269" lon="-6.599102">
        <ele>748.922</ele>
        <time>2018-07-24T09:34:49Z</time>
      </trkpt>
      <trkpt lat="41.212291" lon="-6.599142">
        <ele>748.926</ele>
        <time>2018-07-24T09:34:50Z</time>
      </trkpt>
      <trkpt lat="41.212328" lon="-6.599232">
        <ele>748.929</ele>
        <time>2018-07-24T09:34:52Z</time>
      </trkpt>
      <trkpt lat="41.212346" lon="-6.599278">
        <ele>748.932</ele>
        <time>2018-07-24T09:34:53Z</time>
      </trkpt>
      <trkpt lat="41.212392" lon="-6.599373">
        <ele>748.938</ele>
        <time>2018-07-24T09:34:55Z</time>
      </trkpt>
      <trkpt lat="41.212415" lon="-6.599419">
        <ele>748.941</ele>
        <time>2018-07-24T09:34:56Z</time>
      </trkpt>
      <trkpt lat="41.212437" lon="-6.599467">
        <ele>748.944</ele>
        <time>2018-07-24T09:34:57Z</time>
      </trkpt>
      <trkpt lat="41.21246" lon="-6.599514">
        <ele>748.947</ele>
        <time>2018-07-24T09:34:58Z</time>
      </trkpt>
      <trkpt lat="41.212482" lon="-6.599556">
        <ele>748.951</ele>
        <time>2018-07-24T09:34:59Z</time>
      </trkpt>
      <trkpt lat="41.212522" lon="-6.599624">
        <ele>748.955</ele>
        <time>2018-07-24T09:35:01Z</time>
      </trkpt>
      <trkpt lat="41.212553" lon="-6.599697">
        <ele>748.959</ele>
        <time>2018-07-24T09:35:03Z</time>
      </trkpt>
      <trkpt lat="41.212568" lon="-6.599733">
        <ele>748.964</ele>
        <time>2018-07-24T09:35:04Z</time>
      </trkpt>
      <trkpt lat="41.212581" lon="-6.599763">
        <ele>748.974</ele>
        <time>2018-07-24T09:35:05Z</time>
      </trkpt>
      <trkpt lat="41.212606" lon="-6.599814">
        <ele>748.984</ele>
        <time>2018-07-24T09:35:07Z</time>
      </trkpt>
      <trkpt lat="41.212621" lon="-6.599843">
        <ele>748.995</ele>
        <time>2018-07-24T09:35:08Z</time>
      </trkpt>
      <trkpt lat="41.212636" lon="-6.599874">
        <ele>749.006</ele>
        <time>2018-07-24T09:35:09Z</time>
      </trkpt>
      <trkpt lat="41.212651" lon="-6.599904">
        <ele>749.017</ele>
        <time>2018-07-24T09:35:10Z</time>
      </trkpt>
      <trkpt lat="41.212665" lon="-6.599937">
        <ele>749.023</ele>
        <time>2018-07-24T09:35:11Z</time>
      </trkpt>
      <trkpt lat="41.21268" lon="-6.599968">
        <ele>749.035</ele>
        <time>2018-07-24T09:35:12Z</time>
      </trkpt>
      <trkpt lat="41.212692" lon="-6.599997">
        <ele>749.047</ele>
        <time>2018-07-24T09:35:13Z</time>
      </trkpt>
      <trkpt lat="41.212705" lon="-6.600027">
        <ele>749.066</ele>
        <time>2018-07-24T09:35:14Z</time>
      </trkpt>
      <trkpt lat="41.212732" lon="-6.600076">
        <ele>749.081</ele>
        <time>2018-07-24T09:35:16Z</time>
      </trkpt>
      <trkpt lat="41.212754" lon="-6.600118">
        <ele>749.096</ele>
        <time>2018-07-24T09:35:18Z</time>
      </trkpt>
      <trkpt lat="41.212778" lon="-6.600167">
        <ele>749.111</ele>
        <time>2018-07-24T09:35:20Z</time>
      </trkpt>
      <trkpt lat="41.2128" lon="-6.600219">
        <ele>749.119</ele>
        <time>2018-07-24T09:35:22Z</time>
      </trkpt>
      <trkpt lat="41.212818" lon="-6.60027">
        <ele>749.135</ele>
        <time>2018-07-24T09:35:24Z</time>
      </trkpt>
      <trkpt lat="41.212828" lon="-6.600298">
        <ele>749.143</ele>
        <time>2018-07-24T09:35:25Z</time>
      </trkpt>
      <trkpt lat="41.212847" lon="-6.600346">
        <ele>749.159</ele>
        <time>2018-07-24T09:35:27Z</time>
      </trkpt>
      <trkpt lat="41.212867" lon="-6.600393">
        <ele>749.176</ele>
        <time>2018-07-24T09:35:29Z</time>
      </trkpt>
      <trkpt lat="41.212903" lon="-6.600453">
        <ele>749.194</ele>
        <time>2018-07-24T09:35:32Z</time>
      </trkpt>
      <trkpt lat="41.212927" lon="-6.600497">
        <ele>749.22</ele>
        <time>2018-07-24T09:35:34Z</time>
      </trkpt>
      <trkpt lat="41.212951" lon="-6.600553">
        <ele>749.229</ele>
        <time>2018-07-24T09:35:36Z</time>
      </trkpt>
      <trkpt lat="41.212976" lon="-6.600607">
        <ele>749.247</ele>
        <time>2018-07-24T09:35:38Z</time>
      </trkpt>
      <trkpt lat="41.212988" lon="-6.600634">
        <ele>749.266</ele>
        <time>2018-07-24T09:35:39Z</time>
      </trkpt>
      <trkpt lat="41.213014" lon="-6.600685">
        <ele>749.275</ele>
        <time>2018-07-24T09:35:41Z</time>
      </trkpt>
      <trkpt lat="41.213028" lon="-6.600711">
        <ele>749.285</ele>
        <time>2018-07-24T09:35:42Z</time>
      </trkpt>
      <trkpt lat="41.213053" lon="-6.600761">
        <ele>749.296</ele>
        <time>2018-07-24T09:35:44Z</time>
      </trkpt>
      <trkpt lat="41.213078" lon="-6.600805">
        <ele>749.306</ele>
        <time>2018-07-24T09:35:46Z</time>
      </trkpt>
      <trkpt lat="41.213102" lon="-6.600852">
        <ele>749.317</ele>
        <time>2018-07-24T09:35:48Z</time>
      </trkpt>
      <trkpt lat="41.213139" lon="-6.600941">
        <ele>749.328</ele>
        <time>2018-07-24T09:35:51Z</time>
      </trkpt>
      <trkpt lat="41.213153" lon="-6.600971">
        <ele>749.339</ele>
        <time>2018-07-24T09:35:52Z</time>
      </trkpt>
      <trkpt lat="41.213173" lon="-6.601028">
        <ele>749.35</ele>
        <time>2018-07-24T09:35:54Z</time>
      </trkpt>
      <trkpt lat="41.213198" lon="-6.60108">
        <ele>749.361</ele>
        <time>2018-07-24T09:35:56Z</time>
      </trkpt>
      <trkpt lat="41.21321" lon="-6.601108">
        <ele>749.372</ele>
        <time>2018-07-24T09:35:57Z</time>
      </trkpt>
      <trkpt lat="41.213222" lon="-6.601136">
        <ele>749.383</ele>
        <time>2018-07-24T09:35:58Z</time>
      </trkpt>
      <trkpt lat="41.213237" lon="-6.601164">
        <ele>749.393</ele>
        <time>2018-07-24T09:35:59Z</time>
      </trkpt>
      <trkpt lat="41.213254" lon="-6.601194">
        <ele>749.404</ele>
        <time>2018-07-24T09:36:00Z</time>
      </trkpt>
      <trkpt lat="41.213272" lon="-6.601226">
        <ele>749.505</ele>
        <time>2018-07-24T09:36:01Z</time>
      </trkpt>
      <trkpt lat="41.213289" lon="-6.601259">
        <ele>749.59</ele>
        <time>2018-07-24T09:36:02Z</time>
      </trkpt>
      <trkpt lat="41.213306" lon="-6.601296">
        <ele>749.658</ele>
        <time>2018-07-24T09:36:03Z</time>
      </trkpt>
      <trkpt lat="41.213325" lon="-6.601334">
        <ele>749.714</ele>
        <time>2018-07-24T09:36:04Z</time>
      </trkpt>
      <trkpt lat="41.213343" lon="-6.60137">
        <ele>749.761</ele>
        <time>2018-07-24T09:36:05Z</time>
      </trkpt>
      <trkpt lat="41.213365" lon="-6.601407">
        <ele>749.798</ele>
        <time>2018-07-24T09:36:06Z</time>
      </trkpt>
      <trkpt lat="41.213385" lon="-6.601444">
        <ele>749.832</ele>
        <time>2018-07-24T09:36:07Z</time>
      </trkpt>
      <trkpt lat="41.213406" lon="-6.601481">
        <ele>749.88</ele>
        <time>2018-07-24T09:36:08Z</time>
      </trkpt>
      <trkpt lat="41.213429" lon="-6.601522">
        <ele>749.903</ele>
        <time>2018-07-24T09:36:09Z</time>
      </trkpt>
      <trkpt lat="41.213449" lon="-6.601562">
        <ele>749.925</ele>
        <time>2018-07-24T09:36:10Z</time>
      </trkpt>
      <trkpt lat="41.21347" lon="-6.601607">
        <ele>749.943</ele>
        <time>2018-07-24T09:36:11Z</time>
      </trkpt>
      <trkpt lat="41.213492" lon="-6.601655">
        <ele>749.957</ele>
        <time>2018-07-24T09:36:12Z</time>
      </trkpt>
      <trkpt lat="41.213515" lon="-6.601706">
        <ele>749.971</ele>
        <time>2018-07-24T09:36:13Z</time>
      </trkpt>
      <trkpt lat="41.213538" lon="-6.601758">
        <ele>749.972</ele>
        <time>2018-07-24T09:36:14Z</time>
      </trkpt>
      <trkpt lat="41.213561" lon="-6.601813">
        <ele>749.974</ele>
        <time>2018-07-24T09:36:15Z</time>
      </trkpt>
      <trkpt lat="41.213585" lon="-6.601867">
        <ele>749.978</ele>
        <time>2018-07-24T09:36:16Z</time>
      </trkpt>
      <trkpt lat="41.213636" lon="-6.601982">
        <ele>749.98</ele>
        <time>2018-07-24T09:36:18Z</time>
      </trkpt>
      <trkpt lat="41.213664" lon="-6.602037">
        <ele>749.983</ele>
        <time>2018-07-24T09:36:19Z</time>
      </trkpt>
      <trkpt lat="41.213691" lon="-6.602092">
        <ele>749.986</ele>
        <time>2018-07-24T09:36:20Z</time>
      </trkpt>
      <trkpt lat="41.213718" lon="-6.602146">
        <ele>749.989</ele>
        <time>2018-07-24T09:36:21Z</time>
      </trkpt>
      <trkpt lat="41.213746" lon="-6.602202">
        <ele>749.993</ele>
        <time>2018-07-24T09:36:22Z</time>
      </trkpt>
      <trkpt lat="41.213771" lon="-6.602251">
        <ele>749.997</ele>
        <time>2018-07-24T09:36:23Z</time>
      </trkpt>
      <trkpt lat="41.213794" lon="-6.60229">
        <ele>750.005</ele>
        <time>2018-07-24T09:36:24Z</time>
      </trkpt>
      <trkpt lat="41.213817" lon="-6.602328">
        <ele>750.009</ele>
        <time>2018-07-24T09:36:25Z</time>
      </trkpt>
      <trkpt lat="41.213854" lon="-6.602398">
        <ele>750.014</ele>
        <time>2018-07-24T09:36:27Z</time>
      </trkpt>
      <trkpt lat="41.213871" lon="-6.602434">
        <ele>750.019</ele>
        <time>2018-07-24T09:36:28Z</time>
      </trkpt>
      <trkpt lat="41.213884" lon="-6.602464">
        <ele>750.024</ele>
        <time>2018-07-24T09:36:29Z</time>
      </trkpt>
      <trkpt lat="41.213898" lon="-6.602495">
        <ele>750.03</ele>
        <time>2018-07-24T09:36:30Z</time>
      </trkpt>
      <trkpt lat="41.213911" lon="-6.602528">
        <ele>750.036</ele>
        <time>2018-07-24T09:36:31Z</time>
      </trkpt>
      <trkpt lat="41.213926" lon="-6.602563">
        <ele>750.042</ele>
        <time>2018-07-24T09:36:32Z</time>
      </trkpt>
      <trkpt lat="41.21394" lon="-6.602598">
        <ele>750.056</ele>
        <time>2018-07-24T09:36:33Z</time>
      </trkpt>
      <trkpt lat="41.213968" lon="-6.602657">
        <ele>750.063</ele>
        <time>2018-07-24T09:36:35Z</time>
      </trkpt>
      <trkpt lat="41.213982" lon="-6.602688">
        <ele>750.071</ele>
        <time>2018-07-24T09:36:36Z</time>
      </trkpt>
      <trkpt lat="41.213995" lon="-6.602716">
        <ele>750.079</ele>
        <time>2018-07-24T09:36:37Z</time>
      </trkpt>
      <trkpt lat="41.21401" lon="-6.602743">
        <ele>750.093</ele>
        <time>2018-07-24T09:36:38Z</time>
      </trkpt>
      <trkpt lat="41.214022" lon="-6.60277">
        <ele>750.108</ele>
        <time>2018-07-24T09:36:39Z</time>
      </trkpt>
      <trkpt lat="41.214037" lon="-6.6028">
        <ele>750.115</ele>
        <time>2018-07-24T09:36:40Z</time>
      </trkpt>
      <trkpt lat="41.214053" lon="-6.602826">
        <ele>750.123</ele>
        <time>2018-07-24T09:36:41Z</time>
      </trkpt>
      <trkpt lat="41.214067" lon="-6.602852">
        <ele>750.13</ele>
        <time>2018-07-24T09:36:42Z</time>
      </trkpt>
      <trkpt lat="41.214097" lon="-6.602911">
        <ele>750.137</ele>
        <time>2018-07-24T09:36:44Z</time>
      </trkpt>
      <trkpt lat="41.214113" lon="-6.602944">
        <ele>750.144</ele>
        <time>2018-07-24T09:36:45Z</time>
      </trkpt>
      <trkpt lat="41.214128" lon="-6.602972">
        <ele>750.151</ele>
        <time>2018-07-24T09:36:46Z</time>
      </trkpt>
      <trkpt lat="41.214144" lon="-6.603003">
        <ele>750.158</ele>
        <time>2018-07-24T09:36:47Z</time>
      </trkpt>
      <trkpt lat="41.214172" lon="-6.603071">
        <ele>750.168</ele>
        <time>2018-07-24T09:36:49Z</time>
      </trkpt>
      <trkpt lat="41.214209" lon="-6.603138">
        <ele>750.174</ele>
        <time>2018-07-24T09:36:51Z</time>
      </trkpt>
      <trkpt lat="41.214229" lon="-6.603172">
        <ele>750.182</ele>
        <time>2018-07-24T09:36:52Z</time>
      </trkpt>
      <trkpt lat="41.21425" lon="-6.603212">
        <ele>750.194</ele>
        <time>2018-07-24T09:36:53Z</time>
      </trkpt>
      <trkpt lat="41.214269" lon="-6.60325">
        <ele>750.209</ele>
        <time>2018-07-24T09:36:54Z</time>
      </trkpt>
      <trkpt lat="41.214289" lon="-6.60329">
        <ele>750.225</ele>
        <time>2018-07-24T09:36:55Z</time>
      </trkpt>
      <trkpt lat="41.214308" lon="-6.603329">
        <ele>750.241</ele>
        <time>2018-07-24T09:36:56Z</time>
      </trkpt>
      <trkpt lat="41.214327" lon="-6.603369">
        <ele>750.26</ele>
        <time>2018-07-24T09:36:57Z</time>
      </trkpt>
      <trkpt lat="41.214343" lon="-6.603407">
        <ele>750.28</ele>
        <time>2018-07-24T09:36:58Z</time>
      </trkpt>
      <trkpt lat="41.214362" lon="-6.603448">
        <ele>750.3</ele>
        <time>2018-07-24T09:36:59Z</time>
      </trkpt>
      <trkpt lat="41.214379" lon="-6.603482">
        <ele>750.5</ele>
        <time>2018-07-24T09:37:00Z</time>
      </trkpt>
      <trkpt lat="41.214395" lon="-6.603517">
        <ele>750.66</ele>
        <time>2018-07-24T09:37:01Z</time>
      </trkpt>
      <trkpt lat="41.214412" lon="-6.603556">
        <ele>750.794</ele>
        <time>2018-07-24T09:37:02Z</time>
      </trkpt>
      <trkpt lat="41.21443" lon="-6.603592">
        <ele>750.912</ele>
        <time>2018-07-24T09:37:03Z</time>
      </trkpt>
      <trkpt lat="41.214446" lon="-6.603628">
        <ele>751.013</ele>
        <time>2018-07-24T09:37:04Z</time>
      </trkpt>
      <trkpt lat="41.214466" lon="-6.603667">
        <ele>751.1</ele>
        <time>2018-07-24T09:37:05Z</time>
      </trkpt>
      <trkpt lat="41.214487" lon="-6.603708">
        <ele>751.179</ele>
        <time>2018-07-24T09:37:06Z</time>
      </trkpt>
      <trkpt lat="41.214505" lon="-6.603747">
        <ele>751.245</ele>
        <time>2018-07-24T09:37:07Z</time>
      </trkpt>
      <trkpt lat="41.214527" lon="-6.603788">
        <ele>751.309</ele>
        <time>2018-07-24T09:37:08Z</time>
      </trkpt>
      <trkpt lat="41.214547" lon="-6.603832">
        <ele>751.375</ele>
        <time>2018-07-24T09:37:09Z</time>
      </trkpt>
      <trkpt lat="41.214569" lon="-6.603879">
        <ele>751.432</ele>
        <time>2018-07-24T09:37:10Z</time>
      </trkpt>
      <trkpt lat="41.214595" lon="-6.603929">
        <ele>751.484</ele>
        <time>2018-07-24T09:37:11Z</time>
      </trkpt>
      <trkpt lat="41.214622" lon="-6.60398">
        <ele>751.531</ele>
        <time>2018-07-24T09:37:12Z</time>
      </trkpt>
      <trkpt lat="41.21465" lon="-6.604033">
        <ele>751.575</ele>
        <time>2018-07-24T09:37:13Z</time>
      </trkpt>
      <trkpt lat="41.214677" lon="-6.604085">
        <ele>751.617</ele>
        <time>2018-07-24T09:37:14Z</time>
      </trkpt>
      <trkpt lat="41.214707" lon="-6.604137">
        <ele>751.675</ele>
        <time>2018-07-24T09:37:15Z</time>
      </trkpt>
      <trkpt lat="41.214734" lon="-6.604185">
        <ele>751.754</ele>
        <time>2018-07-24T09:37:16Z</time>
      </trkpt>
      <trkpt lat="41.214765" lon="-6.604242">
        <ele>751.845</ele>
        <time>2018-07-24T09:37:17Z</time>
      </trkpt>
      <trkpt lat="41.2148" lon="-6.604308">
        <ele>751.945</ele>
        <time>2018-07-24T09:37:18Z</time>
      </trkpt>
      <trkpt lat="41.214835" lon="-6.60437">
        <ele>752.069</ele>
        <time>2018-07-24T09:37:19Z</time>
      </trkpt>
      <trkpt lat="41.214866" lon="-6.604428">
        <ele>752.083</ele>
        <time>2018-07-24T09:37:20Z</time>
      </trkpt>
      <trkpt lat="41.214906" lon="-6.604496">
        <ele>752.097</ele>
        <time>2018-07-24T09:37:21Z</time>
      </trkpt>
      <trkpt lat="41.214949" lon="-6.604572">
        <ele>752.114</ele>
        <time>2018-07-24T09:37:22Z</time>
      </trkpt>
      <trkpt lat="41.214994" lon="-6.604649">
        <ele>752.132</ele>
        <time>2018-07-24T09:37:23Z</time>
      </trkpt>
      <trkpt lat="41.215032" lon="-6.604726">
        <ele>752.15</ele>
        <time>2018-07-24T09:37:24Z</time>
      </trkpt>
      <trkpt lat="41.215068" lon="-6.604795">
        <ele>752.189</ele>
        <time>2018-07-24T09:37:25Z</time>
      </trkpt>
      <trkpt lat="41.2151" lon="-6.604856">
        <ele>752.21</ele>
        <time>2018-07-24T09:37:26Z</time>
      </trkpt>
      <trkpt lat="41.215129" lon="-6.604908">
        <ele>752.261</ele>
        <time>2018-07-24T09:37:27Z</time>
      </trkpt>
      <trkpt lat="41.215153" lon="-6.604958">
        <ele>752.364</ele>
        <time>2018-07-24T09:37:28Z</time>
      </trkpt>
      <trkpt lat="41.215176" lon="-6.604999">
        <ele>752.486</ele>
        <time>2018-07-24T09:37:29Z</time>
      </trkpt>
      <trkpt lat="41.215197" lon="-6.605034">
        <ele>752.623</ele>
        <time>2018-07-24T09:37:30Z</time>
      </trkpt>
      <trkpt lat="41.215216" lon="-6.605069">
        <ele>752.783</ele>
        <time>2018-07-24T09:37:31Z</time>
      </trkpt>
      <trkpt lat="41.215234" lon="-6.605103">
        <ele>752.902</ele>
        <time>2018-07-24T09:37:32Z</time>
      </trkpt>
      <trkpt lat="41.21525" lon="-6.605134">
        <ele>753.105</ele>
        <time>2018-07-24T09:37:33Z</time>
      </trkpt>
      <trkpt lat="41.215278" lon="-6.605196">
        <ele>753.257</ele>
        <time>2018-07-24T09:37:35Z</time>
      </trkpt>
      <trkpt lat="41.215288" lon="-6.605224">
        <ele>753.502</ele>
        <time>2018-07-24T09:37:36Z</time>
      </trkpt>
      <trkpt lat="41.215306" lon="-6.605267">
        <ele>753.673</ele>
        <time>2018-07-24T09:37:38Z</time>
      </trkpt>
      <trkpt lat="41.215339" lon="-6.60532">
        <ele>753.851</ele>
        <time>2018-07-24T09:37:41Z</time>
      </trkpt>
      <trkpt lat="41.215366" lon="-6.60539">
        <ele>753.944</ele>
        <time>2018-07-24T09:37:44Z</time>
      </trkpt>
      <trkpt lat="41.215378" lon="-6.605468">
        <ele>754.039</ele>
        <time>2018-07-24T09:37:47Z</time>
      </trkpt>
      <trkpt lat="41.215403" lon="-6.605539">
        <ele>754.135</ele>
        <time>2018-07-24T09:37:50Z</time>
      </trkpt>
      <trkpt lat="41.215422" lon="-6.605588">
        <ele>754.336</ele>
        <time>2018-07-24T09:37:52Z</time>
      </trkpt>
      <trkpt lat="41.215457" lon="-6.605646">
        <ele>754.546</ele>
        <time>2018-07-24T09:37:55Z</time>
      </trkpt>
      <trkpt lat="41.215486" lon="-6.605691">
        <ele>754.768</ele>
        <time>2018-07-24T09:37:57Z</time>
      </trkpt>
      <trkpt lat="41.215523" lon="-6.605764">
        <ele>755.004</ele>
        <time>2018-07-24T09:38:00Z</time>
      </trkpt>
      <trkpt lat="41.215548" lon="-6.605815">
        <ele>755.126</ele>
        <time>2018-07-24T09:38:02Z</time>
      </trkpt>
      <trkpt lat="41.215574" lon="-6.605864">
        <ele>755.508</ele>
        <time>2018-07-24T09:38:04Z</time>
      </trkpt>
      <trkpt lat="41.215588" lon="-6.605893">
        <ele>755.769</ele>
        <time>2018-07-24T09:38:05Z</time>
      </trkpt>
      <trkpt lat="41.215602" lon="-6.60592">
        <ele>756.036</ele>
        <time>2018-07-24T09:38:06Z</time>
      </trkpt>
      <trkpt lat="41.215614" lon="-6.605948">
        <ele>756.309</ele>
        <time>2018-07-24T09:38:07Z</time>
      </trkpt>
      <trkpt lat="41.215637" lon="-6.605995">
        <ele>756.448</ele>
        <time>2018-07-24T09:38:09Z</time>
      </trkpt>
      <trkpt lat="41.215664" lon="-6.606041">
        <ele>756.589</ele>
        <time>2018-07-24T09:38:11Z</time>
      </trkpt>
      <trkpt lat="41.215688" lon="-6.606089">
        <ele>756.733</ele>
        <time>2018-07-24T09:38:13Z</time>
      </trkpt>
      <trkpt lat="41.215709" lon="-6.606134">
        <ele>757.175</ele>
        <time>2018-07-24T09:38:15Z</time>
      </trkpt>
      <trkpt lat="41.215723" lon="-6.606159">
        <ele>757.324</ele>
        <time>2018-07-24T09:38:16Z</time>
      </trkpt>
      <trkpt lat="41.215758" lon="-6.60621">
        <ele>757.626</ele>
        <time>2018-07-24T09:38:19Z</time>
      </trkpt>
      <trkpt lat="41.215783" lon="-6.606261">
        <ele>757.932</ele>
        <time>2018-07-24T09:38:21Z</time>
      </trkpt>
      <trkpt lat="41.215806" lon="-6.606311">
        <ele>758.239</ele>
        <time>2018-07-24T09:38:23Z</time>
      </trkpt>
      <trkpt lat="41.215832" lon="-6.606361">
        <ele>758.392</ele>
        <time>2018-07-24T09:38:25Z</time>
      </trkpt>
      <trkpt lat="41.215846" lon="-6.606385">
        <ele>758.547</ele>
        <time>2018-07-24T09:38:26Z</time>
      </trkpt>
      <trkpt lat="41.215863" lon="-6.606412">
        <ele>759.013</ele>
        <time>2018-07-24T09:38:27Z</time>
      </trkpt>
      <trkpt lat="41.215881" lon="-6.60644">
        <ele>759.485</ele>
        <time>2018-07-24T09:38:28Z</time>
      </trkpt>
      <trkpt lat="41.215927" lon="-6.606529">
        <ele>759.961</ele>
        <time>2018-07-24T09:38:31Z</time>
      </trkpt>
      <trkpt lat="41.21594" lon="-6.606555">
        <ele>760.117</ele>
        <time>2018-07-24T09:38:32Z</time>
      </trkpt>
      <trkpt lat="41.215961" lon="-6.606598">
        <ele>760.424</ele>
        <time>2018-07-24T09:38:34Z</time>
      </trkpt>
      <trkpt lat="41.215991" lon="-6.606644">
        <ele>760.726</ele>
        <time>2018-07-24T09:38:36Z</time>
      </trkpt>
      <trkpt lat="41.216021" lon="-6.606683">
        <ele>760.878</ele>
        <time>2018-07-24T09:38:38Z</time>
      </trkpt>
      <trkpt lat="41.216039" lon="-6.606707">
        <ele>761.032</ele>
        <time>2018-07-24T09:38:39Z</time>
      </trkpt>
      <trkpt lat="41.216056" lon="-6.606728">
        <ele>761.187</ele>
        <time>2018-07-24T09:38:40Z</time>
      </trkpt>
      <trkpt lat="41.216091" lon="-6.606791">
        <ele>761.649</ele>
        <time>2018-07-24T09:38:43Z</time>
      </trkpt>
      <trkpt lat="41.216116" lon="-6.606858">
        <ele>761.956</ele>
        <time>2018-07-24T09:38:46Z</time>
      </trkpt>
      <trkpt lat="41.216152" lon="-6.606933">
        <ele>762.107</ele>
        <time>2018-07-24T09:38:49Z</time>
      </trkpt>
      <trkpt lat="41.216165" lon="-6.606965">
        <ele>762.257</ele>
        <time>2018-07-24T09:38:50Z</time>
      </trkpt>
      <trkpt lat="41.216197" lon="-6.607028">
        <ele>762.552</ele>
        <time>2018-07-24T09:38:52Z</time>
      </trkpt>
      <trkpt lat="41.216222" lon="-6.607089">
        <ele>762.698</ele>
        <time>2018-07-24T09:38:54Z</time>
      </trkpt>
      <trkpt lat="41.216234" lon="-6.607124">
        <ele>762.843</ele>
        <time>2018-07-24T09:38:55Z</time>
      </trkpt>
      <trkpt lat="41.216246" lon="-6.607157">
        <ele>764.279</ele>
        <time>2018-07-24T09:38:56Z</time>
      </trkpt>
      <trkpt lat="41.216261" lon="-6.607192">
        <ele>764.398</ele>
        <time>2018-07-24T09:38:57Z</time>
      </trkpt>
      <trkpt lat="41.21631" lon="-6.607308">
        <ele>765.608</ele>
        <time>2018-07-24T09:39:00Z</time>
      </trkpt>
      <trkpt lat="41.216328" lon="-6.607387">
        <ele>768.029</ele>
        <time>2018-07-24T09:39:02Z</time>
      </trkpt>
      <trkpt lat="41.216338" lon="-6.607428">
        <ele>768.54</ele>
        <time>2018-07-24T09:39:03Z</time>
      </trkpt>
      <trkpt lat="41.216349" lon="-6.607469">
        <ele>768.971</ele>
        <time>2018-07-24T09:39:04Z</time>
      </trkpt>
      <trkpt lat="41.216375" lon="-6.607545">
        <ele>769.337</ele>
        <time>2018-07-24T09:39:06Z</time>
      </trkpt>
      <trkpt lat="41.216391" lon="-6.607589">
        <ele>769.918</ele>
        <time>2018-07-24T09:39:07Z</time>
      </trkpt>
      <trkpt lat="41.216407" lon="-6.607633">
        <ele>770.148</ele>
        <time>2018-07-24T09:39:08Z</time>
      </trkpt>
      <trkpt lat="41.216424" lon="-6.607677">
        <ele>770.36</ele>
        <time>2018-07-24T09:39:09Z</time>
      </trkpt>
      <trkpt lat="41.216441" lon="-6.60772">
        <ele>770.546</ele>
        <time>2018-07-24T09:39:10Z</time>
      </trkpt>
      <trkpt lat="41.216459" lon="-6.60776">
        <ele>770.68</ele>
        <time>2018-07-24T09:39:11Z</time>
      </trkpt>
      <trkpt lat="41.216507" lon="-6.607907">
        <ele>770.801</ele>
        <time>2018-07-24T09:39:14Z</time>
      </trkpt>
      <trkpt lat="41.216526" lon="-6.607964">
        <ele>770.904</ele>
        <time>2018-07-24T09:39:15Z</time>
      </trkpt>
      <trkpt lat="41.216552" lon="-6.608017">
        <ele>770.969</ele>
        <time>2018-07-24T09:39:16Z</time>
      </trkpt>
      <trkpt lat="41.216576" lon="-6.608063">
        <ele>771.008</ele>
        <time>2018-07-24T09:39:17Z</time>
      </trkpt>
      <trkpt lat="41.216615" lon="-6.608172">
        <ele>771.011</ele>
        <time>2018-07-24T09:39:19Z</time>
      </trkpt>
      <trkpt lat="41.216634" lon="-6.60824">
        <ele>771.003</ele>
        <time>2018-07-24T09:39:20Z</time>
      </trkpt>
      <trkpt lat="41.216653" lon="-6.608303">
        <ele>770.989</ele>
        <time>2018-07-24T09:39:21Z</time>
      </trkpt>
      <trkpt lat="41.216672" lon="-6.608359">
        <ele>770.874</ele>
        <time>2018-07-24T09:39:22Z</time>
      </trkpt>
      <trkpt lat="41.216694" lon="-6.608418">
        <ele>770.782</ele>
        <time>2018-07-24T09:39:23Z</time>
      </trkpt>
      <trkpt lat="41.216716" lon="-6.608486">
        <ele>770.728</ele>
        <time>2018-07-24T09:39:24Z</time>
      </trkpt>
      <trkpt lat="41.216739" lon="-6.608554">
        <ele>770.627</ele>
        <time>2018-07-24T09:39:25Z</time>
      </trkpt>
      <trkpt lat="41.216764" lon="-6.608622">
        <ele>770.535</ele>
        <time>2018-07-24T09:39:26Z</time>
      </trkpt>
      <trkpt lat="41.216789" lon="-6.60869">
        <ele>770.478</ele>
        <time>2018-07-24T09:39:27Z</time>
      </trkpt>
      <trkpt lat="41.216814" lon="-6.60876">
        <ele>770.382</ele>
        <time>2018-07-24T09:39:28Z</time>
      </trkpt>
      <trkpt lat="41.216837" lon="-6.608831">
        <ele>770.268</ele>
        <time>2018-07-24T09:39:29Z</time>
      </trkpt>
      <trkpt lat="41.216862" lon="-6.608896">
        <ele>770.162</ele>
        <time>2018-07-24T09:39:30Z</time>
      </trkpt>
      <trkpt lat="41.216882" lon="-6.608969">
        <ele>770.059</ele>
        <time>2018-07-24T09:39:31Z</time>
      </trkpt>
      <trkpt lat="41.216907" lon="-6.609039">
        <ele>769.981</ele>
        <time>2018-07-24T09:39:32Z</time>
      </trkpt>
      <trkpt lat="41.21693" lon="-6.60911">
        <ele>769.915</ele>
        <time>2018-07-24T09:39:33Z</time>
      </trkpt>
      <trkpt lat="41.216954" lon="-6.60918">
        <ele>769.89</ele>
        <time>2018-07-24T09:39:34Z</time>
      </trkpt>
      <trkpt lat="41.216981" lon="-6.609251">
        <ele>769.86</ele>
        <time>2018-07-24T09:39:35Z</time>
      </trkpt>
      <trkpt lat="41.217006" lon="-6.60932">
        <ele>769.806</ele>
        <time>2018-07-24T09:39:36Z</time>
      </trkpt>
      <trkpt lat="41.217029" lon="-6.60939">
        <ele>769.754</ele>
        <time>2018-07-24T09:39:37Z</time>
      </trkpt>
      <trkpt lat="41.217052" lon="-6.609464">
        <ele>769.702</ele>
        <time>2018-07-24T09:39:38Z</time>
      </trkpt>
      <trkpt lat="41.217073" lon="-6.609541">
        <ele>769.58</ele>
        <time>2018-07-24T09:39:39Z</time>
      </trkpt>
      <trkpt lat="41.217097" lon="-6.609615">
        <ele>769.48</ele>
        <time>2018-07-24T09:39:40Z</time>
      </trkpt>
      <trkpt lat="41.217119" lon="-6.609685">
        <ele>769.407</ele>
        <time>2018-07-24T09:39:41Z</time>
      </trkpt>
      <trkpt lat="41.217151" lon="-6.609746">
        <ele>769.352</ele>
        <time>2018-07-24T09:39:42Z</time>
      </trkpt>
      <trkpt lat="41.217182" lon="-6.609802">
        <ele>769.295</ele>
        <time>2018-07-24T09:39:43Z</time>
      </trkpt>
      <trkpt lat="41.217202" lon="-6.609872">
        <ele>769.24</ele>
        <time>2018-07-24T09:39:44Z</time>
      </trkpt>
      <trkpt lat="41.217215" lon="-6.609952">
        <ele>769.194</ele>
        <time>2018-07-24T09:39:45Z</time>
      </trkpt>
      <trkpt lat="41.217237" lon="-6.610021">
        <ele>769.148</ele>
        <time>2018-07-24T09:39:46Z</time>
      </trkpt>
      <trkpt lat="41.217263" lon="-6.610083">
        <ele>769.108</ele>
        <time>2018-07-24T09:39:47Z</time>
      </trkpt>
      <trkpt lat="41.217284" lon="-6.610153">
        <ele>769.078</ele>
        <time>2018-07-24T09:39:48Z</time>
      </trkpt>
      <trkpt lat="41.217305" lon="-6.610221">
        <ele>769.072</ele>
        <time>2018-07-24T09:39:49Z</time>
      </trkpt>
      <trkpt lat="41.217326" lon="-6.610285">
        <ele>769.069</ele>
        <time>2018-07-24T09:39:50Z</time>
      </trkpt>
      <trkpt lat="41.21735" lon="-6.610342">
        <ele>769.028</ele>
        <time>2018-07-24T09:39:51Z</time>
      </trkpt>
      <trkpt lat="41.217369" lon="-6.610407">
        <ele>768.914</ele>
        <time>2018-07-24T09:39:52Z</time>
      </trkpt>
      <trkpt lat="41.217383" lon="-6.610476">
        <ele>768.939</ele>
        <time>2018-07-24T09:39:53Z</time>
      </trkpt>
      <trkpt lat="41.217402" lon="-6.610543">
        <ele>768.951</ele>
        <time>2018-07-24T09:39:54Z</time>
      </trkpt>
      <trkpt lat="41.217424" lon="-6.610603">
        <ele>768.942</ele>
        <time>2018-07-24T09:39:55Z</time>
      </trkpt>
      <trkpt lat="41.217445" lon="-6.610664">
        <ele>768.926</ele>
        <time>2018-07-24T09:39:56Z</time>
      </trkpt>
      <trkpt lat="41.217462" lon="-6.610725">
        <ele>768.921</ele>
        <time>2018-07-24T09:39:57Z</time>
      </trkpt>
      <trkpt lat="41.217476" lon="-6.610787">
        <ele>768.892</ele>
        <time>2018-07-24T09:39:58Z</time>
      </trkpt>
      <trkpt lat="41.217488" lon="-6.610845">
        <ele>768.866</ele>
        <time>2018-07-24T09:39:59Z</time>
      </trkpt>
      <trkpt lat="41.2175" lon="-6.610904">
        <ele>768.835</ele>
        <time>2018-07-24T09:40:00Z</time>
      </trkpt>
      <trkpt lat="41.217512" lon="-6.611021">
        <ele>768.8</ele>
        <time>2018-07-24T09:40:02Z</time>
      </trkpt>
      <trkpt lat="41.217519" lon="-6.611076">
        <ele>768.687</ele>
        <time>2018-07-24T09:40:03Z</time>
      </trkpt>
      <trkpt lat="41.217534" lon="-6.611133">
        <ele>768.613</ele>
        <time>2018-07-24T09:40:04Z</time>
      </trkpt>
      <trkpt lat="41.217551" lon="-6.611191">
        <ele>768.529</ele>
        <time>2018-07-24T09:40:05Z</time>
      </trkpt>
      <trkpt lat="41.217566" lon="-6.61126">
        <ele>768.444</ele>
        <time>2018-07-24T09:40:06Z</time>
      </trkpt>
      <trkpt lat="41.21758" lon="-6.611324">
        <ele>768.394</ele>
        <time>2018-07-24T09:40:07Z</time>
      </trkpt>
      <trkpt lat="41.21761" lon="-6.611429">
        <ele>768.345</ele>
        <time>2018-07-24T09:40:09Z</time>
      </trkpt>
      <trkpt lat="41.217625" lon="-6.611487">
        <ele>768.297</ele>
        <time>2018-07-24T09:40:10Z</time>
      </trkpt>
      <trkpt lat="41.217641" lon="-6.611533">
        <ele>768.167</ele>
        <time>2018-07-24T09:40:11Z</time>
      </trkpt>
      <trkpt lat="41.217654" lon="-6.611575">
        <ele>768.042</ele>
        <time>2018-07-24T09:40:12Z</time>
      </trkpt>
      <trkpt lat="41.217694" lon="-6.611704">
        <ele>768.003</ele>
        <time>2018-07-24T09:40:15Z</time>
      </trkpt>
      <trkpt lat="41.217712" lon="-6.611788">
        <ele>767.592</ele>
        <time>2018-07-24T09:40:17Z</time>
      </trkpt>
      <trkpt lat="41.217722" lon="-6.611858">
        <ele>767.562</ele>
        <time>2018-07-24T09:40:19Z</time>
      </trkpt>
      <trkpt lat="41.217736" lon="-6.611927">
        <ele>767.533</ele>
        <time>2018-07-24T09:40:21Z</time>
      </trkpt>
      <trkpt lat="41.217742" lon="-6.611962">
        <ele>767.239</ele>
        <time>2018-07-24T09:40:22Z</time>
      </trkpt>
      <trkpt lat="41.217749" lon="-6.611991">
        <ele>767.215</ele>
        <time>2018-07-24T09:40:23Z</time>
      </trkpt>
      <trkpt lat="41.217753" lon="-6.612022">
        <ele>767.192</ele>
        <time>2018-07-24T09:40:24Z</time>
      </trkpt>
      <trkpt lat="41.217761" lon="-6.612127">
        <ele>766.966</ele>
        <time>2018-07-24T09:40:27Z</time>
      </trkpt>
      <trkpt lat="41.217771" lon="-6.61224">
        <ele>766.677</ele>
        <time>2018-07-24T09:40:30Z</time>
      </trkpt>
      <trkpt lat="41.217774" lon="-6.612287">
        <ele>766.577</ele>
        <time>2018-07-24T09:40:31Z</time>
      </trkpt>
      <trkpt lat="41.217785" lon="-6.612375">
        <ele>766.498</ele>
        <time>2018-07-24T09:40:33Z</time>
      </trkpt>
      <trkpt lat="41.217792" lon="-6.612428">
        <ele>766.435</ele>
        <time>2018-07-24T09:40:34Z</time>
      </trkpt>
      <trkpt lat="41.217798" lon="-6.612479">
        <ele>766.429</ele>
        <time>2018-07-24T09:40:35Z</time>
      </trkpt>
      <trkpt lat="41.217806" lon="-6.612533">
        <ele>766.423</ele>
        <time>2018-07-24T09:40:36Z</time>
      </trkpt>
      <trkpt lat="41.217815" lon="-6.612586">
        <ele>766.368</ele>
        <time>2018-07-24T09:40:37Z</time>
      </trkpt>
      <trkpt lat="41.217823" lon="-6.612633">
        <ele>766.322</ele>
        <time>2018-07-24T09:40:38Z</time>
      </trkpt>
      <trkpt lat="41.21783" lon="-6.612736">
        <ele>766.293</ele>
        <time>2018-07-24T09:40:40Z</time>
      </trkpt>
      <trkpt lat="41.217837" lon="-6.61284">
        <ele>766.265</ele>
        <time>2018-07-24T09:40:42Z</time>
      </trkpt>
      <trkpt lat="41.217838" lon="-6.612895">
        <ele>766.219</ele>
        <time>2018-07-24T09:40:43Z</time>
      </trkpt>
      <trkpt lat="41.217839" lon="-6.612949">
        <ele>766.204</ele>
        <time>2018-07-24T09:40:44Z</time>
      </trkpt>
      <trkpt lat="41.21784" lon="-6.613007">
        <ele>766.185</ele>
        <time>2018-07-24T09:40:45Z</time>
      </trkpt>
      <trkpt lat="41.217842" lon="-6.613058">
        <ele>766.182</ele>
        <time>2018-07-24T09:40:46Z</time>
      </trkpt>
      <trkpt lat="41.217845" lon="-6.613107">
        <ele>766.18</ele>
        <time>2018-07-24T09:40:47Z</time>
      </trkpt>
      <trkpt lat="41.217845" lon="-6.61316">
        <ele>766.178</ele>
        <time>2018-07-24T09:40:48Z</time>
      </trkpt>
      <trkpt lat="41.217844" lon="-6.613213">
        <ele>766.176</ele>
        <time>2018-07-24T09:40:49Z</time>
      </trkpt>
      <trkpt lat="41.217843" lon="-6.613271">
        <ele>766.174</ele>
        <time>2018-07-24T09:40:50Z</time>
      </trkpt>
      <trkpt lat="41.217841" lon="-6.613329">
        <ele>766.167</ele>
        <time>2018-07-24T09:40:51Z</time>
      </trkpt>
      <trkpt lat="41.21783" lon="-6.61344">
        <ele>766.162</ele>
        <time>2018-07-24T09:40:53Z</time>
      </trkpt>
      <trkpt lat="41.217825" lon="-6.613494">
        <ele>766.157</ele>
        <time>2018-07-24T09:40:54Z</time>
      </trkpt>
      <trkpt lat="41.217823" lon="-6.613558">
        <ele>766.155</ele>
        <time>2018-07-24T09:40:55Z</time>
      </trkpt>
      <trkpt lat="41.217823" lon="-6.613613">
        <ele>766.152</ele>
        <time>2018-07-24T09:40:56Z</time>
      </trkpt>
      <trkpt lat="41.217798" lon="-6.613767">
        <ele>766.149</ele>
        <time>2018-07-24T09:40:59Z</time>
      </trkpt>
      <trkpt lat="41.217796" lon="-6.613846">
        <ele>766.145</ele>
        <time>2018-07-24T09:41:01Z</time>
      </trkpt>
      <trkpt lat="41.217795" lon="-6.613886">
        <ele>766.141</ele>
        <time>2018-07-24T09:41:02Z</time>
      </trkpt>
      <trkpt lat="41.217793" lon="-6.613925">
        <ele>766.138</ele>
        <time>2018-07-24T09:41:03Z</time>
      </trkpt>
      <trkpt lat="41.217783" lon="-6.613999">
        <ele>766.102</ele>
        <time>2018-07-24T09:41:05Z</time>
      </trkpt>
      <trkpt lat="41.217778" lon="-6.61406">
        <ele>766.069</ele>
        <time>2018-07-24T09:41:07Z</time>
      </trkpt>
      <trkpt lat="41.217769" lon="-6.614127">
        <ele>766.043</ele>
        <time>2018-07-24T09:41:09Z</time>
      </trkpt>
      <trkpt lat="41.217764" lon="-6.614166">
        <ele>766.041</ele>
        <time>2018-07-24T09:41:10Z</time>
      </trkpt>
      <trkpt lat="41.217759" lon="-6.614205">
        <ele>766.024</ele>
        <time>2018-07-24T09:41:11Z</time>
      </trkpt>
      <trkpt lat="41.217754" lon="-6.614246">
        <ele>766.009</ele>
        <time>2018-07-24T09:41:12Z</time>
      </trkpt>
      <trkpt lat="41.217748" lon="-6.614287">
        <ele>765.996</ele>
        <time>2018-07-24T09:41:13Z</time>
      </trkpt>
      <trkpt lat="41.217743" lon="-6.614332">
        <ele>765.982</ele>
        <time>2018-07-24T09:41:14Z</time>
      </trkpt>
      <trkpt lat="41.217737" lon="-6.614376">
        <ele>765.967</ele>
        <time>2018-07-24T09:41:15Z</time>
      </trkpt>
      <trkpt lat="41.21773" lon="-6.614426">
        <ele>765.952</ele>
        <time>2018-07-24T09:41:16Z</time>
      </trkpt>
      <trkpt lat="41.217722" lon="-6.61448">
        <ele>765.936</ele>
        <time>2018-07-24T09:41:17Z</time>
      </trkpt>
      <trkpt lat="41.217714" lon="-6.614535">
        <ele>765.916</ele>
        <time>2018-07-24T09:41:18Z</time>
      </trkpt>
      <trkpt lat="41.217706" lon="-6.614589">
        <ele>765.905</ele>
        <time>2018-07-24T09:41:19Z</time>
      </trkpt>
      <trkpt lat="41.217697" lon="-6.614641">
        <ele>765.907</ele>
        <time>2018-07-24T09:41:20Z</time>
      </trkpt>
      <trkpt lat="41.217691" lon="-6.614696">
        <ele>765.909</ele>
        <time>2018-07-24T09:41:21Z</time>
      </trkpt>
      <trkpt lat="41.217682" lon="-6.614754">
        <ele>765.906</ele>
        <time>2018-07-24T09:41:22Z</time>
      </trkpt>
      <trkpt lat="41.217674" lon="-6.614806">
        <ele>765.895</ele>
        <time>2018-07-24T09:41:23Z</time>
      </trkpt>
      <trkpt lat="41.217664" lon="-6.614859">
        <ele>765.891</ele>
        <time>2018-07-24T09:41:24Z</time>
      </trkpt>
      <trkpt lat="41.217654" lon="-6.614912">
        <ele>765.887</ele>
        <time>2018-07-24T09:41:25Z</time>
      </trkpt>
      <trkpt lat="41.217645" lon="-6.614963">
        <ele>765.878</ele>
        <time>2018-07-24T09:41:26Z</time>
      </trkpt>
      <trkpt lat="41.217636" lon="-6.615015">
        <ele>765.876</ele>
        <time>2018-07-24T09:41:27Z</time>
      </trkpt>
      <trkpt lat="41.21763" lon="-6.615076">
        <ele>765.874</ele>
        <time>2018-07-24T09:41:28Z</time>
      </trkpt>
      <trkpt lat="41.217622" lon="-6.615142">
        <ele>765.877</ele>
        <time>2018-07-24T09:41:29Z</time>
      </trkpt>
      <trkpt lat="41.217617" lon="-6.615205">
        <ele>765.874</ele>
        <time>2018-07-24T09:41:30Z</time>
      </trkpt>
      <trkpt lat="41.217613" lon="-6.615274">
        <ele>765.869</ele>
        <time>2018-07-24T09:41:31Z</time>
      </trkpt>
      <trkpt lat="41.217608" lon="-6.615348">
        <ele>765.853</ele>
        <time>2018-07-24T09:41:32Z</time>
      </trkpt>
      <trkpt lat="41.217605" lon="-6.615414">
        <ele>765.822</ele>
        <time>2018-07-24T09:41:33Z</time>
      </trkpt>
      <trkpt lat="41.217604" lon="-6.615479">
        <ele>765.79</ele>
        <time>2018-07-24T09:41:34Z</time>
      </trkpt>
      <trkpt lat="41.217602" lon="-6.615548">
        <ele>765.757</ele>
        <time>2018-07-24T09:41:35Z</time>
      </trkpt>
      <trkpt lat="41.2176" lon="-6.615618">
        <ele>765.724</ele>
        <time>2018-07-24T09:41:36Z</time>
      </trkpt>
      <trkpt lat="41.217597" lon="-6.615686">
        <ele>765.693</ele>
        <time>2018-07-24T09:41:37Z</time>
      </trkpt>
      <trkpt lat="41.217603" lon="-6.61575">
        <ele>765.659</ele>
        <time>2018-07-24T09:41:38Z</time>
      </trkpt>
      <trkpt lat="41.217613" lon="-6.615817">
        <ele>765.634</ele>
        <time>2018-07-24T09:41:39Z</time>
      </trkpt>
      <trkpt lat="41.217627" lon="-6.615879">
        <ele>765.589</ele>
        <time>2018-07-24T09:41:40Z</time>
      </trkpt>
      <trkpt lat="41.217646" lon="-6.615942">
        <ele>765.557</ele>
        <time>2018-07-24T09:41:41Z</time>
      </trkpt>
      <trkpt lat="41.217669" lon="-6.616011">
        <ele>765.525</ele>
        <time>2018-07-24T09:41:42Z</time>
      </trkpt>
      <trkpt lat="41.217684" lon="-6.616071">
        <ele>765.497</ele>
        <time>2018-07-24T09:41:43Z</time>
      </trkpt>
      <trkpt lat="41.217696" lon="-6.616127">
        <ele>765.471</ele>
        <time>2018-07-24T09:41:44Z</time>
      </trkpt>
      <trkpt lat="41.21771" lon="-6.616185">
        <ele>765.449</ele>
        <time>2018-07-24T09:41:45Z</time>
      </trkpt>
      <trkpt lat="41.217736" lon="-6.616243">
        <ele>765.448</ele>
        <time>2018-07-24T09:41:46Z</time>
      </trkpt>
      <trkpt lat="41.217771" lon="-6.616298">
        <ele>765.437</ele>
        <time>2018-07-24T09:41:47Z</time>
      </trkpt>
      <trkpt lat="41.217804" lon="-6.616353">
        <ele>765.43</ele>
        <time>2018-07-24T09:41:48Z</time>
      </trkpt>
      <trkpt lat="41.217827" lon="-6.61642">
        <ele>765.423</ele>
        <time>2018-07-24T09:41:49Z</time>
      </trkpt>
      <trkpt lat="41.217843" lon="-6.616499">
        <ele>765.416</ele>
        <time>2018-07-24T09:41:50Z</time>
      </trkpt>
      <trkpt lat="41.217852" lon="-6.616579">
        <ele>765.407</ele>
        <time>2018-07-24T09:41:51Z</time>
      </trkpt>
      <trkpt lat="41.217869" lon="-6.616637">
        <ele>765.404</ele>
        <time>2018-07-24T09:41:52Z</time>
      </trkpt>
      <trkpt lat="41.217897" lon="-6.616685">
        <ele>765.372</ele>
        <time>2018-07-24T09:41:53Z</time>
      </trkpt>
      <trkpt lat="41.217934" lon="-6.616791">
        <ele>765.37</ele>
        <time>2018-07-24T09:41:55Z</time>
      </trkpt>
      <trkpt lat="41.217959" lon="-6.616856">
        <ele>765.363</ele>
        <time>2018-07-24T09:41:57Z</time>
      </trkpt>
      <trkpt lat="41.217976" lon="-6.616951">
        <ele>765.355</ele>
        <time>2018-07-24T09:42:00Z</time>
      </trkpt>
      <trkpt lat="41.217966" lon="-6.617027">
        <ele>765.343</ele>
        <time>2018-07-24T09:42:02Z</time>
      </trkpt>
      <trkpt lat="41.217988" lon="-6.617104">
        <ele>765.322</ele>
        <time>2018-07-24T09:42:04Z</time>
      </trkpt>
      <trkpt lat="41.218007" lon="-6.617206">
        <ele>765.315</ele>
        <time>2018-07-24T09:42:06Z</time>
      </trkpt>
      <trkpt lat="41.218037" lon="-6.617346">
        <ele>765.301</ele>
        <time>2018-07-24T09:42:09Z</time>
      </trkpt>
      <trkpt lat="41.218045" lon="-6.617391">
        <ele>765.282</ele>
        <time>2018-07-24T09:42:10Z</time>
      </trkpt>
      <trkpt lat="41.21805" lon="-6.617432">
        <ele>765.269</ele>
        <time>2018-07-24T09:42:11Z</time>
      </trkpt>
      <trkpt lat="41.218057" lon="-6.617521">
        <ele>765.238</ele>
        <time>2018-07-24T09:42:13Z</time>
      </trkpt>
      <trkpt lat="41.218072" lon="-6.617613">
        <ele>765.227</ele>
        <time>2018-07-24T09:42:15Z</time>
      </trkpt>
      <trkpt lat="41.218071" lon="-6.617678">
        <ele>765.215</ele>
        <time>2018-07-24T09:42:17Z</time>
      </trkpt>
      <trkpt lat="41.218082" lon="-6.617788">
        <ele>765.203</ele>
        <time>2018-07-24T09:42:20Z</time>
      </trkpt>
      <trkpt lat="41.218105" lon="-6.617925">
        <ele>765.201</ele>
        <time>2018-07-24T09:42:23Z</time>
      </trkpt>
      <trkpt lat="41.218111" lon="-6.61797">
        <ele>765.133</ele>
        <time>2018-07-24T09:42:24Z</time>
      </trkpt>
      <trkpt lat="41.218102" lon="-6.618069">
        <ele>763.981</ele>
        <time>2018-07-24T09:42:26Z</time>
      </trkpt>
      <trkpt lat="41.218066" lon="-6.618204">
        <ele>763.975</ele>
        <time>2018-07-24T09:42:29Z</time>
      </trkpt>
      <trkpt lat="41.218036" lon="-6.618287">
        <ele>763.967</ele>
        <time>2018-07-24T09:42:31Z</time>
      </trkpt>
      <trkpt lat="41.218057" lon="-6.618392">
        <ele>763.964</ele>
        <time>2018-07-24T09:42:35Z</time>
      </trkpt>
      <trkpt lat="41.218086" lon="-6.61844">
        <ele>763.96</ele>
        <time>2018-07-24T09:42:36Z</time>
      </trkpt>
      <trkpt lat="41.218104" lon="-6.618474">
        <ele>763.957</ele>
        <time>2018-07-24T09:42:37Z</time>
      </trkpt>
      <trkpt lat="41.21812" lon="-6.618504">
        <ele>763.925</ele>
        <time>2018-07-24T09:42:38Z</time>
      </trkpt>
      <trkpt lat="41.218136" lon="-6.618537">
        <ele>763.921</ele>
        <time>2018-07-24T09:42:40Z</time>
      </trkpt>
      <trkpt lat="41.218162" lon="-6.618585">
        <ele>763.917</ele>
        <time>2018-07-24T09:42:49Z</time>
      </trkpt>
      <trkpt lat="41.218209" lon="-6.618619">
        <ele>763.913</ele>
        <time>2018-07-24T09:44:07Z</time>
      </trkpt>
      <trkpt lat="41.218239" lon="-6.618688">
        <ele>763.91</ele>
        <time>2018-07-24T09:44:09Z</time>
      </trkpt>
      <trkpt lat="41.21827" lon="-6.618744">
        <ele>763.901</ele>
        <time>2018-07-24T09:44:11Z</time>
      </trkpt>
      <trkpt lat="41.218288" lon="-6.618781">
        <ele>763.897</ele>
        <time>2018-07-24T09:44:12Z</time>
      </trkpt>
      <trkpt lat="41.218306" lon="-6.618819">
        <ele>763.861</ele>
        <time>2018-07-24T09:44:13Z</time>
      </trkpt>
      <trkpt lat="41.218323" lon="-6.618852">
        <ele>763.859</ele>
        <time>2018-07-24T09:44:14Z</time>
      </trkpt>
      <trkpt lat="41.218341" lon="-6.618894">
        <ele>763.859</ele>
        <time>2018-07-24T09:44:15Z</time>
      </trkpt>
      <trkpt lat="41.218368" lon="-6.618944">
        <ele>763.857</ele>
        <time>2018-07-24T09:44:16Z</time>
      </trkpt>
      <trkpt lat="41.218394" lon="-6.61899">
        <ele>763.859</ele>
        <time>2018-07-24T09:44:17Z</time>
      </trkpt>
      <trkpt lat="41.218419" lon="-6.619028">
        <ele>763.858</ele>
        <time>2018-07-24T09:44:18Z</time>
      </trkpt>
      <trkpt lat="41.218443" lon="-6.619064">
        <ele>763.85</ele>
        <time>2018-07-24T09:44:19Z</time>
      </trkpt>
      <trkpt lat="41.218503" lon="-6.619088">
        <ele>763.846</ele>
        <time>2018-07-24T09:44:21Z</time>
      </trkpt>
      <trkpt lat="41.218538" lon="-6.619097">
        <ele>763.831</ele>
        <time>2018-07-24T09:44:22Z</time>
      </trkpt>
      <trkpt lat="41.218561" lon="-6.619175">
        <ele>763.8</ele>
        <time>2018-07-24T09:44:24Z</time>
      </trkpt>
      <trkpt lat="41.218574" lon="-6.619224">
        <ele>763.476</ele>
        <time>2018-07-24T09:44:25Z</time>
      </trkpt>
      <trkpt lat="41.218606" lon="-6.619285">
        <ele>763.207</ele>
        <time>2018-07-24T09:44:27Z</time>
      </trkpt>
      <trkpt lat="41.218632" lon="-6.619332">
        <ele>763.159</ele>
        <time>2018-07-24T09:44:29Z</time>
      </trkpt>
      <trkpt lat="41.218645" lon="-6.619383">
        <ele>763.089</ele>
        <time>2018-07-24T09:44:36Z</time>
      </trkpt>
      <trkpt lat="41.218689" lon="-6.619405">
        <ele>763.047</ele>
        <time>2018-07-24T09:44:47Z</time>
      </trkpt>
      <trkpt lat="41.218754" lon="-6.619427">
        <ele>762.806</ele>
        <time>2018-07-24T09:44:51Z</time>
      </trkpt>
      <trkpt lat="41.218786" lon="-6.619439">
        <ele>762.741</ele>
        <time>2018-07-24T09:44:52Z</time>
      </trkpt>
      <trkpt lat="41.218831" lon="-6.619493">
        <ele>762.616</ele>
        <time>2018-07-24T09:44:55Z</time>
      </trkpt>
      <trkpt lat="41.218843" lon="-6.619507">
        <ele>762.414</ele>
        <time>2018-07-24T09:45:02Z</time>
      </trkpt>
      <trkpt lat="41.218904" lon="-6.619519">
        <ele>762.364</ele>
        <time>2018-07-24T09:46:21Z</time>
      </trkpt>
      <trkpt lat="41.21891" lon="-6.619599">
        <ele>762.311</ele>
        <time>2018-07-24T09:46:33Z</time>
      </trkpt>
      <trkpt lat="41.218913" lon="-6.619635">
        <ele>762.26</ele>
        <time>2018-07-24T09:46:35Z</time>
      </trkpt>
      <trkpt lat="41.218894" lon="-6.619705">
        <ele>762.19</ele>
        <time>2018-07-24T09:46:38Z</time>
      </trkpt>
      <trkpt lat="41.218871" lon="-6.619764">
        <ele>762.205</ele>
        <time>2018-07-24T09:46:40Z</time>
      </trkpt>
      <trkpt lat="41.218864" lon="-6.619896">
        <ele>762.204</ele>
        <time>2018-07-24T09:46:43Z</time>
      </trkpt>
      <trkpt lat="41.218834" lon="-6.619959">
        <ele>762.188</ele>
        <time>2018-07-24T09:46:47Z</time>
      </trkpt>
      <trkpt lat="41.218777" lon="-6.619991">
        <ele>762.164</ele>
        <time>2018-07-24T09:46:56Z</time>
      </trkpt>
      <trkpt lat="41.218838" lon="-6.620005">
        <ele>762.145</ele>
        <time>2018-07-24T09:47:14Z</time>
      </trkpt>
      <trkpt lat="41.218901" lon="-6.620054">
        <ele>762.128</ele>
        <time>2018-07-24T09:47:17Z</time>
      </trkpt>
      <trkpt lat="41.218938" lon="-6.620107">
        <ele>762.11</ele>
        <time>2018-07-24T09:47:20Z</time>
      </trkpt>
      <trkpt lat="41.218955" lon="-6.620166">
        <ele>762.101</ele>
        <time>2018-07-24T09:47:23Z</time>
      </trkpt>
      <trkpt lat="41.218977" lon="-6.620204">
        <ele>762.094</ele>
        <time>2018-07-24T09:47:31Z</time>
      </trkpt>
      <trkpt lat="41.218892" lon="-6.620272">
        <ele>762.059</ele>
        <time>2018-07-24T09:52:18Z</time>
      </trkpt>
      <trkpt lat="41.218863" lon="-6.62016">
        <ele>762.039</ele>
        <time>2018-07-24T09:52:24Z</time>
      </trkpt>
      <trkpt lat="41.218847" lon="-6.620087">
        <ele>761.99</ele>
        <time>2018-07-24T09:52:28Z</time>
      </trkpt>
      <trkpt lat="41.218799" lon="-6.620046">
        <ele>761.96</ele>
        <time>2018-07-24T09:52:32Z</time>
      </trkpt>
      <trkpt lat="41.218751" lon="-6.62002">
        <ele>761.933</ele>
        <time>2018-07-24T09:52:35Z</time>
      </trkpt>
      <trkpt lat="41.218702" lon="-6.620018">
        <ele>761.917</ele>
        <time>2018-07-24T09:52:38Z</time>
      </trkpt>
      <trkpt lat="41.218655" lon="-6.619971">
        <ele>761.894</ele>
        <time>2018-07-24T09:52:41Z</time>
      </trkpt>
      <trkpt lat="41.218635" lon="-6.619948">
        <ele>761.869</ele>
        <time>2018-07-24T09:52:42Z</time>
      </trkpt>
      <trkpt lat="41.218616" lon="-6.619927">
        <ele>761.845</ele>
        <time>2018-07-24T09:52:43Z</time>
      </trkpt>
      <trkpt lat="41.218592" lon="-6.619902">
        <ele>761.819</ele>
        <time>2018-07-24T09:52:47Z</time>
      </trkpt>
      <trkpt lat="41.218545" lon="-6.619911">
        <ele>761.796</ele>
        <time>2018-07-24T09:52:49Z</time>
      </trkpt>
      <trkpt lat="41.218483" lon="-6.619907">
        <ele>761.789</ele>
        <time>2018-07-24T09:52:54Z</time>
      </trkpt>
      <trkpt lat="41.218419" lon="-6.619919">
        <ele>761.776</ele>
        <time>2018-07-24T09:52:57Z</time>
      </trkpt>
      <trkpt lat="41.218369" lon="-6.619914">
        <ele>761.764</ele>
        <time>2018-07-24T09:53:00Z</time>
      </trkpt>
      <trkpt lat="41.218341" lon="-6.619908">
        <ele>761.758</ele>
        <time>2018-07-24T09:53:02Z</time>
      </trkpt>
      <trkpt lat="41.218283" lon="-6.619918">
        <ele>761.747</ele>
        <time>2018-07-24T09:53:05Z</time>
      </trkpt>
      <trkpt lat="41.21823" lon="-6.6199">
        <ele>761.727</ele>
        <time>2018-07-24T09:53:08Z</time>
      </trkpt>
      <trkpt lat="41.21818" lon="-6.619908">
        <ele>761.719</ele>
        <time>2018-07-24T09:53:11Z</time>
      </trkpt>
      <trkpt lat="41.218128" lon="-6.619916">
        <ele>761.705</ele>
        <time>2018-07-24T09:53:14Z</time>
      </trkpt>
      <trkpt lat="41.218073" lon="-6.619915">
        <ele>761.693</ele>
        <time>2018-07-24T09:53:17Z</time>
      </trkpt>
      <trkpt lat="41.218048" lon="-6.619917">
        <ele>761.679</ele>
        <time>2018-07-24T09:53:18Z</time>
      </trkpt>
      <trkpt lat="41.217999" lon="-6.61991">
        <ele>761.657</ele>
        <time>2018-07-24T09:53:20Z</time>
      </trkpt>
      <trkpt lat="41.217954" lon="-6.619917">
        <ele>761.649</ele>
        <time>2018-07-24T09:53:22Z</time>
      </trkpt>
      <trkpt lat="41.217929" lon="-6.619921">
        <ele>761.638</ele>
        <time>2018-07-24T09:53:23Z</time>
      </trkpt>
      <trkpt lat="41.217894" lon="-6.619923">
        <ele>761.631</ele>
        <time>2018-07-24T09:53:25Z</time>
      </trkpt>
      <trkpt lat="41.217841" lon="-6.619931">
        <ele>761.626</ele>
        <time>2018-07-24T09:53:29Z</time>
      </trkpt>
      <trkpt lat="41.217816" lon="-6.619937">
        <ele>761.619</ele>
        <time>2018-07-24T09:53:31Z</time>
      </trkpt>
      <trkpt lat="41.217767" lon="-6.619941">
        <ele>761.613</ele>
        <time>2018-07-24T09:53:34Z</time>
      </trkpt>
      <trkpt lat="41.217728" lon="-6.619947">
        <ele>761.606</ele>
        <time>2018-07-24T09:53:36Z</time>
      </trkpt>
      <trkpt lat="41.21767" lon="-6.619939">
        <ele>761.601</ele>
        <time>2018-07-24T09:53:39Z</time>
      </trkpt>
      <trkpt lat="41.217625" lon="-6.619907">
        <ele>761.598</ele>
        <time>2018-07-24T09:53:44Z</time>
      </trkpt>
      <trkpt lat="41.217592" lon="-6.619878">
        <ele>761.594</ele>
        <time>2018-07-24T09:53:46Z</time>
      </trkpt>
      <trkpt lat="41.217538" lon="-6.619862">
        <ele>761.591</ele>
        <time>2018-07-24T09:53:49Z</time>
      </trkpt>
      <trkpt lat="41.217497" lon="-6.619849">
        <ele>761.587</ele>
        <time>2018-07-24T09:53:51Z</time>
      </trkpt>
      <trkpt lat="41.217466" lon="-6.619837">
        <ele>761.586</ele>
        <time>2018-07-24T09:53:53Z</time>
      </trkpt>
      <trkpt lat="41.217405" lon="-6.619829">
        <ele>761.587</ele>
        <time>2018-07-24T09:53:55Z</time>
      </trkpt>
      <trkpt lat="41.217353" lon="-6.619814">
        <ele>761.582</ele>
        <time>2018-07-24T09:53:57Z</time>
      </trkpt>
      <trkpt lat="41.217311" lon="-6.619801">
        <ele>761.577</ele>
        <time>2018-07-24T09:53:59Z</time>
      </trkpt>
      <trkpt lat="41.217258" lon="-6.619801">
        <ele>761.57</ele>
        <time>2018-07-24T09:54:01Z</time>
      </trkpt>
      <trkpt lat="41.217231" lon="-6.619803">
        <ele>761.565</ele>
        <time>2018-07-24T09:54:02Z</time>
      </trkpt>
      <trkpt lat="41.217173" lon="-6.619813">
        <ele>761.563</ele>
        <time>2018-07-24T09:54:04Z</time>
      </trkpt>
      <trkpt lat="41.217123" lon="-6.619813">
        <ele>761.566</ele>
        <time>2018-07-24T09:54:06Z</time>
      </trkpt>
      <trkpt lat="41.217077" lon="-6.619805">
        <ele>761.572</ele>
        <time>2018-07-24T09:54:08Z</time>
      </trkpt>
      <trkpt lat="41.217034" lon="-6.619793">
        <ele>761.582</ele>
        <time>2018-07-24T09:54:10Z</time>
      </trkpt>
      <trkpt lat="41.216991" lon="-6.619771">
        <ele>761.595</ele>
        <time>2018-07-24T09:54:12Z</time>
      </trkpt>
      <trkpt lat="41.216945" lon="-6.61978">
        <ele>761.611</ele>
        <time>2018-07-24T09:54:15Z</time>
      </trkpt>
      <trkpt lat="41.216893" lon="-6.619789">
        <ele>761.635</ele>
        <time>2018-07-24T09:54:18Z</time>
      </trkpt>
      <trkpt lat="41.216844" lon="-6.619775">
        <ele>761.682</ele>
        <time>2018-07-24T09:54:22Z</time>
      </trkpt>
      <trkpt lat="41.216798" lon="-6.619764">
        <ele>761.729</ele>
        <time>2018-07-24T09:54:25Z</time>
      </trkpt>
      <trkpt lat="41.216743" lon="-6.619745">
        <ele>761.745</ele>
        <time>2018-07-24T09:54:28Z</time>
      </trkpt>
      <trkpt lat="41.216698" lon="-6.619743">
        <ele>761.779</ele>
        <time>2018-07-24T09:54:30Z</time>
      </trkpt>
      <trkpt lat="41.216657" lon="-6.619737">
        <ele>761.813</ele>
        <time>2018-07-24T09:54:32Z</time>
      </trkpt>
      <trkpt lat="41.216609" lon="-6.619726">
        <ele>761.868</ele>
        <time>2018-07-24T09:54:35Z</time>
      </trkpt>
      <trkpt lat="41.216556" lon="-6.619737">
        <ele>761.907</ele>
        <time>2018-07-24T09:54:38Z</time>
      </trkpt>
      <trkpt lat="41.216522" lon="-6.619743">
        <ele>761.951</ele>
        <time>2018-07-24T09:54:40Z</time>
      </trkpt>
      <trkpt lat="41.216488" lon="-6.619748">
        <ele>761.994</ele>
        <time>2018-07-24T09:54:42Z</time>
      </trkpt>
      <trkpt lat="41.216446" lon="-6.619781">
        <ele>762.037</ele>
        <time>2018-07-24T09:54:45Z</time>
      </trkpt>
      <trkpt lat="41.216396" lon="-6.619796">
        <ele>762.06</ele>
        <time>2018-07-24T09:54:48Z</time>
      </trkpt>
      <trkpt lat="41.21637" lon="-6.619802">
        <ele>762.138</ele>
        <time>2018-07-24T09:54:49Z</time>
      </trkpt>
      <trkpt lat="41.216321" lon="-6.619813">
        <ele>762.221</ele>
        <time>2018-07-24T09:54:51Z</time>
      </trkpt>
      <trkpt lat="41.216276" lon="-6.619845">
        <ele>762.281</ele>
        <time>2018-07-24T09:54:53Z</time>
      </trkpt>
      <trkpt lat="41.216214" lon="-6.619877">
        <ele>762.374</ele>
        <time>2018-07-24T09:54:56Z</time>
      </trkpt>
      <trkpt lat="41.216169" lon="-6.619898">
        <ele>762.471</ele>
        <time>2018-07-24T09:54:58Z</time>
      </trkpt>
      <trkpt lat="41.216132" lon="-6.619919">
        <ele>762.504</ele>
        <time>2018-07-24T09:55:00Z</time>
      </trkpt>
      <trkpt lat="41.216095" lon="-6.61994">
        <ele>762.603</ele>
        <time>2018-07-24T09:55:02Z</time>
      </trkpt>
      <trkpt lat="41.216059" lon="-6.619963">
        <ele>762.705</ele>
        <time>2018-07-24T09:55:04Z</time>
      </trkpt>
      <trkpt lat="41.216037" lon="-6.619976">
        <ele>762.776</ele>
        <time>2018-07-24T09:55:05Z</time>
      </trkpt>
      <trkpt lat="41.215981" lon="-6.620005">
        <ele>762.88</ele>
        <time>2018-07-24T09:55:08Z</time>
      </trkpt>
      <trkpt lat="41.215931" lon="-6.62004">
        <ele>762.95</ele>
        <time>2018-07-24T09:55:11Z</time>
      </trkpt>
      <trkpt lat="41.215892" lon="-6.620062">
        <ele>762.991</ele>
        <time>2018-07-24T09:55:13Z</time>
      </trkpt>
      <trkpt lat="41.215835" lon="-6.620079">
        <ele>762.991</ele>
        <time>2018-07-24T09:55:16Z</time>
      </trkpt>
      <trkpt lat="41.215779" lon="-6.620083">
        <ele>762.991</ele>
        <time>2018-07-24T09:55:19Z</time>
      </trkpt>
      <trkpt lat="41.215754" lon="-6.620083">
        <ele>763.402</ele>
        <time>2018-07-24T09:55:20Z</time>
      </trkpt>
      <trkpt lat="41.215699" lon="-6.62009">
        <ele>795.367</ele>
        <time>2018-07-24T09:55:23Z</time>
      </trkpt>
      <trkpt lat="41.215656" lon="-6.620073">
        <ele>795.471</ele>
        <time>2018-07-24T09:55:26Z</time>
      </trkpt>
      <trkpt lat="41.215614" lon="-6.620059">
        <ele>795.485</ele>
        <time>2018-07-24T09:55:28Z</time>
      </trkpt>
      <trkpt lat="41.215568" lon="-6.620035">
        <ele>795.492</ele>
        <time>2018-07-24T09:55:31Z</time>
      </trkpt>
      <trkpt lat="41.215535" lon="-6.620015">
        <ele>795.505</ele>
        <time>2018-07-24T09:55:33Z</time>
      </trkpt>
      <trkpt lat="41.215508" lon="-6.62">
        <ele>795.51</ele>
        <time>2018-07-24T09:55:36Z</time>
      </trkpt>
      <trkpt lat="41.215508" lon="-6.62">
        <ele>795.522</ele>
        <time>2018-07-24T09:55:44Z</time>
      </trkpt>
      <trkpt lat="41.215508" lon="-6.62">
        <ele>795.527</ele>
        <time>2018-07-24T09:55:45Z</time>
      </trkpt>
      <trkpt lat="41.215508" lon="-6.62">
        <ele>795.536</ele>
        <time>2018-07-24T09:55:52Z</time>
      </trkpt>
      <trkpt lat="41.215508" lon="-6.62">
        <ele>795.545</ele>
        <time>2018-07-24T09:55:53Z</time>
      </trkpt>
      <trkpt lat="41.215471" lon="-6.619947">
        <ele>795.55</ele>
        <time>2018-07-24T09:55:53Z</time>
      </trkpt>
      <trkpt lat="41.215471" lon="-6.619947">
        <ele>795.554</ele>
        <time>2018-07-24T09:55:55Z</time>
      </trkpt>
      <trkpt lat="41.215471" lon="-6.619947">
        <ele>795.558</ele>
        <time>2018-07-24T09:55:56Z</time>
      </trkpt>
      <trkpt lat="41.215471" lon="-6.619947">
        <ele>795.563</ele>
        <time>2018-07-24T09:55:56Z</time>
      </trkpt>
      <trkpt lat="41.215471" lon="-6.619947">
        <ele>795.571</ele>
        <time>2018-07-24T10:01:17Z</time>
      </trkpt>
      <trkpt lat="41.210475" lon="-6.620667">
        <ele>795.574</ele>
        <time>2018-07-24T10:01:17Z</time>
      </trkpt>
      <trkpt lat="41.210466" lon="-6.620728">
        <ele>795.577</ele>
        <time>2018-07-24T10:01:36Z</time>
      </trkpt>
      <trkpt lat="41.210479" lon="-6.620792">
        <ele>795.584</ele>
        <time>2018-07-24T10:01:38Z</time>
      </trkpt>
      <trkpt lat="41.210487" lon="-6.620827">
        <ele>795.591</ele>
        <time>2018-07-24T10:01:39Z</time>
      </trkpt>
      <trkpt lat="41.21049" lon="-6.620899">
        <ele>795.599</ele>
        <time>2018-07-24T10:01:41Z</time>
      </trkpt>
      <trkpt lat="41.21049" lon="-6.620938">
        <ele>795.606</ele>
        <time>2018-07-24T10:01:42Z</time>
      </trkpt>
      <trkpt lat="41.210497" lon="-6.621013">
        <ele>795.61</ele>
        <time>2018-07-24T10:01:44Z</time>
      </trkpt>
      <trkpt lat="41.210501" lon="-6.621047">
        <ele>795.614</ele>
        <time>2018-07-24T10:01:45Z</time>
      </trkpt>
      <trkpt lat="41.210501" lon="-6.621118">
        <ele>795.618</ele>
        <time>2018-07-24T10:01:47Z</time>
      </trkpt>
      <trkpt lat="41.210494" lon="-6.621181">
        <ele>795.622</ele>
        <time>2018-07-24T10:01:49Z</time>
      </trkpt>
      <trkpt lat="41.210489" lon="-6.621218">
        <ele>795.635</ele>
        <time>2018-07-24T10:01:50Z</time>
      </trkpt>
      <trkpt lat="41.210484" lon="-6.621254">
        <ele>795.643</ele>
        <time>2018-07-24T10:01:51Z</time>
      </trkpt>
      <trkpt lat="41.210479" lon="-6.621291">
        <ele>795.647</ele>
        <time>2018-07-24T10:01:52Z</time>
      </trkpt>
      <trkpt lat="41.210475" lon="-6.621327">
        <ele>795.655</ele>
        <time>2018-07-24T10:01:53Z</time>
      </trkpt>
      <trkpt lat="41.210461" lon="-6.621384">
        <ele>795.663</ele>
        <time>2018-07-24T10:01:55Z</time>
      </trkpt>
      <trkpt lat="41.210453" lon="-6.621415">
        <ele>795.73</ele>
        <time>2018-07-24T10:01:56Z</time>
      </trkpt>
      <trkpt lat="41.210444" lon="-6.621445">
        <ele>795.765</ele>
        <time>2018-07-24T10:01:57Z</time>
      </trkpt>
      <trkpt lat="41.210432" lon="-6.621499">
        <ele>795.803</ele>
        <time>2018-07-24T10:01:59Z</time>
      </trkpt>
      <trkpt lat="41.210431" lon="-6.621566">
        <ele>795.84</ele>
        <time>2018-07-24T10:02:01Z</time>
      </trkpt>
      <trkpt lat="41.210423" lon="-6.621632">
        <ele>795.874</ele>
        <time>2018-07-24T10:02:03Z</time>
      </trkpt>
      <trkpt lat="41.210417" lon="-6.621693">
        <ele>795.904</ele>
        <time>2018-07-24T10:02:05Z</time>
      </trkpt>
      <trkpt lat="41.210413" lon="-6.621726">
        <ele>795.929</ele>
        <time>2018-07-24T10:02:06Z</time>
      </trkpt>
      <trkpt lat="41.210409" lon="-6.621761">
        <ele>795.948</ele>
        <time>2018-07-24T10:02:07Z</time>
      </trkpt>
      <trkpt lat="41.210406" lon="-6.621793">
        <ele>795.965</ele>
        <time>2018-07-24T10:02:08Z</time>
      </trkpt>
      <trkpt lat="41.210401" lon="-6.621831">
        <ele>795.974</ele>
        <time>2018-07-24T10:02:09Z</time>
      </trkpt>
      <trkpt lat="41.210401" lon="-6.621941">
        <ele>795.98</ele>
        <time>2018-07-24T10:02:12Z</time>
      </trkpt>
      <trkpt lat="41.210387" lon="-6.622029">
        <ele>795.989</ele>
        <time>2018-07-24T10:02:14Z</time>
      </trkpt>
      <trkpt lat="41.210382" lon="-6.622065">
        <ele>795.978</ele>
        <time>2018-07-24T10:02:15Z</time>
      </trkpt>
      <trkpt lat="41.210388" lon="-6.622144">
        <ele>795.963</ele>
        <time>2018-07-24T10:02:17Z</time>
      </trkpt>
      <trkpt lat="41.210377" lon="-6.62222">
        <ele>795.938</ele>
        <time>2018-07-24T10:02:19Z</time>
      </trkpt>
      <trkpt lat="41.210348" lon="-6.622385">
        <ele>795.915</ele>
        <time>2018-07-24T10:02:22Z</time>
      </trkpt>
      <trkpt lat="41.21034" lon="-6.62246">
        <ele>795.889</ele>
        <time>2018-07-24T10:02:23Z</time>
      </trkpt>
      <trkpt lat="41.210331" lon="-6.622534">
        <ele>795.86</ele>
        <time>2018-07-24T10:02:24Z</time>
      </trkpt>
      <trkpt lat="41.210324" lon="-6.62261">
        <ele>795.825</ele>
        <time>2018-07-24T10:02:25Z</time>
      </trkpt>
      <trkpt lat="41.210316" lon="-6.622684">
        <ele>795.79</ele>
        <time>2018-07-24T10:02:26Z</time>
      </trkpt>
      <trkpt lat="41.210308" lon="-6.622759">
        <ele>795.756</ele>
        <time>2018-07-24T10:02:27Z</time>
      </trkpt>
      <trkpt lat="41.210299" lon="-6.622835">
        <ele>795.718</ele>
        <time>2018-07-24T10:02:28Z</time>
      </trkpt>
      <trkpt lat="41.210291" lon="-6.622914">
        <ele>795.679</ele>
        <time>2018-07-24T10:02:29Z</time>
      </trkpt>
      <trkpt lat="41.210285" lon="-6.622995">
        <ele>795.62</ele>
        <time>2018-07-24T10:02:30Z</time>
      </trkpt>
      <trkpt lat="41.210278" lon="-6.623079">
        <ele>795.563</ele>
        <time>2018-07-24T10:02:31Z</time>
      </trkpt>
      <trkpt lat="41.210267" lon="-6.62316">
        <ele>795.508</ele>
        <time>2018-07-24T10:02:32Z</time>
      </trkpt>
      <trkpt lat="41.210258" lon="-6.623241">
        <ele>795.459</ele>
        <time>2018-07-24T10:02:33Z</time>
      </trkpt>
      <trkpt lat="41.210247" lon="-6.623322">
        <ele>795.405</ele>
        <time>2018-07-24T10:02:34Z</time>
      </trkpt>
      <trkpt lat="41.210238" lon="-6.623407">
        <ele>795.35</ele>
        <time>2018-07-24T10:02:35Z</time>
      </trkpt>
      <trkpt lat="41.210227" lon="-6.623493">
        <ele>795.293</ele>
        <time>2018-07-24T10:02:36Z</time>
      </trkpt>
      <trkpt lat="41.210218" lon="-6.623578">
        <ele>795.231</ele>
        <time>2018-07-24T10:02:37Z</time>
      </trkpt>
      <trkpt lat="41.210205" lon="-6.623661">
        <ele>795.172</ele>
        <time>2018-07-24T10:02:38Z</time>
      </trkpt>
      <trkpt lat="41.21019" lon="-6.623742">
        <ele>795.112</ele>
        <time>2018-07-24T10:02:39Z</time>
      </trkpt>
      <trkpt lat="41.210175" lon="-6.623823">
        <ele>795.061</ele>
        <time>2018-07-24T10:02:40Z</time>
      </trkpt>
      <trkpt lat="41.210163" lon="-6.623907">
        <ele>795.015</ele>
        <time>2018-07-24T10:02:41Z</time>
      </trkpt>
      <trkpt lat="41.210154" lon="-6.623991">
        <ele>794.969</ele>
        <time>2018-07-24T10:02:42Z</time>
      </trkpt>
      <trkpt lat="41.210143" lon="-6.624077">
        <ele>794.89</ele>
        <time>2018-07-24T10:02:43Z</time>
      </trkpt>
      <trkpt lat="41.210133" lon="-6.624164">
        <ele>794.776</ele>
        <time>2018-07-24T10:02:44Z</time>
      </trkpt>
      <trkpt lat="41.210119" lon="-6.624247">
        <ele>794.644</ele>
        <time>2018-07-24T10:02:45Z</time>
      </trkpt>
      <trkpt lat="41.210096" lon="-6.624327">
        <ele>794.531</ele>
        <time>2018-07-24T10:02:46Z</time>
      </trkpt>
      <trkpt lat="41.210066" lon="-6.624407">
        <ele>794.414</ele>
        <time>2018-07-24T10:02:47Z</time>
      </trkpt>
      <trkpt lat="41.21004" lon="-6.624485">
        <ele>794.292</ele>
        <time>2018-07-24T10:02:48Z</time>
      </trkpt>
      <trkpt lat="41.210016" lon="-6.624563">
        <ele>794.178</ele>
        <time>2018-07-24T10:02:49Z</time>
      </trkpt>
      <trkpt lat="41.209991" lon="-6.624639">
        <ele>794.06</ele>
        <time>2018-07-24T10:02:50Z</time>
      </trkpt>
      <trkpt lat="41.209959" lon="-6.624718">
        <ele>793.947</ele>
        <time>2018-07-24T10:02:51Z</time>
      </trkpt>
      <trkpt lat="41.209928" lon="-6.624796">
        <ele>793.837</ele>
        <time>2018-07-24T10:02:52Z</time>
      </trkpt>
      <trkpt lat="41.209893" lon="-6.624879">
        <ele>793.717</ele>
        <time>2018-07-24T10:02:53Z</time>
      </trkpt>
      <trkpt lat="41.20986" lon="-6.624964">
        <ele>793.607</ele>
        <time>2018-07-24T10:02:54Z</time>
      </trkpt>
      <trkpt lat="41.209824" lon="-6.625047">
        <ele>793.484</ele>
        <time>2018-07-24T10:02:55Z</time>
      </trkpt>
      <trkpt lat="41.20979" lon="-6.625129">
        <ele>793.354</ele>
        <time>2018-07-24T10:02:56Z</time>
      </trkpt>
      <trkpt lat="41.209755" lon="-6.625214">
        <ele>793.228</ele>
        <time>2018-07-24T10:02:57Z</time>
      </trkpt>
      <trkpt lat="41.209719" lon="-6.625302">
        <ele>793.12</ele>
        <time>2018-07-24T10:02:58Z</time>
      </trkpt>
      <trkpt lat="41.209683" lon="-6.625392">
        <ele>793.079</ele>
        <time>2018-07-24T10:02:59Z</time>
      </trkpt>
      <trkpt lat="41.209647" lon="-6.625481">
        <ele>793.091</ele>
        <time>2018-07-24T10:03:00Z</time>
      </trkpt>
      <trkpt lat="41.209611" lon="-6.625569">
        <ele>793.062</ele>
        <time>2018-07-24T10:03:01Z</time>
      </trkpt>
      <trkpt lat="41.209576" lon="-6.625655">
        <ele>792.99</ele>
        <time>2018-07-24T10:03:02Z</time>
      </trkpt>
      <trkpt lat="41.209539" lon="-6.62574">
        <ele>792.91</ele>
        <time>2018-07-24T10:03:03Z</time>
      </trkpt>
      <trkpt lat="41.209501" lon="-6.625822">
        <ele>792.823</ele>
        <time>2018-07-24T10:03:04Z</time>
      </trkpt>
      <trkpt lat="41.209462" lon="-6.625902">
        <ele>792.707</ele>
        <time>2018-07-24T10:03:05Z</time>
      </trkpt>
      <trkpt lat="41.209427" lon="-6.625982">
        <ele>792.619</ele>
        <time>2018-07-24T10:03:06Z</time>
      </trkpt>
      <trkpt lat="41.20939" lon="-6.626059">
        <ele>792.524</ele>
        <time>2018-07-24T10:03:07Z</time>
      </trkpt>
      <trkpt lat="41.209355" lon="-6.626136">
        <ele>792.417</ele>
        <time>2018-07-24T10:03:08Z</time>
      </trkpt>
      <trkpt lat="41.209325" lon="-6.626215">
        <ele>792.286</ele>
        <time>2018-07-24T10:03:09Z</time>
      </trkpt>
      <trkpt lat="41.209297" lon="-6.626293">
        <ele>792.14</ele>
        <time>2018-07-24T10:03:10Z</time>
      </trkpt>
      <trkpt lat="41.209273" lon="-6.626373">
        <ele>792.109</ele>
        <time>2018-07-24T10:03:11Z</time>
      </trkpt>
      <trkpt lat="41.209248" lon="-6.62645">
        <ele>792.052</ele>
        <time>2018-07-24T10:03:12Z</time>
      </trkpt>
      <trkpt lat="41.209225" lon="-6.626532">
        <ele>791.955</ele>
        <time>2018-07-24T10:03:13Z</time>
      </trkpt>
      <trkpt lat="41.209202" lon="-6.626614">
        <ele>791.87</ele>
        <time>2018-07-24T10:03:14Z</time>
      </trkpt>
      <trkpt lat="41.209182" lon="-6.626693">
        <ele>791.761</ele>
        <time>2018-07-24T10:03:15Z</time>
      </trkpt>
      <trkpt lat="41.209163" lon="-6.626775">
        <ele>791.672</ele>
        <time>2018-07-24T10:03:16Z</time>
      </trkpt>
      <trkpt lat="41.209147" lon="-6.626856">
        <ele>791.613</ele>
        <time>2018-07-24T10:03:17Z</time>
      </trkpt>
      <trkpt lat="41.209133" lon="-6.626936">
        <ele>791.553</ele>
        <time>2018-07-24T10:03:18Z</time>
      </trkpt>
      <trkpt lat="41.209115" lon="-6.627014">
        <ele>791.508</ele>
        <time>2018-07-24T10:03:19Z</time>
      </trkpt>
      <trkpt lat="41.209096" lon="-6.62709">
        <ele>791.36</ele>
        <time>2018-07-24T10:03:20Z</time>
      </trkpt>
      <trkpt lat="41.209082" lon="-6.627166">
        <ele>791.252</ele>
        <time>2018-07-24T10:03:21Z</time>
      </trkpt>
      <trkpt lat="41.209069" lon="-6.627239">
        <ele>791.191</ele>
        <time>2018-07-24T10:03:22Z</time>
      </trkpt>
      <trkpt lat="41.209057" lon="-6.627314">
        <ele>791.131</ele>
        <time>2018-07-24T10:03:23Z</time>
      </trkpt>
      <trkpt lat="41.209044" lon="-6.627389">
        <ele>791.062</ele>
        <time>2018-07-24T10:03:24Z</time>
      </trkpt>
      <trkpt lat="41.209033" lon="-6.627465">
        <ele>791.007</ele>
        <time>2018-07-24T10:03:25Z</time>
      </trkpt>
      <trkpt lat="41.209023" lon="-6.627538">
        <ele>791.009</ele>
        <time>2018-07-24T10:03:26Z</time>
      </trkpt>
      <trkpt lat="41.20901" lon="-6.627607">
        <ele>790.999</ele>
        <time>2018-07-24T10:03:27Z</time>
      </trkpt>
      <trkpt lat="41.208997" lon="-6.627678">
        <ele>790.877</ele>
        <time>2018-07-24T10:03:28Z</time>
      </trkpt>
      <trkpt lat="41.208985" lon="-6.627746">
        <ele>790.924</ele>
        <time>2018-07-24T10:03:29Z</time>
      </trkpt>
      <trkpt lat="41.208974" lon="-6.627812">
        <ele>791.039</ele>
        <time>2018-07-24T10:03:30Z</time>
      </trkpt>
      <trkpt lat="41.208963" lon="-6.627878">
        <ele>791.206</ele>
        <time>2018-07-24T10:03:31Z</time>
      </trkpt>
      <trkpt lat="41.208951" lon="-6.627944">
        <ele>791.251</ele>
        <time>2018-07-24T10:03:32Z</time>
      </trkpt>
      <trkpt lat="41.208938" lon="-6.62801">
        <ele>791.29</ele>
        <time>2018-07-24T10:03:33Z</time>
      </trkpt>
      <trkpt lat="41.208927" lon="-6.628077">
        <ele>791.324</ele>
        <time>2018-07-24T10:03:34Z</time>
      </trkpt>
      <trkpt lat="41.208915" lon="-6.628146">
        <ele>791.32</ele>
        <time>2018-07-24T10:03:35Z</time>
      </trkpt>
      <trkpt lat="41.208903" lon="-6.628213">
        <ele>791.403</ele>
        <time>2018-07-24T10:03:36Z</time>
      </trkpt>
      <trkpt lat="41.208895" lon="-6.628278">
        <ele>791.458</ele>
        <time>2018-07-24T10:03:37Z</time>
      </trkpt>
      <trkpt lat="41.208886" lon="-6.628346">
        <ele>791.496</ele>
        <time>2018-07-24T10:03:38Z</time>
      </trkpt>
      <trkpt lat="41.208875" lon="-6.628413">
        <ele>791.522</ele>
        <time>2018-07-24T10:03:39Z</time>
      </trkpt>
      <trkpt lat="41.20885" lon="-6.628541">
        <ele>791.497</ele>
        <time>2018-07-24T10:03:41Z</time>
      </trkpt>
      <trkpt lat="41.208839" lon="-6.628605">
        <ele>791.468</ele>
        <time>2018-07-24T10:03:42Z</time>
      </trkpt>
      <trkpt lat="41.208826" lon="-6.628672">
        <ele>791.437</ele>
        <time>2018-07-24T10:03:43Z</time>
      </trkpt>
      <trkpt lat="41.208812" lon="-6.628737">
        <ele>791.395</ele>
        <time>2018-07-24T10:03:44Z</time>
      </trkpt>
      <trkpt lat="41.208798" lon="-6.6288">
        <ele>791.391</ele>
        <time>2018-07-24T10:03:45Z</time>
      </trkpt>
      <trkpt lat="41.208784" lon="-6.628864">
        <ele>791.382</ele>
        <time>2018-07-24T10:03:46Z</time>
      </trkpt>
      <trkpt lat="41.208753" lon="-6.628984">
        <ele>791.372</ele>
        <time>2018-07-24T10:03:48Z</time>
      </trkpt>
      <trkpt lat="41.208737" lon="-6.629042">
        <ele>791.359</ele>
        <time>2018-07-24T10:03:49Z</time>
      </trkpt>
      <trkpt lat="41.20872" lon="-6.629102">
        <ele>791.333</ele>
        <time>2018-07-24T10:03:50Z</time>
      </trkpt>
      <trkpt lat="41.208702" lon="-6.629159">
        <ele>791.319</ele>
        <time>2018-07-24T10:03:51Z</time>
      </trkpt>
      <trkpt lat="41.208687" lon="-6.629216">
        <ele>791.306</ele>
        <time>2018-07-24T10:03:52Z</time>
      </trkpt>
      <trkpt lat="41.208671" lon="-6.62927">
        <ele>791.277</ele>
        <time>2018-07-24T10:03:53Z</time>
      </trkpt>
      <trkpt lat="41.208652" lon="-6.629324">
        <ele>791.262</ele>
        <time>2018-07-24T10:03:54Z</time>
      </trkpt>
      <trkpt lat="41.208633" lon="-6.629377">
        <ele>791.246</ele>
        <time>2018-07-24T10:03:55Z</time>
      </trkpt>
      <trkpt lat="41.208614" lon="-6.629436">
        <ele>791.229</ele>
        <time>2018-07-24T10:03:56Z</time>
      </trkpt>
      <trkpt lat="41.208593" lon="-6.629499">
        <ele>791.212</ele>
        <time>2018-07-24T10:03:57Z</time>
      </trkpt>
      <trkpt lat="41.208569" lon="-6.629551">
        <ele>791.193</ele>
        <time>2018-07-24T10:03:58Z</time>
      </trkpt>
      <trkpt lat="41.208549" lon="-6.629598">
        <ele>790.968</ele>
        <time>2018-07-24T10:03:59Z</time>
      </trkpt>
      <trkpt lat="41.208526" lon="-6.629648">
        <ele>790.794</ele>
        <time>2018-07-24T10:04:00Z</time>
      </trkpt>
      <trkpt lat="41.208501" lon="-6.629695">
        <ele>790.65</ele>
        <time>2018-07-24T10:04:01Z</time>
      </trkpt>
      <trkpt lat="41.208479" lon="-6.629739">
        <ele>790.427</ele>
        <time>2018-07-24T10:04:02Z</time>
      </trkpt>
      <trkpt lat="41.208459" lon="-6.629783">
        <ele>790.34</ele>
        <time>2018-07-24T10:04:03Z</time>
      </trkpt>
      <trkpt lat="41.208439" lon="-6.629825">
        <ele>790.261</ele>
        <time>2018-07-24T10:04:04Z</time>
      </trkpt>
      <trkpt lat="41.208402" lon="-6.629917">
        <ele>790.197</ele>
        <time>2018-07-24T10:04:06Z</time>
      </trkpt>
      <trkpt lat="41.208383" lon="-6.629962">
        <ele>790.095</ele>
        <time>2018-07-24T10:04:07Z</time>
      </trkpt>
      <trkpt lat="41.208363" lon="-6.630008">
        <ele>790.067</ele>
        <time>2018-07-24T10:04:08Z</time>
      </trkpt>
      <trkpt lat="41.208322" lon="-6.630085">
        <ele>790.041</ele>
        <time>2018-07-24T10:04:10Z</time>
      </trkpt>
      <trkpt lat="41.208303" lon="-6.630123">
        <ele>790.011</ele>
        <time>2018-07-24T10:04:11Z</time>
      </trkpt>
      <trkpt lat="41.208284" lon="-6.630162">
        <ele>789.981</ele>
        <time>2018-07-24T10:04:12Z</time>
      </trkpt>
      <trkpt lat="41.208264" lon="-6.630204">
        <ele>789.956</ele>
        <time>2018-07-24T10:04:13Z</time>
      </trkpt>
      <trkpt lat="41.208246" lon="-6.630246">
        <ele>789.894</ele>
        <time>2018-07-24T10:04:14Z</time>
      </trkpt>
      <trkpt lat="41.208229" lon="-6.630294">
        <ele>789.86</ele>
        <time>2018-07-24T10:04:15Z</time>
      </trkpt>
      <trkpt lat="41.208199" lon="-6.630368">
        <ele>789.857</ele>
        <time>2018-07-24T10:04:17Z</time>
      </trkpt>
      <trkpt lat="41.208184" lon="-6.630409">
        <ele>789.82</ele>
        <time>2018-07-24T10:04:18Z</time>
      </trkpt>
      <trkpt lat="41.208165" lon="-6.630455">
        <ele>789.794</ele>
        <time>2018-07-24T10:04:19Z</time>
      </trkpt>
      <trkpt lat="41.20813" lon="-6.63055">
        <ele>789.768</ele>
        <time>2018-07-24T10:04:21Z</time>
      </trkpt>
      <trkpt lat="41.208111" lon="-6.630601">
        <ele>789.741</ele>
        <time>2018-07-24T10:04:22Z</time>
      </trkpt>
      <trkpt lat="41.208094" lon="-6.630653">
        <ele>789.718</ele>
        <time>2018-07-24T10:04:23Z</time>
      </trkpt>
      <trkpt lat="41.208077" lon="-6.630703">
        <ele>789.703</ele>
        <time>2018-07-24T10:04:24Z</time>
      </trkpt>
      <trkpt lat="41.208053" lon="-6.630808">
        <ele>789.686</ele>
        <time>2018-07-24T10:04:26Z</time>
      </trkpt>
      <trkpt lat="41.208042" lon="-6.630862">
        <ele>789.666</ele>
        <time>2018-07-24T10:04:27Z</time>
      </trkpt>
      <trkpt lat="41.20803" lon="-6.630918">
        <ele>789.645</ele>
        <time>2018-07-24T10:04:28Z</time>
      </trkpt>
      <trkpt lat="41.20802" lon="-6.630975">
        <ele>789.622</ele>
        <time>2018-07-24T10:04:29Z</time>
      </trkpt>
      <trkpt lat="41.208009" lon="-6.63103">
        <ele>789.607</ele>
        <time>2018-07-24T10:04:30Z</time>
      </trkpt>
      <trkpt lat="41.207998" lon="-6.631082">
        <ele>789.606</ele>
        <time>2018-07-24T10:04:31Z</time>
      </trkpt>
      <trkpt lat="41.20798" lon="-6.631189">
        <ele>789.605</ele>
        <time>2018-07-24T10:04:33Z</time>
      </trkpt>
      <trkpt lat="41.20797" lon="-6.631241">
        <ele>789.594</ele>
        <time>2018-07-24T10:04:34Z</time>
      </trkpt>
      <trkpt lat="41.20796" lon="-6.631292">
        <ele>789.577</ele>
        <time>2018-07-24T10:04:35Z</time>
      </trkpt>
      <trkpt lat="41.207953" lon="-6.631343">
        <ele>789.575</ele>
        <time>2018-07-24T10:04:36Z</time>
      </trkpt>
      <trkpt lat="41.207945" lon="-6.631395">
        <ele>789.573</ele>
        <time>2018-07-24T10:04:37Z</time>
      </trkpt>
      <trkpt lat="41.207938" lon="-6.63145">
        <ele>789.548</ele>
        <time>2018-07-24T10:04:38Z</time>
      </trkpt>
      <trkpt lat="41.20793" lon="-6.631503">
        <ele>789.523</ele>
        <time>2018-07-24T10:04:39Z</time>
      </trkpt>
      <trkpt lat="41.207922" lon="-6.631555">
        <ele>789.496</ele>
        <time>2018-07-24T10:04:40Z</time>
      </trkpt>
      <trkpt lat="41.207911" lon="-6.63161">
        <ele>789.493</ele>
        <time>2018-07-24T10:04:41Z</time>
      </trkpt>
      <trkpt lat="41.207902" lon="-6.631665">
        <ele>789.489</ele>
        <time>2018-07-24T10:04:42Z</time>
      </trkpt>
      <trkpt lat="41.207893" lon="-6.631718">
        <ele>789.485</ele>
        <time>2018-07-24T10:04:43Z</time>
      </trkpt>
      <trkpt lat="41.207884" lon="-6.631771">
        <ele>789.481</ele>
        <time>2018-07-24T10:04:44Z</time>
      </trkpt>
      <trkpt lat="41.207877" lon="-6.631824">
        <ele>789.436</ele>
        <time>2018-07-24T10:04:45Z</time>
      </trkpt>
      <trkpt lat="41.207867" lon="-6.631875">
        <ele>789.404</ele>
        <time>2018-07-24T10:04:46Z</time>
      </trkpt>
      <trkpt lat="41.207858" lon="-6.631927">
        <ele>789.401</ele>
        <time>2018-07-24T10:04:47Z</time>
      </trkpt>
      <trkpt lat="41.207852" lon="-6.631975">
        <ele>789.374</ele>
        <time>2018-07-24T10:04:48Z</time>
      </trkpt>
      <trkpt lat="41.207845" lon="-6.632026">
        <ele>789.35</ele>
        <time>2018-07-24T10:04:49Z</time>
      </trkpt>
      <trkpt lat="41.207839" lon="-6.632079">
        <ele>789.327</ele>
        <time>2018-07-24T10:04:50Z</time>
      </trkpt>
      <trkpt lat="41.207833" lon="-6.632131">
        <ele>789.325</ele>
        <time>2018-07-24T10:04:51Z</time>
      </trkpt>
      <trkpt lat="41.207827" lon="-6.632183">
        <ele>789.323</ele>
        <time>2018-07-24T10:04:52Z</time>
      </trkpt>
      <trkpt lat="41.207819" lon="-6.632233">
        <ele>789.303</ele>
        <time>2018-07-24T10:04:53Z</time>
      </trkpt>
      <trkpt lat="41.207813" lon="-6.63229">
        <ele>789.263</ele>
        <time>2018-07-24T10:04:54Z</time>
      </trkpt>
      <trkpt lat="41.207795" lon="-6.63239">
        <ele>789.194</ele>
        <time>2018-07-24T10:04:56Z</time>
      </trkpt>
      <trkpt lat="41.207786" lon="-6.632431">
        <ele>789.177</ele>
        <time>2018-07-24T10:04:57Z</time>
      </trkpt>
      <trkpt lat="41.207777" lon="-6.632471">
        <ele>789.165</ele>
        <time>2018-07-24T10:04:58Z</time>
      </trkpt>
      <trkpt lat="41.207769" lon="-6.632513">
        <ele>789.152</ele>
        <time>2018-07-24T10:04:59Z</time>
      </trkpt>
      <trkpt lat="41.207761" lon="-6.632558">
        <ele>789.136</ele>
        <time>2018-07-24T10:05:00Z</time>
      </trkpt>
      <trkpt lat="41.207754" lon="-6.632615">
        <ele>789.125</ele>
        <time>2018-07-24T10:05:01Z</time>
      </trkpt>
      <trkpt lat="41.207747" lon="-6.632667">
        <ele>789.121</ele>
        <time>2018-07-24T10:05:02Z</time>
      </trkpt>
      <trkpt lat="41.20774" lon="-6.632721">
        <ele>789.11</ele>
        <time>2018-07-24T10:05:03Z</time>
      </trkpt>
      <trkpt lat="41.207731" lon="-6.632766">
        <ele>789.1</ele>
        <time>2018-07-24T10:05:04Z</time>
      </trkpt>
      <trkpt lat="41.207722" lon="-6.632821">
        <ele>789.084</ele>
        <time>2018-07-24T10:05:05Z</time>
      </trkpt>
      <trkpt lat="41.207712" lon="-6.632878">
        <ele>789.069</ele>
        <time>2018-07-24T10:05:06Z</time>
      </trkpt>
      <trkpt lat="41.207701" lon="-6.632926">
        <ele>789.052</ele>
        <time>2018-07-24T10:05:07Z</time>
      </trkpt>
      <trkpt lat="41.207691" lon="-6.632976">
        <ele>789.042</ele>
        <time>2018-07-24T10:05:08Z</time>
      </trkpt>
      <trkpt lat="41.207682" lon="-6.633023">
        <ele>789.036</ele>
        <time>2018-07-24T10:05:09Z</time>
      </trkpt>
      <trkpt lat="41.207657" lon="-6.633138">
        <ele>789.027</ele>
        <time>2018-07-24T10:05:11Z</time>
      </trkpt>
      <trkpt lat="41.207616" lon="-6.6333">
        <ele>789.015</ele>
        <time>2018-07-24T10:05:14Z</time>
      </trkpt>
      <trkpt lat="41.207604" lon="-6.633357">
        <ele>789.0</ele>
        <time>2018-07-24T10:05:15Z</time>
      </trkpt>
      <trkpt lat="41.207591" lon="-6.633413">
        <ele>788.986</ele>
        <time>2018-07-24T10:05:16Z</time>
      </trkpt>
      <trkpt lat="41.207578" lon="-6.633468">
        <ele>788.966</ele>
        <time>2018-07-24T10:05:17Z</time>
      </trkpt>
      <trkpt lat="41.207566" lon="-6.633526">
        <ele>788.943</ele>
        <time>2018-07-24T10:05:18Z</time>
      </trkpt>
      <trkpt lat="41.207556" lon="-6.633583">
        <ele>788.92</ele>
        <time>2018-07-24T10:05:19Z</time>
      </trkpt>
      <trkpt lat="41.207547" lon="-6.633642">
        <ele>788.9</ele>
        <time>2018-07-24T10:05:20Z</time>
      </trkpt>
      <trkpt lat="41.20754" lon="-6.633707">
        <ele>788.882</ele>
        <time>2018-07-24T10:05:21Z</time>
      </trkpt>
      <trkpt lat="41.207532" lon="-6.633767">
        <ele>788.863</ele>
        <time>2018-07-24T10:05:22Z</time>
      </trkpt>
      <trkpt lat="41.207525" lon="-6.633826">
        <ele>788.843</ele>
        <time>2018-07-24T10:05:23Z</time>
      </trkpt>
      <trkpt lat="41.207515" lon="-6.633879">
        <ele>788.814</ele>
        <time>2018-07-24T10:05:24Z</time>
      </trkpt>
      <trkpt lat="41.207505" lon="-6.633933">
        <ele>788.78</ele>
        <time>2018-07-24T10:05:25Z</time>
      </trkpt>
      <trkpt lat="41.207496" lon="-6.633987">
        <ele>788.744</ele>
        <time>2018-07-24T10:05:26Z</time>
      </trkpt>
      <trkpt lat="41.207487" lon="-6.634039">
        <ele>788.708</ele>
        <time>2018-07-24T10:05:27Z</time>
      </trkpt>
      <trkpt lat="41.207478" lon="-6.634095">
        <ele>788.668</ele>
        <time>2018-07-24T10:05:28Z</time>
      </trkpt>
      <trkpt lat="41.207469" lon="-6.634151">
        <ele>788.627</ele>
        <time>2018-07-24T10:05:29Z</time>
      </trkpt>
      <trkpt lat="41.207459" lon="-6.634207">
        <ele>788.585</ele>
        <time>2018-07-24T10:05:30Z</time>
      </trkpt>
      <trkpt lat="41.207448" lon="-6.634259">
        <ele>788.471</ele>
        <time>2018-07-24T10:05:31Z</time>
      </trkpt>
      <trkpt lat="41.207437" lon="-6.634314">
        <ele>788.446</ele>
        <time>2018-07-24T10:05:32Z</time>
      </trkpt>
      <trkpt lat="41.207427" lon="-6.634369">
        <ele>788.426</ele>
        <time>2018-07-24T10:05:33Z</time>
      </trkpt>
      <trkpt lat="41.207415" lon="-6.634423">
        <ele>788.403</ele>
        <time>2018-07-24T10:05:34Z</time>
      </trkpt>
      <trkpt lat="41.207402" lon="-6.634476">
        <ele>788.376</ele>
        <time>2018-07-24T10:05:35Z</time>
      </trkpt>
      <trkpt lat="41.207393" lon="-6.634529">
        <ele>788.348</ele>
        <time>2018-07-24T10:05:36Z</time>
      </trkpt>
      <trkpt lat="41.207383" lon="-6.634582">
        <ele>788.323</ele>
        <time>2018-07-24T10:05:37Z</time>
      </trkpt>
      <trkpt lat="41.207373" lon="-6.634634">
        <ele>788.297</ele>
        <time>2018-07-24T10:05:38Z</time>
      </trkpt>
      <trkpt lat="41.207365" lon="-6.634695">
        <ele>788.247</ele>
        <time>2018-07-24T10:05:39Z</time>
      </trkpt>
      <trkpt lat="41.207356" lon="-6.634751">
        <ele>788.221</ele>
        <time>2018-07-24T10:05:40Z</time>
      </trkpt>
      <trkpt lat="41.207348" lon="-6.634807">
        <ele>788.192</ele>
        <time>2018-07-24T10:05:41Z</time>
      </trkpt>
      <trkpt lat="41.207339" lon="-6.634865">
        <ele>788.165</ele>
        <time>2018-07-24T10:05:42Z</time>
      </trkpt>
      <trkpt lat="41.207327" lon="-6.634924">
        <ele>788.14</ele>
        <time>2018-07-24T10:05:43Z</time>
      </trkpt>
      <trkpt lat="41.207316" lon="-6.634981">
        <ele>788.116</ele>
        <time>2018-07-24T10:05:44Z</time>
      </trkpt>
      <trkpt lat="41.207302" lon="-6.635032">
        <ele>788.098</ele>
        <time>2018-07-24T10:05:45Z</time>
      </trkpt>
      <trkpt lat="41.207276" lon="-6.635203">
        <ele>788.083</ele>
        <time>2018-07-24T10:05:48Z</time>
      </trkpt>
      <trkpt lat="41.207266" lon="-6.635257">
        <ele>788.068</ele>
        <time>2018-07-24T10:05:49Z</time>
      </trkpt>
      <trkpt lat="41.207255" lon="-6.635311">
        <ele>788.046</ele>
        <time>2018-07-24T10:05:50Z</time>
      </trkpt>
      <trkpt lat="41.207249" lon="-6.635371">
        <ele>788.022</ele>
        <time>2018-07-24T10:05:51Z</time>
      </trkpt>
      <trkpt lat="41.20724" lon="-6.635429">
        <ele>787.999</ele>
        <time>2018-07-24T10:05:52Z</time>
      </trkpt>
      <trkpt lat="41.207233" lon="-6.635489">
        <ele>787.976</ele>
        <time>2018-07-24T10:05:53Z</time>
      </trkpt>
      <trkpt lat="41.207225" lon="-6.635545">
        <ele>787.952</ele>
        <time>2018-07-24T10:05:54Z</time>
      </trkpt>
      <trkpt lat="41.207218" lon="-6.635602">
        <ele>787.926</ele>
        <time>2018-07-24T10:05:55Z</time>
      </trkpt>
      <trkpt lat="41.207209" lon="-6.635718">
        <ele>787.897</ele>
        <time>2018-07-24T10:05:57Z</time>
      </trkpt>
      <trkpt lat="41.207204" lon="-6.635775">
        <ele>787.872</ele>
        <time>2018-07-24T10:05:58Z</time>
      </trkpt>
      <trkpt lat="41.207199" lon="-6.635835">
        <ele>787.849</ele>
        <time>2018-07-24T10:05:59Z</time>
      </trkpt>
      <trkpt lat="41.207193" lon="-6.635886">
        <ele>787.822</ele>
        <time>2018-07-24T10:06:00Z</time>
      </trkpt>
      <trkpt lat="41.207189" lon="-6.635943">
        <ele>787.793</ele>
        <time>2018-07-24T10:06:01Z</time>
      </trkpt>
      <trkpt lat="41.207187" lon="-6.636003">
        <ele>787.764</ele>
        <time>2018-07-24T10:06:02Z</time>
      </trkpt>
      <trkpt lat="41.207183" lon="-6.636062">
        <ele>787.733</ele>
        <time>2018-07-24T10:06:03Z</time>
      </trkpt>
      <trkpt lat="41.207179" lon="-6.636118">
        <ele>787.701</ele>
        <time>2018-07-24T10:06:04Z</time>
      </trkpt>
      <trkpt lat="41.207177" lon="-6.636174">
        <ele>787.668</ele>
        <time>2018-07-24T10:06:05Z</time>
      </trkpt>
      <trkpt lat="41.207174" lon="-6.636234">
        <ele>787.641</ele>
        <time>2018-07-24T10:06:06Z</time>
      </trkpt>
      <trkpt lat="41.20717" lon="-6.636293">
        <ele>787.6</ele>
        <time>2018-07-24T10:06:07Z</time>
      </trkpt>
      <trkpt lat="41.207166" lon="-6.636351">
        <ele>787.584</ele>
        <time>2018-07-24T10:06:08Z</time>
      </trkpt>
      <trkpt lat="41.20716" lon="-6.636409">
        <ele>787.581</ele>
        <time>2018-07-24T10:06:09Z</time>
      </trkpt>
      <trkpt lat="41.207155" lon="-6.636469">
        <ele>787.578</ele>
        <time>2018-07-24T10:06:10Z</time>
      </trkpt>
      <trkpt lat="41.20715" lon="-6.636523">
        <ele>787.575</ele>
        <time>2018-07-24T10:06:11Z</time>
      </trkpt>
      <trkpt lat="41.207149" lon="-6.636584">
        <ele>787.5</ele>
        <time>2018-07-24T10:06:12Z</time>
      </trkpt>
      <trkpt lat="41.207145" lon="-6.63664">
        <ele>787.472</ele>
        <time>2018-07-24T10:06:13Z</time>
      </trkpt>
      <trkpt lat="41.207142" lon="-6.636702">
        <ele>787.445</ele>
        <time>2018-07-24T10:06:14Z</time>
      </trkpt>
      <trkpt lat="41.207137" lon="-6.636759">
        <ele>787.424</ele>
        <time>2018-07-24T10:06:15Z</time>
      </trkpt>
      <trkpt lat="41.207132" lon="-6.636815">
        <ele>787.369</ele>
        <time>2018-07-24T10:06:16Z</time>
      </trkpt>
      <trkpt lat="41.207126" lon="-6.636872">
        <ele>787.339</ele>
        <time>2018-07-24T10:06:17Z</time>
      </trkpt>
      <trkpt lat="41.20712" lon="-6.636927">
        <ele>787.312</ele>
        <time>2018-07-24T10:06:18Z</time>
      </trkpt>
      <trkpt lat="41.207114" lon="-6.636981">
        <ele>787.286</ele>
        <time>2018-07-24T10:06:19Z</time>
      </trkpt>
      <trkpt lat="41.20711" lon="-6.637038">
        <ele>787.284</ele>
        <time>2018-07-24T10:06:20Z</time>
      </trkpt>
      <trkpt lat="41.207107" lon="-6.637092">
        <ele>787.282</ele>
        <time>2018-07-24T10:06:21Z</time>
      </trkpt>
      <trkpt lat="41.207097" lon="-6.63719">
        <ele>787.264</ele>
        <time>2018-07-24T10:06:23Z</time>
      </trkpt>
      <trkpt lat="41.207093" lon="-6.63724">
        <ele>787.245</ele>
        <time>2018-07-24T10:06:24Z</time>
      </trkpt>
      <trkpt lat="41.207091" lon="-6.637295">
        <ele>787.224</ele>
        <time>2018-07-24T10:06:25Z</time>
      </trkpt>
      <trkpt lat="41.20709" lon="-6.637349">
        <ele>787.2</ele>
        <time>2018-07-24T10:06:26Z</time>
      </trkpt>
      <trkpt lat="41.207089" lon="-6.637399">
        <ele>787.176</ele>
        <time>2018-07-24T10:06:27Z</time>
      </trkpt>
      <trkpt lat="41.207087" lon="-6.637504">
        <ele>787.15</ele>
        <time>2018-07-24T10:06:29Z</time>
      </trkpt>
      <trkpt lat="41.207085" lon="-6.637555">
        <ele>787.148</ele>
        <time>2018-07-24T10:06:30Z</time>
      </trkpt>
      <trkpt lat="41.207083" lon="-6.637612">
        <ele>787.142</ele>
        <time>2018-07-24T10:06:31Z</time>
      </trkpt>
      <trkpt lat="41.207082" lon="-6.637673">
        <ele>787.109</ele>
        <time>2018-07-24T10:06:32Z</time>
      </trkpt>
      <trkpt lat="41.20707" lon="-6.637791">
        <ele>787.082</ele>
        <time>2018-07-24T10:06:34Z</time>
      </trkpt>
      <trkpt lat="41.207063" lon="-6.637848">
        <ele>787.051</ele>
        <time>2018-07-24T10:06:35Z</time>
      </trkpt>
      <trkpt lat="41.207057" lon="-6.637902">
        <ele>787.048</ele>
        <time>2018-07-24T10:06:36Z</time>
      </trkpt>
      <trkpt lat="41.207052" lon="-6.637956">
        <ele>787.005</ele>
        <time>2018-07-24T10:06:37Z</time>
      </trkpt>
      <trkpt lat="41.207048" lon="-6.638009">
        <ele>787.001</ele>
        <time>2018-07-24T10:06:38Z</time>
      </trkpt>
      <trkpt lat="41.207044" lon="-6.638058">
        <ele>786.943</ele>
        <time>2018-07-24T10:06:39Z</time>
      </trkpt>
      <trkpt lat="41.207041" lon="-6.638108">
        <ele>786.886</ele>
        <time>2018-07-24T10:06:40Z</time>
      </trkpt>
      <trkpt lat="41.207039" lon="-6.638162">
        <ele>786.88</ele>
        <time>2018-07-24T10:06:41Z</time>
      </trkpt>
      <trkpt lat="41.207038" lon="-6.638216">
        <ele>786.873</ele>
        <time>2018-07-24T10:06:42Z</time>
      </trkpt>
      <trkpt lat="41.207035" lon="-6.638272">
        <ele>786.866</ele>
        <time>2018-07-24T10:06:43Z</time>
      </trkpt>
      <trkpt lat="41.207031" lon="-6.638324">
        <ele>786.858</ele>
        <time>2018-07-24T10:06:44Z</time>
      </trkpt>
      <trkpt lat="41.207019" lon="-6.638429">
        <ele>786.849</ele>
        <time>2018-07-24T10:06:46Z</time>
      </trkpt>
      <trkpt lat="41.207011" lon="-6.638474">
        <ele>786.823</ele>
        <time>2018-07-24T10:06:47Z</time>
      </trkpt>
      <trkpt lat="41.207006" lon="-6.638564">
        <ele>786.804</ele>
        <time>2018-07-24T10:06:49Z</time>
      </trkpt>
      <trkpt lat="41.207004" lon="-6.638614">
        <ele>786.793</ele>
        <time>2018-07-24T10:06:50Z</time>
      </trkpt>
      <trkpt lat="41.207002" lon="-6.638664">
        <ele>786.783</ele>
        <time>2018-07-24T10:06:51Z</time>
      </trkpt>
      <trkpt lat="41.206998" lon="-6.63872">
        <ele>786.772</ele>
        <time>2018-07-24T10:06:52Z</time>
      </trkpt>
      <trkpt lat="41.206992" lon="-6.638774">
        <ele>786.751</ele>
        <time>2018-07-24T10:06:53Z</time>
      </trkpt>
      <trkpt lat="41.206982" lon="-6.638824">
        <ele>786.74</ele>
        <time>2018-07-24T10:06:54Z</time>
      </trkpt>
      <trkpt lat="41.206975" lon="-6.638881">
        <ele>786.718</ele>
        <time>2018-07-24T10:06:55Z</time>
      </trkpt>
      <trkpt lat="41.206966" lon="-6.638933">
        <ele>786.707</ele>
        <time>2018-07-24T10:06:56Z</time>
      </trkpt>
      <trkpt lat="41.206958" lon="-6.638988">
        <ele>786.683</ele>
        <time>2018-07-24T10:06:57Z</time>
      </trkpt>
      <trkpt lat="41.206948" lon="-6.639038">
        <ele>786.659</ele>
        <time>2018-07-24T10:06:58Z</time>
      </trkpt>
      <trkpt lat="41.206941" lon="-6.639083">
        <ele>786.645</ele>
        <time>2018-07-24T10:06:59Z</time>
      </trkpt>
      <trkpt lat="41.206932" lon="-6.639127">
        <ele>786.63</ele>
        <time>2018-07-24T10:07:00Z</time>
      </trkpt>
      <trkpt lat="41.206924" lon="-6.639166">
        <ele>786.596</ele>
        <time>2018-07-24T10:07:01Z</time>
      </trkpt>
      <trkpt lat="41.206918" lon="-6.639201">
        <ele>785.935</ele>
        <time>2018-07-24T10:07:02Z</time>
      </trkpt>
      <trkpt lat="41.206902" lon="-6.639316">
        <ele>785.613</ele>
        <time>2018-07-24T10:07:05Z</time>
      </trkpt>
      <trkpt lat="41.206884" lon="-6.63938">
        <ele>785.492</ele>
        <time>2018-07-24T10:07:07Z</time>
      </trkpt>
      <trkpt lat="41.206873" lon="-6.639409">
        <ele>785.414</ele>
        <time>2018-07-24T10:07:08Z</time>
      </trkpt>
      <trkpt lat="41.206863" lon="-6.63944">
        <ele>785.376</ele>
        <time>2018-07-24T10:07:09Z</time>
      </trkpt>
      <trkpt lat="41.206852" lon="-6.639473">
        <ele>785.338</ele>
        <time>2018-07-24T10:07:10Z</time>
      </trkpt>
      <trkpt lat="41.206824" lon="-6.639524">
        <ele>785.263</ele>
        <time>2018-07-24T10:07:12Z</time>
      </trkpt>
      <trkpt lat="41.206809" lon="-6.639555">
        <ele>785.226</ele>
        <time>2018-07-24T10:07:13Z</time>
      </trkpt>
      <trkpt lat="41.206788" lon="-6.639624">
        <ele>785.153</ele>
        <time>2018-07-24T10:07:15Z</time>
      </trkpt>
      <trkpt lat="41.206777" lon="-6.639663">
        <ele>785.117</ele>
        <time>2018-07-24T10:07:16Z</time>
      </trkpt>
      <trkpt lat="41.206748" lon="-6.639736">
        <ele>785.047</ele>
        <time>2018-07-24T10:07:18Z</time>
      </trkpt>
      <trkpt lat="41.206726" lon="-6.639814">
        <ele>784.979</ele>
        <time>2018-07-24T10:07:20Z</time>
      </trkpt>
      <trkpt lat="41.206713" lon="-6.639859">
        <ele>784.946</ele>
        <time>2018-07-24T10:07:21Z</time>
      </trkpt>
      <trkpt lat="41.206701" lon="-6.639914">
        <ele>784.85</ele>
        <time>2018-07-24T10:07:22Z</time>
      </trkpt>
      <trkpt lat="41.206663" lon="-6.64">
        <ele>784.818</ele>
        <time>2018-07-24T10:07:24Z</time>
      </trkpt>
      <trkpt lat="41.206663" lon="-6.64">
        <ele>784.788</ele>
        <time>2018-07-24T10:07:34Z</time>
      </trkpt>
      <trkpt lat="41.206663" lon="-6.64">
        <ele>784.757</ele>
        <time>2018-07-24T10:09:24Z</time>
      </trkpt>
      <trkpt lat="41.206587" lon="-6.640238">
        <ele>784.697</ele>
        <time>2018-07-24T10:09:24Z</time>
      </trkpt>
      <trkpt lat="41.20657" lon="-6.640296">
        <ele>784.639</ele>
        <time>2018-07-24T10:09:36Z</time>
      </trkpt>
      <trkpt lat="41.20655" lon="-6.640385">
        <ele>784.583</ele>
        <time>2018-07-24T10:09:39Z</time>
      </trkpt>
      <trkpt lat="41.20653" lon="-6.640454">
        <ele>784.555</ele>
        <time>2018-07-24T10:09:41Z</time>
      </trkpt>
      <trkpt lat="41.206519" lon="-6.6405">
        <ele>784.528</ele>
        <time>2018-07-24T10:09:42Z</time>
      </trkpt>
      <trkpt lat="41.206507" lon="-6.640547">
        <ele>784.501</ele>
        <time>2018-07-24T10:09:43Z</time>
      </trkpt>
      <trkpt lat="41.206483" lon="-6.64063">
        <ele>784.474</ele>
        <time>2018-07-24T10:09:45Z</time>
      </trkpt>
      <trkpt lat="41.20647" lon="-6.640674">
        <ele>784.448</ele>
        <time>2018-07-24T10:09:46Z</time>
      </trkpt>
      <trkpt lat="41.206443" lon="-6.640752">
        <ele>784.395</ele>
        <time>2018-07-24T10:09:48Z</time>
      </trkpt>
      <trkpt lat="41.206431" lon="-6.640791">
        <ele>784.37</ele>
        <time>2018-07-24T10:09:49Z</time>
      </trkpt>
      <trkpt lat="41.206413" lon="-6.640872">
        <ele>784.32</ele>
        <time>2018-07-24T10:09:51Z</time>
      </trkpt>
      <trkpt lat="41.206383" lon="-6.640945">
        <ele>784.271</ele>
        <time>2018-07-24T10:09:53Z</time>
      </trkpt>
      <trkpt lat="41.206366" lon="-6.64098">
        <ele>784.247</ele>
        <time>2018-07-24T10:09:54Z</time>
      </trkpt>
      <trkpt lat="41.206323" lon="-6.641092">
        <ele>784.014</ele>
        <time>2018-07-24T10:09:57Z</time>
      </trkpt>
      <trkpt lat="41.206309" lon="-6.64113">
        <ele>783.825</ele>
        <time>2018-07-24T10:09:58Z</time>
      </trkpt>
      <trkpt lat="41.206296" lon="-6.64117">
        <ele>783.673</ele>
        <time>2018-07-24T10:09:59Z</time>
      </trkpt>
      <trkpt lat="41.206284" lon="-6.64121">
        <ele>783.541</ele>
        <time>2018-07-24T10:10:00Z</time>
      </trkpt>
      <trkpt lat="41.206263" lon="-6.641297">
        <ele>783.365</ele>
        <time>2018-07-24T10:10:02Z</time>
      </trkpt>
      <trkpt lat="41.206235" lon="-6.641373">
        <ele>783.358</ele>
        <time>2018-07-24T10:10:04Z</time>
      </trkpt>
      <trkpt lat="41.206209" lon="-6.641449">
        <ele>783.346</ele>
        <time>2018-07-24T10:10:06Z</time>
      </trkpt>
      <trkpt lat="41.206199" lon="-6.641487">
        <ele>783.34</ele>
        <time>2018-07-24T10:10:07Z</time>
      </trkpt>
      <trkpt lat="41.206187" lon="-6.641526">
        <ele>783.333</ele>
        <time>2018-07-24T10:10:08Z</time>
      </trkpt>
      <trkpt lat="41.206174" lon="-6.641565">
        <ele>783.327</ele>
        <time>2018-07-24T10:10:09Z</time>
      </trkpt>
      <trkpt lat="41.20616" lon="-6.641607">
        <ele>783.315</ele>
        <time>2018-07-24T10:10:10Z</time>
      </trkpt>
      <trkpt lat="41.206145" lon="-6.64165">
        <ele>783.309</ele>
        <time>2018-07-24T10:10:11Z</time>
      </trkpt>
      <trkpt lat="41.206124" lon="-6.641735">
        <ele>783.298</ele>
        <time>2018-07-24T10:10:13Z</time>
      </trkpt>
      <trkpt lat="41.206114" lon="-6.641776">
        <ele>783.293</ele>
        <time>2018-07-24T10:10:14Z</time>
      </trkpt>
      <trkpt lat="41.206079" lon="-6.64186">
        <ele>783.287</ele>
        <time>2018-07-24T10:10:16Z</time>
      </trkpt>
      <trkpt lat="41.206039" lon="-6.641936">
        <ele>783.281</ele>
        <time>2018-07-24T10:10:18Z</time>
      </trkpt>
      <trkpt lat="41.20602" lon="-6.641976">
        <ele>783.276</ele>
        <time>2018-07-24T10:10:19Z</time>
      </trkpt>
      <trkpt lat="41.206" lon="-6.642017">
        <ele>783.22</ele>
        <time>2018-07-24T10:10:20Z</time>
      </trkpt>
      <trkpt lat="41.205978" lon="-6.64206">
        <ele>783.174</ele>
        <time>2018-07-24T10:10:21Z</time>
      </trkpt>
      <trkpt lat="41.205956" lon="-6.642102">
        <ele>783.14</ele>
        <time>2018-07-24T10:10:22Z</time>
      </trkpt>
      <trkpt lat="41.205919" lon="-6.642188">
        <ele>783.114</ele>
        <time>2018-07-24T10:10:24Z</time>
      </trkpt>
      <trkpt lat="41.205863" lon="-6.642265">
        <ele>783.093</ele>
        <time>2018-07-24T10:10:26Z</time>
      </trkpt>
      <trkpt lat="41.205835" lon="-6.642298">
        <ele>783.076</ele>
        <time>2018-07-24T10:10:27Z</time>
      </trkpt>
      <trkpt lat="41.205789" lon="-6.642365">
        <ele>783.062</ele>
        <time>2018-07-24T10:10:29Z</time>
      </trkpt>
      <trkpt lat="41.205768" lon="-6.642394">
        <ele>783.048</ele>
        <time>2018-07-24T10:10:30Z</time>
      </trkpt>
      <trkpt lat="41.205751" lon="-6.642418">
        <ele>783.036</ele>
        <time>2018-07-24T10:10:31Z</time>
      </trkpt>
      <trkpt lat="41.205734" lon="-6.642441">
        <ele>783.024</ele>
        <time>2018-07-24T10:10:32Z</time>
      </trkpt>
      <trkpt lat="41.205692" lon="-6.642482">
        <ele>783.014</ele>
        <time>2018-07-24T10:10:34Z</time>
      </trkpt>
      <trkpt lat="41.20567" lon="-6.642504">
        <ele>783.002</ele>
        <time>2018-07-24T10:10:35Z</time>
      </trkpt>
      <trkpt lat="41.205613" lon="-6.642551">
        <ele>782.99</ele>
        <time>2018-07-24T10:10:37Z</time>
      </trkpt>
      <trkpt lat="41.205585" lon="-6.642579">
        <ele>782.98</ele>
        <time>2018-07-24T10:10:38Z</time>
      </trkpt>
      <trkpt lat="41.205555" lon="-6.64261">
        <ele>782.969</ele>
        <time>2018-07-24T10:10:39Z</time>
      </trkpt>
      <trkpt lat="41.205527" lon="-6.642643">
        <ele>782.959</ele>
        <time>2018-07-24T10:10:40Z</time>
      </trkpt>
      <trkpt lat="41.205497" lon="-6.642676">
        <ele>782.948</ele>
        <time>2018-07-24T10:10:41Z</time>
      </trkpt>
      <trkpt lat="41.205466" lon="-6.642707">
        <ele>782.934</ele>
        <time>2018-07-24T10:10:42Z</time>
      </trkpt>
      <trkpt lat="41.205435" lon="-6.64274">
        <ele>782.917</ele>
        <time>2018-07-24T10:10:43Z</time>
      </trkpt>
      <trkpt lat="41.205403" lon="-6.642771">
        <ele>782.871</ele>
        <time>2018-07-24T10:10:44Z</time>
      </trkpt>
      <trkpt lat="41.20537" lon="-6.642801">
        <ele>782.823</ele>
        <time>2018-07-24T10:10:45Z</time>
      </trkpt>
      <trkpt lat="41.205334" lon="-6.642834">
        <ele>782.756</ele>
        <time>2018-07-24T10:10:46Z</time>
      </trkpt>
      <trkpt lat="41.205297" lon="-6.642865">
        <ele>782.673</ele>
        <time>2018-07-24T10:10:47Z</time>
      </trkpt>
      <trkpt lat="41.205258" lon="-6.642896">
        <ele>782.633</ele>
        <time>2018-07-24T10:10:48Z</time>
      </trkpt>
      <trkpt lat="41.20522" lon="-6.642929">
        <ele>782.588</ele>
        <time>2018-07-24T10:10:49Z</time>
      </trkpt>
      <trkpt lat="41.205179" lon="-6.642966">
        <ele>782.563</ele>
        <time>2018-07-24T10:10:50Z</time>
      </trkpt>
      <trkpt lat="41.205138" lon="-6.643006">
        <ele>782.501</ele>
        <time>2018-07-24T10:10:51Z</time>
      </trkpt>
      <trkpt lat="41.205093" lon="-6.643047">
        <ele>782.43</ele>
        <time>2018-07-24T10:10:52Z</time>
      </trkpt>
      <trkpt lat="41.205046" lon="-6.643089">
        <ele>782.355</ele>
        <time>2018-07-24T10:10:53Z</time>
      </trkpt>
      <trkpt lat="41.205" lon="-6.643135">
        <ele>782.311</ele>
        <time>2018-07-24T10:10:54Z</time>
      </trkpt>
      <trkpt lat="41.20495" lon="-6.643177">
        <ele>782.256</ele>
        <time>2018-07-24T10:10:55Z</time>
      </trkpt>
      <trkpt lat="41.204896" lon="-6.643221">
        <ele>782.209</ele>
        <time>2018-07-24T10:10:56Z</time>
      </trkpt>
      <trkpt lat="41.204836" lon="-6.643259">
        <ele>782.182</ele>
        <time>2018-07-24T10:10:57Z</time>
      </trkpt>
      <trkpt lat="41.20477" lon="-6.643292">
        <ele>782.168</ele>
        <time>2018-07-24T10:10:58Z</time>
      </trkpt>
      <trkpt lat="41.204701" lon="-6.64332">
        <ele>782.163</ele>
        <time>2018-07-24T10:10:59Z</time>
      </trkpt>
      <trkpt lat="41.204627" lon="-6.643345">
        <ele>782.146</ele>
        <time>2018-07-24T10:11:00Z</time>
      </trkpt>
      <trkpt lat="41.204549" lon="-6.643367">
        <ele>782.137</ele>
        <time>2018-07-24T10:11:01Z</time>
      </trkpt>
      <trkpt lat="41.20447" lon="-6.643388">
        <ele>782.117</ele>
        <time>2018-07-24T10:11:02Z</time>
      </trkpt>
      <trkpt lat="41.204388" lon="-6.64341">
        <ele>782.082</ele>
        <time>2018-07-24T10:11:03Z</time>
      </trkpt>
      <trkpt lat="41.204305" lon="-6.64343">
        <ele>782.029</ele>
        <time>2018-07-24T10:11:04Z</time>
      </trkpt>
      <trkpt lat="41.204219" lon="-6.643446">
        <ele>781.986</ele>
        <time>2018-07-24T10:11:05Z</time>
      </trkpt>
      <trkpt lat="41.204131" lon="-6.643458">
        <ele>781.986</ele>
        <time>2018-07-24T10:11:06Z</time>
      </trkpt>
      <trkpt lat="41.204043" lon="-6.643483">
        <ele>781.784</ele>
        <time>2018-07-24T10:11:07Z</time>
      </trkpt>
      <trkpt lat="41.203959" lon="-6.643517">
        <ele>781.607</ele>
        <time>2018-07-24T10:11:08Z</time>
      </trkpt>
      <trkpt lat="41.203878" lon="-6.643558">
        <ele>781.51</ele>
        <time>2018-07-24T10:11:09Z</time>
      </trkpt>
      <trkpt lat="41.203801" lon="-6.643608">
        <ele>781.419</ele>
        <time>2018-07-24T10:11:10Z</time>
      </trkpt>
      <trkpt lat="41.203725" lon="-6.643653">
        <ele>781.317</ele>
        <time>2018-07-24T10:11:11Z</time>
      </trkpt>
      <trkpt lat="41.203651" lon="-6.643703">
        <ele>781.193</ele>
        <time>2018-07-24T10:11:12Z</time>
      </trkpt>
      <trkpt lat="41.203579" lon="-6.643757">
        <ele>781.076</ele>
        <time>2018-07-24T10:11:13Z</time>
      </trkpt>
      <trkpt lat="41.203508" lon="-6.643805">
        <ele>780.975</ele>
        <time>2018-07-24T10:11:14Z</time>
      </trkpt>
      <trkpt lat="41.20344" lon="-6.643856">
        <ele>780.896</ele>
        <time>2018-07-24T10:11:15Z</time>
      </trkpt>
      <trkpt lat="41.203371" lon="-6.643898">
        <ele>780.816</ele>
        <time>2018-07-24T10:11:16Z</time>
      </trkpt>
      <trkpt lat="41.203306" lon="-6.643943">
        <ele>780.741</ele>
        <time>2018-07-24T10:11:17Z</time>
      </trkpt>
      <trkpt lat="41.20324" lon="-6.643984">
        <ele>780.669</ele>
        <time>2018-07-24T10:11:18Z</time>
      </trkpt>
      <trkpt lat="41.203172" lon="-6.644022">
        <ele>780.601</ele>
        <time>2018-07-24T10:11:19Z</time>
      </trkpt>
      <trkpt lat="41.203103" lon="-6.644047">
        <ele>780.499</ele>
        <time>2018-07-24T10:11:20Z</time>
      </trkpt>
      <trkpt lat="41.203032" lon="-6.64407">
        <ele>780.388</ele>
        <time>2018-07-24T10:11:21Z</time>
      </trkpt>
      <trkpt lat="41.202961" lon="-6.644095">
        <ele>780.306</ele>
        <time>2018-07-24T10:11:22Z</time>
      </trkpt>
      <trkpt lat="41.202889" lon="-6.644121">
        <ele>780.265</ele>
        <time>2018-07-24T10:11:23Z</time>
      </trkpt>
      <trkpt lat="41.202745" lon="-6.644164">
        <ele>780.136</ele>
        <time>2018-07-24T10:11:25Z</time>
      </trkpt>
      <trkpt lat="41.202607" lon="-6.644212">
        <ele>780.079</ele>
        <time>2018-07-24T10:11:27Z</time>
      </trkpt>
      <trkpt lat="41.202541" lon="-6.644241">
        <ele>780.021</ele>
        <time>2018-07-24T10:11:28Z</time>
      </trkpt>
      <trkpt lat="41.202476" lon="-6.644271">
        <ele>779.945</ele>
        <time>2018-07-24T10:11:29Z</time>
      </trkpt>
      <trkpt lat="41.202414" lon="-6.644306">
        <ele>779.816</ele>
        <time>2018-07-24T10:11:30Z</time>
      </trkpt>
      <trkpt lat="41.202352" lon="-6.644341">
        <ele>779.647</ele>
        <time>2018-07-24T10:11:31Z</time>
      </trkpt>
      <trkpt lat="41.202291" lon="-6.644385">
        <ele>779.481</ele>
        <time>2018-07-24T10:11:32Z</time>
      </trkpt>
      <trkpt lat="41.202234" lon="-6.64444">
        <ele>779.326</ele>
        <time>2018-07-24T10:11:33Z</time>
      </trkpt>
      <trkpt lat="41.202178" lon="-6.644501">
        <ele>779.164</ele>
        <time>2018-07-24T10:11:34Z</time>
      </trkpt>
      <trkpt lat="41.20212" lon="-6.644559">
        <ele>779.034</ele>
        <time>2018-07-24T10:11:35Z</time>
      </trkpt>
      <trkpt lat="41.202063" lon="-6.644619">
        <ele>778.899</ele>
        <time>2018-07-24T10:11:36Z</time>
      </trkpt>
      <trkpt lat="41.202007" lon="-6.644684">
        <ele>778.732</ele>
        <time>2018-07-24T10:11:37Z</time>
      </trkpt>
      <trkpt lat="41.201949" lon="-6.644746">
        <ele>778.561</ele>
        <time>2018-07-24T10:11:38Z</time>
      </trkpt>
      <trkpt lat="41.201839" lon="-6.644873">
        <ele>778.381</ele>
        <time>2018-07-24T10:11:40Z</time>
      </trkpt>
      <trkpt lat="41.201786" lon="-6.644936">
        <ele>778.209</ele>
        <time>2018-07-24T10:11:41Z</time>
      </trkpt>
      <trkpt lat="41.201735" lon="-6.644999">
        <ele>778.052</ele>
        <time>2018-07-24T10:11:42Z</time>
      </trkpt>
      <trkpt lat="41.20168" lon="-6.645052">
        <ele>777.91</ele>
        <time>2018-07-24T10:11:43Z</time>
      </trkpt>
      <trkpt lat="41.201573" lon="-6.645168">
        <ele>777.783</ele>
        <time>2018-07-24T10:11:45Z</time>
      </trkpt>
      <trkpt lat="41.201516" lon="-6.64522">
        <ele>777.637</ele>
        <time>2018-07-24T10:11:46Z</time>
      </trkpt>
      <trkpt lat="41.201464" lon="-6.645274">
        <ele>777.436</ele>
        <time>2018-07-24T10:11:47Z</time>
      </trkpt>
      <trkpt lat="41.201414" lon="-6.64533">
        <ele>777.219</ele>
        <time>2018-07-24T10:11:48Z</time>
      </trkpt>
      <trkpt lat="41.201359" lon="-6.64538">
        <ele>777.007</ele>
        <time>2018-07-24T10:11:49Z</time>
      </trkpt>
      <trkpt lat="41.201303" lon="-6.645425">
        <ele>776.715</ele>
        <time>2018-07-24T10:11:50Z</time>
      </trkpt>
      <trkpt lat="41.201245" lon="-6.645457">
        <ele>776.459</ele>
        <time>2018-07-24T10:11:51Z</time>
      </trkpt>
      <trkpt lat="41.201188" lon="-6.645488">
        <ele>776.178</ele>
        <time>2018-07-24T10:11:52Z</time>
      </trkpt>
      <trkpt lat="41.20113" lon="-6.645516">
        <ele>775.908</ele>
        <time>2018-07-24T10:11:53Z</time>
      </trkpt>
      <trkpt lat="41.201074" lon="-6.645544">
        <ele>775.669</ele>
        <time>2018-07-24T10:11:54Z</time>
      </trkpt>
      <trkpt lat="41.201015" lon="-6.645566">
        <ele>775.442</ele>
        <time>2018-07-24T10:11:55Z</time>
      </trkpt>
      <trkpt lat="41.200954" lon="-6.645582">
        <ele>775.237</ele>
        <time>2018-07-24T10:11:56Z</time>
      </trkpt>
      <trkpt lat="41.200893" lon="-6.645597">
        <ele>775.011</ele>
        <time>2018-07-24T10:11:57Z</time>
      </trkpt>
      <trkpt lat="41.200833" lon="-6.64561">
        <ele>774.799</ele>
        <time>2018-07-24T10:11:58Z</time>
      </trkpt>
      <trkpt lat="41.200771" lon="-6.645622">
        <ele>774.546</ele>
        <time>2018-07-24T10:11:59Z</time>
      </trkpt>
      <trkpt lat="41.200709" lon="-6.645634">
        <ele>774.284</ele>
        <time>2018-07-24T10:12:00Z</time>
      </trkpt>
      <trkpt lat="41.200645" lon="-6.645642">
        <ele>774.048</ele>
        <time>2018-07-24T10:12:01Z</time>
      </trkpt>
      <trkpt lat="41.200581" lon="-6.645652">
        <ele>773.835</ele>
        <time>2018-07-24T10:12:02Z</time>
      </trkpt>
      <trkpt lat="41.200515" lon="-6.64566">
        <ele>773.615</ele>
        <time>2018-07-24T10:12:03Z</time>
      </trkpt>
      <trkpt lat="41.200452" lon="-6.64567">
        <ele>773.405</ele>
        <time>2018-07-24T10:12:04Z</time>
      </trkpt>
      <trkpt lat="41.200387" lon="-6.645682">
        <ele>773.206</ele>
        <time>2018-07-24T10:12:05Z</time>
      </trkpt>
      <trkpt lat="41.200323" lon="-6.645697">
        <ele>772.997</ele>
        <time>2018-07-24T10:12:06Z</time>
      </trkpt>
      <trkpt lat="41.200258" lon="-6.645715">
        <ele>772.815</ele>
        <time>2018-07-24T10:12:07Z</time>
      </trkpt>
      <trkpt lat="41.200194" lon="-6.645738">
        <ele>772.629</ele>
        <time>2018-07-24T10:12:08Z</time>
      </trkpt>
      <trkpt lat="41.200129" lon="-6.645763">
        <ele>772.443</ele>
        <time>2018-07-24T10:12:09Z</time>
      </trkpt>
      <trkpt lat="41.200066" lon="-6.645794">
        <ele>772.242</ele>
        <time>2018-07-24T10:12:10Z</time>
      </trkpt>
      <trkpt lat="41.200002" lon="-6.645827">
        <ele>772.042</ele>
        <time>2018-07-24T10:12:11Z</time>
      </trkpt>
      <trkpt lat="41.19994" lon="-6.645864">
        <ele>771.625</ele>
        <time>2018-07-24T10:12:12Z</time>
      </trkpt>
      <trkpt lat="41.199878" lon="-6.645903">
        <ele>771.384</ele>
        <time>2018-07-24T10:12:13Z</time>
      </trkpt>
      <trkpt lat="41.199816" lon="-6.645941">
        <ele>771.158</ele>
        <time>2018-07-24T10:12:14Z</time>
      </trkpt>
      <trkpt lat="41.199754" lon="-6.645987">
        <ele>770.921</ele>
        <time>2018-07-24T10:12:15Z</time>
      </trkpt>
      <trkpt lat="41.199692" lon="-6.646034">
        <ele>770.686</ele>
        <time>2018-07-24T10:12:16Z</time>
      </trkpt>
      <trkpt lat="41.19963" lon="-6.646088">
        <ele>770.464</ele>
        <time>2018-07-24T10:12:17Z</time>
      </trkpt>
      <trkpt lat="41.199565" lon="-6.646137">
        <ele>770.231</ele>
        <time>2018-07-24T10:12:18Z</time>
      </trkpt>
      <trkpt lat="41.199505" lon="-6.646194">
        <ele>769.994</ele>
        <time>2018-07-24T10:12:19Z</time>
      </trkpt>
      <trkpt lat="41.199439" lon="-6.646247">
        <ele>769.761</ele>
        <time>2018-07-24T10:12:20Z</time>
      </trkpt>
      <trkpt lat="41.199374" lon="-6.646302">
        <ele>769.513</ele>
        <time>2018-07-24T10:12:21Z</time>
      </trkpt>
      <trkpt lat="41.19931" lon="-6.646358">
        <ele>769.276</ele>
        <time>2018-07-24T10:12:22Z</time>
      </trkpt>
      <trkpt lat="41.199248" lon="-6.646417">
        <ele>769.046</ele>
        <time>2018-07-24T10:12:23Z</time>
      </trkpt>
      <trkpt lat="41.199182" lon="-6.646473">
        <ele>768.822</ele>
        <time>2018-07-24T10:12:24Z</time>
      </trkpt>
      <trkpt lat="41.199118" lon="-6.646533">
        <ele>768.609</ele>
        <time>2018-07-24T10:12:25Z</time>
      </trkpt>
      <trkpt lat="41.199051" lon="-6.64659">
        <ele>768.392</ele>
        <time>2018-07-24T10:12:26Z</time>
      </trkpt>
      <trkpt lat="41.198983" lon="-6.646644">
        <ele>768.168</ele>
        <time>2018-07-24T10:12:27Z</time>
      </trkpt>
      <trkpt lat="41.198914" lon="-6.646699">
        <ele>767.934</ele>
        <time>2018-07-24T10:12:28Z</time>
      </trkpt>
      <trkpt lat="41.198773" lon="-6.646794">
        <ele>767.738</ele>
        <time>2018-07-24T10:12:30Z</time>
      </trkpt>
      <trkpt lat="41.198697" lon="-6.646836">
        <ele>767.542</ele>
        <time>2018-07-24T10:12:31Z</time>
      </trkpt>
      <trkpt lat="41.198621" lon="-6.646882">
        <ele>767.344</ele>
        <time>2018-07-24T10:12:32Z</time>
      </trkpt>
      <trkpt lat="41.198544" lon="-6.646929">
        <ele>767.109</ele>
        <time>2018-07-24T10:12:33Z</time>
      </trkpt>
      <trkpt lat="41.198467" lon="-6.646982">
        <ele>766.908</ele>
        <time>2018-07-24T10:12:34Z</time>
      </trkpt>
      <trkpt lat="41.198387" lon="-6.647031">
        <ele>766.732</ele>
        <time>2018-07-24T10:12:35Z</time>
      </trkpt>
      <trkpt lat="41.198303" lon="-6.647078">
        <ele>766.528</ele>
        <time>2018-07-24T10:12:36Z</time>
      </trkpt>
      <trkpt lat="41.198218" lon="-6.647127">
        <ele>766.304</ele>
        <time>2018-07-24T10:12:37Z</time>
      </trkpt>
      <trkpt lat="41.19813" lon="-6.647173">
        <ele>766.063</ele>
        <time>2018-07-24T10:12:38Z</time>
      </trkpt>
      <trkpt lat="41.198041" lon="-6.647218">
        <ele>765.791</ele>
        <time>2018-07-24T10:12:39Z</time>
      </trkpt>
      <trkpt lat="41.197951" lon="-6.647264">
        <ele>764.796</ele>
        <time>2018-07-24T10:12:40Z</time>
      </trkpt>
      <trkpt lat="41.197858" lon="-6.647311">
        <ele>764.396</ele>
        <time>2018-07-24T10:12:41Z</time>
      </trkpt>
      <trkpt lat="41.197764" lon="-6.647354">
        <ele>764.086</ele>
        <time>2018-07-24T10:12:42Z</time>
      </trkpt>
      <trkpt lat="41.19767" lon="-6.647399">
        <ele>763.785</ele>
        <time>2018-07-24T10:12:43Z</time>
      </trkpt>
      <trkpt lat="41.197577" lon="-6.647445">
        <ele>763.494</ele>
        <time>2018-07-24T10:12:44Z</time>
      </trkpt>
      <trkpt lat="41.197483" lon="-6.647487">
        <ele>763.154</ele>
        <time>2018-07-24T10:12:45Z</time>
      </trkpt>
      <trkpt lat="41.19739" lon="-6.647531">
        <ele>762.864</ele>
        <time>2018-07-24T10:12:46Z</time>
      </trkpt>
      <trkpt lat="41.197297" lon="-6.647574">
        <ele>762.612</ele>
        <time>2018-07-24T10:12:47Z</time>
      </trkpt>
      <trkpt lat="41.197203" lon="-6.647613">
        <ele>762.392</ele>
        <time>2018-07-24T10:12:48Z</time>
      </trkpt>
      <trkpt lat="41.197109" lon="-6.64765">
        <ele>762.227</ele>
        <time>2018-07-24T10:12:49Z</time>
      </trkpt>
      <trkpt lat="41.197017" lon="-6.647696">
        <ele>762.118</ele>
        <time>2018-07-24T10:12:50Z</time>
      </trkpt>
      <trkpt lat="41.196923" lon="-6.647733">
        <ele>762.023</ele>
        <time>2018-07-24T10:12:51Z</time>
      </trkpt>
      <trkpt lat="41.196832" lon="-6.647781">
        <ele>761.911</ele>
        <time>2018-07-24T10:12:52Z</time>
      </trkpt>
      <trkpt lat="41.19674" lon="-6.647828">
        <ele>758.347</ele>
        <time>2018-07-24T10:12:53Z</time>
      </trkpt>
      <trkpt lat="41.196648" lon="-6.647873">
        <ele>757.077</ele>
        <time>2018-07-24T10:12:54Z</time>
      </trkpt>
      <trkpt lat="41.196556" lon="-6.647918">
        <ele>756.1</ele>
        <time>2018-07-24T10:12:55Z</time>
      </trkpt>
      <trkpt lat="41.196463" lon="-6.647954">
        <ele>755.142</ele>
        <time>2018-07-24T10:12:56Z</time>
      </trkpt>
      <trkpt lat="41.196179" lon="-6.648082">
        <ele>754.381</ele>
        <time>2018-07-24T10:12:59Z</time>
      </trkpt>
      <trkpt lat="41.196079" lon="-6.648115">
        <ele>753.747</ele>
        <time>2018-07-24T10:13:00Z</time>
      </trkpt>
      <trkpt lat="41.19598" lon="-6.648151">
        <ele>753.189</ele>
        <time>2018-07-24T10:13:01Z</time>
      </trkpt>
      <trkpt lat="41.195878" lon="-6.648182">
        <ele>752.65</ele>
        <time>2018-07-24T10:13:02Z</time>
      </trkpt>
      <trkpt lat="41.195772" lon="-6.648217">
        <ele>752.152</ele>
        <time>2018-07-24T10:13:03Z</time>
      </trkpt>
      <trkpt lat="41.195667" lon="-6.64826">
        <ele>751.748</ele>
        <time>2018-07-24T10:13:04Z</time>
      </trkpt>
      <trkpt lat="41.195558" lon="-6.648303">
        <ele>751.293</ele>
        <time>2018-07-24T10:13:05Z</time>
      </trkpt>
      <trkpt lat="41.195449" lon="-6.648357">
        <ele>750.839</ele>
        <time>2018-07-24T10:13:06Z</time>
      </trkpt>
      <trkpt lat="41.19534" lon="-6.648415">
        <ele>749.198</ele>
        <time>2018-07-24T10:13:07Z</time>
      </trkpt>
      <trkpt lat="41.195121" lon="-6.648526">
        <ele>748.466</ele>
        <time>2018-07-24T10:13:09Z</time>
      </trkpt>
      <trkpt lat="41.194905" lon="-6.648637">
        <ele>747.793</ele>
        <time>2018-07-24T10:13:11Z</time>
      </trkpt>
      <trkpt lat="41.194795" lon="-6.648691">
        <ele>747.075</ele>
        <time>2018-07-24T10:13:12Z</time>
      </trkpt>
      <trkpt lat="41.194688" lon="-6.648743">
        <ele>746.314</ele>
        <time>2018-07-24T10:13:13Z</time>
      </trkpt>
      <trkpt lat="41.194215" lon="-6.649063">
        <ele>745.493</ele>
        <time>2018-07-24T10:13:18Z</time>
      </trkpt>
      <trkpt lat="41.194131" lon="-6.649139">
        <ele>743.173</ele>
        <time>2018-07-24T10:13:19Z</time>
      </trkpt>
      <trkpt lat="41.194049" lon="-6.649211">
        <ele>742.544</ele>
        <time>2018-07-24T10:13:20Z</time>
      </trkpt>
      <trkpt lat="41.193981" lon="-6.649298">
        <ele>742.088</ele>
        <time>2018-07-24T10:13:21Z</time>
      </trkpt>
      <trkpt lat="41.193905" lon="-6.64937">
        <ele>741.103</ele>
        <time>2018-07-24T10:13:22Z</time>
      </trkpt>
      <trkpt lat="41.193826" lon="-6.649437">
        <ele>740.589</ele>
        <time>2018-07-24T10:13:23Z</time>
      </trkpt>
      <trkpt lat="41.193746" lon="-6.649491">
        <ele>740.038</ele>
        <time>2018-07-24T10:13:24Z</time>
      </trkpt>
      <trkpt lat="41.193663" lon="-6.649526">
        <ele>738.822</ele>
        <time>2018-07-24T10:13:25Z</time>
      </trkpt>
      <trkpt lat="41.193576" lon="-6.649546">
        <ele>738.082</ele>
        <time>2018-07-24T10:13:26Z</time>
      </trkpt>
      <trkpt lat="41.193489" lon="-6.649554">
        <ele>737.048</ele>
        <time>2018-07-24T10:13:27Z</time>
      </trkpt>
      <trkpt lat="41.193404" lon="-6.649555">
        <ele>736.025</ele>
        <time>2018-07-24T10:13:28Z</time>
      </trkpt>
      <trkpt lat="41.19332" lon="-6.649561">
        <ele>734.951</ele>
        <time>2018-07-24T10:13:29Z</time>
      </trkpt>
      <trkpt lat="41.19307" lon="-6.649578">
        <ele>730.251</ele>
        <time>2018-07-24T10:13:32Z</time>
      </trkpt>
      <trkpt lat="41.19299" lon="-6.649585">
        <ele>729.579</ele>
        <time>2018-07-24T10:13:33Z</time>
      </trkpt>
      <trkpt lat="41.19291" lon="-6.649592">
        <ele>728.842</ele>
        <time>2018-07-24T10:13:34Z</time>
      </trkpt>
      <trkpt lat="41.192831" lon="-6.649594">
        <ele>728.048</ele>
        <time>2018-07-24T10:13:35Z</time>
      </trkpt>
      <trkpt lat="41.192753" lon="-6.649595">
        <ele>727.276</ele>
        <time>2018-07-24T10:13:36Z</time>
      </trkpt>
      <trkpt lat="41.192675" lon="-6.649601">
        <ele>726.533</ele>
        <time>2018-07-24T10:13:37Z</time>
      </trkpt>
      <trkpt lat="41.19245" lon="-6.649666">
        <ele>725.782</ele>
        <time>2018-07-24T10:13:40Z</time>
      </trkpt>
      <trkpt lat="41.192383" lon="-6.649715">
        <ele>725.076</ele>
        <time>2018-07-24T10:13:41Z</time>
      </trkpt>
      <trkpt lat="41.192327" lon="-6.649781">
        <ele>724.372</ele>
        <time>2018-07-24T10:13:42Z</time>
      </trkpt>
      <trkpt lat="41.192219" lon="-6.649927">
        <ele>723.623</ele>
        <time>2018-07-24T10:13:44Z</time>
      </trkpt>
      <trkpt lat="41.192161" lon="-6.650002">
        <ele>722.856</ele>
        <time>2018-07-24T10:13:45Z</time>
      </trkpt>
      <trkpt lat="41.1921" lon="-6.650079">
        <ele>722.118</ele>
        <time>2018-07-24T10:13:46Z</time>
      </trkpt>
      <trkpt lat="41.191969" lon="-6.650242">
        <ele>721.368</ele>
        <time>2018-07-24T10:13:48Z</time>
      </trkpt>
      <trkpt lat="41.191895" lon="-6.650329">
        <ele>720.602</ele>
        <time>2018-07-24T10:13:49Z</time>
      </trkpt>
      <trkpt lat="41.19182" lon="-6.650426">
        <ele>719.917</ele>
        <time>2018-07-24T10:13:50Z</time>
      </trkpt>
      <trkpt lat="41.191741" lon="-6.650525">
        <ele>717.845</ele>
        <time>2018-07-24T10:13:51Z</time>
      </trkpt>
      <trkpt lat="41.191659" lon="-6.650626">
        <ele>717.068</ele>
        <time>2018-07-24T10:13:52Z</time>
      </trkpt>
      <trkpt lat="41.191098" lon="-6.651191">
        <ele>716.319</ele>
        <time>2018-07-24T10:13:58Z</time>
      </trkpt>
      <trkpt lat="41.191005" lon="-6.651288">
        <ele>715.551</ele>
        <time>2018-07-24T10:13:59Z</time>
      </trkpt>
      <trkpt lat="41.190914" lon="-6.651391">
        <ele>714.822</ele>
        <time>2018-07-24T10:14:00Z</time>
      </trkpt>
      <trkpt lat="41.190821" lon="-6.651498">
        <ele>714.086</ele>
        <time>2018-07-24T10:14:01Z</time>
      </trkpt>
      <trkpt lat="41.190732" lon="-6.651607">
        <ele>713.406</ele>
        <time>2018-07-24T10:14:02Z</time>
      </trkpt>
      <trkpt lat="41.19065" lon="-6.651716">
        <ele>712.726</ele>
        <time>2018-07-24T10:14:03Z</time>
      </trkpt>
      <trkpt lat="41.190578" lon="-6.651831">
        <ele>712.027</ele>
        <time>2018-07-24T10:14:04Z</time>
      </trkpt>
      <trkpt lat="41.190522" lon="-6.65195">
        <ele>711.32</ele>
        <time>2018-07-24T10:14:05Z</time>
      </trkpt>
      <trkpt lat="41.190481" lon="-6.652076">
        <ele>710.473</ele>
        <time>2018-07-24T10:14:06Z</time>
      </trkpt>
      <trkpt lat="41.190445" lon="-6.65221">
        <ele>709.491</ele>
        <time>2018-07-24T10:14:07Z</time>
      </trkpt>
      <trkpt lat="41.190416" lon="-6.652352">
        <ele>708.435</ele>
        <time>2018-07-24T10:14:08Z</time>
      </trkpt>
      <trkpt lat="41.190392" lon="-6.652499">
        <ele>707.367</ele>
        <time>2018-07-24T10:14:09Z</time>
      </trkpt>
      <trkpt lat="41.190377" lon="-6.652651">
        <ele>705.369</ele>
        <time>2018-07-24T10:14:10Z</time>
      </trkpt>
      <trkpt lat="41.190361" lon="-6.652797">
        <ele>704.355</ele>
        <time>2018-07-24T10:14:11Z</time>
      </trkpt>
      <trkpt lat="41.190353" lon="-6.652928">
        <ele>703.191</ele>
        <time>2018-07-24T10:14:12Z</time>
      </trkpt>
      <trkpt lat="41.190327" lon="-6.653241">
        <ele>702.17</ele>
        <time>2018-07-24T10:14:15Z</time>
      </trkpt>
      <trkpt lat="41.190303" lon="-6.653308">
        <ele>701.133</ele>
        <time>2018-07-24T10:14:16Z</time>
      </trkpt>
      <trkpt lat="41.190262" lon="-6.653356">
        <ele>700.348</ele>
        <time>2018-07-24T10:14:17Z</time>
      </trkpt>
      <trkpt lat="41.190201" lon="-6.653387">
        <ele>699.449</ele>
        <time>2018-07-24T10:14:18Z</time>
      </trkpt>
      <trkpt lat="41.190121" lon="-6.653404">
        <ele>694.152</ele>
        <time>2018-07-24T10:14:19Z</time>
      </trkpt>
      <trkpt lat="41.190029" lon="-6.653386">
        <ele>692.61</ele>
        <time>2018-07-24T10:14:20Z</time>
      </trkpt>
      <trkpt lat="41.189934" lon="-6.653347">
        <ele>690.516</ele>
        <time>2018-07-24T10:14:21Z</time>
      </trkpt>
      <trkpt lat="41.189831" lon="-6.653311">
        <ele>688.659</ele>
        <time>2018-07-24T10:14:22Z</time>
      </trkpt>
      <trkpt lat="41.189724" lon="-6.653291">
        <ele>686.931</ele>
        <time>2018-07-24T10:14:23Z</time>
      </trkpt>
      <trkpt lat="41.189607" lon="-6.653282">
        <ele>685.078</ele>
        <time>2018-07-24T10:14:24Z</time>
      </trkpt>
      <trkpt lat="41.189485" lon="-6.65329">
        <ele>683.136</ele>
        <time>2018-07-24T10:14:25Z</time>
      </trkpt>
      <trkpt lat="41.189361" lon="-6.653309">
        <ele>681.228</ele>
        <time>2018-07-24T10:14:26Z</time>
      </trkpt>
      <trkpt lat="41.189236" lon="-6.653339">
        <ele>679.346</ele>
        <time>2018-07-24T10:14:27Z</time>
      </trkpt>
      <trkpt lat="41.189117" lon="-6.653375">
        <ele>677.481</ele>
        <time>2018-07-24T10:14:28Z</time>
      </trkpt>
      <trkpt lat="41.188904" lon="-6.653445">
        <ele>675.622</ele>
        <time>2018-07-24T10:14:30Z</time>
      </trkpt>
      <trkpt lat="41.188814" lon="-6.653495">
        <ele>673.823</ele>
        <time>2018-07-24T10:14:31Z</time>
      </trkpt>
      <trkpt lat="41.18874" lon="-6.653568">
        <ele>672.129</ele>
        <time>2018-07-24T10:14:32Z</time>
      </trkpt>
      <trkpt lat="41.188671" lon="-6.653661">
        <ele>670.59</ele>
        <time>2018-07-24T10:14:33Z</time>
      </trkpt>
      <trkpt lat="41.188631" lon="-6.653792">
        <ele>669.092</ele>
        <time>2018-07-24T10:14:34Z</time>
      </trkpt>
      <trkpt lat="41.188573" lon="-6.653918">
        <ele>667.702</ele>
        <time>2018-07-24T10:14:35Z</time>
      </trkpt>
      <trkpt lat="41.188537" lon="-6.65406">
        <ele>659.265</ele>
        <time>2018-07-24T10:14:36Z</time>
      </trkpt>
      <trkpt lat="41.188136" lon="-6.654527">
        <ele>656.831</ele>
        <time>2018-07-24T10:14:41Z</time>
      </trkpt>
      <trkpt lat="41.188051" lon="-6.654624">
        <ele>654.251</ele>
        <time>2018-07-24T10:14:42Z</time>
      </trkpt>
      <trkpt lat="41.187969" lon="-6.654734">
        <ele>651.762</ele>
        <time>2018-07-24T10:14:43Z</time>
      </trkpt>
      <trkpt lat="41.187889" lon="-6.65484">
        <ele>649.313</ele>
        <time>2018-07-24T10:14:44Z</time>
      </trkpt>
      <trkpt lat="41.187814" lon="-6.654936">
        <ele>646.96</ele>
        <time>2018-07-24T10:14:45Z</time>
      </trkpt>
      <trkpt lat="41.187752" lon="-6.655038">
        <ele>644.86</ele>
        <time>2018-07-24T10:14:46Z</time>
      </trkpt>
      <trkpt lat="41.187683" lon="-6.655113">
        <ele>642.772</ele>
        <time>2018-07-24T10:14:47Z</time>
      </trkpt>
      <trkpt lat="41.187607" lon="-6.655167">
        <ele>640.75</ele>
        <time>2018-07-24T10:14:48Z</time>
      </trkpt>
      <trkpt lat="41.187518" lon="-6.655188">
        <ele>638.834</ele>
        <time>2018-07-24T10:14:49Z</time>
      </trkpt>
      <trkpt lat="41.187421" lon="-6.655183">
        <ele>636.964</ele>
        <time>2018-07-24T10:14:50Z</time>
      </trkpt>
      <trkpt lat="41.187313" lon="-6.655153">
        <ele>635.431</ele>
        <time>2018-07-24T10:14:51Z</time>
      </trkpt>
      <trkpt lat="41.187202" lon="-6.655127">
        <ele>631.742</ele>
        <time>2018-07-24T10:14:52Z</time>
      </trkpt>
      <trkpt lat="41.187089" lon="-6.65511">
        <ele>630.758</ele>
        <time>2018-07-24T10:14:53Z</time>
      </trkpt>
      <trkpt lat="41.186983" lon="-6.655103">
        <ele>630.445</ele>
        <time>2018-07-24T10:14:54Z</time>
      </trkpt>
      <trkpt lat="41.186877" lon="-6.655091">
        <ele>630.378</ele>
        <time>2018-07-24T10:14:55Z</time>
      </trkpt>
      <trkpt lat="41.186772" lon="-6.655081">
        <ele>630.361</ele>
        <time>2018-07-24T10:14:56Z</time>
      </trkpt>
      <trkpt lat="41.186282" lon="-6.65487">
        <ele>623.482</ele>
        <time>2018-07-24T10:15:01Z</time>
      </trkpt>
      <trkpt lat="41.18621" lon="-6.654813">
        <ele>622.931</ele>
        <time>2018-07-24T10:15:02Z</time>
      </trkpt>
      <trkpt lat="41.186139" lon="-6.654754">
        <ele>622.14</ele>
        <time>2018-07-24T10:15:03Z</time>
      </trkpt>
      <trkpt lat="41.186069" lon="-6.654691">
        <ele>621.387</ele>
        <time>2018-07-24T10:15:04Z</time>
      </trkpt>
      <trkpt lat="41.186002" lon="-6.654623">
        <ele>620.908</ele>
        <time>2018-07-24T10:15:05Z</time>
      </trkpt>
      <trkpt lat="41.185939" lon="-6.654557">
        <ele>620.448</ele>
        <time>2018-07-24T10:15:06Z</time>
      </trkpt>
      <trkpt lat="41.18588" lon="-6.654495">
        <ele>620.004</ele>
        <time>2018-07-24T10:15:07Z</time>
      </trkpt>
      <trkpt lat="41.185819" lon="-6.654435">
        <ele>619.788</ele>
        <time>2018-07-24T10:15:08Z</time>
      </trkpt>
      <trkpt lat="41.185756" lon="-6.654385">
        <ele>619.366</ele>
        <time>2018-07-24T10:15:09Z</time>
      </trkpt>
      <trkpt lat="41.185697" lon="-6.654346">
        <ele>619.161</ele>
        <time>2018-07-24T10:15:10Z</time>
      </trkpt>
      <trkpt lat="41.185644" lon="-6.654329">
        <ele>618.959</ele>
        <time>2018-07-24T10:15:11Z</time>
      </trkpt>
      <trkpt lat="41.185596" lon="-6.654323">
        <ele>618.566</ele>
        <time>2018-07-24T10:15:12Z</time>
      </trkpt>
      <trkpt lat="41.185483" lon="-6.654406">
        <ele>618.005</ele>
        <time>2018-07-24T10:15:15Z</time>
      </trkpt>
      <trkpt lat="41.185459" lon="-6.654457">
        <ele>617.825</ele>
        <time>2018-07-24T10:15:16Z</time>
      </trkpt>
      <trkpt lat="41.185448" lon="-6.65463">
        <ele>617.648</ele>
        <time>2018-07-24T10:15:19Z</time>
      </trkpt>
      <trkpt lat="41.185462" lon="-6.654723">
        <ele>617.306</ele>
        <time>2018-07-24T10:15:21Z</time>
      </trkpt>
      <trkpt lat="41.185464" lon="-6.654758">
        <ele>616.976</ele>
        <time>2018-07-24T10:15:29Z</time>
      </trkpt>
      <trkpt lat="41.185413" lon="-6.65465">
        <ele>616.66</ele>
        <time>2018-07-24T10:17:05Z</time>
      </trkpt>
      <trkpt lat="41.18542" lon="-6.654586">
        <ele>616.356</ele>
        <time>2018-07-24T10:17:07Z</time>
      </trkpt>
      <trkpt lat="41.185408" lon="-6.654502">
        <ele>616.208</ele>
        <time>2018-07-24T10:17:10Z</time>
      </trkpt>
      <trkpt lat="41.185413" lon="-6.654438">
        <ele>616.063</ele>
        <time>2018-07-24T10:17:13Z</time>
      </trkpt>
      <trkpt lat="41.185419" lon="-6.65439">
        <ele>615.782</ele>
        <time>2018-07-24T10:17:15Z</time>
      </trkpt>
      <trkpt lat="41.185424" lon="-6.654332">
        <ele>615.645</ele>
        <time>2018-07-24T10:17:17Z</time>
      </trkpt>
      <trkpt lat="41.185431" lon="-6.654273">
        <ele>615.379</ele>
        <time>2018-07-24T10:17:19Z</time>
      </trkpt>
      <trkpt lat="41.185436" lon="-6.654231">
        <ele>615.249</ele>
        <time>2018-07-24T10:17:20Z</time>
      </trkpt>
      <trkpt lat="41.185435" lon="-6.654148">
        <ele>615.121</ele>
        <time>2018-07-24T10:17:22Z</time>
      </trkpt>
      <trkpt lat="41.185436" lon="-6.654112">
        <ele>614.87</ele>
        <time>2018-07-24T10:17:23Z</time>
      </trkpt>
      <trkpt lat="41.185436" lon="-6.654076">
        <ele>614.748</ele>
        <time>2018-07-24T10:17:24Z</time>
      </trkpt>
      <trkpt lat="41.185436" lon="-6.654032">
        <ele>614.629</ele>
        <time>2018-07-24T10:17:26Z</time>
      </trkpt>
      <trkpt lat="41.185418" lon="-6.653947">
        <ele>614.511</ele>
        <time>2018-07-24T10:17:29Z</time>
      </trkpt>
      <trkpt lat="41.185411" lon="-6.653914">
        <ele>614.396</ele>
        <time>2018-07-24T10:17:30Z</time>
      </trkpt>
      <trkpt lat="41.185401" lon="-6.653879">
        <ele>614.283</ele>
        <time>2018-07-24T10:17:31Z</time>
      </trkpt>
      <trkpt lat="41.18539" lon="-6.653831">
        <ele>614.062</ele>
        <time>2018-07-24T10:17:33Z</time>
      </trkpt>
      <trkpt lat="41.185364" lon="-6.653772">
        <ele>613.955</ele>
        <time>2018-07-24T10:17:35Z</time>
      </trkpt>
      <trkpt lat="41.185346" lon="-6.653723">
        <ele>613.745</ele>
        <time>2018-07-24T10:17:37Z</time>
      </trkpt>
      <trkpt lat="41.185328" lon="-6.653675">
        <ele>613.542</ele>
        <time>2018-07-24T10:17:39Z</time>
      </trkpt>
      <trkpt lat="41.185317" lon="-6.653646">
        <ele>613.444</ele>
        <time>2018-07-24T10:17:40Z</time>
      </trkpt>
      <trkpt lat="41.185307" lon="-6.653616">
        <ele>613.347</ele>
        <time>2018-07-24T10:17:41Z</time>
      </trkpt>
      <trkpt lat="41.185278" lon="-6.653561">
        <ele>613.252</ele>
        <time>2018-07-24T10:17:43Z</time>
      </trkpt>
      <trkpt lat="41.185263" lon="-6.653528">
        <ele>613.158</ele>
        <time>2018-07-24T10:17:44Z</time>
      </trkpt>
      <trkpt lat="41.185245" lon="-6.653459">
        <ele>612.977</ele>
        <time>2018-07-24T10:17:46Z</time>
      </trkpt>
      <trkpt lat="41.185236" lon="-6.653422">
        <ele>612.889</ele>
        <time>2018-07-24T10:17:47Z</time>
      </trkpt>
      <trkpt lat="41.185226" lon="-6.653385">
        <ele>612.718</ele>
        <time>2018-07-24T10:17:48Z</time>
      </trkpt>
      <trkpt lat="41.185216" lon="-6.653312">
        <ele>612.555</ele>
        <time>2018-07-24T10:17:50Z</time>
      </trkpt>
      <trkpt lat="41.185214" lon="-6.653279">
        <ele>612.477</ele>
        <time>2018-07-24T10:17:51Z</time>
      </trkpt>
      <trkpt lat="41.185211" lon="-6.653248">
        <ele>612.324</ele>
        <time>2018-07-24T10:17:52Z</time>
      </trkpt>
      <trkpt lat="41.185206" lon="-6.653217">
        <ele>612.177</ele>
        <time>2018-07-24T10:17:53Z</time>
      </trkpt>
      <trkpt lat="41.1852" lon="-6.653187">
        <ele>612.037</ele>
        <time>2018-07-24T10:17:54Z</time>
      </trkpt>
      <trkpt lat="41.185194" lon="-6.653157">
        <ele>611.969</ele>
        <time>2018-07-24T10:17:55Z</time>
      </trkpt>
      <trkpt lat="41.185203" lon="-6.653093">
        <ele>611.771</ele>
        <time>2018-07-24T10:17:57Z</time>
      </trkpt>
      <trkpt lat="41.185208" lon="-6.65306">
        <ele>611.708</ele>
        <time>2018-07-24T10:17:58Z</time>
      </trkpt>
      <trkpt lat="41.185221" lon="-6.652991">
        <ele>611.584</ele>
        <time>2018-07-24T10:18:00Z</time>
      </trkpt>
      <trkpt lat="41.185234" lon="-6.652935">
        <ele>611.465</ele>
        <time>2018-07-24T10:18:02Z</time>
      </trkpt>
      <trkpt lat="41.185243" lon="-6.6529">
        <ele>611.349</ele>
        <time>2018-07-24T10:18:03Z</time>
      </trkpt>
      <trkpt lat="41.185251" lon="-6.652867">
        <ele>611.234</ele>
        <time>2018-07-24T10:18:04Z</time>
      </trkpt>
      <trkpt lat="41.185259" lon="-6.65283">
        <ele>611.177</ele>
        <time>2018-07-24T10:18:05Z</time>
      </trkpt>
      <trkpt lat="41.185265" lon="-6.652799">
        <ele>611.066</ele>
        <time>2018-07-24T10:18:06Z</time>
      </trkpt>
      <trkpt lat="41.185285" lon="-6.652728">
        <ele>611.011</ele>
        <time>2018-07-24T10:18:08Z</time>
      </trkpt>
      <trkpt lat="41.185294" lon="-6.652696">
        <ele>610.907</ele>
        <time>2018-07-24T10:18:09Z</time>
      </trkpt>
      <trkpt lat="41.185307" lon="-6.652634">
        <ele>610.857</ele>
        <time>2018-07-24T10:18:11Z</time>
      </trkpt>
      <trkpt lat="41.185326" lon="-6.652567">
        <ele>610.713</ele>
        <time>2018-07-24T10:18:13Z</time>
      </trkpt>
      <trkpt lat="41.185335" lon="-6.65253">
        <ele>610.667</ele>
        <time>2018-07-24T10:18:14Z</time>
      </trkpt>
      <trkpt lat="41.185347" lon="-6.652469">
        <ele>610.622</ele>
        <time>2018-07-24T10:18:16Z</time>
      </trkpt>
      <trkpt lat="41.185367" lon="-6.652404">
        <ele>610.533</ele>
        <time>2018-07-24T10:18:18Z</time>
      </trkpt>
      <trkpt lat="41.185383" lon="-6.652341">
        <ele>610.448</ele>
        <time>2018-07-24T10:18:20Z</time>
      </trkpt>
      <trkpt lat="41.18539" lon="-6.65231">
        <ele>610.407</ele>
        <time>2018-07-24T10:18:21Z</time>
      </trkpt>
      <trkpt lat="41.185419" lon="-6.652223">
        <ele>610.327</ele>
        <time>2018-07-24T10:18:24Z</time>
      </trkpt>
      <trkpt lat="41.185433" lon="-6.652188">
        <ele>610.251</ele>
        <time>2018-07-24T10:18:25Z</time>
      </trkpt>
      <trkpt lat="41.185447" lon="-6.652116">
        <ele>610.18</ele>
        <time>2018-07-24T10:18:27Z</time>
      </trkpt>
      <trkpt lat="41.185455" lon="-6.652044">
        <ele>610.111</ele>
        <time>2018-07-24T10:18:29Z</time>
      </trkpt>
      <trkpt lat="41.185467" lon="-6.651973">
        <ele>610.013</ele>
        <time>2018-07-24T10:18:31Z</time>
      </trkpt>
      <trkpt lat="41.185472" lon="-6.65187">
        <ele>609.981</ele>
        <time>2018-07-24T10:18:33Z</time>
      </trkpt>
      <trkpt lat="41.185474" lon="-6.651829">
        <ele>609.95</ele>
        <time>2018-07-24T10:18:34Z</time>
      </trkpt>
      <trkpt lat="41.185473" lon="-6.651757">
        <ele>609.919</ele>
        <time>2018-07-24T10:18:36Z</time>
      </trkpt>
      <trkpt lat="41.185472" lon="-6.651727">
        <ele>609.888</ele>
        <time>2018-07-24T10:18:37Z</time>
      </trkpt>
      <trkpt lat="41.185464" lon="-6.651663">
        <ele>609.859</ele>
        <time>2018-07-24T10:18:39Z</time>
      </trkpt>
      <trkpt lat="41.18546" lon="-6.651632">
        <ele>609.83</ele>
        <time>2018-07-24T10:18:40Z</time>
      </trkpt>
      <trkpt lat="41.185445" lon="-6.651544">
        <ele>609.773</ele>
        <time>2018-07-24T10:18:43Z</time>
      </trkpt>
      <trkpt lat="41.185442" lon="-6.65151">
        <ele>609.719</ele>
        <time>2018-07-24T10:18:44Z</time>
      </trkpt>
      <trkpt lat="41.185437" lon="-6.651474">
        <ele>609.642</ele>
        <time>2018-07-24T10:18:45Z</time>
      </trkpt>
      <trkpt lat="41.185422" lon="-6.651407">
        <ele>609.594</ele>
        <time>2018-07-24T10:18:47Z</time>
      </trkpt>
      <trkpt lat="41.185413" lon="-6.651333">
        <ele>609.525</ele>
        <time>2018-07-24T10:18:49Z</time>
      </trkpt>
      <trkpt lat="41.185408" lon="-6.651301">
        <ele>609.462</ele>
        <time>2018-07-24T10:18:50Z</time>
      </trkpt>
      <trkpt lat="41.185401" lon="-6.651237">
        <ele>609.404</ele>
        <time>2018-07-24T10:18:52Z</time>
      </trkpt>
      <trkpt lat="41.185395" lon="-6.651177">
        <ele>609.386</ele>
        <time>2018-07-24T10:18:54Z</time>
      </trkpt>
      <trkpt lat="41.185384" lon="-6.651111">
        <ele>609.333</ele>
        <time>2018-07-24T10:18:56Z</time>
      </trkpt>
      <trkpt lat="41.185376" lon="-6.65104">
        <ele>609.284</ele>
        <time>2018-07-24T10:18:58Z</time>
      </trkpt>
      <trkpt lat="41.185363" lon="-6.650944">
        <ele>609.268</ele>
        <time>2018-07-24T10:19:01Z</time>
      </trkpt>
      <trkpt lat="41.185358" lon="-6.6509">
        <ele>609.239</ele>
        <time>2018-07-24T10:19:02Z</time>
      </trkpt>
      <trkpt lat="41.185353" lon="-6.650856">
        <ele>609.211</ele>
        <time>2018-07-24T10:19:03Z</time>
      </trkpt>
      <trkpt lat="41.185349" lon="-6.650818">
        <ele>609.172</ele>
        <time>2018-07-24T10:19:04Z</time>
      </trkpt>
      <trkpt lat="41.185345" lon="-6.650783">
        <ele>609.137</ele>
        <time>2018-07-24T10:19:05Z</time>
      </trkpt>
      <trkpt lat="41.185341" lon="-6.65075">
        <ele>609.126</ele>
        <time>2018-07-24T10:19:06Z</time>
      </trkpt>
      <trkpt lat="41.185337" lon="-6.65071">
        <ele>609.106</ele>
        <time>2018-07-24T10:19:07Z</time>
      </trkpt>
      <trkpt lat="41.185338" lon="-6.650638">
        <ele>609.087</ele>
        <time>2018-07-24T10:19:09Z</time>
      </trkpt>
      <trkpt lat="41.185326" lon="-6.650575">
        <ele>609.07</ele>
        <time>2018-07-24T10:19:11Z</time>
      </trkpt>
      <trkpt lat="41.185321" lon="-6.650485">
        <ele>609.048</ele>
        <time>2018-07-24T10:19:14Z</time>
      </trkpt>
      <trkpt lat="41.185316" lon="-6.650428">
        <ele>609.034</ele>
        <time>2018-07-24T10:19:16Z</time>
      </trkpt>
      <trkpt lat="41.185303" lon="-6.650368">
        <ele>609.022</ele>
        <time>2018-07-24T10:19:19Z</time>
      </trkpt>
      <trkpt lat="41.185291" lon="-6.650289">
        <ele>609.011</ele>
        <time>2018-07-24T10:19:22Z</time>
      </trkpt>
      <trkpt lat="41.185286" lon="-6.650197">
        <ele>609.001</ele>
        <time>2018-07-24T10:19:25Z</time>
      </trkpt>
      <trkpt lat="41.185284" lon="-6.650165">
        <ele>608.996</ele>
        <time>2018-07-24T10:19:26Z</time>
      </trkpt>
      <trkpt lat="41.185275" lon="-6.650089">
        <ele>608.988</ele>
        <time>2018-07-24T10:19:29Z</time>
      </trkpt>
      <trkpt lat="41.185288" lon="-6.650016">
        <ele>608.981</ele>
        <time>2018-07-24T10:19:32Z</time>
      </trkpt>
      <trkpt lat="41.185292" lon="-6.649983">
        <ele>608.977</ele>
        <time>2018-07-24T10:19:33Z</time>
      </trkpt>
      <trkpt lat="41.18531" lon="-6.649918">
        <ele>608.97</ele>
        <time>2018-07-24T10:19:35Z</time>
      </trkpt>
      <trkpt lat="41.185323" lon="-6.649861">
        <ele>608.967</ele>
        <time>2018-07-24T10:19:37Z</time>
      </trkpt>
      <trkpt lat="41.185355" lon="-6.649775">
        <ele>608.961</ele>
        <time>2018-07-24T10:19:40Z</time>
      </trkpt>
      <trkpt lat="41.18539" lon="-6.649691">
        <ele>608.959</ele>
        <time>2018-07-24T10:19:43Z</time>
      </trkpt>
      <trkpt lat="41.185402" lon="-6.649659">
        <ele>608.957</ele>
        <time>2018-07-24T10:19:44Z</time>
      </trkpt>
      <trkpt lat="41.185421" lon="-6.649611">
        <ele>608.955</ele>
        <time>2018-07-24T10:19:46Z</time>
      </trkpt>
      <trkpt lat="41.185435" lon="-6.649567">
        <ele>608.954</ele>
        <time>2018-07-24T10:19:48Z</time>
      </trkpt>
      <trkpt lat="41.185452" lon="-6.649525">
        <ele>608.952</ele>
        <time>2018-07-24T10:19:50Z</time>
      </trkpt>
      <trkpt lat="41.185473" lon="-6.649458">
        <ele>608.952</ele>
        <time>2018-07-24T10:19:53Z</time>
      </trkpt>
      <trkpt lat="41.185487" lon="-6.6494">
        <ele>608.953</ele>
        <time>2018-07-24T10:19:55Z</time>
      </trkpt>
      <trkpt lat="41.185493" lon="-6.649335">
        <ele>608.954</ele>
        <time>2018-07-24T10:19:57Z</time>
      </trkpt>
      <trkpt lat="41.18549" lon="-6.649264">
        <ele>608.955</ele>
        <time>2018-07-24T10:19:59Z</time>
      </trkpt>
      <trkpt lat="41.185488" lon="-6.6492">
        <ele>608.956</ele>
        <time>2018-07-24T10:20:01Z</time>
      </trkpt>
      <trkpt lat="41.185485" lon="-6.649166">
        <ele>608.958</ele>
        <time>2018-07-24T10:20:02Z</time>
      </trkpt>
      <trkpt lat="41.185475" lon="-6.649091">
        <ele>608.973</ele>
        <time>2018-07-24T10:20:04Z</time>
      </trkpt>
      <trkpt lat="41.185458" lon="-6.649014">
        <ele>608.974</ele>
        <time>2018-07-24T10:20:06Z</time>
      </trkpt>
      <trkpt lat="41.185451" lon="-6.648981">
        <ele>608.995</ele>
        <time>2018-07-24T10:20:07Z</time>
      </trkpt>
      <trkpt lat="41.185434" lon="-6.648916">
        <ele>609.014</ele>
        <time>2018-07-24T10:20:09Z</time>
      </trkpt>
      <trkpt lat="41.185427" lon="-6.648885">
        <ele>609.016</ele>
        <time>2018-07-24T10:20:10Z</time>
      </trkpt>
      <trkpt lat="41.185411" lon="-6.648824">
        <ele>609.018</ele>
        <time>2018-07-24T10:20:12Z</time>
      </trkpt>
      <trkpt lat="41.185398" lon="-6.648783">
        <ele>609.057</ele>
        <time>2018-07-24T10:20:13Z</time>
      </trkpt>
      <trkpt lat="41.185387" lon="-6.648744">
        <ele>609.06</ele>
        <time>2018-07-24T10:20:14Z</time>
      </trkpt>
      <trkpt lat="41.185378" lon="-6.648708">
        <ele>609.061</ele>
        <time>2018-07-24T10:20:15Z</time>
      </trkpt>
      <trkpt lat="41.185369" lon="-6.648668">
        <ele>609.061</ele>
        <time>2018-07-24T10:20:16Z</time>
      </trkpt>
      <trkpt lat="41.185358" lon="-6.648624">
        <ele>609.062</ele>
        <time>2018-07-24T10:20:17Z</time>
      </trkpt>
      <trkpt lat="41.18533" lon="-6.64852">
        <ele>609.064</ele>
        <time>2018-07-24T10:20:19Z</time>
      </trkpt>
      <trkpt lat="41.185316" lon="-6.648476">
        <ele>609.07</ele>
        <time>2018-07-24T10:20:20Z</time>
      </trkpt>
      <trkpt lat="41.185302" lon="-6.648424">
        <ele>609.079</ele>
        <time>2018-07-24T10:20:21Z</time>
      </trkpt>
      <trkpt lat="41.18529" lon="-6.648382">
        <ele>609.088</ele>
        <time>2018-07-24T10:20:22Z</time>
      </trkpt>
      <trkpt lat="41.18528" lon="-6.648338">
        <ele>609.111</ele>
        <time>2018-07-24T10:20:23Z</time>
      </trkpt>
      <trkpt lat="41.185268" lon="-6.648293">
        <ele>609.121</ele>
        <time>2018-07-24T10:20:24Z</time>
      </trkpt>
      <trkpt lat="41.185258" lon="-6.648245">
        <ele>609.147</ele>
        <time>2018-07-24T10:20:25Z</time>
      </trkpt>
      <trkpt lat="41.185246" lon="-6.648196">
        <ele>609.156</ele>
        <time>2018-07-24T10:20:26Z</time>
      </trkpt>
      <trkpt lat="41.185237" lon="-6.648149">
        <ele>609.165</ele>
        <time>2018-07-24T10:20:27Z</time>
      </trkpt>
      <trkpt lat="41.185224" lon="-6.648099">
        <ele>609.174</ele>
        <time>2018-07-24T10:20:28Z</time>
      </trkpt>
      <trkpt lat="41.185214" lon="-6.648048">
        <ele>609.208</ele>
        <time>2018-07-24T10:20:29Z</time>
      </trkpt>
      <trkpt lat="41.185206" lon="-6.648009">
        <ele>609.221</ele>
        <time>2018-07-24T10:20:30Z</time>
      </trkpt>
      <trkpt lat="41.185188" lon="-6.647915">
        <ele>609.232</ele>
        <time>2018-07-24T10:20:32Z</time>
      </trkpt>
      <trkpt lat="41.18518" lon="-6.64781">
        <ele>609.242</ele>
        <time>2018-07-24T10:20:34Z</time>
      </trkpt>
      <trkpt lat="41.185192" lon="-6.647711">
        <ele>609.254</ele>
        <time>2018-07-24T10:20:36Z</time>
      </trkpt>
      <trkpt lat="41.185212" lon="-6.647615">
        <ele>609.263</ele>
        <time>2018-07-24T10:20:38Z</time>
      </trkpt>
      <trkpt lat="41.185223" lon="-6.647572">
        <ele>609.272</ele>
        <time>2018-07-24T10:20:39Z</time>
      </trkpt>
      <trkpt lat="41.185236" lon="-6.64753">
        <ele>609.28</ele>
        <time>2018-07-24T10:20:40Z</time>
      </trkpt>
      <trkpt lat="41.18525" lon="-6.647481">
        <ele>609.289</ele>
        <time>2018-07-24T10:20:41Z</time>
      </trkpt>
      <trkpt lat="41.185265" lon="-6.647431">
        <ele>609.297</ele>
        <time>2018-07-24T10:20:42Z</time>
      </trkpt>
      <trkpt lat="41.185282" lon="-6.647383">
        <ele>609.306</ele>
        <time>2018-07-24T10:20:43Z</time>
      </trkpt>
      <trkpt lat="41.185328" lon="-6.647271">
        <ele>609.317</ele>
        <time>2018-07-24T10:20:45Z</time>
      </trkpt>
      <trkpt lat="41.185354" lon="-6.647213">
        <ele>609.325</ele>
        <time>2018-07-24T10:20:46Z</time>
      </trkpt>
      <trkpt lat="41.185426" lon="-6.647062">
        <ele>609.339</ele>
        <time>2018-07-24T10:20:49Z</time>
      </trkpt>
      <trkpt lat="41.185443" lon="-6.647003">
        <ele>609.355</ele>
        <time>2018-07-24T10:20:50Z</time>
      </trkpt>
      <trkpt lat="41.185456" lon="-6.64694">
        <ele>609.367</ele>
        <time>2018-07-24T10:20:51Z</time>
      </trkpt>
      <trkpt lat="41.18547" lon="-6.64688">
        <ele>609.378</ele>
        <time>2018-07-24T10:20:52Z</time>
      </trkpt>
      <trkpt lat="41.185471" lon="-6.646682">
        <ele>609.383</ele>
        <time>2018-07-24T10:20:55Z</time>
      </trkpt>
      <trkpt lat="41.185469" lon="-6.646617">
        <ele>609.389</ele>
        <time>2018-07-24T10:20:56Z</time>
      </trkpt>
      <trkpt lat="41.185466" lon="-6.646556">
        <ele>609.407</ele>
        <time>2018-07-24T10:20:57Z</time>
      </trkpt>
      <trkpt lat="41.185464" lon="-6.646488">
        <ele>609.408</ele>
        <time>2018-07-24T10:20:58Z</time>
      </trkpt>
      <trkpt lat="41.185463" lon="-6.646422">
        <ele>609.424</ele>
        <time>2018-07-24T10:20:59Z</time>
      </trkpt>
      <trkpt lat="41.185461" lon="-6.646364">
        <ele>609.428</ele>
        <time>2018-07-24T10:21:00Z</time>
      </trkpt>
      <trkpt lat="41.185456" lon="-6.64629">
        <ele>609.452</ele>
        <time>2018-07-24T10:21:01Z</time>
      </trkpt>
      <trkpt lat="41.185449" lon="-6.646224">
        <ele>609.454</ele>
        <time>2018-07-24T10:21:02Z</time>
      </trkpt>
      <trkpt lat="41.185442" lon="-6.646163">
        <ele>609.459</ele>
        <time>2018-07-24T10:21:03Z</time>
      </trkpt>
      <trkpt lat="41.185433" lon="-6.646102">
        <ele>609.463</ele>
        <time>2018-07-24T10:21:04Z</time>
      </trkpt>
      <trkpt lat="41.185426" lon="-6.646042">
        <ele>609.47</ele>
        <time>2018-07-24T10:21:05Z</time>
      </trkpt>
      <trkpt lat="41.185415" lon="-6.64598">
        <ele>609.473</ele>
        <time>2018-07-24T10:21:06Z</time>
      </trkpt>
      <trkpt lat="41.185394" lon="-6.645921">
        <ele>609.477</ele>
        <time>2018-07-24T10:21:07Z</time>
      </trkpt>
      <trkpt lat="41.185375" lon="-6.645855">
        <ele>609.486</ele>
        <time>2018-07-24T10:21:08Z</time>
      </trkpt>
      <trkpt lat="41.185358" lon="-6.645797">
        <ele>609.494</ele>
        <time>2018-07-24T10:21:09Z</time>
      </trkpt>
      <trkpt lat="41.185339" lon="-6.645736">
        <ele>609.502</ele>
        <time>2018-07-24T10:21:10Z</time>
      </trkpt>
      <trkpt lat="41.18532" lon="-6.645681">
        <ele>609.507</ele>
        <time>2018-07-24T10:21:11Z</time>
      </trkpt>
      <trkpt lat="41.185298" lon="-6.645629">
        <ele>609.517</ele>
        <time>2018-07-24T10:21:12Z</time>
      </trkpt>
      <trkpt lat="41.185259" lon="-6.645544">
        <ele>609.534</ele>
        <time>2018-07-24T10:21:14Z</time>
      </trkpt>
      <trkpt lat="41.185229" lon="-6.645462">
        <ele>609.551</ele>
        <time>2018-07-24T10:21:16Z</time>
      </trkpt>
      <trkpt lat="41.185209" lon="-6.645412">
        <ele>609.564</ele>
        <time>2018-07-24T10:21:17Z</time>
      </trkpt>
      <trkpt lat="41.185181" lon="-6.645325">
        <ele>609.583</ele>
        <time>2018-07-24T10:21:19Z</time>
      </trkpt>
      <trkpt lat="41.185151" lon="-6.645256">
        <ele>609.604</ele>
        <time>2018-07-24T10:21:21Z</time>
      </trkpt>
      <trkpt lat="41.185135" lon="-6.645217">
        <ele>609.621</ele>
        <time>2018-07-24T10:21:22Z</time>
      </trkpt>
      <trkpt lat="41.185118" lon="-6.645178">
        <ele>609.639</ele>
        <time>2018-07-24T10:21:23Z</time>
      </trkpt>
      <trkpt lat="41.185099" lon="-6.645104">
        <ele>609.658</ele>
        <time>2018-07-24T10:21:25Z</time>
      </trkpt>
      <trkpt lat="41.18509" lon="-6.645071">
        <ele>609.69</ele>
        <time>2018-07-24T10:21:26Z</time>
      </trkpt>
      <trkpt lat="41.185079" lon="-6.645003">
        <ele>609.723</ele>
        <time>2018-07-24T10:21:28Z</time>
      </trkpt>
      <trkpt lat="41.18507" lon="-6.644967">
        <ele>609.746</ele>
        <time>2018-07-24T10:21:29Z</time>
      </trkpt>
      <trkpt lat="41.185065" lon="-6.644937">
        <ele>609.771</ele>
        <time>2018-07-24T10:21:30Z</time>
      </trkpt>
      <trkpt lat="41.18507" lon="-6.644841">
        <ele>609.809</ele>
        <time>2018-07-24T10:21:33Z</time>
      </trkpt>
      <trkpt lat="41.185073" lon="-6.644787">
        <ele>609.849</ele>
        <time>2018-07-24T10:21:35Z</time>
      </trkpt>
      <trkpt lat="41.185085" lon="-6.644715">
        <ele>609.891</ele>
        <time>2018-07-24T10:21:37Z</time>
      </trkpt>
      <trkpt lat="41.185091" lon="-6.644681">
        <ele>609.918</ele>
        <time>2018-07-24T10:21:38Z</time>
      </trkpt>
      <trkpt lat="41.185102" lon="-6.644627">
        <ele>609.96</ele>
        <time>2018-07-24T10:21:40Z</time>
      </trkpt>
      <trkpt lat="41.185127" lon="-6.644559">
        <ele>609.99</ele>
        <time>2018-07-24T10:21:43Z</time>
      </trkpt>
      <trkpt lat="41.185142" lon="-6.644484">
        <ele>610.02</ele>
        <time>2018-07-24T10:21:46Z</time>
      </trkpt>
      <trkpt lat="41.185149" lon="-6.64443">
        <ele>610.051</ele>
        <time>2018-07-24T10:21:48Z</time>
      </trkpt>
      <trkpt lat="41.185166" lon="-6.644366">
        <ele>610.084</ele>
        <time>2018-07-24T10:21:51Z</time>
      </trkpt>
      <trkpt lat="41.185181" lon="-6.644292">
        <ele>610.101</ele>
        <time>2018-07-24T10:21:54Z</time>
      </trkpt>
      <trkpt lat="41.185187" lon="-6.644231">
        <ele>610.153</ele>
        <time>2018-07-24T10:21:56Z</time>
      </trkpt>
      <trkpt lat="41.185189" lon="-6.644176">
        <ele>610.19</ele>
        <time>2018-07-24T10:21:58Z</time>
      </trkpt>
      <trkpt lat="41.185193" lon="-6.644128">
        <ele>610.228</ele>
        <time>2018-07-24T10:22:00Z</time>
      </trkpt>
      <trkpt lat="41.185205" lon="-6.644051">
        <ele>610.266</ele>
        <time>2018-07-24T10:22:03Z</time>
      </trkpt>
      <trkpt lat="41.185204" lon="-6.643956">
        <ele>610.326</ele>
        <time>2018-07-24T10:22:06Z</time>
      </trkpt>
      <trkpt lat="41.185206" lon="-6.643901">
        <ele>610.366</ele>
        <time>2018-07-24T10:22:08Z</time>
      </trkpt>
      <trkpt lat="41.185211" lon="-6.643852">
        <ele>610.428</ele>
        <time>2018-07-24T10:22:10Z</time>
      </trkpt>
      <trkpt lat="41.185204" lon="-6.643778">
        <ele>610.449</ele>
        <time>2018-07-24T10:22:13Z</time>
      </trkpt>
      <trkpt lat="41.185194" lon="-6.643701">
        <ele>610.514</ele>
        <time>2018-07-24T10:22:16Z</time>
      </trkpt>
      <trkpt lat="41.185172" lon="-6.643624">
        <ele>610.578</ele>
        <time>2018-07-24T10:22:19Z</time>
      </trkpt>
      <trkpt lat="41.185161" lon="-6.643579">
        <ele>610.621</ele>
        <time>2018-07-24T10:22:21Z</time>
      </trkpt>
      <trkpt lat="41.185137" lon="-6.643515">
        <ele>610.687</ele>
        <time>2018-07-24T10:22:24Z</time>
      </trkpt>
      <trkpt lat="41.185112" lon="-6.643461">
        <ele>610.753</ele>
        <time>2018-07-24T10:22:26Z</time>
      </trkpt>
      <trkpt lat="41.185092" lon="-6.643414">
        <ele>610.797</ele>
        <time>2018-07-24T10:22:28Z</time>
      </trkpt>
      <trkpt lat="41.18506" lon="-6.643358">
        <ele>610.819</ele>
        <time>2018-07-24T10:22:30Z</time>
      </trkpt>
      <trkpt lat="41.185031" lon="-6.643304">
        <ele>610.864</ele>
        <time>2018-07-24T10:22:32Z</time>
      </trkpt>
      <trkpt lat="41.185015" lon="-6.643275">
        <ele>610.887</ele>
        <time>2018-07-24T10:22:33Z</time>
      </trkpt>
      <trkpt lat="41.184967" lon="-6.643221">
        <ele>610.931</ele>
        <time>2018-07-24T10:22:36Z</time>
      </trkpt>
      <trkpt lat="41.184927" lon="-6.643185">
        <ele>610.999</ele>
        <time>2018-07-24T10:22:38Z</time>
      </trkpt>
      <trkpt lat="41.18489" lon="-6.643145">
        <ele>611.069</ele>
        <time>2018-07-24T10:22:40Z</time>
      </trkpt>
      <trkpt lat="41.184857" lon="-6.64311">
        <ele>611.153</ele>
        <time>2018-07-24T10:22:42Z</time>
      </trkpt>
      <trkpt lat="41.184807" lon="-6.64306">
        <ele>611.214</ele>
        <time>2018-07-24T10:22:45Z</time>
      </trkpt>
      <trkpt lat="41.184776" lon="-6.643028">
        <ele>611.308</ele>
        <time>2018-07-24T10:22:47Z</time>
      </trkpt>
      <trkpt lat="41.18472" lon="-6.642989">
        <ele>611.368</ele>
        <time>2018-07-24T10:22:50Z</time>
      </trkpt>
      <trkpt lat="41.184699" lon="-6.642973">
        <ele>611.402</ele>
        <time>2018-07-24T10:22:51Z</time>
      </trkpt>
      <trkpt lat="41.184651" lon="-6.642923">
        <ele>611.511</ele>
        <time>2018-07-24T10:22:54Z</time>
      </trkpt>
      <trkpt lat="41.1846" lon="-6.642878">
        <ele>611.642</ele>
        <time>2018-07-24T10:22:57Z</time>
      </trkpt>
      <trkpt lat="41.184566" lon="-6.642852">
        <ele>611.749</ele>
        <time>2018-07-24T10:22:59Z</time>
      </trkpt>
      <trkpt lat="41.184505" lon="-6.642821">
        <ele>611.921</ele>
        <time>2018-07-24T10:23:02Z</time>
      </trkpt>
      <trkpt lat="41.184443" lon="-6.6428">
        <ele>612.041</ele>
        <time>2018-07-24T10:23:05Z</time>
      </trkpt>
      <trkpt lat="41.184394" lon="-6.642789">
        <ele>612.163</ele>
        <time>2018-07-24T10:23:07Z</time>
      </trkpt>
      <trkpt lat="41.184369" lon="-6.642786">
        <ele>612.281</ele>
        <time>2018-07-24T10:23:08Z</time>
      </trkpt>
      <trkpt lat="41.184333" lon="-6.642778">
        <ele>612.404</ele>
        <time>2018-07-24T10:23:10Z</time>
      </trkpt>
      <trkpt lat="41.18431" lon="-6.642773">
        <ele>612.596</ele>
        <time>2018-07-24T10:23:11Z</time>
      </trkpt>
      <trkpt lat="41.18428" lon="-6.642769">
        <ele>612.799</ele>
        <time>2018-07-24T10:23:13Z</time>
      </trkpt>
      <trkpt lat="41.184229" lon="-6.642755">
        <ele>613.001</ele>
        <time>2018-07-24T10:23:16Z</time>
      </trkpt>
      <trkpt lat="41.184177" lon="-6.642764">
        <ele>613.205</ele>
        <time>2018-07-24T10:23:19Z</time>
      </trkpt>
      <trkpt lat="41.184124" lon="-6.642756">
        <ele>613.341</ele>
        <time>2018-07-24T10:23:22Z</time>
      </trkpt>
      <trkpt lat="41.184088" lon="-6.642752">
        <ele>613.552</ele>
        <time>2018-07-24T10:23:24Z</time>
      </trkpt>
      <trkpt lat="41.184033" lon="-6.642733">
        <ele>613.693</ele>
        <time>2018-07-24T10:23:27Z</time>
      </trkpt>
      <trkpt lat="41.183985" lon="-6.642727">
        <ele>613.834</ele>
        <time>2018-07-24T10:23:29Z</time>
      </trkpt>
      <trkpt lat="41.18396" lon="-6.642724">
        <ele>613.977</ele>
        <time>2018-07-24T10:23:30Z</time>
      </trkpt>
      <trkpt lat="41.183909" lon="-6.642708">
        <ele>614.122</ele>
        <time>2018-07-24T10:23:33Z</time>
      </trkpt>
      <trkpt lat="41.183849" lon="-6.642698">
        <ele>614.334</ele>
        <time>2018-07-24T10:23:36Z</time>
      </trkpt>
      <trkpt lat="41.183797" lon="-6.642705">
        <ele>614.551</ele>
        <time>2018-07-24T10:23:38Z</time>
      </trkpt>
      <trkpt lat="41.183747" lon="-6.642687">
        <ele>614.7</ele>
        <time>2018-07-24T10:23:41Z</time>
      </trkpt>
      <trkpt lat="41.1837" lon="-6.642684">
        <ele>614.925</ele>
        <time>2018-07-24T10:23:43Z</time>
      </trkpt>
      <trkpt lat="41.183664" lon="-6.642678">
        <ele>615.152</ele>
        <time>2018-07-24T10:23:45Z</time>
      </trkpt>
      <trkpt lat="41.18363" lon="-6.642672">
        <ele>615.382</ele>
        <time>2018-07-24T10:23:47Z</time>
      </trkpt>
      <trkpt lat="41.183588" lon="-6.642666">
        <ele>615.537</ele>
        <time>2018-07-24T10:23:49Z</time>
      </trkpt>
      <trkpt lat="41.183538" lon="-6.642651">
        <ele>615.689</ele>
        <time>2018-07-24T10:23:52Z</time>
      </trkpt>
      <trkpt lat="41.183478" lon="-6.642637">
        <ele>615.841</ele>
        <time>2018-07-24T10:23:55Z</time>
      </trkpt>
      <trkpt lat="41.18342" lon="-6.642617">
        <ele>616.067</ele>
        <time>2018-07-24T10:23:58Z</time>
      </trkpt>
      <trkpt lat="41.183358" lon="-6.64262">
        <ele>616.287</ele>
        <time>2018-07-24T10:24:01Z</time>
      </trkpt>
      <trkpt lat="41.183322" lon="-6.642621">
        <ele>616.503</ele>
        <time>2018-07-24T10:24:03Z</time>
      </trkpt>
      <trkpt lat="41.183266" lon="-6.642612">
        <ele>616.718</ele>
        <time>2018-07-24T10:24:06Z</time>
      </trkpt>
      <trkpt lat="41.183225" lon="-6.642601">
        <ele>616.933</ele>
        <time>2018-07-24T10:24:08Z</time>
      </trkpt>
      <trkpt lat="41.183186" lon="-6.642592">
        <ele>617.076</ele>
        <time>2018-07-24T10:24:10Z</time>
      </trkpt>
      <trkpt lat="41.183141" lon="-6.642581">
        <ele>617.294</ele>
        <time>2018-07-24T10:24:12Z</time>
      </trkpt>
      <trkpt lat="41.183099" lon="-6.64257">
        <ele>617.518</ele>
        <time>2018-07-24T10:24:14Z</time>
      </trkpt>
      <trkpt lat="41.183037" lon="-6.64256">
        <ele>617.747</ele>
        <time>2018-07-24T10:24:17Z</time>
      </trkpt>
      <trkpt lat="41.182974" lon="-6.642566">
        <ele>617.978</ele>
        <time>2018-07-24T10:24:20Z</time>
      </trkpt>
      <trkpt lat="41.182931" lon="-6.642566">
        <ele>618.055</ele>
        <time>2018-07-24T10:24:22Z</time>
      </trkpt>
      <trkpt lat="41.182872" lon="-6.642549">
        <ele>618.211</ele>
        <time>2018-07-24T10:24:25Z</time>
      </trkpt>
      <trkpt lat="41.182807" lon="-6.64253">
        <ele>618.456</ele>
        <time>2018-07-24T10:24:28Z</time>
      </trkpt>
      <trkpt lat="41.182756" lon="-6.642523">
        <ele>618.712</ele>
        <time>2018-07-24T10:24:31Z</time>
      </trkpt>
      <trkpt lat="41.182717" lon="-6.642519">
        <ele>618.982</ele>
        <time>2018-07-24T10:24:33Z</time>
      </trkpt>
      <trkpt lat="41.182675" lon="-6.642516">
        <ele>619.169</ele>
        <time>2018-07-24T10:24:35Z</time>
      </trkpt>
      <trkpt lat="41.182637" lon="-6.64251">
        <ele>619.458</ele>
        <time>2018-07-24T10:24:37Z</time>
      </trkpt>
      <trkpt lat="41.18258" lon="-6.642497">
        <ele>619.742</ele>
        <time>2018-07-24T10:24:40Z</time>
      </trkpt>
      <trkpt lat="41.182532" lon="-6.642492">
        <ele>619.932</ele>
        <time>2018-07-24T10:24:43Z</time>
      </trkpt>
      <trkpt lat="41.182474" lon="-6.642482">
        <ele>620.222</ele>
        <time>2018-07-24T10:24:46Z</time>
      </trkpt>
      <trkpt lat="41.182422" lon="-6.642489">
        <ele>620.415</ele>
        <time>2018-07-24T10:24:49Z</time>
      </trkpt>
      <trkpt lat="41.182357" lon="-6.642474">
        <ele>620.7</ele>
        <time>2018-07-24T10:24:52Z</time>
      </trkpt>
      <trkpt lat="41.182326" lon="-6.642468">
        <ele>620.987</ele>
        <time>2018-07-24T10:24:54Z</time>
      </trkpt>
      <trkpt lat="41.182279" lon="-6.642459">
        <ele>621.276</ele>
        <time>2018-07-24T10:24:57Z</time>
      </trkpt>
      <trkpt lat="41.182224" lon="-6.642439">
        <ele>621.559</ele>
        <time>2018-07-24T10:25:00Z</time>
      </trkpt>
      <trkpt lat="41.182164" lon="-6.642445">
        <ele>621.842</ele>
        <time>2018-07-24T10:25:03Z</time>
      </trkpt>
      <trkpt lat="41.182106" lon="-6.64243">
        <ele>622.127</ele>
        <time>2018-07-24T10:25:06Z</time>
      </trkpt>
      <trkpt lat="41.182082" lon="-6.642424">
        <ele>622.327</ele>
        <time>2018-07-24T10:25:07Z</time>
      </trkpt>
      <trkpt lat="41.182051" lon="-6.642418">
        <ele>622.635</ele>
        <time>2018-07-24T10:25:09Z</time>
      </trkpt>
      <trkpt lat="41.18199" lon="-6.642415">
        <ele>622.955</ele>
        <time>2018-07-24T10:25:12Z</time>
      </trkpt>
      <trkpt lat="41.181941" lon="-6.642403">
        <ele>623.271</ele>
        <time>2018-07-24T10:25:15Z</time>
      </trkpt>
      <trkpt lat="41.181889" lon="-6.642399">
        <ele>623.376</ele>
        <time>2018-07-24T10:25:18Z</time>
      </trkpt>
      <trkpt lat="41.181856" lon="-6.642395">
        <ele>623.589</ele>
        <time>2018-07-24T10:25:20Z</time>
      </trkpt>
      <trkpt lat="41.181799" lon="-6.642378">
        <ele>623.801</ele>
        <time>2018-07-24T10:25:23Z</time>
      </trkpt>
      <trkpt lat="41.181745" lon="-6.642376">
        <ele>624.123</ele>
        <time>2018-07-24T10:25:26Z</time>
      </trkpt>
      <trkpt lat="41.181705" lon="-6.642375">
        <ele>624.455</ele>
        <time>2018-07-24T10:25:28Z</time>
      </trkpt>
      <trkpt lat="41.181643" lon="-6.642364">
        <ele>624.676</ele>
        <time>2018-07-24T10:25:31Z</time>
      </trkpt>
      <trkpt lat="41.181601" lon="-6.642338">
        <ele>625.006</ele>
        <time>2018-07-24T10:25:33Z</time>
      </trkpt>
      <trkpt lat="41.181538" lon="-6.642336">
        <ele>625.332</ele>
        <time>2018-07-24T10:25:36Z</time>
      </trkpt>
      <trkpt lat="41.181479" lon="-6.642321">
        <ele>625.552</ele>
        <time>2018-07-24T10:25:39Z</time>
      </trkpt>
      <trkpt lat="41.181419" lon="-6.642307">
        <ele>625.878</ele>
        <time>2018-07-24T10:25:42Z</time>
      </trkpt>
      <trkpt lat="41.181367" lon="-6.642289">
        <ele>626.206</ele>
        <time>2018-07-24T10:25:45Z</time>
      </trkpt>
      <trkpt lat="41.181319" lon="-6.642261">
        <ele>626.545</ele>
        <time>2018-07-24T10:25:48Z</time>
      </trkpt>
      <trkpt lat="41.18126" lon="-6.642236">
        <ele>626.887</ele>
        <time>2018-07-24T10:25:51Z</time>
      </trkpt>
      <trkpt lat="41.181224" lon="-6.642224">
        <ele>627.116</ele>
        <time>2018-07-24T10:25:53Z</time>
      </trkpt>
      <trkpt lat="41.181164" lon="-6.642218">
        <ele>627.351</ele>
        <time>2018-07-24T10:25:56Z</time>
      </trkpt>
      <trkpt lat="41.181101" lon="-6.642229">
        <ele>627.838</ele>
        <time>2018-07-24T10:25:59Z</time>
      </trkpt>
      <trkpt lat="41.181034" lon="-6.642223">
        <ele>628.219</ele>
        <time>2018-07-24T10:26:02Z</time>
      </trkpt>
      <trkpt lat="41.18101" lon="-6.642222">
        <ele>628.618</ele>
        <time>2018-07-24T10:26:03Z</time>
      </trkpt>
      <trkpt lat="41.180962" lon="-6.642234">
        <ele>629.049</ele>
        <time>2018-07-24T10:26:05Z</time>
      </trkpt>
      <trkpt lat="41.180915" lon="-6.642237">
        <ele>629.504</ele>
        <time>2018-07-24T10:26:07Z</time>
      </trkpt>
      <trkpt lat="41.18086" lon="-6.64227">
        <ele>629.974</ele>
        <time>2018-07-24T10:26:10Z</time>
      </trkpt>
      <trkpt lat="41.180807" lon="-6.642306">
        <ele>630.454</ele>
        <time>2018-07-24T10:26:13Z</time>
      </trkpt>
      <trkpt lat="41.180773" lon="-6.642327">
        <ele>630.94</ele>
        <time>2018-07-24T10:26:15Z</time>
      </trkpt>
      <trkpt lat="41.180729" lon="-6.64238">
        <ele>631.431</ele>
        <time>2018-07-24T10:26:18Z</time>
      </trkpt>
      <trkpt lat="41.180687" lon="-6.642449">
        <ele>631.593</ele>
        <time>2018-07-24T10:26:21Z</time>
      </trkpt>
      <trkpt lat="41.180662" lon="-6.642494">
        <ele>631.754</ele>
        <time>2018-07-24T10:26:23Z</time>
      </trkpt>
      <trkpt lat="41.180628" lon="-6.642542">
        <ele>631.913</ele>
        <time>2018-07-24T10:26:26Z</time>
      </trkpt>
      <trkpt lat="41.180598" lon="-6.642615">
        <ele>632.071</ele>
        <time>2018-07-24T10:26:29Z</time>
      </trkpt>
      <trkpt lat="41.180567" lon="-6.642675">
        <ele>632.226</ele>
        <time>2018-07-24T10:26:32Z</time>
      </trkpt>
      <trkpt lat="41.18055" lon="-6.642737">
        <ele>632.38</ele>
        <time>2018-07-24T10:26:35Z</time>
      </trkpt>
      <trkpt lat="41.180537" lon="-6.642775">
        <ele>632.533</ele>
        <time>2018-07-24T10:26:37Z</time>
      </trkpt>
      <trkpt lat="41.180521" lon="-6.642813">
        <ele>632.683</ele>
        <time>2018-07-24T10:26:39Z</time>
      </trkpt>
      <trkpt lat="41.180478" lon="-6.642866">
        <ele>632.834</ele>
        <time>2018-07-24T10:26:43Z</time>
      </trkpt>
      <trkpt lat="41.180459" lon="-6.642936">
        <ele>632.982</ele>
        <time>2018-07-24T10:26:46Z</time>
      </trkpt>
      <trkpt lat="41.180429" lon="-6.642996">
        <ele>633.128</ele>
        <time>2018-07-24T10:26:49Z</time>
      </trkpt>
      <trkpt lat="41.180384" lon="-6.643055">
        <ele>633.272</ele>
        <time>2018-07-24T10:26:52Z</time>
      </trkpt>
      <trkpt lat="41.180339" lon="-6.643097">
        <ele>633.416</ele>
        <time>2018-07-24T10:26:55Z</time>
      </trkpt>
      <trkpt lat="41.180284" lon="-6.643124">
        <ele>633.56</ele>
        <time>2018-07-24T10:26:58Z</time>
      </trkpt>
      <trkpt lat="41.180229" lon="-6.643166">
        <ele>633.704</ele>
        <time>2018-07-24T10:27:01Z</time>
      </trkpt>
      <trkpt lat="41.180164" lon="-6.643187">
        <ele>634.136</ele>
        <time>2018-07-24T10:27:04Z</time>
      </trkpt>
      <trkpt lat="41.180103" lon="-6.643188">
        <ele>634.28</ele>
        <time>2018-07-24T10:27:07Z</time>
      </trkpt>
      <trkpt lat="41.18008" lon="-6.643189">
        <ele>634.423</ele>
        <time>2018-07-24T10:27:08Z</time>
      </trkpt>
      <trkpt lat="41.180053" lon="-6.643189">
        <ele>634.565</ele>
        <time>2018-07-24T10:27:09Z</time>
      </trkpt>
      <trkpt lat="41.180029" lon="-6.643191">
        <ele>634.707</ele>
        <time>2018-07-24T10:27:10Z</time>
      </trkpt>
      <trkpt lat="41.180002" lon="-6.643191">
        <ele>634.847</ele>
        <time>2018-07-24T10:27:11Z</time>
      </trkpt>
      <trkpt lat="41.179975" lon="-6.643192">
        <ele>635.126</ele>
        <time>2018-07-24T10:27:12Z</time>
      </trkpt>
      <trkpt lat="41.17995" lon="-6.643192">
        <ele>635.544</ele>
        <time>2018-07-24T10:27:13Z</time>
      </trkpt>
      <trkpt lat="41.17992" lon="-6.64319">
        <ele>635.818</ele>
        <time>2018-07-24T10:27:14Z</time>
      </trkpt>
      <trkpt lat="41.179896" lon="-6.643189">
        <ele>635.951</ele>
        <time>2018-07-24T10:27:15Z</time>
      </trkpt>
      <trkpt lat="41.179871" lon="-6.643189">
        <ele>636.083</ele>
        <time>2018-07-24T10:27:16Z</time>
      </trkpt>
      <trkpt lat="41.179847" lon="-6.643188">
        <ele>636.215</ele>
        <time>2018-07-24T10:27:17Z</time>
      </trkpt>
      <trkpt lat="41.179821" lon="-6.643185">
        <ele>636.345</ele>
        <time>2018-07-24T10:27:18Z</time>
      </trkpt>
      <trkpt lat="41.179792" lon="-6.643182">
        <ele>636.475</ele>
        <time>2018-07-24T10:27:19Z</time>
      </trkpt>
      <trkpt lat="41.179767" lon="-6.643178">
        <ele>636.729</ele>
        <time>2018-07-24T10:27:20Z</time>
      </trkpt>
      <trkpt lat="41.179739" lon="-6.643174">
        <ele>636.853</ele>
        <time>2018-07-24T10:27:21Z</time>
      </trkpt>
      <trkpt lat="41.179712" lon="-6.64317">
        <ele>637.099</ele>
        <time>2018-07-24T10:27:22Z</time>
      </trkpt>
      <trkpt lat="41.179646" lon="-6.643168">
        <ele>637.341</ele>
        <time>2018-07-24T10:27:25Z</time>
      </trkpt>
      <trkpt lat="41.179623" lon="-6.643165">
        <ele>637.575</ele>
        <time>2018-07-24T10:27:26Z</time>
      </trkpt>
      <trkpt lat="41.179595" lon="-6.643163">
        <ele>637.803</ele>
        <time>2018-07-24T10:27:27Z</time>
      </trkpt>
      <trkpt lat="41.179569" lon="-6.64316">
        <ele>638.023</ele>
        <time>2018-07-24T10:27:28Z</time>
      </trkpt>
      <trkpt lat="41.179545" lon="-6.643158">
        <ele>638.241</ele>
        <time>2018-07-24T10:27:29Z</time>
      </trkpt>
      <trkpt lat="41.179518" lon="-6.643156">
        <ele>638.348</ele>
        <time>2018-07-24T10:27:30Z</time>
      </trkpt>
      <trkpt lat="41.179476" lon="-6.643154">
        <ele>638.666</ele>
        <time>2018-07-24T10:27:32Z</time>
      </trkpt>
      <trkpt lat="41.17941" lon="-6.64316">
        <ele>638.876</ele>
        <time>2018-07-24T10:27:35Z</time>
      </trkpt>
      <trkpt lat="41.179363" lon="-6.64316">
        <ele>639.086</ele>
        <time>2018-07-24T10:27:37Z</time>
      </trkpt>
      <trkpt lat="41.179338" lon="-6.643162">
        <ele>639.401</ele>
        <time>2018-07-24T10:27:38Z</time>
      </trkpt>
      <trkpt lat="41.17931" lon="-6.643163">
        <ele>639.716</ele>
        <time>2018-07-24T10:27:39Z</time>
      </trkpt>
      <trkpt lat="41.179287" lon="-6.643162">
        <ele>639.925</ele>
        <time>2018-07-24T10:27:40Z</time>
      </trkpt>
      <trkpt lat="41.179262" lon="-6.643163">
        <ele>640.133</ele>
        <time>2018-07-24T10:27:41Z</time>
      </trkpt>
      <trkpt lat="41.179236" lon="-6.643163">
        <ele>640.236</ele>
        <time>2018-07-24T10:27:42Z</time>
      </trkpt>
      <trkpt lat="41.179192" lon="-6.643162">
        <ele>640.44</ele>
        <time>2018-07-24T10:27:44Z</time>
      </trkpt>
      <trkpt lat="41.179169" lon="-6.643163">
        <ele>640.645</ele>
        <time>2018-07-24T10:27:45Z</time>
      </trkpt>
      <trkpt lat="41.179118" lon="-6.64316">
        <ele>640.849</ele>
        <time>2018-07-24T10:27:47Z</time>
      </trkpt>
      <trkpt lat="41.17907" lon="-6.643155">
        <ele>641.15</ele>
        <time>2018-07-24T10:27:49Z</time>
      </trkpt>
      <trkpt lat="41.179013" lon="-6.643156">
        <ele>641.355</ele>
        <time>2018-07-24T10:27:51Z</time>
      </trkpt>
      <trkpt lat="41.178967" lon="-6.64315">
        <ele>641.561</ele>
        <time>2018-07-24T10:27:53Z</time>
      </trkpt>
      <trkpt lat="41.17892" lon="-6.643153">
        <ele>641.873</ele>
        <time>2018-07-24T10:27:55Z</time>
      </trkpt>
      <trkpt lat="41.178873" lon="-6.643157">
        <ele>641.979</ele>
        <time>2018-07-24T10:27:57Z</time>
      </trkpt>
      <trkpt lat="41.178849" lon="-6.643159">
        <ele>642.084</ele>
        <time>2018-07-24T10:27:58Z</time>
      </trkpt>
      <trkpt lat="41.178778" lon="-6.643158">
        <ele>642.401</ele>
        <time>2018-07-24T10:28:01Z</time>
      </trkpt>
      <trkpt lat="41.178736" lon="-6.643153">
        <ele>642.507</ele>
        <time>2018-07-24T10:28:03Z</time>
      </trkpt>
      <trkpt lat="41.178696" lon="-6.64315">
        <ele>642.715</ele>
        <time>2018-07-24T10:28:05Z</time>
      </trkpt>
      <trkpt lat="41.17863" lon="-6.643134">
        <ele>642.818</ele>
        <time>2018-07-24T10:28:08Z</time>
      </trkpt>
      <trkpt lat="41.178561" lon="-6.643134">
        <ele>643.026</ele>
        <time>2018-07-24T10:28:11Z</time>
      </trkpt>
      <trkpt lat="41.178512" lon="-6.643132">
        <ele>643.232</ele>
        <time>2018-07-24T10:28:13Z</time>
      </trkpt>
      <trkpt lat="41.178475" lon="-6.643126">
        <ele>643.338</ele>
        <time>2018-07-24T10:28:15Z</time>
      </trkpt>
      <trkpt lat="41.178452" lon="-6.643122">
        <ele>643.56</ele>
        <time>2018-07-24T10:28:16Z</time>
      </trkpt>
      <trkpt lat="41.178406" lon="-6.643122">
        <ele>643.791</ele>
        <time>2018-07-24T10:28:18Z</time>
      </trkpt>
      <trkpt lat="41.178355" lon="-6.643113">
        <ele>644.167</ele>
        <time>2018-07-24T10:28:20Z</time>
      </trkpt>
      <trkpt lat="41.178298" lon="-6.643111">
        <ele>644.415</ele>
        <time>2018-07-24T10:28:22Z</time>
      </trkpt>
      <trkpt lat="41.17824" lon="-6.643086">
        <ele>644.665</ele>
        <time>2018-07-24T10:28:25Z</time>
      </trkpt>
      <trkpt lat="41.17819" lon="-6.64308">
        <ele>645.04</ele>
        <time>2018-07-24T10:28:27Z</time>
      </trkpt>
      <trkpt lat="41.17814" lon="-6.643067">
        <ele>645.161</ele>
        <time>2018-07-24T10:28:29Z</time>
      </trkpt>
      <trkpt lat="41.178073" lon="-6.643057">
        <ele>645.397</ele>
        <time>2018-07-24T10:28:32Z</time>
      </trkpt>
      <trkpt lat="41.178049" lon="-6.643052">
        <ele>645.513</ele>
        <time>2018-07-24T10:28:33Z</time>
      </trkpt>
      <trkpt lat="41.178025" lon="-6.643048">
        <ele>645.745</ele>
        <time>2018-07-24T10:28:34Z</time>
      </trkpt>
      <trkpt lat="41.177965" lon="-6.64303">
        <ele>645.859</ele>
        <time>2018-07-24T10:28:37Z</time>
      </trkpt>
      <trkpt lat="41.177941" lon="-6.643023">
        <ele>645.972</ele>
        <time>2018-07-24T10:28:38Z</time>
      </trkpt>
      <trkpt lat="41.177896" lon="-6.643011">
        <ele>646.196</ele>
        <time>2018-07-24T10:28:40Z</time>
      </trkpt>
      <trkpt lat="41.17787" lon="-6.643001">
        <ele>646.419</ele>
        <time>2018-07-24T10:28:41Z</time>
      </trkpt>
      <trkpt lat="41.177821" lon="-6.642997">
        <ele>646.529</ele>
        <time>2018-07-24T10:28:43Z</time>
      </trkpt>
      <trkpt lat="41.177773" lon="-6.642998">
        <ele>646.868</ele>
        <time>2018-07-24T10:28:45Z</time>
      </trkpt>
      <trkpt lat="41.17775" lon="-6.643">
        <ele>647.098</ele>
        <time>2018-07-24T10:28:46Z</time>
      </trkpt>
      <trkpt lat="41.1777" lon="-6.642982">
        <ele>647.329</ele>
        <time>2018-07-24T10:28:48Z</time>
      </trkpt>
      <trkpt lat="41.177648" lon="-6.642979">
        <ele>647.561</ele>
        <time>2018-07-24T10:28:50Z</time>
      </trkpt>
      <trkpt lat="41.177582" lon="-6.64296">
        <ele>647.79</ele>
        <time>2018-07-24T10:28:53Z</time>
      </trkpt>
      <trkpt lat="41.177537" lon="-6.642942">
        <ele>647.903</ele>
        <time>2018-07-24T10:28:55Z</time>
      </trkpt>
      <trkpt lat="41.17749" lon="-6.642938">
        <ele>648.129</ele>
        <time>2018-07-24T10:28:57Z</time>
      </trkpt>
      <trkpt lat="41.177421" lon="-6.642946">
        <ele>648.355</ele>
        <time>2018-07-24T10:29:00Z</time>
      </trkpt>
      <trkpt lat="41.177396" lon="-6.642951">
        <ele>648.467</ele>
        <time>2018-07-24T10:29:01Z</time>
      </trkpt>
      <trkpt lat="41.177351" lon="-6.642955">
        <ele>648.69</ele>
        <time>2018-07-24T10:29:03Z</time>
      </trkpt>
      <trkpt lat="41.177327" lon="-6.642956">
        <ele>648.908</ele>
        <time>2018-07-24T10:29:04Z</time>
      </trkpt>
      <trkpt lat="41.177281" lon="-6.642961">
        <ele>649.132</ele>
        <time>2018-07-24T10:29:06Z</time>
      </trkpt>
      <trkpt lat="41.177257" lon="-6.642966">
        <ele>649.355</ele>
        <time>2018-07-24T10:29:07Z</time>
      </trkpt>
      <trkpt lat="41.177234" lon="-6.642967">
        <ele>649.692</ele>
        <time>2018-07-24T10:29:08Z</time>
      </trkpt>
      <trkpt lat="41.177186" lon="-6.642988">
        <ele>649.934</ele>
        <time>2018-07-24T10:29:10Z</time>
      </trkpt>
      <trkpt lat="41.17714" lon="-6.642997">
        <ele>650.182</ele>
        <time>2018-07-24T10:29:12Z</time>
      </trkpt>
      <trkpt lat="41.177118" lon="-6.643001">
        <ele>650.566</ele>
        <time>2018-07-24T10:29:13Z</time>
      </trkpt>
      <trkpt lat="41.177055" lon="-6.643001">
        <ele>650.833</ele>
        <time>2018-07-24T10:29:16Z</time>
      </trkpt>
      <trkpt lat="41.177014" lon="-6.643002">
        <ele>651.106</ele>
        <time>2018-07-24T10:29:18Z</time>
      </trkpt>
      <trkpt lat="41.176968" lon="-6.643017">
        <ele>651.521</ele>
        <time>2018-07-24T10:29:20Z</time>
      </trkpt>
      <trkpt lat="41.176922" lon="-6.643032">
        <ele>651.806</ele>
        <time>2018-07-24T10:29:22Z</time>
      </trkpt>
      <trkpt lat="41.176877" lon="-6.643029">
        <ele>652.237</ele>
        <time>2018-07-24T10:29:24Z</time>
      </trkpt>
      <trkpt lat="41.176852" lon="-6.643028">
        <ele>652.666</ele>
        <time>2018-07-24T10:29:25Z</time>
      </trkpt>
      <trkpt lat="41.176805" lon="-6.64304">
        <ele>652.945</ele>
        <time>2018-07-24T10:29:27Z</time>
      </trkpt>
      <trkpt lat="41.176774" lon="-6.643048">
        <ele>653.213</ele>
        <time>2018-07-24T10:29:29Z</time>
      </trkpt>
      <trkpt lat="41.176751" lon="-6.643055">
        <ele>653.613</ele>
        <time>2018-07-24T10:29:30Z</time>
      </trkpt>
      <trkpt lat="41.176704" lon="-6.643063">
        <ele>654.133</ele>
        <time>2018-07-24T10:29:32Z</time>
      </trkpt>
      <trkpt lat="41.176656" lon="-6.643077">
        <ele>654.509</ele>
        <time>2018-07-24T10:29:34Z</time>
      </trkpt>
      <trkpt lat="41.176627" lon="-6.643084">
        <ele>654.767</ele>
        <time>2018-07-24T10:29:36Z</time>
      </trkpt>
      <trkpt lat="41.176595" lon="-6.643096">
        <ele>655.156</ele>
        <time>2018-07-24T10:29:38Z</time>
      </trkpt>
      <trkpt lat="41.17655" lon="-6.643124">
        <ele>655.56</ele>
        <time>2018-07-24T10:29:41Z</time>
      </trkpt>
      <trkpt lat="41.176525" lon="-6.643136">
        <ele>655.831</ele>
        <time>2018-07-24T10:29:43Z</time>
      </trkpt>
      <trkpt lat="41.176487" lon="-6.643155">
        <ele>656.233</ele>
        <time>2018-07-24T10:29:45Z</time>
      </trkpt>
      <trkpt lat="41.176436" lon="-6.643189">
        <ele>656.777</ele>
        <time>2018-07-24T10:29:48Z</time>
      </trkpt>
      <trkpt lat="41.176399" lon="-6.64321">
        <ele>657.201</ele>
        <time>2018-07-24T10:29:50Z</time>
      </trkpt>
      <trkpt lat="41.176358" lon="-6.643235">
        <ele>657.493</ele>
        <time>2018-07-24T10:29:52Z</time>
      </trkpt>
      <trkpt lat="41.176305" lon="-6.643277">
        <ele>657.786</ele>
        <time>2018-07-24T10:29:55Z</time>
      </trkpt>
      <trkpt lat="41.176274" lon="-6.643307">
        <ele>658.368</ele>
        <time>2018-07-24T10:29:57Z</time>
      </trkpt>
      <trkpt lat="41.176224" lon="-6.643344">
        <ele>658.799</ele>
        <time>2018-07-24T10:30:00Z</time>
      </trkpt>
      <trkpt lat="41.17617" lon="-6.643375">
        <ele>659.079</ele>
        <time>2018-07-24T10:30:03Z</time>
      </trkpt>
      <trkpt lat="41.176142" lon="-6.643393">
        <ele>659.352</ele>
        <time>2018-07-24T10:30:05Z</time>
      </trkpt>
      <trkpt lat="41.17611" lon="-6.643414">
        <ele>659.883</ele>
        <time>2018-07-24T10:30:07Z</time>
      </trkpt>
      <trkpt lat="41.176065" lon="-6.643429">
        <ele>660.461</ele>
        <time>2018-07-24T10:30:10Z</time>
      </trkpt>
      <trkpt lat="41.176011" lon="-6.643454">
        <ele>679.251</ele>
        <time>2018-07-24T10:30:14Z</time>
      </trkpt>
      <trkpt lat="41.175964" lon="-6.643466">
        <ele>679.61</ele>
        <time>2018-07-24T10:30:17Z</time>
      </trkpt>
      <trkpt lat="41.175941" lon="-6.64347">
        <ele>679.671</ele>
        <time>2018-07-24T10:30:19Z</time>
      </trkpt>
      <trkpt lat="41.175884" lon="-6.643459">
        <ele>679.699</ele>
        <time>2018-07-24T10:30:22Z</time>
      </trkpt>
      <trkpt lat="41.175833" lon="-6.643442">
        <ele>679.753</ele>
        <time>2018-07-24T10:30:25Z</time>
      </trkpt>
      <trkpt lat="41.175808" lon="-6.643433">
        <ele>679.813</ele>
        <time>2018-07-24T10:30:27Z</time>
      </trkpt>
      <trkpt lat="41.175759" lon="-6.643406">
        <ele>679.836</ele>
        <time>2018-07-24T10:30:30Z</time>
      </trkpt>
      <trkpt lat="41.175714" lon="-6.643359">
        <ele>679.879</ele>
        <time>2018-07-24T10:30:34Z</time>
      </trkpt>
      <trkpt lat="41.175686" lon="-6.643306">
        <ele>679.909</ele>
        <time>2018-07-24T10:30:37Z</time>
      </trkpt>
      <trkpt lat="41.175671" lon="-6.643275">
        <ele>679.937</ele>
        <time>2018-07-24T10:30:39Z</time>
      </trkpt>
      <trkpt lat="41.175654" lon="-6.643244">
        <ele>679.965</ele>
        <time>2018-07-24T10:30:41Z</time>
      </trkpt>
      <trkpt lat="41.175631" lon="-6.643175">
        <ele>680.0</ele>
        <time>2018-07-24T10:30:45Z</time>
      </trkpt>
      <trkpt lat="41.175614" lon="-6.643111">
        <ele>680.025</ele>
        <time>2018-07-24T10:30:48Z</time>
      </trkpt>
      <trkpt lat="41.175603" lon="-6.643065">
        <ele>680.048</ele>
        <time>2018-07-24T10:30:50Z</time>
      </trkpt>
      <trkpt lat="41.175595" lon="-6.643024">
        <ele>680.07</ele>
        <time>2018-07-24T10:30:52Z</time>
      </trkpt>
      <trkpt lat="41.175575" lon="-6.642962">
        <ele>680.091</ele>
        <time>2018-07-24T10:30:56Z</time>
      </trkpt>
      <trkpt lat="41.175571" lon="-6.642962">
        <ele>680.098</ele>
        <time>2018-07-24T10:31:04Z</time>
      </trkpt>
      <trkpt lat="41.175571" lon="-6.642962">
        <ele>680.11</ele>
        <time>2018-07-24T10:31:34Z</time>
      </trkpt>
      <trkpt lat="41.175571" lon="-6.642962">
        <ele>680.123</ele>
        <time>2018-07-24T11:08:30Z</time>
      </trkpt>
      <trkpt lat="41.175568" lon="-6.642869">
        <ele>680.147</ele>
        <time>2018-07-24T11:08:31Z</time>
      </trkpt>
      <trkpt lat="41.17558" lon="-6.642807">
        <ele>680.158</ele>
        <time>2018-07-24T11:08:58Z</time>
      </trkpt>
      <trkpt lat="41.175571" lon="-6.642742">
        <ele>680.169</ele>
        <time>2018-07-24T11:09:02Z</time>
      </trkpt>
      <trkpt lat="41.175564" lon="-6.642708">
        <ele>680.185</ele>
        <time>2018-07-24T11:09:04Z</time>
      </trkpt>
      <trkpt lat="41.175569" lon="-6.642648">
        <ele>680.195</ele>
        <time>2018-07-24T11:09:08Z</time>
      </trkpt>
      <trkpt lat="41.175566" lon="-6.64258">
        <ele>680.214</ele>
        <time>2018-07-24T11:09:13Z</time>
      </trkpt>
      <trkpt lat="41.175564" lon="-6.642532">
        <ele>680.227</ele>
        <time>2018-07-24T11:09:15Z</time>
      </trkpt>
      <trkpt lat="41.175572" lon="-6.642451">
        <ele>680.235</ele>
        <time>2018-07-24T11:09:19Z</time>
      </trkpt>
      <trkpt lat="41.175587" lon="-6.64239">
        <ele>680.247</ele>
        <time>2018-07-24T11:09:22Z</time>
      </trkpt>
      <trkpt lat="41.175605" lon="-6.642332">
        <ele>680.255</ele>
        <time>2018-07-24T11:09:25Z</time>
      </trkpt>
      <trkpt lat="41.175636" lon="-6.642275">
        <ele>680.265</ele>
        <time>2018-07-24T11:09:28Z</time>
      </trkpt>
      <trkpt lat="41.175647" lon="-6.642208">
        <ele>680.275</ele>
        <time>2018-07-24T11:09:32Z</time>
      </trkpt>
      <trkpt lat="41.175674" lon="-6.64215">
        <ele>680.285</ele>
        <time>2018-07-24T11:09:35Z</time>
      </trkpt>
      <trkpt lat="41.175694" lon="-6.64208">
        <ele>680.292</ele>
        <time>2018-07-24T11:09:38Z</time>
      </trkpt>
      <trkpt lat="41.175724" lon="-6.642022">
        <ele>680.302</ele>
        <time>2018-07-24T11:09:41Z</time>
      </trkpt>
      <trkpt lat="41.17576" lon="-6.641965">
        <ele>680.313</ele>
        <time>2018-07-24T11:09:44Z</time>
      </trkpt>
      <trkpt lat="41.175778" lon="-6.641936">
        <ele>680.317</ele>
        <time>2018-07-24T11:09:45Z</time>
      </trkpt>
      <trkpt lat="41.175802" lon="-6.641898">
        <ele>680.331</ele>
        <time>2018-07-24T11:09:47Z</time>
      </trkpt>
      <trkpt lat="41.175836" lon="-6.641841">
        <ele>680.334</ele>
        <time>2018-07-24T11:09:49Z</time>
      </trkpt>
      <trkpt lat="41.175864" lon="-6.641773">
        <ele>680.345</ele>
        <time>2018-07-24T11:09:53Z</time>
      </trkpt>
      <trkpt lat="41.17589" lon="-6.641721">
        <ele>680.352</ele>
        <time>2018-07-24T11:09:55Z</time>
      </trkpt>
      <trkpt lat="41.175924" lon="-6.641673">
        <ele>680.364</ele>
        <time>2018-07-24T11:09:57Z</time>
      </trkpt>
      <trkpt lat="41.175958" lon="-6.641603">
        <ele>680.375</ele>
        <time>2018-07-24T11:10:00Z</time>
      </trkpt>
      <trkpt lat="41.175981" lon="-6.64155">
        <ele>680.386</ele>
        <time>2018-07-24T11:10:02Z</time>
      </trkpt>
      <trkpt lat="41.175998" lon="-6.641475">
        <ele>680.396</ele>
        <time>2018-07-24T11:10:06Z</time>
      </trkpt>
      <trkpt lat="41.176018" lon="-6.641396">
        <ele>680.406</ele>
        <time>2018-07-24T11:10:09Z</time>
      </trkpt>
      <trkpt lat="41.176027" lon="-6.641323">
        <ele>680.416</ele>
        <time>2018-07-24T11:10:11Z</time>
      </trkpt>
      <trkpt lat="41.176045" lon="-6.641252">
        <ele>680.422</ele>
        <time>2018-07-24T11:10:14Z</time>
      </trkpt>
      <trkpt lat="41.176061" lon="-6.641201">
        <ele>680.432</ele>
        <time>2018-07-24T11:10:16Z</time>
      </trkpt>
      <trkpt lat="41.176071" lon="-6.641137">
        <ele>680.438</ele>
        <time>2018-07-24T11:10:19Z</time>
      </trkpt>
      <trkpt lat="41.176072" lon="-6.641062">
        <ele>680.445</ele>
        <time>2018-07-24T11:10:22Z</time>
      </trkpt>
      <trkpt lat="41.176061" lon="-6.640991">
        <ele>680.455</ele>
        <time>2018-07-24T11:10:25Z</time>
      </trkpt>
      <trkpt lat="41.176051" lon="-6.640942">
        <ele>680.468</ele>
        <time>2018-07-24T11:10:27Z</time>
      </trkpt>
      <trkpt lat="41.176034" lon="-6.640883">
        <ele>680.48</ele>
        <time>2018-07-24T11:10:30Z</time>
      </trkpt>
      <trkpt lat="41.176013" lon="-6.640816">
        <ele>680.496</ele>
        <time>2018-07-24T11:10:33Z</time>
      </trkpt>
      <trkpt lat="41.176004" lon="-6.640786">
        <ele>680.515</ele>
        <time>2018-07-24T11:10:34Z</time>
      </trkpt>
      <trkpt lat="41.175993" lon="-6.640704">
        <ele>680.547</ele>
        <time>2018-07-24T11:10:38Z</time>
      </trkpt>
      <trkpt lat="41.175989" lon="-6.640666">
        <ele>680.566</ele>
        <time>2018-07-24T11:10:39Z</time>
      </trkpt>
      <trkpt lat="41.175972" lon="-6.640602">
        <ele>680.602</ele>
        <time>2018-07-24T11:10:42Z</time>
      </trkpt>
      <trkpt lat="41.175965" lon="-6.640571">
        <ele>680.628</ele>
        <time>2018-07-24T11:10:44Z</time>
      </trkpt>
      <trkpt lat="41.175942" lon="-6.640512">
        <ele>680.673</ele>
        <time>2018-07-24T11:10:47Z</time>
      </trkpt>
      <trkpt lat="41.175928" lon="-6.640437">
        <ele>680.723</ele>
        <time>2018-07-24T11:10:50Z</time>
      </trkpt>
      <trkpt lat="41.175899" lon="-6.640367">
        <ele>680.765</ele>
        <time>2018-07-24T11:10:53Z</time>
      </trkpt>
      <trkpt lat="41.175856" lon="-6.640267">
        <ele>680.812</ele>
        <time>2018-07-24T11:10:56Z</time>
      </trkpt>
      <trkpt lat="41.175838" lon="-6.640198">
        <ele>680.867</ele>
        <time>2018-07-24T11:10:59Z</time>
      </trkpt>
      <trkpt lat="41.175807" lon="-6.640119">
        <ele>680.974</ele>
        <time>2018-07-24T11:11:02Z</time>
      </trkpt>
      <trkpt lat="41.175798" lon="-6.640092">
        <ele>681.097</ele>
        <time>2018-07-24T11:11:04Z</time>
      </trkpt>
      <trkpt lat="41.175789" lon="-6.640011">
        <ele>681.228</ele>
        <time>2018-07-24T11:11:07Z</time>
      </trkpt>
      <trkpt lat="41.175783" lon="-6.639976">
        <ele>681.275</ele>
        <time>2018-07-24T11:11:09Z</time>
      </trkpt>
      <trkpt lat="41.175775" lon="-6.639931">
        <ele>681.473</ele>
        <time>2018-07-24T11:11:11Z</time>
      </trkpt>
      <trkpt lat="41.175763" lon="-6.639841">
        <ele>681.645</ele>
        <time>2018-07-24T11:11:14Z</time>
      </trkpt>
      <trkpt lat="41.175755" lon="-6.639754">
        <ele>681.833</ele>
        <time>2018-07-24T11:11:18Z</time>
      </trkpt>
      <trkpt lat="41.175732" lon="-6.63969">
        <ele>681.962</ele>
        <time>2018-07-24T11:11:21Z</time>
      </trkpt>
      <trkpt lat="41.1757" lon="-6.63964">
        <ele>682.164</ele>
        <time>2018-07-24T11:11:24Z</time>
      </trkpt>
      <trkpt lat="41.175672" lon="-6.63958">
        <ele>682.446</ele>
        <time>2018-07-24T11:11:27Z</time>
      </trkpt>
      <trkpt lat="41.175631" lon="-6.639543">
        <ele>682.604</ele>
        <time>2018-07-24T11:11:31Z</time>
      </trkpt>
      <trkpt lat="41.175599" lon="-6.639514">
        <ele>682.853</ele>
        <time>2018-07-24T11:11:33Z</time>
      </trkpt>
      <trkpt lat="41.175558" lon="-6.639489">
        <ele>683.197</ele>
        <time>2018-07-24T11:11:36Z</time>
      </trkpt>
      <trkpt lat="41.17553" lon="-6.639469">
        <ele>683.374</ele>
        <time>2018-07-24T11:11:38Z</time>
      </trkpt>
      <trkpt lat="41.17548" lon="-6.639433">
        <ele>683.548</ele>
        <time>2018-07-24T11:11:41Z</time>
      </trkpt>
      <trkpt lat="41.17542" lon="-6.639411">
        <ele>683.817</ele>
        <time>2018-07-24T11:11:44Z</time>
      </trkpt>
      <trkpt lat="41.175378" lon="-6.639378">
        <ele>684.082</ele>
        <time>2018-07-24T11:11:46Z</time>
      </trkpt>
      <trkpt lat="41.175335" lon="-6.639354">
        <ele>684.348</ele>
        <time>2018-07-24T11:11:48Z</time>
      </trkpt>
      <trkpt lat="41.175299" lon="-6.639312">
        <ele>684.531</ele>
        <time>2018-07-24T11:11:50Z</time>
      </trkpt>
      <trkpt lat="41.175258" lon="-6.639283">
        <ele>684.713</ele>
        <time>2018-07-24T11:11:53Z</time>
      </trkpt>
      <trkpt lat="41.175214" lon="-6.639258">
        <ele>684.895</ele>
        <time>2018-07-24T11:11:56Z</time>
      </trkpt>
      <trkpt lat="41.175175" lon="-6.639237">
        <ele>684.986</ele>
        <time>2018-07-24T11:11:59Z</time>
      </trkpt>
      <trkpt lat="41.175153" lon="-6.639224">
        <ele>685.253</ele>
        <time>2018-07-24T11:12:00Z</time>
      </trkpt>
      <trkpt lat="41.175095" lon="-6.63921">
        <ele>685.341</ele>
        <time>2018-07-24T11:12:04Z</time>
      </trkpt>
      <trkpt lat="41.175046" lon="-6.639187">
        <ele>685.6</ele>
        <time>2018-07-24T11:12:07Z</time>
      </trkpt>
      <trkpt lat="41.174989" lon="-6.639177">
        <ele>685.86</ele>
        <time>2018-07-24T11:12:10Z</time>
      </trkpt>
      <trkpt lat="41.174962" lon="-6.639172">
        <ele>686.045</ele>
        <time>2018-07-24T11:12:12Z</time>
      </trkpt>
      <trkpt lat="41.174904" lon="-6.63917">
        <ele>686.333</ele>
        <time>2018-07-24T11:12:15Z</time>
      </trkpt>
      <trkpt lat="41.174844" lon="-6.639146">
        <ele>686.621</ele>
        <time>2018-07-24T11:12:19Z</time>
      </trkpt>
      <trkpt lat="41.174822" lon="-6.639139">
        <ele>686.82</ele>
        <time>2018-07-24T11:12:21Z</time>
      </trkpt>
      <trkpt lat="41.17476" lon="-6.639151">
        <ele>687.027</ele>
        <time>2018-07-24T11:12:24Z</time>
      </trkpt>
      <trkpt lat="41.174702" lon="-6.639144">
        <ele>687.238</ele>
        <time>2018-07-24T11:12:28Z</time>
      </trkpt>
      <trkpt lat="41.174669" lon="-6.639141">
        <ele>687.451</ele>
        <time>2018-07-24T11:12:30Z</time>
      </trkpt>
      <trkpt lat="41.174636" lon="-6.639139">
        <ele>687.662</ele>
        <time>2018-07-24T11:12:32Z</time>
      </trkpt>
      <trkpt lat="41.174581" lon="-6.639147">
        <ele>687.973</ele>
        <time>2018-07-24T11:12:35Z</time>
      </trkpt>
      <trkpt lat="41.174518" lon="-6.639143">
        <ele>688.078</ele>
        <time>2018-07-24T11:12:38Z</time>
      </trkpt>
      <trkpt lat="41.174488" lon="-6.639143">
        <ele>688.292</ele>
        <time>2018-07-24T11:12:41Z</time>
      </trkpt>
      <trkpt lat="41.174432" lon="-6.639145">
        <ele>688.398</ele>
        <time>2018-07-24T11:12:43Z</time>
      </trkpt>
      <trkpt lat="41.174386" lon="-6.63914">
        <ele>688.721</ele>
        <time>2018-07-24T11:12:45Z</time>
      </trkpt>
      <trkpt lat="41.174358" lon="-6.639138">
        <ele>688.828</ele>
        <time>2018-07-24T11:12:47Z</time>
      </trkpt>
      <trkpt lat="41.174333" lon="-6.639134">
        <ele>689.048</ele>
        <time>2018-07-24T11:12:48Z</time>
      </trkpt>
      <trkpt lat="41.174299" lon="-6.639132">
        <ele>689.27</ele>
        <time>2018-07-24T11:12:51Z</time>
      </trkpt>
      <trkpt lat="41.174274" lon="-6.639129">
        <ele>689.61</ele>
        <time>2018-07-24T11:12:52Z</time>
      </trkpt>
      <trkpt lat="41.174225" lon="-6.639136">
        <ele>689.836</ele>
        <time>2018-07-24T11:12:55Z</time>
      </trkpt>
      <trkpt lat="41.174172" lon="-6.639155">
        <ele>690.062</ele>
        <time>2018-07-24T11:12:58Z</time>
      </trkpt>
      <trkpt lat="41.174137" lon="-6.639167">
        <ele>690.289</ele>
        <time>2018-07-24T11:13:00Z</time>
      </trkpt>
      <trkpt lat="41.174101" lon="-6.639183">
        <ele>690.514</ele>
        <time>2018-07-24T11:13:03Z</time>
      </trkpt>
      <trkpt lat="41.174055" lon="-6.639209">
        <ele>690.847</ele>
        <time>2018-07-24T11:13:06Z</time>
      </trkpt>
      <trkpt lat="41.174026" lon="-6.639226">
        <ele>691.174</ele>
        <time>2018-07-24T11:13:08Z</time>
      </trkpt>
      <trkpt lat="41.174" lon="-6.639241">
        <ele>691.282</ele>
        <time>2018-07-24T11:13:10Z</time>
      </trkpt>
      <trkpt lat="41.173962" lon="-6.639266">
        <ele>691.39</ele>
        <time>2018-07-24T11:13:12Z</time>
      </trkpt>
      <trkpt lat="41.173924" lon="-6.639295">
        <ele>691.498</ele>
        <time>2018-07-24T11:13:14Z</time>
      </trkpt>
      <trkpt lat="41.173892" lon="-6.639324">
        <ele>691.817</ele>
        <time>2018-07-24T11:13:16Z</time>
      </trkpt>
      <trkpt lat="41.173854" lon="-6.639378">
        <ele>692.027</ele>
        <time>2018-07-24T11:13:19Z</time>
      </trkpt>
      <trkpt lat="41.173837" lon="-6.639401">
        <ele>692.338</ele>
        <time>2018-07-24T11:13:20Z</time>
      </trkpt>
      <trkpt lat="41.173812" lon="-6.639437">
        <ele>692.542</ele>
        <time>2018-07-24T11:13:22Z</time>
      </trkpt>
      <trkpt lat="41.173796" lon="-6.639462">
        <ele>692.739</ele>
        <time>2018-07-24T11:13:23Z</time>
      </trkpt>
      <trkpt lat="41.173753" lon="-6.639511">
        <ele>693.036</ele>
        <time>2018-07-24T11:13:26Z</time>
      </trkpt>
      <trkpt lat="41.173735" lon="-6.63953">
        <ele>693.335</ele>
        <time>2018-07-24T11:13:27Z</time>
      </trkpt>
      <trkpt lat="41.173694" lon="-6.639562">
        <ele>693.634</ele>
        <time>2018-07-24T11:13:29Z</time>
      </trkpt>
      <trkpt lat="41.173651" lon="-6.639607">
        <ele>693.923</ele>
        <time>2018-07-24T11:13:31Z</time>
      </trkpt>
      <trkpt lat="41.173612" lon="-6.639658">
        <ele>694.115</ele>
        <time>2018-07-24T11:13:34Z</time>
      </trkpt>
      <trkpt lat="41.173586" lon="-6.63969">
        <ele>694.305</ele>
        <time>2018-07-24T11:13:36Z</time>
      </trkpt>
      <trkpt lat="41.17356" lon="-6.639725">
        <ele>694.492</ele>
        <time>2018-07-24T11:13:38Z</time>
      </trkpt>
      <trkpt lat="41.173536" lon="-6.639756">
        <ele>694.771</ele>
        <time>2018-07-24T11:13:40Z</time>
      </trkpt>
      <trkpt lat="41.173499" lon="-6.639799">
        <ele>695.046</ele>
        <time>2018-07-24T11:13:42Z</time>
      </trkpt>
      <trkpt lat="41.17345" lon="-6.639835">
        <ele>695.315</ele>
        <time>2018-07-24T11:13:45Z</time>
      </trkpt>
      <trkpt lat="41.173411" lon="-6.639887">
        <ele>695.495</ele>
        <time>2018-07-24T11:13:48Z</time>
      </trkpt>
      <trkpt lat="41.173391" lon="-6.639913">
        <ele>695.762</ele>
        <time>2018-07-24T11:13:49Z</time>
      </trkpt>
      <trkpt lat="41.173374" lon="-6.639937">
        <ele>696.024</ele>
        <time>2018-07-24T11:13:50Z</time>
      </trkpt>
      <trkpt lat="41.173359" lon="-6.639959">
        <ele>696.197</ele>
        <time>2018-07-24T11:13:51Z</time>
      </trkpt>
      <trkpt lat="41.173315" lon="-6.640003">
        <ele>696.456</ele>
        <time>2018-07-24T11:13:54Z</time>
      </trkpt>
      <trkpt lat="41.173281" lon="-6.640035">
        <ele>696.629</ele>
        <time>2018-07-24T11:13:56Z</time>
      </trkpt>
      <trkpt lat="41.173233" lon="-6.640082">
        <ele>696.801</ele>
        <time>2018-07-24T11:13:59Z</time>
      </trkpt>
      <trkpt lat="41.173207" lon="-6.640113">
        <ele>696.974</ele>
        <time>2018-07-24T11:14:01Z</time>
      </trkpt>
      <trkpt lat="41.173183" lon="-6.640137">
        <ele>697.235</ele>
        <time>2018-07-24T11:14:03Z</time>
      </trkpt>
      <trkpt lat="41.173144" lon="-6.640199">
        <ele>697.321</ele>
        <time>2018-07-24T11:14:06Z</time>
      </trkpt>
      <trkpt lat="41.173098" lon="-6.640251">
        <ele>697.406</ele>
        <time>2018-07-24T11:14:09Z</time>
      </trkpt>
      <trkpt lat="41.173068" lon="-6.640298">
        <ele>697.574</ele>
        <time>2018-07-24T11:14:12Z</time>
      </trkpt>
      <trkpt lat="41.173034" lon="-6.640341">
        <ele>697.743</ele>
        <time>2018-07-24T11:14:15Z</time>
      </trkpt>
      <trkpt lat="41.173008" lon="-6.640377">
        <ele>697.994</ele>
        <time>2018-07-24T11:14:17Z</time>
      </trkpt>
      <trkpt lat="41.172961" lon="-6.640421">
        <ele>698.077</ele>
        <time>2018-07-24T11:14:19Z</time>
      </trkpt>
      <trkpt lat="41.172921" lon="-6.640449">
        <ele>698.16</ele>
        <time>2018-07-24T11:14:21Z</time>
      </trkpt>
      <trkpt lat="41.172886" lon="-6.640508">
        <ele>698.244</ele>
        <time>2018-07-24T11:14:24Z</time>
      </trkpt>
      <trkpt lat="41.172843" lon="-6.640563">
        <ele>698.327</ele>
        <time>2018-07-24T11:14:27Z</time>
      </trkpt>
      <trkpt lat="41.172801" lon="-6.640604">
        <ele>698.492</ele>
        <time>2018-07-24T11:14:30Z</time>
      </trkpt>
      <trkpt lat="41.172766" lon="-6.640637">
        <ele>698.575</ele>
        <time>2018-07-24T11:14:32Z</time>
      </trkpt>
      <trkpt lat="41.172713" lon="-6.640678">
        <ele>698.656</ele>
        <time>2018-07-24T11:14:35Z</time>
      </trkpt>
      <trkpt lat="41.172672" lon="-6.640727">
        <ele>698.818</ele>
        <time>2018-07-24T11:14:38Z</time>
      </trkpt>
      <trkpt lat="41.172631" lon="-6.640755">
        <ele>698.898</ele>
        <time>2018-07-24T11:14:40Z</time>
      </trkpt>
      <trkpt lat="41.172575" lon="-6.640808">
        <ele>699.144</ele>
        <time>2018-07-24T11:14:43Z</time>
      </trkpt>
      <trkpt lat="41.172536" lon="-6.640854">
        <ele>699.308</ele>
        <time>2018-07-24T11:14:45Z</time>
      </trkpt>
      <trkpt lat="41.172503" lon="-6.640886">
        <ele>699.477</ele>
        <time>2018-07-24T11:14:47Z</time>
      </trkpt>
      <trkpt lat="41.172453" lon="-6.640924">
        <ele>699.56</ele>
        <time>2018-07-24T11:14:49Z</time>
      </trkpt>
      <trkpt lat="41.172378" lon="-6.640978">
        <ele>699.728</ele>
        <time>2018-07-24T11:14:52Z</time>
      </trkpt>
      <trkpt lat="41.172349" lon="-6.640996">
        <ele>699.81</ele>
        <time>2018-07-24T11:14:53Z</time>
      </trkpt>
      <trkpt lat="41.17231" lon="-6.641016">
        <ele>699.893</ele>
        <time>2018-07-24T11:14:54Z</time>
      </trkpt>
      <trkpt lat="41.172247" lon="-6.641064">
        <ele>699.976</ele>
        <time>2018-07-24T11:14:56Z</time>
      </trkpt>
      <trkpt lat="41.172208" lon="-6.641103">
        <ele>700.225</ele>
        <time>2018-07-24T11:14:58Z</time>
      </trkpt>
      <trkpt lat="41.172132" lon="-6.641164">
        <ele>700.306</ele>
        <time>2018-07-24T11:15:01Z</time>
      </trkpt>
      <trkpt lat="41.172107" lon="-6.641186">
        <ele>700.387</ele>
        <time>2018-07-24T11:15:02Z</time>
      </trkpt>
      <trkpt lat="41.172083" lon="-6.641206">
        <ele>700.468</ele>
        <time>2018-07-24T11:15:03Z</time>
      </trkpt>
      <trkpt lat="41.172061" lon="-6.641221">
        <ele>700.548</ele>
        <time>2018-07-24T11:15:04Z</time>
      </trkpt>
      <trkpt lat="41.172036" lon="-6.641239">
        <ele>700.708</ele>
        <time>2018-07-24T11:15:05Z</time>
      </trkpt>
      <trkpt lat="41.171984" lon="-6.641265">
        <ele>700.789</ele>
        <time>2018-07-24T11:15:07Z</time>
      </trkpt>
      <trkpt lat="41.171958" lon="-6.641278">
        <ele>700.946</ele>
        <time>2018-07-24T11:15:08Z</time>
      </trkpt>
      <trkpt lat="41.171934" lon="-6.641292">
        <ele>701.023</ele>
        <time>2018-07-24T11:15:09Z</time>
      </trkpt>
      <trkpt lat="41.171894" lon="-6.641336">
        <ele>701.176</ele>
        <time>2018-07-24T11:15:11Z</time>
      </trkpt>
      <trkpt lat="41.171876" lon="-6.641358">
        <ele>701.253</ele>
        <time>2018-07-24T11:15:12Z</time>
      </trkpt>
      <trkpt lat="41.171815" lon="-6.641423">
        <ele>701.329</ele>
        <time>2018-07-24T11:15:15Z</time>
      </trkpt>
      <trkpt lat="41.171767" lon="-6.641452">
        <ele>701.565</ele>
        <time>2018-07-24T11:15:17Z</time>
      </trkpt>
      <trkpt lat="41.171718" lon="-6.641495">
        <ele>701.724</ele>
        <time>2018-07-24T11:15:19Z</time>
      </trkpt>
      <trkpt lat="41.171697" lon="-6.641512">
        <ele>701.882</ele>
        <time>2018-07-24T11:15:20Z</time>
      </trkpt>
      <trkpt lat="41.171642" lon="-6.641551">
        <ele>701.961</ele>
        <time>2018-07-24T11:15:22Z</time>
      </trkpt>
      <trkpt lat="41.171611" lon="-6.641576">
        <ele>702.119</ele>
        <time>2018-07-24T11:15:23Z</time>
      </trkpt>
      <trkpt lat="41.171587" lon="-6.641594">
        <ele>702.198</ele>
        <time>2018-07-24T11:15:24Z</time>
      </trkpt>
      <trkpt lat="41.171563" lon="-6.641613">
        <ele>702.278</ele>
        <time>2018-07-24T11:15:25Z</time>
      </trkpt>
      <trkpt lat="41.171502" lon="-6.64165">
        <ele>702.356</ele>
        <time>2018-07-24T11:15:28Z</time>
      </trkpt>
      <trkpt lat="41.171474" lon="-6.641668">
        <ele>702.51</ele>
        <time>2018-07-24T11:15:29Z</time>
      </trkpt>
      <trkpt lat="41.171454" lon="-6.641684">
        <ele>702.66</ele>
        <time>2018-07-24T11:15:30Z</time>
      </trkpt>
      <trkpt lat="41.171435" lon="-6.641699">
        <ele>702.808</ele>
        <time>2018-07-24T11:15:31Z</time>
      </trkpt>
      <trkpt lat="41.171412" lon="-6.641718">
        <ele>702.882</ele>
        <time>2018-07-24T11:15:32Z</time>
      </trkpt>
      <trkpt lat="41.171361" lon="-6.641748">
        <ele>703.03</ele>
        <time>2018-07-24T11:15:34Z</time>
      </trkpt>
      <trkpt lat="41.171336" lon="-6.641765">
        <ele>703.105</ele>
        <time>2018-07-24T11:15:35Z</time>
      </trkpt>
      <trkpt lat="41.171296" lon="-6.641796">
        <ele>703.256</ele>
        <time>2018-07-24T11:15:37Z</time>
      </trkpt>
      <trkpt lat="41.171267" lon="-6.641814">
        <ele>703.331</ele>
        <time>2018-07-24T11:15:38Z</time>
      </trkpt>
      <trkpt lat="41.171212" lon="-6.641846">
        <ele>703.406</ele>
        <time>2018-07-24T11:15:40Z</time>
      </trkpt>
      <trkpt lat="41.171185" lon="-6.641859">
        <ele>703.485</ele>
        <time>2018-07-24T11:15:41Z</time>
      </trkpt>
      <trkpt lat="41.171157" lon="-6.641872">
        <ele>703.563</ele>
        <time>2018-07-24T11:15:42Z</time>
      </trkpt>
      <trkpt lat="41.171097" lon="-6.64189">
        <ele>703.723</ele>
        <time>2018-07-24T11:15:45Z</time>
      </trkpt>
      <trkpt lat="41.171031" lon="-6.641891">
        <ele>703.805</ele>
        <time>2018-07-24T11:15:47Z</time>
      </trkpt>
      <trkpt lat="41.170976" lon="-6.641884">
        <ele>703.889</ele>
        <time>2018-07-24T11:15:49Z</time>
      </trkpt>
      <trkpt lat="41.170951" lon="-6.641879">
        <ele>703.975</ele>
        <time>2018-07-24T11:15:50Z</time>
      </trkpt>
      <trkpt lat="41.170892" lon="-6.641849">
        <ele>704.144</ele>
        <time>2018-07-24T11:15:52Z</time>
      </trkpt>
      <trkpt lat="41.170865" lon="-6.641834">
        <ele>704.23</ele>
        <time>2018-07-24T11:15:53Z</time>
      </trkpt>
      <trkpt lat="41.170828" lon="-6.641811">
        <ele>704.316</ele>
        <time>2018-07-24T11:15:54Z</time>
      </trkpt>
      <trkpt lat="41.170796" lon="-6.64179">
        <ele>704.487</ele>
        <time>2018-07-24T11:15:55Z</time>
      </trkpt>
      <trkpt lat="41.170737" lon="-6.641757">
        <ele>704.572</ele>
        <time>2018-07-24T11:15:57Z</time>
      </trkpt>
      <trkpt lat="41.170694" lon="-6.641727">
        <ele>704.657</ele>
        <time>2018-07-24T11:15:59Z</time>
      </trkpt>
      <trkpt lat="41.170638" lon="-6.641693">
        <ele>704.741</ele>
        <time>2018-07-24T11:16:01Z</time>
      </trkpt>
      <trkpt lat="41.170612" lon="-6.641674">
        <ele>704.824</ele>
        <time>2018-07-24T11:16:02Z</time>
      </trkpt>
      <trkpt lat="41.170564" lon="-6.641645">
        <ele>704.985</ele>
        <time>2018-07-24T11:16:04Z</time>
      </trkpt>
      <trkpt lat="41.170527" lon="-6.641618">
        <ele>705.145</ele>
        <time>2018-07-24T11:16:05Z</time>
      </trkpt>
      <trkpt lat="41.17047" lon="-6.641567">
        <ele>705.225</ele>
        <time>2018-07-24T11:16:07Z</time>
      </trkpt>
      <trkpt lat="41.170448" lon="-6.641544">
        <ele>705.303</ele>
        <time>2018-07-24T11:16:08Z</time>
      </trkpt>
      <trkpt lat="41.170423" lon="-6.64152">
        <ele>705.455</ele>
        <time>2018-07-24T11:16:09Z</time>
      </trkpt>
      <trkpt lat="41.1704" lon="-6.6415">
        <ele>705.605</ele>
        <time>2018-07-24T11:16:10Z</time>
      </trkpt>
      <trkpt lat="41.170374" lon="-6.641479">
        <ele>705.679</ele>
        <time>2018-07-24T11:16:11Z</time>
      </trkpt>
      <trkpt lat="41.170317" lon="-6.641439">
        <ele>705.752</ele>
        <time>2018-07-24T11:16:13Z</time>
      </trkpt>
      <trkpt lat="41.17029" lon="-6.641422">
        <ele>705.825</ele>
        <time>2018-07-24T11:16:14Z</time>
      </trkpt>
      <trkpt lat="41.170261" lon="-6.6414">
        <ele>705.968</ele>
        <time>2018-07-24T11:16:15Z</time>
      </trkpt>
      <trkpt lat="41.170233" lon="-6.64138">
        <ele>706.106</ele>
        <time>2018-07-24T11:16:16Z</time>
      </trkpt>
      <trkpt lat="41.170188" lon="-6.64135">
        <ele>706.174</ele>
        <time>2018-07-24T11:16:18Z</time>
      </trkpt>
      <trkpt lat="41.170166" lon="-6.641335">
        <ele>706.306</ele>
        <time>2018-07-24T11:16:19Z</time>
      </trkpt>
      <trkpt lat="41.170141" lon="-6.641316">
        <ele>706.437</ele>
        <time>2018-07-24T11:16:20Z</time>
      </trkpt>
      <trkpt lat="41.1701" lon="-6.641283">
        <ele>706.566</ele>
        <time>2018-07-24T11:16:22Z</time>
      </trkpt>
      <trkpt lat="41.170073" lon="-6.641262">
        <ele>706.695</ele>
        <time>2018-07-24T11:16:23Z</time>
      </trkpt>
      <trkpt lat="41.170044" lon="-6.641241">
        <ele>706.761</ele>
        <time>2018-07-24T11:16:24Z</time>
      </trkpt>
      <trkpt lat="41.170015" lon="-6.641218">
        <ele>706.828</ele>
        <time>2018-07-24T11:16:25Z</time>
      </trkpt>
      <trkpt lat="41.16999" lon="-6.641199">
        <ele>706.961</ele>
        <time>2018-07-24T11:16:26Z</time>
      </trkpt>
      <trkpt lat="41.169935" lon="-6.641171">
        <ele>707.096</ele>
        <time>2018-07-24T11:16:28Z</time>
      </trkpt>
      <trkpt lat="41.169883" lon="-6.641132">
        <ele>707.163</ele>
        <time>2018-07-24T11:16:30Z</time>
      </trkpt>
      <trkpt lat="41.169859" lon="-6.641116">
        <ele>707.231</ele>
        <time>2018-07-24T11:16:31Z</time>
      </trkpt>
      <trkpt lat="41.169831" lon="-6.641101">
        <ele>707.369</ele>
        <time>2018-07-24T11:16:32Z</time>
      </trkpt>
      <trkpt lat="41.169774" lon="-6.64107">
        <ele>707.438</ele>
        <time>2018-07-24T11:16:34Z</time>
      </trkpt>
      <trkpt lat="41.169723" lon="-6.641036">
        <ele>707.509</ele>
        <time>2018-07-24T11:16:36Z</time>
      </trkpt>
      <trkpt lat="41.169697" lon="-6.641018">
        <ele>707.652</ele>
        <time>2018-07-24T11:16:37Z</time>
      </trkpt>
      <trkpt lat="41.16967" lon="-6.641002">
        <ele>707.724</ele>
        <time>2018-07-24T11:16:38Z</time>
      </trkpt>
      <trkpt lat="41.169639" lon="-6.640983">
        <ele>707.869</ele>
        <time>2018-07-24T11:16:39Z</time>
      </trkpt>
      <trkpt lat="41.169578" lon="-6.640956">
        <ele>707.94</ele>
        <time>2018-07-24T11:16:41Z</time>
      </trkpt>
      <trkpt lat="41.169516" lon="-6.640933">
        <ele>708.009</ele>
        <time>2018-07-24T11:16:43Z</time>
      </trkpt>
      <trkpt lat="41.169486" lon="-6.640925">
        <ele>708.078</ele>
        <time>2018-07-24T11:16:44Z</time>
      </trkpt>
      <trkpt lat="41.169422" lon="-6.640921">
        <ele>708.146</ele>
        <time>2018-07-24T11:16:46Z</time>
      </trkpt>
      <trkpt lat="41.169358" lon="-6.640925">
        <ele>708.354</ele>
        <time>2018-07-24T11:16:48Z</time>
      </trkpt>
      <trkpt lat="41.16929" lon="-6.640941">
        <ele>708.425</ele>
        <time>2018-07-24T11:16:50Z</time>
      </trkpt>
      <trkpt lat="41.169233" lon="-6.64097">
        <ele>708.568</ele>
        <time>2018-07-24T11:16:52Z</time>
      </trkpt>
      <trkpt lat="41.169205" lon="-6.640985">
        <ele>708.713</ele>
        <time>2018-07-24T11:16:53Z</time>
      </trkpt>
      <trkpt lat="41.169179" lon="-6.640999">
        <ele>708.857</ele>
        <time>2018-07-24T11:16:54Z</time>
      </trkpt>
      <trkpt lat="41.169123" lon="-6.64104">
        <ele>708.929</ele>
        <time>2018-07-24T11:16:56Z</time>
      </trkpt>
      <trkpt lat="41.169077" lon="-6.641078">
        <ele>709.001</ele>
        <time>2018-07-24T11:16:58Z</time>
      </trkpt>
      <trkpt lat="41.169047" lon="-6.641097">
        <ele>709.073</ele>
        <time>2018-07-24T11:16:59Z</time>
      </trkpt>
      <trkpt lat="41.16902" lon="-6.641114">
        <ele>709.145</ele>
        <time>2018-07-24T11:17:00Z</time>
      </trkpt>
      <trkpt lat="41.168961" lon="-6.641143">
        <ele>709.288</ele>
        <time>2018-07-24T11:17:02Z</time>
      </trkpt>
      <trkpt lat="41.168933" lon="-6.64116">
        <ele>709.359</ele>
        <time>2018-07-24T11:17:03Z</time>
      </trkpt>
      <trkpt lat="41.168905" lon="-6.641177">
        <ele>709.5</ele>
        <time>2018-07-24T11:17:04Z</time>
      </trkpt>
      <trkpt lat="41.16885" lon="-6.641219">
        <ele>709.57</ele>
        <time>2018-07-24T11:17:06Z</time>
      </trkpt>
      <trkpt lat="41.168826" lon="-6.641239">
        <ele>709.641</ele>
        <time>2018-07-24T11:17:07Z</time>
      </trkpt>
      <trkpt lat="41.168771" lon="-6.641271">
        <ele>709.713</ele>
        <time>2018-07-24T11:17:09Z</time>
      </trkpt>
      <trkpt lat="41.168742" lon="-6.641291">
        <ele>709.786</ele>
        <time>2018-07-24T11:17:10Z</time>
      </trkpt>
      <trkpt lat="41.16871" lon="-6.64131">
        <ele>709.934</ele>
        <time>2018-07-24T11:17:11Z</time>
      </trkpt>
      <trkpt lat="41.168682" lon="-6.641328">
        <ele>710.082</ele>
        <time>2018-07-24T11:17:12Z</time>
      </trkpt>
      <trkpt lat="41.168656" lon="-6.641345">
        <ele>710.229</ele>
        <time>2018-07-24T11:17:13Z</time>
      </trkpt>
      <trkpt lat="41.168576" lon="-6.641389">
        <ele>710.45</ele>
        <time>2018-07-24T11:17:16Z</time>
      </trkpt>
      <trkpt lat="41.16855" lon="-6.641404">
        <ele>710.521</ele>
        <time>2018-07-24T11:17:17Z</time>
      </trkpt>
      <trkpt lat="41.168493" lon="-6.641444">
        <ele>710.668</ele>
        <time>2018-07-24T11:17:19Z</time>
      </trkpt>
      <trkpt lat="41.168433" lon="-6.641469">
        <ele>710.743</ele>
        <time>2018-07-24T11:17:21Z</time>
      </trkpt>
      <trkpt lat="41.168377" lon="-6.641511">
        <ele>710.894</ele>
        <time>2018-07-24T11:17:23Z</time>
      </trkpt>
      <trkpt lat="41.168347" lon="-6.641534">
        <ele>711.124</ele>
        <time>2018-07-24T11:17:24Z</time>
      </trkpt>
      <trkpt lat="41.168324" lon="-6.641552">
        <ele>711.277</ele>
        <time>2018-07-24T11:17:25Z</time>
      </trkpt>
      <trkpt lat="41.1683" lon="-6.641572">
        <ele>711.432</ele>
        <time>2018-07-24T11:17:26Z</time>
      </trkpt>
      <trkpt lat="41.168275" lon="-6.641595">
        <ele>711.586</ele>
        <time>2018-07-24T11:17:27Z</time>
      </trkpt>
      <trkpt lat="41.168218" lon="-6.641626">
        <ele>711.74</ele>
        <time>2018-07-24T11:17:29Z</time>
      </trkpt>
      <trkpt lat="41.168184" lon="-6.641644">
        <ele>711.894</ele>
        <time>2018-07-24T11:17:30Z</time>
      </trkpt>
      <trkpt lat="41.168134" lon="-6.641682">
        <ele>711.971</ele>
        <time>2018-07-24T11:17:32Z</time>
      </trkpt>
      <trkpt lat="41.168109" lon="-6.641702">
        <ele>712.197</ele>
        <time>2018-07-24T11:17:33Z</time>
      </trkpt>
      <trkpt lat="41.168078" lon="-6.641723">
        <ele>712.271</ele>
        <time>2018-07-24T11:17:34Z</time>
      </trkpt>
      <trkpt lat="41.168049" lon="-6.641743">
        <ele>712.419</ele>
        <time>2018-07-24T11:17:35Z</time>
      </trkpt>
      <trkpt lat="41.168022" lon="-6.64176">
        <ele>712.492</ele>
        <time>2018-07-24T11:17:36Z</time>
      </trkpt>
      <trkpt lat="41.167969" lon="-6.641796">
        <ele>712.565</ele>
        <time>2018-07-24T11:17:38Z</time>
      </trkpt>
      <trkpt lat="41.167913" lon="-6.641823">
        <ele>712.638</ele>
        <time>2018-07-24T11:17:40Z</time>
      </trkpt>
      <trkpt lat="41.167859" lon="-6.64186">
        <ele>712.781</ele>
        <time>2018-07-24T11:17:42Z</time>
      </trkpt>
      <trkpt lat="41.167782" lon="-6.6419">
        <ele>712.923</ele>
        <time>2018-07-24T11:17:45Z</time>
      </trkpt>
      <trkpt lat="41.167754" lon="-6.641916">
        <ele>713.068</ele>
        <time>2018-07-24T11:17:46Z</time>
      </trkpt>
      <trkpt lat="41.1677" lon="-6.641952">
        <ele>713.141</ele>
        <time>2018-07-24T11:17:48Z</time>
      </trkpt>
      <trkpt lat="41.167673" lon="-6.641967">
        <ele>713.287</ele>
        <time>2018-07-24T11:17:49Z</time>
      </trkpt>
      <trkpt lat="41.16762" lon="-6.642004">
        <ele>713.433</ele>
        <time>2018-07-24T11:17:51Z</time>
      </trkpt>
      <trkpt lat="41.167531" lon="-6.642049">
        <ele>713.581</ele>
        <time>2018-07-24T11:17:54Z</time>
      </trkpt>
      <trkpt lat="41.167477" lon="-6.642087">
        <ele>713.654</ele>
        <time>2018-07-24T11:17:56Z</time>
      </trkpt>
      <trkpt lat="41.167429" lon="-6.642129">
        <ele>713.799</ele>
        <time>2018-07-24T11:17:58Z</time>
      </trkpt>
      <trkpt lat="41.16737" lon="-6.642164">
        <ele>713.87</ele>
        <time>2018-07-24T11:18:00Z</time>
      </trkpt>
      <trkpt lat="41.167316" lon="-6.6422">
        <ele>714.011</ele>
        <time>2018-07-24T11:18:02Z</time>
      </trkpt>
      <trkpt lat="41.167266" lon="-6.642237">
        <ele>714.151</ele>
        <time>2018-07-24T11:18:04Z</time>
      </trkpt>
      <trkpt lat="41.167239" lon="-6.64226">
        <ele>714.222</ele>
        <time>2018-07-24T11:18:05Z</time>
      </trkpt>
      <trkpt lat="41.167163" lon="-6.642313">
        <ele>714.293</ele>
        <time>2018-07-24T11:18:08Z</time>
      </trkpt>
      <trkpt lat="41.167133" lon="-6.642331">
        <ele>714.436</ele>
        <time>2018-07-24T11:18:09Z</time>
      </trkpt>
      <trkpt lat="41.16709" lon="-6.642369">
        <ele>714.506</ele>
        <time>2018-07-24T11:18:11Z</time>
      </trkpt>
      <trkpt lat="41.167066" lon="-6.642391">
        <ele>714.648</ele>
        <time>2018-07-24T11:18:12Z</time>
      </trkpt>
      <trkpt lat="41.167041" lon="-6.642417">
        <ele>714.786</ele>
        <time>2018-07-24T11:18:13Z</time>
      </trkpt>
      <trkpt lat="41.167021" lon="-6.642443">
        <ele>714.922</ele>
        <time>2018-07-24T11:18:14Z</time>
      </trkpt>
      <trkpt lat="41.166968" lon="-6.642482">
        <ele>715.126</ele>
        <time>2018-07-24T11:18:16Z</time>
      </trkpt>
      <trkpt lat="41.166919" lon="-6.642527">
        <ele>715.262</ele>
        <time>2018-07-24T11:18:18Z</time>
      </trkpt>
      <trkpt lat="41.166863" lon="-6.642558">
        <ele>715.397</ele>
        <time>2018-07-24T11:18:20Z</time>
      </trkpt>
      <trkpt lat="41.166834" lon="-6.642577">
        <ele>715.463</ele>
        <time>2018-07-24T11:18:21Z</time>
      </trkpt>
      <trkpt lat="41.166785" lon="-6.642621">
        <ele>715.53</ele>
        <time>2018-07-24T11:18:23Z</time>
      </trkpt>
      <trkpt lat="41.166738" lon="-6.642656">
        <ele>715.66</ele>
        <time>2018-07-24T11:18:25Z</time>
      </trkpt>
      <trkpt lat="41.166687" lon="-6.642703">
        <ele>715.724</ele>
        <time>2018-07-24T11:18:27Z</time>
      </trkpt>
      <trkpt lat="41.166664" lon="-6.642723">
        <ele>715.849</ele>
        <time>2018-07-24T11:18:28Z</time>
      </trkpt>
      <trkpt lat="41.166617" lon="-6.642759">
        <ele>715.911</ele>
        <time>2018-07-24T11:18:30Z</time>
      </trkpt>
      <trkpt lat="41.166587" lon="-6.642783">
        <ele>716.031</ele>
        <time>2018-07-24T11:18:31Z</time>
      </trkpt>
      <trkpt lat="41.16653" lon="-6.642818">
        <ele>716.15</ele>
        <time>2018-07-24T11:18:33Z</time>
      </trkpt>
      <trkpt lat="41.166486" lon="-6.642863">
        <ele>716.209</ele>
        <time>2018-07-24T11:18:35Z</time>
      </trkpt>
      <trkpt lat="41.166463" lon="-6.642888">
        <ele>716.267</ele>
        <time>2018-07-24T11:18:36Z</time>
      </trkpt>
      <trkpt lat="41.166438" lon="-6.642912">
        <ele>716.324</ele>
        <time>2018-07-24T11:18:37Z</time>
      </trkpt>
      <trkpt lat="41.16638" lon="-6.642947">
        <ele>716.381</ele>
        <time>2018-07-24T11:18:39Z</time>
      </trkpt>
      <trkpt lat="41.166346" lon="-6.642969">
        <ele>716.495</ele>
        <time>2018-07-24T11:18:40Z</time>
      </trkpt>
      <trkpt lat="41.166296" lon="-6.643026">
        <ele>716.552</ele>
        <time>2018-07-24T11:18:42Z</time>
      </trkpt>
      <trkpt lat="41.166253" lon="-6.643067">
        <ele>716.609</ele>
        <time>2018-07-24T11:18:44Z</time>
      </trkpt>
      <trkpt lat="41.16621" lon="-6.643113">
        <ele>716.666</ele>
        <time>2018-07-24T11:18:46Z</time>
      </trkpt>
      <trkpt lat="41.166137" lon="-6.643175">
        <ele>716.779</ele>
        <time>2018-07-24T11:18:49Z</time>
      </trkpt>
      <trkpt lat="41.166104" lon="-6.643222">
        <ele>716.892</ele>
        <time>2018-07-24T11:18:51Z</time>
      </trkpt>
      <trkpt lat="41.166059" lon="-6.643264">
        <ele>716.949</ele>
        <time>2018-07-24T11:18:53Z</time>
      </trkpt>
      <trkpt lat="41.166034" lon="-6.643289">
        <ele>717.061</ele>
        <time>2018-07-24T11:18:54Z</time>
      </trkpt>
      <trkpt lat="41.166012" lon="-6.64331">
        <ele>717.174</ele>
        <time>2018-07-24T11:18:55Z</time>
      </trkpt>
      <trkpt lat="41.165965" lon="-6.643363">
        <ele>717.343</ele>
        <time>2018-07-24T11:18:57Z</time>
      </trkpt>
      <trkpt lat="41.165943" lon="-6.643388">
        <ele>717.512</ele>
        <time>2018-07-24T11:18:58Z</time>
      </trkpt>
      <trkpt lat="41.165903" lon="-6.643439">
        <ele>717.624</ele>
        <time>2018-07-24T11:19:00Z</time>
      </trkpt>
      <trkpt lat="41.165885" lon="-6.64346">
        <ele>717.887</ele>
        <time>2018-07-24T11:19:01Z</time>
      </trkpt>
      <trkpt lat="41.165834" lon="-6.643508">
        <ele>718.538</ele>
        <time>2018-07-24T11:19:03Z</time>
      </trkpt>
      <trkpt lat="41.165781" lon="-6.643563">
        <ele>719.292</ele>
        <time>2018-07-24T11:19:05Z</time>
      </trkpt>
      <trkpt lat="41.165756" lon="-6.643594">
        <ele>719.511</ele>
        <time>2018-07-24T11:19:06Z</time>
      </trkpt>
      <trkpt lat="41.165731" lon="-6.643624">
        <ele>719.583</ele>
        <time>2018-07-24T11:19:07Z</time>
      </trkpt>
      <trkpt lat="41.165708" lon="-6.643653">
        <ele>719.724</ele>
        <time>2018-07-24T11:19:08Z</time>
      </trkpt>
      <trkpt lat="41.165683" lon="-6.643687">
        <ele>719.998</ele>
        <time>2018-07-24T11:19:09Z</time>
      </trkpt>
      <trkpt lat="41.165628" lon="-6.643741">
        <ele>720.129</ele>
        <time>2018-07-24T11:19:11Z</time>
      </trkpt>
      <trkpt lat="41.165604" lon="-6.643769">
        <ele>720.319</ele>
        <time>2018-07-24T11:19:12Z</time>
      </trkpt>
      <trkpt lat="41.165581" lon="-6.643797">
        <ele>720.442</ele>
        <time>2018-07-24T11:19:13Z</time>
      </trkpt>
      <trkpt lat="41.165559" lon="-6.643821">
        <ele>720.623</ele>
        <time>2018-07-24T11:19:14Z</time>
      </trkpt>
      <trkpt lat="41.165509" lon="-6.643853">
        <ele>720.682</ele>
        <time>2018-07-24T11:19:16Z</time>
      </trkpt>
      <trkpt lat="41.165468" lon="-6.643888">
        <ele>720.798</ele>
        <time>2018-07-24T11:19:18Z</time>
      </trkpt>
      <trkpt lat="41.165447" lon="-6.643905">
        <ele>720.964</ele>
        <time>2018-07-24T11:19:19Z</time>
      </trkpt>
      <trkpt lat="41.165416" lon="-6.643936">
        <ele>721.073</ele>
        <time>2018-07-24T11:19:21Z</time>
      </trkpt>
      <trkpt lat="41.165384" lon="-6.643965">
        <ele>721.18</ele>
        <time>2018-07-24T11:19:23Z</time>
      </trkpt>
      <trkpt lat="41.16534" lon="-6.644026">
        <ele>721.335</ele>
        <time>2018-07-24T11:19:26Z</time>
      </trkpt>
      <trkpt lat="41.165312" lon="-6.644092">
        <ele>721.435</ele>
        <time>2018-07-24T11:19:29Z</time>
      </trkpt>
      <trkpt lat="41.1653" lon="-6.644118">
        <ele>721.527</ele>
        <time>2018-07-24T11:19:31Z</time>
      </trkpt>
      <trkpt lat="41.165285" lon="-6.644176">
        <ele>721.573</ele>
        <time>2018-07-24T11:19:36Z</time>
      </trkpt>
      <trkpt lat="41.165285" lon="-6.644176">
        <ele>721.71</ele>
        <time>2018-07-24T11:19:44Z</time>
      </trkpt>
      <trkpt lat="41.165285" lon="-6.644176">
        <ele>721.754</ele>
        <time>2018-07-24T11:20:40Z</time>
      </trkpt>
      <trkpt lat="41.165273" lon="-6.644201">
        <ele>721.798</ele>
        <time>2018-07-24T11:20:40Z</time>
      </trkpt>
      <trkpt lat="41.165303" lon="-6.644267">
        <ele>721.885</ele>
        <time>2018-07-24T11:20:55Z</time>
      </trkpt>
      <trkpt lat="41.165306" lon="-6.644328">
        <ele>721.971</ele>
        <time>2018-07-24T11:20:58Z</time>
      </trkpt>
      <trkpt lat="41.165309" lon="-6.644364">
        <ele>722.1</ele>
        <time>2018-07-24T11:20:59Z</time>
      </trkpt>
      <trkpt lat="41.165307" lon="-6.644424">
        <ele>722.233</ele>
        <time>2018-07-24T11:21:01Z</time>
      </trkpt>
      <trkpt lat="41.165288" lon="-6.644513">
        <ele>722.366</ele>
        <time>2018-07-24T11:21:05Z</time>
      </trkpt>
      <trkpt lat="41.165278" lon="-6.644555">
        <ele>722.457</ele>
        <time>2018-07-24T11:21:07Z</time>
      </trkpt>
      <trkpt lat="41.165275" lon="-6.644637">
        <ele>722.502</ele>
        <time>2018-07-24T11:21:10Z</time>
      </trkpt>
      <trkpt lat="41.16528" lon="-6.644699">
        <ele>722.598</ele>
        <time>2018-07-24T11:21:12Z</time>
      </trkpt>
      <trkpt lat="41.165261" lon="-6.644781">
        <ele>722.746</ele>
        <time>2018-07-24T11:21:15Z</time>
      </trkpt>
      <trkpt lat="41.165254" lon="-6.644812">
        <ele>722.9</ele>
        <time>2018-07-24T11:21:16Z</time>
      </trkpt>
      <trkpt lat="41.165246" lon="-6.644873">
        <ele>723.011</ele>
        <time>2018-07-24T11:21:18Z</time>
      </trkpt>
      <trkpt lat="41.165221" lon="-6.644954">
        <ele>723.122</ele>
        <time>2018-07-24T11:21:21Z</time>
      </trkpt>
      <trkpt lat="41.16521" lon="-6.645017">
        <ele>723.233</ele>
        <time>2018-07-24T11:21:23Z</time>
      </trkpt>
      <trkpt lat="41.165199" lon="-6.645073">
        <ele>723.29</ele>
        <time>2018-07-24T11:21:25Z</time>
      </trkpt>
      <trkpt lat="41.165174" lon="-6.645137">
        <ele>723.351</ele>
        <time>2018-07-24T11:21:28Z</time>
      </trkpt>
      <trkpt lat="41.165144" lon="-6.645186">
        <ele>723.476</ele>
        <time>2018-07-24T11:21:30Z</time>
      </trkpt>
      <trkpt lat="41.165118" lon="-6.645264">
        <ele>723.605</ele>
        <time>2018-07-24T11:21:32Z</time>
      </trkpt>
      <trkpt lat="41.165107" lon="-6.645299">
        <ele>723.816</ele>
        <time>2018-07-24T11:21:33Z</time>
      </trkpt>
      <trkpt lat="41.165073" lon="-6.645366">
        <ele>723.965</ele>
        <time>2018-07-24T11:21:36Z</time>
      </trkpt>
      <trkpt lat="41.165055" lon="-6.645403">
        <ele>724.111</ele>
        <time>2018-07-24T11:21:37Z</time>
      </trkpt>
      <trkpt lat="41.165043" lon="-6.645432">
        <ele>724.257</ele>
        <time>2018-07-24T11:21:38Z</time>
      </trkpt>
      <trkpt lat="41.165015" lon="-6.645481">
        <ele>724.33</ele>
        <time>2018-07-24T11:21:40Z</time>
      </trkpt>
      <trkpt lat="41.16499" lon="-6.645526">
        <ele>724.4</ele>
        <time>2018-07-24T11:21:42Z</time>
      </trkpt>
      <trkpt lat="41.164959" lon="-6.645587">
        <ele>724.472</ele>
        <time>2018-07-24T11:21:45Z</time>
      </trkpt>
      <trkpt lat="41.164933" lon="-6.645648">
        <ele>724.544</ele>
        <time>2018-07-24T11:21:48Z</time>
      </trkpt>
      <trkpt lat="41.164911" lon="-6.645724">
        <ele>724.616</ele>
        <time>2018-07-24T11:21:51Z</time>
      </trkpt>
      <trkpt lat="41.164885" lon="-6.645785">
        <ele>724.687</ele>
        <time>2018-07-24T11:21:53Z</time>
      </trkpt>
      <trkpt lat="41.164872" lon="-6.645812">
        <ele>724.758</ele>
        <time>2018-07-24T11:21:54Z</time>
      </trkpt>
      <trkpt lat="41.164856" lon="-6.645881">
        <ele>724.9</ele>
        <time>2018-07-24T11:21:56Z</time>
      </trkpt>
      <trkpt lat="41.164826" lon="-6.645941">
        <ele>725.111</ele>
        <time>2018-07-24T11:21:59Z</time>
      </trkpt>
      <trkpt lat="41.164792" lon="-6.646021">
        <ele>725.253</ele>
        <time>2018-07-24T11:22:02Z</time>
      </trkpt>
      <trkpt lat="41.164776" lon="-6.646078">
        <ele>725.464</ele>
        <time>2018-07-24T11:22:04Z</time>
      </trkpt>
      <trkpt lat="41.164762" lon="-6.64614">
        <ele>725.534</ele>
        <time>2018-07-24T11:22:06Z</time>
      </trkpt>
      <trkpt lat="41.164747" lon="-6.646191">
        <ele>725.669</ele>
        <time>2018-07-24T11:22:08Z</time>
      </trkpt>
      <trkpt lat="41.164736" lon="-6.646224">
        <ele>725.806</ele>
        <time>2018-07-24T11:22:09Z</time>
      </trkpt>
      <trkpt lat="41.164725" lon="-6.646262">
        <ele>726.01</ele>
        <time>2018-07-24T11:22:10Z</time>
      </trkpt>
      <trkpt lat="41.16471" lon="-6.646317">
        <ele>726.08</ele>
        <time>2018-07-24T11:22:12Z</time>
      </trkpt>
      <trkpt lat="41.164688" lon="-6.646384">
        <ele>726.219</ele>
        <time>2018-07-24T11:22:14Z</time>
      </trkpt>
      <trkpt lat="41.164666" lon="-6.646486">
        <ele>726.428</ele>
        <time>2018-07-24T11:22:17Z</time>
      </trkpt>
      <trkpt lat="41.164656" lon="-6.646532">
        <ele>726.63</ele>
        <time>2018-07-24T11:22:19Z</time>
      </trkpt>
      <trkpt lat="41.164636" lon="-6.646593">
        <ele>726.766</ele>
        <time>2018-07-24T11:22:21Z</time>
      </trkpt>
      <trkpt lat="41.164622" lon="-6.646642">
        <ele>726.903</ele>
        <time>2018-07-24T11:22:23Z</time>
      </trkpt>
      <trkpt lat="41.164611" lon="-6.646672">
        <ele>727.04</ele>
        <time>2018-07-24T11:22:24Z</time>
      </trkpt>
      <trkpt lat="41.1646" lon="-6.646705">
        <ele>727.109</ele>
        <time>2018-07-24T11:22:25Z</time>
      </trkpt>
      <trkpt lat="41.164591" lon="-6.646738">
        <ele>727.179</ele>
        <time>2018-07-24T11:22:26Z</time>
      </trkpt>
      <trkpt lat="41.164581" lon="-6.646779">
        <ele>727.249</ele>
        <time>2018-07-24T11:22:27Z</time>
      </trkpt>
      <trkpt lat="41.164573" lon="-6.646822">
        <ele>727.318</ele>
        <time>2018-07-24T11:22:28Z</time>
      </trkpt>
      <trkpt lat="41.164567" lon="-6.646854">
        <ele>727.458</ele>
        <time>2018-07-24T11:22:29Z</time>
      </trkpt>
      <trkpt lat="41.164564" lon="-6.646887">
        <ele>727.528</ele>
        <time>2018-07-24T11:22:30Z</time>
      </trkpt>
      <trkpt lat="41.164549" lon="-6.646954">
        <ele>727.667</ele>
        <time>2018-07-24T11:22:32Z</time>
      </trkpt>
      <trkpt lat="41.164527" lon="-6.647038">
        <ele>727.738</ele>
        <time>2018-07-24T11:22:35Z</time>
      </trkpt>
      <trkpt lat="41.164518" lon="-6.647105">
        <ele>727.881</ele>
        <time>2018-07-24T11:22:37Z</time>
      </trkpt>
      <trkpt lat="41.164507" lon="-6.647182">
        <ele>727.953</ele>
        <time>2018-07-24T11:22:40Z</time>
      </trkpt>
      <trkpt lat="41.164503" lon="-6.647213">
        <ele>728.096</ele>
        <time>2018-07-24T11:22:41Z</time>
      </trkpt>
      <trkpt lat="41.164497" lon="-6.647266">
        <ele>728.167</ele>
        <time>2018-07-24T11:22:43Z</time>
      </trkpt>
      <trkpt lat="41.164491" lon="-6.647318">
        <ele>728.239</ele>
        <time>2018-07-24T11:22:45Z</time>
      </trkpt>
      <trkpt lat="41.164476" lon="-6.647412">
        <ele>728.313</ele>
        <time>2018-07-24T11:22:48Z</time>
      </trkpt>
      <trkpt lat="41.164472" lon="-6.647443">
        <ele>728.387</ele>
        <time>2018-07-24T11:22:49Z</time>
      </trkpt>
      <trkpt lat="41.164468" lon="-6.647499">
        <ele>728.532</ele>
        <time>2018-07-24T11:22:51Z</time>
      </trkpt>
      <trkpt lat="41.164455" lon="-6.647575">
        <ele>728.752</ele>
        <time>2018-07-24T11:22:54Z</time>
      </trkpt>
      <trkpt lat="41.164463" lon="-6.647652">
        <ele>728.825</ele>
        <time>2018-07-24T11:22:57Z</time>
      </trkpt>
      <trkpt lat="41.164463" lon="-6.647715">
        <ele>728.969</ele>
        <time>2018-07-24T11:22:59Z</time>
      </trkpt>
      <trkpt lat="41.164467" lon="-6.647784">
        <ele>729.041</ele>
        <time>2018-07-24T11:23:01Z</time>
      </trkpt>
      <trkpt lat="41.164472" lon="-6.647838">
        <ele>729.189</ele>
        <time>2018-07-24T11:23:03Z</time>
      </trkpt>
      <trkpt lat="41.164477" lon="-6.647872">
        <ele>729.265</ele>
        <time>2018-07-24T11:23:04Z</time>
      </trkpt>
      <trkpt lat="41.164482" lon="-6.647914">
        <ele>729.497</ele>
        <time>2018-07-24T11:23:05Z</time>
      </trkpt>
      <trkpt lat="41.164488" lon="-6.647945">
        <ele>729.728</ele>
        <time>2018-07-24T11:23:06Z</time>
      </trkpt>
      <trkpt lat="41.164494" lon="-6.647986">
        <ele>729.881</ele>
        <time>2018-07-24T11:23:07Z</time>
      </trkpt>
      <trkpt lat="41.1645" lon="-6.648036">
        <ele>729.958</ele>
        <time>2018-07-24T11:23:09Z</time>
      </trkpt>
      <trkpt lat="41.164505" lon="-6.648068">
        <ele>730.186</ele>
        <time>2018-07-24T11:23:10Z</time>
      </trkpt>
      <trkpt lat="41.16451" lon="-6.648129">
        <ele>730.263</ele>
        <time>2018-07-24T11:23:12Z</time>
      </trkpt>
      <trkpt lat="41.164513" lon="-6.64817">
        <ele>730.339</ele>
        <time>2018-07-24T11:23:13Z</time>
      </trkpt>
      <trkpt lat="41.164517" lon="-6.648238">
        <ele>730.415</ele>
        <time>2018-07-24T11:23:15Z</time>
      </trkpt>
      <trkpt lat="41.164522" lon="-6.648278">
        <ele>730.49</ele>
        <time>2018-07-24T11:23:16Z</time>
      </trkpt>
      <trkpt lat="41.164537" lon="-6.648346">
        <ele>730.564</ele>
        <time>2018-07-24T11:23:18Z</time>
      </trkpt>
      <trkpt lat="41.164543" lon="-6.64838">
        <ele>730.639</ele>
        <time>2018-07-24T11:23:19Z</time>
      </trkpt>
      <trkpt lat="41.164548" lon="-6.648416">
        <ele>730.784</ele>
        <time>2018-07-24T11:23:20Z</time>
      </trkpt>
      <trkpt lat="41.164554" lon="-6.648454">
        <ele>730.995</ele>
        <time>2018-07-24T11:23:21Z</time>
      </trkpt>
      <trkpt lat="41.16456" lon="-6.648484">
        <ele>731.203</ele>
        <time>2018-07-24T11:23:22Z</time>
      </trkpt>
      <trkpt lat="41.164566" lon="-6.648539">
        <ele>731.408</ele>
        <time>2018-07-24T11:23:24Z</time>
      </trkpt>
      <trkpt lat="41.164578" lon="-6.648623">
        <ele>731.61</ele>
        <time>2018-07-24T11:23:27Z</time>
      </trkpt>
      <trkpt lat="41.164585" lon="-6.648658">
        <ele>731.813</ele>
        <time>2018-07-24T11:23:28Z</time>
      </trkpt>
      <trkpt lat="41.164594" lon="-6.648715">
        <ele>732.015</ele>
        <time>2018-07-24T11:23:30Z</time>
      </trkpt>
      <trkpt lat="41.164599" lon="-6.648745">
        <ele>732.145</ele>
        <time>2018-07-24T11:23:31Z</time>
      </trkpt>
      <trkpt lat="41.164607" lon="-6.6488">
        <ele>732.209</ele>
        <time>2018-07-24T11:23:33Z</time>
      </trkpt>
      <trkpt lat="41.164612" lon="-6.648833">
        <ele>732.339</ele>
        <time>2018-07-24T11:23:34Z</time>
      </trkpt>
      <trkpt lat="41.164619" lon="-6.648922">
        <ele>732.469</ele>
        <time>2018-07-24T11:23:37Z</time>
      </trkpt>
      <trkpt lat="41.164649" lon="-6.649">
        <ele>732.594</ele>
        <time>2018-07-24T11:23:40Z</time>
      </trkpt>
      <trkpt lat="41.164664" lon="-6.649073">
        <ele>732.787</ele>
        <time>2018-07-24T11:23:42Z</time>
      </trkpt>
      <trkpt lat="41.164671" lon="-6.649103">
        <ele>732.852</ele>
        <time>2018-07-24T11:23:43Z</time>
      </trkpt>
      <trkpt lat="41.164684" lon="-6.649184">
        <ele>732.915</ele>
        <time>2018-07-24T11:23:46Z</time>
      </trkpt>
      <trkpt lat="41.164688" lon="-6.649214">
        <ele>732.978</ele>
        <time>2018-07-24T11:23:47Z</time>
      </trkpt>
      <trkpt lat="41.164692" lon="-6.649248">
        <ele>733.171</ele>
        <time>2018-07-24T11:23:48Z</time>
      </trkpt>
      <trkpt lat="41.164698" lon="-6.649278">
        <ele>733.236</ele>
        <time>2018-07-24T11:23:49Z</time>
      </trkpt>
      <trkpt lat="41.164705" lon="-6.649309">
        <ele>733.367</ele>
        <time>2018-07-24T11:23:50Z</time>
      </trkpt>
      <trkpt lat="41.164712" lon="-6.649339">
        <ele>733.433</ele>
        <time>2018-07-24T11:23:51Z</time>
      </trkpt>
      <trkpt lat="41.164718" lon="-6.649368">
        <ele>733.498</ele>
        <time>2018-07-24T11:23:52Z</time>
      </trkpt>
      <trkpt lat="41.164732" lon="-6.649421">
        <ele>733.7</ele>
        <time>2018-07-24T11:23:54Z</time>
      </trkpt>
      <trkpt lat="41.164739" lon="-6.649514">
        <ele>733.834</ele>
        <time>2018-07-24T11:23:57Z</time>
      </trkpt>
      <trkpt lat="41.16475" lon="-6.64959">
        <ele>733.9</ele>
        <time>2018-07-24T11:24:00Z</time>
      </trkpt>
      <trkpt lat="41.164757" lon="-6.649669">
        <ele>733.966</ele>
        <time>2018-07-24T11:24:03Z</time>
      </trkpt>
      <trkpt lat="41.164769" lon="-6.649753">
        <ele>734.032</ele>
        <time>2018-07-24T11:24:06Z</time>
      </trkpt>
      <trkpt lat="41.16478" lon="-6.649832">
        <ele>734.098</ele>
        <time>2018-07-24T11:24:09Z</time>
      </trkpt>
      <trkpt lat="41.164781" lon="-6.649921">
        <ele>734.163</ele>
        <time>2018-07-24T11:24:12Z</time>
      </trkpt>
      <trkpt lat="41.164781" lon="-6.649971">
        <ele>734.228</ele>
        <time>2018-07-24T11:24:14Z</time>
      </trkpt>
      <trkpt lat="41.164783" lon="-6.650006">
        <ele>734.359</ele>
        <time>2018-07-24T11:24:15Z</time>
      </trkpt>
      <trkpt lat="41.164789" lon="-6.650071">
        <ele>734.487</ele>
        <time>2018-07-24T11:24:17Z</time>
      </trkpt>
      <trkpt lat="41.164798" lon="-6.65013">
        <ele>734.551</ele>
        <time>2018-07-24T11:24:19Z</time>
      </trkpt>
      <trkpt lat="41.164797" lon="-6.650195">
        <ele>734.677</ele>
        <time>2018-07-24T11:24:21Z</time>
      </trkpt>
      <trkpt lat="41.164791" lon="-6.650288">
        <ele>735.302</ele>
        <time>2018-07-24T11:24:24Z</time>
      </trkpt>
      <trkpt lat="41.164791" lon="-6.650321">
        <ele>735.431</ele>
        <time>2018-07-24T11:24:25Z</time>
      </trkpt>
      <trkpt lat="41.164789" lon="-6.650353">
        <ele>735.583</ele>
        <time>2018-07-24T11:24:26Z</time>
      </trkpt>
      <trkpt lat="41.164785" lon="-6.650388">
        <ele>736.432</ele>
        <time>2018-07-24T11:24:27Z</time>
      </trkpt>
      <trkpt lat="41.164782" lon="-6.650477">
        <ele>736.507</ele>
        <time>2018-07-24T11:24:30Z</time>
      </trkpt>
      <trkpt lat="41.164783" lon="-6.650514">
        <ele>737.311</ele>
        <time>2018-07-24T11:24:31Z</time>
      </trkpt>
      <trkpt lat="41.164776" lon="-6.65058">
        <ele>738.025</ele>
        <time>2018-07-24T11:24:33Z</time>
      </trkpt>
      <trkpt lat="41.164774" lon="-6.65061">
        <ele>738.687</ele>
        <time>2018-07-24T11:24:34Z</time>
      </trkpt>
      <trkpt lat="41.164772" lon="-6.65064">
        <ele>739.294</ele>
        <time>2018-07-24T11:24:35Z</time>
      </trkpt>
      <trkpt lat="41.164771" lon="-6.650734">
        <ele>739.837</ele>
        <time>2018-07-24T11:24:38Z</time>
      </trkpt>
      <trkpt lat="41.164767" lon="-6.650799">
        <ele>740.324</ele>
        <time>2018-07-24T11:24:40Z</time>
      </trkpt>
      <trkpt lat="41.164763" lon="-6.650831">
        <ele>740.762</ele>
        <time>2018-07-24T11:24:41Z</time>
      </trkpt>
      <trkpt lat="41.16476" lon="-6.650865">
        <ele>741.167</ele>
        <time>2018-07-24T11:24:42Z</time>
      </trkpt>
      <trkpt lat="41.164758" lon="-6.650901">
        <ele>741.551</ele>
        <time>2018-07-24T11:24:43Z</time>
      </trkpt>
      <trkpt lat="41.164755" lon="-6.650939">
        <ele>741.877</ele>
        <time>2018-07-24T11:24:44Z</time>
      </trkpt>
      <trkpt lat="41.164754" lon="-6.650983">
        <ele>742.169</ele>
        <time>2018-07-24T11:24:45Z</time>
      </trkpt>
      <trkpt lat="41.164749" lon="-6.651028">
        <ele>742.722</ele>
        <time>2018-07-24T11:24:46Z</time>
      </trkpt>
      <trkpt lat="41.164735" lon="-6.651112">
        <ele>743.025</ele>
        <time>2018-07-24T11:24:48Z</time>
      </trkpt>
      <trkpt lat="41.164727" lon="-6.651206">
        <ele>743.34</ele>
        <time>2018-07-24T11:24:50Z</time>
      </trkpt>
      <trkpt lat="41.164725" lon="-6.651249">
        <ele>743.656</ele>
        <time>2018-07-24T11:24:51Z</time>
      </trkpt>
      <trkpt lat="41.164719" lon="-6.651343">
        <ele>743.948</ele>
        <time>2018-07-24T11:24:53Z</time>
      </trkpt>
      <trkpt lat="41.164717" lon="-6.651389">
        <ele>744.224</ele>
        <time>2018-07-24T11:24:54Z</time>
      </trkpt>
      <trkpt lat="41.164725" lon="-6.651484">
        <ele>744.479</ele>
        <time>2018-07-24T11:24:56Z</time>
      </trkpt>
      <trkpt lat="41.164719" lon="-6.651569">
        <ele>744.73</ele>
        <time>2018-07-24T11:24:58Z</time>
      </trkpt>
      <trkpt lat="41.164718" lon="-6.651612">
        <ele>745.184</ele>
        <time>2018-07-24T11:24:59Z</time>
      </trkpt>
      <trkpt lat="41.164717" lon="-6.651661">
        <ele>745.407</ele>
        <time>2018-07-24T11:25:00Z</time>
      </trkpt>
      <trkpt lat="41.164714" lon="-6.651708">
        <ele>745.648</ele>
        <time>2018-07-24T11:25:01Z</time>
      </trkpt>
      <trkpt lat="41.16471" lon="-6.65176">
        <ele>745.888</ele>
        <time>2018-07-24T11:25:02Z</time>
      </trkpt>
      <trkpt lat="41.164705" lon="-6.651814">
        <ele>746.098</ele>
        <time>2018-07-24T11:25:03Z</time>
      </trkpt>
      <trkpt lat="41.164701" lon="-6.651869">
        <ele>746.307</ele>
        <time>2018-07-24T11:25:04Z</time>
      </trkpt>
      <trkpt lat="41.164698" lon="-6.651922">
        <ele>746.503</ele>
        <time>2018-07-24T11:25:05Z</time>
      </trkpt>
      <trkpt lat="41.164694" lon="-6.651974">
        <ele>746.694</ele>
        <time>2018-07-24T11:25:06Z</time>
      </trkpt>
      <trkpt lat="41.16469" lon="-6.652025">
        <ele>746.865</ele>
        <time>2018-07-24T11:25:07Z</time>
      </trkpt>
      <trkpt lat="41.164685" lon="-6.652077">
        <ele>747.011</ele>
        <time>2018-07-24T11:25:08Z</time>
      </trkpt>
      <trkpt lat="41.16468" lon="-6.65213">
        <ele>747.16</ele>
        <time>2018-07-24T11:25:09Z</time>
      </trkpt>
      <trkpt lat="41.164674" lon="-6.652188">
        <ele>747.285</ele>
        <time>2018-07-24T11:25:10Z</time>
      </trkpt>
      <trkpt lat="41.164669" lon="-6.652246">
        <ele>747.507</ele>
        <time>2018-07-24T11:25:11Z</time>
      </trkpt>
      <trkpt lat="41.164657" lon="-6.652364">
        <ele>747.548</ele>
        <time>2018-07-24T11:25:13Z</time>
      </trkpt>
      <trkpt lat="41.164651" lon="-6.652423">
        <ele>747.601</ele>
        <time>2018-07-24T11:25:14Z</time>
      </trkpt>
      <trkpt lat="41.164643" lon="-6.652485">
        <ele>747.652</ele>
        <time>2018-07-24T11:25:15Z</time>
      </trkpt>
      <trkpt lat="41.164636" lon="-6.652555">
        <ele>747.825</ele>
        <time>2018-07-24T11:25:16Z</time>
      </trkpt>
      <trkpt lat="41.164631" lon="-6.652623">
        <ele>747.878</ele>
        <time>2018-07-24T11:25:17Z</time>
      </trkpt>
      <trkpt lat="41.164625" lon="-6.652695">
        <ele>747.95</ele>
        <time>2018-07-24T11:25:18Z</time>
      </trkpt>
      <trkpt lat="41.164619" lon="-6.652769">
        <ele>748.164</ele>
        <time>2018-07-24T11:25:19Z</time>
      </trkpt>
      <trkpt lat="41.164612" lon="-6.652843">
        <ele>748.229</ele>
        <time>2018-07-24T11:25:20Z</time>
      </trkpt>
      <trkpt lat="41.164594" lon="-6.652995">
        <ele>748.348</ele>
        <time>2018-07-24T11:25:22Z</time>
      </trkpt>
      <trkpt lat="41.164585" lon="-6.653072">
        <ele>748.445</ele>
        <time>2018-07-24T11:25:23Z</time>
      </trkpt>
      <trkpt lat="41.16458" lon="-6.653155">
        <ele>748.528</ele>
        <time>2018-07-24T11:25:24Z</time>
      </trkpt>
      <trkpt lat="41.164575" lon="-6.653239">
        <ele>748.627</ele>
        <time>2018-07-24T11:25:25Z</time>
      </trkpt>
      <trkpt lat="41.164568" lon="-6.653325">
        <ele>748.665</ele>
        <time>2018-07-24T11:25:26Z</time>
      </trkpt>
      <trkpt lat="41.164557" lon="-6.653417">
        <ele>748.649</ele>
        <time>2018-07-24T11:25:27Z</time>
      </trkpt>
      <trkpt lat="41.164547" lon="-6.653506">
        <ele>748.613</ele>
        <time>2018-07-24T11:25:28Z</time>
      </trkpt>
      <trkpt lat="41.164536" lon="-6.653596">
        <ele>748.606</ele>
        <time>2018-07-24T11:25:29Z</time>
      </trkpt>
      <trkpt lat="41.164529" lon="-6.653693">
        <ele>748.618</ele>
        <time>2018-07-24T11:25:30Z</time>
      </trkpt>
      <trkpt lat="41.164526" lon="-6.653785">
        <ele>748.715</ele>
        <time>2018-07-24T11:25:31Z</time>
      </trkpt>
      <trkpt lat="41.164521" lon="-6.653874">
        <ele>748.869</ele>
        <time>2018-07-24T11:25:32Z</time>
      </trkpt>
      <trkpt lat="41.164518" lon="-6.653962">
        <ele>748.991</ele>
        <time>2018-07-24T11:25:33Z</time>
      </trkpt>
      <trkpt lat="41.164512" lon="-6.654141">
        <ele>749.066</ele>
        <time>2018-07-24T11:25:35Z</time>
      </trkpt>
      <trkpt lat="41.164512" lon="-6.65423">
        <ele>749.116</ele>
        <time>2018-07-24T11:25:36Z</time>
      </trkpt>
      <trkpt lat="41.16451" lon="-6.654318">
        <ele>749.149</ele>
        <time>2018-07-24T11:25:37Z</time>
      </trkpt>
      <trkpt lat="41.164509" lon="-6.654408">
        <ele>749.29</ele>
        <time>2018-07-24T11:25:38Z</time>
      </trkpt>
      <trkpt lat="41.164509" lon="-6.654673">
        <ele>749.406</ele>
        <time>2018-07-24T11:25:41Z</time>
      </trkpt>
      <trkpt lat="41.164508" lon="-6.654758">
        <ele>749.457</ele>
        <time>2018-07-24T11:25:42Z</time>
      </trkpt>
      <trkpt lat="41.164505" lon="-6.654846">
        <ele>749.511</ele>
        <time>2018-07-24T11:25:43Z</time>
      </trkpt>
      <trkpt lat="41.164507" lon="-6.655114">
        <ele>749.556</ele>
        <time>2018-07-24T11:25:46Z</time>
      </trkpt>
      <trkpt lat="41.164508" lon="-6.655201">
        <ele>749.643</ele>
        <time>2018-07-24T11:25:47Z</time>
      </trkpt>
      <trkpt lat="41.164508" lon="-6.655288">
        <ele>749.811</ele>
        <time>2018-07-24T11:25:48Z</time>
      </trkpt>
      <trkpt lat="41.164509" lon="-6.655374">
        <ele>749.962</ele>
        <time>2018-07-24T11:25:49Z</time>
      </trkpt>
      <trkpt lat="41.164508" lon="-6.655456">
        <ele>750.091</ele>
        <time>2018-07-24T11:25:50Z</time>
      </trkpt>
      <trkpt lat="41.164506" lon="-6.655622">
        <ele>750.145</ele>
        <time>2018-07-24T11:25:52Z</time>
      </trkpt>
      <trkpt lat="41.164506" lon="-6.655709">
        <ele>750.17</ele>
        <time>2018-07-24T11:25:53Z</time>
      </trkpt>
      <trkpt lat="41.16451" lon="-6.655794">
        <ele>750.194</ele>
        <time>2018-07-24T11:25:54Z</time>
      </trkpt>
      <trkpt lat="41.164514" lon="-6.655875">
        <ele>750.192</ele>
        <time>2018-07-24T11:25:55Z</time>
      </trkpt>
      <trkpt lat="41.164517" lon="-6.655951">
        <ele>750.193</ele>
        <time>2018-07-24T11:25:56Z</time>
      </trkpt>
      <trkpt lat="41.164518" lon="-6.656028">
        <ele>750.232</ele>
        <time>2018-07-24T11:25:57Z</time>
      </trkpt>
      <trkpt lat="41.164518" lon="-6.656098">
        <ele>750.25</ele>
        <time>2018-07-24T11:25:58Z</time>
      </trkpt>
      <trkpt lat="41.164519" lon="-6.656171">
        <ele>750.245</ele>
        <time>2018-07-24T11:25:59Z</time>
      </trkpt>
      <trkpt lat="41.164519" lon="-6.656245">
        <ele>750.301</ele>
        <time>2018-07-24T11:26:00Z</time>
      </trkpt>
      <trkpt lat="41.164525" lon="-6.656383">
        <ele>750.358</ele>
        <time>2018-07-24T11:26:02Z</time>
      </trkpt>
      <trkpt lat="41.164526" lon="-6.656449">
        <ele>750.433</ele>
        <time>2018-07-24T11:26:03Z</time>
      </trkpt>
      <trkpt lat="41.164527" lon="-6.656516">
        <ele>750.558</ele>
        <time>2018-07-24T11:26:04Z</time>
      </trkpt>
      <trkpt lat="41.164528" lon="-6.656578">
        <ele>750.672</ele>
        <time>2018-07-24T11:26:05Z</time>
      </trkpt>
      <trkpt lat="41.164529" lon="-6.656643">
        <ele>750.755</ele>
        <time>2018-07-24T11:26:06Z</time>
      </trkpt>
      <trkpt lat="41.16453" lon="-6.656705">
        <ele>750.838</ele>
        <time>2018-07-24T11:26:07Z</time>
      </trkpt>
      <trkpt lat="41.164533" lon="-6.656765">
        <ele>750.921</ele>
        <time>2018-07-24T11:26:08Z</time>
      </trkpt>
      <trkpt lat="41.164534" lon="-6.656832">
        <ele>750.971</ele>
        <time>2018-07-24T11:26:09Z</time>
      </trkpt>
      <trkpt lat="41.164533" lon="-6.656892">
        <ele>750.985</ele>
        <time>2018-07-24T11:26:10Z</time>
      </trkpt>
      <trkpt lat="41.164534" lon="-6.656949">
        <ele>751.018</ele>
        <time>2018-07-24T11:26:11Z</time>
      </trkpt>
      <trkpt lat="41.164538" lon="-6.657008">
        <ele>751.036</ele>
        <time>2018-07-24T11:26:12Z</time>
      </trkpt>
      <trkpt lat="41.164541" lon="-6.657066">
        <ele>751.054</ele>
        <time>2018-07-24T11:26:13Z</time>
      </trkpt>
      <trkpt lat="41.164544" lon="-6.657125">
        <ele>751.07</ele>
        <time>2018-07-24T11:26:14Z</time>
      </trkpt>
      <trkpt lat="41.164545" lon="-6.657184">
        <ele>751.086</ele>
        <time>2018-07-24T11:26:15Z</time>
      </trkpt>
      <trkpt lat="41.164546" lon="-6.657243">
        <ele>751.1</ele>
        <time>2018-07-24T11:26:16Z</time>
      </trkpt>
      <trkpt lat="41.164549" lon="-6.657305">
        <ele>751.114</ele>
        <time>2018-07-24T11:26:17Z</time>
      </trkpt>
      <trkpt lat="41.164551" lon="-6.657365">
        <ele>751.129</ele>
        <time>2018-07-24T11:26:18Z</time>
      </trkpt>
      <trkpt lat="41.164551" lon="-6.657424">
        <ele>751.159</ele>
        <time>2018-07-24T11:26:19Z</time>
      </trkpt>
      <trkpt lat="41.164553" lon="-6.657484">
        <ele>751.174</ele>
        <time>2018-07-24T11:26:20Z</time>
      </trkpt>
      <trkpt lat="41.16456" lon="-6.657592">
        <ele>751.205</ele>
        <time>2018-07-24T11:26:22Z</time>
      </trkpt>
      <trkpt lat="41.164562" lon="-6.657648">
        <ele>751.234</ele>
        <time>2018-07-24T11:26:23Z</time>
      </trkpt>
      <trkpt lat="41.164563" lon="-6.657702">
        <ele>751.261</ele>
        <time>2018-07-24T11:26:24Z</time>
      </trkpt>
      <trkpt lat="41.164564" lon="-6.657755">
        <ele>751.302</ele>
        <time>2018-07-24T11:26:25Z</time>
      </trkpt>
      <trkpt lat="41.164564" lon="-6.657808">
        <ele>751.326</ele>
        <time>2018-07-24T11:26:26Z</time>
      </trkpt>
      <trkpt lat="41.164563" lon="-6.657864">
        <ele>751.348</ele>
        <time>2018-07-24T11:26:27Z</time>
      </trkpt>
      <trkpt lat="41.164563" lon="-6.657925">
        <ele>751.371</ele>
        <time>2018-07-24T11:26:28Z</time>
      </trkpt>
      <trkpt lat="41.164563" lon="-6.657985">
        <ele>751.395</ele>
        <time>2018-07-24T11:26:29Z</time>
      </trkpt>
      <trkpt lat="41.164563" lon="-6.658041">
        <ele>751.42</ele>
        <time>2018-07-24T11:26:30Z</time>
      </trkpt>
      <trkpt lat="41.164563" lon="-6.658101">
        <ele>751.442</ele>
        <time>2018-07-24T11:26:31Z</time>
      </trkpt>
      <trkpt lat="41.164562" lon="-6.658154">
        <ele>751.453</ele>
        <time>2018-07-24T11:26:32Z</time>
      </trkpt>
      <trkpt lat="41.164558" lon="-6.658258">
        <ele>751.474</ele>
        <time>2018-07-24T11:26:34Z</time>
      </trkpt>
      <trkpt lat="41.164556" lon="-6.658304">
        <ele>751.503</ele>
        <time>2018-07-24T11:26:35Z</time>
      </trkpt>
      <trkpt lat="41.164555" lon="-6.658347">
        <ele>751.526</ele>
        <time>2018-07-24T11:26:36Z</time>
      </trkpt>
      <trkpt lat="41.164554" lon="-6.658399">
        <ele>751.56</ele>
        <time>2018-07-24T11:26:37Z</time>
      </trkpt>
      <trkpt lat="41.164551" lon="-6.658438">
        <ele>751.584</ele>
        <time>2018-07-24T11:26:38Z</time>
      </trkpt>
      <trkpt lat="41.16455" lon="-6.658482">
        <ele>751.609</ele>
        <time>2018-07-24T11:26:39Z</time>
      </trkpt>
      <trkpt lat="41.164548" lon="-6.658523">
        <ele>751.648</ele>
        <time>2018-07-24T11:26:40Z</time>
      </trkpt>
      <trkpt lat="41.164546" lon="-6.658564">
        <ele>751.671</ele>
        <time>2018-07-24T11:26:41Z</time>
      </trkpt>
      <trkpt lat="41.16454" lon="-6.658634">
        <ele>751.706</ele>
        <time>2018-07-24T11:26:43Z</time>
      </trkpt>
      <trkpt lat="41.164539" lon="-6.658667">
        <ele>751.728</ele>
        <time>2018-07-24T11:26:44Z</time>
      </trkpt>
      <trkpt lat="41.164532" lon="-6.658744">
        <ele>751.738</ele>
        <time>2018-07-24T11:26:46Z</time>
      </trkpt>
      <trkpt lat="41.164528" lon="-6.658802">
        <ele>751.749</ele>
        <time>2018-07-24T11:26:48Z</time>
      </trkpt>
      <trkpt lat="41.164526" lon="-6.65886">
        <ele>751.771</ele>
        <time>2018-07-24T11:26:50Z</time>
      </trkpt>
      <trkpt lat="41.164512" lon="-6.658937">
        <ele>751.782</ele>
        <time>2018-07-24T11:26:53Z</time>
      </trkpt>
      <trkpt lat="41.164509" lon="-6.658998">
        <ele>751.793</ele>
        <time>2018-07-24T11:26:55Z</time>
      </trkpt>
      <trkpt lat="41.164508" lon="-6.659048">
        <ele>751.816</ele>
        <time>2018-07-24T11:26:57Z</time>
      </trkpt>
      <trkpt lat="41.164501" lon="-6.65911">
        <ele>751.828</ele>
        <time>2018-07-24T11:26:59Z</time>
      </trkpt>
      <trkpt lat="41.164494" lon="-6.659173">
        <ele>751.864</ele>
        <time>2018-07-24T11:27:01Z</time>
      </trkpt>
      <trkpt lat="41.164481" lon="-6.659234">
        <ele>751.875</ele>
        <time>2018-07-24T11:27:03Z</time>
      </trkpt>
      <trkpt lat="41.164473" lon="-6.659281">
        <ele>751.897</ele>
        <time>2018-07-24T11:27:05Z</time>
      </trkpt>
      <trkpt lat="41.164468" lon="-6.659311">
        <ele>751.909</ele>
        <time>2018-07-24T11:27:06Z</time>
      </trkpt>
      <trkpt lat="41.164466" lon="-6.659375">
        <ele>751.92</ele>
        <time>2018-07-24T11:27:08Z</time>
      </trkpt>
      <trkpt lat="41.164452" lon="-6.659453">
        <ele>751.932</ele>
        <time>2018-07-24T11:27:11Z</time>
      </trkpt>
      <trkpt lat="41.164439" lon="-6.659501">
        <ele>751.958</ele>
        <time>2018-07-24T11:27:13Z</time>
      </trkpt>
      <trkpt lat="41.164418" lon="-6.659569">
        <ele>751.97</ele>
        <time>2018-07-24T11:27:16Z</time>
      </trkpt>
      <trkpt lat="41.164404" lon="-6.65962">
        <ele>751.994</ele>
        <time>2018-07-24T11:27:18Z</time>
      </trkpt>
      <trkpt lat="41.164386" lon="-6.659681">
        <ele>752.005</ele>
        <time>2018-07-24T11:27:20Z</time>
      </trkpt>
      <trkpt lat="41.164372" lon="-6.659772">
        <ele>752.029</ele>
        <time>2018-07-24T11:27:23Z</time>
      </trkpt>
      <trkpt lat="41.16436" lon="-6.659832">
        <ele>752.053</ele>
        <time>2018-07-24T11:27:25Z</time>
      </trkpt>
      <trkpt lat="41.16433" lon="-6.659908">
        <ele>752.081</ele>
        <time>2018-07-24T11:27:28Z</time>
      </trkpt>
      <trkpt lat="41.164314" lon="-6.659969">
        <ele>752.094</ele>
        <time>2018-07-24T11:27:30Z</time>
      </trkpt>
      <trkpt lat="41.164305" lon="-6.660001">
        <ele>752.229</ele>
        <time>2018-07-24T11:27:31Z</time>
      </trkpt>
      <trkpt lat="41.164295" lon="-6.660033">
        <ele>752.24</ele>
        <time>2018-07-24T11:27:32Z</time>
      </trkpt>
      <trkpt lat="41.164278" lon="-6.660104">
        <ele>752.336</ele>
        <time>2018-07-24T11:27:34Z</time>
      </trkpt>
      <trkpt lat="41.164269" lon="-6.660142">
        <ele>752.425</ele>
        <time>2018-07-24T11:27:35Z</time>
      </trkpt>
      <trkpt lat="41.164259" lon="-6.660174">
        <ele>752.48</ele>
        <time>2018-07-24T11:27:36Z</time>
      </trkpt>
      <trkpt lat="41.164243" lon="-6.66024">
        <ele>752.484</ele>
        <time>2018-07-24T11:27:38Z</time>
      </trkpt>
      <trkpt lat="41.164234" lon="-6.660272">
        <ele>752.488</ele>
        <time>2018-07-24T11:27:39Z</time>
      </trkpt>
      <trkpt lat="41.164212" lon="-6.660371">
        <ele>752.492</ele>
        <time>2018-07-24T11:27:42Z</time>
      </trkpt>
      <trkpt lat="41.164204" lon="-6.660406">
        <ele>752.536</ele>
        <time>2018-07-24T11:27:43Z</time>
      </trkpt>
      <trkpt lat="41.164182" lon="-6.660472">
        <ele>752.571</ele>
        <time>2018-07-24T11:27:45Z</time>
      </trkpt>
      <trkpt lat="41.164173" lon="-6.660506">
        <ele>752.575</ele>
        <time>2018-07-24T11:27:46Z</time>
      </trkpt>
      <trkpt lat="41.164164" lon="-6.660539">
        <ele>752.578</ele>
        <time>2018-07-24T11:27:47Z</time>
      </trkpt>
      <trkpt lat="41.164155" lon="-6.660576">
        <ele>752.581</ele>
        <time>2018-07-24T11:27:48Z</time>
      </trkpt>
      <trkpt lat="41.16414" lon="-6.660659">
        <ele>752.609</ele>
        <time>2018-07-24T11:27:50Z</time>
      </trkpt>
      <trkpt lat="41.164131" lon="-6.660704">
        <ele>752.634</ele>
        <time>2018-07-24T11:27:51Z</time>
      </trkpt>
      <trkpt lat="41.164108" lon="-6.66078">
        <ele>752.647</ele>
        <time>2018-07-24T11:27:53Z</time>
      </trkpt>
      <trkpt lat="41.164096" lon="-6.660819">
        <ele>752.648</ele>
        <time>2018-07-24T11:27:54Z</time>
      </trkpt>
      <trkpt lat="41.164066" lon="-6.660888">
        <ele>752.651</ele>
        <time>2018-07-24T11:27:56Z</time>
      </trkpt>
      <trkpt lat="41.164044" lon="-6.660967">
        <ele>752.635</ele>
        <time>2018-07-24T11:27:58Z</time>
      </trkpt>
      <trkpt lat="41.16402" lon="-6.661049">
        <ele>752.617</ele>
        <time>2018-07-24T11:28:00Z</time>
      </trkpt>
      <trkpt lat="41.164008" lon="-6.661095">
        <ele>752.597</ele>
        <time>2018-07-24T11:28:01Z</time>
      </trkpt>
      <trkpt lat="41.163997" lon="-6.661143">
        <ele>752.582</ele>
        <time>2018-07-24T11:28:02Z</time>
      </trkpt>
      <trkpt lat="41.163988" lon="-6.661194">
        <ele>752.573</ele>
        <time>2018-07-24T11:28:03Z</time>
      </trkpt>
      <trkpt lat="41.163977" lon="-6.661244">
        <ele>752.566</ele>
        <time>2018-07-24T11:28:04Z</time>
      </trkpt>
      <trkpt lat="41.163963" lon="-6.661299">
        <ele>752.568</ele>
        <time>2018-07-24T11:28:05Z</time>
      </trkpt>
      <trkpt lat="41.163954" lon="-6.661351">
        <ele>752.568</ele>
        <time>2018-07-24T11:28:06Z</time>
      </trkpt>
      <trkpt lat="41.163945" lon="-6.6614">
        <ele>752.576</ele>
        <time>2018-07-24T11:28:07Z</time>
      </trkpt>
      <trkpt lat="41.163935" lon="-6.661451">
        <ele>752.578</ele>
        <time>2018-07-24T11:28:08Z</time>
      </trkpt>
      <trkpt lat="41.163925" lon="-6.66149">
        <ele>752.572</ele>
        <time>2018-07-24T11:28:09Z</time>
      </trkpt>
      <trkpt lat="41.163914" lon="-6.661541">
        <ele>752.568</ele>
        <time>2018-07-24T11:28:10Z</time>
      </trkpt>
      <trkpt lat="41.163894" lon="-6.661638">
        <ele>752.571</ele>
        <time>2018-07-24T11:28:12Z</time>
      </trkpt>
      <trkpt lat="41.163886" lon="-6.661685">
        <ele>752.575</ele>
        <time>2018-07-24T11:28:13Z</time>
      </trkpt>
      <trkpt lat="41.163879" lon="-6.661736">
        <ele>752.581</ele>
        <time>2018-07-24T11:28:14Z</time>
      </trkpt>
      <trkpt lat="41.163873" lon="-6.661785">
        <ele>752.583</ele>
        <time>2018-07-24T11:28:15Z</time>
      </trkpt>
      <trkpt lat="41.163869" lon="-6.661834">
        <ele>752.584</ele>
        <time>2018-07-24T11:28:16Z</time>
      </trkpt>
      <trkpt lat="41.163865" lon="-6.661887">
        <ele>752.585</ele>
        <time>2018-07-24T11:28:17Z</time>
      </trkpt>
      <trkpt lat="41.163864" lon="-6.66194">
        <ele>752.58</ele>
        <time>2018-07-24T11:28:18Z</time>
      </trkpt>
      <trkpt lat="41.163862" lon="-6.661998">
        <ele>752.582</ele>
        <time>2018-07-24T11:28:19Z</time>
      </trkpt>
      <trkpt lat="41.163858" lon="-6.662052">
        <ele>752.578</ele>
        <time>2018-07-24T11:28:20Z</time>
      </trkpt>
      <trkpt lat="41.163857" lon="-6.662116">
        <ele>752.57</ele>
        <time>2018-07-24T11:28:21Z</time>
      </trkpt>
      <trkpt lat="41.163853" lon="-6.662173">
        <ele>752.571</ele>
        <time>2018-07-24T11:28:22Z</time>
      </trkpt>
      <trkpt lat="41.163849" lon="-6.662234">
        <ele>752.571</ele>
        <time>2018-07-24T11:28:23Z</time>
      </trkpt>
      <trkpt lat="41.163844" lon="-6.662292">
        <ele>752.571</ele>
        <time>2018-07-24T11:28:24Z</time>
      </trkpt>
      <trkpt lat="41.163839" lon="-6.662347">
        <ele>752.576</ele>
        <time>2018-07-24T11:28:25Z</time>
      </trkpt>
      <trkpt lat="41.163833" lon="-6.662406">
        <ele>752.572</ele>
        <time>2018-07-24T11:28:26Z</time>
      </trkpt>
      <trkpt lat="41.163825" lon="-6.662463">
        <ele>752.573</ele>
        <time>2018-07-24T11:28:27Z</time>
      </trkpt>
      <trkpt lat="41.163818" lon="-6.662517">
        <ele>752.562</ele>
        <time>2018-07-24T11:28:28Z</time>
      </trkpt>
      <trkpt lat="41.163813" lon="-6.662576">
        <ele>752.563</ele>
        <time>2018-07-24T11:28:29Z</time>
      </trkpt>
      <trkpt lat="41.16381" lon="-6.662631">
        <ele>752.57</ele>
        <time>2018-07-24T11:28:30Z</time>
      </trkpt>
      <trkpt lat="41.16381" lon="-6.662695">
        <ele>752.575</ele>
        <time>2018-07-24T11:28:31Z</time>
      </trkpt>
      <trkpt lat="41.163809" lon="-6.662752">
        <ele>752.582</ele>
        <time>2018-07-24T11:28:32Z</time>
      </trkpt>
      <trkpt lat="41.163807" lon="-6.662804">
        <ele>752.595</ele>
        <time>2018-07-24T11:28:33Z</time>
      </trkpt>
      <trkpt lat="41.163805" lon="-6.662863">
        <ele>752.592</ele>
        <time>2018-07-24T11:28:34Z</time>
      </trkpt>
      <trkpt lat="41.163802" lon="-6.662925">
        <ele>752.584</ele>
        <time>2018-07-24T11:28:35Z</time>
      </trkpt>
      <trkpt lat="41.1638" lon="-6.662986">
        <ele>752.582</ele>
        <time>2018-07-24T11:28:36Z</time>
      </trkpt>
      <trkpt lat="41.163796" lon="-6.663048">
        <ele>752.578</ele>
        <time>2018-07-24T11:28:37Z</time>
      </trkpt>
      <trkpt lat="41.163791" lon="-6.663106">
        <ele>752.572</ele>
        <time>2018-07-24T11:28:38Z</time>
      </trkpt>
      <trkpt lat="41.163785" lon="-6.663164">
        <ele>752.557</ele>
        <time>2018-07-24T11:28:39Z</time>
      </trkpt>
      <trkpt lat="41.163779" lon="-6.663219">
        <ele>752.545</ele>
        <time>2018-07-24T11:28:40Z</time>
      </trkpt>
      <trkpt lat="41.163775" lon="-6.663283">
        <ele>752.537</ele>
        <time>2018-07-24T11:28:41Z</time>
      </trkpt>
      <trkpt lat="41.163773" lon="-6.663346">
        <ele>752.525</ele>
        <time>2018-07-24T11:28:42Z</time>
      </trkpt>
      <trkpt lat="41.163768" lon="-6.663399">
        <ele>752.518</ele>
        <time>2018-07-24T11:28:43Z</time>
      </trkpt>
      <trkpt lat="41.163761" lon="-6.663454">
        <ele>752.519</ele>
        <time>2018-07-24T11:28:44Z</time>
      </trkpt>
      <trkpt lat="41.163757" lon="-6.663512">
        <ele>752.526</ele>
        <time>2018-07-24T11:28:45Z</time>
      </trkpt>
      <trkpt lat="41.163752" lon="-6.66357">
        <ele>752.529</ele>
        <time>2018-07-24T11:28:46Z</time>
      </trkpt>
      <trkpt lat="41.16375" lon="-6.663636">
        <ele>752.533</ele>
        <time>2018-07-24T11:28:47Z</time>
      </trkpt>
      <trkpt lat="41.163747" lon="-6.663697">
        <ele>752.545</ele>
        <time>2018-07-24T11:28:48Z</time>
      </trkpt>
      <trkpt lat="41.163745" lon="-6.663757">
        <ele>752.555</ele>
        <time>2018-07-24T11:28:49Z</time>
      </trkpt>
      <trkpt lat="41.16374" lon="-6.663813">
        <ele>752.559</ele>
        <time>2018-07-24T11:28:50Z</time>
      </trkpt>
      <trkpt lat="41.163735" lon="-6.663875">
        <ele>752.567</ele>
        <time>2018-07-24T11:28:51Z</time>
      </trkpt>
      <trkpt lat="41.16373" lon="-6.663944">
        <ele>752.569</ele>
        <time>2018-07-24T11:28:52Z</time>
      </trkpt>
      <trkpt lat="41.163725" lon="-6.664007">
        <ele>752.571</ele>
        <time>2018-07-24T11:28:53Z</time>
      </trkpt>
      <trkpt lat="41.163721" lon="-6.664068">
        <ele>752.577</ele>
        <time>2018-07-24T11:28:54Z</time>
      </trkpt>
      <trkpt lat="41.16372" lon="-6.664136">
        <ele>752.588</ele>
        <time>2018-07-24T11:28:55Z</time>
      </trkpt>
      <trkpt lat="41.16372" lon="-6.664202">
        <ele>752.611</ele>
        <time>2018-07-24T11:28:56Z</time>
      </trkpt>
      <trkpt lat="41.163719" lon="-6.664268">
        <ele>752.62</ele>
        <time>2018-07-24T11:28:57Z</time>
      </trkpt>
      <trkpt lat="41.163719" lon="-6.664336">
        <ele>752.621</ele>
        <time>2018-07-24T11:28:58Z</time>
      </trkpt>
      <trkpt lat="41.163727" lon="-6.664409">
        <ele>752.618</ele>
        <time>2018-07-24T11:28:59Z</time>
      </trkpt>
      <trkpt lat="41.163736" lon="-6.664486">
        <ele>752.616</ele>
        <time>2018-07-24T11:29:00Z</time>
      </trkpt>
      <trkpt lat="41.163745" lon="-6.664557">
        <ele>752.619</ele>
        <time>2018-07-24T11:29:01Z</time>
      </trkpt>
      <trkpt lat="41.163754" lon="-6.66463">
        <ele>752.644</ele>
        <time>2018-07-24T11:29:02Z</time>
      </trkpt>
      <trkpt lat="41.163763" lon="-6.664704">
        <ele>752.657</ele>
        <time>2018-07-24T11:29:03Z</time>
      </trkpt>
      <trkpt lat="41.163773" lon="-6.664773">
        <ele>752.668</ele>
        <time>2018-07-24T11:29:04Z</time>
      </trkpt>
      <trkpt lat="41.163786" lon="-6.664832">
        <ele>752.678</ele>
        <time>2018-07-24T11:29:05Z</time>
      </trkpt>
      <trkpt lat="41.163799" lon="-6.664884">
        <ele>752.689</ele>
        <time>2018-07-24T11:29:06Z</time>
      </trkpt>
      <trkpt lat="41.163813" lon="-6.664947">
        <ele>752.727</ele>
        <time>2018-07-24T11:29:07Z</time>
      </trkpt>
      <trkpt lat="41.163833" lon="-6.665024">
        <ele>752.754</ele>
        <time>2018-07-24T11:29:08Z</time>
      </trkpt>
      <trkpt lat="41.163857" lon="-6.665099">
        <ele>752.778</ele>
        <time>2018-07-24T11:29:09Z</time>
      </trkpt>
      <trkpt lat="41.163873" lon="-6.665159">
        <ele>752.799</ele>
        <time>2018-07-24T11:29:10Z</time>
      </trkpt>
      <trkpt lat="41.16389" lon="-6.665219">
        <ele>752.823</ele>
        <time>2018-07-24T11:29:11Z</time>
      </trkpt>
      <trkpt lat="41.163909" lon="-6.665287">
        <ele>752.845</ele>
        <time>2018-07-24T11:29:12Z</time>
      </trkpt>
      <trkpt lat="41.163923" lon="-6.66535">
        <ele>752.858</ele>
        <time>2018-07-24T11:29:13Z</time>
      </trkpt>
      <trkpt lat="41.16394" lon="-6.665415">
        <ele>752.858</ele>
        <time>2018-07-24T11:29:14Z</time>
      </trkpt>
      <trkpt lat="41.163961" lon="-6.665479">
        <ele>752.859</ele>
        <time>2018-07-24T11:29:15Z</time>
      </trkpt>
      <trkpt lat="41.163981" lon="-6.665542">
        <ele>752.858</ele>
        <time>2018-07-24T11:29:16Z</time>
      </trkpt>
      <trkpt lat="41.164006" lon="-6.665656">
        <ele>752.863</ele>
        <time>2018-07-24T11:29:18Z</time>
      </trkpt>
      <trkpt lat="41.164025" lon="-6.66573">
        <ele>752.864</ele>
        <time>2018-07-24T11:29:19Z</time>
      </trkpt>
      <trkpt lat="41.16404" lon="-6.66579">
        <ele>752.865</ele>
        <time>2018-07-24T11:29:20Z</time>
      </trkpt>
      <trkpt lat="41.164054" lon="-6.665851">
        <ele>752.865</ele>
        <time>2018-07-24T11:29:21Z</time>
      </trkpt>
      <trkpt lat="41.164068" lon="-6.665913">
        <ele>752.867</ele>
        <time>2018-07-24T11:29:22Z</time>
      </trkpt>
      <trkpt lat="41.164075" lon="-6.665974">
        <ele>752.867</ele>
        <time>2018-07-24T11:29:23Z</time>
      </trkpt>
      <trkpt lat="41.164085" lon="-6.666139">
        <ele>752.868</ele>
        <time>2018-07-24T11:29:26Z</time>
      </trkpt>
      <trkpt lat="41.164089" lon="-6.666201">
        <ele>752.868</ele>
        <time>2018-07-24T11:29:27Z</time>
      </trkpt>
      <trkpt lat="41.164092" lon="-6.666259">
        <ele>752.869</ele>
        <time>2018-07-24T11:29:28Z</time>
      </trkpt>
      <trkpt lat="41.1641" lon="-6.666329">
        <ele>752.869</ele>
        <time>2018-07-24T11:29:29Z</time>
      </trkpt>
      <trkpt lat="41.164104" lon="-6.666391">
        <ele>752.869</ele>
        <time>2018-07-24T11:29:30Z</time>
      </trkpt>
      <trkpt lat="41.164102" lon="-6.666506">
        <ele>752.869</ele>
        <time>2018-07-24T11:29:32Z</time>
      </trkpt>
      <trkpt lat="41.1641" lon="-6.666561">
        <ele>752.869</ele>
        <time>2018-07-24T11:29:33Z</time>
      </trkpt>
      <trkpt lat="41.164103" lon="-6.666622">
        <ele>752.869</ele>
        <time>2018-07-24T11:29:34Z</time>
      </trkpt>
      <trkpt lat="41.164106" lon="-6.66668">
        <ele>752.87</ele>
        <time>2018-07-24T11:29:35Z</time>
      </trkpt>
      <trkpt lat="41.164107" lon="-6.666735">
        <ele>752.869</ele>
        <time>2018-07-24T11:29:36Z</time>
      </trkpt>
      <trkpt lat="41.164109" lon="-6.666793">
        <ele>752.868</ele>
        <time>2018-07-24T11:29:37Z</time>
      </trkpt>
      <trkpt lat="41.164111" lon="-6.666858">
        <ele>752.866</ele>
        <time>2018-07-24T11:29:38Z</time>
      </trkpt>
      <trkpt lat="41.16411" lon="-6.666918">
        <ele>752.866</ele>
        <time>2018-07-24T11:29:39Z</time>
      </trkpt>
      <trkpt lat="41.164108" lon="-6.666975">
        <ele>752.868</ele>
        <time>2018-07-24T11:29:40Z</time>
      </trkpt>
      <trkpt lat="41.164107" lon="-6.667032">
        <ele>752.869</ele>
        <time>2018-07-24T11:29:41Z</time>
      </trkpt>
      <trkpt lat="41.164106" lon="-6.66709">
        <ele>752.872</ele>
        <time>2018-07-24T11:29:42Z</time>
      </trkpt>
      <trkpt lat="41.164106" lon="-6.667141">
        <ele>752.876</ele>
        <time>2018-07-24T11:29:43Z</time>
      </trkpt>
      <trkpt lat="41.164105" lon="-6.667187">
        <ele>752.88</ele>
        <time>2018-07-24T11:29:44Z</time>
      </trkpt>
      <trkpt lat="41.164104" lon="-6.667227">
        <ele>752.882</ele>
        <time>2018-07-24T11:29:45Z</time>
      </trkpt>
      <trkpt lat="41.164105" lon="-6.667267">
        <ele>752.883</ele>
        <time>2018-07-24T11:29:46Z</time>
      </trkpt>
      <trkpt lat="41.164105" lon="-6.667307">
        <ele>752.884</ele>
        <time>2018-07-24T11:29:47Z</time>
      </trkpt>
      <trkpt lat="41.164105" lon="-6.667346">
        <ele>752.886</ele>
        <time>2018-07-24T11:29:48Z</time>
      </trkpt>
      <trkpt lat="41.164104" lon="-6.667384">
        <ele>752.89</ele>
        <time>2018-07-24T11:29:49Z</time>
      </trkpt>
      <trkpt lat="41.164104" lon="-6.667426">
        <ele>752.895</ele>
        <time>2018-07-24T11:29:50Z</time>
      </trkpt>
      <trkpt lat="41.164111" lon="-6.667508">
        <ele>752.898</ele>
        <time>2018-07-24T11:29:52Z</time>
      </trkpt>
      <trkpt lat="41.164113" lon="-6.667556">
        <ele>752.899</ele>
        <time>2018-07-24T11:29:53Z</time>
      </trkpt>
      <trkpt lat="41.164113" lon="-6.667588">
        <ele>752.902</ele>
        <time>2018-07-24T11:29:54Z</time>
      </trkpt>
      <trkpt lat="41.164113" lon="-6.667619">
        <ele>752.905</ele>
        <time>2018-07-24T11:29:55Z</time>
      </trkpt>
      <trkpt lat="41.164114" lon="-6.667653">
        <ele>752.91</ele>
        <time>2018-07-24T11:29:56Z</time>
      </trkpt>
      <trkpt lat="41.164115" lon="-6.667687">
        <ele>752.914</ele>
        <time>2018-07-24T11:29:57Z</time>
      </trkpt>
      <trkpt lat="41.164119" lon="-6.667734">
        <ele>752.92</ele>
        <time>2018-07-24T11:29:58Z</time>
      </trkpt>
      <trkpt lat="41.164122" lon="-6.667775">
        <ele>752.928</ele>
        <time>2018-07-24T11:29:59Z</time>
      </trkpt>
      <trkpt lat="41.164122" lon="-6.667827">
        <ele>752.934</ele>
        <time>2018-07-24T11:30:01Z</time>
      </trkpt>
      <trkpt lat="41.16412" lon="-6.667862">
        <ele>752.938</ele>
        <time>2018-07-24T11:30:02Z</time>
      </trkpt>
      <trkpt lat="41.164119" lon="-6.667906">
        <ele>752.942</ele>
        <time>2018-07-24T11:30:04Z</time>
      </trkpt>
      <trkpt lat="41.164126" lon="-6.667968">
        <ele>752.947</ele>
        <time>2018-07-24T11:30:06Z</time>
      </trkpt>
      <trkpt lat="41.164129" lon="-6.668061">
        <ele>752.952</ele>
        <time>2018-07-24T11:30:09Z</time>
      </trkpt>
      <trkpt lat="41.164129" lon="-6.668123">
        <ele>752.957</ele>
        <time>2018-07-24T11:30:11Z</time>
      </trkpt>
      <trkpt lat="41.164125" lon="-6.668191">
        <ele>752.961</ele>
        <time>2018-07-24T11:30:13Z</time>
      </trkpt>
      <trkpt lat="41.164124" lon="-6.668223">
        <ele>752.971</ele>
        <time>2018-07-24T11:30:14Z</time>
      </trkpt>
      <trkpt lat="41.164122" lon="-6.668258">
        <ele>752.981</ele>
        <time>2018-07-24T11:30:15Z</time>
      </trkpt>
      <trkpt lat="41.16412" lon="-6.668288">
        <ele>752.986</ele>
        <time>2018-07-24T11:30:16Z</time>
      </trkpt>
      <trkpt lat="41.164119" lon="-6.668322">
        <ele>752.997</ele>
        <time>2018-07-24T11:30:17Z</time>
      </trkpt>
      <trkpt lat="41.164125" lon="-6.668387">
        <ele>753.003</ele>
        <time>2018-07-24T11:30:19Z</time>
      </trkpt>
      <trkpt lat="41.164127" lon="-6.668468">
        <ele>753.015</ele>
        <time>2018-07-24T11:30:21Z</time>
      </trkpt>
      <trkpt lat="41.164126" lon="-6.668502">
        <ele>753.021</ele>
        <time>2018-07-24T11:30:22Z</time>
      </trkpt>
      <trkpt lat="41.164125" lon="-6.66855">
        <ele>753.027</ele>
        <time>2018-07-24T11:30:23Z</time>
      </trkpt>
      <trkpt lat="41.164123" lon="-6.668583">
        <ele>753.034</ele>
        <time>2018-07-24T11:30:24Z</time>
      </trkpt>
      <trkpt lat="41.164121" lon="-6.668649">
        <ele>753.04</ele>
        <time>2018-07-24T11:30:26Z</time>
      </trkpt>
      <trkpt lat="41.164117" lon="-6.668701">
        <ele>753.046</ele>
        <time>2018-07-24T11:30:28Z</time>
      </trkpt>
      <trkpt lat="41.164116" lon="-6.668763">
        <ele>753.057</ele>
        <time>2018-07-24T11:30:30Z</time>
      </trkpt>
      <trkpt lat="41.164122" lon="-6.668847">
        <ele>753.069</ele>
        <time>2018-07-24T11:30:33Z</time>
      </trkpt>
      <trkpt lat="41.164118" lon="-6.668936">
        <ele>753.074</ele>
        <time>2018-07-24T11:30:36Z</time>
      </trkpt>
      <trkpt lat="41.164107" lon="-6.669003">
        <ele>753.08</ele>
        <time>2018-07-24T11:30:38Z</time>
      </trkpt>
      <trkpt lat="41.164103" lon="-6.669034">
        <ele>753.085</ele>
        <time>2018-07-24T11:30:39Z</time>
      </trkpt>
      <trkpt lat="41.164099" lon="-6.669067">
        <ele>753.091</ele>
        <time>2018-07-24T11:30:40Z</time>
      </trkpt>
      <trkpt lat="41.164096" lon="-6.669099">
        <ele>753.108</ele>
        <time>2018-07-24T11:30:41Z</time>
      </trkpt>
      <trkpt lat="41.164092" lon="-6.669135">
        <ele>753.119</ele>
        <time>2018-07-24T11:30:42Z</time>
      </trkpt>
      <trkpt lat="41.164088" lon="-6.669171">
        <ele>753.129</ele>
        <time>2018-07-24T11:30:43Z</time>
      </trkpt>
      <trkpt lat="41.164084" lon="-6.669202">
        <ele>753.134</ele>
        <time>2018-07-24T11:30:44Z</time>
      </trkpt>
      <trkpt lat="41.16407" lon="-6.669267">
        <ele>753.138</ele>
        <time>2018-07-24T11:30:46Z</time>
      </trkpt>
      <trkpt lat="41.164064" lon="-6.669344">
        <ele>753.149</ele>
        <time>2018-07-24T11:30:48Z</time>
      </trkpt>
      <trkpt lat="41.164061" lon="-6.669376">
        <ele>753.155</ele>
        <time>2018-07-24T11:30:49Z</time>
      </trkpt>
      <trkpt lat="41.164048" lon="-6.669441">
        <ele>753.167</ele>
        <time>2018-07-24T11:30:51Z</time>
      </trkpt>
      <trkpt lat="41.16404" lon="-6.669478">
        <ele>753.18</ele>
        <time>2018-07-24T11:30:52Z</time>
      </trkpt>
      <trkpt lat="41.164024" lon="-6.66955">
        <ele>753.187</ele>
        <time>2018-07-24T11:30:54Z</time>
      </trkpt>
      <trkpt lat="41.164017" lon="-6.669591">
        <ele>753.194</ele>
        <time>2018-07-24T11:30:55Z</time>
      </trkpt>
      <trkpt lat="41.164011" lon="-6.669629">
        <ele>753.208</ele>
        <time>2018-07-24T11:30:56Z</time>
      </trkpt>
      <trkpt lat="41.164004" lon="-6.669662">
        <ele>753.215</ele>
        <time>2018-07-24T11:30:57Z</time>
      </trkpt>
      <trkpt lat="41.163996" lon="-6.669694">
        <ele>753.222</ele>
        <time>2018-07-24T11:30:58Z</time>
      </trkpt>
      <trkpt lat="41.163987" lon="-6.66973">
        <ele>753.23</ele>
        <time>2018-07-24T11:30:59Z</time>
      </trkpt>
      <trkpt lat="41.163971" lon="-6.669809">
        <ele>753.238</ele>
        <time>2018-07-24T11:31:01Z</time>
      </trkpt>
      <trkpt lat="41.163953" lon="-6.669872">
        <ele>753.247</ele>
        <time>2018-07-24T11:31:03Z</time>
      </trkpt>
      <trkpt lat="41.163945" lon="-6.669906">
        <ele>753.255</ele>
        <time>2018-07-24T11:31:04Z</time>
      </trkpt>
      <trkpt lat="41.163937" lon="-6.669939">
        <ele>753.263</ele>
        <time>2018-07-24T11:31:05Z</time>
      </trkpt>
      <trkpt lat="41.163928" lon="-6.669969">
        <ele>753.271</ele>
        <time>2018-07-24T11:31:06Z</time>
      </trkpt>
      <trkpt lat="41.163919" lon="-6.669999">
        <ele>753.279</ele>
        <time>2018-07-24T11:31:07Z</time>
      </trkpt>
      <trkpt lat="41.163906" lon="-6.670117">
        <ele>753.288</ele>
        <time>2018-07-24T11:31:10Z</time>
      </trkpt>
      <trkpt lat="41.1639" lon="-6.670196">
        <ele>753.306</ele>
        <time>2018-07-24T11:31:12Z</time>
      </trkpt>
      <trkpt lat="41.163889" lon="-6.670271">
        <ele>753.324</ele>
        <time>2018-07-24T11:31:14Z</time>
      </trkpt>
      <trkpt lat="41.163885" lon="-6.670308">
        <ele>753.343</ele>
        <time>2018-07-24T11:31:15Z</time>
      </trkpt>
      <trkpt lat="41.163878" lon="-6.670347">
        <ele>753.353</ele>
        <time>2018-07-24T11:31:16Z</time>
      </trkpt>
      <trkpt lat="41.16387" lon="-6.670427">
        <ele>753.373</ele>
        <time>2018-07-24T11:31:18Z</time>
      </trkpt>
      <trkpt lat="41.163866" lon="-6.670459">
        <ele>753.394</ele>
        <time>2018-07-24T11:31:19Z</time>
      </trkpt>
      <trkpt lat="41.16386" lon="-6.670518">
        <ele>753.405</ele>
        <time>2018-07-24T11:31:21Z</time>
      </trkpt>
      <trkpt lat="41.163859" lon="-6.670593">
        <ele>753.428</ele>
        <time>2018-07-24T11:31:23Z</time>
      </trkpt>
      <trkpt lat="41.163858" lon="-6.670631">
        <ele>753.44</ele>
        <time>2018-07-24T11:31:24Z</time>
      </trkpt>
      <trkpt lat="41.163856" lon="-6.670666">
        <ele>753.452</ele>
        <time>2018-07-24T11:31:25Z</time>
      </trkpt>
      <trkpt lat="41.163856" lon="-6.670742">
        <ele>753.476</ele>
        <time>2018-07-24T11:31:27Z</time>
      </trkpt>
      <trkpt lat="41.163855" lon="-6.670784">
        <ele>753.501</ele>
        <time>2018-07-24T11:31:28Z</time>
      </trkpt>
      <trkpt lat="41.163854" lon="-6.67082">
        <ele>753.514</ele>
        <time>2018-07-24T11:31:29Z</time>
      </trkpt>
      <trkpt lat="41.163852" lon="-6.670853">
        <ele>753.527</ele>
        <time>2018-07-24T11:31:30Z</time>
      </trkpt>
      <trkpt lat="41.16385" lon="-6.670889">
        <ele>753.542</ele>
        <time>2018-07-24T11:31:31Z</time>
      </trkpt>
      <trkpt lat="41.163849" lon="-6.67092">
        <ele>753.557</ele>
        <time>2018-07-24T11:31:32Z</time>
      </trkpt>
      <trkpt lat="41.16385" lon="-6.670966">
        <ele>753.573</ele>
        <time>2018-07-24T11:31:33Z</time>
      </trkpt>
      <trkpt lat="41.163852" lon="-6.671007">
        <ele>753.59</ele>
        <time>2018-07-24T11:31:34Z</time>
      </trkpt>
      <trkpt lat="41.163853" lon="-6.67104">
        <ele>753.606</ele>
        <time>2018-07-24T11:31:35Z</time>
      </trkpt>
      <trkpt lat="41.163854" lon="-6.671075">
        <ele>753.622</ele>
        <time>2018-07-24T11:31:36Z</time>
      </trkpt>
      <trkpt lat="41.163854" lon="-6.671108">
        <ele>753.638</ele>
        <time>2018-07-24T11:31:37Z</time>
      </trkpt>
      <trkpt lat="41.163851" lon="-6.67117">
        <ele>753.655</ele>
        <time>2018-07-24T11:31:39Z</time>
      </trkpt>
      <trkpt lat="41.163849" lon="-6.671222">
        <ele>753.671</ele>
        <time>2018-07-24T11:31:41Z</time>
      </trkpt>
      <trkpt lat="41.163849" lon="-6.671277">
        <ele>753.688</ele>
        <time>2018-07-24T11:31:43Z</time>
      </trkpt>
      <trkpt lat="41.16385" lon="-6.671308">
        <ele>753.705</ele>
        <time>2018-07-24T11:31:44Z</time>
      </trkpt>
      <trkpt lat="41.163848" lon="-6.671372">
        <ele>753.722</ele>
        <time>2018-07-24T11:31:46Z</time>
      </trkpt>
      <trkpt lat="41.163847" lon="-6.671435">
        <ele>753.919</ele>
        <time>2018-07-24T11:31:48Z</time>
      </trkpt>
      <trkpt lat="41.163843" lon="-6.671471">
        <ele>753.934</ele>
        <time>2018-07-24T11:31:49Z</time>
      </trkpt>
      <trkpt lat="41.163834" lon="-6.67154">
        <ele>754.087</ele>
        <time>2018-07-24T11:31:51Z</time>
      </trkpt>
      <trkpt lat="41.163828" lon="-6.671579">
        <ele>754.219</ele>
        <time>2018-07-24T11:31:52Z</time>
      </trkpt>
      <trkpt lat="41.163824" lon="-6.671623">
        <ele>754.335</ele>
        <time>2018-07-24T11:31:53Z</time>
      </trkpt>
      <trkpt lat="41.163827" lon="-6.671707">
        <ele>754.431</ele>
        <time>2018-07-24T11:31:55Z</time>
      </trkpt>
      <trkpt lat="41.16382" lon="-6.671789">
        <ele>754.591</ele>
        <time>2018-07-24T11:31:57Z</time>
      </trkpt>
      <trkpt lat="41.163815" lon="-6.67183">
        <ele>754.655</ele>
        <time>2018-07-24T11:31:58Z</time>
      </trkpt>
      <trkpt lat="41.16381" lon="-6.671869">
        <ele>754.704</ele>
        <time>2018-07-24T11:31:59Z</time>
      </trkpt>
      <trkpt lat="41.163805" lon="-6.671906">
        <ele>754.752</ele>
        <time>2018-07-24T11:32:00Z</time>
      </trkpt>
      <trkpt lat="41.1638" lon="-6.671957">
        <ele>754.796</ele>
        <time>2018-07-24T11:32:01Z</time>
      </trkpt>
      <trkpt lat="41.163795" lon="-6.671993">
        <ele>754.836</ele>
        <time>2018-07-24T11:32:02Z</time>
      </trkpt>
      <trkpt lat="41.163791" lon="-6.672037">
        <ele>754.877</ele>
        <time>2018-07-24T11:32:03Z</time>
      </trkpt>
      <trkpt lat="41.163785" lon="-6.672083">
        <ele>754.917</ele>
        <time>2018-07-24T11:32:04Z</time>
      </trkpt>
      <trkpt lat="41.163781" lon="-6.672129">
        <ele>754.99</ele>
        <time>2018-07-24T11:32:05Z</time>
      </trkpt>
      <trkpt lat="41.163775" lon="-6.672179">
        <ele>755.025</ele>
        <time>2018-07-24T11:32:06Z</time>
      </trkpt>
      <trkpt lat="41.163768" lon="-6.672222">
        <ele>755.059</ele>
        <time>2018-07-24T11:32:07Z</time>
      </trkpt>
      <trkpt lat="41.163761" lon="-6.672263">
        <ele>755.09</ele>
        <time>2018-07-24T11:32:08Z</time>
      </trkpt>
      <trkpt lat="41.163756" lon="-6.672307">
        <ele>755.121</ele>
        <time>2018-07-24T11:32:09Z</time>
      </trkpt>
      <trkpt lat="41.163752" lon="-6.672353">
        <ele>755.15</ele>
        <time>2018-07-24T11:32:10Z</time>
      </trkpt>
      <trkpt lat="41.163746" lon="-6.672401">
        <ele>755.18</ele>
        <time>2018-07-24T11:32:11Z</time>
      </trkpt>
      <trkpt lat="41.163734" lon="-6.672494">
        <ele>755.211</ele>
        <time>2018-07-24T11:32:13Z</time>
      </trkpt>
      <trkpt lat="41.163726" lon="-6.67255">
        <ele>755.241</ele>
        <time>2018-07-24T11:32:14Z</time>
      </trkpt>
      <trkpt lat="41.163717" lon="-6.672601">
        <ele>755.243</ele>
        <time>2018-07-24T11:32:15Z</time>
      </trkpt>
      <trkpt lat="41.163708" lon="-6.672653">
        <ele>755.251</ele>
        <time>2018-07-24T11:32:16Z</time>
      </trkpt>
      <trkpt lat="41.1637" lon="-6.672712">
        <ele>755.255</ele>
        <time>2018-07-24T11:32:17Z</time>
      </trkpt>
      <trkpt lat="41.163694" lon="-6.672765">
        <ele>755.259</ele>
        <time>2018-07-24T11:32:18Z</time>
      </trkpt>
      <trkpt lat="41.163679" lon="-6.672884">
        <ele>755.263</ele>
        <time>2018-07-24T11:32:20Z</time>
      </trkpt>
      <trkpt lat="41.163669" lon="-6.672943">
        <ele>755.267</ele>
        <time>2018-07-24T11:32:21Z</time>
      </trkpt>
      <trkpt lat="41.163661" lon="-6.673008">
        <ele>755.272</ele>
        <time>2018-07-24T11:32:22Z</time>
      </trkpt>
      <trkpt lat="41.163652" lon="-6.673066">
        <ele>755.276</ele>
        <time>2018-07-24T11:32:23Z</time>
      </trkpt>
      <trkpt lat="41.163645" lon="-6.673124">
        <ele>755.281</ele>
        <time>2018-07-24T11:32:24Z</time>
      </trkpt>
      <trkpt lat="41.163637" lon="-6.673184">
        <ele>755.329</ele>
        <time>2018-07-24T11:32:25Z</time>
      </trkpt>
      <trkpt lat="41.163629" lon="-6.673235">
        <ele>755.333</ele>
        <time>2018-07-24T11:32:26Z</time>
      </trkpt>
      <trkpt lat="41.163621" lon="-6.673291">
        <ele>755.337</ele>
        <time>2018-07-24T11:32:27Z</time>
      </trkpt>
      <trkpt lat="41.163604" lon="-6.673404">
        <ele>755.341</ele>
        <time>2018-07-24T11:32:29Z</time>
      </trkpt>
      <trkpt lat="41.163594" lon="-6.673458">
        <ele>755.346</ele>
        <time>2018-07-24T11:32:30Z</time>
      </trkpt>
      <trkpt lat="41.163586" lon="-6.673517">
        <ele>755.352</ele>
        <time>2018-07-24T11:32:31Z</time>
      </trkpt>
      <trkpt lat="41.163577" lon="-6.673574">
        <ele>755.372</ele>
        <time>2018-07-24T11:32:32Z</time>
      </trkpt>
      <trkpt lat="41.163568" lon="-6.673625">
        <ele>755.387</ele>
        <time>2018-07-24T11:32:33Z</time>
      </trkpt>
      <trkpt lat="41.163556" lon="-6.673678">
        <ele>755.396</ele>
        <time>2018-07-24T11:32:34Z</time>
      </trkpt>
      <trkpt lat="41.163545" lon="-6.673731">
        <ele>755.486</ele>
        <time>2018-07-24T11:32:35Z</time>
      </trkpt>
      <trkpt lat="41.163536" lon="-6.67378">
        <ele>755.565</ele>
        <time>2018-07-24T11:32:36Z</time>
      </trkpt>
      <trkpt lat="41.163528" lon="-6.67383">
        <ele>755.636</ele>
        <time>2018-07-24T11:32:37Z</time>
      </trkpt>
      <trkpt lat="41.16352" lon="-6.673881">
        <ele>755.642</ele>
        <time>2018-07-24T11:32:38Z</time>
      </trkpt>
      <trkpt lat="41.163499" lon="-6.673973">
        <ele>755.65</ele>
        <time>2018-07-24T11:32:40Z</time>
      </trkpt>
      <trkpt lat="41.163489" lon="-6.674021">
        <ele>755.665</ele>
        <time>2018-07-24T11:32:41Z</time>
      </trkpt>
      <trkpt lat="41.163478" lon="-6.674068">
        <ele>755.749</ele>
        <time>2018-07-24T11:32:42Z</time>
      </trkpt>
      <trkpt lat="41.163467" lon="-6.674117">
        <ele>755.756</ele>
        <time>2018-07-24T11:32:43Z</time>
      </trkpt>
      <trkpt lat="41.163457" lon="-6.674159">
        <ele>755.763</ele>
        <time>2018-07-24T11:32:44Z</time>
      </trkpt>
      <trkpt lat="41.163447" lon="-6.674206">
        <ele>755.772</ele>
        <time>2018-07-24T11:32:45Z</time>
      </trkpt>
      <trkpt lat="41.163438" lon="-6.67425">
        <ele>755.858</ele>
        <time>2018-07-24T11:32:46Z</time>
      </trkpt>
      <trkpt lat="41.163426" lon="-6.674295">
        <ele>755.995</ele>
        <time>2018-07-24T11:32:47Z</time>
      </trkpt>
      <trkpt lat="41.163416" lon="-6.674338">
        <ele>756.052</ele>
        <time>2018-07-24T11:32:48Z</time>
      </trkpt>
      <trkpt lat="41.163406" lon="-6.674389">
        <ele>756.107</ele>
        <time>2018-07-24T11:32:49Z</time>
      </trkpt>
      <trkpt lat="41.163395" lon="-6.674437">
        <ele>756.251</ele>
        <time>2018-07-24T11:32:50Z</time>
      </trkpt>
      <trkpt lat="41.163383" lon="-6.674486">
        <ele>756.255</ele>
        <time>2018-07-24T11:32:51Z</time>
      </trkpt>
      <trkpt lat="41.163372" lon="-6.674523">
        <ele>756.299</ele>
        <time>2018-07-24T11:32:52Z</time>
      </trkpt>
      <trkpt lat="41.16336" lon="-6.674565">
        <ele>756.372</ele>
        <time>2018-07-24T11:32:53Z</time>
      </trkpt>
      <trkpt lat="41.163336" lon="-6.674695">
        <ele>756.379</ele>
        <time>2018-07-24T11:32:56Z</time>
      </trkpt>
      <trkpt lat="41.163309" lon="-6.674786">
        <ele>756.382</ele>
        <time>2018-07-24T11:32:58Z</time>
      </trkpt>
      <trkpt lat="41.163297" lon="-6.674829">
        <ele>756.393</ele>
        <time>2018-07-24T11:32:59Z</time>
      </trkpt>
      <trkpt lat="41.163284" lon="-6.674876">
        <ele>756.399</ele>
        <time>2018-07-24T11:33:00Z</time>
      </trkpt>
      <trkpt lat="41.16327" lon="-6.674925">
        <ele>756.41</ele>
        <time>2018-07-24T11:33:01Z</time>
      </trkpt>
      <trkpt lat="41.163257" lon="-6.674978">
        <ele>756.416</ele>
        <time>2018-07-24T11:33:02Z</time>
      </trkpt>
      <trkpt lat="41.163243" lon="-6.675032">
        <ele>756.423</ele>
        <time>2018-07-24T11:33:03Z</time>
      </trkpt>
      <trkpt lat="41.16323" lon="-6.675077">
        <ele>756.438</ele>
        <time>2018-07-24T11:33:04Z</time>
      </trkpt>
      <trkpt lat="41.163209" lon="-6.675173">
        <ele>756.446</ele>
        <time>2018-07-24T11:33:06Z</time>
      </trkpt>
      <trkpt lat="41.163198" lon="-6.675221">
        <ele>756.454</ele>
        <time>2018-07-24T11:33:07Z</time>
      </trkpt>
      <trkpt lat="41.163184" lon="-6.675265">
        <ele>756.462</ele>
        <time>2018-07-24T11:33:08Z</time>
      </trkpt>
      <trkpt lat="41.163171" lon="-6.675314">
        <ele>756.481</ele>
        <time>2018-07-24T11:33:09Z</time>
      </trkpt>
      <trkpt lat="41.163158" lon="-6.675363">
        <ele>756.659</ele>
        <time>2018-07-24T11:33:10Z</time>
      </trkpt>
      <trkpt lat="41.163144" lon="-6.675412">
        <ele>756.731</ele>
        <time>2018-07-24T11:33:11Z</time>
      </trkpt>
      <trkpt lat="41.163119" lon="-6.675516">
        <ele>756.789</ele>
        <time>2018-07-24T11:33:13Z</time>
      </trkpt>
      <trkpt lat="41.163105" lon="-6.675563">
        <ele>756.88</ele>
        <time>2018-07-24T11:33:14Z</time>
      </trkpt>
      <trkpt lat="41.163091" lon="-6.675607">
        <ele>756.949</ele>
        <time>2018-07-24T11:33:15Z</time>
      </trkpt>
      <trkpt lat="41.163049" lon="-6.675754">
        <ele>756.98</ele>
        <time>2018-07-24T11:33:18Z</time>
      </trkpt>
      <trkpt lat="41.163034" lon="-6.675802">
        <ele>757.015</ele>
        <time>2018-07-24T11:33:19Z</time>
      </trkpt>
      <trkpt lat="41.163019" lon="-6.675848">
        <ele>757.045</ele>
        <time>2018-07-24T11:33:20Z</time>
      </trkpt>
      <trkpt lat="41.162998" lon="-6.675956">
        <ele>757.062</ele>
        <time>2018-07-24T11:33:22Z</time>
      </trkpt>
      <trkpt lat="41.162975" lon="-6.676048">
        <ele>757.076</ele>
        <time>2018-07-24T11:33:24Z</time>
      </trkpt>
      <trkpt lat="41.162965" lon="-6.676093">
        <ele>757.085</ele>
        <time>2018-07-24T11:33:25Z</time>
      </trkpt>
      <trkpt lat="41.162945" lon="-6.676178">
        <ele>757.091</ele>
        <time>2018-07-24T11:33:27Z</time>
      </trkpt>
      <trkpt lat="41.162939" lon="-6.676217">
        <ele>757.095</ele>
        <time>2018-07-24T11:33:28Z</time>
      </trkpt>
      <trkpt lat="41.162923" lon="-6.676287">
        <ele>757.098</ele>
        <time>2018-07-24T11:33:30Z</time>
      </trkpt>
      <trkpt lat="41.162912" lon="-6.676328">
        <ele>757.101</ele>
        <time>2018-07-24T11:33:31Z</time>
      </trkpt>
      <trkpt lat="41.162899" lon="-6.676367">
        <ele>757.109</ele>
        <time>2018-07-24T11:33:32Z</time>
      </trkpt>
      <trkpt lat="41.162879" lon="-6.676471">
        <ele>757.111</ele>
        <time>2018-07-24T11:33:34Z</time>
      </trkpt>
      <trkpt lat="41.16287" lon="-6.676511">
        <ele>757.109</ele>
        <time>2018-07-24T11:33:35Z</time>
      </trkpt>
      <trkpt lat="41.162862" lon="-6.67655">
        <ele>757.102</ele>
        <time>2018-07-24T11:33:36Z</time>
      </trkpt>
      <trkpt lat="41.162855" lon="-6.676594">
        <ele>757.099</ele>
        <time>2018-07-24T11:33:37Z</time>
      </trkpt>
      <trkpt lat="41.162847" lon="-6.676685">
        <ele>757.096</ele>
        <time>2018-07-24T11:33:39Z</time>
      </trkpt>
      <trkpt lat="41.162836" lon="-6.676786">
        <ele>757.091</ele>
        <time>2018-07-24T11:33:41Z</time>
      </trkpt>
      <trkpt lat="41.162831" lon="-6.676838">
        <ele>757.086</ele>
        <time>2018-07-24T11:33:42Z</time>
      </trkpt>
      <trkpt lat="41.162829" lon="-6.676896">
        <ele>757.082</ele>
        <time>2018-07-24T11:33:43Z</time>
      </trkpt>
      <trkpt lat="41.162833" lon="-6.677023">
        <ele>757.081</ele>
        <time>2018-07-24T11:33:45Z</time>
      </trkpt>
      <trkpt lat="41.16284" lon="-6.677153">
        <ele>757.082</ele>
        <time>2018-07-24T11:33:47Z</time>
      </trkpt>
      <trkpt lat="41.162848" lon="-6.677223">
        <ele>757.082</ele>
        <time>2018-07-24T11:33:48Z</time>
      </trkpt>
      <trkpt lat="41.162859" lon="-6.677291">
        <ele>757.083</ele>
        <time>2018-07-24T11:33:49Z</time>
      </trkpt>
      <trkpt lat="41.162867" lon="-6.677359">
        <ele>757.082</ele>
        <time>2018-07-24T11:33:50Z</time>
      </trkpt>
      <trkpt lat="41.162882" lon="-6.677436">
        <ele>757.082</ele>
        <time>2018-07-24T11:33:51Z</time>
      </trkpt>
      <trkpt lat="41.162894" lon="-6.677506">
        <ele>757.081</ele>
        <time>2018-07-24T11:33:52Z</time>
      </trkpt>
      <trkpt lat="41.162913" lon="-6.677579">
        <ele>757.081</ele>
        <time>2018-07-24T11:33:53Z</time>
      </trkpt>
      <trkpt lat="41.162931" lon="-6.677654">
        <ele>757.082</ele>
        <time>2018-07-24T11:33:54Z</time>
      </trkpt>
      <trkpt lat="41.162949" lon="-6.677728">
        <ele>757.082</ele>
        <time>2018-07-24T11:33:55Z</time>
      </trkpt>
      <trkpt lat="41.162969" lon="-6.677805">
        <ele>757.081</ele>
        <time>2018-07-24T11:33:56Z</time>
      </trkpt>
      <trkpt lat="41.162988" lon="-6.677875">
        <ele>757.081</ele>
        <time>2018-07-24T11:33:57Z</time>
      </trkpt>
      <trkpt lat="41.163006" lon="-6.677947">
        <ele>757.08</ele>
        <time>2018-07-24T11:33:58Z</time>
      </trkpt>
      <trkpt lat="41.163026" lon="-6.678022">
        <ele>757.079</ele>
        <time>2018-07-24T11:33:59Z</time>
      </trkpt>
      <trkpt lat="41.163044" lon="-6.67809">
        <ele>757.079</ele>
        <time>2018-07-24T11:34:00Z</time>
      </trkpt>
      <trkpt lat="41.163059" lon="-6.678153">
        <ele>757.078</ele>
        <time>2018-07-24T11:34:01Z</time>
      </trkpt>
      <trkpt lat="41.163076" lon="-6.678218">
        <ele>757.077</ele>
        <time>2018-07-24T11:34:02Z</time>
      </trkpt>
      <trkpt lat="41.163092" lon="-6.678275">
        <ele>757.077</ele>
        <time>2018-07-24T11:34:03Z</time>
      </trkpt>
      <trkpt lat="41.163108" lon="-6.678325">
        <ele>757.078</ele>
        <time>2018-07-24T11:34:04Z</time>
      </trkpt>
      <trkpt lat="41.163128" lon="-6.678375">
        <ele>757.078</ele>
        <time>2018-07-24T11:34:05Z</time>
      </trkpt>
      <trkpt lat="41.163144" lon="-6.678419">
        <ele>757.079</ele>
        <time>2018-07-24T11:34:06Z</time>
      </trkpt>
      <trkpt lat="41.16316" lon="-6.67846">
        <ele>757.081</ele>
        <time>2018-07-24T11:34:07Z</time>
      </trkpt>
      <trkpt lat="41.163175" lon="-6.678498">
        <ele>757.083</ele>
        <time>2018-07-24T11:34:08Z</time>
      </trkpt>
      <trkpt lat="41.163191" lon="-6.678536">
        <ele>757.087</ele>
        <time>2018-07-24T11:34:09Z</time>
      </trkpt>
      <trkpt lat="41.163209" lon="-6.678572">
        <ele>757.089</ele>
        <time>2018-07-24T11:34:10Z</time>
      </trkpt>
      <trkpt lat="41.163232" lon="-6.678617">
        <ele>757.091</ele>
        <time>2018-07-24T11:34:11Z</time>
      </trkpt>
      <trkpt lat="41.163252" lon="-6.678658">
        <ele>757.094</ele>
        <time>2018-07-24T11:34:12Z</time>
      </trkpt>
      <trkpt lat="41.163272" lon="-6.678694">
        <ele>757.097</ele>
        <time>2018-07-24T11:34:13Z</time>
      </trkpt>
      <trkpt lat="41.16329" lon="-6.678727">
        <ele>757.1</ele>
        <time>2018-07-24T11:34:14Z</time>
      </trkpt>
      <trkpt lat="41.163304" lon="-6.678757">
        <ele>757.13</ele>
        <time>2018-07-24T11:34:15Z</time>
      </trkpt>
      <trkpt lat="41.163323" lon="-6.678793">
        <ele>757.187</ele>
        <time>2018-07-24T11:34:16Z</time>
      </trkpt>
      <trkpt lat="41.163341" lon="-6.678833">
        <ele>757.268</ele>
        <time>2018-07-24T11:34:17Z</time>
      </trkpt>
      <trkpt lat="41.163356" lon="-6.678868">
        <ele>757.292</ele>
        <time>2018-07-24T11:34:18Z</time>
      </trkpt>
      <trkpt lat="41.163371" lon="-6.678902">
        <ele>757.311</ele>
        <time>2018-07-24T11:34:19Z</time>
      </trkpt>
      <trkpt lat="41.163384" lon="-6.678931">
        <ele>757.325</ele>
        <time>2018-07-24T11:34:20Z</time>
      </trkpt>
      <trkpt lat="41.163399" lon="-6.678964">
        <ele>757.343</ele>
        <time>2018-07-24T11:34:21Z</time>
      </trkpt>
      <trkpt lat="41.163415" lon="-6.678994">
        <ele>757.368</ele>
        <time>2018-07-24T11:34:22Z</time>
      </trkpt>
      <trkpt lat="41.163431" lon="-6.679024">
        <ele>757.399</ele>
        <time>2018-07-24T11:34:23Z</time>
      </trkpt>
      <trkpt lat="41.163446" lon="-6.679055">
        <ele>757.477</ele>
        <time>2018-07-24T11:34:24Z</time>
      </trkpt>
      <trkpt lat="41.163459" lon="-6.679084">
        <ele>757.523</ele>
        <time>2018-07-24T11:34:25Z</time>
      </trkpt>
      <trkpt lat="41.163477" lon="-6.679122">
        <ele>757.575</ele>
        <time>2018-07-24T11:34:26Z</time>
      </trkpt>
      <trkpt lat="41.163495" lon="-6.679156">
        <ele>757.624</ele>
        <time>2018-07-24T11:34:27Z</time>
      </trkpt>
      <trkpt lat="41.163511" lon="-6.67919">
        <ele>757.661</ele>
        <time>2018-07-24T11:34:28Z</time>
      </trkpt>
      <trkpt lat="41.163526" lon="-6.679227">
        <ele>757.685</ele>
        <time>2018-07-24T11:34:29Z</time>
      </trkpt>
      <trkpt lat="41.163562" lon="-6.6793">
        <ele>757.704</ele>
        <time>2018-07-24T11:34:31Z</time>
      </trkpt>
      <trkpt lat="41.16358" lon="-6.679345">
        <ele>757.728</ele>
        <time>2018-07-24T11:34:32Z</time>
      </trkpt>
      <trkpt lat="41.163596" lon="-6.679385">
        <ele>757.741</ele>
        <time>2018-07-24T11:34:33Z</time>
      </trkpt>
      <trkpt lat="41.163612" lon="-6.679423">
        <ele>757.74</ele>
        <time>2018-07-24T11:34:34Z</time>
      </trkpt>
      <trkpt lat="41.16363" lon="-6.679464">
        <ele>757.733</ele>
        <time>2018-07-24T11:34:35Z</time>
      </trkpt>
      <trkpt lat="41.163648" lon="-6.679506">
        <ele>757.706</ele>
        <time>2018-07-24T11:34:36Z</time>
      </trkpt>
      <trkpt lat="41.163664" lon="-6.679547">
        <ele>757.662</ele>
        <time>2018-07-24T11:34:37Z</time>
      </trkpt>
      <trkpt lat="41.163691" lon="-6.679648">
        <ele>757.547</ele>
        <time>2018-07-24T11:34:39Z</time>
      </trkpt>
      <trkpt lat="41.163717" lon="-6.679803">
        <ele>757.477</ele>
        <time>2018-07-24T11:34:42Z</time>
      </trkpt>
      <trkpt lat="41.163725" lon="-6.679864">
        <ele>757.392</ele>
        <time>2018-07-24T11:34:43Z</time>
      </trkpt>
      <trkpt lat="41.163728" lon="-6.67993">
        <ele>757.298</ele>
        <time>2018-07-24T11:34:44Z</time>
      </trkpt>
      <trkpt lat="41.16373" lon="-6.679999">
        <ele>757.202</ele>
        <time>2018-07-24T11:34:45Z</time>
      </trkpt>
      <trkpt lat="41.163727" lon="-6.680081">
        <ele>756.937</ele>
        <time>2018-07-24T11:34:46Z</time>
      </trkpt>
      <trkpt lat="41.163726" lon="-6.680165">
        <ele>756.793</ele>
        <time>2018-07-24T11:34:47Z</time>
      </trkpt>
      <trkpt lat="41.163724" lon="-6.680254">
        <ele>756.673</ele>
        <time>2018-07-24T11:34:48Z</time>
      </trkpt>
      <trkpt lat="41.163714" lon="-6.680429">
        <ele>756.561</ele>
        <time>2018-07-24T11:34:50Z</time>
      </trkpt>
      <trkpt lat="41.163709" lon="-6.680522">
        <ele>756.456</ele>
        <time>2018-07-24T11:34:51Z</time>
      </trkpt>
      <trkpt lat="41.163705" lon="-6.680614">
        <ele>756.338</ele>
        <time>2018-07-24T11:34:52Z</time>
      </trkpt>
      <trkpt lat="41.163703" lon="-6.680715">
        <ele>756.224</ele>
        <time>2018-07-24T11:34:53Z</time>
      </trkpt>
      <trkpt lat="41.163701" lon="-6.680818">
        <ele>756.107</ele>
        <time>2018-07-24T11:34:54Z</time>
      </trkpt>
      <trkpt lat="41.163698" lon="-6.680915">
        <ele>755.998</ele>
        <time>2018-07-24T11:34:55Z</time>
      </trkpt>
      <trkpt lat="41.163695" lon="-6.68102">
        <ele>755.869</ele>
        <time>2018-07-24T11:34:56Z</time>
      </trkpt>
      <trkpt lat="41.163691" lon="-6.681124">
        <ele>755.67</ele>
        <time>2018-07-24T11:34:57Z</time>
      </trkpt>
      <trkpt lat="41.163686" lon="-6.681233">
        <ele>755.467</ele>
        <time>2018-07-24T11:34:58Z</time>
      </trkpt>
      <trkpt lat="41.163683" lon="-6.681346">
        <ele>755.271</ele>
        <time>2018-07-24T11:34:59Z</time>
      </trkpt>
      <trkpt lat="41.163678" lon="-6.681459">
        <ele>755.073</ele>
        <time>2018-07-24T11:35:00Z</time>
      </trkpt>
      <trkpt lat="41.163671" lon="-6.681572">
        <ele>754.885</ele>
        <time>2018-07-24T11:35:01Z</time>
      </trkpt>
      <trkpt lat="41.16367" lon="-6.681693">
        <ele>754.636</ele>
        <time>2018-07-24T11:35:02Z</time>
      </trkpt>
      <trkpt lat="41.163662" lon="-6.681933">
        <ele>754.355</ele>
        <time>2018-07-24T11:35:04Z</time>
      </trkpt>
      <trkpt lat="41.163656" lon="-6.682058">
        <ele>754.054</ele>
        <time>2018-07-24T11:35:05Z</time>
      </trkpt>
      <trkpt lat="41.163645" lon="-6.682183">
        <ele>753.775</ele>
        <time>2018-07-24T11:35:06Z</time>
      </trkpt>
      <trkpt lat="41.163631" lon="-6.682311">
        <ele>753.533</ele>
        <time>2018-07-24T11:35:07Z</time>
      </trkpt>
      <trkpt lat="41.163605" lon="-6.68244">
        <ele>753.229</ele>
        <time>2018-07-24T11:35:08Z</time>
      </trkpt>
      <trkpt lat="41.163484" lon="-6.682806">
        <ele>752.896</ele>
        <time>2018-07-24T11:35:11Z</time>
      </trkpt>
      <trkpt lat="41.163438" lon="-6.682929">
        <ele>752.585</ele>
        <time>2018-07-24T11:35:12Z</time>
      </trkpt>
      <trkpt lat="41.163392" lon="-6.683051">
        <ele>752.269</ele>
        <time>2018-07-24T11:35:13Z</time>
      </trkpt>
      <trkpt lat="41.163351" lon="-6.683172">
        <ele>752.043</ele>
        <time>2018-07-24T11:35:14Z</time>
      </trkpt>
      <trkpt lat="41.163313" lon="-6.683296">
        <ele>751.728</ele>
        <time>2018-07-24T11:35:15Z</time>
      </trkpt>
      <trkpt lat="41.163276" lon="-6.683413">
        <ele>751.172</ele>
        <time>2018-07-24T11:35:16Z</time>
      </trkpt>
      <trkpt lat="41.163242" lon="-6.68354">
        <ele>751.027</ele>
        <time>2018-07-24T11:35:17Z</time>
      </trkpt>
      <trkpt lat="41.163205" lon="-6.68366">
        <ele>750.842</ele>
        <time>2018-07-24T11:35:18Z</time>
      </trkpt>
      <trkpt lat="41.163168" lon="-6.683775">
        <ele>750.699</ele>
        <time>2018-07-24T11:35:19Z</time>
      </trkpt>
      <trkpt lat="41.163126" lon="-6.683886">
        <ele>750.452</ele>
        <time>2018-07-24T11:35:20Z</time>
      </trkpt>
      <trkpt lat="41.16308" lon="-6.684001">
        <ele>750.259</ele>
        <time>2018-07-24T11:35:21Z</time>
      </trkpt>
      <trkpt lat="41.163042" lon="-6.684116">
        <ele>749.932</ele>
        <time>2018-07-24T11:35:22Z</time>
      </trkpt>
      <trkpt lat="41.163004" lon="-6.684233">
        <ele>749.553</ele>
        <time>2018-07-24T11:35:23Z</time>
      </trkpt>
      <trkpt lat="41.162969" lon="-6.684348">
        <ele>749.158</ele>
        <time>2018-07-24T11:35:24Z</time>
      </trkpt>
      <trkpt lat="41.162931" lon="-6.684461">
        <ele>748.758</ele>
        <time>2018-07-24T11:35:25Z</time>
      </trkpt>
      <trkpt lat="41.162896" lon="-6.68458">
        <ele>748.724</ele>
        <time>2018-07-24T11:35:26Z</time>
      </trkpt>
      <trkpt lat="41.162864" lon="-6.684701">
        <ele>748.516</ele>
        <time>2018-07-24T11:35:27Z</time>
      </trkpt>
      <trkpt lat="41.162838" lon="-6.684821">
        <ele>747.86</ele>
        <time>2018-07-24T11:35:28Z</time>
      </trkpt>
      <trkpt lat="41.162815" lon="-6.684937">
        <ele>747.444</ele>
        <time>2018-07-24T11:35:29Z</time>
      </trkpt>
      <trkpt lat="41.162797" lon="-6.68505">
        <ele>747.059</ele>
        <time>2018-07-24T11:35:30Z</time>
      </trkpt>
      <trkpt lat="41.162774" lon="-6.68516">
        <ele>746.687</ele>
        <time>2018-07-24T11:35:31Z</time>
      </trkpt>
      <trkpt lat="41.162749" lon="-6.685277">
        <ele>746.269</ele>
        <time>2018-07-24T11:35:32Z</time>
      </trkpt>
      <trkpt lat="41.162725" lon="-6.685392">
        <ele>746.26</ele>
        <time>2018-07-24T11:35:33Z</time>
      </trkpt>
      <trkpt lat="41.162695" lon="-6.685502">
        <ele>746.22</ele>
        <time>2018-07-24T11:35:34Z</time>
      </trkpt>
      <trkpt lat="41.162658" lon="-6.685607">
        <ele>746.141</ele>
        <time>2018-07-24T11:35:35Z</time>
      </trkpt>
      <trkpt lat="41.162619" lon="-6.685712">
        <ele>746.313</ele>
        <time>2018-07-24T11:35:36Z</time>
      </trkpt>
      <trkpt lat="41.162526" lon="-6.686003">
        <ele>746.786</ele>
        <time>2018-07-24T11:35:39Z</time>
      </trkpt>
      <trkpt lat="41.162515" lon="-6.686092">
        <ele>746.916</ele>
        <time>2018-07-24T11:35:40Z</time>
      </trkpt>
      <trkpt lat="41.162506" lon="-6.686183">
        <ele>747.147</ele>
        <time>2018-07-24T11:35:41Z</time>
      </trkpt>
      <trkpt lat="41.162486" lon="-6.686278">
        <ele>747.245</ele>
        <time>2018-07-24T11:35:42Z</time>
      </trkpt>
      <trkpt lat="41.162469" lon="-6.686372">
        <ele>747.272</ele>
        <time>2018-07-24T11:35:43Z</time>
      </trkpt>
      <trkpt lat="41.162453" lon="-6.686463">
        <ele>747.326</ele>
        <time>2018-07-24T11:35:44Z</time>
      </trkpt>
      <trkpt lat="41.162442" lon="-6.686552">
        <ele>747.309</ele>
        <time>2018-07-24T11:35:45Z</time>
      </trkpt>
      <trkpt lat="41.16243" lon="-6.686632">
        <ele>747.271</ele>
        <time>2018-07-24T11:35:46Z</time>
      </trkpt>
      <trkpt lat="41.162419" lon="-6.686705">
        <ele>747.247</ele>
        <time>2018-07-24T11:35:47Z</time>
      </trkpt>
      <trkpt lat="41.162411" lon="-6.686773">
        <ele>747.168</ele>
        <time>2018-07-24T11:35:48Z</time>
      </trkpt>
      <trkpt lat="41.162403" lon="-6.686827">
        <ele>747.076</ele>
        <time>2018-07-24T11:35:49Z</time>
      </trkpt>
      <trkpt lat="41.162397" lon="-6.686924">
        <ele>746.971</ele>
        <time>2018-07-24T11:35:51Z</time>
      </trkpt>
      <trkpt lat="41.1624" lon="-6.687053">
        <ele>746.508</ele>
        <time>2018-07-24T11:35:53Z</time>
      </trkpt>
      <trkpt lat="41.162402" lon="-6.687132">
        <ele>745.905</ele>
        <time>2018-07-24T11:35:54Z</time>
      </trkpt>
      <trkpt lat="41.162394" lon="-6.687199">
        <ele>745.854</ele>
        <time>2018-07-24T11:35:55Z</time>
      </trkpt>
      <trkpt lat="41.162384" lon="-6.687269">
        <ele>745.571</ele>
        <time>2018-07-24T11:35:56Z</time>
      </trkpt>
      <trkpt lat="41.162383" lon="-6.687398">
        <ele>745.097</ele>
        <time>2018-07-24T11:35:58Z</time>
      </trkpt>
      <trkpt lat="41.162379" lon="-6.687452">
        <ele>744.712</ele>
        <time>2018-07-24T11:35:59Z</time>
      </trkpt>
      <trkpt lat="41.162372" lon="-6.687519">
        <ele>744.508</ele>
        <time>2018-07-24T11:36:01Z</time>
      </trkpt>
      <trkpt lat="41.162426" lon="-6.687603">
        <ele>744.301</ele>
        <time>2018-07-24T11:36:05Z</time>
      </trkpt>
      <trkpt lat="41.162432" lon="-6.68768">
        <ele>744.104</ele>
        <time>2018-07-24T11:36:07Z</time>
      </trkpt>
      <trkpt lat="41.162489" lon="-6.687835">
        <ele>743.912</ele>
        <time>2018-07-24T11:36:10Z</time>
      </trkpt>
      <trkpt lat="41.162502" lon="-6.687875">
        <ele>743.742</ele>
        <time>2018-07-24T11:36:11Z</time>
      </trkpt>
      <trkpt lat="41.162508" lon="-6.687945">
        <ele>743.594</ele>
        <time>2018-07-24T11:36:13Z</time>
      </trkpt>
      <trkpt lat="41.162513" lon="-6.687976">
        <ele>743.581</ele>
        <time>2018-07-24T11:36:14Z</time>
      </trkpt>
      <trkpt lat="41.162517" lon="-6.688012">
        <ele>743.416</ele>
        <time>2018-07-24T11:36:15Z</time>
      </trkpt>
      <trkpt lat="41.162521" lon="-6.688091">
        <ele>743.381</ele>
        <time>2018-07-24T11:36:18Z</time>
      </trkpt>
      <trkpt lat="41.16252" lon="-6.688227">
        <ele>743.305</ele>
        <time>2018-07-24T11:36:21Z</time>
      </trkpt>
      <trkpt lat="41.16249" lon="-6.688286">
        <ele>743.196</ele>
        <time>2018-07-24T11:36:23Z</time>
      </trkpt>
      <trkpt lat="41.162472" lon="-6.688316">
        <ele>742.774</ele>
        <time>2018-07-24T11:36:24Z</time>
      </trkpt>
      <trkpt lat="41.16243" lon="-6.688364">
        <ele>742.367</ele>
        <time>2018-07-24T11:36:27Z</time>
      </trkpt>
      <trkpt lat="41.162453" lon="-6.68845">
        <ele>742.27</ele>
        <time>2018-07-24T11:36:30Z</time>
      </trkpt>
      <trkpt lat="41.162482" lon="-6.68856">
        <ele>742.155</ele>
        <time>2018-07-24T11:36:33Z</time>
      </trkpt>
      <trkpt lat="41.162525" lon="-6.688642">
        <ele>741.98</ele>
        <time>2018-07-24T11:36:36Z</time>
      </trkpt>
      <trkpt lat="41.162546" lon="-6.688763">
        <ele>741.842</ele>
        <time>2018-07-24T11:36:38Z</time>
      </trkpt>
      <trkpt lat="41.162573" lon="-6.688862">
        <ele>741.691</ele>
        <time>2018-07-24T11:36:40Z</time>
      </trkpt>
      <trkpt lat="41.162591" lon="-6.688919">
        <ele>741.509</ele>
        <time>2018-07-24T11:36:41Z</time>
      </trkpt>
      <trkpt lat="41.162621" lon="-6.689012">
        <ele>741.33</ele>
        <time>2018-07-24T11:36:43Z</time>
      </trkpt>
      <trkpt lat="41.162665" lon="-6.689135">
        <ele>740.909</ele>
        <time>2018-07-24T11:36:45Z</time>
      </trkpt>
      <trkpt lat="41.162694" lon="-6.689191">
        <ele>740.909</ele>
        <time>2018-07-24T11:36:46Z</time>
      </trkpt>
      <trkpt lat="41.162712" lon="-6.689251">
        <ele>740.909</ele>
        <time>2018-07-24T11:36:47Z</time>
      </trkpt>
      <trkpt lat="41.16273" lon="-6.689307">
        <ele>740.084</ele>
        <time>2018-07-24T11:36:48Z</time>
      </trkpt>
      <trkpt lat="41.162762" lon="-6.689364">
        <ele>739.571</ele>
        <time>2018-07-24T11:36:49Z</time>
      </trkpt>
      <trkpt lat="41.162787" lon="-6.689418">
        <ele>738.843</ele>
        <time>2018-07-24T11:36:50Z</time>
      </trkpt>
      <trkpt lat="41.162814" lon="-6.689477">
        <ele>738.507</ele>
        <time>2018-07-24T11:36:51Z</time>
      </trkpt>
      <trkpt lat="41.162833" lon="-6.689519">
        <ele>738.29</ele>
        <time>2018-07-24T11:36:52Z</time>
      </trkpt>
      <trkpt lat="41.16287" lon="-6.68961">
        <ele>737.976</ele>
        <time>2018-07-24T11:36:54Z</time>
      </trkpt>
      <trkpt lat="41.162893" lon="-6.689673">
        <ele>737.583</ele>
        <time>2018-07-24T11:36:56Z</time>
      </trkpt>
      <trkpt lat="41.162917" lon="-6.689752">
        <ele>737.118</ele>
        <time>2018-07-24T11:36:59Z</time>
      </trkpt>
      <trkpt lat="41.162929" lon="-6.689823">
        <ele>736.854</ele>
        <time>2018-07-24T11:37:02Z</time>
      </trkpt>
      <trkpt lat="41.162965" lon="-6.689874">
        <ele>736.322</ele>
        <time>2018-07-24T11:37:04Z</time>
      </trkpt>
      <trkpt lat="41.163" lon="-6.689937">
        <time>2018-07-24T11:37:07Z</time>
      </trkpt>
      <trkpt lat="41.16302" lon="-6.689993">
        <time>2018-07-24T11:37:10Z</time>
      </trkpt>
      <trkpt lat="41.163042" lon="-6.690055">
        <time>2018-07-24T11:37:13Z</time>
      </trkpt>
      <trkpt lat="41.163052" lon="-6.690128">
        <time>2018-07-24T11:37:17Z</time>
      </trkpt>
      <trkpt lat="41.163046" lon="-6.690192">
        <time>2018-07-24T11:37:20Z</time>
      </trkpt>
      <trkpt lat="41.163005" lon="-6.69024">
        <time>2018-07-24T11:37:23Z</time>
      </trkpt>
      <trkpt lat="41.162958" lon="-6.69028">
        <time>2018-07-24T11:37:26Z</time>
      </trkpt>
      <trkpt lat="41.162937" lon="-6.690289">
        <time>2018-07-24T11:37:35Z</time>
      </trkpt>
      <trkpt lat="41.162904" lon="-6.690334">
        <time>2018-07-24T11:37:40Z</time>
      </trkpt>
      <trkpt lat="41.162904" lon="-6.690334">
        <time>2018-07-24T11:37:47Z</time>
      </trkpt>
      <trkpt lat="41.162904" lon="-6.690334">
        <time>2018-07-24T11:37:48Z</time>
      </trkpt>
      <trkpt lat="41.162872" lon="-6.690394">
        <time>2018-07-24T11:38:03Z</time>
      </trkpt>
      <trkpt lat="41.16282" lon="-6.690421">
        <time>2018-07-24T11:38:07Z</time>
      </trkpt>
      <trkpt lat="41.162754" lon="-6.690411">
        <time>2018-07-24T11:38:13Z</time>
      </trkpt>
      <trkpt lat="41.162701" lon="-6.690421">
        <time>2018-07-24T11:38:16Z</time>
      </trkpt>
      <trkpt lat="41.162674" lon="-6.690425">
        <time>2018-07-24T11:38:18Z</time>
      </trkpt>
      <trkpt lat="41.162634" lon="-6.690427">
        <time>2018-07-24T11:38:21Z</time>
      </trkpt>
      <trkpt lat="41.162589" lon="-6.690392">
        <time>2018-07-24T11:38:25Z</time>
      </trkpt>
      <trkpt lat="41.162584" lon="-6.69033">
        <time>2018-07-24T11:38:30Z</time>
      </trkpt>
      <trkpt lat="41.162582" lon="-6.690285">
        <time>2018-07-24T11:38:33Z</time>
      </trkpt>
      <trkpt lat="41.162592" lon="-6.69027">
        <time>2018-07-24T11:38:42Z</time>
      </trkpt>
      <trkpt lat="41.162592" lon="-6.69027">
        <time>2018-07-24T11:39:03Z</time>
      </trkpt>
      <trkpt lat="41.162592" lon="-6.69027">
        <time>2018-07-24T11:42:12Z</time>
      </trkpt>
      <trkpt lat="41.162608" lon="-6.690294">
        <ele>759.455</ele>
        <time>2018-07-24T11:48:35Z</time>
      </trkpt>
      <trkpt lat="41.162608" lon="-6.690294">
        <ele>733.198</ele>
        <time>2018-07-24T11:48:39Z</time>
      </trkpt>
      <trkpt lat="41.162516" lon="-6.690292">
        <ele>744.112</ele>
        <time>2018-07-24T11:48:44Z</time>
      </trkpt>
      <trkpt lat="41.162492" lon="-6.690357">
        <ele>740.481</ele>
        <time>2018-07-24T11:48:58Z</time>
      </trkpt>
      <trkpt lat="41.162435" lon="-6.690365">
        <ele>739.604</ele>
        <time>2018-07-24T11:49:01Z</time>
      </trkpt>
      <trkpt lat="41.162391" lon="-6.69038">
        <ele>739.984</ele>
        <time>2018-07-24T11:49:03Z</time>
      </trkpt>
      <trkpt lat="41.162368" lon="-6.69039">
        <ele>742.12</ele>
        <time>2018-07-24T11:49:04Z</time>
      </trkpt>
      <trkpt lat="41.162306" lon="-6.690409">
        <ele>744.921</ele>
        <time>2018-07-24T11:49:07Z</time>
      </trkpt>
      <trkpt lat="41.162254" lon="-6.690438">
        <ele>745.094</ele>
        <time>2018-07-24T11:49:10Z</time>
      </trkpt>
      <trkpt lat="41.162208" lon="-6.690485">
        <ele>745.277</ele>
        <time>2018-07-24T11:49:14Z</time>
      </trkpt>
      <trkpt lat="41.162161" lon="-6.690509">
        <ele>745.388</ele>
        <time>2018-07-24T11:49:18Z</time>
      </trkpt>
      <trkpt lat="41.162139" lon="-6.690522">
        <ele>745.501</ele>
        <time>2018-07-24T11:49:20Z</time>
      </trkpt>
      <trkpt lat="41.162107" lon="-6.690538">
        <ele>745.654</ele>
        <time>2018-07-24T11:49:23Z</time>
      </trkpt>
      <trkpt lat="41.162063" lon="-6.690563">
        <ele>745.776</ele>
        <time>2018-07-24T11:49:27Z</time>
      </trkpt>
      <trkpt lat="41.162029" lon="-6.690586">
        <ele>745.84</ele>
        <time>2018-07-24T11:49:30Z</time>
      </trkpt>
      <trkpt lat="41.161996" lon="-6.690609">
        <ele>745.921</ele>
        <time>2018-07-24T11:49:32Z</time>
      </trkpt>
      <trkpt lat="41.161946" lon="-6.690648">
        <ele>745.996</ele>
        <time>2018-07-24T11:49:35Z</time>
      </trkpt>
      <trkpt lat="41.161897" lon="-6.690668">
        <ele>746.07</ele>
        <time>2018-07-24T11:49:38Z</time>
      </trkpt>
      <trkpt lat="41.161842" lon="-6.690707">
        <ele>746.092</ele>
        <time>2018-07-24T11:49:42Z</time>
      </trkpt>
      <trkpt lat="41.161807" lon="-6.69073">
        <ele>746.122</ele>
        <time>2018-07-24T11:49:44Z</time>
      </trkpt>
      <trkpt lat="41.161754" lon="-6.690737">
        <ele>746.139</ele>
        <time>2018-07-24T11:49:47Z</time>
      </trkpt>
      <trkpt lat="41.161724" lon="-6.690743">
        <ele>746.144</ele>
        <time>2018-07-24T11:49:49Z</time>
      </trkpt>
      <trkpt lat="41.161698" lon="-6.690747">
        <ele>746.137</ele>
        <time>2018-07-24T11:49:50Z</time>
      </trkpt>
      <trkpt lat="41.161655" lon="-6.690768">
        <ele>746.116</ele>
        <time>2018-07-24T11:49:53Z</time>
      </trkpt>
      <trkpt lat="41.161609" lon="-6.690797">
        <ele>746.08</ele>
        <time>2018-07-24T11:49:56Z</time>
      </trkpt>
      <trkpt lat="41.161587" lon="-6.690815">
        <ele>745.97</ele>
        <time>2018-07-24T11:49:58Z</time>
      </trkpt>
      <trkpt lat="41.161538" lon="-6.690869">
        <ele>745.859</ele>
        <time>2018-07-24T11:50:01Z</time>
      </trkpt>
      <trkpt lat="41.161496" lon="-6.690904">
        <ele>745.779</ele>
        <time>2018-07-24T11:50:04Z</time>
      </trkpt>
      <trkpt lat="41.161466" lon="-6.690928">
        <ele>745.694</ele>
        <time>2018-07-24T11:50:06Z</time>
      </trkpt>
      <trkpt lat="41.16143" lon="-6.690952">
        <ele>745.515</ele>
        <time>2018-07-24T11:50:08Z</time>
      </trkpt>
      <trkpt lat="41.161375" lon="-6.69098">
        <ele>745.335</ele>
        <time>2018-07-24T11:50:12Z</time>
      </trkpt>
      <trkpt lat="41.161329" lon="-6.691023">
        <ele>745.208</ele>
        <time>2018-07-24T11:50:16Z</time>
      </trkpt>
      <trkpt lat="41.161278" lon="-6.691066">
        <ele>745.128</ele>
        <time>2018-07-24T11:50:19Z</time>
      </trkpt>
      <trkpt lat="41.161247" lon="-6.691091">
        <ele>745.044</ele>
        <time>2018-07-24T11:50:21Z</time>
      </trkpt>
      <trkpt lat="41.161216" lon="-6.691111">
        <ele>744.954</ele>
        <time>2018-07-24T11:50:23Z</time>
      </trkpt>
      <trkpt lat="41.161186" lon="-6.691128">
        <ele>744.828</ele>
        <time>2018-07-24T11:50:25Z</time>
      </trkpt>
      <trkpt lat="41.161138" lon="-6.691141">
        <ele>744.753</ele>
        <time>2018-07-24T11:50:28Z</time>
      </trkpt>
      <trkpt lat="41.1611" lon="-6.691155">
        <ele>744.641</ele>
        <time>2018-07-24T11:50:30Z</time>
      </trkpt>
      <trkpt lat="41.161044" lon="-6.691174">
        <ele>744.565</ele>
        <time>2018-07-24T11:50:33Z</time>
      </trkpt>
      <trkpt lat="41.16101" lon="-6.691186">
        <ele>744.48</ele>
        <time>2018-07-24T11:50:35Z</time>
      </trkpt>
      <trkpt lat="41.160962" lon="-6.691217">
        <ele>744.393</ele>
        <time>2018-07-24T11:50:37Z</time>
      </trkpt>
      <trkpt lat="41.16091" lon="-6.691269">
        <ele>744.347</ele>
        <time>2018-07-24T11:50:39Z</time>
      </trkpt>
      <trkpt lat="41.16088" lon="-6.691298">
        <ele>744.297</ele>
        <time>2018-07-24T11:50:40Z</time>
      </trkpt>
      <trkpt lat="41.160849" lon="-6.691325">
        <ele>744.247</ele>
        <time>2018-07-24T11:50:41Z</time>
      </trkpt>
      <trkpt lat="41.160818" lon="-6.691348">
        <ele>744.198</ele>
        <time>2018-07-24T11:50:42Z</time>
      </trkpt>
      <trkpt lat="41.160789" lon="-6.691375">
        <ele>743.01</ele>
        <time>2018-07-24T11:50:43Z</time>
      </trkpt>
      <trkpt lat="41.160698" lon="-6.69149">
        <ele>742.719</ele>
        <time>2018-07-24T11:50:46Z</time>
      </trkpt>
      <trkpt lat="41.160663" lon="-6.69154">
        <ele>742.469</ele>
        <time>2018-07-24T11:50:47Z</time>
      </trkpt>
      <trkpt lat="41.160625" lon="-6.691591">
        <ele>742.245</ele>
        <time>2018-07-24T11:50:48Z</time>
      </trkpt>
      <trkpt lat="41.160589" lon="-6.691639">
        <ele>742.071</ele>
        <time>2018-07-24T11:50:49Z</time>
      </trkpt>
      <trkpt lat="41.160551" lon="-6.691683">
        <ele>741.911</ele>
        <time>2018-07-24T11:50:50Z</time>
      </trkpt>
      <trkpt lat="41.160514" lon="-6.691724">
        <ele>741.642</ele>
        <time>2018-07-24T11:50:51Z</time>
      </trkpt>
      <trkpt lat="41.160449" lon="-6.691791">
        <ele>741.628</ele>
        <time>2018-07-24T11:50:53Z</time>
      </trkpt>
      <trkpt lat="41.16042" lon="-6.691825">
        <ele>741.612</ele>
        <time>2018-07-24T11:50:54Z</time>
      </trkpt>
      <trkpt lat="41.160395" lon="-6.691855">
        <ele>741.597</ele>
        <time>2018-07-24T11:50:55Z</time>
      </trkpt>
      <trkpt lat="41.16037" lon="-6.691883">
        <ele>741.583</ele>
        <time>2018-07-24T11:50:56Z</time>
      </trkpt>
      <trkpt lat="41.160347" lon="-6.691906">
        <ele>741.571</ele>
        <time>2018-07-24T11:50:57Z</time>
      </trkpt>
      <trkpt lat="41.160326" lon="-6.691924">
        <ele>741.546</ele>
        <time>2018-07-24T11:50:58Z</time>
      </trkpt>
      <trkpt lat="41.160291" lon="-6.691956">
        <ele>741.496</ele>
        <time>2018-07-24T11:51:00Z</time>
      </trkpt>
      <trkpt lat="41.160272" lon="-6.691973">
        <ele>741.439</ele>
        <time>2018-07-24T11:51:03Z</time>
      </trkpt>
      <trkpt lat="41.16025" lon="-6.691995">
        <ele>740.8</ele>
        <time>2018-07-24T11:51:07Z</time>
      </trkpt>
      <trkpt lat="41.160215" lon="-6.692032">
        <ele>740.682</ele>
        <time>2018-07-24T11:51:57Z</time>
      </trkpt>
      <trkpt lat="41.160169" lon="-6.692064">
        <ele>740.621</ele>
        <time>2018-07-24T11:51:59Z</time>
      </trkpt>
      <trkpt lat="41.160146" lon="-6.692079">
        <ele>740.437</ele>
        <time>2018-07-24T11:52:00Z</time>
      </trkpt>
      <trkpt lat="41.160082" lon="-6.692116">
        <ele>740.314</ele>
        <time>2018-07-24T11:52:03Z</time>
      </trkpt>
      <trkpt lat="41.160045" lon="-6.692141">
        <ele>740.131</ele>
        <time>2018-07-24T11:52:05Z</time>
      </trkpt>
      <trkpt lat="41.159985" lon="-6.692168">
        <ele>739.955</ele>
        <time>2018-07-24T11:52:08Z</time>
      </trkpt>
      <trkpt lat="41.159922" lon="-6.692197">
        <ele>739.787</ele>
        <time>2018-07-24T11:52:11Z</time>
      </trkpt>
      <trkpt lat="41.15987" lon="-6.69223">
        <ele>739.627</ele>
        <time>2018-07-24T11:52:14Z</time>
      </trkpt>
      <trkpt lat="41.159817" lon="-6.692262">
        <ele>739.522</ele>
        <time>2018-07-24T11:52:17Z</time>
      </trkpt>
      <trkpt lat="41.159784" lon="-6.692282">
        <ele>739.422</ele>
        <time>2018-07-24T11:52:19Z</time>
      </trkpt>
      <trkpt lat="41.15975" lon="-6.692302">
        <ele>739.28</ele>
        <time>2018-07-24T11:52:21Z</time>
      </trkpt>
      <trkpt lat="41.1597" lon="-6.692342">
        <ele>739.145</ele>
        <time>2018-07-24T11:52:24Z</time>
      </trkpt>
      <trkpt lat="41.159652" lon="-6.692375">
        <ele>739.023</ele>
        <time>2018-07-24T11:52:27Z</time>
      </trkpt>
      <trkpt lat="41.159609" lon="-6.692395">
        <ele>738.901</ele>
        <time>2018-07-24T11:52:30Z</time>
      </trkpt>
      <trkpt lat="41.159554" lon="-6.692427">
        <ele>738.78</ele>
        <time>2018-07-24T11:52:33Z</time>
      </trkpt>
      <trkpt lat="41.159518" lon="-6.692466">
        <ele>738.66</ele>
        <time>2018-07-24T11:52:36Z</time>
      </trkpt>
      <trkpt lat="41.159476" lon="-6.692497">
        <ele>738.542</ele>
        <time>2018-07-24T11:52:39Z</time>
      </trkpt>
      <trkpt lat="41.159432" lon="-6.692541">
        <ele>738.435</ele>
        <time>2018-07-24T11:52:42Z</time>
      </trkpt>
      <trkpt lat="41.159395" lon="-6.692591">
        <ele>738.364</ele>
        <time>2018-07-24T11:52:45Z</time>
      </trkpt>
      <trkpt lat="41.159375" lon="-6.692617">
        <ele>738.295</ele>
        <time>2018-07-24T11:52:47Z</time>
      </trkpt>
      <trkpt lat="41.159353" lon="-6.692644">
        <ele>738.175</ele>
        <time>2018-07-24T11:52:49Z</time>
      </trkpt>
      <trkpt lat="41.159316" lon="-6.692686">
        <ele>738.095</ele>
        <time>2018-07-24T11:52:53Z</time>
      </trkpt>
      <trkpt lat="41.159281" lon="-6.692744">
        <ele>737.998</ele>
        <time>2018-07-24T11:52:56Z</time>
      </trkpt>
      <trkpt lat="41.159239" lon="-6.692792">
        <ele>737.941</ele>
        <time>2018-07-24T11:53:00Z</time>
      </trkpt>
      <trkpt lat="41.159198" lon="-6.692829">
        <ele>737.907</ele>
        <time>2018-07-24T11:53:03Z</time>
      </trkpt>
      <trkpt lat="41.159168" lon="-6.69286">
        <ele>737.877</ele>
        <time>2018-07-24T11:53:05Z</time>
      </trkpt>
      <trkpt lat="41.159147" lon="-6.692885">
        <ele>737.851</ele>
        <time>2018-07-24T11:53:07Z</time>
      </trkpt>
      <trkpt lat="41.159125" lon="-6.692916">
        <ele>737.828</ele>
        <time>2018-07-24T11:53:09Z</time>
      </trkpt>
      <trkpt lat="41.159104" lon="-6.692948">
        <ele>737.805</ele>
        <time>2018-07-24T11:53:11Z</time>
      </trkpt>
      <trkpt lat="41.159084" lon="-6.692982">
        <ele>737.775</ele>
        <time>2018-07-24T11:53:13Z</time>
      </trkpt>
      <trkpt lat="41.159072" lon="-6.69306">
        <ele>737.746</ele>
        <time>2018-07-24T11:53:16Z</time>
      </trkpt>
      <trkpt lat="41.159066" lon="-6.693136">
        <ele>737.717</ele>
        <time>2018-07-24T11:53:19Z</time>
      </trkpt>
      <trkpt lat="41.159046" lon="-6.693232">
        <ele>737.706</ele>
        <time>2018-07-24T11:53:23Z</time>
      </trkpt>
      <trkpt lat="41.159032" lon="-6.693282">
        <ele>737.688</ele>
        <time>2018-07-24T11:53:25Z</time>
      </trkpt>
      <trkpt lat="41.15902" lon="-6.693324">
        <ele>737.677</ele>
        <time>2018-07-24T11:53:28Z</time>
      </trkpt>
      <trkpt lat="41.159012" lon="-6.693353">
        <ele>737.665</ele>
        <time>2018-07-24T11:53:30Z</time>
      </trkpt>
      <trkpt lat="41.159001" lon="-6.693394">
        <ele>737.663</ele>
        <time>2018-07-24T11:53:33Z</time>
      </trkpt>
      <trkpt lat="41.158971" lon="-6.693457">
        <ele>737.665</ele>
        <time>2018-07-24T11:53:37Z</time>
      </trkpt>
      <trkpt lat="41.158955" lon="-6.693493">
        <ele>737.667</ele>
        <time>2018-07-24T11:53:39Z</time>
      </trkpt>
      <trkpt lat="41.15892" lon="-6.693558">
        <ele>737.668</ele>
        <time>2018-07-24T11:53:43Z</time>
      </trkpt>
      <trkpt lat="41.1589" lon="-6.693589">
        <ele>737.67</ele>
        <time>2018-07-24T11:53:45Z</time>
      </trkpt>
      <trkpt lat="41.158878" lon="-6.693623">
        <ele>737.676</ele>
        <time>2018-07-24T11:53:47Z</time>
      </trkpt>
      <trkpt lat="41.158854" lon="-6.693663">
        <ele>737.685</ele>
        <time>2018-07-24T11:53:49Z</time>
      </trkpt>
      <trkpt lat="41.158835" lon="-6.693696">
        <ele>737.693</ele>
        <time>2018-07-24T11:53:51Z</time>
      </trkpt>
      <trkpt lat="41.158814" lon="-6.693734">
        <ele>737.704</ele>
        <time>2018-07-24T11:53:53Z</time>
      </trkpt>
      <trkpt lat="41.158765" lon="-6.693792">
        <ele>737.708</ele>
        <time>2018-07-24T11:53:56Z</time>
      </trkpt>
      <trkpt lat="41.158746" lon="-6.693814">
        <ele>737.716</ele>
        <time>2018-07-24T11:53:57Z</time>
      </trkpt>
      <trkpt lat="41.158715" lon="-6.69385">
        <ele>737.733</ele>
        <time>2018-07-24T11:53:59Z</time>
      </trkpt>
      <trkpt lat="41.158646" lon="-6.693906">
        <ele>737.74</ele>
        <time>2018-07-24T11:54:03Z</time>
      </trkpt>
      <trkpt lat="41.158608" lon="-6.693934">
        <ele>737.745</ele>
        <time>2018-07-24T11:54:05Z</time>
      </trkpt>
      <trkpt lat="41.158587" lon="-6.693949">
        <ele>737.751</ele>
        <time>2018-07-24T11:54:06Z</time>
      </trkpt>
      <trkpt lat="41.158564" lon="-6.693962">
        <ele>737.762</ele>
        <time>2018-07-24T11:54:07Z</time>
      </trkpt>
      <trkpt lat="41.158524" lon="-6.693994">
        <ele>737.768</ele>
        <time>2018-07-24T11:54:09Z</time>
      </trkpt>
      <trkpt lat="41.158501" lon="-6.694015">
        <ele>737.774</ele>
        <time>2018-07-24T11:54:10Z</time>
      </trkpt>
      <trkpt lat="41.158477" lon="-6.694033">
        <ele>737.78</ele>
        <time>2018-07-24T11:54:11Z</time>
      </trkpt>
      <trkpt lat="41.15845" lon="-6.69405">
        <ele>737.783</ele>
        <time>2018-07-24T11:54:12Z</time>
      </trkpt>
      <trkpt lat="41.158424" lon="-6.694068">
        <ele>737.789</ele>
        <time>2018-07-24T11:54:13Z</time>
      </trkpt>
      <trkpt lat="41.158368" lon="-6.694095">
        <ele>737.793</ele>
        <time>2018-07-24T11:54:15Z</time>
      </trkpt>
      <trkpt lat="41.158334" lon="-6.694115">
        <ele>737.796</ele>
        <time>2018-07-24T11:54:16Z</time>
      </trkpt>
      <trkpt lat="41.158299" lon="-6.694135">
        <ele>737.798</ele>
        <time>2018-07-24T11:54:17Z</time>
      </trkpt>
      <trkpt lat="41.158265" lon="-6.694155">
        <ele>737.82</ele>
        <time>2018-07-24T11:54:18Z</time>
      </trkpt>
      <trkpt lat="41.158227" lon="-6.694172">
        <ele>737.836</ele>
        <time>2018-07-24T11:54:19Z</time>
      </trkpt>
      <trkpt lat="41.158186" lon="-6.694192">
        <ele>737.843</ele>
        <time>2018-07-24T11:54:20Z</time>
      </trkpt>
      <trkpt lat="41.158138" lon="-6.694213">
        <ele>737.85</ele>
        <time>2018-07-24T11:54:21Z</time>
      </trkpt>
      <trkpt lat="41.15809" lon="-6.694236">
        <ele>737.86</ele>
        <time>2018-07-24T11:54:22Z</time>
      </trkpt>
      <trkpt lat="41.158041" lon="-6.694265">
        <ele>737.859</ele>
        <time>2018-07-24T11:54:23Z</time>
      </trkpt>
      <trkpt lat="41.157992" lon="-6.6943">
        <ele>737.865</ele>
        <time>2018-07-24T11:54:24Z</time>
      </trkpt>
      <trkpt lat="41.157943" lon="-6.694337">
        <ele>737.874</ele>
        <time>2018-07-24T11:54:25Z</time>
      </trkpt>
      <trkpt lat="41.157894" lon="-6.69437">
        <ele>737.873</ele>
        <time>2018-07-24T11:54:26Z</time>
      </trkpt>
      <trkpt lat="41.157844" lon="-6.694406">
        <ele>737.87</ele>
        <time>2018-07-24T11:54:27Z</time>
      </trkpt>
      <trkpt lat="41.157791" lon="-6.694436">
        <ele>737.863</ele>
        <time>2018-07-24T11:54:28Z</time>
      </trkpt>
      <trkpt lat="41.157737" lon="-6.694473">
        <ele>737.857</ele>
        <time>2018-07-24T11:54:29Z</time>
      </trkpt>
      <trkpt lat="41.157684" lon="-6.694509">
        <ele>737.82</ele>
        <time>2018-07-24T11:54:30Z</time>
      </trkpt>
      <trkpt lat="41.157574" lon="-6.69459">
        <ele>737.793</ele>
        <time>2018-07-24T11:54:32Z</time>
      </trkpt>
      <trkpt lat="41.15752" lon="-6.694632">
        <ele>737.774</ele>
        <time>2018-07-24T11:54:33Z</time>
      </trkpt>
      <trkpt lat="41.157467" lon="-6.694674">
        <ele>737.751</ele>
        <time>2018-07-24T11:54:34Z</time>
      </trkpt>
      <trkpt lat="41.157412" lon="-6.694725">
        <ele>737.738</ele>
        <time>2018-07-24T11:54:35Z</time>
      </trkpt>
      <trkpt lat="41.157356" lon="-6.694774">
        <ele>737.736</ele>
        <time>2018-07-24T11:54:36Z</time>
      </trkpt>
      <trkpt lat="41.157233" lon="-6.694884">
        <ele>737.754</ele>
        <time>2018-07-24T11:54:38Z</time>
      </trkpt>
      <trkpt lat="41.157173" lon="-6.694938">
        <ele>737.777</ele>
        <time>2018-07-24T11:54:39Z</time>
      </trkpt>
      <trkpt lat="41.157112" lon="-6.694996">
        <ele>737.798</ele>
        <time>2018-07-24T11:54:40Z</time>
      </trkpt>
      <trkpt lat="41.157054" lon="-6.695058">
        <ele>737.802</ele>
        <time>2018-07-24T11:54:41Z</time>
      </trkpt>
      <trkpt lat="41.156998" lon="-6.69512">
        <ele>737.773</ele>
        <time>2018-07-24T11:54:42Z</time>
      </trkpt>
      <trkpt lat="41.156943" lon="-6.695183">
        <ele>737.774</ele>
        <time>2018-07-24T11:54:43Z</time>
      </trkpt>
      <trkpt lat="41.156889" lon="-6.695244">
        <ele>737.792</ele>
        <time>2018-07-24T11:54:44Z</time>
      </trkpt>
      <trkpt lat="41.156832" lon="-6.695302">
        <ele>737.764</ele>
        <time>2018-07-24T11:54:45Z</time>
      </trkpt>
      <trkpt lat="41.156778" lon="-6.695367">
        <ele>737.715</ele>
        <time>2018-07-24T11:54:46Z</time>
      </trkpt>
      <trkpt lat="41.156723" lon="-6.695428">
        <ele>737.676</ele>
        <time>2018-07-24T11:54:47Z</time>
      </trkpt>
      <trkpt lat="41.156669" lon="-6.695483">
        <ele>737.524</ele>
        <time>2018-07-24T11:54:48Z</time>
      </trkpt>
      <trkpt lat="41.156615" lon="-6.69554">
        <ele>737.489</ele>
        <time>2018-07-24T11:54:49Z</time>
      </trkpt>
      <trkpt lat="41.156515" lon="-6.695644">
        <ele>737.405</ele>
        <time>2018-07-24T11:54:51Z</time>
      </trkpt>
      <trkpt lat="41.156464" lon="-6.695692">
        <ele>737.372</ele>
        <time>2018-07-24T11:54:52Z</time>
      </trkpt>
      <trkpt lat="41.156411" lon="-6.695728">
        <ele>737.389</ele>
        <time>2018-07-24T11:54:53Z</time>
      </trkpt>
      <trkpt lat="41.15636" lon="-6.695766">
        <ele>737.355</ele>
        <time>2018-07-24T11:54:54Z</time>
      </trkpt>
      <trkpt lat="41.156311" lon="-6.695809">
        <ele>737.333</ele>
        <time>2018-07-24T11:54:55Z</time>
      </trkpt>
      <trkpt lat="41.156264" lon="-6.695865">
        <ele>737.229</ele>
        <time>2018-07-24T11:54:56Z</time>
      </trkpt>
      <trkpt lat="41.156219" lon="-6.695932">
        <ele>737.028</ele>
        <time>2018-07-24T11:54:57Z</time>
      </trkpt>
      <trkpt lat="41.156174" lon="-6.696005">
        <ele>736.784</ele>
        <time>2018-07-24T11:54:58Z</time>
      </trkpt>
      <trkpt lat="41.156127" lon="-6.696075">
        <ele>736.651</ele>
        <time>2018-07-24T11:54:59Z</time>
      </trkpt>
      <trkpt lat="41.156078" lon="-6.696135">
        <ele>736.492</ele>
        <time>2018-07-24T11:55:00Z</time>
      </trkpt>
      <trkpt lat="41.15602" lon="-6.696192">
        <ele>736.355</ele>
        <time>2018-07-24T11:55:01Z</time>
      </trkpt>
      <trkpt lat="41.155958" lon="-6.696241">
        <ele>736.224</ele>
        <time>2018-07-24T11:55:02Z</time>
      </trkpt>
      <trkpt lat="41.155894" lon="-6.696284">
        <ele>735.899</ele>
        <time>2018-07-24T11:55:03Z</time>
      </trkpt>
      <trkpt lat="41.155828" lon="-6.696332">
        <ele>735.52</ele>
        <time>2018-07-24T11:55:04Z</time>
      </trkpt>
      <trkpt lat="41.155762" lon="-6.696383">
        <ele>735.108</ele>
        <time>2018-07-24T11:55:05Z</time>
      </trkpt>
      <trkpt lat="41.155694" lon="-6.696438">
        <ele>734.387</ele>
        <time>2018-07-24T11:55:06Z</time>
      </trkpt>
      <trkpt lat="41.15555" lon="-6.69655">
        <ele>734.066</ele>
        <time>2018-07-24T11:55:08Z</time>
      </trkpt>
      <trkpt lat="41.155474" lon="-6.696607">
        <ele>733.812</ele>
        <time>2018-07-24T11:55:09Z</time>
      </trkpt>
      <trkpt lat="41.155404" lon="-6.696674">
        <ele>733.542</ele>
        <time>2018-07-24T11:55:10Z</time>
      </trkpt>
      <trkpt lat="41.155344" lon="-6.69675">
        <ele>733.282</ele>
        <time>2018-07-24T11:55:11Z</time>
      </trkpt>
      <trkpt lat="41.155286" lon="-6.696826">
        <ele>733.063</ele>
        <time>2018-07-24T11:55:12Z</time>
      </trkpt>
      <trkpt lat="41.155232" lon="-6.696905">
        <ele>732.904</ele>
        <time>2018-07-24T11:55:13Z</time>
      </trkpt>
      <trkpt lat="41.155183" lon="-6.696986">
        <ele>732.704</ele>
        <time>2018-07-24T11:55:14Z</time>
      </trkpt>
      <trkpt lat="41.155139" lon="-6.697068">
        <ele>732.598</ele>
        <time>2018-07-24T11:55:15Z</time>
      </trkpt>
      <trkpt lat="41.155095" lon="-6.697146">
        <ele>732.415</ele>
        <time>2018-07-24T11:55:16Z</time>
      </trkpt>
      <trkpt lat="41.15505" lon="-6.697226">
        <ele>732.156</ele>
        <time>2018-07-24T11:55:17Z</time>
      </trkpt>
      <trkpt lat="41.155001" lon="-6.697299">
        <ele>731.741</ele>
        <time>2018-07-24T11:55:18Z</time>
      </trkpt>
      <trkpt lat="41.154943" lon="-6.697364">
        <ele>731.343</ele>
        <time>2018-07-24T11:55:19Z</time>
      </trkpt>
      <trkpt lat="41.154883" lon="-6.697427">
        <ele>730.995</ele>
        <time>2018-07-24T11:55:20Z</time>
      </trkpt>
      <trkpt lat="41.154824" lon="-6.697487">
        <ele>730.706</ele>
        <time>2018-07-24T11:55:21Z</time>
      </trkpt>
      <trkpt lat="41.154765" lon="-6.697542">
        <ele>730.485</ele>
        <time>2018-07-24T11:55:22Z</time>
      </trkpt>
      <trkpt lat="41.154708" lon="-6.697594">
        <ele>730.339</ele>
        <time>2018-07-24T11:55:23Z</time>
      </trkpt>
      <trkpt lat="41.154649" lon="-6.697638">
        <ele>730.355</ele>
        <time>2018-07-24T11:55:24Z</time>
      </trkpt>
      <trkpt lat="41.154591" lon="-6.69768">
        <ele>730.384</ele>
        <time>2018-07-24T11:55:25Z</time>
      </trkpt>
      <trkpt lat="41.154533" lon="-6.697719">
        <ele>730.479</ele>
        <time>2018-07-24T11:55:26Z</time>
      </trkpt>
      <trkpt lat="41.154478" lon="-6.697756">
        <ele>730.566</ele>
        <time>2018-07-24T11:55:27Z</time>
      </trkpt>
      <trkpt lat="41.154422" lon="-6.697788">
        <ele>730.623</ele>
        <time>2018-07-24T11:55:28Z</time>
      </trkpt>
      <trkpt lat="41.154369" lon="-6.697823">
        <ele>730.761</ele>
        <time>2018-07-24T11:55:29Z</time>
      </trkpt>
      <trkpt lat="41.154319" lon="-6.697854">
        <ele>730.742</ele>
        <time>2018-07-24T11:55:30Z</time>
      </trkpt>
      <trkpt lat="41.154273" lon="-6.697883">
        <ele>730.719</ele>
        <time>2018-07-24T11:55:31Z</time>
      </trkpt>
      <trkpt lat="41.154227" lon="-6.697916">
        <ele>730.676</ele>
        <time>2018-07-24T11:55:32Z</time>
      </trkpt>
      <trkpt lat="41.154181" lon="-6.697951">
        <ele>730.622</ele>
        <time>2018-07-24T11:55:33Z</time>
      </trkpt>
      <trkpt lat="41.154133" lon="-6.697989">
        <ele>730.553</ele>
        <time>2018-07-24T11:55:34Z</time>
      </trkpt>
      <trkpt lat="41.15409" lon="-6.698024">
        <ele>730.496</ele>
        <time>2018-07-24T11:55:35Z</time>
      </trkpt>
      <trkpt lat="41.154042" lon="-6.698062">
        <ele>730.451</ele>
        <time>2018-07-24T11:55:36Z</time>
      </trkpt>
      <trkpt lat="41.153992" lon="-6.698098">
        <ele>730.41</ele>
        <time>2018-07-24T11:55:37Z</time>
      </trkpt>
      <trkpt lat="41.153943" lon="-6.698133">
        <ele>730.367</ele>
        <time>2018-07-24T11:55:38Z</time>
      </trkpt>
      <trkpt lat="41.153895" lon="-6.698166">
        <ele>730.327</ele>
        <time>2018-07-24T11:55:39Z</time>
      </trkpt>
      <trkpt lat="41.153846" lon="-6.698199">
        <ele>730.277</ele>
        <time>2018-07-24T11:55:40Z</time>
      </trkpt>
      <trkpt lat="41.153791" lon="-6.698226">
        <ele>730.138</ele>
        <time>2018-07-24T11:55:41Z</time>
      </trkpt>
      <trkpt lat="41.153734" lon="-6.69825">
        <ele>730.004</ele>
        <time>2018-07-24T11:55:42Z</time>
      </trkpt>
      <trkpt lat="41.153675" lon="-6.698279">
        <ele>730.113</ele>
        <time>2018-07-24T11:55:43Z</time>
      </trkpt>
      <trkpt lat="41.15362" lon="-6.698304">
        <ele>730.159</ele>
        <time>2018-07-24T11:55:44Z</time>
      </trkpt>
      <trkpt lat="41.153564" lon="-6.698325">
        <ele>730.152</ele>
        <time>2018-07-24T11:55:45Z</time>
      </trkpt>
      <trkpt lat="41.15351" lon="-6.698348">
        <ele>730.134</ele>
        <time>2018-07-24T11:55:46Z</time>
      </trkpt>
      <trkpt lat="41.153458" lon="-6.698372">
        <ele>730.106</ele>
        <time>2018-07-24T11:55:47Z</time>
      </trkpt>
      <trkpt lat="41.153408" lon="-6.698399">
        <ele>730.03</ele>
        <time>2018-07-24T11:55:48Z</time>
      </trkpt>
      <trkpt lat="41.153357" lon="-6.698428">
        <ele>729.765</ele>
        <time>2018-07-24T11:55:49Z</time>
      </trkpt>
      <trkpt lat="41.153248" lon="-6.698485">
        <ele>729.462</ele>
        <time>2018-07-24T11:55:51Z</time>
      </trkpt>
      <trkpt lat="41.153145" lon="-6.698535">
        <ele>729.283</ele>
        <time>2018-07-24T11:55:53Z</time>
      </trkpt>
      <trkpt lat="41.153093" lon="-6.698559">
        <ele>729.109</ele>
        <time>2018-07-24T11:55:54Z</time>
      </trkpt>
      <trkpt lat="41.153041" lon="-6.698584">
        <ele>729.071</ele>
        <time>2018-07-24T11:55:55Z</time>
      </trkpt>
      <trkpt lat="41.15299" lon="-6.698607">
        <ele>729.042</ele>
        <time>2018-07-24T11:55:56Z</time>
      </trkpt>
      <trkpt lat="41.152939" lon="-6.698631">
        <ele>728.981</ele>
        <time>2018-07-24T11:55:57Z</time>
      </trkpt>
      <trkpt lat="41.15289" lon="-6.698653">
        <ele>728.911</ele>
        <time>2018-07-24T11:55:58Z</time>
      </trkpt>
      <trkpt lat="41.152841" lon="-6.698674">
        <ele>728.825</ele>
        <time>2018-07-24T11:55:59Z</time>
      </trkpt>
      <trkpt lat="41.152794" lon="-6.69869">
        <ele>728.776</ele>
        <time>2018-07-24T11:56:00Z</time>
      </trkpt>
      <trkpt lat="41.152748" lon="-6.698708">
        <ele>728.707</ele>
        <time>2018-07-24T11:56:01Z</time>
      </trkpt>
      <trkpt lat="41.152702" lon="-6.698729">
        <ele>728.634</ele>
        <time>2018-07-24T11:56:02Z</time>
      </trkpt>
      <trkpt lat="41.15266" lon="-6.698748">
        <ele>728.549</ele>
        <time>2018-07-24T11:56:03Z</time>
      </trkpt>
      <trkpt lat="41.152616" lon="-6.698768">
        <ele>728.447</ele>
        <time>2018-07-24T11:56:04Z</time>
      </trkpt>
      <trkpt lat="41.152572" lon="-6.698793">
        <ele>728.37</ele>
        <time>2018-07-24T11:56:05Z</time>
      </trkpt>
      <trkpt lat="41.152533" lon="-6.698817">
        <ele>728.354</ele>
        <time>2018-07-24T11:56:06Z</time>
      </trkpt>
      <trkpt lat="41.152499" lon="-6.69884">
        <ele>728.36</ele>
        <time>2018-07-24T11:56:07Z</time>
      </trkpt>
      <trkpt lat="41.152466" lon="-6.698866">
        <ele>728.367</ele>
        <time>2018-07-24T11:56:08Z</time>
      </trkpt>
      <trkpt lat="41.152433" lon="-6.698895">
        <ele>728.396</ele>
        <time>2018-07-24T11:56:09Z</time>
      </trkpt>
      <trkpt lat="41.152404" lon="-6.698921">
        <ele>728.406</ele>
        <time>2018-07-24T11:56:10Z</time>
      </trkpt>
      <trkpt lat="41.152374" lon="-6.698946">
        <ele>728.407</ele>
        <time>2018-07-24T11:56:11Z</time>
      </trkpt>
      <trkpt lat="41.152344" lon="-6.698971">
        <ele>728.413</ele>
        <time>2018-07-24T11:56:12Z</time>
      </trkpt>
      <trkpt lat="41.152315" lon="-6.698994">
        <ele>728.419</ele>
        <time>2018-07-24T11:56:13Z</time>
      </trkpt>
      <trkpt lat="41.152287" lon="-6.699018">
        <ele>728.426</ele>
        <time>2018-07-24T11:56:14Z</time>
      </trkpt>
      <trkpt lat="41.152259" lon="-6.699041">
        <ele>728.433</ele>
        <time>2018-07-24T11:56:15Z</time>
      </trkpt>
      <trkpt lat="41.152232" lon="-6.699063">
        <ele>728.456</ele>
        <time>2018-07-24T11:56:16Z</time>
      </trkpt>
      <trkpt lat="41.152183" lon="-6.699111">
        <ele>728.466</ele>
        <time>2018-07-24T11:56:18Z</time>
      </trkpt>
      <trkpt lat="41.152159" lon="-6.699138">
        <ele>728.505</ele>
        <time>2018-07-24T11:56:19Z</time>
      </trkpt>
      <trkpt lat="41.152088" lon="-6.699203">
        <ele>728.52</ele>
        <time>2018-07-24T11:56:22Z</time>
      </trkpt>
      <trkpt lat="41.152064" lon="-6.699222">
        <ele>728.534</ele>
        <time>2018-07-24T11:56:23Z</time>
      </trkpt>
      <trkpt lat="41.152042" lon="-6.69924">
        <ele>728.548</ele>
        <time>2018-07-24T11:56:24Z</time>
      </trkpt>
      <trkpt lat="41.152018" lon="-6.69926">
        <ele>728.562</ele>
        <time>2018-07-24T11:56:25Z</time>
      </trkpt>
      <trkpt lat="41.151999" lon="-6.699279">
        <ele>728.576</ele>
        <time>2018-07-24T11:56:26Z</time>
      </trkpt>
      <trkpt lat="41.151978" lon="-6.699301">
        <ele>728.591</ele>
        <time>2018-07-24T11:56:27Z</time>
      </trkpt>
      <trkpt lat="41.151959" lon="-6.699321">
        <ele>728.62</ele>
        <time>2018-07-24T11:56:28Z</time>
      </trkpt>
      <trkpt lat="41.15192" lon="-6.699366">
        <ele>728.634</ele>
        <time>2018-07-24T11:56:30Z</time>
      </trkpt>
      <trkpt lat="41.151897" lon="-6.69939">
        <ele>728.649</ele>
        <time>2018-07-24T11:56:31Z</time>
      </trkpt>
      <trkpt lat="41.151878" lon="-6.69941">
        <ele>728.676</ele>
        <time>2018-07-24T11:56:32Z</time>
      </trkpt>
      <trkpt lat="41.151844" lon="-6.699447">
        <ele>728.707</ele>
        <time>2018-07-24T11:56:34Z</time>
      </trkpt>
      <trkpt lat="41.151785" lon="-6.699492">
        <ele>728.736</ele>
        <time>2018-07-24T11:56:37Z</time>
      </trkpt>
      <trkpt lat="41.151738" lon="-6.699543">
        <ele>728.754</ele>
        <time>2018-07-24T11:56:40Z</time>
      </trkpt>
      <trkpt lat="41.151707" lon="-6.699581">
        <ele>728.782</ele>
        <time>2018-07-24T11:56:42Z</time>
      </trkpt>
      <trkpt lat="41.151654" lon="-6.699625">
        <ele>728.804</ele>
        <time>2018-07-24T11:56:45Z</time>
      </trkpt>
      <trkpt lat="41.151595" lon="-6.69967">
        <ele>728.815</ele>
        <time>2018-07-24T11:56:48Z</time>
      </trkpt>
      <trkpt lat="41.151554" lon="-6.699708">
        <ele>728.819</ele>
        <time>2018-07-24T11:56:50Z</time>
      </trkpt>
      <trkpt lat="41.151531" lon="-6.699729">
        <ele>728.823</ele>
        <time>2018-07-24T11:56:51Z</time>
      </trkpt>
      <trkpt lat="41.151509" lon="-6.69975">
        <ele>728.827</ele>
        <time>2018-07-24T11:56:52Z</time>
      </trkpt>
      <trkpt lat="41.151487" lon="-6.699773">
        <ele>728.833</ele>
        <time>2018-07-24T11:56:53Z</time>
      </trkpt>
      <trkpt lat="41.151444" lon="-6.699827">
        <ele>728.837</ele>
        <time>2018-07-24T11:56:55Z</time>
      </trkpt>
      <trkpt lat="41.151391" lon="-6.699894">
        <ele>728.838</ele>
        <time>2018-07-24T11:56:57Z</time>
      </trkpt>
      <trkpt lat="41.151369" lon="-6.699926">
        <ele>728.839</ele>
        <time>2018-07-24T11:56:58Z</time>
      </trkpt>
      <trkpt lat="41.151347" lon="-6.699958">
        <ele>728.841</ele>
        <time>2018-07-24T11:56:59Z</time>
      </trkpt>
      <trkpt lat="41.151325" lon="-6.699992">
        <ele>728.842</ele>
        <time>2018-07-24T11:57:00Z</time>
      </trkpt>
      <trkpt lat="41.151304" lon="-6.700023">
        <ele>728.843</ele>
        <time>2018-07-24T11:57:01Z</time>
      </trkpt>
      <trkpt lat="41.151283" lon="-6.700053">
        <ele>728.843</ele>
        <time>2018-07-24T11:57:02Z</time>
      </trkpt>
      <trkpt lat="41.15126" lon="-6.700085">
        <ele>728.844</ele>
        <time>2018-07-24T11:57:03Z</time>
      </trkpt>
      <trkpt lat="41.151235" lon="-6.700118">
        <ele>728.845</ele>
        <time>2018-07-24T11:57:04Z</time>
      </trkpt>
      <trkpt lat="41.151208" lon="-6.700152">
        <ele>728.846</ele>
        <time>2018-07-24T11:57:05Z</time>
      </trkpt>
      <trkpt lat="41.151183" lon="-6.700183">
        <ele>728.847</ele>
        <time>2018-07-24T11:57:06Z</time>
      </trkpt>
      <trkpt lat="41.151159" lon="-6.700215">
        <ele>728.847</ele>
        <time>2018-07-24T11:57:07Z</time>
      </trkpt>
      <trkpt lat="41.151133" lon="-6.700249">
        <ele>728.848</ele>
        <time>2018-07-24T11:57:08Z</time>
      </trkpt>
      <trkpt lat="41.151108" lon="-6.70028">
        <ele>728.848</ele>
        <time>2018-07-24T11:57:09Z</time>
      </trkpt>
      <trkpt lat="41.151084" lon="-6.700306">
        <ele>728.848</ele>
        <time>2018-07-24T11:57:10Z</time>
      </trkpt>
      <trkpt lat="41.151059" lon="-6.700332">
        <ele>728.848</ele>
        <time>2018-07-24T11:57:11Z</time>
      </trkpt>
      <trkpt lat="41.151032" lon="-6.700359">
        <ele>728.847</ele>
        <time>2018-07-24T11:57:12Z</time>
      </trkpt>
      <trkpt lat="41.151006" lon="-6.700381">
        <ele>728.847</ele>
        <time>2018-07-24T11:57:13Z</time>
      </trkpt>
      <trkpt lat="41.150929" lon="-6.700447">
        <ele>728.847</ele>
        <time>2018-07-24T11:57:16Z</time>
      </trkpt>
      <trkpt lat="41.150902" lon="-6.700469">
        <ele>728.847</ele>
        <time>2018-07-24T11:57:17Z</time>
      </trkpt>
      <trkpt lat="41.150852" lon="-6.700497">
        <ele>728.847</ele>
        <time>2018-07-24T11:57:19Z</time>
      </trkpt>
      <trkpt lat="41.150829" lon="-6.70051">
        <ele>728.847</ele>
        <time>2018-07-24T11:57:20Z</time>
      </trkpt>
      <trkpt lat="41.150784" lon="-6.700519">
        <ele>728.849</ele>
        <time>2018-07-24T11:57:22Z</time>
      </trkpt>
      <trkpt lat="41.150726" lon="-6.700516">
        <ele>728.85</ele>
        <time>2018-07-24T11:57:25Z</time>
      </trkpt>
      <trkpt lat="41.150665" lon="-6.700507">
        <ele>728.85</ele>
        <time>2018-07-24T11:57:28Z</time>
      </trkpt>
      <trkpt lat="41.15061" lon="-6.700492">
        <ele>728.851</ele>
        <time>2018-07-24T11:57:31Z</time>
      </trkpt>
      <trkpt lat="41.150588" lon="-6.700488">
        <ele>728.851</ele>
        <time>2018-07-24T11:57:32Z</time>
      </trkpt>
      <trkpt lat="41.150565" lon="-6.700485">
        <ele>728.851</ele>
        <time>2018-07-24T11:57:33Z</time>
      </trkpt>
      <trkpt lat="41.15051" lon="-6.700487">
        <ele>728.849</ele>
        <time>2018-07-24T11:57:36Z</time>
      </trkpt>
      <trkpt lat="41.150447" lon="-6.700511">
        <ele>728.844</ele>
        <time>2018-07-24T11:57:39Z</time>
      </trkpt>
      <trkpt lat="41.150412" lon="-6.700529">
        <ele>728.841</ele>
        <time>2018-07-24T11:57:41Z</time>
      </trkpt>
      <trkpt lat="41.150389" lon="-6.700541">
        <ele>728.837</ele>
        <time>2018-07-24T11:57:42Z</time>
      </trkpt>
      <trkpt lat="41.150354" lon="-6.700587">
        <ele>728.837</ele>
        <time>2018-07-24T11:57:44Z</time>
      </trkpt>
      <trkpt lat="41.150335" lon="-6.70061">
        <ele>728.836</ele>
        <time>2018-07-24T11:57:45Z</time>
      </trkpt>
      <trkpt lat="41.150318" lon="-6.700631">
        <ele>728.839</ele>
        <time>2018-07-24T11:57:46Z</time>
      </trkpt>
      <trkpt lat="41.15028" lon="-6.700699">
        <ele>728.845</ele>
        <time>2018-07-24T11:57:49Z</time>
      </trkpt>
      <trkpt lat="41.150256" lon="-6.700788">
        <ele>728.849</ele>
        <time>2018-07-24T11:57:52Z</time>
      </trkpt>
      <trkpt lat="41.150247" lon="-6.700852">
        <ele>728.856</ele>
        <time>2018-07-24T11:57:54Z</time>
      </trkpt>
      <trkpt lat="41.150225" lon="-6.700932">
        <ele>728.858</ele>
        <time>2018-07-24T11:57:57Z</time>
      </trkpt>
      <trkpt lat="41.150214" lon="-6.70097">
        <ele>728.861</ele>
        <time>2018-07-24T11:57:58Z</time>
      </trkpt>
      <trkpt lat="41.150202" lon="-6.701003">
        <ele>728.874</ele>
        <time>2018-07-24T11:57:59Z</time>
      </trkpt>
      <trkpt lat="41.150166" lon="-6.701155">
        <ele>728.882</ele>
        <time>2018-07-24T11:58:03Z</time>
      </trkpt>
      <trkpt lat="41.150145" lon="-6.701225">
        <ele>728.887</ele>
        <time>2018-07-24T11:58:05Z</time>
      </trkpt>
      <trkpt lat="41.150132" lon="-6.701262">
        <ele>728.891</ele>
        <time>2018-07-24T11:58:06Z</time>
      </trkpt>
      <trkpt lat="41.15012" lon="-6.701304">
        <ele>728.895</ele>
        <time>2018-07-24T11:58:07Z</time>
      </trkpt>
      <trkpt lat="41.150107" lon="-6.701346">
        <ele>728.898</ele>
        <time>2018-07-24T11:58:08Z</time>
      </trkpt>
      <trkpt lat="41.150094" lon="-6.701385">
        <ele>728.929</ele>
        <time>2018-07-24T11:58:09Z</time>
      </trkpt>
      <trkpt lat="41.15008" lon="-6.701424">
        <ele>728.953</ele>
        <time>2018-07-24T11:58:10Z</time>
      </trkpt>
      <trkpt lat="41.150063" lon="-6.701474">
        <ele>728.955</ele>
        <time>2018-07-24T11:58:11Z</time>
      </trkpt>
      <trkpt lat="41.150046" lon="-6.701522">
        <ele>728.957</ele>
        <time>2018-07-24T11:58:12Z</time>
      </trkpt>
      <trkpt lat="41.150028" lon="-6.701568">
        <ele>728.958</ele>
        <time>2018-07-24T11:58:13Z</time>
      </trkpt>
      <trkpt lat="41.150014" lon="-6.701608">
        <ele>728.96</ele>
        <time>2018-07-24T11:58:14Z</time>
      </trkpt>
      <trkpt lat="41.149997" lon="-6.70165">
        <ele>728.962</ele>
        <time>2018-07-24T11:58:15Z</time>
      </trkpt>
      <trkpt lat="41.149981" lon="-6.701685">
        <ele>728.964</ele>
        <time>2018-07-24T11:58:16Z</time>
      </trkpt>
      <trkpt lat="41.149963" lon="-6.701727">
        <ele>728.965</ele>
        <time>2018-07-24T11:58:17Z</time>
      </trkpt>
      <trkpt lat="41.149944" lon="-6.701769">
        <ele>728.967</ele>
        <time>2018-07-24T11:58:18Z</time>
      </trkpt>
      <trkpt lat="41.149925" lon="-6.701807">
        <ele>728.967</ele>
        <time>2018-07-24T11:58:19Z</time>
      </trkpt>
      <trkpt lat="41.149908" lon="-6.701844">
        <ele>728.968</ele>
        <time>2018-07-24T11:58:20Z</time>
      </trkpt>
      <trkpt lat="41.14989" lon="-6.701876">
        <ele>728.969</ele>
        <time>2018-07-24T11:58:21Z</time>
      </trkpt>
      <trkpt lat="41.149872" lon="-6.701913">
        <ele>728.969</ele>
        <time>2018-07-24T11:58:22Z</time>
      </trkpt>
      <trkpt lat="41.149853" lon="-6.701949">
        <ele>728.97</ele>
        <time>2018-07-24T11:58:23Z</time>
      </trkpt>
      <trkpt lat="41.149833" lon="-6.70198">
        <ele>728.971</ele>
        <time>2018-07-24T11:58:24Z</time>
      </trkpt>
      <trkpt lat="41.149816" lon="-6.702011">
        <ele>728.973</ele>
        <time>2018-07-24T11:58:25Z</time>
      </trkpt>
      <trkpt lat="41.149795" lon="-6.702043">
        <ele>728.975</ele>
        <time>2018-07-24T11:58:26Z</time>
      </trkpt>
      <trkpt lat="41.149776" lon="-6.702074">
        <ele>728.978</ele>
        <time>2018-07-24T11:58:27Z</time>
      </trkpt>
      <trkpt lat="41.149754" lon="-6.702106">
        <ele>728.985</ele>
        <time>2018-07-24T11:58:28Z</time>
      </trkpt>
      <trkpt lat="41.149705" lon="-6.702165">
        <ele>728.989</ele>
        <time>2018-07-24T11:58:30Z</time>
      </trkpt>
      <trkpt lat="41.149679" lon="-6.702196">
        <ele>728.993</ele>
        <time>2018-07-24T11:58:31Z</time>
      </trkpt>
      <trkpt lat="41.149652" lon="-6.702229">
        <ele>728.998</ele>
        <time>2018-07-24T11:58:32Z</time>
      </trkpt>
      <trkpt lat="41.149628" lon="-6.702262">
        <ele>729.004</ele>
        <time>2018-07-24T11:58:33Z</time>
      </trkpt>
      <trkpt lat="41.149605" lon="-6.702294">
        <ele>729.01</ele>
        <time>2018-07-24T11:58:34Z</time>
      </trkpt>
      <trkpt lat="41.149582" lon="-6.702322">
        <ele>729.023</ele>
        <time>2018-07-24T11:58:35Z</time>
      </trkpt>
      <trkpt lat="41.149534" lon="-6.702368">
        <ele>729.043</ele>
        <time>2018-07-24T11:58:37Z</time>
      </trkpt>
      <trkpt lat="41.149475" lon="-6.702453">
        <ele>729.059</ele>
        <time>2018-07-24T11:58:40Z</time>
      </trkpt>
      <trkpt lat="41.149443" lon="-6.7025">
        <ele>729.079</ele>
        <time>2018-07-24T11:58:42Z</time>
      </trkpt>
      <trkpt lat="41.149418" lon="-6.702545">
        <ele>729.1</ele>
        <time>2018-07-24T11:58:44Z</time>
      </trkpt>
      <trkpt lat="41.149393" lon="-6.70259">
        <ele>729.133</ele>
        <time>2018-07-24T11:58:46Z</time>
      </trkpt>
      <trkpt lat="41.149357" lon="-6.702655">
        <ele>729.144</ele>
        <time>2018-07-24T11:58:49Z</time>
      </trkpt>
      <trkpt lat="41.149343" lon="-6.702679">
        <ele>729.166</ele>
        <time>2018-07-24T11:58:50Z</time>
      </trkpt>
      <trkpt lat="41.149319" lon="-6.702722">
        <ele>729.197</ele>
        <time>2018-07-24T11:58:52Z</time>
      </trkpt>
      <trkpt lat="41.14928" lon="-6.702779">
        <ele>729.22</ele>
        <time>2018-07-24T11:58:55Z</time>
      </trkpt>
      <trkpt lat="41.14925" lon="-6.702825">
        <ele>729.258</ele>
        <time>2018-07-24T11:58:57Z</time>
      </trkpt>
      <trkpt lat="41.14921" lon="-6.70287">
        <ele>729.298</ele>
        <time>2018-07-24T11:59:00Z</time>
      </trkpt>
      <trkpt lat="41.149155" lon="-6.702922">
        <ele>729.325</ele>
        <time>2018-07-24T11:59:03Z</time>
      </trkpt>
      <trkpt lat="41.149113" lon="-6.702978">
        <ele>729.351</ele>
        <time>2018-07-24T11:59:05Z</time>
      </trkpt>
      <trkpt lat="41.149066" lon="-6.703027">
        <ele>729.363</ele>
        <time>2018-07-24T11:59:07Z</time>
      </trkpt>
      <trkpt lat="41.149041" lon="-6.703053">
        <ele>729.589</ele>
        <time>2018-07-24T11:59:08Z</time>
      </trkpt>
      <trkpt lat="41.148989" lon="-6.703124">
        <ele>729.671</ele>
        <time>2018-07-24T11:59:10Z</time>
      </trkpt>
      <trkpt lat="41.14896" lon="-6.703158">
        <ele>729.736</ele>
        <time>2018-07-24T11:59:11Z</time>
      </trkpt>
      <trkpt lat="41.148929" lon="-6.703193">
        <ele>729.787</ele>
        <time>2018-07-24T11:59:12Z</time>
      </trkpt>
      <trkpt lat="41.148898" lon="-6.703228">
        <ele>729.792</ele>
        <time>2018-07-24T11:59:13Z</time>
      </trkpt>
      <trkpt lat="41.148867" lon="-6.703263">
        <ele>729.835</ele>
        <time>2018-07-24T11:59:14Z</time>
      </trkpt>
      <trkpt lat="41.148838" lon="-6.703299">
        <ele>729.865</ele>
        <time>2018-07-24T11:59:15Z</time>
      </trkpt>
      <trkpt lat="41.148808" lon="-6.703337">
        <ele>729.889</ele>
        <time>2018-07-24T11:59:16Z</time>
      </trkpt>
      <trkpt lat="41.148776" lon="-6.703376">
        <ele>729.908</ele>
        <time>2018-07-24T11:59:17Z</time>
      </trkpt>
      <trkpt lat="41.148744" lon="-6.703413">
        <ele>729.924</ele>
        <time>2018-07-24T11:59:18Z</time>
      </trkpt>
      <trkpt lat="41.148711" lon="-6.70345">
        <ele>729.934</ele>
        <time>2018-07-24T11:59:19Z</time>
      </trkpt>
      <trkpt lat="41.148675" lon="-6.703491">
        <ele>729.945</ele>
        <time>2018-07-24T11:59:20Z</time>
      </trkpt>
      <trkpt lat="41.148638" lon="-6.703531">
        <ele>729.957</ele>
        <time>2018-07-24T11:59:21Z</time>
      </trkpt>
      <trkpt lat="41.148602" lon="-6.70357">
        <ele>729.969</ele>
        <time>2018-07-24T11:59:22Z</time>
      </trkpt>
      <trkpt lat="41.148565" lon="-6.703614">
        <ele>729.979</ele>
        <time>2018-07-24T11:59:23Z</time>
      </trkpt>
      <trkpt lat="41.148528" lon="-6.703656">
        <ele>729.991</ele>
        <time>2018-07-24T11:59:24Z</time>
      </trkpt>
      <trkpt lat="41.148492" lon="-6.703694">
        <ele>730.005</ele>
        <time>2018-07-24T11:59:25Z</time>
      </trkpt>
      <trkpt lat="41.148459" lon="-6.703727">
        <ele>730.021</ele>
        <time>2018-07-24T11:59:26Z</time>
      </trkpt>
      <trkpt lat="41.148426" lon="-6.703761">
        <ele>730.038</ele>
        <time>2018-07-24T11:59:27Z</time>
      </trkpt>
      <trkpt lat="41.148391" lon="-6.703793">
        <ele>730.055</ele>
        <time>2018-07-24T11:59:28Z</time>
      </trkpt>
      <trkpt lat="41.148354" lon="-6.703829">
        <ele>730.075</ele>
        <time>2018-07-24T11:59:29Z</time>
      </trkpt>
      <trkpt lat="41.148312" lon="-6.703867">
        <ele>730.101</ele>
        <time>2018-07-24T11:59:30Z</time>
      </trkpt>
      <trkpt lat="41.148272" lon="-6.703907">
        <ele>730.129</ele>
        <time>2018-07-24T11:59:31Z</time>
      </trkpt>
      <trkpt lat="41.148232" lon="-6.703943">
        <ele>730.155</ele>
        <time>2018-07-24T11:59:32Z</time>
      </trkpt>
      <trkpt lat="41.14819" lon="-6.703981">
        <ele>730.179</ele>
        <time>2018-07-24T11:59:33Z</time>
      </trkpt>
      <trkpt lat="41.148148" lon="-6.704021">
        <ele>730.198</ele>
        <time>2018-07-24T11:59:34Z</time>
      </trkpt>
      <trkpt lat="41.148105" lon="-6.704061">
        <ele>730.218</ele>
        <time>2018-07-24T11:59:35Z</time>
      </trkpt>
      <trkpt lat="41.148062" lon="-6.704102">
        <ele>730.235</ele>
        <time>2018-07-24T11:59:36Z</time>
      </trkpt>
      <trkpt lat="41.148019" lon="-6.704138">
        <ele>730.251</ele>
        <time>2018-07-24T11:59:37Z</time>
      </trkpt>
      <trkpt lat="41.147977" lon="-6.704177">
        <ele>730.269</ele>
        <time>2018-07-24T11:59:38Z</time>
      </trkpt>
      <trkpt lat="41.147934" lon="-6.704213">
        <ele>730.286</ele>
        <time>2018-07-24T11:59:39Z</time>
      </trkpt>
      <trkpt lat="41.147895" lon="-6.704244">
        <ele>730.307</ele>
        <time>2018-07-24T11:59:40Z</time>
      </trkpt>
      <trkpt lat="41.147856" lon="-6.704277">
        <ele>730.329</ele>
        <time>2018-07-24T11:59:41Z</time>
      </trkpt>
      <trkpt lat="41.147818" lon="-6.704312">
        <ele>730.358</ele>
        <time>2018-07-24T11:59:42Z</time>
      </trkpt>
      <trkpt lat="41.147779" lon="-6.704352">
        <ele>730.386</ele>
        <time>2018-07-24T11:59:43Z</time>
      </trkpt>
      <trkpt lat="41.147738" lon="-6.704399">
        <ele>730.408</ele>
        <time>2018-07-24T11:59:44Z</time>
      </trkpt>
      <trkpt lat="41.147697" lon="-6.704448">
        <ele>730.43</ele>
        <time>2018-07-24T11:59:45Z</time>
      </trkpt>
      <trkpt lat="41.147655" lon="-6.704506">
        <ele>730.451</ele>
        <time>2018-07-24T11:59:46Z</time>
      </trkpt>
      <trkpt lat="41.147615" lon="-6.704569">
        <ele>730.474</ele>
        <time>2018-07-24T11:59:47Z</time>
      </trkpt>
      <trkpt lat="41.147578" lon="-6.704634">
        <ele>730.502</ele>
        <time>2018-07-24T11:59:48Z</time>
      </trkpt>
      <trkpt lat="41.147541" lon="-6.704701">
        <ele>730.552</ele>
        <time>2018-07-24T11:59:49Z</time>
      </trkpt>
      <trkpt lat="41.147475" lon="-6.704833">
        <ele>730.573</ele>
        <time>2018-07-24T11:59:51Z</time>
      </trkpt>
      <trkpt lat="41.147446" lon="-6.704891">
        <ele>730.596</ele>
        <time>2018-07-24T11:59:52Z</time>
      </trkpt>
      <trkpt lat="41.147414" lon="-6.704949">
        <ele>730.617</ele>
        <time>2018-07-24T11:59:53Z</time>
      </trkpt>
      <trkpt lat="41.147383" lon="-6.705002">
        <ele>730.633</ele>
        <time>2018-07-24T11:59:54Z</time>
      </trkpt>
      <trkpt lat="41.14735" lon="-6.705058">
        <ele>730.645</ele>
        <time>2018-07-24T11:59:55Z</time>
      </trkpt>
      <trkpt lat="41.147315" lon="-6.705108">
        <ele>730.656</ele>
        <time>2018-07-24T11:59:56Z</time>
      </trkpt>
      <trkpt lat="41.147279" lon="-6.705159">
        <ele>730.672</ele>
        <time>2018-07-24T11:59:57Z</time>
      </trkpt>
      <trkpt lat="41.147242" lon="-6.705212">
        <ele>730.687</ele>
        <time>2018-07-24T11:59:58Z</time>
      </trkpt>
      <trkpt lat="41.147205" lon="-6.705264">
        <ele>730.698</ele>
        <time>2018-07-24T11:59:59Z</time>
      </trkpt>
      <trkpt lat="41.147174" lon="-6.705315">
        <ele>730.708</ele>
        <time>2018-07-24T12:00:00Z</time>
      </trkpt>
      <trkpt lat="41.147141" lon="-6.705372">
        <ele>730.72</ele>
        <time>2018-07-24T12:00:01Z</time>
      </trkpt>
      <trkpt lat="41.147109" lon="-6.705425">
        <ele>730.734</ele>
        <time>2018-07-24T12:00:02Z</time>
      </trkpt>
      <trkpt lat="41.147073" lon="-6.705477">
        <ele>730.75</ele>
        <time>2018-07-24T12:00:03Z</time>
      </trkpt>
      <trkpt lat="41.147039" lon="-6.705526">
        <ele>730.764</ele>
        <time>2018-07-24T12:00:04Z</time>
      </trkpt>
      <trkpt lat="41.147006" lon="-6.705572">
        <ele>730.781</ele>
        <time>2018-07-24T12:00:05Z</time>
      </trkpt>
      <trkpt lat="41.146972" lon="-6.70562">
        <ele>730.799</ele>
        <time>2018-07-24T12:00:06Z</time>
      </trkpt>
      <trkpt lat="41.146938" lon="-6.705669">
        <ele>730.817</ele>
        <time>2018-07-24T12:00:07Z</time>
      </trkpt>
      <trkpt lat="41.146902" lon="-6.705718">
        <ele>730.835</ele>
        <time>2018-07-24T12:00:08Z</time>
      </trkpt>
      <trkpt lat="41.146867" lon="-6.705769">
        <ele>730.849</ele>
        <time>2018-07-24T12:00:09Z</time>
      </trkpt>
      <trkpt lat="41.146834" lon="-6.705815">
        <ele>730.863</ele>
        <time>2018-07-24T12:00:10Z</time>
      </trkpt>
      <trkpt lat="41.146801" lon="-6.705861">
        <ele>730.875</ele>
        <time>2018-07-24T12:00:11Z</time>
      </trkpt>
      <trkpt lat="41.146765" lon="-6.70591">
        <ele>730.886</ele>
        <time>2018-07-24T12:00:12Z</time>
      </trkpt>
      <trkpt lat="41.146729" lon="-6.705961">
        <ele>730.895</ele>
        <time>2018-07-24T12:00:13Z</time>
      </trkpt>
      <trkpt lat="41.146692" lon="-6.706008">
        <ele>730.904</ele>
        <time>2018-07-24T12:00:14Z</time>
      </trkpt>
      <trkpt lat="41.146654" lon="-6.706056">
        <ele>730.915</ele>
        <time>2018-07-24T12:00:15Z</time>
      </trkpt>
      <trkpt lat="41.146573" lon="-6.706152">
        <ele>730.92</ele>
        <time>2018-07-24T12:00:17Z</time>
      </trkpt>
      <trkpt lat="41.146533" lon="-6.706195">
        <ele>730.922</ele>
        <time>2018-07-24T12:00:18Z</time>
      </trkpt>
      <trkpt lat="41.14649" lon="-6.706236">
        <ele>730.923</ele>
        <time>2018-07-24T12:00:19Z</time>
      </trkpt>
      <trkpt lat="41.146449" lon="-6.706276">
        <ele>730.934</ele>
        <time>2018-07-24T12:00:20Z</time>
      </trkpt>
      <trkpt lat="41.146368" lon="-6.706356">
        <ele>730.942</ele>
        <time>2018-07-24T12:00:22Z</time>
      </trkpt>
      <trkpt lat="41.146327" lon="-6.706395">
        <ele>730.949</ele>
        <time>2018-07-24T12:00:23Z</time>
      </trkpt>
      <trkpt lat="41.146284" lon="-6.706429">
        <ele>730.959</ele>
        <time>2018-07-24T12:00:24Z</time>
      </trkpt>
      <trkpt lat="41.146241" lon="-6.706463">
        <ele>730.965</ele>
        <time>2018-07-24T12:00:25Z</time>
      </trkpt>
      <trkpt lat="41.146199" lon="-6.706488">
        <ele>730.97</ele>
        <time>2018-07-24T12:00:26Z</time>
      </trkpt>
      <trkpt lat="41.14616" lon="-6.706511">
        <ele>730.971</ele>
        <time>2018-07-24T12:00:27Z</time>
      </trkpt>
      <trkpt lat="41.14612" lon="-6.706536">
        <ele>730.966</ele>
        <time>2018-07-24T12:00:28Z</time>
      </trkpt>
      <trkpt lat="41.14608" lon="-6.70656">
        <ele>730.959</ele>
        <time>2018-07-24T12:00:29Z</time>
      </trkpt>
      <trkpt lat="41.146008" lon="-6.706628">
        <ele>730.949</ele>
        <time>2018-07-24T12:00:31Z</time>
      </trkpt>
      <trkpt lat="41.145973" lon="-6.706666">
        <ele>730.94</ele>
        <time>2018-07-24T12:00:32Z</time>
      </trkpt>
      <trkpt lat="41.145938" lon="-6.706708">
        <ele>730.934</ele>
        <time>2018-07-24T12:00:33Z</time>
      </trkpt>
      <trkpt lat="41.145901" lon="-6.706757">
        <ele>730.929</ele>
        <time>2018-07-24T12:00:34Z</time>
      </trkpt>
      <trkpt lat="41.145863" lon="-6.706809">
        <ele>730.925</ele>
        <time>2018-07-24T12:00:35Z</time>
      </trkpt>
      <trkpt lat="41.145827" lon="-6.706864">
        <ele>730.92</ele>
        <time>2018-07-24T12:00:36Z</time>
      </trkpt>
      <trkpt lat="41.14579" lon="-6.706921">
        <ele>730.915</ele>
        <time>2018-07-24T12:00:37Z</time>
      </trkpt>
      <trkpt lat="41.145752" lon="-6.706982">
        <ele>730.932</ele>
        <time>2018-07-24T12:00:38Z</time>
      </trkpt>
      <trkpt lat="41.145713" lon="-6.707051">
        <ele>730.949</ele>
        <time>2018-07-24T12:00:39Z</time>
      </trkpt>
      <trkpt lat="41.145672" lon="-6.707119">
        <ele>730.969</ele>
        <time>2018-07-24T12:00:40Z</time>
      </trkpt>
      <trkpt lat="41.145631" lon="-6.707184">
        <ele>731.007</ele>
        <time>2018-07-24T12:00:41Z</time>
      </trkpt>
      <trkpt lat="41.145547" lon="-6.707315">
        <ele>731.019</ele>
        <time>2018-07-24T12:00:43Z</time>
      </trkpt>
      <trkpt lat="41.145503" lon="-6.707377">
        <ele>731.036</ele>
        <time>2018-07-24T12:00:44Z</time>
      </trkpt>
      <trkpt lat="41.145458" lon="-6.707432">
        <ele>731.057</ele>
        <time>2018-07-24T12:00:45Z</time>
      </trkpt>
      <trkpt lat="41.145413" lon="-6.707486">
        <ele>731.082</ele>
        <time>2018-07-24T12:00:46Z</time>
      </trkpt>
      <trkpt lat="41.145369" lon="-6.707541">
        <ele>731.116</ele>
        <time>2018-07-24T12:00:47Z</time>
      </trkpt>
      <trkpt lat="41.145324" lon="-6.707593">
        <ele>731.154</ele>
        <time>2018-07-24T12:00:48Z</time>
      </trkpt>
      <trkpt lat="41.14528" lon="-6.707643">
        <ele>731.126</ele>
        <time>2018-07-24T12:00:49Z</time>
      </trkpt>
      <trkpt lat="41.145236" lon="-6.707692">
        <ele>731.106</ele>
        <time>2018-07-24T12:00:50Z</time>
      </trkpt>
      <trkpt lat="41.14519" lon="-6.707739">
        <ele>731.09</ele>
        <time>2018-07-24T12:00:51Z</time>
      </trkpt>
      <trkpt lat="41.145144" lon="-6.707788">
        <ele>731.086</ele>
        <time>2018-07-24T12:00:52Z</time>
      </trkpt>
      <trkpt lat="41.145098" lon="-6.707841">
        <ele>731.092</ele>
        <time>2018-07-24T12:00:53Z</time>
      </trkpt>
      <trkpt lat="41.145052" lon="-6.707899">
        <ele>731.099</ele>
        <time>2018-07-24T12:00:54Z</time>
      </trkpt>
      <trkpt lat="41.145007" lon="-6.707955">
        <ele>731.089</ele>
        <time>2018-07-24T12:00:55Z</time>
      </trkpt>
      <trkpt lat="41.144963" lon="-6.708013">
        <ele>731.068</ele>
        <time>2018-07-24T12:00:56Z</time>
      </trkpt>
      <trkpt lat="41.144921" lon="-6.708069">
        <ele>731.072</ele>
        <time>2018-07-24T12:00:57Z</time>
      </trkpt>
      <trkpt lat="41.14488" lon="-6.708125">
        <ele>731.125</ele>
        <time>2018-07-24T12:00:58Z</time>
      </trkpt>
      <trkpt lat="41.144841" lon="-6.708175">
        <ele>731.204</ele>
        <time>2018-07-24T12:00:59Z</time>
      </trkpt>
      <trkpt lat="41.144805" lon="-6.708219">
        <ele>731.261</ele>
        <time>2018-07-24T12:01:00Z</time>
      </trkpt>
      <trkpt lat="41.144769" lon="-6.708256">
        <ele>731.305</ele>
        <time>2018-07-24T12:01:01Z</time>
      </trkpt>
      <trkpt lat="41.144736" lon="-6.70829">
        <ele>731.349</ele>
        <time>2018-07-24T12:01:02Z</time>
      </trkpt>
      <trkpt lat="41.144668" lon="-6.708344">
        <ele>731.462</ele>
        <time>2018-07-24T12:01:04Z</time>
      </trkpt>
      <trkpt lat="41.144598" lon="-6.708367">
        <ele>731.563</ele>
        <time>2018-07-24T12:01:06Z</time>
      </trkpt>
      <trkpt lat="41.144564" lon="-6.708374">
        <ele>731.627</ele>
        <time>2018-07-24T12:01:07Z</time>
      </trkpt>
      <trkpt lat="41.144528" lon="-6.708381">
        <ele>731.751</ele>
        <time>2018-07-24T12:01:08Z</time>
      </trkpt>
      <trkpt lat="41.144491" lon="-6.708386">
        <ele>731.761</ele>
        <time>2018-07-24T12:01:09Z</time>
      </trkpt>
      <trkpt lat="41.144453" lon="-6.708392">
        <ele>731.874</ele>
        <time>2018-07-24T12:01:10Z</time>
      </trkpt>
      <trkpt lat="41.144419" lon="-6.708395">
        <ele>731.887</ele>
        <time>2018-07-24T12:01:11Z</time>
      </trkpt>
      <trkpt lat="41.144382" lon="-6.708398">
        <ele>731.882</ele>
        <time>2018-07-24T12:01:12Z</time>
      </trkpt>
      <trkpt lat="41.144345" lon="-6.708404">
        <ele>731.879</ele>
        <time>2018-07-24T12:01:13Z</time>
      </trkpt>
      <trkpt lat="41.144308" lon="-6.708407">
        <ele>731.882</ele>
        <time>2018-07-24T12:01:14Z</time>
      </trkpt>
      <trkpt lat="41.144255" lon="-6.708422">
        <ele>731.882</ele>
        <time>2018-07-24T12:01:16Z</time>
      </trkpt>
      <trkpt lat="41.144255" lon="-6.708422">
        <ele>731.882</ele>
        <time>2018-07-24T12:01:22Z</time>
      </trkpt>
      <trkpt lat="41.144255" lon="-6.708422">
        <ele>732.201</ele>
        <time>2018-07-24T12:01:23Z</time>
      </trkpt>
      <trkpt lat="41.144192" lon="-6.708357">
        <ele>732.238</ele>
        <time>2018-07-24T12:03:12Z</time>
      </trkpt>
      <trkpt lat="41.144141" lon="-6.708371">
        <ele>732.247</ele>
        <time>2018-07-24T12:03:20Z</time>
      </trkpt>
      <trkpt lat="41.144095" lon="-6.708391">
        <ele>732.251</ele>
        <time>2018-07-24T12:03:22Z</time>
      </trkpt>
      <trkpt lat="41.14407" lon="-6.708405">
        <ele>732.255</ele>
        <time>2018-07-24T12:03:23Z</time>
      </trkpt>
      <trkpt lat="41.144044" lon="-6.708423">
        <ele>732.309</ele>
        <time>2018-07-24T12:03:24Z</time>
      </trkpt>
      <trkpt lat="41.143977" lon="-6.708451">
        <ele>732.327</ele>
        <time>2018-07-24T12:03:26Z</time>
      </trkpt>
      <trkpt lat="41.143932" lon="-6.708472">
        <ele>732.342</ele>
        <time>2018-07-24T12:03:27Z</time>
      </trkpt>
      <trkpt lat="41.143888" lon="-6.708492">
        <ele>732.437</ele>
        <time>2018-07-24T12:03:28Z</time>
      </trkpt>
      <trkpt lat="41.143795" lon="-6.708551">
        <ele>732.481</ele>
        <time>2018-07-24T12:03:30Z</time>
      </trkpt>
      <trkpt lat="41.143753" lon="-6.708582">
        <ele>732.515</ele>
        <time>2018-07-24T12:03:31Z</time>
      </trkpt>
      <trkpt lat="41.14371" lon="-6.708611">
        <ele>732.538</ele>
        <time>2018-07-24T12:03:32Z</time>
      </trkpt>
      <trkpt lat="41.143667" lon="-6.708642">
        <ele>732.582</ele>
        <time>2018-07-24T12:03:33Z</time>
      </trkpt>
      <trkpt lat="41.143616" lon="-6.708682">
        <ele>732.642</ele>
        <time>2018-07-24T12:03:34Z</time>
      </trkpt>
      <trkpt lat="41.143569" lon="-6.708721">
        <ele>732.714</ele>
        <time>2018-07-24T12:03:35Z</time>
      </trkpt>
      <trkpt lat="41.143524" lon="-6.708758">
        <ele>732.792</ele>
        <time>2018-07-24T12:03:36Z</time>
      </trkpt>
      <trkpt lat="41.143484" lon="-6.70879">
        <ele>732.94</ele>
        <time>2018-07-24T12:03:37Z</time>
      </trkpt>
      <trkpt lat="41.143338" lon="-6.708841">
        <ele>732.972</ele>
        <time>2018-07-24T12:03:40Z</time>
      </trkpt>
      <trkpt lat="41.143283" lon="-6.708858">
        <ele>732.993</ele>
        <time>2018-07-24T12:03:41Z</time>
      </trkpt>
      <trkpt lat="41.143233" lon="-6.708882">
        <ele>733.038</ele>
        <time>2018-07-24T12:03:42Z</time>
      </trkpt>
      <trkpt lat="41.143124" lon="-6.70894">
        <ele>733.103</ele>
        <time>2018-07-24T12:03:44Z</time>
      </trkpt>
      <trkpt lat="41.143006" lon="-6.709002">
        <ele>733.13</ele>
        <time>2018-07-24T12:03:46Z</time>
      </trkpt>
      <trkpt lat="41.142949" lon="-6.709028">
        <ele>733.142</ele>
        <time>2018-07-24T12:03:47Z</time>
      </trkpt>
      <trkpt lat="41.142887" lon="-6.709046">
        <ele>733.147</ele>
        <time>2018-07-24T12:03:48Z</time>
      </trkpt>
      <trkpt lat="41.142824" lon="-6.709061">
        <ele>733.144</ele>
        <time>2018-07-24T12:03:49Z</time>
      </trkpt>
      <trkpt lat="41.142759" lon="-6.709072">
        <ele>733.138</ele>
        <time>2018-07-24T12:03:50Z</time>
      </trkpt>
      <trkpt lat="41.142695" lon="-6.709082">
        <ele>733.125</ele>
        <time>2018-07-24T12:03:51Z</time>
      </trkpt>
      <trkpt lat="41.142629" lon="-6.709093">
        <ele>733.102</ele>
        <time>2018-07-24T12:03:52Z</time>
      </trkpt>
      <trkpt lat="41.142564" lon="-6.709109">
        <ele>733.086</ele>
        <time>2018-07-24T12:03:53Z</time>
      </trkpt>
      <trkpt lat="41.1425" lon="-6.709133">
        <ele>733.073</ele>
        <time>2018-07-24T12:03:54Z</time>
      </trkpt>
      <trkpt lat="41.142447" lon="-6.709157">
        <ele>733.063</ele>
        <time>2018-07-24T12:03:55Z</time>
      </trkpt>
      <trkpt lat="41.142397" lon="-6.709177">
        <ele>733.058</ele>
        <time>2018-07-24T12:03:56Z</time>
      </trkpt>
      <trkpt lat="41.142349" lon="-6.709201">
        <ele>733.047</ele>
        <time>2018-07-24T12:03:57Z</time>
      </trkpt>
      <trkpt lat="41.142294" lon="-6.709227">
        <ele>732.949</ele>
        <time>2018-07-24T12:03:58Z</time>
      </trkpt>
      <trkpt lat="41.142167" lon="-6.709277">
        <ele>732.866</ele>
        <time>2018-07-24T12:04:00Z</time>
      </trkpt>
      <trkpt lat="41.142092" lon="-6.709287">
        <ele>732.762</ele>
        <time>2018-07-24T12:04:01Z</time>
      </trkpt>
      <trkpt lat="41.142011" lon="-6.709302">
        <ele>732.613</ele>
        <time>2018-07-24T12:04:02Z</time>
      </trkpt>
      <trkpt lat="41.141923" lon="-6.709316">
        <ele>732.478</ele>
        <time>2018-07-24T12:04:03Z</time>
      </trkpt>
      <trkpt lat="41.141833" lon="-6.709319">
        <ele>732.302</ele>
        <time>2018-07-24T12:04:04Z</time>
      </trkpt>
      <trkpt lat="41.141744" lon="-6.70932">
        <ele>732.136</ele>
        <time>2018-07-24T12:04:05Z</time>
      </trkpt>
      <trkpt lat="41.141662" lon="-6.709333">
        <ele>731.987</ele>
        <time>2018-07-24T12:04:06Z</time>
      </trkpt>
      <trkpt lat="41.141588" lon="-6.709349">
        <ele>731.82</ele>
        <time>2018-07-24T12:04:07Z</time>
      </trkpt>
      <trkpt lat="41.141522" lon="-6.709362">
        <ele>731.588</ele>
        <time>2018-07-24T12:04:08Z</time>
      </trkpt>
      <trkpt lat="41.141461" lon="-6.709368">
        <ele>731.369</ele>
        <time>2018-07-24T12:04:09Z</time>
      </trkpt>
      <trkpt lat="41.141407" lon="-6.709372">
        <ele>731.064</ele>
        <time>2018-07-24T12:04:10Z</time>
      </trkpt>
      <trkpt lat="41.141353" lon="-6.709348">
        <ele>730.792</ele>
        <time>2018-07-24T12:04:11Z</time>
      </trkpt>
      <trkpt lat="41.141295" lon="-6.709308">
        <ele>730.503</ele>
        <time>2018-07-24T12:04:12Z</time>
      </trkpt>
      <trkpt lat="41.141241" lon="-6.70926">
        <ele>730.248</ele>
        <time>2018-07-24T12:04:13Z</time>
      </trkpt>
      <trkpt lat="41.14119" lon="-6.709204">
        <ele>730.034</ele>
        <time>2018-07-24T12:04:14Z</time>
      </trkpt>
      <trkpt lat="41.14114" lon="-6.709146">
        <ele>729.826</ele>
        <time>2018-07-24T12:04:15Z</time>
      </trkpt>
      <trkpt lat="41.141091" lon="-6.709086">
        <ele>729.558</ele>
        <time>2018-07-24T12:04:16Z</time>
      </trkpt>
      <trkpt lat="41.141041" lon="-6.709037">
        <ele>729.319</ele>
        <time>2018-07-24T12:04:17Z</time>
      </trkpt>
      <trkpt lat="41.140987" lon="-6.709005">
        <ele>729.054</ele>
        <time>2018-07-24T12:04:18Z</time>
      </trkpt>
      <trkpt lat="41.140928" lon="-6.708991">
        <ele>728.803</ele>
        <time>2018-07-24T12:04:19Z</time>
      </trkpt>
      <trkpt lat="41.140865" lon="-6.709001">
        <ele>728.546</ele>
        <time>2018-07-24T12:04:20Z</time>
      </trkpt>
      <trkpt lat="41.140803" lon="-6.70903">
        <ele>728.255</ele>
        <time>2018-07-24T12:04:21Z</time>
      </trkpt>
      <trkpt lat="41.140742" lon="-6.709059">
        <ele>727.969</ele>
        <time>2018-07-24T12:04:22Z</time>
      </trkpt>
      <trkpt lat="41.140682" lon="-6.709095">
        <ele>727.706</ele>
        <time>2018-07-24T12:04:23Z</time>
      </trkpt>
      <trkpt lat="41.140624" lon="-6.709137">
        <ele>727.467</ele>
        <time>2018-07-24T12:04:24Z</time>
      </trkpt>
      <trkpt lat="41.140563" lon="-6.709172">
        <ele>727.199</ele>
        <time>2018-07-24T12:04:25Z</time>
      </trkpt>
      <trkpt lat="41.140501" lon="-6.70921">
        <ele>726.975</ele>
        <time>2018-07-24T12:04:26Z</time>
      </trkpt>
      <trkpt lat="41.140445" lon="-6.709251">
        <ele>726.73</ele>
        <time>2018-07-24T12:04:27Z</time>
      </trkpt>
      <trkpt lat="41.140387" lon="-6.709289">
        <ele>726.426</ele>
        <time>2018-07-24T12:04:28Z</time>
      </trkpt>
      <trkpt lat="41.14033" lon="-6.709321">
        <ele>726.067</ele>
        <time>2018-07-24T12:04:29Z</time>
      </trkpt>
      <trkpt lat="41.140272" lon="-6.70935">
        <ele>725.782</ele>
        <time>2018-07-24T12:04:30Z</time>
      </trkpt>
      <trkpt lat="41.140214" lon="-6.709378">
        <ele>725.525</ele>
        <time>2018-07-24T12:04:31Z</time>
      </trkpt>
      <trkpt lat="41.140159" lon="-6.70941">
        <ele>725.35</ele>
        <time>2018-07-24T12:04:32Z</time>
      </trkpt>
      <trkpt lat="41.140104" lon="-6.709437">
        <ele>725.175</ele>
        <time>2018-07-24T12:04:33Z</time>
      </trkpt>
      <trkpt lat="41.140051" lon="-6.709464">
        <ele>725.071</ele>
        <time>2018-07-24T12:04:34Z</time>
      </trkpt>
      <trkpt lat="41.139995" lon="-6.709485">
        <ele>724.889</ele>
        <time>2018-07-24T12:04:35Z</time>
      </trkpt>
      <trkpt lat="41.139936" lon="-6.709505">
        <ele>724.748</ele>
        <time>2018-07-24T12:04:36Z</time>
      </trkpt>
      <trkpt lat="41.139881" lon="-6.709532">
        <ele>724.613</ele>
        <time>2018-07-24T12:04:37Z</time>
      </trkpt>
      <trkpt lat="41.139828" lon="-6.70956">
        <ele>724.406</ele>
        <time>2018-07-24T12:04:38Z</time>
      </trkpt>
      <trkpt lat="41.139777" lon="-6.709588">
        <ele>724.201</ele>
        <time>2018-07-24T12:04:39Z</time>
      </trkpt>
      <trkpt lat="41.139729" lon="-6.709621">
        <ele>724.058</ele>
        <time>2018-07-24T12:04:40Z</time>
      </trkpt>
      <trkpt lat="41.139682" lon="-6.709651">
        <ele>723.886</ele>
        <time>2018-07-24T12:04:41Z</time>
      </trkpt>
      <trkpt lat="41.139632" lon="-6.709681">
        <ele>723.743</ele>
        <time>2018-07-24T12:04:42Z</time>
      </trkpt>
      <trkpt lat="41.139582" lon="-6.709714">
        <ele>723.873</ele>
        <time>2018-07-24T12:04:43Z</time>
      </trkpt>
      <trkpt lat="41.139531" lon="-6.709742">
        <ele>723.895</ele>
        <time>2018-07-24T12:04:44Z</time>
      </trkpt>
      <trkpt lat="41.13948" lon="-6.709771">
        <ele>723.893</ele>
        <time>2018-07-24T12:04:45Z</time>
      </trkpt>
      <trkpt lat="41.139425" lon="-6.709799">
        <ele>724.01</ele>
        <time>2018-07-24T12:04:46Z</time>
      </trkpt>
      <trkpt lat="41.139372" lon="-6.709824">
        <ele>724.086</ele>
        <time>2018-07-24T12:04:47Z</time>
      </trkpt>
      <trkpt lat="41.139321" lon="-6.70985">
        <ele>724.156</ele>
        <time>2018-07-24T12:04:48Z</time>
      </trkpt>
      <trkpt lat="41.139273" lon="-6.709876">
        <ele>724.183</ele>
        <time>2018-07-24T12:04:49Z</time>
      </trkpt>
      <trkpt lat="41.139229" lon="-6.709901">
        <ele>724.322</ele>
        <time>2018-07-24T12:04:50Z</time>
      </trkpt>
      <trkpt lat="41.139149" lon="-6.709934">
        <ele>724.33</ele>
        <time>2018-07-24T12:04:52Z</time>
      </trkpt>
      <trkpt lat="41.139122" lon="-6.709944">
        <ele>724.354</ele>
        <time>2018-07-24T12:04:53Z</time>
      </trkpt>
      <trkpt lat="41.13907" lon="-6.709946">
        <ele>724.34</ele>
        <time>2018-07-24T12:04:55Z</time>
      </trkpt>
      <trkpt lat="41.139025" lon="-6.70995">
        <ele>724.31</ele>
        <time>2018-07-24T12:04:57Z</time>
      </trkpt>
      <trkpt lat="41.138978" lon="-6.709972">
        <ele>724.276</ele>
        <time>2018-07-24T12:04:59Z</time>
      </trkpt>
      <trkpt lat="41.138932" lon="-6.710009">
        <ele>723.909</ele>
        <time>2018-07-24T12:05:01Z</time>
      </trkpt>
      <trkpt lat="41.138845" lon="-6.710109">
        <ele>723.71</ele>
        <time>2018-07-24T12:05:04Z</time>
      </trkpt>
      <trkpt lat="41.138805" lon="-6.710146">
        <ele>723.546</ele>
        <time>2018-07-24T12:05:05Z</time>
      </trkpt>
      <trkpt lat="41.138757" lon="-6.710175">
        <ele>723.429</ele>
        <time>2018-07-24T12:05:06Z</time>
      </trkpt>
      <trkpt lat="41.138715" lon="-6.710196">
        <ele>723.211</ele>
        <time>2018-07-24T12:05:07Z</time>
      </trkpt>
      <trkpt lat="41.138631" lon="-6.71023">
        <ele>722.997</ele>
        <time>2018-07-24T12:05:09Z</time>
      </trkpt>
      <trkpt lat="41.138547" lon="-6.710272">
        <ele>722.987</ele>
        <time>2018-07-24T12:05:11Z</time>
      </trkpt>
      <trkpt lat="41.138504" lon="-6.71029">
        <ele>722.847</ele>
        <time>2018-07-24T12:05:12Z</time>
      </trkpt>
      <trkpt lat="41.138431" lon="-6.710282">
        <ele>722.665</ele>
        <time>2018-07-24T12:05:14Z</time>
      </trkpt>
      <trkpt lat="41.138354" lon="-6.710254">
        <ele>722.593</ele>
        <time>2018-07-24T12:05:16Z</time>
      </trkpt>
      <trkpt lat="41.138308" lon="-6.710242">
        <ele>722.526</ele>
        <time>2018-07-24T12:05:17Z</time>
      </trkpt>
      <trkpt lat="41.138264" lon="-6.71023">
        <ele>722.463</ele>
        <time>2018-07-24T12:05:18Z</time>
      </trkpt>
      <trkpt lat="41.138219" lon="-6.710213">
        <ele>722.4</ele>
        <time>2018-07-24T12:05:19Z</time>
      </trkpt>
      <trkpt lat="41.13817" lon="-6.71019">
        <ele>722.35</ele>
        <time>2018-07-24T12:05:20Z</time>
      </trkpt>
      <trkpt lat="41.138122" lon="-6.71016">
        <ele>722.286</ele>
        <time>2018-07-24T12:05:21Z</time>
      </trkpt>
      <trkpt lat="41.138073" lon="-6.71013">
        <ele>722.235</ele>
        <time>2018-07-24T12:05:22Z</time>
      </trkpt>
      <trkpt lat="41.138025" lon="-6.7101">
        <ele>722.188</ele>
        <time>2018-07-24T12:05:23Z</time>
      </trkpt>
      <trkpt lat="41.137984" lon="-6.710069">
        <ele>722.141</ele>
        <time>2018-07-24T12:05:24Z</time>
      </trkpt>
      <trkpt lat="41.137942" lon="-6.710036">
        <ele>722.097</ele>
        <time>2018-07-24T12:05:25Z</time>
      </trkpt>
      <trkpt lat="41.1379" lon="-6.710007">
        <ele>722.061</ele>
        <time>2018-07-24T12:05:26Z</time>
      </trkpt>
      <trkpt lat="41.13786" lon="-6.709976">
        <ele>722.021</ele>
        <time>2018-07-24T12:05:27Z</time>
      </trkpt>
      <trkpt lat="41.137821" lon="-6.709946">
        <ele>721.98</ele>
        <time>2018-07-24T12:05:28Z</time>
      </trkpt>
      <trkpt lat="41.137782" lon="-6.709917">
        <ele>721.939</ele>
        <time>2018-07-24T12:05:29Z</time>
      </trkpt>
      <trkpt lat="41.137746" lon="-6.70989">
        <ele>721.895</ele>
        <time>2018-07-24T12:05:30Z</time>
      </trkpt>
      <trkpt lat="41.137711" lon="-6.709864">
        <ele>721.892</ele>
        <time>2018-07-24T12:05:31Z</time>
      </trkpt>
      <trkpt lat="41.137679" lon="-6.709839">
        <ele>721.853</ele>
        <time>2018-07-24T12:05:32Z</time>
      </trkpt>
      <trkpt lat="41.137646" lon="-6.709814">
        <ele>721.84</ele>
        <time>2018-07-24T12:05:33Z</time>
      </trkpt>
      <trkpt lat="41.137543" lon="-6.709755">
        <ele>721.829</ele>
        <time>2018-07-24T12:05:36Z</time>
      </trkpt>
      <trkpt lat="41.137484" lon="-6.709735">
        <ele>721.816</ele>
        <time>2018-07-24T12:05:38Z</time>
      </trkpt>
      <trkpt lat="41.137421" lon="-6.709727">
        <ele>721.8</ele>
        <time>2018-07-24T12:05:40Z</time>
      </trkpt>
      <trkpt lat="41.137369" lon="-6.709728">
        <ele>721.792</ele>
        <time>2018-07-24T12:05:42Z</time>
      </trkpt>
      <trkpt lat="41.137344" lon="-6.709726">
        <ele>721.783</ele>
        <time>2018-07-24T12:05:43Z</time>
      </trkpt>
      <trkpt lat="41.137319" lon="-6.709723">
        <ele>721.772</ele>
        <time>2018-07-24T12:05:44Z</time>
      </trkpt>
      <trkpt lat="41.137294" lon="-6.709721">
        <ele>721.76</ele>
        <time>2018-07-24T12:05:45Z</time>
      </trkpt>
      <trkpt lat="41.137265" lon="-6.709722">
        <ele>721.732</ele>
        <time>2018-07-24T12:05:46Z</time>
      </trkpt>
      <trkpt lat="41.137214" lon="-6.709717">
        <ele>721.717</ele>
        <time>2018-07-24T12:05:48Z</time>
      </trkpt>
      <trkpt lat="41.137187" lon="-6.709714">
        <ele>721.7</ele>
        <time>2018-07-24T12:05:49Z</time>
      </trkpt>
      <trkpt lat="41.137163" lon="-6.709713">
        <ele>721.684</ele>
        <time>2018-07-24T12:05:50Z</time>
      </trkpt>
      <trkpt lat="41.137135" lon="-6.709711">
        <ele>721.666</ele>
        <time>2018-07-24T12:05:51Z</time>
      </trkpt>
      <trkpt lat="41.137109" lon="-6.70971">
        <ele>721.648</ele>
        <time>2018-07-24T12:05:52Z</time>
      </trkpt>
      <trkpt lat="41.137075" lon="-6.709709">
        <ele>721.594</ele>
        <time>2018-07-24T12:05:53Z</time>
      </trkpt>
      <trkpt lat="41.136988" lon="-6.709722">
        <ele>721.576</ele>
        <time>2018-07-24T12:05:56Z</time>
      </trkpt>
      <trkpt lat="41.136962" lon="-6.709725">
        <ele>721.537</ele>
        <time>2018-07-24T12:05:57Z</time>
      </trkpt>
      <trkpt lat="41.136902" lon="-6.709747">
        <ele>721.477</ele>
        <time>2018-07-24T12:05:59Z</time>
      </trkpt>
      <trkpt lat="41.136819" lon="-6.709783">
        <ele>721.456</ele>
        <time>2018-07-24T12:06:02Z</time>
      </trkpt>
      <trkpt lat="41.136784" lon="-6.709798">
        <ele>721.436</ele>
        <time>2018-07-24T12:06:03Z</time>
      </trkpt>
      <trkpt lat="41.13675" lon="-6.709809">
        <ele>721.415</ele>
        <time>2018-07-24T12:06:04Z</time>
      </trkpt>
      <trkpt lat="41.136718" lon="-6.70982">
        <ele>721.393</ele>
        <time>2018-07-24T12:06:05Z</time>
      </trkpt>
      <trkpt lat="41.136691" lon="-6.709829">
        <ele>721.37</ele>
        <time>2018-07-24T12:06:06Z</time>
      </trkpt>
      <trkpt lat="41.136667" lon="-6.709839">
        <ele>721.347</ele>
        <time>2018-07-24T12:06:07Z</time>
      </trkpt>
      <trkpt lat="41.136644" lon="-6.709849">
        <ele>721.299</ele>
        <time>2018-07-24T12:06:08Z</time>
      </trkpt>
      <trkpt lat="41.136597" lon="-6.709865">
        <ele>721.248</ele>
        <time>2018-07-24T12:06:10Z</time>
      </trkpt>
      <trkpt lat="41.136559" lon="-6.70988">
        <ele>721.169</ele>
        <time>2018-07-24T12:06:12Z</time>
      </trkpt>
      <trkpt lat="41.136494" lon="-6.709881">
        <ele>721.118</ele>
        <time>2018-07-24T12:06:15Z</time>
      </trkpt>
      <trkpt lat="41.136447" lon="-6.709885">
        <ele>721.092</ele>
        <time>2018-07-24T12:06:17Z</time>
      </trkpt>
      <trkpt lat="41.136424" lon="-6.709888">
        <ele>721.068</ele>
        <time>2018-07-24T12:06:18Z</time>
      </trkpt>
      <trkpt lat="41.136398" lon="-6.70989">
        <ele>721.017</ele>
        <time>2018-07-24T12:06:19Z</time>
      </trkpt>
      <trkpt lat="41.136346" lon="-6.709886">
        <ele>720.941</ele>
        <time>2018-07-24T12:06:21Z</time>
      </trkpt>
      <trkpt lat="41.136272" lon="-6.709853">
        <ele>720.666</ele>
        <time>2018-07-24T12:06:24Z</time>
      </trkpt>
      <trkpt lat="41.136215" lon="-6.7098">
        <ele>720.294</ele>
        <time>2018-07-24T12:06:26Z</time>
      </trkpt>
      <trkpt lat="41.13615" lon="-6.709727">
        <ele>720.149</ele>
        <time>2018-07-24T12:06:28Z</time>
      </trkpt>
      <trkpt lat="41.136115" lon="-6.709693">
        <ele>720.03</ele>
        <time>2018-07-24T12:06:29Z</time>
      </trkpt>
      <trkpt lat="41.13608" lon="-6.709657">
        <ele>719.928</ele>
        <time>2018-07-24T12:06:30Z</time>
      </trkpt>
      <trkpt lat="41.13604" lon="-6.709622">
        <ele>719.83</ele>
        <time>2018-07-24T12:06:31Z</time>
      </trkpt>
      <trkpt lat="41.135993" lon="-6.709589">
        <ele>719.744</ele>
        <time>2018-07-24T12:06:32Z</time>
      </trkpt>
      <trkpt lat="41.135951" lon="-6.709554">
        <ele>719.658</ele>
        <time>2018-07-24T12:06:33Z</time>
      </trkpt>
      <trkpt lat="41.135904" lon="-6.709524">
        <ele>719.587</ele>
        <time>2018-07-24T12:06:34Z</time>
      </trkpt>
      <trkpt lat="41.135857" lon="-6.7095">
        <ele>719.52</ele>
        <time>2018-07-24T12:06:35Z</time>
      </trkpt>
      <trkpt lat="41.135802" lon="-6.709487">
        <ele>719.463</ele>
        <time>2018-07-24T12:06:36Z</time>
      </trkpt>
      <trkpt lat="41.135756" lon="-6.709478">
        <ele>719.419</ele>
        <time>2018-07-24T12:06:37Z</time>
      </trkpt>
      <trkpt lat="41.135708" lon="-6.709469">
        <ele>719.379</ele>
        <time>2018-07-24T12:06:38Z</time>
      </trkpt>
      <trkpt lat="41.135656" lon="-6.709465">
        <ele>719.347</ele>
        <time>2018-07-24T12:06:39Z</time>
      </trkpt>
      <trkpt lat="41.135603" lon="-6.709461">
        <ele>719.304</ele>
        <time>2018-07-24T12:06:40Z</time>
      </trkpt>
      <trkpt lat="41.135555" lon="-6.709456">
        <ele>719.269</ele>
        <time>2018-07-24T12:06:41Z</time>
      </trkpt>
      <trkpt lat="41.135507" lon="-6.709452">
        <ele>719.239</ele>
        <time>2018-07-24T12:06:42Z</time>
      </trkpt>
      <trkpt lat="41.135461" lon="-6.709444">
        <ele>719.222</ele>
        <time>2018-07-24T12:06:43Z</time>
      </trkpt>
      <trkpt lat="41.135416" lon="-6.709432">
        <ele>719.217</ele>
        <time>2018-07-24T12:06:44Z</time>
      </trkpt>
      <trkpt lat="41.135369" lon="-6.709419">
        <ele>719.211</ele>
        <time>2018-07-24T12:06:45Z</time>
      </trkpt>
      <trkpt lat="41.135321" lon="-6.709411">
        <ele>719.209</ele>
        <time>2018-07-24T12:06:46Z</time>
      </trkpt>
      <trkpt lat="41.135277" lon="-6.709407">
        <ele>719.185</ele>
        <time>2018-07-24T12:06:47Z</time>
      </trkpt>
      <trkpt lat="41.135185" lon="-6.709416">
        <ele>719.179</ele>
        <time>2018-07-24T12:06:49Z</time>
      </trkpt>
      <trkpt lat="41.135136" lon="-6.709422">
        <ele>719.165</ele>
        <time>2018-07-24T12:06:50Z</time>
      </trkpt>
      <trkpt lat="41.135081" lon="-6.709432">
        <ele>719.091</ele>
        <time>2018-07-24T12:06:51Z</time>
      </trkpt>
      <trkpt lat="41.134975" lon="-6.70946">
        <ele>719.044</ele>
        <time>2018-07-24T12:06:53Z</time>
      </trkpt>
      <trkpt lat="41.13493" lon="-6.709474">
        <ele>718.937</ele>
        <time>2018-07-24T12:06:54Z</time>
      </trkpt>
      <trkpt lat="41.13486" lon="-6.70951">
        <ele>718.795</ele>
        <time>2018-07-24T12:06:56Z</time>
      </trkpt>
      <trkpt lat="41.134761" lon="-6.709533">
        <ele>718.733</ele>
        <time>2018-07-24T12:06:59Z</time>
      </trkpt>
      <trkpt lat="41.134723" lon="-6.709538">
        <ele>718.657</ele>
        <time>2018-07-24T12:07:00Z</time>
      </trkpt>
      <trkpt lat="41.134676" lon="-6.709549">
        <ele>718.575</ele>
        <time>2018-07-24T12:07:01Z</time>
      </trkpt>
      <trkpt lat="41.134627" lon="-6.70956">
        <ele>718.475</ele>
        <time>2018-07-24T12:07:02Z</time>
      </trkpt>
      <trkpt lat="41.13457" lon="-6.709567">
        <ele>718.343</ele>
        <time>2018-07-24T12:07:03Z</time>
      </trkpt>
      <trkpt lat="41.134503" lon="-6.709576">
        <ele>718.19</ele>
        <time>2018-07-24T12:07:04Z</time>
      </trkpt>
      <trkpt lat="41.13443" lon="-6.709588">
        <ele>718.01</ele>
        <time>2018-07-24T12:07:05Z</time>
      </trkpt>
      <trkpt lat="41.13435" lon="-6.709605">
        <ele>717.82</ele>
        <time>2018-07-24T12:07:06Z</time>
      </trkpt>
      <trkpt lat="41.134267" lon="-6.709625">
        <ele>717.644</ele>
        <time>2018-07-24T12:07:07Z</time>
      </trkpt>
      <trkpt lat="41.134183" lon="-6.709645">
        <ele>717.469</ele>
        <time>2018-07-24T12:07:08Z</time>
      </trkpt>
      <trkpt lat="41.134099" lon="-6.709667">
        <ele>717.284</ele>
        <time>2018-07-24T12:07:09Z</time>
      </trkpt>
      <trkpt lat="41.134015" lon="-6.709698">
        <ele>717.095</ele>
        <time>2018-07-24T12:07:10Z</time>
      </trkpt>
      <trkpt lat="41.133933" lon="-6.709735">
        <ele>716.819</ele>
        <time>2018-07-24T12:07:11Z</time>
      </trkpt>
      <trkpt lat="41.13385" lon="-6.709768">
        <ele>716.501</ele>
        <time>2018-07-24T12:07:12Z</time>
      </trkpt>
      <trkpt lat="41.133761" lon="-6.709796">
        <ele>716.211</ele>
        <time>2018-07-24T12:07:13Z</time>
      </trkpt>
      <trkpt lat="41.133671" lon="-6.709824">
        <ele>715.486</ele>
        <time>2018-07-24T12:07:14Z</time>
      </trkpt>
      <trkpt lat="41.13342" lon="-6.709907">
        <ele>715.176</ele>
        <time>2018-07-24T12:07:17Z</time>
      </trkpt>
      <trkpt lat="41.133339" lon="-6.709933">
        <ele>714.805</ele>
        <time>2018-07-24T12:07:18Z</time>
      </trkpt>
      <trkpt lat="41.133258" lon="-6.709963">
        <ele>714.394</ele>
        <time>2018-07-24T12:07:19Z</time>
      </trkpt>
      <trkpt lat="41.133175" lon="-6.709989">
        <ele>713.981</ele>
        <time>2018-07-24T12:07:20Z</time>
      </trkpt>
      <trkpt lat="41.133089" lon="-6.710014">
        <ele>713.583</ele>
        <time>2018-07-24T12:07:21Z</time>
      </trkpt>
      <trkpt lat="41.132999" lon="-6.710041">
        <ele>713.177</ele>
        <time>2018-07-24T12:07:22Z</time>
      </trkpt>
      <trkpt lat="41.132907" lon="-6.710068">
        <ele>712.807</ele>
        <time>2018-07-24T12:07:23Z</time>
      </trkpt>
      <trkpt lat="41.132814" lon="-6.710102">
        <ele>712.364</ele>
        <time>2018-07-24T12:07:24Z</time>
      </trkpt>
      <trkpt lat="41.132714" lon="-6.710127">
        <ele>711.967</ele>
        <time>2018-07-24T12:07:25Z</time>
      </trkpt>
      <trkpt lat="41.132615" lon="-6.71016">
        <ele>711.616</ele>
        <time>2018-07-24T12:07:26Z</time>
      </trkpt>
      <trkpt lat="41.132521" lon="-6.710192">
        <ele>711.284</ele>
        <time>2018-07-24T12:07:27Z</time>
      </trkpt>
      <trkpt lat="41.132432" lon="-6.710225">
        <ele>710.957</ele>
        <time>2018-07-24T12:07:28Z</time>
      </trkpt>
      <trkpt lat="41.132344" lon="-6.710258">
        <ele>710.621</ele>
        <time>2018-07-24T12:07:29Z</time>
      </trkpt>
      <trkpt lat="41.132261" lon="-6.710288">
        <ele>710.257</ele>
        <time>2018-07-24T12:07:30Z</time>
      </trkpt>
      <trkpt lat="41.132188" lon="-6.710316">
        <ele>709.884</ele>
        <time>2018-07-24T12:07:31Z</time>
      </trkpt>
      <trkpt lat="41.132122" lon="-6.710341">
        <ele>709.46</ele>
        <time>2018-07-24T12:07:32Z</time>
      </trkpt>
      <trkpt lat="41.132054" lon="-6.710378">
        <ele>709.049</ele>
        <time>2018-07-24T12:07:33Z</time>
      </trkpt>
      <trkpt lat="41.131983" lon="-6.710425">
        <ele>708.665</ele>
        <time>2018-07-24T12:07:34Z</time>
      </trkpt>
      <trkpt lat="41.131918" lon="-6.710481">
        <ele>708.261</ele>
        <time>2018-07-24T12:07:35Z</time>
      </trkpt>
      <trkpt lat="41.131861" lon="-6.710538">
        <ele>707.861</ele>
        <time>2018-07-24T12:07:36Z</time>
      </trkpt>
      <trkpt lat="41.131814" lon="-6.710602">
        <ele>707.471</ele>
        <time>2018-07-24T12:07:37Z</time>
      </trkpt>
      <trkpt lat="41.131767" lon="-6.710658">
        <ele>707.109</ele>
        <time>2018-07-24T12:07:38Z</time>
      </trkpt>
      <trkpt lat="41.131714" lon="-6.710704">
        <ele>706.699</ele>
        <time>2018-07-24T12:07:39Z</time>
      </trkpt>
      <trkpt lat="41.131645" lon="-6.710718">
        <ele>706.337</ele>
        <time>2018-07-24T12:07:40Z</time>
      </trkpt>
      <trkpt lat="41.131567" lon="-6.710718">
        <ele>705.923</ele>
        <time>2018-07-24T12:07:41Z</time>
      </trkpt>
      <trkpt lat="41.131488" lon="-6.710716">
        <ele>705.627</ele>
        <time>2018-07-24T12:07:42Z</time>
      </trkpt>
      <trkpt lat="41.131411" lon="-6.710703">
        <ele>705.342</ele>
        <time>2018-07-24T12:07:43Z</time>
      </trkpt>
      <trkpt lat="41.131334" lon="-6.710701">
        <ele>705.001</ele>
        <time>2018-07-24T12:07:44Z</time>
      </trkpt>
      <trkpt lat="41.131253" lon="-6.710688">
        <ele>704.704</ele>
        <time>2018-07-24T12:07:45Z</time>
      </trkpt>
      <trkpt lat="41.131171" lon="-6.710698">
        <ele>704.152</ele>
        <time>2018-07-24T12:07:46Z</time>
      </trkpt>
      <trkpt lat="41.130999" lon="-6.710727">
        <ele>703.83</ele>
        <time>2018-07-24T12:07:48Z</time>
      </trkpt>
      <trkpt lat="41.13091" lon="-6.710744">
        <ele>703.51</ele>
        <time>2018-07-24T12:07:49Z</time>
      </trkpt>
      <trkpt lat="41.130819" lon="-6.710771">
        <ele>703.132</ele>
        <time>2018-07-24T12:07:50Z</time>
      </trkpt>
      <trkpt lat="41.130724" lon="-6.710783">
        <ele>702.711</ele>
        <time>2018-07-24T12:07:51Z</time>
      </trkpt>
      <trkpt lat="41.13063" lon="-6.710802">
        <ele>702.445</ele>
        <time>2018-07-24T12:07:52Z</time>
      </trkpt>
      <trkpt lat="41.130539" lon="-6.710823">
        <ele>702.097</ele>
        <time>2018-07-24T12:07:53Z</time>
      </trkpt>
      <trkpt lat="41.130447" lon="-6.710843">
        <ele>701.711</ele>
        <time>2018-07-24T12:07:54Z</time>
      </trkpt>
      <trkpt lat="41.130356" lon="-6.710866">
        <ele>701.266</ele>
        <time>2018-07-24T12:07:55Z</time>
      </trkpt>
      <trkpt lat="41.130267" lon="-6.710888">
        <ele>700.747</ele>
        <time>2018-07-24T12:07:56Z</time>
      </trkpt>
      <trkpt lat="41.13018" lon="-6.710906">
        <ele>700.139</ele>
        <time>2018-07-24T12:07:57Z</time>
      </trkpt>
      <trkpt lat="41.130093" lon="-6.710917">
        <ele>699.487</ele>
        <time>2018-07-24T12:07:58Z</time>
      </trkpt>
      <trkpt lat="41.130008" lon="-6.710928">
        <ele>698.828</ele>
        <time>2018-07-24T12:07:59Z</time>
      </trkpt>
      <trkpt lat="41.129926" lon="-6.710933">
        <ele>698.229</ele>
        <time>2018-07-24T12:08:00Z</time>
      </trkpt>
      <trkpt lat="41.129851" lon="-6.71094">
        <ele>697.757</ele>
        <time>2018-07-24T12:08:01Z</time>
      </trkpt>
      <trkpt lat="41.129783" lon="-6.710949">
        <ele>697.388</ele>
        <time>2018-07-24T12:08:02Z</time>
      </trkpt>
      <trkpt lat="41.129719" lon="-6.710959">
        <ele>696.999</ele>
        <time>2018-07-24T12:08:03Z</time>
      </trkpt>
      <trkpt lat="41.12966" lon="-6.710978">
        <ele>696.545</ele>
        <time>2018-07-24T12:08:04Z</time>
      </trkpt>
      <trkpt lat="41.129603" lon="-6.711005">
        <ele>696.078</ele>
        <time>2018-07-24T12:08:05Z</time>
      </trkpt>
      <trkpt lat="41.129549" lon="-6.711044">
        <ele>695.67</ele>
        <time>2018-07-24T12:08:06Z</time>
      </trkpt>
      <trkpt lat="41.129494" lon="-6.711086">
        <ele>695.335</ele>
        <time>2018-07-24T12:08:07Z</time>
      </trkpt>
      <trkpt lat="41.129442" lon="-6.711128">
        <ele>694.919</ele>
        <time>2018-07-24T12:08:08Z</time>
      </trkpt>
      <trkpt lat="41.129396" lon="-6.711169">
        <ele>694.622</ele>
        <time>2018-07-24T12:08:09Z</time>
      </trkpt>
      <trkpt lat="41.12935" lon="-6.711207">
        <ele>694.339</ele>
        <time>2018-07-24T12:08:10Z</time>
      </trkpt>
      <trkpt lat="41.129304" lon="-6.711244">
        <ele>694.03</ele>
        <time>2018-07-24T12:08:11Z</time>
      </trkpt>
      <trkpt lat="41.129258" lon="-6.711282">
        <ele>693.775</ele>
        <time>2018-07-24T12:08:12Z</time>
      </trkpt>
      <trkpt lat="41.129211" lon="-6.711312">
        <ele>693.53</ele>
        <time>2018-07-24T12:08:13Z</time>
      </trkpt>
      <trkpt lat="41.12916" lon="-6.711338">
        <ele>693.53</ele>
        <time>2018-07-24T12:08:14Z</time>
      </trkpt>
      <trkpt lat="41.129109" lon="-6.711358">
        <ele>693.515</ele>
        <time>2018-07-24T12:08:15Z</time>
      </trkpt>
      <trkpt lat="41.12906" lon="-6.711374">
        <ele>693.43</ele>
        <time>2018-07-24T12:08:16Z</time>
      </trkpt>
      <trkpt lat="41.129013" lon="-6.711391">
        <ele>693.385</ele>
        <time>2018-07-24T12:08:17Z</time>
      </trkpt>
      <trkpt lat="41.12896" lon="-6.711408">
        <ele>693.355</ele>
        <time>2018-07-24T12:08:18Z</time>
      </trkpt>
      <trkpt lat="41.12891" lon="-6.711422">
        <ele>693.304</ele>
        <time>2018-07-24T12:08:19Z</time>
      </trkpt>
      <trkpt lat="41.128856" lon="-6.71144">
        <ele>693.268</ele>
        <time>2018-07-24T12:08:20Z</time>
      </trkpt>
      <trkpt lat="41.128804" lon="-6.711457">
        <ele>693.305</ele>
        <time>2018-07-24T12:08:21Z</time>
      </trkpt>
      <trkpt lat="41.128755" lon="-6.711468">
        <ele>693.345</ele>
        <time>2018-07-24T12:08:22Z</time>
      </trkpt>
      <trkpt lat="41.128707" lon="-6.711482">
        <ele>693.376</ele>
        <time>2018-07-24T12:08:23Z</time>
      </trkpt>
      <trkpt lat="41.128659" lon="-6.711495">
        <ele>693.393</ele>
        <time>2018-07-24T12:08:24Z</time>
      </trkpt>
      <trkpt lat="41.128613" lon="-6.711508">
        <ele>693.365</ele>
        <time>2018-07-24T12:08:25Z</time>
      </trkpt>
      <trkpt lat="41.128567" lon="-6.711515">
        <ele>693.095</ele>
        <time>2018-07-24T12:08:26Z</time>
      </trkpt>
      <trkpt lat="41.128523" lon="-6.711526">
        <ele>692.854</ele>
        <time>2018-07-24T12:08:27Z</time>
      </trkpt>
      <trkpt lat="41.128478" lon="-6.711535">
        <ele>692.648</ele>
        <time>2018-07-24T12:08:28Z</time>
      </trkpt>
      <trkpt lat="41.128434" lon="-6.711548">
        <ele>692.457</ele>
        <time>2018-07-24T12:08:29Z</time>
      </trkpt>
      <trkpt lat="41.128392" lon="-6.711562">
        <ele>692.466</ele>
        <time>2018-07-24T12:08:30Z</time>
      </trkpt>
      <trkpt lat="41.12835" lon="-6.71157">
        <ele>692.414</ele>
        <time>2018-07-24T12:08:31Z</time>
      </trkpt>
      <trkpt lat="41.128307" lon="-6.711582">
        <ele>692.125</ele>
        <time>2018-07-24T12:08:32Z</time>
      </trkpt>
      <trkpt lat="41.128232" lon="-6.711623">
        <ele>691.931</ele>
        <time>2018-07-24T12:08:34Z</time>
      </trkpt>
      <trkpt lat="41.128195" lon="-6.711647">
        <ele>691.77</ele>
        <time>2018-07-24T12:08:35Z</time>
      </trkpt>
      <trkpt lat="41.128158" lon="-6.711675">
        <ele>691.693</ele>
        <time>2018-07-24T12:08:36Z</time>
      </trkpt>
      <trkpt lat="41.128121" lon="-6.711704">
        <ele>691.587</ele>
        <time>2018-07-24T12:08:37Z</time>
      </trkpt>
      <trkpt lat="41.128082" lon="-6.711733">
        <ele>691.504</ele>
        <time>2018-07-24T12:08:38Z</time>
      </trkpt>
      <trkpt lat="41.128045" lon="-6.711763">
        <ele>691.4</ele>
        <time>2018-07-24T12:08:39Z</time>
      </trkpt>
      <trkpt lat="41.128008" lon="-6.711792">
        <ele>691.304</ele>
        <time>2018-07-24T12:08:40Z</time>
      </trkpt>
      <trkpt lat="41.127973" lon="-6.711825">
        <ele>691.16</ele>
        <time>2018-07-24T12:08:41Z</time>
      </trkpt>
      <trkpt lat="41.127901" lon="-6.71188">
        <ele>691.106</ele>
        <time>2018-07-24T12:08:43Z</time>
      </trkpt>
      <trkpt lat="41.127866" lon="-6.711907">
        <ele>691.048</ele>
        <time>2018-07-24T12:08:44Z</time>
      </trkpt>
      <trkpt lat="41.127833" lon="-6.711933">
        <ele>691.034</ele>
        <time>2018-07-24T12:08:45Z</time>
      </trkpt>
      <trkpt lat="41.127797" lon="-6.711961">
        <ele>690.992</ele>
        <time>2018-07-24T12:08:46Z</time>
      </trkpt>
      <trkpt lat="41.127762" lon="-6.711989">
        <ele>690.872</ele>
        <time>2018-07-24T12:08:47Z</time>
      </trkpt>
      <trkpt lat="41.127724" lon="-6.712018">
        <ele>690.708</ele>
        <time>2018-07-24T12:08:48Z</time>
      </trkpt>
      <trkpt lat="41.127684" lon="-6.712049">
        <ele>690.47</ele>
        <time>2018-07-24T12:08:49Z</time>
      </trkpt>
      <trkpt lat="41.127644" lon="-6.71208">
        <ele>690.194</ele>
        <time>2018-07-24T12:08:50Z</time>
      </trkpt>
      <trkpt lat="41.127602" lon="-6.71211">
        <ele>689.848</ele>
        <time>2018-07-24T12:08:51Z</time>
      </trkpt>
      <trkpt lat="41.127557" lon="-6.712139">
        <ele>689.581</ele>
        <time>2018-07-24T12:08:52Z</time>
      </trkpt>
      <trkpt lat="41.127512" lon="-6.712162">
        <ele>689.316</ele>
        <time>2018-07-24T12:08:53Z</time>
      </trkpt>
      <trkpt lat="41.127466" lon="-6.712181">
        <ele>689.061</ele>
        <time>2018-07-24T12:08:54Z</time>
      </trkpt>
      <trkpt lat="41.12742" lon="-6.712198">
        <ele>688.777</ele>
        <time>2018-07-24T12:08:55Z</time>
      </trkpt>
      <trkpt lat="41.127377" lon="-6.712211">
        <ele>688.512</ele>
        <time>2018-07-24T12:08:56Z</time>
      </trkpt>
      <trkpt lat="41.12733" lon="-6.712224">
        <ele>688.292</ele>
        <time>2018-07-24T12:08:57Z</time>
      </trkpt>
      <trkpt lat="41.12728" lon="-6.712235">
        <ele>688.029</ele>
        <time>2018-07-24T12:08:58Z</time>
      </trkpt>
      <trkpt lat="41.127227" lon="-6.712245">
        <ele>687.776</ele>
        <time>2018-07-24T12:08:59Z</time>
      </trkpt>
      <trkpt lat="41.127171" lon="-6.712259">
        <ele>687.362</ele>
        <time>2018-07-24T12:09:00Z</time>
      </trkpt>
      <trkpt lat="41.127114" lon="-6.712276">
        <ele>687.007</ele>
        <time>2018-07-24T12:09:01Z</time>
      </trkpt>
      <trkpt lat="41.127051" lon="-6.712305">
        <ele>686.713</ele>
        <time>2018-07-24T12:09:02Z</time>
      </trkpt>
      <trkpt lat="41.126986" lon="-6.712341">
        <ele>686.21</ele>
        <time>2018-07-24T12:09:03Z</time>
      </trkpt>
      <trkpt lat="41.126849" lon="-6.712423">
        <ele>685.911</ele>
        <time>2018-07-24T12:09:05Z</time>
      </trkpt>
      <trkpt lat="41.126775" lon="-6.712459">
        <ele>685.609</ele>
        <time>2018-07-24T12:09:06Z</time>
      </trkpt>
      <trkpt lat="41.126699" lon="-6.712497">
        <ele>685.303</ele>
        <time>2018-07-24T12:09:07Z</time>
      </trkpt>
      <trkpt lat="41.126627" lon="-6.712542">
        <ele>684.996</ele>
        <time>2018-07-24T12:09:08Z</time>
      </trkpt>
      <trkpt lat="41.126556" lon="-6.712593">
        <ele>684.654</ele>
        <time>2018-07-24T12:09:09Z</time>
      </trkpt>
      <trkpt lat="41.126483" lon="-6.712645">
        <ele>684.321</ele>
        <time>2018-07-24T12:09:10Z</time>
      </trkpt>
      <trkpt lat="41.126409" lon="-6.712689">
        <ele>683.961</ele>
        <time>2018-07-24T12:09:11Z</time>
      </trkpt>
      <trkpt lat="41.126337" lon="-6.712729">
        <ele>683.608</ele>
        <time>2018-07-24T12:09:12Z</time>
      </trkpt>
      <trkpt lat="41.126262" lon="-6.712764">
        <ele>683.296</ele>
        <time>2018-07-24T12:09:13Z</time>
      </trkpt>
      <trkpt lat="41.126187" lon="-6.7128">
        <ele>682.935</ele>
        <time>2018-07-24T12:09:14Z</time>
      </trkpt>
      <trkpt lat="41.126112" lon="-6.712833">
        <ele>682.619</ele>
        <time>2018-07-24T12:09:15Z</time>
      </trkpt>
      <trkpt lat="41.126038" lon="-6.71286">
        <ele>682.403</ele>
        <time>2018-07-24T12:09:16Z</time>
      </trkpt>
      <trkpt lat="41.125973" lon="-6.712878">
        <ele>682.234</ele>
        <time>2018-07-24T12:09:17Z</time>
      </trkpt>
      <trkpt lat="41.125919" lon="-6.712885">
        <ele>682.021</ele>
        <time>2018-07-24T12:09:18Z</time>
      </trkpt>
      <trkpt lat="41.125875" lon="-6.712891">
        <ele>681.995</ele>
        <time>2018-07-24T12:09:19Z</time>
      </trkpt>
      <trkpt lat="41.125839" lon="-6.712892">
        <ele>681.332</ele>
        <time>2018-07-24T12:09:20Z</time>
      </trkpt>
      <trkpt lat="41.125768" lon="-6.712882">
        <ele>681.0</ele>
        <time>2018-07-24T12:09:22Z</time>
      </trkpt>
      <trkpt lat="41.125728" lon="-6.712871">
        <ele>680.362</ele>
        <time>2018-07-24T12:09:23Z</time>
      </trkpt>
      <trkpt lat="41.125641" lon="-6.71285">
        <ele>680.017</ele>
        <time>2018-07-24T12:09:25Z</time>
      </trkpt>
      <trkpt lat="41.12559" lon="-6.712836">
        <ele>679.656</ele>
        <time>2018-07-24T12:09:26Z</time>
      </trkpt>
      <trkpt lat="41.125527" lon="-6.712822">
        <ele>679.324</ele>
        <time>2018-07-24T12:09:27Z</time>
      </trkpt>
      <trkpt lat="41.125468" lon="-6.712813">
        <ele>678.99</ele>
        <time>2018-07-24T12:09:28Z</time>
      </trkpt>
      <trkpt lat="41.125403" lon="-6.712805">
        <ele>678.689</ele>
        <time>2018-07-24T12:09:29Z</time>
      </trkpt>
      <trkpt lat="41.125334" lon="-6.712796">
        <ele>678.405</ele>
        <time>2018-07-24T12:09:30Z</time>
      </trkpt>
      <trkpt lat="41.125262" lon="-6.71279">
        <ele>678.096</ele>
        <time>2018-07-24T12:09:31Z</time>
      </trkpt>
      <trkpt lat="41.125188" lon="-6.712793">
        <ele>677.781</ele>
        <time>2018-07-24T12:09:32Z</time>
      </trkpt>
      <trkpt lat="41.125112" lon="-6.712806">
        <ele>677.431</ele>
        <time>2018-07-24T12:09:33Z</time>
      </trkpt>
      <trkpt lat="41.125035" lon="-6.712827">
        <ele>677.088</ele>
        <time>2018-07-24T12:09:34Z</time>
      </trkpt>
      <trkpt lat="41.12496" lon="-6.712861">
        <ele>676.717</ele>
        <time>2018-07-24T12:09:35Z</time>
      </trkpt>
      <trkpt lat="41.124887" lon="-6.712902">
        <ele>676.324</ele>
        <time>2018-07-24T12:09:36Z</time>
      </trkpt>
      <trkpt lat="41.12481" lon="-6.712937">
        <ele>675.928</ele>
        <time>2018-07-24T12:09:37Z</time>
      </trkpt>
      <trkpt lat="41.124731" lon="-6.712965">
        <ele>675.527</ele>
        <time>2018-07-24T12:09:38Z</time>
      </trkpt>
      <trkpt lat="41.124646" lon="-6.712981">
        <ele>675.193</ele>
        <time>2018-07-24T12:09:39Z</time>
      </trkpt>
      <trkpt lat="41.12456" lon="-6.713001">
        <ele>674.816</ele>
        <time>2018-07-24T12:09:40Z</time>
      </trkpt>
      <trkpt lat="41.124471" lon="-6.713029">
        <ele>674.483</ele>
        <time>2018-07-24T12:09:41Z</time>
      </trkpt>
      <trkpt lat="41.124385" lon="-6.713069">
        <ele>674.171</ele>
        <time>2018-07-24T12:09:42Z</time>
      </trkpt>
      <trkpt lat="41.124308" lon="-6.713115">
        <ele>673.848</ele>
        <time>2018-07-24T12:09:43Z</time>
      </trkpt>
      <trkpt lat="41.124241" lon="-6.713157">
        <ele>673.507</ele>
        <time>2018-07-24T12:09:44Z</time>
      </trkpt>
      <trkpt lat="41.12418" lon="-6.713187">
        <ele>673.144</ele>
        <time>2018-07-24T12:09:45Z</time>
      </trkpt>
      <trkpt lat="41.124118" lon="-6.713203">
        <ele>672.767</ele>
        <time>2018-07-24T12:09:46Z</time>
      </trkpt>
      <trkpt lat="41.124056" lon="-6.713209">
        <ele>672.361</ele>
        <time>2018-07-24T12:09:47Z</time>
      </trkpt>
      <trkpt lat="41.12399" lon="-6.713197">
        <ele>671.974</ele>
        <time>2018-07-24T12:09:48Z</time>
      </trkpt>
      <trkpt lat="41.12392" lon="-6.713165">
        <ele>671.607</ele>
        <time>2018-07-24T12:09:49Z</time>
      </trkpt>
      <trkpt lat="41.123854" lon="-6.713124">
        <ele>671.406</ele>
        <time>2018-07-24T12:09:50Z</time>
      </trkpt>
      <trkpt lat="41.123786" lon="-6.713082">
        <ele>671.398</ele>
        <time>2018-07-24T12:09:51Z</time>
      </trkpt>
      <trkpt lat="41.123716" lon="-6.713041">
        <ele>671.759</ele>
        <time>2018-07-24T12:09:52Z</time>
      </trkpt>
      <trkpt lat="41.123646" lon="-6.713015">
        <ele>672.016</ele>
        <time>2018-07-24T12:09:53Z</time>
      </trkpt>
      <trkpt lat="41.123578" lon="-6.713003">
        <ele>672.309</ele>
        <time>2018-07-24T12:09:54Z</time>
      </trkpt>
      <trkpt lat="41.123516" lon="-6.712989">
        <ele>672.5</ele>
        <time>2018-07-24T12:09:55Z</time>
      </trkpt>
      <trkpt lat="41.123457" lon="-6.712975">
        <ele>672.622</ele>
        <time>2018-07-24T12:09:56Z</time>
      </trkpt>
      <trkpt lat="41.123399" lon="-6.712957">
        <ele>672.655</ele>
        <time>2018-07-24T12:09:57Z</time>
      </trkpt>
      <trkpt lat="41.123348" lon="-6.712934">
        <ele>672.63</ele>
        <time>2018-07-24T12:09:58Z</time>
      </trkpt>
      <trkpt lat="41.123297" lon="-6.712909">
        <ele>672.582</ele>
        <time>2018-07-24T12:09:59Z</time>
      </trkpt>
      <trkpt lat="41.123251" lon="-6.712881">
        <ele>672.538</ele>
        <time>2018-07-24T12:10:00Z</time>
      </trkpt>
      <trkpt lat="41.12321" lon="-6.712852">
        <ele>672.423</ele>
        <time>2018-07-24T12:10:01Z</time>
      </trkpt>
      <trkpt lat="41.123171" lon="-6.712821">
        <ele>672.265</ele>
        <time>2018-07-24T12:10:02Z</time>
      </trkpt>
      <trkpt lat="41.123131" lon="-6.712787">
        <ele>672.161</ele>
        <time>2018-07-24T12:10:03Z</time>
      </trkpt>
      <trkpt lat="41.123092" lon="-6.712754">
        <ele>672.051</ele>
        <time>2018-07-24T12:10:04Z</time>
      </trkpt>
      <trkpt lat="41.123055" lon="-6.712717">
        <ele>672.061</ele>
        <time>2018-07-24T12:10:05Z</time>
      </trkpt>
      <trkpt lat="41.123018" lon="-6.712682">
        <ele>671.973</ele>
        <time>2018-07-24T12:10:06Z</time>
      </trkpt>
      <trkpt lat="41.122986" lon="-6.712656">
        <ele>671.743</ele>
        <time>2018-07-24T12:10:07Z</time>
      </trkpt>
      <trkpt lat="41.1229" lon="-6.712633">
        <ele>671.581</ele>
        <time>2018-07-24T12:10:09Z</time>
      </trkpt>
      <trkpt lat="41.12282" lon="-6.712666">
        <ele>671.531</ele>
        <time>2018-07-24T12:10:11Z</time>
      </trkpt>
      <trkpt lat="41.12276" lon="-6.712721">
        <ele>671.489</ele>
        <time>2018-07-24T12:10:13Z</time>
      </trkpt>
      <trkpt lat="41.122734" lon="-6.712749">
        <ele>671.397</ele>
        <time>2018-07-24T12:10:14Z</time>
      </trkpt>
      <trkpt lat="41.122684" lon="-6.71282">
        <ele>670.906</ele>
        <time>2018-07-24T12:10:16Z</time>
      </trkpt>
      <trkpt lat="41.12266" lon="-6.712855">
        <ele>670.499</ele>
        <time>2018-07-24T12:10:17Z</time>
      </trkpt>
      <trkpt lat="41.122636" lon="-6.712892">
        <ele>670.164</ele>
        <time>2018-07-24T12:10:18Z</time>
      </trkpt>
      <trkpt lat="41.122611" lon="-6.712933">
        <ele>669.684</ele>
        <time>2018-07-24T12:10:19Z</time>
      </trkpt>
      <trkpt lat="41.122558" lon="-6.713072">
        <ele>669.667</ele>
        <time>2018-07-24T12:10:22Z</time>
      </trkpt>
      <trkpt lat="41.122524" lon="-6.713127">
        <ele>669.667</ele>
        <time>2018-07-24T12:10:24Z</time>
      </trkpt>
      <trkpt lat="41.122509" lon="-6.713152">
        <ele>669.652</ele>
        <time>2018-07-24T12:10:25Z</time>
      </trkpt>
      <trkpt lat="41.122484" lon="-6.713212">
        <ele>669.579</ele>
        <time>2018-07-24T12:10:27Z</time>
      </trkpt>
      <trkpt lat="41.12243" lon="-6.713295">
        <ele>669.514</ele>
        <time>2018-07-24T12:10:31Z</time>
      </trkpt>
      <trkpt lat="41.122389" lon="-6.713346">
        <ele>669.448</ele>
        <time>2018-07-24T12:10:34Z</time>
      </trkpt>
      <trkpt lat="41.122352" lon="-6.713397">
        <ele>669.4</ele>
        <time>2018-07-24T12:10:37Z</time>
      </trkpt>
      <trkpt lat="41.12233" lon="-6.713428">
        <ele>669.348</ele>
        <time>2018-07-24T12:10:39Z</time>
      </trkpt>
      <trkpt lat="41.122309" lon="-6.71346">
        <ele>669.293</ele>
        <time>2018-07-24T12:10:41Z</time>
      </trkpt>
      <trkpt lat="41.122288" lon="-6.713493">
        <ele>669.208</ele>
        <time>2018-07-24T12:10:43Z</time>
      </trkpt>
      <trkpt lat="41.122251" lon="-6.713538">
        <ele>669.15</ele>
        <time>2018-07-24T12:10:46Z</time>
      </trkpt>
      <trkpt lat="41.122231" lon="-6.713562">
        <ele>669.089</ele>
        <time>2018-07-24T12:10:48Z</time>
      </trkpt>
      <trkpt lat="41.122207" lon="-6.713593">
        <ele>669.023</ele>
        <time>2018-07-24T12:10:50Z</time>
      </trkpt>
      <trkpt lat="41.122184" lon="-6.713622">
        <ele>668.951</ele>
        <time>2018-07-24T12:10:52Z</time>
      </trkpt>
      <trkpt lat="41.12216" lon="-6.713651">
        <ele>668.873</ele>
        <time>2018-07-24T12:10:54Z</time>
      </trkpt>
      <trkpt lat="41.122139" lon="-6.71368">
        <ele>668.792</ele>
        <time>2018-07-24T12:10:56Z</time>
      </trkpt>
      <trkpt lat="41.122116" lon="-6.713712">
        <ele>668.663</ele>
        <time>2018-07-24T12:10:58Z</time>
      </trkpt>
      <trkpt lat="41.122077" lon="-6.713759">
        <ele>668.571</ele>
        <time>2018-07-24T12:11:01Z</time>
      </trkpt>
      <trkpt lat="41.122051" lon="-6.713795">
        <ele>668.476</ele>
        <time>2018-07-24T12:11:03Z</time>
      </trkpt>
      <trkpt lat="41.122025" lon="-6.713833">
        <ele>668.376</ele>
        <time>2018-07-24T12:11:05Z</time>
      </trkpt>
      <trkpt lat="41.121999" lon="-6.71387">
        <ele>668.169</ele>
        <time>2018-07-24T12:11:07Z</time>
      </trkpt>
      <trkpt lat="41.121944" lon="-6.71393">
        <ele>668.007</ele>
        <time>2018-07-24T12:11:11Z</time>
      </trkpt>
      <trkpt lat="41.12191" lon="-6.713978">
        <ele>667.899</ele>
        <time>2018-07-24T12:11:14Z</time>
      </trkpt>
      <trkpt lat="41.121886" lon="-6.714008">
        <ele>667.793</ele>
        <time>2018-07-24T12:11:16Z</time>
      </trkpt>
      <trkpt lat="41.121862" lon="-6.714044">
        <ele>667.687</ele>
        <time>2018-07-24T12:11:18Z</time>
      </trkpt>
      <trkpt lat="41.121838" lon="-6.714079">
        <ele>667.585</ele>
        <time>2018-07-24T12:11:20Z</time>
      </trkpt>
      <trkpt lat="41.121813" lon="-6.714111">
        <ele>667.484</ele>
        <time>2018-07-24T12:11:22Z</time>
      </trkpt>
      <trkpt lat="41.121785" lon="-6.714145">
        <ele>667.387</ele>
        <time>2018-07-24T12:11:24Z</time>
      </trkpt>
      <trkpt lat="41.121751" lon="-6.714187">
        <ele>667.243</ele>
        <time>2018-07-24T12:11:26Z</time>
      </trkpt>
      <trkpt lat="41.121707" lon="-6.714254">
        <ele>667.099</ele>
        <time>2018-07-24T12:11:29Z</time>
      </trkpt>
      <trkpt lat="41.121659" lon="-6.714314">
        <ele>667.05</ele>
        <time>2018-07-24T12:11:32Z</time>
      </trkpt>
      <trkpt lat="41.121641" lon="-6.714336">
        <ele>667.002</ele>
        <time>2018-07-24T12:11:33Z</time>
      </trkpt>
      <trkpt lat="41.121622" lon="-6.714358">
        <ele>666.954</ele>
        <time>2018-07-24T12:11:34Z</time>
      </trkpt>
      <trkpt lat="41.121599" lon="-6.714381">
        <ele>666.905</ele>
        <time>2018-07-24T12:11:35Z</time>
      </trkpt>
      <trkpt lat="41.121579" lon="-6.714402">
        <ele>666.856</ele>
        <time>2018-07-24T12:11:36Z</time>
      </trkpt>
      <trkpt lat="41.121558" lon="-6.714422">
        <ele>666.761</ele>
        <time>2018-07-24T12:11:37Z</time>
      </trkpt>
      <trkpt lat="41.121513" lon="-6.714467">
        <ele>666.713</ele>
        <time>2018-07-24T12:11:39Z</time>
      </trkpt>
      <trkpt lat="41.121489" lon="-6.714489">
        <ele>666.666</ele>
        <time>2018-07-24T12:11:40Z</time>
      </trkpt>
      <trkpt lat="41.121463" lon="-6.714515">
        <ele>666.619</ele>
        <time>2018-07-24T12:11:41Z</time>
      </trkpt>
      <trkpt lat="41.121435" lon="-6.714542">
        <ele>666.572</ele>
        <time>2018-07-24T12:11:42Z</time>
      </trkpt>
      <trkpt lat="41.121406" lon="-6.714571">
        <ele>666.525</ele>
        <time>2018-07-24T12:11:43Z</time>
      </trkpt>
      <trkpt lat="41.121378" lon="-6.714595">
        <ele>666.479</ele>
        <time>2018-07-24T12:11:44Z</time>
      </trkpt>
      <trkpt lat="41.121348" lon="-6.714618">
        <ele>666.433</ele>
        <time>2018-07-24T12:11:45Z</time>
      </trkpt>
      <trkpt lat="41.121317" lon="-6.714643">
        <ele>666.387</ele>
        <time>2018-07-24T12:11:46Z</time>
      </trkpt>
      <trkpt lat="41.121285" lon="-6.714672">
        <ele>666.342</ele>
        <time>2018-07-24T12:11:47Z</time>
      </trkpt>
      <trkpt lat="41.121251" lon="-6.714699">
        <ele>666.252</ele>
        <time>2018-07-24T12:11:48Z</time>
      </trkpt>
      <trkpt lat="41.121183" lon="-6.714747">
        <ele>665.134</ele>
        <time>2018-07-24T12:11:50Z</time>
      </trkpt>
      <trkpt lat="41.121098" lon="-6.714838">
        <ele>664.672</ele>
        <time>2018-07-24T12:11:53Z</time>
      </trkpt>
      <trkpt lat="41.12103" lon="-6.714895">
        <ele>664.495</ele>
        <time>2018-07-24T12:11:55Z</time>
      </trkpt>
      <trkpt lat="41.120995" lon="-6.714924">
        <ele>664.348</ele>
        <time>2018-07-24T12:11:56Z</time>
      </trkpt>
      <trkpt lat="41.120959" lon="-6.714956">
        <ele>664.225</ele>
        <time>2018-07-24T12:11:57Z</time>
      </trkpt>
      <trkpt lat="41.120923" lon="-6.714989">
        <ele>664.121</ele>
        <time>2018-07-24T12:11:58Z</time>
      </trkpt>
      <trkpt lat="41.120886" lon="-6.715023">
        <ele>664.029</ele>
        <time>2018-07-24T12:11:59Z</time>
      </trkpt>
      <trkpt lat="41.120849" lon="-6.715062">
        <ele>663.945</ele>
        <time>2018-07-24T12:12:00Z</time>
      </trkpt>
      <trkpt lat="41.120815" lon="-6.715102">
        <ele>663.87</ele>
        <time>2018-07-24T12:12:01Z</time>
      </trkpt>
      <trkpt lat="41.120784" lon="-6.715141">
        <ele>663.804</ele>
        <time>2018-07-24T12:12:02Z</time>
      </trkpt>
      <trkpt lat="41.120753" lon="-6.715181">
        <ele>663.738</ele>
        <time>2018-07-24T12:12:03Z</time>
      </trkpt>
      <trkpt lat="41.120721" lon="-6.715224">
        <ele>663.674</ele>
        <time>2018-07-24T12:12:04Z</time>
      </trkpt>
      <trkpt lat="41.120691" lon="-6.71527">
        <ele>663.613</ele>
        <time>2018-07-24T12:12:05Z</time>
      </trkpt>
      <trkpt lat="41.120663" lon="-6.715316">
        <ele>663.558</ele>
        <time>2018-07-24T12:12:06Z</time>
      </trkpt>
      <trkpt lat="41.120633" lon="-6.715362">
        <ele>663.507</ele>
        <time>2018-07-24T12:12:07Z</time>
      </trkpt>
      <trkpt lat="41.120602" lon="-6.715407">
        <ele>663.461</ele>
        <time>2018-07-24T12:12:08Z</time>
      </trkpt>
      <trkpt lat="41.12057" lon="-6.715452">
        <ele>663.411</ele>
        <time>2018-07-24T12:12:09Z</time>
      </trkpt>
      <trkpt lat="41.120539" lon="-6.715498">
        <ele>663.359</ele>
        <time>2018-07-24T12:12:10Z</time>
      </trkpt>
      <trkpt lat="41.120512" lon="-6.715547">
        <ele>663.314</ele>
        <time>2018-07-24T12:12:11Z</time>
      </trkpt>
      <trkpt lat="41.120486" lon="-6.715594">
        <ele>663.275</ele>
        <time>2018-07-24T12:12:12Z</time>
      </trkpt>
      <trkpt lat="41.120463" lon="-6.715641">
        <ele>663.166</ele>
        <time>2018-07-24T12:12:13Z</time>
      </trkpt>
      <trkpt lat="41.120404" lon="-6.715778">
        <ele>663.134</ele>
        <time>2018-07-24T12:12:16Z</time>
      </trkpt>
      <trkpt lat="41.120386" lon="-6.715826">
        <ele>663.107</ele>
        <time>2018-07-24T12:12:17Z</time>
      </trkpt>
      <trkpt lat="41.120369" lon="-6.715873">
        <ele>663.086</ele>
        <time>2018-07-24T12:12:18Z</time>
      </trkpt>
      <trkpt lat="41.120352" lon="-6.715922">
        <ele>663.066</ele>
        <time>2018-07-24T12:12:19Z</time>
      </trkpt>
      <trkpt lat="41.120333" lon="-6.71597">
        <ele>663.022</ele>
        <time>2018-07-24T12:12:20Z</time>
      </trkpt>
      <trkpt lat="41.120302" lon="-6.716077">
        <ele>662.993</ele>
        <time>2018-07-24T12:12:22Z</time>
      </trkpt>
      <trkpt lat="41.120286" lon="-6.716128">
        <ele>662.963</ele>
        <time>2018-07-24T12:12:23Z</time>
      </trkpt>
      <trkpt lat="41.120267" lon="-6.716179">
        <ele>662.933</ele>
        <time>2018-07-24T12:12:24Z</time>
      </trkpt>
      <trkpt lat="41.120248" lon="-6.716225">
        <ele>662.9</ele>
        <time>2018-07-24T12:12:25Z</time>
      </trkpt>
      <trkpt lat="41.120226" lon="-6.71627">
        <ele>662.869</ele>
        <time>2018-07-24T12:12:26Z</time>
      </trkpt>
      <trkpt lat="41.120204" lon="-6.716312">
        <ele>662.842</ele>
        <time>2018-07-24T12:12:27Z</time>
      </trkpt>
      <trkpt lat="41.120183" lon="-6.716355">
        <ele>662.84</ele>
        <time>2018-07-24T12:12:28Z</time>
      </trkpt>
      <trkpt lat="41.120162" lon="-6.716396">
        <ele>662.837</ele>
        <time>2018-07-24T12:12:29Z</time>
      </trkpt>
      <trkpt lat="41.12014" lon="-6.716434">
        <ele>662.834</ele>
        <time>2018-07-24T12:12:30Z</time>
      </trkpt>
      <trkpt lat="41.120117" lon="-6.71647">
        <ele>662.828</ele>
        <time>2018-07-24T12:12:31Z</time>
      </trkpt>
      <trkpt lat="41.120062" lon="-6.716528">
        <ele>662.819</ele>
        <time>2018-07-24T12:12:33Z</time>
      </trkpt>
      <trkpt lat="41.120008" lon="-6.716561">
        <ele>662.805</ele>
        <time>2018-07-24T12:12:35Z</time>
      </trkpt>
      <trkpt lat="41.119945" lon="-6.716616">
        <ele>662.795</ele>
        <time>2018-07-24T12:12:38Z</time>
      </trkpt>
      <trkpt lat="41.119914" lon="-6.716645">
        <ele>662.785</ele>
        <time>2018-07-24T12:12:40Z</time>
      </trkpt>
      <trkpt lat="41.119889" lon="-6.716673">
        <ele>662.775</ele>
        <time>2018-07-24T12:12:42Z</time>
      </trkpt>
      <trkpt lat="41.119856" lon="-6.716705">
        <ele>662.763</ele>
        <time>2018-07-24T12:12:44Z</time>
      </trkpt>
      <trkpt lat="41.119823" lon="-6.716737">
        <ele>662.752</ele>
        <time>2018-07-24T12:12:46Z</time>
      </trkpt>
      <trkpt lat="41.119791" lon="-6.716768">
        <ele>662.739</ele>
        <time>2018-07-24T12:12:48Z</time>
      </trkpt>
      <trkpt lat="41.119758" lon="-6.716804">
        <ele>662.721</ele>
        <time>2018-07-24T12:12:50Z</time>
      </trkpt>
      <trkpt lat="41.119704" lon="-6.716839">
        <ele>662.706</ele>
        <time>2018-07-24T12:12:53Z</time>
      </trkpt>
      <trkpt lat="41.119664" lon="-6.716864">
        <ele>662.682</ele>
        <time>2018-07-24T12:12:55Z</time>
      </trkpt>
      <trkpt lat="41.119606" lon="-6.716909">
        <ele>662.674</ele>
        <time>2018-07-24T12:12:58Z</time>
      </trkpt>
      <trkpt lat="41.119586" lon="-6.716923">
        <ele>662.666</ele>
        <time>2018-07-24T12:12:59Z</time>
      </trkpt>
      <trkpt lat="41.119565" lon="-6.716937">
        <ele>662.648</ele>
        <time>2018-07-24T12:13:00Z</time>
      </trkpt>
      <trkpt lat="41.119532" lon="-6.71696">
        <ele>662.621</ele>
        <time>2018-07-24T12:13:02Z</time>
      </trkpt>
      <trkpt lat="41.119488" lon="-6.716994">
        <ele>662.604</ele>
        <time>2018-07-24T12:13:05Z</time>
      </trkpt>
      <trkpt lat="41.11946" lon="-6.717015">
        <ele>662.589</ele>
        <time>2018-07-24T12:13:07Z</time>
      </trkpt>
      <trkpt lat="41.119428" lon="-6.717041">
        <ele>662.576</ele>
        <time>2018-07-24T12:13:09Z</time>
      </trkpt>
      <trkpt lat="41.119397" lon="-6.717064">
        <ele>662.565</ele>
        <time>2018-07-24T12:13:11Z</time>
      </trkpt>
      <trkpt lat="41.119366" lon="-6.71709">
        <ele>662.552</ele>
        <time>2018-07-24T12:13:13Z</time>
      </trkpt>
      <trkpt lat="41.119324" lon="-6.717144">
        <ele>662.54</ele>
        <time>2018-07-24T12:13:16Z</time>
      </trkpt>
      <trkpt lat="41.119274" lon="-6.7172">
        <ele>662.532</ele>
        <time>2018-07-24T12:13:19Z</time>
      </trkpt>
      <trkpt lat="41.119232" lon="-6.717233">
        <ele>662.525</ele>
        <time>2018-07-24T12:13:21Z</time>
      </trkpt>
      <trkpt lat="41.119201" lon="-6.717281">
        <ele>662.521</ele>
        <time>2018-07-24T12:13:23Z</time>
      </trkpt>
      <trkpt lat="41.119188" lon="-6.717305">
        <ele>662.515</ele>
        <time>2018-07-24T12:13:24Z</time>
      </trkpt>
      <trkpt lat="41.119163" lon="-6.717345">
        <ele>662.505</ele>
        <time>2018-07-24T12:13:26Z</time>
      </trkpt>
      <trkpt lat="41.119131" lon="-6.717416">
        <ele>662.501</ele>
        <time>2018-07-24T12:13:30Z</time>
      </trkpt>
      <trkpt lat="41.119109" lon="-6.717461">
        <ele>662.498</ele>
        <time>2018-07-24T12:13:32Z</time>
      </trkpt>
      <trkpt lat="41.119087" lon="-6.717507">
        <ele>662.494</ele>
        <time>2018-07-24T12:13:34Z</time>
      </trkpt>
      <trkpt lat="41.119042" lon="-6.717562">
        <ele>662.492</ele>
        <time>2018-07-24T12:13:37Z</time>
      </trkpt>
      <trkpt lat="41.118986" lon="-6.717614">
        <ele>662.492</ele>
        <time>2018-07-24T12:13:40Z</time>
      </trkpt>
      <trkpt lat="41.118966" lon="-6.717631">
        <ele>662.492</ele>
        <time>2018-07-24T12:13:41Z</time>
      </trkpt>
      <trkpt lat="41.118928" lon="-6.717674">
        <ele>662.492</ele>
        <time>2018-07-24T12:13:43Z</time>
      </trkpt>
      <trkpt lat="41.118907" lon="-6.717696">
        <ele>662.494</ele>
        <time>2018-07-24T12:13:44Z</time>
      </trkpt>
      <trkpt lat="41.118852" lon="-6.71772">
        <ele>662.496</ele>
        <time>2018-07-24T12:13:46Z</time>
      </trkpt>
      <trkpt lat="41.11883" lon="-6.717732">
        <ele>662.497</ele>
        <time>2018-07-24T12:13:47Z</time>
      </trkpt>
      <trkpt lat="41.118806" lon="-6.717747">
        <ele>662.5</ele>
        <time>2018-07-24T12:13:48Z</time>
      </trkpt>
      <trkpt lat="41.118782" lon="-6.71776">
        <ele>662.502</ele>
        <time>2018-07-24T12:13:49Z</time>
      </trkpt>
      <trkpt lat="41.118761" lon="-6.717772">
        <ele>662.506</ele>
        <time>2018-07-24T12:13:50Z</time>
      </trkpt>
      <trkpt lat="41.118721" lon="-6.717791">
        <ele>662.512</ele>
        <time>2018-07-24T12:13:52Z</time>
      </trkpt>
      <trkpt lat="41.118661" lon="-6.717813">
        <ele>662.514</ele>
        <time>2018-07-24T12:13:55Z</time>
      </trkpt>
      <trkpt lat="41.118639" lon="-6.71782">
        <ele>662.519</ele>
        <time>2018-07-24T12:13:56Z</time>
      </trkpt>
      <trkpt lat="41.118567" lon="-6.717841">
        <ele>662.522</ele>
        <time>2018-07-24T12:13:59Z</time>
      </trkpt>
      <trkpt lat="41.118516" lon="-6.717849">
        <ele>662.522</ele>
        <time>2018-07-24T12:14:01Z</time>
      </trkpt>
      <trkpt lat="41.118488" lon="-6.717856">
        <ele>662.522</ele>
        <time>2018-07-24T12:14:02Z</time>
      </trkpt>
      <trkpt lat="41.118463" lon="-6.717863">
        <ele>662.521</ele>
        <time>2018-07-24T12:14:03Z</time>
      </trkpt>
      <trkpt lat="41.118417" lon="-6.717863">
        <ele>662.521</ele>
        <time>2018-07-24T12:14:05Z</time>
      </trkpt>
      <trkpt lat="41.118394" lon="-6.71786">
        <ele>662.522</ele>
        <time>2018-07-24T12:14:06Z</time>
      </trkpt>
      <trkpt lat="41.118348" lon="-6.717865">
        <ele>662.523</ele>
        <time>2018-07-24T12:14:08Z</time>
      </trkpt>
      <trkpt lat="41.118325" lon="-6.717869">
        <ele>662.525</ele>
        <time>2018-07-24T12:14:09Z</time>
      </trkpt>
      <trkpt lat="41.118275" lon="-6.717863">
        <ele>662.527</ele>
        <time>2018-07-24T12:14:11Z</time>
      </trkpt>
      <trkpt lat="41.118229" lon="-6.717867">
        <ele>662.529</ele>
        <time>2018-07-24T12:14:13Z</time>
      </trkpt>
      <trkpt lat="41.118206" lon="-6.71787">
        <ele>662.535</ele>
        <time>2018-07-24T12:14:14Z</time>
      </trkpt>
      <trkpt lat="41.118149" lon="-6.71787">
        <ele>662.54</ele>
        <time>2018-07-24T12:14:17Z</time>
      </trkpt>
      <trkpt lat="41.118104" lon="-6.717871">
        <ele>662.544</ele>
        <time>2018-07-24T12:14:19Z</time>
      </trkpt>
      <trkpt lat="41.118063" lon="-6.717874">
        <ele>662.545</ele>
        <time>2018-07-24T12:14:21Z</time>
      </trkpt>
      <trkpt lat="41.118038" lon="-6.717876">
        <ele>662.551</ele>
        <time>2018-07-24T12:14:22Z</time>
      </trkpt>
      <trkpt lat="41.117972" lon="-6.717877">
        <ele>662.556</ele>
        <time>2018-07-24T12:14:25Z</time>
      </trkpt>
      <trkpt lat="41.11793" lon="-6.717881">
        <ele>662.568</ele>
        <time>2018-07-24T12:14:27Z</time>
      </trkpt>
      <trkpt lat="41.117872" lon="-6.717875">
        <ele>662.572</ele>
        <time>2018-07-24T12:14:30Z</time>
      </trkpt>
      <trkpt lat="41.117845" lon="-6.717873">
        <ele>662.581</ele>
        <time>2018-07-24T12:14:31Z</time>
      </trkpt>
      <trkpt lat="41.117805" lon="-6.717868">
        <ele>662.591</ele>
        <time>2018-07-24T12:14:33Z</time>
      </trkpt>
      <trkpt lat="41.117761" lon="-6.717863">
        <ele>662.601</ele>
        <time>2018-07-24T12:14:35Z</time>
      </trkpt>
      <trkpt lat="41.11771" lon="-6.717852">
        <ele>662.607</ele>
        <time>2018-07-24T12:14:37Z</time>
      </trkpt>
      <trkpt lat="41.117687" lon="-6.717847">
        <ele>662.614</ele>
        <time>2018-07-24T12:14:38Z</time>
      </trkpt>
      <trkpt lat="41.117664" lon="-6.717843">
        <ele>662.621</ele>
        <time>2018-07-24T12:14:39Z</time>
      </trkpt>
      <trkpt lat="41.117641" lon="-6.717838">
        <ele>662.628</ele>
        <time>2018-07-24T12:14:40Z</time>
      </trkpt>
      <trkpt lat="41.117618" lon="-6.717834">
        <ele>662.635</ele>
        <time>2018-07-24T12:14:41Z</time>
      </trkpt>
      <trkpt lat="41.117594" lon="-6.717831">
        <ele>662.642</ele>
        <time>2018-07-24T12:14:42Z</time>
      </trkpt>
      <trkpt lat="41.117569" lon="-6.717829">
        <ele>662.65</ele>
        <time>2018-07-24T12:14:43Z</time>
      </trkpt>
      <trkpt lat="41.117545" lon="-6.717827">
        <ele>662.664</ele>
        <time>2018-07-24T12:14:44Z</time>
      </trkpt>
      <trkpt lat="41.117504" lon="-6.71782">
        <ele>662.679</ele>
        <time>2018-07-24T12:14:46Z</time>
      </trkpt>
      <trkpt lat="41.11746" lon="-6.717809">
        <ele>662.703</ele>
        <time>2018-07-24T12:14:48Z</time>
      </trkpt>
      <trkpt lat="41.117405" lon="-6.717811">
        <ele>662.711</ele>
        <time>2018-07-24T12:14:51Z</time>
      </trkpt>
      <trkpt lat="41.117377" lon="-6.717813">
        <ele>662.719</ele>
        <time>2018-07-24T12:14:52Z</time>
      </trkpt>
      <trkpt lat="41.117351" lon="-6.717818">
        <ele>662.727</ele>
        <time>2018-07-24T12:14:53Z</time>
      </trkpt>
      <trkpt lat="41.11732" lon="-6.717823">
        <ele>662.744</ele>
        <time>2018-07-24T12:14:54Z</time>
      </trkpt>
      <trkpt lat="41.117258" lon="-6.717827">
        <ele>662.753</ele>
        <time>2018-07-24T12:14:56Z</time>
      </trkpt>
      <trkpt lat="41.117226" lon="-6.717832">
        <ele>662.762</ele>
        <time>2018-07-24T12:14:57Z</time>
      </trkpt>
      <trkpt lat="41.117193" lon="-6.717838">
        <ele>662.77</ele>
        <time>2018-07-24T12:14:58Z</time>
      </trkpt>
      <trkpt lat="41.117157" lon="-6.717841">
        <ele>662.779</ele>
        <time>2018-07-24T12:14:59Z</time>
      </trkpt>
      <trkpt lat="41.117122" lon="-6.717848">
        <ele>662.789</ele>
        <time>2018-07-24T12:15:00Z</time>
      </trkpt>
      <trkpt lat="41.117086" lon="-6.717858">
        <ele>662.797</ele>
        <time>2018-07-24T12:15:01Z</time>
      </trkpt>
      <trkpt lat="41.117051" lon="-6.717869">
        <ele>662.878</ele>
        <time>2018-07-24T12:15:02Z</time>
      </trkpt>
      <trkpt lat="41.117015" lon="-6.717879">
        <ele>662.943</ele>
        <time>2018-07-24T12:15:03Z</time>
      </trkpt>
      <trkpt lat="41.116977" lon="-6.71789">
        <ele>662.949</ele>
        <time>2018-07-24T12:15:04Z</time>
      </trkpt>
      <trkpt lat="41.116938" lon="-6.7179">
        <ele>662.999</ele>
        <time>2018-07-24T12:15:05Z</time>
      </trkpt>
      <trkpt lat="41.1169" lon="-6.717912">
        <ele>663.003</ele>
        <time>2018-07-24T12:15:06Z</time>
      </trkpt>
      <trkpt lat="41.116863" lon="-6.717926">
        <ele>663.048</ele>
        <time>2018-07-24T12:15:07Z</time>
      </trkpt>
      <trkpt lat="41.116828" lon="-6.717937">
        <ele>663.086</ele>
        <time>2018-07-24T12:15:08Z</time>
      </trkpt>
      <trkpt lat="41.116791" lon="-6.717947">
        <ele>663.121</ele>
        <time>2018-07-24T12:15:09Z</time>
      </trkpt>
      <trkpt lat="41.116753" lon="-6.71796">
        <ele>663.148</ele>
        <time>2018-07-24T12:15:10Z</time>
      </trkpt>
      <trkpt lat="41.116711" lon="-6.717972">
        <ele>663.172</ele>
        <time>2018-07-24T12:15:11Z</time>
      </trkpt>
      <trkpt lat="41.11667" lon="-6.717983">
        <ele>663.197</ele>
        <time>2018-07-24T12:15:12Z</time>
      </trkpt>
      <trkpt lat="41.116629" lon="-6.717993">
        <ele>663.218</ele>
        <time>2018-07-24T12:15:13Z</time>
      </trkpt>
      <trkpt lat="41.116589" lon="-6.718005">
        <ele>663.242</ele>
        <time>2018-07-24T12:15:14Z</time>
      </trkpt>
      <trkpt lat="41.11655" lon="-6.718016">
        <ele>663.261</ele>
        <time>2018-07-24T12:15:15Z</time>
      </trkpt>
      <trkpt lat="41.116511" lon="-6.718031">
        <ele>663.277</ele>
        <time>2018-07-24T12:15:16Z</time>
      </trkpt>
      <trkpt lat="41.116471" lon="-6.718044">
        <ele>663.29</ele>
        <time>2018-07-24T12:15:17Z</time>
      </trkpt>
      <trkpt lat="41.116428" lon="-6.718058">
        <ele>663.299</ele>
        <time>2018-07-24T12:15:18Z</time>
      </trkpt>
      <trkpt lat="41.116381" lon="-6.718074">
        <ele>663.304</ele>
        <time>2018-07-24T12:15:19Z</time>
      </trkpt>
      <trkpt lat="41.116333" lon="-6.718091">
        <ele>663.314</ele>
        <time>2018-07-24T12:15:20Z</time>
      </trkpt>
      <trkpt lat="41.116286" lon="-6.718107">
        <ele>663.326</ele>
        <time>2018-07-24T12:15:21Z</time>
      </trkpt>
      <trkpt lat="41.11624" lon="-6.718125">
        <ele>663.336</ele>
        <time>2018-07-24T12:15:22Z</time>
      </trkpt>
      <trkpt lat="41.116195" lon="-6.718143">
        <ele>663.346</ele>
        <time>2018-07-24T12:15:23Z</time>
      </trkpt>
      <trkpt lat="41.116147" lon="-6.718157">
        <ele>663.354</ele>
        <time>2018-07-24T12:15:24Z</time>
      </trkpt>
      <trkpt lat="41.116096" lon="-6.718173">
        <ele>663.356</ele>
        <time>2018-07-24T12:15:25Z</time>
      </trkpt>
      <trkpt lat="41.116046" lon="-6.718191">
        <ele>663.357</ele>
        <time>2018-07-24T12:15:26Z</time>
      </trkpt>
      <trkpt lat="41.115992" lon="-6.718209">
        <ele>663.358</ele>
        <time>2018-07-24T12:15:27Z</time>
      </trkpt>
      <trkpt lat="41.115884" lon="-6.718236">
        <ele>663.355</ele>
        <time>2018-07-24T12:15:29Z</time>
      </trkpt>
      <trkpt lat="41.11583" lon="-6.718251">
        <ele>663.352</ele>
        <time>2018-07-24T12:15:30Z</time>
      </trkpt>
      <trkpt lat="41.115776" lon="-6.718264">
        <ele>663.35</ele>
        <time>2018-07-24T12:15:31Z</time>
      </trkpt>
      <trkpt lat="41.115722" lon="-6.718276">
        <ele>663.345</ele>
        <time>2018-07-24T12:15:32Z</time>
      </trkpt>
      <trkpt lat="41.115667" lon="-6.718288">
        <ele>663.34</ele>
        <time>2018-07-24T12:15:33Z</time>
      </trkpt>
      <trkpt lat="41.115612" lon="-6.718298">
        <ele>663.339</ele>
        <time>2018-07-24T12:15:34Z</time>
      </trkpt>
      <trkpt lat="41.115559" lon="-6.718307">
        <ele>663.327</ele>
        <time>2018-07-24T12:15:35Z</time>
      </trkpt>
      <trkpt lat="41.115454" lon="-6.718328">
        <ele>663.317</ele>
        <time>2018-07-24T12:15:37Z</time>
      </trkpt>
      <trkpt lat="41.115403" lon="-6.718338">
        <ele>663.3</ele>
        <time>2018-07-24T12:15:38Z</time>
      </trkpt>
      <trkpt lat="41.11535" lon="-6.71835">
        <ele>663.289</ele>
        <time>2018-07-24T12:15:39Z</time>
      </trkpt>
      <trkpt lat="41.115302" lon="-6.718363">
        <ele>663.279</ele>
        <time>2018-07-24T12:15:40Z</time>
      </trkpt>
      <trkpt lat="41.115251" lon="-6.718373">
        <ele>663.276</ele>
        <time>2018-07-24T12:15:41Z</time>
      </trkpt>
      <trkpt lat="41.115201" lon="-6.71838">
        <ele>663.27</ele>
        <time>2018-07-24T12:15:42Z</time>
      </trkpt>
      <trkpt lat="41.11515" lon="-6.718392">
        <ele>663.266</ele>
        <time>2018-07-24T12:15:43Z</time>
      </trkpt>
      <trkpt lat="41.115099" lon="-6.718402">
        <ele>663.266</ele>
        <time>2018-07-24T12:15:44Z</time>
      </trkpt>
      <trkpt lat="41.115047" lon="-6.718411">
        <ele>663.265</ele>
        <time>2018-07-24T12:15:45Z</time>
      </trkpt>
      <trkpt lat="41.114994" lon="-6.718415">
        <ele>663.263</ele>
        <time>2018-07-24T12:15:46Z</time>
      </trkpt>
      <trkpt lat="41.114944" lon="-6.718419">
        <ele>663.266</ele>
        <time>2018-07-24T12:15:47Z</time>
      </trkpt>
      <trkpt lat="41.114894" lon="-6.718425">
        <ele>663.266</ele>
        <time>2018-07-24T12:15:48Z</time>
      </trkpt>
      <trkpt lat="41.114844" lon="-6.718431">
        <ele>663.266</ele>
        <time>2018-07-24T12:15:49Z</time>
      </trkpt>
      <trkpt lat="41.114787" lon="-6.718436">
        <ele>663.273</ele>
        <time>2018-07-24T12:15:50Z</time>
      </trkpt>
      <trkpt lat="41.114733" lon="-6.71844">
        <ele>663.276</ele>
        <time>2018-07-24T12:15:51Z</time>
      </trkpt>
      <trkpt lat="41.114678" lon="-6.718449">
        <ele>663.284</ele>
        <time>2018-07-24T12:15:52Z</time>
      </trkpt>
      <trkpt lat="41.114621" lon="-6.71846">
        <ele>663.303</ele>
        <time>2018-07-24T12:15:53Z</time>
      </trkpt>
      <trkpt lat="41.114553" lon="-6.718473">
        <ele>663.34</ele>
        <time>2018-07-24T12:15:54Z</time>
      </trkpt>
      <trkpt lat="41.11449" lon="-6.718488">
        <ele>663.376</ele>
        <time>2018-07-24T12:15:55Z</time>
      </trkpt>
      <trkpt lat="41.114434" lon="-6.7185">
        <ele>663.421</ele>
        <time>2018-07-24T12:15:56Z</time>
      </trkpt>
      <trkpt lat="41.114374" lon="-6.718514">
        <ele>663.47</ele>
        <time>2018-07-24T12:15:57Z</time>
      </trkpt>
      <trkpt lat="41.114319" lon="-6.718525">
        <ele>663.534</ele>
        <time>2018-07-24T12:15:58Z</time>
      </trkpt>
      <trkpt lat="41.114259" lon="-6.718541">
        <ele>663.598</ele>
        <time>2018-07-24T12:15:59Z</time>
      </trkpt>
      <trkpt lat="41.114199" lon="-6.718569">
        <ele>663.667</ele>
        <time>2018-07-24T12:16:00Z</time>
      </trkpt>
      <trkpt lat="41.114141" lon="-6.718594">
        <ele>663.812</ele>
        <time>2018-07-24T12:16:01Z</time>
      </trkpt>
      <trkpt lat="41.11402" lon="-6.718637">
        <ele>663.886</ele>
        <time>2018-07-24T12:16:03Z</time>
      </trkpt>
      <trkpt lat="41.11396" lon="-6.718659">
        <ele>663.956</ele>
        <time>2018-07-24T12:16:04Z</time>
      </trkpt>
      <trkpt lat="41.113905" lon="-6.718684">
        <ele>664.01</ele>
        <time>2018-07-24T12:16:05Z</time>
      </trkpt>
      <trkpt lat="41.113852" lon="-6.718708">
        <ele>664.069</ele>
        <time>2018-07-24T12:16:06Z</time>
      </trkpt>
      <trkpt lat="41.113797" lon="-6.718729">
        <ele>664.125</ele>
        <time>2018-07-24T12:16:07Z</time>
      </trkpt>
      <trkpt lat="41.113745" lon="-6.718748">
        <ele>664.158</ele>
        <time>2018-07-24T12:16:08Z</time>
      </trkpt>
      <trkpt lat="41.113693" lon="-6.718766">
        <ele>664.195</ele>
        <time>2018-07-24T12:16:09Z</time>
      </trkpt>
      <trkpt lat="41.11364" lon="-6.718786">
        <ele>664.234</ele>
        <time>2018-07-24T12:16:10Z</time>
      </trkpt>
      <trkpt lat="41.113588" lon="-6.718814">
        <ele>664.233</ele>
        <time>2018-07-24T12:16:11Z</time>
      </trkpt>
      <trkpt lat="41.113542" lon="-6.718849">
        <ele>664.229</ele>
        <time>2018-07-24T12:16:12Z</time>
      </trkpt>
      <trkpt lat="41.113493" lon="-6.718883">
        <ele>664.212</ele>
        <time>2018-07-24T12:16:13Z</time>
      </trkpt>
      <trkpt lat="41.113444" lon="-6.718911">
        <ele>664.198</ele>
        <time>2018-07-24T12:16:14Z</time>
      </trkpt>
      <trkpt lat="41.113396" lon="-6.718938">
        <ele>664.213</ele>
        <time>2018-07-24T12:16:15Z</time>
      </trkpt>
      <trkpt lat="41.113349" lon="-6.718965">
        <ele>664.217</ele>
        <time>2018-07-24T12:16:16Z</time>
      </trkpt>
      <trkpt lat="41.113301" lon="-6.718993">
        <ele>664.231</ele>
        <time>2018-07-24T12:16:17Z</time>
      </trkpt>
      <trkpt lat="41.113252" lon="-6.719022">
        <ele>664.24</ele>
        <time>2018-07-24T12:16:18Z</time>
      </trkpt>
      <trkpt lat="41.113201" lon="-6.719049">
        <ele>664.289</ele>
        <time>2018-07-24T12:16:19Z</time>
      </trkpt>
      <trkpt lat="41.11315" lon="-6.719076">
        <ele>664.337</ele>
        <time>2018-07-24T12:16:20Z</time>
      </trkpt>
      <trkpt lat="41.1131" lon="-6.719106">
        <ele>664.427</ele>
        <time>2018-07-24T12:16:21Z</time>
      </trkpt>
      <trkpt lat="41.113051" lon="-6.719135">
        <ele>664.536</ele>
        <time>2018-07-24T12:16:22Z</time>
      </trkpt>
      <trkpt lat="41.113004" lon="-6.719167">
        <ele>664.629</ele>
        <time>2018-07-24T12:16:23Z</time>
      </trkpt>
      <trkpt lat="41.112957" lon="-6.719195">
        <ele>664.723</ele>
        <time>2018-07-24T12:16:24Z</time>
      </trkpt>
      <trkpt lat="41.112907" lon="-6.719224">
        <ele>664.807</ele>
        <time>2018-07-24T12:16:25Z</time>
      </trkpt>
      <trkpt lat="41.112858" lon="-6.719253">
        <ele>664.876</ele>
        <time>2018-07-24T12:16:26Z</time>
      </trkpt>
      <trkpt lat="41.112809" lon="-6.719283">
        <ele>664.953</ele>
        <time>2018-07-24T12:16:27Z</time>
      </trkpt>
      <trkpt lat="41.11276" lon="-6.719314">
        <ele>665.024</ele>
        <time>2018-07-24T12:16:28Z</time>
      </trkpt>
      <trkpt lat="41.112711" lon="-6.719345">
        <ele>665.107</ele>
        <time>2018-07-24T12:16:29Z</time>
      </trkpt>
      <trkpt lat="41.11266" lon="-6.719379">
        <ele>665.231</ele>
        <time>2018-07-24T12:16:30Z</time>
      </trkpt>
      <trkpt lat="41.112612" lon="-6.719416">
        <ele>665.337</ele>
        <time>2018-07-24T12:16:31Z</time>
      </trkpt>
      <trkpt lat="41.112564" lon="-6.719452">
        <ele>665.429</ele>
        <time>2018-07-24T12:16:32Z</time>
      </trkpt>
      <trkpt lat="41.112517" lon="-6.719487">
        <ele>665.535</ele>
        <time>2018-07-24T12:16:33Z</time>
      </trkpt>
      <trkpt lat="41.112472" lon="-6.719524">
        <ele>665.632</ele>
        <time>2018-07-24T12:16:34Z</time>
      </trkpt>
      <trkpt lat="41.112428" lon="-6.719559">
        <ele>665.7</ele>
        <time>2018-07-24T12:16:35Z</time>
      </trkpt>
      <trkpt lat="41.112382" lon="-6.719597">
        <ele>665.76</ele>
        <time>2018-07-24T12:16:36Z</time>
      </trkpt>
      <trkpt lat="41.112338" lon="-6.719635">
        <ele>665.814</ele>
        <time>2018-07-24T12:16:37Z</time>
      </trkpt>
      <trkpt lat="41.112293" lon="-6.719673">
        <ele>665.863</ele>
        <time>2018-07-24T12:16:38Z</time>
      </trkpt>
      <trkpt lat="41.112249" lon="-6.71971">
        <ele>665.91</ele>
        <time>2018-07-24T12:16:39Z</time>
      </trkpt>
      <trkpt lat="41.112207" lon="-6.719748">
        <ele>665.979</ele>
        <time>2018-07-24T12:16:40Z</time>
      </trkpt>
      <trkpt lat="41.112167" lon="-6.719784">
        <ele>666.044</ele>
        <time>2018-07-24T12:16:41Z</time>
      </trkpt>
      <trkpt lat="41.112128" lon="-6.719825">
        <ele>666.098</ele>
        <time>2018-07-24T12:16:42Z</time>
      </trkpt>
      <trkpt lat="41.11209" lon="-6.71986">
        <ele>666.144</ele>
        <time>2018-07-24T12:16:43Z</time>
      </trkpt>
      <trkpt lat="41.112052" lon="-6.719891">
        <ele>666.19</ele>
        <time>2018-07-24T12:16:44Z</time>
      </trkpt>
      <trkpt lat="41.112015" lon="-6.719924">
        <ele>666.259</ele>
        <time>2018-07-24T12:16:45Z</time>
      </trkpt>
      <trkpt lat="41.111927" lon="-6.720028">
        <ele>666.249</ele>
        <time>2018-07-24T12:16:48Z</time>
      </trkpt>
      <trkpt lat="41.111865" lon="-6.720083">
        <ele>666.173</ele>
        <time>2018-07-24T12:16:50Z</time>
      </trkpt>
      <trkpt lat="41.111784" lon="-6.720185">
        <ele>666.141</ele>
        <time>2018-07-24T12:16:53Z</time>
      </trkpt>
      <trkpt lat="41.111757" lon="-6.72022">
        <ele>666.067</ele>
        <time>2018-07-24T12:16:54Z</time>
      </trkpt>
      <trkpt lat="41.111701" lon="-6.720283">
        <ele>666.015</ele>
        <time>2018-07-24T12:16:56Z</time>
      </trkpt>
      <trkpt lat="41.111642" lon="-6.720353">
        <ele>665.998</ele>
        <time>2018-07-24T12:16:58Z</time>
      </trkpt>
      <trkpt lat="41.111613" lon="-6.720389">
        <ele>665.978</ele>
        <time>2018-07-24T12:16:59Z</time>
      </trkpt>
      <trkpt lat="41.111583" lon="-6.720425">
        <ele>665.956</ele>
        <time>2018-07-24T12:17:00Z</time>
      </trkpt>
      <trkpt lat="41.111553" lon="-6.720463">
        <ele>665.937</ele>
        <time>2018-07-24T12:17:01Z</time>
      </trkpt>
      <trkpt lat="41.111521" lon="-6.720501">
        <ele>665.919</ele>
        <time>2018-07-24T12:17:02Z</time>
      </trkpt>
      <trkpt lat="41.111491" lon="-6.720542">
        <ele>665.904</ele>
        <time>2018-07-24T12:17:03Z</time>
      </trkpt>
      <trkpt lat="41.111458" lon="-6.720581">
        <ele>665.891</ele>
        <time>2018-07-24T12:17:04Z</time>
      </trkpt>
      <trkpt lat="41.111425" lon="-6.720618">
        <ele>665.874</ele>
        <time>2018-07-24T12:17:05Z</time>
      </trkpt>
      <trkpt lat="41.111388" lon="-6.720655">
        <ele>665.86</ele>
        <time>2018-07-24T12:17:06Z</time>
      </trkpt>
      <trkpt lat="41.111351" lon="-6.720693">
        <ele>665.844</ele>
        <time>2018-07-24T12:17:07Z</time>
      </trkpt>
      <trkpt lat="41.111315" lon="-6.720733">
        <ele>665.83</ele>
        <time>2018-07-24T12:17:08Z</time>
      </trkpt>
      <trkpt lat="41.11128" lon="-6.720773">
        <ele>665.816</ele>
        <time>2018-07-24T12:17:09Z</time>
      </trkpt>
      <trkpt lat="41.111243" lon="-6.720812">
        <ele>665.799</ele>
        <time>2018-07-24T12:17:10Z</time>
      </trkpt>
      <trkpt lat="41.111206" lon="-6.720855">
        <ele>665.779</ele>
        <time>2018-07-24T12:17:11Z</time>
      </trkpt>
      <trkpt lat="41.111167" lon="-6.720895">
        <ele>665.753</ele>
        <time>2018-07-24T12:17:12Z</time>
      </trkpt>
      <trkpt lat="41.111128" lon="-6.720937">
        <ele>665.724</ele>
        <time>2018-07-24T12:17:13Z</time>
      </trkpt>
      <trkpt lat="41.11109" lon="-6.720973">
        <ele>665.688</ele>
        <time>2018-07-24T12:17:14Z</time>
      </trkpt>
      <trkpt lat="41.111051" lon="-6.721012">
        <ele>665.645</ele>
        <time>2018-07-24T12:17:15Z</time>
      </trkpt>
      <trkpt lat="41.11101" lon="-6.721051">
        <ele>665.597</ele>
        <time>2018-07-24T12:17:16Z</time>
      </trkpt>
      <trkpt lat="41.11097" lon="-6.721094">
        <ele>665.549</ele>
        <time>2018-07-24T12:17:17Z</time>
      </trkpt>
      <trkpt lat="41.110924" lon="-6.721139">
        <ele>665.5</ele>
        <time>2018-07-24T12:17:18Z</time>
      </trkpt>
      <trkpt lat="41.110875" lon="-6.721181">
        <ele>665.445</ele>
        <time>2018-07-24T12:17:19Z</time>
      </trkpt>
      <trkpt lat="41.110826" lon="-6.721224">
        <ele>665.393</ele>
        <time>2018-07-24T12:17:20Z</time>
      </trkpt>
      <trkpt lat="41.110775" lon="-6.721271">
        <ele>665.341</ele>
        <time>2018-07-24T12:17:21Z</time>
      </trkpt>
      <trkpt lat="41.110716" lon="-6.721323">
        <ele>665.292</ele>
        <time>2018-07-24T12:17:22Z</time>
      </trkpt>
      <trkpt lat="41.110654" lon="-6.721374">
        <ele>665.198</ele>
        <time>2018-07-24T12:17:23Z</time>
      </trkpt>
      <trkpt lat="41.110526" lon="-6.721474">
        <ele>665.141</ele>
        <time>2018-07-24T12:17:25Z</time>
      </trkpt>
      <trkpt lat="41.11046" lon="-6.721521">
        <ele>665.072</ele>
        <time>2018-07-24T12:17:26Z</time>
      </trkpt>
      <trkpt lat="41.110388" lon="-6.721566">
        <ele>664.989</ele>
        <time>2018-07-24T12:17:27Z</time>
      </trkpt>
      <trkpt lat="41.110314" lon="-6.721612">
        <ele>664.867</ele>
        <time>2018-07-24T12:17:28Z</time>
      </trkpt>
      <trkpt lat="41.110239" lon="-6.721661">
        <ele>664.707</ele>
        <time>2018-07-24T12:17:29Z</time>
      </trkpt>
      <trkpt lat="41.110159" lon="-6.72171">
        <ele>664.52</ele>
        <time>2018-07-24T12:17:30Z</time>
      </trkpt>
      <trkpt lat="41.110075" lon="-6.721759">
        <ele>664.391</ele>
        <time>2018-07-24T12:17:31Z</time>
      </trkpt>
      <trkpt lat="41.109989" lon="-6.721803">
        <ele>664.186</ele>
        <time>2018-07-24T12:17:32Z</time>
      </trkpt>
      <trkpt lat="41.109902" lon="-6.721847">
        <ele>663.838</ele>
        <time>2018-07-24T12:17:33Z</time>
      </trkpt>
      <trkpt lat="41.109815" lon="-6.721893">
        <ele>663.518</ele>
        <time>2018-07-24T12:17:34Z</time>
      </trkpt>
      <trkpt lat="41.109728" lon="-6.72194">
        <ele>663.226</ele>
        <time>2018-07-24T12:17:35Z</time>
      </trkpt>
      <trkpt lat="41.109637" lon="-6.721985">
        <ele>662.91</ele>
        <time>2018-07-24T12:17:36Z</time>
      </trkpt>
      <trkpt lat="41.109546" lon="-6.722029">
        <ele>662.601</ele>
        <time>2018-07-24T12:17:37Z</time>
      </trkpt>
      <trkpt lat="41.109449" lon="-6.722069">
        <ele>662.289</ele>
        <time>2018-07-24T12:17:38Z</time>
      </trkpt>
      <trkpt lat="41.10935" lon="-6.722098">
        <ele>661.967</ele>
        <time>2018-07-24T12:17:39Z</time>
      </trkpt>
      <trkpt lat="41.109252" lon="-6.722116">
        <ele>661.61</ele>
        <time>2018-07-24T12:17:40Z</time>
      </trkpt>
      <trkpt lat="41.109154" lon="-6.72213">
        <ele>661.338</ele>
        <time>2018-07-24T12:17:41Z</time>
      </trkpt>
      <trkpt lat="41.109057" lon="-6.722144">
        <ele>661.075</ele>
        <time>2018-07-24T12:17:42Z</time>
      </trkpt>
      <trkpt lat="41.108963" lon="-6.722159">
        <ele>661.01</ele>
        <time>2018-07-24T12:17:43Z</time>
      </trkpt>
      <trkpt lat="41.108876" lon="-6.722172">
        <ele>660.83</ele>
        <time>2018-07-24T12:17:44Z</time>
      </trkpt>
      <trkpt lat="41.108794" lon="-6.722179">
        <ele>660.597</ele>
        <time>2018-07-24T12:17:45Z</time>
      </trkpt>
      <trkpt lat="41.108714" lon="-6.722184">
        <ele>660.332</ele>
        <time>2018-07-24T12:17:46Z</time>
      </trkpt>
      <trkpt lat="41.10864" lon="-6.722193">
        <ele>660.055</ele>
        <time>2018-07-24T12:17:47Z</time>
      </trkpt>
      <trkpt lat="41.108571" lon="-6.722204">
        <ele>659.731</ele>
        <time>2018-07-24T12:17:48Z</time>
      </trkpt>
      <trkpt lat="41.108507" lon="-6.722216">
        <ele>659.337</ele>
        <time>2018-07-24T12:17:49Z</time>
      </trkpt>
      <trkpt lat="41.108446" lon="-6.722236">
        <ele>658.876</ele>
        <time>2018-07-24T12:17:50Z</time>
      </trkpt>
      <trkpt lat="41.108389" lon="-6.722262">
        <ele>658.428</ele>
        <time>2018-07-24T12:17:51Z</time>
      </trkpt>
      <trkpt lat="41.108337" lon="-6.722297">
        <ele>657.982</ele>
        <time>2018-07-24T12:17:52Z</time>
      </trkpt>
      <trkpt lat="41.108289" lon="-6.722334">
        <ele>657.598</ele>
        <time>2018-07-24T12:17:53Z</time>
      </trkpt>
      <trkpt lat="41.108242" lon="-6.722367">
        <ele>657.242</ele>
        <time>2018-07-24T12:17:54Z</time>
      </trkpt>
      <trkpt lat="41.108199" lon="-6.722398">
        <ele>656.89</ele>
        <time>2018-07-24T12:17:55Z</time>
      </trkpt>
      <trkpt lat="41.108159" lon="-6.722427">
        <ele>655.825</ele>
        <time>2018-07-24T12:17:56Z</time>
      </trkpt>
      <trkpt lat="41.10805" lon="-6.722554">
        <ele>655.547</ele>
        <time>2018-07-24T12:17:59Z</time>
      </trkpt>
      <trkpt lat="41.108015" lon="-6.722606">
        <ele>655.446</ele>
        <time>2018-07-24T12:18:00Z</time>
      </trkpt>
      <trkpt lat="41.107984" lon="-6.722665">
        <ele>655.696</ele>
        <time>2018-07-24T12:18:01Z</time>
      </trkpt>
      <trkpt lat="41.107958" lon="-6.722722">
        <ele>655.843</ele>
        <time>2018-07-24T12:18:02Z</time>
      </trkpt>
      <trkpt lat="41.10794" lon="-6.722787">
        <ele>655.933</ele>
        <time>2018-07-24T12:18:03Z</time>
      </trkpt>
      <trkpt lat="41.107926" lon="-6.722852">
        <ele>655.942</ele>
        <time>2018-07-24T12:18:04Z</time>
      </trkpt>
      <trkpt lat="41.107913" lon="-6.722922">
        <ele>656.067</ele>
        <time>2018-07-24T12:18:05Z</time>
      </trkpt>
      <trkpt lat="41.107897" lon="-6.722987">
        <ele>656.145</ele>
        <time>2018-07-24T12:18:06Z</time>
      </trkpt>
      <trkpt lat="41.107874" lon="-6.723045">
        <ele>656.19</ele>
        <time>2018-07-24T12:18:07Z</time>
      </trkpt>
      <trkpt lat="41.107846" lon="-6.723098">
        <ele>656.175</ele>
        <time>2018-07-24T12:18:08Z</time>
      </trkpt>
      <trkpt lat="41.107786" lon="-6.723172">
        <ele>656.269</ele>
        <time>2018-07-24T12:18:10Z</time>
      </trkpt>
      <trkpt lat="41.107731" lon="-6.723242">
        <ele>656.284</ele>
        <time>2018-07-24T12:18:12Z</time>
      </trkpt>
      <trkpt lat="41.107704" lon="-6.723273">
        <ele>656.297</ele>
        <time>2018-07-24T12:18:13Z</time>
      </trkpt>
      <trkpt lat="41.107665" lon="-6.723341">
        <ele>656.313</ele>
        <time>2018-07-24T12:18:15Z</time>
      </trkpt>
      <trkpt lat="41.107639" lon="-6.723409">
        <ele>656.359</ele>
        <time>2018-07-24T12:18:18Z</time>
      </trkpt>
      <trkpt lat="41.107626" lon="-6.723443">
        <ele>656.42</ele>
        <time>2018-07-24T12:18:20Z</time>
      </trkpt>
      <trkpt lat="41.107619" lon="-6.723459">
        <ele>656.125</ele>
        <time>2018-07-24T12:18:28Z</time>
      </trkpt>
      <trkpt lat="41.107624" lon="-6.723529">
        <ele>655.949</ele>
        <time>2018-07-24T12:19:25Z</time>
      </trkpt>
      <trkpt lat="41.107622" lon="-6.723595">
        <ele>655.753</ele>
        <time>2018-07-24T12:19:29Z</time>
      </trkpt>
      <trkpt lat="41.107601" lon="-6.723663">
        <ele>655.556</ele>
        <time>2018-07-24T12:19:33Z</time>
      </trkpt>
      <trkpt lat="41.107548" lon="-6.723678">
        <ele>655.369</ele>
        <time>2018-07-24T12:19:37Z</time>
      </trkpt>
      <trkpt lat="41.107501" lon="-6.72364">
        <ele>655.096</ele>
        <time>2018-07-24T12:19:41Z</time>
      </trkpt>
      <trkpt lat="41.107467" lon="-6.723605">
        <ele>650.177</ele>
        <time>2018-07-24T12:19:50Z</time>
      </trkpt>
      <trkpt lat="41.107467" lon="-6.723605">
        <ele>648.937</ele>
        <time>2018-07-24T12:20:06Z</time>
      </trkpt>
      <trkpt lat="41.107467" lon="-6.723605">
        <ele>648.753</ele>
        <time>2018-07-24T12:27:25Z</time>
      </trkpt>
      <trkpt lat="41.107465" lon="-6.72371">
        <ele>648.564</ele>
        <time>2018-07-24T12:27:25Z</time>
      </trkpt>
      <trkpt lat="41.107405" lon="-6.723674">
        <ele>648.367</ele>
        <time>2018-07-24T12:27:59Z</time>
      </trkpt>
      <trkpt lat="41.107346" lon="-6.723653">
        <ele>648.236</ele>
        <time>2018-07-24T12:28:02Z</time>
      </trkpt>
      <trkpt lat="41.107289" lon="-6.723618">
        <ele>648.042</ele>
        <time>2018-07-24T12:28:05Z</time>
      </trkpt>
      <trkpt lat="41.107231" lon="-6.72359">
        <ele>647.978</ele>
        <time>2018-07-24T12:28:08Z</time>
      </trkpt>
      <trkpt lat="41.107191" lon="-6.723568">
        <ele>647.852</ele>
        <time>2018-07-24T12:28:10Z</time>
      </trkpt>
      <trkpt lat="41.107124" lon="-6.72354">
        <ele>647.668</ele>
        <time>2018-07-24T12:28:13Z</time>
      </trkpt>
      <trkpt lat="41.107103" lon="-6.723528">
        <ele>647.609</ele>
        <time>2018-07-24T12:28:14Z</time>
      </trkpt>
      <trkpt lat="41.107063" lon="-6.723504">
        <ele>647.552</ele>
        <time>2018-07-24T12:28:16Z</time>
      </trkpt>
      <trkpt lat="41.106996" lon="-6.723476">
        <ele>647.441</ele>
        <time>2018-07-24T12:28:19Z</time>
      </trkpt>
      <trkpt lat="41.106974" lon="-6.723465">
        <ele>647.28</ele>
        <time>2018-07-24T12:28:20Z</time>
      </trkpt>
      <trkpt lat="41.106952" lon="-6.723456">
        <ele>647.228</ele>
        <time>2018-07-24T12:28:21Z</time>
      </trkpt>
      <trkpt lat="41.106909" lon="-6.723438">
        <ele>647.13</ele>
        <time>2018-07-24T12:28:23Z</time>
      </trkpt>
      <trkpt lat="41.106866" lon="-6.723371">
        <ele>647.082</ele>
        <time>2018-07-24T12:28:26Z</time>
      </trkpt>
      <trkpt lat="41.106849" lon="-6.723347">
        <ele>647.034</ele>
        <time>2018-07-24T12:28:27Z</time>
      </trkpt>
      <trkpt lat="41.10681" lon="-6.723304">
        <ele>646.944</ele>
        <time>2018-07-24T12:28:29Z</time>
      </trkpt>
      <trkpt lat="41.106792" lon="-6.723283">
        <ele>646.818</ele>
        <time>2018-07-24T12:28:30Z</time>
      </trkpt>
      <trkpt lat="41.106773" lon="-6.723261">
        <ele>646.742</ele>
        <time>2018-07-24T12:28:31Z</time>
      </trkpt>
      <trkpt lat="41.10674" lon="-6.723227">
        <ele>646.641</ele>
        <time>2018-07-24T12:28:33Z</time>
      </trkpt>
      <trkpt lat="41.106686" lon="-6.723193">
        <ele>646.556</ele>
        <time>2018-07-24T12:28:36Z</time>
      </trkpt>
      <trkpt lat="41.106637" lon="-6.723198">
        <ele>646.508</ele>
        <time>2018-07-24T12:28:38Z</time>
      </trkpt>
      <trkpt lat="41.106575" lon="-6.723214">
        <ele>646.488</ele>
        <time>2018-07-24T12:28:41Z</time>
      </trkpt>
      <trkpt lat="41.106515" lon="-6.72322">
        <ele>646.472</ele>
        <time>2018-07-24T12:28:44Z</time>
      </trkpt>
      <trkpt lat="41.106466" lon="-6.723225">
        <ele>646.448</ele>
        <time>2018-07-24T12:28:46Z</time>
      </trkpt>
      <trkpt lat="41.106442" lon="-6.723228">
        <ele>646.439</ele>
        <time>2018-07-24T12:28:47Z</time>
      </trkpt>
      <trkpt lat="41.106413" lon="-6.723232">
        <ele>646.432</ele>
        <time>2018-07-24T12:28:48Z</time>
      </trkpt>
      <trkpt lat="41.10636" lon="-6.723246">
        <ele>646.421</ele>
        <time>2018-07-24T12:28:50Z</time>
      </trkpt>
      <trkpt lat="41.106331" lon="-6.723253">
        <ele>646.418</ele>
        <time>2018-07-24T12:28:51Z</time>
      </trkpt>
      <trkpt lat="41.106306" lon="-6.72326">
        <ele>646.415</ele>
        <time>2018-07-24T12:28:52Z</time>
      </trkpt>
      <trkpt lat="41.106249" lon="-6.723267">
        <ele>646.413</ele>
        <time>2018-07-24T12:28:54Z</time>
      </trkpt>
      <trkpt lat="41.106222" lon="-6.723272">
        <ele>646.411</ele>
        <time>2018-07-24T12:28:55Z</time>
      </trkpt>
      <trkpt lat="41.106194" lon="-6.723275">
        <ele>646.416</ele>
        <time>2018-07-24T12:28:56Z</time>
      </trkpt>
      <trkpt lat="41.106166" lon="-6.723279">
        <ele>646.41</ele>
        <time>2018-07-24T12:28:57Z</time>
      </trkpt>
      <trkpt lat="41.106103" lon="-6.723283">
        <ele>646.403</ele>
        <time>2018-07-24T12:28:59Z</time>
      </trkpt>
      <trkpt lat="41.106014" lon="-6.723305">
        <ele>646.393</ele>
        <time>2018-07-24T12:29:02Z</time>
      </trkpt>
      <trkpt lat="41.105965" lon="-6.723302">
        <ele>646.378</ele>
        <time>2018-07-24T12:29:04Z</time>
      </trkpt>
      <trkpt lat="41.10594" lon="-6.723304">
        <ele>646.373</ele>
        <time>2018-07-24T12:29:05Z</time>
      </trkpt>
      <trkpt lat="41.105916" lon="-6.723305">
        <ele>646.368</ele>
        <time>2018-07-24T12:29:06Z</time>
      </trkpt>
      <trkpt lat="41.105861" lon="-6.72332">
        <ele>646.356</ele>
        <time>2018-07-24T12:29:08Z</time>
      </trkpt>
      <trkpt lat="41.105832" lon="-6.72333">
        <ele>646.342</ele>
        <time>2018-07-24T12:29:09Z</time>
      </trkpt>
      <trkpt lat="41.105805" lon="-6.723339">
        <ele>646.315</ele>
        <time>2018-07-24T12:29:10Z</time>
      </trkpt>
      <trkpt lat="41.105757" lon="-6.72336">
        <ele>646.296</ele>
        <time>2018-07-24T12:29:12Z</time>
      </trkpt>
      <trkpt lat="41.105709" lon="-6.723368">
        <ele>646.267</ele>
        <time>2018-07-24T12:29:14Z</time>
      </trkpt>
      <trkpt lat="41.105651" lon="-6.723373">
        <ele>646.239</ele>
        <time>2018-07-24T12:29:17Z</time>
      </trkpt>
      <trkpt lat="41.105617" lon="-6.723379">
        <ele>648.675</ele>
        <time>2018-07-24T12:29:19Z</time>
      </trkpt>
      <trkpt lat="41.105592" lon="-6.723324">
        <ele>648.91</ele>
        <time>2018-07-24T12:29:22Z</time>
      </trkpt>
      <trkpt lat="41.105561" lon="-6.72332">
        <ele>648.963</ele>
        <time>2018-07-24T12:29:29Z</time>
      </trkpt>
      <trkpt lat="41.105561" lon="-6.72332">
        <ele>649.014</ele>
        <time>2018-07-24T12:30:22Z</time>
      </trkpt>
      <trkpt lat="41.105561" lon="-6.72332">
        <ele>649.062</ele>
        <time>2018-07-24T12:38:18Z</time>
      </trkpt>
      <trkpt lat="41.105519" lon="-6.723399">
        <ele>649.108</ele>
        <time>2018-07-24T12:38:19Z</time>
      </trkpt>
      <trkpt lat="41.105561" lon="-6.723491">
        <ele>649.151</ele>
        <time>2018-07-24T12:38:37Z</time>
      </trkpt>
      <trkpt lat="41.105546" lon="-6.723558">
        <ele>649.192</ele>
        <time>2018-07-24T12:38:39Z</time>
      </trkpt>
      <trkpt lat="41.105524" lon="-6.72362">
        <ele>649.211</ele>
        <time>2018-07-24T12:38:41Z</time>
      </trkpt>
      <trkpt lat="41.105509" lon="-6.723664">
        <ele>649.249</ele>
        <time>2018-07-24T12:38:43Z</time>
      </trkpt>
      <trkpt lat="41.105491" lon="-6.723727">
        <ele>649.267</ele>
        <time>2018-07-24T12:38:45Z</time>
      </trkpt>
      <trkpt lat="41.105462" lon="-6.723784">
        <ele>649.301</ele>
        <time>2018-07-24T12:38:47Z</time>
      </trkpt>
      <trkpt lat="41.105444" lon="-6.723848">
        <ele>649.317</ele>
        <time>2018-07-24T12:38:49Z</time>
      </trkpt>
      <trkpt lat="41.105434" lon="-6.723883">
        <ele>649.333</ele>
        <time>2018-07-24T12:38:50Z</time>
      </trkpt>
      <trkpt lat="41.105422" lon="-6.723958">
        <ele>649.378</ele>
        <time>2018-07-24T12:38:52Z</time>
      </trkpt>
      <trkpt lat="41.105417" lon="-6.72399">
        <ele>649.406</ele>
        <time>2018-07-24T12:38:53Z</time>
      </trkpt>
      <trkpt lat="41.105405" lon="-6.724046">
        <ele>649.433</ele>
        <time>2018-07-24T12:38:55Z</time>
      </trkpt>
      <trkpt lat="41.105398" lon="-6.72408">
        <ele>649.458</ele>
        <time>2018-07-24T12:38:56Z</time>
      </trkpt>
      <trkpt lat="41.105392" lon="-6.724112">
        <ele>649.483</ele>
        <time>2018-07-24T12:38:57Z</time>
      </trkpt>
      <trkpt lat="41.105364" lon="-6.724209">
        <ele>649.507</ele>
        <time>2018-07-24T12:39:00Z</time>
      </trkpt>
      <trkpt lat="41.10534" lon="-6.724259">
        <ele>649.53</ele>
        <time>2018-07-24T12:39:02Z</time>
      </trkpt>
      <trkpt lat="41.105328" lon="-6.724319">
        <ele>649.567</ele>
        <time>2018-07-24T12:39:04Z</time>
      </trkpt>
      <trkpt lat="41.105301" lon="-6.724374">
        <ele>649.567</ele>
        <time>2018-07-24T12:39:06Z</time>
      </trkpt>
      <trkpt lat="41.105283" lon="-6.724429">
        <ele>649.567</ele>
        <time>2018-07-24T12:39:08Z</time>
      </trkpt>
      <trkpt lat="41.105266" lon="-6.724476">
        <ele>650.263</ele>
        <time>2018-07-24T12:39:10Z</time>
      </trkpt>
      <trkpt lat="41.105251" lon="-6.724521">
        <ele>650.431</ele>
        <time>2018-07-24T12:39:12Z</time>
      </trkpt>
      <trkpt lat="41.105235" lon="-6.724576">
        <ele>650.538</ele>
        <time>2018-07-24T12:39:15Z</time>
      </trkpt>
      <trkpt lat="41.105235" lon="-6.724576">
        <ele>650.639</ele>
        <time>2018-07-24T12:39:23Z</time>
      </trkpt>
      <trkpt lat="41.105235" lon="-6.724576">
        <ele>650.714</ele>
        <time>2018-07-24T12:39:24Z</time>
      </trkpt>
      <trkpt lat="41.105235" lon="-6.724576">
        <ele>650.798</ele>
        <time>2018-07-24T12:43:04Z</time>
      </trkpt>
      <trkpt lat="41.105235" lon="-6.724576">
        <ele>650.983</ele>
        <time>2018-07-24T12:43:34Z</time>
      </trkpt>
      <trkpt lat="41.105266" lon="-6.724616">
        <ele>651.115</ele>
        <time>2018-07-24T12:43:34Z</time>
      </trkpt>
      <trkpt lat="41.105266" lon="-6.724616">
        <ele>651.115</ele>
        <time>2018-07-24T12:43:39Z</time>
      </trkpt>
      <trkpt lat="41.105266" lon="-6.724616">
        <ele>651.115</ele>
        <time>2018-07-24T12:44:11Z</time>
      </trkpt>
      <trkpt lat="41.105292" lon="-6.724618">
        <ele>651.115</ele>
        <time>2018-07-24T12:44:12Z</time>
      </trkpt>
      <trkpt lat="41.105281" lon="-6.724687">
        <time>2018-07-24T12:44:27Z</time>
      </trkpt>
      <trkpt lat="41.105239" lon="-6.724711">
        <time>2018-07-24T12:44:39Z</time>
      </trkpt>
      <trkpt lat="41.105254" lon="-6.724799">
        <time>2018-07-24T12:44:46Z</time>
      </trkpt>
      <trkpt lat="41.10528" lon="-6.724853">
        <time>2018-07-24T12:44:50Z</time>
      </trkpt>
      <trkpt lat="41.105268" lon="-6.724921">
        <time>2018-07-24T12:44:56Z</time>
      </trkpt>
      <trkpt lat="41.105251" lon="-6.724981">
        <time>2018-07-24T12:45:00Z</time>
      </trkpt>
      <trkpt lat="41.105251" lon="-6.724981">
        <time>2018-07-24T12:45:08Z</time>
      </trkpt>
      <trkpt lat="41.105251" lon="-6.724981">
        <time>2018-07-24T12:45:09Z</time>
      </trkpt>
      <trkpt lat="41.105251" lon="-6.724981">
        <time>2018-07-24T12:49:15Z</time>
      </trkpt>
      <trkpt lat="41.105251" lon="-6.724981">
        <time>2018-07-24T12:50:38Z</time>
      </trkpt>
      <trkpt lat="41.105251" lon="-6.724981">
        <time>2018-07-24T12:50:40Z</time>
      </trkpt>
    </trkseg>
  </trk>
</gpx>
